<?xml version="1.0" encoding="UTF-8" standalone="no" ?>
<gpx xmlns="http://www.topografix.com/GPX/1/1" xmlns:xsi="http://www.w3.org/2001/XMLSchema-instance" xsi:schemaLocation="http://www.topografix.com/GPX/1/1 http://www.topografix.com/GPX/1/1/gpx.xsd" version="1.1" creator="VisuGPX - https://www.visugpx.com">
  <metadata>
    <name>Tout de l’étang de Thau au départ du cap d’agde</name>
    <desc><![CDATA[Balade fort agréable au depart du cap d’Agde composé en très grande partie de piste cyclable. J’ai un peu merdouillé dans le cap d’Agde ne pas tenir compte du début de la boucle dans le Cap. 
Au retour entre Mèze et Marseillan, un bout de l’itinéraire passe par des chemins, mais praticable en vélo de route. ]]></desc>
  </metadata>
  <trk>
    <name><![CDATA[Tout de l’étang de Thau au départ du cap d’agde_1]]></name>
    <trkseg>
      <trkpt lat="43.27839" lon="3.48121">
        <ele>4.3</ele>
        <time>2025-06-17T07:27:09Z</time>
      </trkpt>
      <trkpt lat="43.27839" lon="3.48121">
        <ele>4.3</ele>
        <time>2025-06-17T07:27:10Z</time>
      </trkpt>
      <trkpt lat="43.27839" lon="3.48121">
        <ele>4.3</ele>
        <time>2025-06-17T07:27:11Z</time>
      </trkpt>
      <trkpt lat="43.27839" lon="3.48121">
        <ele>4.3</ele>
        <time>2025-06-17T07:27:12Z</time>
      </trkpt>
      <trkpt lat="43.27839" lon="3.48121">
        <ele>4.3</ele>
        <time>2025-06-17T07:27:13Z</time>
      </trkpt>
      <trkpt lat="43.27839" lon="3.48121">
        <ele>4.3</ele>
        <time>2025-06-17T07:27:14Z</time>
      </trkpt>
      <trkpt lat="43.27839" lon="3.48121">
        <ele>4.3</ele>
        <time>2025-06-17T07:27:15Z</time>
      </trkpt>
      <trkpt lat="43.27839" lon="3.48121">
        <ele>4.3</ele>
        <time>2025-06-17T07:27:16Z</time>
      </trkpt>
      <trkpt lat="43.27839" lon="3.48121">
        <ele>4.3</ele>
        <time>2025-06-17T07:27:17Z</time>
      </trkpt>
      <trkpt lat="43.27839" lon="3.48121">
        <ele>4.3</ele>
        <time>2025-06-17T07:27:18Z</time>
      </trkpt>
      <trkpt lat="43.27839" lon="3.48121">
        <ele>4.3</ele>
        <time>2025-06-17T07:27:19Z</time>
      </trkpt>
      <trkpt lat="43.27839" lon="3.48121">
        <ele>4.3</ele>
        <time>2025-06-17T07:27:20Z</time>
      </trkpt>
      <trkpt lat="43.27839" lon="3.48121">
        <ele>4.3</ele>
        <time>2025-06-17T07:27:21Z</time>
      </trkpt>
      <trkpt lat="43.27839" lon="3.48121">
        <ele>4.3</ele>
        <time>2025-06-17T07:27:22Z</time>
      </trkpt>
      <trkpt lat="43.27835" lon="3.48129">
        <ele>4.6</ele>
        <time>2025-06-17T07:27:23Z</time>
      </trkpt>
      <trkpt lat="43.27834" lon="3.4813">
        <ele>4.7</ele>
        <time>2025-06-17T07:27:24Z</time>
      </trkpt>
      <trkpt lat="43.27832" lon="3.48131">
        <ele>4.7</ele>
        <time>2025-06-17T07:27:25Z</time>
      </trkpt>
      <trkpt lat="43.2783" lon="3.48131">
        <ele>4.6</ele>
        <time>2025-06-17T07:27:26Z</time>
      </trkpt>
      <trkpt lat="43.27827" lon="3.48131">
        <ele>4.5</ele>
        <time>2025-06-17T07:27:27Z</time>
      </trkpt>
      <trkpt lat="43.27825" lon="3.48132">
        <ele>4.5</ele>
        <time>2025-06-17T07:27:28Z</time>
      </trkpt>
      <trkpt lat="43.27822" lon="3.48134">
        <ele>4.4</ele>
        <time>2025-06-17T07:27:29Z</time>
      </trkpt>
      <trkpt lat="43.27819" lon="3.48136">
        <ele>4.4</ele>
        <time>2025-06-17T07:27:30Z</time>
      </trkpt>
      <trkpt lat="43.27817" lon="3.4814">
        <ele>4.4</ele>
        <time>2025-06-17T07:27:31Z</time>
      </trkpt>
      <trkpt lat="43.27816" lon="3.48143">
        <ele>4.3</ele>
        <time>2025-06-17T07:27:32Z</time>
      </trkpt>
      <trkpt lat="43.27815" lon="3.48149">
        <ele>4.2</ele>
        <time>2025-06-17T07:27:33Z</time>
      </trkpt>
      <trkpt lat="43.27815" lon="3.48154">
        <ele>4.2</ele>
        <time>2025-06-17T07:27:34Z</time>
      </trkpt>
      <trkpt lat="43.27816" lon="3.48159">
        <ele>19.8</ele>
        <time>2025-06-17T07:27:35Z</time>
      </trkpt>
      <trkpt lat="43.27818" lon="3.48164">
        <ele>19.8</ele>
        <time>2025-06-17T07:27:36Z</time>
      </trkpt>
      <trkpt lat="43.27821" lon="3.48168">
        <ele>19.8</ele>
        <time>2025-06-17T07:27:37Z</time>
      </trkpt>
      <trkpt lat="43.27825" lon="3.48171">
        <ele>19.8</ele>
        <time>2025-06-17T07:27:38Z</time>
      </trkpt>
      <trkpt lat="43.27828" lon="3.48173">
        <ele>19.8</ele>
        <time>2025-06-17T07:27:39Z</time>
      </trkpt>
      <trkpt lat="43.27833" lon="3.48174">
        <ele>19.8</ele>
        <time>2025-06-17T07:27:40Z</time>
      </trkpt>
      <trkpt lat="43.27837" lon="3.48173">
        <ele>19.8</ele>
        <time>2025-06-17T07:27:41Z</time>
      </trkpt>
      <trkpt lat="43.27841" lon="3.4817">
        <ele>19.8</ele>
        <time>2025-06-17T07:27:42Z</time>
      </trkpt>
      <trkpt lat="43.27844" lon="3.48167">
        <ele>19.8</ele>
        <time>2025-06-17T07:27:43Z</time>
      </trkpt>
      <trkpt lat="43.27847" lon="3.48163">
        <ele>20</ele>
        <time>2025-06-17T07:27:44Z</time>
      </trkpt>
      <trkpt lat="43.2785" lon="3.48158">
        <ele>20</ele>
        <time>2025-06-17T07:27:45Z</time>
      </trkpt>
      <trkpt lat="43.27853" lon="3.48153">
        <ele>20</ele>
        <time>2025-06-17T07:27:46Z</time>
      </trkpt>
      <trkpt lat="43.27856" lon="3.48149">
        <ele>20</ele>
        <time>2025-06-17T07:27:47Z</time>
      </trkpt>
      <trkpt lat="43.2786" lon="3.48144">
        <ele>20</ele>
        <time>2025-06-17T07:27:48Z</time>
      </trkpt>
      <trkpt lat="43.27863" lon="3.48141">
        <ele>19.8</ele>
        <time>2025-06-17T07:27:49Z</time>
      </trkpt>
      <trkpt lat="43.27868" lon="3.48138">
        <ele>19.8</ele>
        <time>2025-06-17T07:27:50Z</time>
      </trkpt>
      <trkpt lat="43.27873" lon="3.48135">
        <ele>19.8</ele>
        <time>2025-06-17T07:27:51Z</time>
      </trkpt>
      <trkpt lat="43.27878" lon="3.48132">
        <ele>19.8</ele>
        <time>2025-06-17T07:27:52Z</time>
      </trkpt>
      <trkpt lat="43.27882" lon="3.48129">
        <ele>19.8</ele>
        <time>2025-06-17T07:27:53Z</time>
      </trkpt>
      <trkpt lat="43.27887" lon="3.48127">
        <ele>19.8</ele>
        <time>2025-06-17T07:27:54Z</time>
      </trkpt>
      <trkpt lat="43.27891" lon="3.48125">
        <ele>19.8</ele>
        <time>2025-06-17T07:27:55Z</time>
      </trkpt>
      <trkpt lat="43.27896" lon="3.48124">
        <ele>20</ele>
        <time>2025-06-17T07:27:56Z</time>
      </trkpt>
      <trkpt lat="43.27901" lon="3.48124">
        <ele>20</ele>
        <time>2025-06-17T07:27:57Z</time>
      </trkpt>
      <trkpt lat="43.27906" lon="3.48124">
        <ele>20</ele>
        <time>2025-06-17T07:27:58Z</time>
      </trkpt>
      <trkpt lat="43.27911" lon="3.48124">
        <ele>20</ele>
        <time>2025-06-17T07:27:59Z</time>
      </trkpt>
      <trkpt lat="43.27916" lon="3.48124">
        <ele>20</ele>
        <time>2025-06-17T07:28:00Z</time>
      </trkpt>
      <trkpt lat="43.27922" lon="3.48125">
        <ele>20</ele>
        <time>2025-06-17T07:28:01Z</time>
      </trkpt>
      <trkpt lat="43.27927" lon="3.48125">
        <ele>20</ele>
        <time>2025-06-17T07:28:02Z</time>
      </trkpt>
      <trkpt lat="43.27933" lon="3.48125">
        <ele>20.2</ele>
        <time>2025-06-17T07:28:03Z</time>
      </trkpt>
      <trkpt lat="43.27938" lon="3.48125">
        <ele>20.2</ele>
        <time>2025-06-17T07:28:04Z</time>
      </trkpt>
      <trkpt lat="43.27943" lon="3.48125">
        <ele>20.2</ele>
        <time>2025-06-17T07:28:05Z</time>
      </trkpt>
      <trkpt lat="43.27949" lon="3.48125">
        <ele>20.2</ele>
        <time>2025-06-17T07:28:06Z</time>
      </trkpt>
      <trkpt lat="43.27954" lon="3.48124">
        <ele>20.4</ele>
        <time>2025-06-17T07:28:07Z</time>
      </trkpt>
      <trkpt lat="43.27959" lon="3.48123">
        <ele>20.4</ele>
        <time>2025-06-17T07:28:08Z</time>
      </trkpt>
      <trkpt lat="43.27964" lon="3.48122">
        <ele>20.4</ele>
        <time>2025-06-17T07:28:09Z</time>
      </trkpt>
      <trkpt lat="43.27969" lon="3.48121">
        <ele>20.4</ele>
        <time>2025-06-17T07:28:10Z</time>
      </trkpt>
      <trkpt lat="43.27974" lon="3.48119">
        <ele>20.4</ele>
        <time>2025-06-17T07:28:11Z</time>
      </trkpt>
      <trkpt lat="43.27978" lon="3.48118">
        <ele>20.4</ele>
        <time>2025-06-17T07:28:12Z</time>
      </trkpt>
      <trkpt lat="43.27982" lon="3.48117">
        <ele>20.4</ele>
        <time>2025-06-17T07:28:13Z</time>
      </trkpt>
      <trkpt lat="43.27989" lon="3.48115">
        <ele>20.4</ele>
        <time>2025-06-17T07:28:14Z</time>
      </trkpt>
      <trkpt lat="43.27994" lon="3.48114">
        <ele>20.4</ele>
        <time>2025-06-17T07:28:15Z</time>
      </trkpt>
      <trkpt lat="43.27999" lon="3.48114">
        <ele>20.6</ele>
        <time>2025-06-17T07:28:16Z</time>
      </trkpt>
      <trkpt lat="43.28003" lon="3.48114">
        <ele>20.6</ele>
        <time>2025-06-17T07:28:17Z</time>
      </trkpt>
      <trkpt lat="43.28007" lon="3.48116">
        <ele>20.6</ele>
        <time>2025-06-17T07:28:18Z</time>
      </trkpt>
      <trkpt lat="43.2801" lon="3.48117">
        <ele>20.8</ele>
        <time>2025-06-17T07:28:19Z</time>
      </trkpt>
      <trkpt lat="43.28014" lon="3.48119">
        <ele>20.6</ele>
        <time>2025-06-17T07:28:20Z</time>
      </trkpt>
      <trkpt lat="43.28018" lon="3.48121">
        <ele>20.6</ele>
        <time>2025-06-17T07:28:21Z</time>
      </trkpt>
      <trkpt lat="43.28022" lon="3.48123">
        <ele>20.6</ele>
        <time>2025-06-17T07:28:22Z</time>
      </trkpt>
      <trkpt lat="43.28027" lon="3.48125">
        <ele>20.8</ele>
        <time>2025-06-17T07:28:23Z</time>
      </trkpt>
      <trkpt lat="43.28032" lon="3.48127">
        <ele>20.8</ele>
        <time>2025-06-17T07:28:24Z</time>
      </trkpt>
      <trkpt lat="43.28037" lon="3.4813">
        <ele>20.8</ele>
        <time>2025-06-17T07:28:25Z</time>
      </trkpt>
      <trkpt lat="43.28043" lon="3.48133">
        <ele>20.8</ele>
        <time>2025-06-17T07:28:26Z</time>
      </trkpt>
      <trkpt lat="43.28047" lon="3.48136">
        <ele>21</ele>
        <time>2025-06-17T07:28:27Z</time>
      </trkpt>
      <trkpt lat="43.28052" lon="3.4814">
        <ele>21</ele>
        <time>2025-06-17T07:28:28Z</time>
      </trkpt>
      <trkpt lat="43.28056" lon="3.48143">
        <ele>21</ele>
        <time>2025-06-17T07:28:29Z</time>
      </trkpt>
      <trkpt lat="43.28061" lon="3.48147">
        <ele>21</ele>
        <time>2025-06-17T07:28:30Z</time>
      </trkpt>
      <trkpt lat="43.28066" lon="3.48151">
        <ele>21</ele>
        <time>2025-06-17T07:28:31Z</time>
      </trkpt>
      <trkpt lat="43.28071" lon="3.48154">
        <ele>21</ele>
        <time>2025-06-17T07:28:32Z</time>
      </trkpt>
      <trkpt lat="43.28076" lon="3.48157">
        <ele>21</ele>
        <time>2025-06-17T07:28:33Z</time>
      </trkpt>
      <trkpt lat="43.28081" lon="3.48159">
        <ele>21</ele>
        <time>2025-06-17T07:28:34Z</time>
      </trkpt>
      <trkpt lat="43.28086" lon="3.48162">
        <ele>21</ele>
        <time>2025-06-17T07:28:35Z</time>
      </trkpt>
      <trkpt lat="43.28091" lon="3.48163">
        <ele>21</ele>
        <time>2025-06-17T07:28:36Z</time>
      </trkpt>
      <trkpt lat="43.28096" lon="3.48164">
        <ele>21</ele>
        <time>2025-06-17T07:28:37Z</time>
      </trkpt>
      <trkpt lat="43.28102" lon="3.48165">
        <ele>21</ele>
        <time>2025-06-17T07:28:38Z</time>
      </trkpt>
      <trkpt lat="43.28106" lon="3.48165">
        <ele>21</ele>
        <time>2025-06-17T07:28:39Z</time>
      </trkpt>
      <trkpt lat="43.28111" lon="3.48166">
        <ele>21</ele>
        <time>2025-06-17T07:28:40Z</time>
      </trkpt>
      <trkpt lat="43.28116" lon="3.48167">
        <ele>21</ele>
        <time>2025-06-17T07:28:41Z</time>
      </trkpt>
      <trkpt lat="43.2812" lon="3.48168">
        <ele>21</ele>
        <time>2025-06-17T07:28:42Z</time>
      </trkpt>
      <trkpt lat="43.28122" lon="3.48168">
        <ele>21</ele>
        <time>2025-06-17T07:28:43Z</time>
      </trkpt>
      <trkpt lat="43.28124" lon="3.48168">
        <ele>21</ele>
        <time>2025-06-17T07:28:44Z</time>
      </trkpt>
      <trkpt lat="43.28124" lon="3.48168">
        <ele>21.2</ele>
        <time>2025-06-17T07:28:45Z</time>
      </trkpt>
      <trkpt lat="43.28123" lon="3.48167">
        <ele>21.2</ele>
        <time>2025-06-17T07:28:46Z</time>
      </trkpt>
      <trkpt lat="43.28123" lon="3.48166">
        <ele>21.2</ele>
        <time>2025-06-17T07:28:47Z</time>
      </trkpt>
      <trkpt lat="43.28123" lon="3.48166">
        <ele>21.2</ele>
        <time>2025-06-17T07:29:57Z</time>
      </trkpt>
      <trkpt lat="43.28122" lon="3.48166">
        <ele>21.2</ele>
        <time>2025-06-17T07:29:58Z</time>
      </trkpt>
      <trkpt lat="43.28119" lon="3.48166">
        <ele>21.2</ele>
        <time>2025-06-17T07:29:59Z</time>
      </trkpt>
      <trkpt lat="43.28117" lon="3.48166">
        <ele>21.2</ele>
        <time>2025-06-17T07:30:00Z</time>
      </trkpt>
      <trkpt lat="43.28114" lon="3.48166">
        <ele>21.2</ele>
        <time>2025-06-17T07:30:01Z</time>
      </trkpt>
      <trkpt lat="43.2811" lon="3.48166">
        <ele>21.2</ele>
        <time>2025-06-17T07:30:02Z</time>
      </trkpt>
      <trkpt lat="43.28108" lon="3.48165">
        <ele>21.2</ele>
        <time>2025-06-17T07:30:03Z</time>
      </trkpt>
      <trkpt lat="43.28103" lon="3.48165">
        <ele>21</ele>
        <time>2025-06-17T07:30:04Z</time>
      </trkpt>
      <trkpt lat="43.28099" lon="3.48165">
        <ele>21</ele>
        <time>2025-06-17T07:30:05Z</time>
      </trkpt>
      <trkpt lat="43.28095" lon="3.48164">
        <ele>21</ele>
        <time>2025-06-17T07:30:06Z</time>
      </trkpt>
      <trkpt lat="43.2809" lon="3.48163">
        <ele>21</ele>
        <time>2025-06-17T07:30:07Z</time>
      </trkpt>
      <trkpt lat="43.28085" lon="3.48161">
        <ele>21</ele>
        <time>2025-06-17T07:30:08Z</time>
      </trkpt>
      <trkpt lat="43.28081" lon="3.48159">
        <ele>21</ele>
        <time>2025-06-17T07:30:09Z</time>
      </trkpt>
      <trkpt lat="43.28076" lon="3.48156">
        <ele>21</ele>
        <time>2025-06-17T07:30:10Z</time>
      </trkpt>
      <trkpt lat="43.28072" lon="3.48154">
        <ele>21</ele>
        <time>2025-06-17T07:30:11Z</time>
      </trkpt>
      <trkpt lat="43.28067" lon="3.48151">
        <ele>21</ele>
        <time>2025-06-17T07:30:12Z</time>
      </trkpt>
      <trkpt lat="43.28063" lon="3.48148">
        <ele>21</ele>
        <time>2025-06-17T07:30:13Z</time>
      </trkpt>
      <trkpt lat="43.28059" lon="3.48144">
        <ele>21</ele>
        <time>2025-06-17T07:30:14Z</time>
      </trkpt>
      <trkpt lat="43.28055" lon="3.48141">
        <ele>21</ele>
        <time>2025-06-17T07:30:15Z</time>
      </trkpt>
      <trkpt lat="43.28051" lon="3.48137">
        <ele>21</ele>
        <time>2025-06-17T07:30:16Z</time>
      </trkpt>
      <trkpt lat="43.28046" lon="3.48133">
        <ele>21</ele>
        <time>2025-06-17T07:30:17Z</time>
      </trkpt>
      <trkpt lat="43.28042" lon="3.48129">
        <ele>21</ele>
        <time>2025-06-17T07:30:18Z</time>
      </trkpt>
      <trkpt lat="43.28038" lon="3.48125">
        <ele>21</ele>
        <time>2025-06-17T07:30:19Z</time>
      </trkpt>
      <trkpt lat="43.28033" lon="3.48121">
        <ele>21</ele>
        <time>2025-06-17T07:30:20Z</time>
      </trkpt>
      <trkpt lat="43.28029" lon="3.48117">
        <ele>21</ele>
        <time>2025-06-17T07:30:21Z</time>
      </trkpt>
      <trkpt lat="43.28024" lon="3.48113">
        <ele>20.8</ele>
        <time>2025-06-17T07:30:22Z</time>
      </trkpt>
      <trkpt lat="43.28018" lon="3.48111">
        <ele>20.6</ele>
        <time>2025-06-17T07:30:23Z</time>
      </trkpt>
      <trkpt lat="43.28012" lon="3.48109">
        <ele>20.6</ele>
        <time>2025-06-17T07:30:24Z</time>
      </trkpt>
      <trkpt lat="43.28007" lon="3.48107">
        <ele>20.6</ele>
        <time>2025-06-17T07:30:25Z</time>
      </trkpt>
      <trkpt lat="43.28001" lon="3.48106">
        <ele>20.6</ele>
        <time>2025-06-17T07:30:26Z</time>
      </trkpt>
      <trkpt lat="43.27996" lon="3.48106">
        <ele>20.6</ele>
        <time>2025-06-17T07:30:27Z</time>
      </trkpt>
      <trkpt lat="43.2799" lon="3.48107">
        <ele>20.6</ele>
        <time>2025-06-17T07:30:28Z</time>
      </trkpt>
      <trkpt lat="43.27984" lon="3.48108">
        <ele>20.6</ele>
        <time>2025-06-17T07:30:29Z</time>
      </trkpt>
      <trkpt lat="43.27978" lon="3.4811">
        <ele>20.6</ele>
        <time>2025-06-17T07:30:30Z</time>
      </trkpt>
      <trkpt lat="43.27972" lon="3.48112">
        <ele>20.4</ele>
        <time>2025-06-17T07:30:31Z</time>
      </trkpt>
      <trkpt lat="43.27966" lon="3.48113">
        <ele>20.4</ele>
        <time>2025-06-17T07:30:32Z</time>
      </trkpt>
      <trkpt lat="43.27959" lon="3.48114">
        <ele>20.4</ele>
        <time>2025-06-17T07:30:33Z</time>
      </trkpt>
      <trkpt lat="43.27954" lon="3.48115">
        <ele>20.4</ele>
        <time>2025-06-17T07:30:34Z</time>
      </trkpt>
      <trkpt lat="43.27947" lon="3.48116">
        <ele>20.4</ele>
        <time>2025-06-17T07:30:35Z</time>
      </trkpt>
      <trkpt lat="43.27941" lon="3.48117">
        <ele>20.4</ele>
        <time>2025-06-17T07:30:36Z</time>
      </trkpt>
      <trkpt lat="43.27934" lon="3.48116">
        <ele>20.2</ele>
        <time>2025-06-17T07:30:37Z</time>
      </trkpt>
      <trkpt lat="43.27928" lon="3.48116">
        <ele>20.2</ele>
        <time>2025-06-17T07:30:38Z</time>
      </trkpt>
      <trkpt lat="43.27921" lon="3.48115">
        <ele>20</ele>
        <time>2025-06-17T07:30:39Z</time>
      </trkpt>
      <trkpt lat="43.27915" lon="3.48114">
        <ele>20</ele>
        <time>2025-06-17T07:30:40Z</time>
      </trkpt>
      <trkpt lat="43.27909" lon="3.48114">
        <ele>20</ele>
        <time>2025-06-17T07:30:41Z</time>
      </trkpt>
      <trkpt lat="43.27903" lon="3.48114">
        <ele>20</ele>
        <time>2025-06-17T07:30:42Z</time>
      </trkpt>
      <trkpt lat="43.27897" lon="3.48115">
        <ele>20</ele>
        <time>2025-06-17T07:30:43Z</time>
      </trkpt>
      <trkpt lat="43.27891" lon="3.48115">
        <ele>20</ele>
        <time>2025-06-17T07:30:44Z</time>
      </trkpt>
      <trkpt lat="43.27886" lon="3.48114">
        <ele>20</ele>
        <time>2025-06-17T07:30:45Z</time>
      </trkpt>
      <trkpt lat="43.27881" lon="3.48114">
        <ele>20</ele>
        <time>2025-06-17T07:30:46Z</time>
      </trkpt>
      <trkpt lat="43.27875" lon="3.48114">
        <ele>20</ele>
        <time>2025-06-17T07:30:47Z</time>
      </trkpt>
      <trkpt lat="43.27871" lon="3.48115">
        <ele>20</ele>
        <time>2025-06-17T07:30:48Z</time>
      </trkpt>
      <trkpt lat="43.27866" lon="3.48115">
        <ele>20</ele>
        <time>2025-06-17T07:30:49Z</time>
      </trkpt>
      <trkpt lat="43.27862" lon="3.48117">
        <ele>20</ele>
        <time>2025-06-17T07:30:50Z</time>
      </trkpt>
      <trkpt lat="43.27859" lon="3.48119">
        <ele>20</ele>
        <time>2025-06-17T07:30:51Z</time>
      </trkpt>
      <trkpt lat="43.27857" lon="3.48122">
        <ele>20</ele>
        <time>2025-06-17T07:30:52Z</time>
      </trkpt>
      <trkpt lat="43.27856" lon="3.48125">
        <ele>20</ele>
        <time>2025-06-17T07:30:53Z</time>
      </trkpt>
      <trkpt lat="43.27853" lon="3.48127">
        <ele>20</ele>
        <time>2025-06-17T07:30:54Z</time>
      </trkpt>
      <trkpt lat="43.2785" lon="3.48127">
        <ele>20</ele>
        <time>2025-06-17T07:30:55Z</time>
      </trkpt>
      <trkpt lat="43.27846" lon="3.48126">
        <ele>20</ele>
        <time>2025-06-17T07:30:56Z</time>
      </trkpt>
      <trkpt lat="43.27843" lon="3.48124">
        <ele>20</ele>
        <time>2025-06-17T07:30:57Z</time>
      </trkpt>
      <trkpt lat="43.27837" lon="3.48124">
        <ele>20</ele>
        <time>2025-06-17T07:30:58Z</time>
      </trkpt>
      <trkpt lat="43.27832" lon="3.48125">
        <ele>20</ele>
        <time>2025-06-17T07:30:59Z</time>
      </trkpt>
      <trkpt lat="43.27827" lon="3.48127">
        <ele>19.8</ele>
        <time>2025-06-17T07:31:00Z</time>
      </trkpt>
      <trkpt lat="43.27823" lon="3.48131">
        <ele>19.8</ele>
        <time>2025-06-17T07:31:01Z</time>
      </trkpt>
      <trkpt lat="43.2782" lon="3.48136">
        <ele>19.8</ele>
        <time>2025-06-17T07:31:02Z</time>
      </trkpt>
      <trkpt lat="43.27818" lon="3.48143">
        <ele>19.8</ele>
        <time>2025-06-17T07:31:03Z</time>
      </trkpt>
      <trkpt lat="43.27818" lon="3.48151">
        <ele>19.8</ele>
        <time>2025-06-17T07:31:04Z</time>
      </trkpt>
      <trkpt lat="43.2782" lon="3.48158">
        <ele>19.8</ele>
        <time>2025-06-17T07:31:05Z</time>
      </trkpt>
      <trkpt lat="43.27823" lon="3.48164">
        <ele>19.8</ele>
        <time>2025-06-17T07:31:06Z</time>
      </trkpt>
      <trkpt lat="43.27827" lon="3.48169">
        <ele>19.6</ele>
        <time>2025-06-17T07:31:07Z</time>
      </trkpt>
      <trkpt lat="43.27832" lon="3.48173">
        <ele>19.6</ele>
        <time>2025-06-17T07:31:08Z</time>
      </trkpt>
      <trkpt lat="43.27837" lon="3.48178">
        <ele>19.8</ele>
        <time>2025-06-17T07:31:09Z</time>
      </trkpt>
      <trkpt lat="43.27841" lon="3.48183">
        <ele>19.8</ele>
        <time>2025-06-17T07:31:10Z</time>
      </trkpt>
      <trkpt lat="43.27845" lon="3.48189">
        <ele>19.8</ele>
        <time>2025-06-17T07:31:11Z</time>
      </trkpt>
      <trkpt lat="43.27849" lon="3.48195">
        <ele>19.8</ele>
        <time>2025-06-17T07:31:12Z</time>
      </trkpt>
      <trkpt lat="43.27853" lon="3.48201">
        <ele>19.8</ele>
        <time>2025-06-17T07:31:13Z</time>
      </trkpt>
      <trkpt lat="43.27857" lon="3.48207">
        <ele>19.8</ele>
        <time>2025-06-17T07:31:14Z</time>
      </trkpt>
      <trkpt lat="43.27861" lon="3.48213">
        <ele>19.6</ele>
        <time>2025-06-17T07:31:15Z</time>
      </trkpt>
      <trkpt lat="43.27864" lon="3.48219">
        <ele>19.6</ele>
        <time>2025-06-17T07:31:16Z</time>
      </trkpt>
      <trkpt lat="43.27868" lon="3.48226">
        <ele>19.6</ele>
        <time>2025-06-17T07:31:17Z</time>
      </trkpt>
      <trkpt lat="43.2787" lon="3.48234">
        <ele>19.6</ele>
        <time>2025-06-17T07:31:18Z</time>
      </trkpt>
      <trkpt lat="43.27872" lon="3.48242">
        <ele>19.6</ele>
        <time>2025-06-17T07:31:19Z</time>
      </trkpt>
      <trkpt lat="43.27873" lon="3.48251">
        <ele>19.6</ele>
        <time>2025-06-17T07:31:20Z</time>
      </trkpt>
      <trkpt lat="43.27874" lon="3.4826">
        <ele>19.6</ele>
        <time>2025-06-17T07:31:21Z</time>
      </trkpt>
      <trkpt lat="43.27874" lon="3.48269">
        <ele>19.4</ele>
        <time>2025-06-17T07:31:22Z</time>
      </trkpt>
      <trkpt lat="43.27873" lon="3.48278">
        <ele>19.4</ele>
        <time>2025-06-17T07:31:23Z</time>
      </trkpt>
      <trkpt lat="43.27872" lon="3.48286">
        <ele>19.4</ele>
        <time>2025-06-17T07:31:24Z</time>
      </trkpt>
      <trkpt lat="43.2787" lon="3.48294">
        <ele>19.4</ele>
        <time>2025-06-17T07:31:25Z</time>
      </trkpt>
      <trkpt lat="43.27868" lon="3.48302">
        <ele>19.4</ele>
        <time>2025-06-17T07:31:26Z</time>
      </trkpt>
      <trkpt lat="43.27865" lon="3.48309">
        <ele>19.2</ele>
        <time>2025-06-17T07:31:27Z</time>
      </trkpt>
      <trkpt lat="43.27861" lon="3.48317">
        <ele>19.2</ele>
        <time>2025-06-17T07:31:28Z</time>
      </trkpt>
      <trkpt lat="43.27857" lon="3.48324">
        <ele>19.2</ele>
        <time>2025-06-17T07:31:29Z</time>
      </trkpt>
      <trkpt lat="43.27854" lon="3.48331">
        <ele>19.2</ele>
        <time>2025-06-17T07:31:30Z</time>
      </trkpt>
      <trkpt lat="43.2785" lon="3.48338">
        <ele>19</ele>
        <time>2025-06-17T07:31:31Z</time>
      </trkpt>
      <trkpt lat="43.27847" lon="3.48344">
        <ele>19</ele>
        <time>2025-06-17T07:31:32Z</time>
      </trkpt>
      <trkpt lat="43.27843" lon="3.4835">
        <ele>18.8</ele>
        <time>2025-06-17T07:31:33Z</time>
      </trkpt>
      <trkpt lat="43.27839" lon="3.48354">
        <ele>18.8</ele>
        <time>2025-06-17T07:31:34Z</time>
      </trkpt>
      <trkpt lat="43.27836" lon="3.48359">
        <ele>18.8</ele>
        <time>2025-06-17T07:31:35Z</time>
      </trkpt>
      <trkpt lat="43.27834" lon="3.48364">
        <ele>18.8</ele>
        <time>2025-06-17T07:31:36Z</time>
      </trkpt>
      <trkpt lat="43.27832" lon="3.4837">
        <ele>18.8</ele>
        <time>2025-06-17T07:31:37Z</time>
      </trkpt>
      <trkpt lat="43.27831" lon="3.48376">
        <ele>18.8</ele>
        <time>2025-06-17T07:31:38Z</time>
      </trkpt>
      <trkpt lat="43.2783" lon="3.48381">
        <ele>18.8</ele>
        <time>2025-06-17T07:31:39Z</time>
      </trkpt>
      <trkpt lat="43.27828" lon="3.48388">
        <ele>18.8</ele>
        <time>2025-06-17T07:31:40Z</time>
      </trkpt>
      <trkpt lat="43.27827" lon="3.48394">
        <ele>18.6</ele>
        <time>2025-06-17T07:31:41Z</time>
      </trkpt>
      <trkpt lat="43.27826" lon="3.48401">
        <ele>18.6</ele>
        <time>2025-06-17T07:31:42Z</time>
      </trkpt>
      <trkpt lat="43.27824" lon="3.48408">
        <ele>18.4</ele>
        <time>2025-06-17T07:31:43Z</time>
      </trkpt>
      <trkpt lat="43.27823" lon="3.48415">
        <ele>18.4</ele>
        <time>2025-06-17T07:31:44Z</time>
      </trkpt>
      <trkpt lat="43.27822" lon="3.48423">
        <ele>18.4</ele>
        <time>2025-06-17T07:31:45Z</time>
      </trkpt>
      <trkpt lat="43.27821" lon="3.48432">
        <ele>18.2</ele>
        <time>2025-06-17T07:31:46Z</time>
      </trkpt>
      <trkpt lat="43.2782" lon="3.4844">
        <ele>18.2</ele>
        <time>2025-06-17T07:31:47Z</time>
      </trkpt>
      <trkpt lat="43.2782" lon="3.48448">
        <ele>18.2</ele>
        <time>2025-06-17T07:31:48Z</time>
      </trkpt>
      <trkpt lat="43.27819" lon="3.48455">
        <ele>18</ele>
        <time>2025-06-17T07:31:49Z</time>
      </trkpt>
      <trkpt lat="43.27817" lon="3.48463">
        <ele>18</ele>
        <time>2025-06-17T07:31:50Z</time>
      </trkpt>
      <trkpt lat="43.27815" lon="3.48469">
        <ele>18</ele>
        <time>2025-06-17T07:31:51Z</time>
      </trkpt>
      <trkpt lat="43.27811" lon="3.48474">
        <ele>18</ele>
        <time>2025-06-17T07:31:52Z</time>
      </trkpt>
      <trkpt lat="43.27807" lon="3.48479">
        <ele>18</ele>
        <time>2025-06-17T07:31:53Z</time>
      </trkpt>
      <trkpt lat="43.27802" lon="3.48482">
        <ele>18</ele>
        <time>2025-06-17T07:31:54Z</time>
      </trkpt>
      <trkpt lat="43.27799" lon="3.48485">
        <ele>18</ele>
        <time>2025-06-17T07:31:55Z</time>
      </trkpt>
      <trkpt lat="43.27796" lon="3.48488">
        <ele>18</ele>
        <time>2025-06-17T07:31:56Z</time>
      </trkpt>
      <trkpt lat="43.27793" lon="3.4849">
        <ele>18</ele>
        <time>2025-06-17T07:31:57Z</time>
      </trkpt>
      <trkpt lat="43.27792" lon="3.48494">
        <ele>18</ele>
        <time>2025-06-17T07:31:58Z</time>
      </trkpt>
      <trkpt lat="43.27791" lon="3.48497">
        <ele>17.8</ele>
        <time>2025-06-17T07:31:59Z</time>
      </trkpt>
      <trkpt lat="43.2779" lon="3.485">
        <ele>17.8</ele>
        <time>2025-06-17T07:32:00Z</time>
      </trkpt>
      <trkpt lat="43.2779" lon="3.48505">
        <ele>17.8</ele>
        <time>2025-06-17T07:32:01Z</time>
      </trkpt>
      <trkpt lat="43.27789" lon="3.48508">
        <ele>17.8</ele>
        <time>2025-06-17T07:32:02Z</time>
      </trkpt>
      <trkpt lat="43.27789" lon="3.48513">
        <ele>17.8</ele>
        <time>2025-06-17T07:32:03Z</time>
      </trkpt>
      <trkpt lat="43.2779" lon="3.48517">
        <ele>17.8</ele>
        <time>2025-06-17T07:32:04Z</time>
      </trkpt>
      <trkpt lat="43.27791" lon="3.48523">
        <ele>17.8</ele>
        <time>2025-06-17T07:32:05Z</time>
      </trkpt>
      <trkpt lat="43.27793" lon="3.48525">
        <ele>17.8</ele>
        <time>2025-06-17T07:32:06Z</time>
      </trkpt>
      <trkpt lat="43.27796" lon="3.48529">
        <ele>17.8</ele>
        <time>2025-06-17T07:32:07Z</time>
      </trkpt>
      <trkpt lat="43.27798" lon="3.48532">
        <ele>17.8</ele>
        <time>2025-06-17T07:32:08Z</time>
      </trkpt>
      <trkpt lat="43.27799" lon="3.48537">
        <ele>17.8</ele>
        <time>2025-06-17T07:32:09Z</time>
      </trkpt>
      <trkpt lat="43.27801" lon="3.48543">
        <ele>17.8</ele>
        <time>2025-06-17T07:32:10Z</time>
      </trkpt>
      <trkpt lat="43.27802" lon="3.48549">
        <ele>17.8</ele>
        <time>2025-06-17T07:32:11Z</time>
      </trkpt>
      <trkpt lat="43.27802" lon="3.48554">
        <ele>18</ele>
        <time>2025-06-17T07:32:12Z</time>
      </trkpt>
      <trkpt lat="43.27802" lon="3.48559">
        <ele>17.8</ele>
        <time>2025-06-17T07:32:13Z</time>
      </trkpt>
      <trkpt lat="43.27801" lon="3.48564">
        <ele>17.8</ele>
        <time>2025-06-17T07:32:14Z</time>
      </trkpt>
      <trkpt lat="43.27801" lon="3.48569">
        <ele>17.8</ele>
        <time>2025-06-17T07:32:15Z</time>
      </trkpt>
      <trkpt lat="43.278" lon="3.48576">
        <ele>17.8</ele>
        <time>2025-06-17T07:32:16Z</time>
      </trkpt>
      <trkpt lat="43.278" lon="3.48582">
        <ele>17.8</ele>
        <time>2025-06-17T07:32:17Z</time>
      </trkpt>
      <trkpt lat="43.27799" lon="3.48587">
        <ele>17.8</ele>
        <time>2025-06-17T07:32:18Z</time>
      </trkpt>
      <trkpt lat="43.27799" lon="3.48594">
        <ele>17.8</ele>
        <time>2025-06-17T07:32:19Z</time>
      </trkpt>
      <trkpt lat="43.27799" lon="3.486">
        <ele>17.8</ele>
        <time>2025-06-17T07:32:20Z</time>
      </trkpt>
      <trkpt lat="43.27798" lon="3.48605">
        <ele>17.6</ele>
        <time>2025-06-17T07:32:21Z</time>
      </trkpt>
      <trkpt lat="43.27798" lon="3.48612">
        <ele>17.6</ele>
        <time>2025-06-17T07:32:22Z</time>
      </trkpt>
      <trkpt lat="43.27797" lon="3.4862">
        <ele>17.6</ele>
        <time>2025-06-17T07:32:23Z</time>
      </trkpt>
      <trkpt lat="43.27797" lon="3.48627">
        <ele>17.6</ele>
        <time>2025-06-17T07:32:24Z</time>
      </trkpt>
      <trkpt lat="43.27796" lon="3.48635">
        <ele>17.6</ele>
        <time>2025-06-17T07:32:25Z</time>
      </trkpt>
      <trkpt lat="43.27796" lon="3.48641">
        <ele>17.6</ele>
        <time>2025-06-17T07:32:26Z</time>
      </trkpt>
      <trkpt lat="43.27795" lon="3.48648">
        <ele>17.6</ele>
        <time>2025-06-17T07:32:27Z</time>
      </trkpt>
      <trkpt lat="43.27795" lon="3.48655">
        <ele>17.6</ele>
        <time>2025-06-17T07:32:28Z</time>
      </trkpt>
      <trkpt lat="43.27794" lon="3.48662">
        <ele>17.6</ele>
        <time>2025-06-17T07:32:29Z</time>
      </trkpt>
      <trkpt lat="43.27794" lon="3.48669">
        <ele>17.6</ele>
        <time>2025-06-17T07:32:30Z</time>
      </trkpt>
      <trkpt lat="43.27794" lon="3.48678">
        <ele>17.6</ele>
        <time>2025-06-17T07:32:31Z</time>
      </trkpt>
      <trkpt lat="43.27794" lon="3.48685">
        <ele>17.6</ele>
        <time>2025-06-17T07:32:32Z</time>
      </trkpt>
      <trkpt lat="43.27794" lon="3.48693">
        <ele>17.4</ele>
        <time>2025-06-17T07:32:33Z</time>
      </trkpt>
      <trkpt lat="43.27794" lon="3.48701">
        <ele>17.4</ele>
        <time>2025-06-17T07:32:34Z</time>
      </trkpt>
      <trkpt lat="43.27794" lon="3.48708">
        <ele>17.4</ele>
        <time>2025-06-17T07:32:35Z</time>
      </trkpt>
      <trkpt lat="43.27794" lon="3.48714">
        <ele>17.4</ele>
        <time>2025-06-17T07:32:36Z</time>
      </trkpt>
      <trkpt lat="43.27795" lon="3.4872">
        <ele>17.4</ele>
        <time>2025-06-17T07:32:37Z</time>
      </trkpt>
      <trkpt lat="43.27795" lon="3.48727">
        <ele>17.4</ele>
        <time>2025-06-17T07:32:38Z</time>
      </trkpt>
      <trkpt lat="43.27795" lon="3.48733">
        <ele>17.4</ele>
        <time>2025-06-17T07:32:39Z</time>
      </trkpt>
      <trkpt lat="43.27795" lon="3.48741">
        <ele>17.4</ele>
        <time>2025-06-17T07:32:40Z</time>
      </trkpt>
      <trkpt lat="43.27796" lon="3.48747">
        <ele>17.4</ele>
        <time>2025-06-17T07:32:41Z</time>
      </trkpt>
      <trkpt lat="43.27796" lon="3.48754">
        <ele>17.4</ele>
        <time>2025-06-17T07:32:42Z</time>
      </trkpt>
      <trkpt lat="43.27794" lon="3.48763">
        <ele>17.4</ele>
        <time>2025-06-17T07:32:43Z</time>
      </trkpt>
      <trkpt lat="43.2779" lon="3.48775">
        <ele>17.4</ele>
        <time>2025-06-17T07:32:44Z</time>
      </trkpt>
      <trkpt lat="43.27786" lon="3.48782">
        <ele>17.6</ele>
        <time>2025-06-17T07:32:45Z</time>
      </trkpt>
      <trkpt lat="43.2778" lon="3.48791">
        <ele>17.6</ele>
        <time>2025-06-17T07:32:46Z</time>
      </trkpt>
      <trkpt lat="43.27774" lon="3.48795">
        <ele>17.4</ele>
        <time>2025-06-17T07:32:47Z</time>
      </trkpt>
      <trkpt lat="43.27768" lon="3.48799">
        <ele>17.4</ele>
        <time>2025-06-17T07:32:48Z</time>
      </trkpt>
      <trkpt lat="43.27762" lon="3.488">
        <ele>17.4</ele>
        <time>2025-06-17T07:32:49Z</time>
      </trkpt>
      <trkpt lat="43.27756" lon="3.48802">
        <ele>17.4</ele>
        <time>2025-06-17T07:32:50Z</time>
      </trkpt>
      <trkpt lat="43.27752" lon="3.48804">
        <ele>17.4</ele>
        <time>2025-06-17T07:32:51Z</time>
      </trkpt>
      <trkpt lat="43.27747" lon="3.48805">
        <ele>17.6</ele>
        <time>2025-06-17T07:32:52Z</time>
      </trkpt>
      <trkpt lat="43.27744" lon="3.48807">
        <ele>17.6</ele>
        <time>2025-06-17T07:32:53Z</time>
      </trkpt>
      <trkpt lat="43.27741" lon="3.48809">
        <ele>17.6</ele>
        <time>2025-06-17T07:32:54Z</time>
      </trkpt>
      <trkpt lat="43.27738" lon="3.48811">
        <ele>17.6</ele>
        <time>2025-06-17T07:32:55Z</time>
      </trkpt>
      <trkpt lat="43.27736" lon="3.48813">
        <ele>17.6</ele>
        <time>2025-06-17T07:32:56Z</time>
      </trkpt>
      <trkpt lat="43.27736" lon="3.48816">
        <ele>17.6</ele>
        <time>2025-06-17T07:32:57Z</time>
      </trkpt>
      <trkpt lat="43.27737" lon="3.48819">
        <ele>17.6</ele>
        <time>2025-06-17T07:32:58Z</time>
      </trkpt>
      <trkpt lat="43.27738" lon="3.48823">
        <ele>17.4</ele>
        <time>2025-06-17T07:32:59Z</time>
      </trkpt>
      <trkpt lat="43.27742" lon="3.48824">
        <ele>17.4</ele>
        <time>2025-06-17T07:33:00Z</time>
      </trkpt>
      <trkpt lat="43.27747" lon="3.48825">
        <ele>17.4</ele>
        <time>2025-06-17T07:33:01Z</time>
      </trkpt>
      <trkpt lat="43.27752" lon="3.48825">
        <ele>17.4</ele>
        <time>2025-06-17T07:33:02Z</time>
      </trkpt>
      <trkpt lat="43.27757" lon="3.48825">
        <ele>17.4</ele>
        <time>2025-06-17T07:33:03Z</time>
      </trkpt>
      <trkpt lat="43.27761" lon="3.48826">
        <ele>17.4</ele>
        <time>2025-06-17T07:33:04Z</time>
      </trkpt>
      <trkpt lat="43.27766" lon="3.48826">
        <ele>17.2</ele>
        <time>2025-06-17T07:33:05Z</time>
      </trkpt>
      <trkpt lat="43.27771" lon="3.48827">
        <ele>17.2</ele>
        <time>2025-06-17T07:33:06Z</time>
      </trkpt>
      <trkpt lat="43.27776" lon="3.48827">
        <ele>17.2</ele>
        <time>2025-06-17T07:33:07Z</time>
      </trkpt>
      <trkpt lat="43.27781" lon="3.48827">
        <ele>17.2</ele>
        <time>2025-06-17T07:33:08Z</time>
      </trkpt>
      <trkpt lat="43.27785" lon="3.48827">
        <ele>17.2</ele>
        <time>2025-06-17T07:33:09Z</time>
      </trkpt>
      <trkpt lat="43.27789" lon="3.48828">
        <ele>17.2</ele>
        <time>2025-06-17T07:33:10Z</time>
      </trkpt>
      <trkpt lat="43.27792" lon="3.48831">
        <ele>17.2</ele>
        <time>2025-06-17T07:33:11Z</time>
      </trkpt>
      <trkpt lat="43.27795" lon="3.48835">
        <ele>17</ele>
        <time>2025-06-17T07:33:12Z</time>
      </trkpt>
      <trkpt lat="43.27796" lon="3.48842">
        <ele>17</ele>
        <time>2025-06-17T07:33:13Z</time>
      </trkpt>
      <trkpt lat="43.27797" lon="3.48849">
        <ele>17</ele>
        <time>2025-06-17T07:33:14Z</time>
      </trkpt>
      <trkpt lat="43.27798" lon="3.48857">
        <ele>17</ele>
        <time>2025-06-17T07:33:15Z</time>
      </trkpt>
      <trkpt lat="43.278" lon="3.48864">
        <ele>17</ele>
        <time>2025-06-17T07:33:16Z</time>
      </trkpt>
      <trkpt lat="43.27802" lon="3.48872">
        <ele>16.8</ele>
        <time>2025-06-17T07:33:17Z</time>
      </trkpt>
      <trkpt lat="43.27804" lon="3.48879">
        <ele>16.8</ele>
        <time>2025-06-17T07:33:18Z</time>
      </trkpt>
      <trkpt lat="43.27806" lon="3.48887">
        <ele>16.8</ele>
        <time>2025-06-17T07:33:19Z</time>
      </trkpt>
      <trkpt lat="43.27808" lon="3.48894">
        <ele>16.8</ele>
        <time>2025-06-17T07:33:20Z</time>
      </trkpt>
      <trkpt lat="43.27811" lon="3.48902">
        <ele>17</ele>
        <time>2025-06-17T07:33:21Z</time>
      </trkpt>
      <trkpt lat="43.27813" lon="3.48908">
        <ele>17</ele>
        <time>2025-06-17T07:33:22Z</time>
      </trkpt>
      <trkpt lat="43.27816" lon="3.48916">
        <ele>17</ele>
        <time>2025-06-17T07:33:23Z</time>
      </trkpt>
      <trkpt lat="43.27819" lon="3.48923">
        <ele>17</ele>
        <time>2025-06-17T07:33:24Z</time>
      </trkpt>
      <trkpt lat="43.27823" lon="3.4893">
        <ele>17</ele>
        <time>2025-06-17T07:33:25Z</time>
      </trkpt>
      <trkpt lat="43.27826" lon="3.48937">
        <ele>16.8</ele>
        <time>2025-06-17T07:33:26Z</time>
      </trkpt>
      <trkpt lat="43.27829" lon="3.48944">
        <ele>16.8</ele>
        <time>2025-06-17T07:33:27Z</time>
      </trkpt>
      <trkpt lat="43.27832" lon="3.4895">
        <ele>16.8</ele>
        <time>2025-06-17T07:33:28Z</time>
      </trkpt>
      <trkpt lat="43.27837" lon="3.48958">
        <ele>16.8</ele>
        <time>2025-06-17T07:33:29Z</time>
      </trkpt>
      <trkpt lat="43.2784" lon="3.48965">
        <ele>16.8</ele>
        <time>2025-06-17T07:33:30Z</time>
      </trkpt>
      <trkpt lat="43.27844" lon="3.48971">
        <ele>16.8</ele>
        <time>2025-06-17T07:33:31Z</time>
      </trkpt>
      <trkpt lat="43.27847" lon="3.48976">
        <ele>16.8</ele>
        <time>2025-06-17T07:33:32Z</time>
      </trkpt>
      <trkpt lat="43.27852" lon="3.48983">
        <ele>16.8</ele>
        <time>2025-06-17T07:33:33Z</time>
      </trkpt>
      <trkpt lat="43.27856" lon="3.48989">
        <ele>16.8</ele>
        <time>2025-06-17T07:33:34Z</time>
      </trkpt>
      <trkpt lat="43.2786" lon="3.48994">
        <ele>16.8</ele>
        <time>2025-06-17T07:33:35Z</time>
      </trkpt>
      <trkpt lat="43.27863" lon="3.48999">
        <ele>16.8</ele>
        <time>2025-06-17T07:33:36Z</time>
      </trkpt>
      <trkpt lat="43.27865" lon="3.49006">
        <ele>17</ele>
        <time>2025-06-17T07:33:37Z</time>
      </trkpt>
      <trkpt lat="43.27866" lon="3.49012">
        <ele>17</ele>
        <time>2025-06-17T07:33:38Z</time>
      </trkpt>
      <trkpt lat="43.27867" lon="3.4902">
        <ele>17</ele>
        <time>2025-06-17T07:33:39Z</time>
      </trkpt>
      <trkpt lat="43.27869" lon="3.49026">
        <ele>17</ele>
        <time>2025-06-17T07:33:40Z</time>
      </trkpt>
      <trkpt lat="43.27873" lon="3.49031">
        <ele>17.2</ele>
        <time>2025-06-17T07:33:41Z</time>
      </trkpt>
      <trkpt lat="43.27877" lon="3.49034">
        <ele>17.2</ele>
        <time>2025-06-17T07:33:42Z</time>
      </trkpt>
      <trkpt lat="43.27883" lon="3.49037">
        <ele>17</ele>
        <time>2025-06-17T07:33:43Z</time>
      </trkpt>
      <trkpt lat="43.27888" lon="3.4904">
        <ele>17</ele>
        <time>2025-06-17T07:33:44Z</time>
      </trkpt>
      <trkpt lat="43.27893" lon="3.49042">
        <ele>17</ele>
        <time>2025-06-17T07:33:45Z</time>
      </trkpt>
      <trkpt lat="43.27897" lon="3.49046">
        <ele>17</ele>
        <time>2025-06-17T07:33:46Z</time>
      </trkpt>
      <trkpt lat="43.27901" lon="3.49049">
        <ele>17</ele>
        <time>2025-06-17T07:33:47Z</time>
      </trkpt>
      <trkpt lat="43.27905" lon="3.49054">
        <ele>17</ele>
        <time>2025-06-17T07:33:48Z</time>
      </trkpt>
      <trkpt lat="43.27909" lon="3.4906">
        <ele>17</ele>
        <time>2025-06-17T07:33:49Z</time>
      </trkpt>
      <trkpt lat="43.27913" lon="3.49065">
        <ele>17</ele>
        <time>2025-06-17T07:33:50Z</time>
      </trkpt>
      <trkpt lat="43.27916" lon="3.49071">
        <ele>17</ele>
        <time>2025-06-17T07:33:51Z</time>
      </trkpt>
      <trkpt lat="43.27921" lon="3.49077">
        <ele>17</ele>
        <time>2025-06-17T07:33:52Z</time>
      </trkpt>
      <trkpt lat="43.27926" lon="3.49084">
        <ele>17</ele>
        <time>2025-06-17T07:33:53Z</time>
      </trkpt>
      <trkpt lat="43.27931" lon="3.49091">
        <ele>17</ele>
        <time>2025-06-17T07:33:54Z</time>
      </trkpt>
      <trkpt lat="43.27935" lon="3.49097">
        <ele>17</ele>
        <time>2025-06-17T07:33:55Z</time>
      </trkpt>
      <trkpt lat="43.2794" lon="3.49103">
        <ele>16.8</ele>
        <time>2025-06-17T07:33:56Z</time>
      </trkpt>
      <trkpt lat="43.27945" lon="3.4911">
        <ele>16.8</ele>
        <time>2025-06-17T07:33:57Z</time>
      </trkpt>
      <trkpt lat="43.2795" lon="3.49116">
        <ele>17</ele>
        <time>2025-06-17T07:33:58Z</time>
      </trkpt>
      <trkpt lat="43.27954" lon="3.49122">
        <ele>16.8</ele>
        <time>2025-06-17T07:33:59Z</time>
      </trkpt>
      <trkpt lat="43.27959" lon="3.49127">
        <ele>16.8</ele>
        <time>2025-06-17T07:34:00Z</time>
      </trkpt>
      <trkpt lat="43.27963" lon="3.49133">
        <ele>16.8</ele>
        <time>2025-06-17T07:34:01Z</time>
      </trkpt>
      <trkpt lat="43.27967" lon="3.49139">
        <ele>16.8</ele>
        <time>2025-06-17T07:34:02Z</time>
      </trkpt>
      <trkpt lat="43.27972" lon="3.49147">
        <ele>16.8</ele>
        <time>2025-06-17T07:34:03Z</time>
      </trkpt>
      <trkpt lat="43.27976" lon="3.49154">
        <ele>16.8</ele>
        <time>2025-06-17T07:34:04Z</time>
      </trkpt>
      <trkpt lat="43.2798" lon="3.49162">
        <ele>17</ele>
        <time>2025-06-17T07:34:05Z</time>
      </trkpt>
      <trkpt lat="43.27983" lon="3.4917">
        <ele>17</ele>
        <time>2025-06-17T07:34:06Z</time>
      </trkpt>
      <trkpt lat="43.27986" lon="3.49178">
        <ele>17</ele>
        <time>2025-06-17T07:34:07Z</time>
      </trkpt>
      <trkpt lat="43.27989" lon="3.49187">
        <ele>17</ele>
        <time>2025-06-17T07:34:08Z</time>
      </trkpt>
      <trkpt lat="43.27992" lon="3.49196">
        <ele>17</ele>
        <time>2025-06-17T07:34:09Z</time>
      </trkpt>
      <trkpt lat="43.27994" lon="3.49205">
        <ele>17</ele>
        <time>2025-06-17T07:34:10Z</time>
      </trkpt>
      <trkpt lat="43.27997" lon="3.49214">
        <ele>17</ele>
        <time>2025-06-17T07:34:11Z</time>
      </trkpt>
      <trkpt lat="43.27998" lon="3.49223">
        <ele>17</ele>
        <time>2025-06-17T07:34:12Z</time>
      </trkpt>
      <trkpt lat="43.27999" lon="3.49233">
        <ele>17</ele>
        <time>2025-06-17T07:34:13Z</time>
      </trkpt>
      <trkpt lat="43.27999" lon="3.49242">
        <ele>17</ele>
        <time>2025-06-17T07:34:14Z</time>
      </trkpt>
      <trkpt lat="43.27999" lon="3.4925">
        <ele>17</ele>
        <time>2025-06-17T07:34:15Z</time>
      </trkpt>
      <trkpt lat="43.28" lon="3.49259">
        <ele>17</ele>
        <time>2025-06-17T07:34:16Z</time>
      </trkpt>
      <trkpt lat="43.28002" lon="3.49267">
        <ele>17.2</ele>
        <time>2025-06-17T07:34:17Z</time>
      </trkpt>
      <trkpt lat="43.28005" lon="3.49274">
        <ele>17.2</ele>
        <time>2025-06-17T07:34:18Z</time>
      </trkpt>
      <trkpt lat="43.2801" lon="3.4928">
        <ele>17</ele>
        <time>2025-06-17T07:34:19Z</time>
      </trkpt>
      <trkpt lat="43.28015" lon="3.49284">
        <ele>17</ele>
        <time>2025-06-17T07:34:20Z</time>
      </trkpt>
      <trkpt lat="43.28022" lon="3.49287">
        <ele>17</ele>
        <time>2025-06-17T07:34:21Z</time>
      </trkpt>
      <trkpt lat="43.28028" lon="3.4929">
        <ele>16.8</ele>
        <time>2025-06-17T07:34:22Z</time>
      </trkpt>
      <trkpt lat="43.28034" lon="3.49294">
        <ele>16.8</ele>
        <time>2025-06-17T07:34:23Z</time>
      </trkpt>
      <trkpt lat="43.2804" lon="3.49297">
        <ele>16.8</ele>
        <time>2025-06-17T07:34:24Z</time>
      </trkpt>
      <trkpt lat="43.28046" lon="3.49301">
        <ele>17</ele>
        <time>2025-06-17T07:34:25Z</time>
      </trkpt>
      <trkpt lat="43.28053" lon="3.49305">
        <ele>17</ele>
        <time>2025-06-17T07:34:26Z</time>
      </trkpt>
      <trkpt lat="43.28059" lon="3.4931">
        <ele>17</ele>
        <time>2025-06-17T07:34:27Z</time>
      </trkpt>
      <trkpt lat="43.28064" lon="3.49314">
        <ele>17</ele>
        <time>2025-06-17T07:34:28Z</time>
      </trkpt>
      <trkpt lat="43.2807" lon="3.49319">
        <ele>17.2</ele>
        <time>2025-06-17T07:34:29Z</time>
      </trkpt>
      <trkpt lat="43.28075" lon="3.49324">
        <ele>17.2</ele>
        <time>2025-06-17T07:34:30Z</time>
      </trkpt>
      <trkpt lat="43.28081" lon="3.49329">
        <ele>17.2</ele>
        <time>2025-06-17T07:34:31Z</time>
      </trkpt>
      <trkpt lat="43.28087" lon="3.49334">
        <ele>17.2</ele>
        <time>2025-06-17T07:34:32Z</time>
      </trkpt>
      <trkpt lat="43.28092" lon="3.4934">
        <ele>17.2</ele>
        <time>2025-06-17T07:34:33Z</time>
      </trkpt>
      <trkpt lat="43.28097" lon="3.49345">
        <ele>17.2</ele>
        <time>2025-06-17T07:34:34Z</time>
      </trkpt>
      <trkpt lat="43.28103" lon="3.49352">
        <ele>17.2</ele>
        <time>2025-06-17T07:34:35Z</time>
      </trkpt>
      <trkpt lat="43.28109" lon="3.49358">
        <ele>17.4</ele>
        <time>2025-06-17T07:34:36Z</time>
      </trkpt>
      <trkpt lat="43.28113" lon="3.49365">
        <ele>17.2</ele>
        <time>2025-06-17T07:34:37Z</time>
      </trkpt>
      <trkpt lat="43.28118" lon="3.49372">
        <ele>17.2</ele>
        <time>2025-06-17T07:34:38Z</time>
      </trkpt>
      <trkpt lat="43.28122" lon="3.49379">
        <ele>17.2</ele>
        <time>2025-06-17T07:34:39Z</time>
      </trkpt>
      <trkpt lat="43.28127" lon="3.49386">
        <ele>17.2</ele>
        <time>2025-06-17T07:34:40Z</time>
      </trkpt>
      <trkpt lat="43.28131" lon="3.49393">
        <ele>17.2</ele>
        <time>2025-06-17T07:34:41Z</time>
      </trkpt>
      <trkpt lat="43.28135" lon="3.494">
        <ele>17.4</ele>
        <time>2025-06-17T07:34:42Z</time>
      </trkpt>
      <trkpt lat="43.28138" lon="3.49407">
        <ele>17.4</ele>
        <time>2025-06-17T07:34:43Z</time>
      </trkpt>
      <trkpt lat="43.2814" lon="3.49414">
        <ele>17.4</ele>
        <time>2025-06-17T07:34:44Z</time>
      </trkpt>
      <trkpt lat="43.28142" lon="3.49422">
        <ele>17.4</ele>
        <time>2025-06-17T07:34:45Z</time>
      </trkpt>
      <trkpt lat="43.28144" lon="3.49429">
        <ele>17.6</ele>
        <time>2025-06-17T07:34:46Z</time>
      </trkpt>
      <trkpt lat="43.28147" lon="3.49437">
        <ele>17.6</ele>
        <time>2025-06-17T07:34:47Z</time>
      </trkpt>
      <trkpt lat="43.28151" lon="3.49443">
        <ele>17.6</ele>
        <time>2025-06-17T07:34:48Z</time>
      </trkpt>
      <trkpt lat="43.28154" lon="3.49451">
        <ele>17.6</ele>
        <time>2025-06-17T07:34:49Z</time>
      </trkpt>
      <trkpt lat="43.28158" lon="3.49458">
        <ele>17.6</ele>
        <time>2025-06-17T07:34:50Z</time>
      </trkpt>
      <trkpt lat="43.28162" lon="3.49465">
        <ele>17.6</ele>
        <time>2025-06-17T07:34:51Z</time>
      </trkpt>
      <trkpt lat="43.28165" lon="3.4947">
        <ele>17.6</ele>
        <time>2025-06-17T07:34:52Z</time>
      </trkpt>
      <trkpt lat="43.28169" lon="3.49479">
        <ele>17.6</ele>
        <time>2025-06-17T07:34:53Z</time>
      </trkpt>
      <trkpt lat="43.28172" lon="3.49485">
        <ele>17.8</ele>
        <time>2025-06-17T07:34:54Z</time>
      </trkpt>
      <trkpt lat="43.28176" lon="3.49493">
        <ele>17.8</ele>
        <time>2025-06-17T07:34:55Z</time>
      </trkpt>
      <trkpt lat="43.2818" lon="3.495">
        <ele>17.8</ele>
        <time>2025-06-17T07:34:56Z</time>
      </trkpt>
      <trkpt lat="43.28184" lon="3.49507">
        <ele>17.8</ele>
        <time>2025-06-17T07:34:57Z</time>
      </trkpt>
      <trkpt lat="43.28188" lon="3.49514">
        <ele>17.8</ele>
        <time>2025-06-17T07:34:58Z</time>
      </trkpt>
      <trkpt lat="43.28192" lon="3.49521">
        <ele>17.8</ele>
        <time>2025-06-17T07:34:59Z</time>
      </trkpt>
      <trkpt lat="43.28195" lon="3.49527">
        <ele>18</ele>
        <time>2025-06-17T07:35:00Z</time>
      </trkpt>
      <trkpt lat="43.28199" lon="3.49535">
        <ele>18</ele>
        <time>2025-06-17T07:35:01Z</time>
      </trkpt>
      <trkpt lat="43.28202" lon="3.49542">
        <ele>18</ele>
        <time>2025-06-17T07:35:02Z</time>
      </trkpt>
      <trkpt lat="43.28206" lon="3.49549">
        <ele>18</ele>
        <time>2025-06-17T07:35:03Z</time>
      </trkpt>
      <trkpt lat="43.28209" lon="3.49557">
        <ele>18</ele>
        <time>2025-06-17T07:35:04Z</time>
      </trkpt>
      <trkpt lat="43.28212" lon="3.49564">
        <ele>18</ele>
        <time>2025-06-17T07:35:05Z</time>
      </trkpt>
      <trkpt lat="43.28215" lon="3.49571">
        <ele>18</ele>
        <time>2025-06-17T07:35:06Z</time>
      </trkpt>
      <trkpt lat="43.28219" lon="3.49578">
        <ele>18</ele>
        <time>2025-06-17T07:35:07Z</time>
      </trkpt>
      <trkpt lat="43.28223" lon="3.49585">
        <ele>18</ele>
        <time>2025-06-17T07:35:08Z</time>
      </trkpt>
      <trkpt lat="43.28226" lon="3.49592">
        <ele>18</ele>
        <time>2025-06-17T07:35:09Z</time>
      </trkpt>
      <trkpt lat="43.2823" lon="3.496">
        <ele>18.2</ele>
        <time>2025-06-17T07:35:10Z</time>
      </trkpt>
      <trkpt lat="43.28233" lon="3.49607">
        <ele>18.2</ele>
        <time>2025-06-17T07:35:11Z</time>
      </trkpt>
      <trkpt lat="43.28236" lon="3.49615">
        <ele>18.2</ele>
        <time>2025-06-17T07:35:12Z</time>
      </trkpt>
      <trkpt lat="43.28239" lon="3.49623">
        <ele>18.2</ele>
        <time>2025-06-17T07:35:13Z</time>
      </trkpt>
      <trkpt lat="43.28242" lon="3.4963">
        <ele>18.2</ele>
        <time>2025-06-17T07:35:14Z</time>
      </trkpt>
      <trkpt lat="43.28245" lon="3.49639">
        <ele>18.2</ele>
        <time>2025-06-17T07:35:15Z</time>
      </trkpt>
      <trkpt lat="43.28247" lon="3.49647">
        <ele>18.2</ele>
        <time>2025-06-17T07:35:16Z</time>
      </trkpt>
      <trkpt lat="43.2825" lon="3.49655">
        <ele>18.4</ele>
        <time>2025-06-17T07:35:17Z</time>
      </trkpt>
      <trkpt lat="43.28252" lon="3.49664">
        <ele>18.4</ele>
        <time>2025-06-17T07:35:18Z</time>
      </trkpt>
      <trkpt lat="43.28254" lon="3.49672">
        <ele>18.4</ele>
        <time>2025-06-17T07:35:19Z</time>
      </trkpt>
      <trkpt lat="43.28256" lon="3.4968">
        <ele>18.4</ele>
        <time>2025-06-17T07:35:20Z</time>
      </trkpt>
      <trkpt lat="43.28258" lon="3.49689">
        <ele>18.4</ele>
        <time>2025-06-17T07:35:21Z</time>
      </trkpt>
      <trkpt lat="43.28259" lon="3.49696">
        <ele>18.4</ele>
        <time>2025-06-17T07:35:22Z</time>
      </trkpt>
      <trkpt lat="43.2826" lon="3.49702">
        <ele>18.4</ele>
        <time>2025-06-17T07:35:23Z</time>
      </trkpt>
      <trkpt lat="43.28261" lon="3.49707">
        <ele>18.2</ele>
        <time>2025-06-17T07:35:24Z</time>
      </trkpt>
      <trkpt lat="43.28262" lon="3.49713">
        <ele>18.2</ele>
        <time>2025-06-17T07:35:25Z</time>
      </trkpt>
      <trkpt lat="43.28263" lon="3.49717">
        <ele>18.2</ele>
        <time>2025-06-17T07:35:26Z</time>
      </trkpt>
      <trkpt lat="43.28264" lon="3.4972">
        <ele>18.2</ele>
        <time>2025-06-17T07:35:27Z</time>
      </trkpt>
      <trkpt lat="43.28264" lon="3.49723">
        <ele>18.2</ele>
        <time>2025-06-17T07:35:28Z</time>
      </trkpt>
      <trkpt lat="43.28264" lon="3.49725">
        <ele>18.2</ele>
        <time>2025-06-17T07:35:29Z</time>
      </trkpt>
      <trkpt lat="43.28265" lon="3.49729">
        <ele>18.2</ele>
        <time>2025-06-17T07:35:30Z</time>
      </trkpt>
      <trkpt lat="43.28265" lon="3.49732">
        <ele>18.2</ele>
        <time>2025-06-17T07:35:31Z</time>
      </trkpt>
      <trkpt lat="43.28265" lon="3.49735">
        <ele>18.2</ele>
        <time>2025-06-17T07:35:32Z</time>
      </trkpt>
      <trkpt lat="43.28265" lon="3.4974">
        <ele>18.2</ele>
        <time>2025-06-17T07:35:33Z</time>
      </trkpt>
      <trkpt lat="43.28266" lon="3.49745">
        <ele>18.2</ele>
        <time>2025-06-17T07:35:34Z</time>
      </trkpt>
      <trkpt lat="43.28266" lon="3.4975">
        <ele>18.2</ele>
        <time>2025-06-17T07:35:35Z</time>
      </trkpt>
      <trkpt lat="43.28266" lon="3.49755">
        <ele>18.2</ele>
        <time>2025-06-17T07:35:36Z</time>
      </trkpt>
      <trkpt lat="43.28265" lon="3.4976">
        <ele>18.2</ele>
        <time>2025-06-17T07:35:37Z</time>
      </trkpt>
      <trkpt lat="43.28263" lon="3.49764">
        <ele>18.2</ele>
        <time>2025-06-17T07:35:38Z</time>
      </trkpt>
      <trkpt lat="43.28261" lon="3.49768">
        <ele>18.4</ele>
        <time>2025-06-17T07:35:39Z</time>
      </trkpt>
      <trkpt lat="43.28258" lon="3.49771">
        <ele>18.4</ele>
        <time>2025-06-17T07:35:40Z</time>
      </trkpt>
      <trkpt lat="43.28256" lon="3.49773">
        <ele>18.4</ele>
        <time>2025-06-17T07:35:41Z</time>
      </trkpt>
      <trkpt lat="43.28253" lon="3.49775">
        <ele>18.4</ele>
        <time>2025-06-17T07:35:42Z</time>
      </trkpt>
      <trkpt lat="43.28252" lon="3.49776">
        <ele>18.4</ele>
        <time>2025-06-17T07:35:43Z</time>
      </trkpt>
      <trkpt lat="43.2825" lon="3.49777">
        <ele>18.4</ele>
        <time>2025-06-17T07:35:44Z</time>
      </trkpt>
      <trkpt lat="43.28249" lon="3.49778">
        <ele>18.4</ele>
        <time>2025-06-17T07:35:45Z</time>
      </trkpt>
      <trkpt lat="43.28248" lon="3.49778">
        <ele>18.4</ele>
        <time>2025-06-17T07:36:28Z</time>
      </trkpt>
      <trkpt lat="43.28244" lon="3.4978">
        <ele>18.4</ele>
        <time>2025-06-17T07:36:29Z</time>
      </trkpt>
      <trkpt lat="43.28242" lon="3.4978">
        <ele>18.4</ele>
        <time>2025-06-17T07:36:30Z</time>
      </trkpt>
      <trkpt lat="43.28239" lon="3.4978">
        <ele>18.4</ele>
        <time>2025-06-17T07:36:31Z</time>
      </trkpt>
      <trkpt lat="43.28237" lon="3.4978">
        <ele>18.4</ele>
        <time>2025-06-17T07:36:32Z</time>
      </trkpt>
      <trkpt lat="43.28234" lon="3.49779">
        <ele>18.2</ele>
        <time>2025-06-17T07:36:33Z</time>
      </trkpt>
      <trkpt lat="43.28232" lon="3.49778">
        <ele>18.2</ele>
        <time>2025-06-17T07:36:34Z</time>
      </trkpt>
      <trkpt lat="43.28229" lon="3.49777">
        <ele>18.2</ele>
        <time>2025-06-17T07:36:35Z</time>
      </trkpt>
      <trkpt lat="43.28227" lon="3.49777">
        <ele>18.2</ele>
        <time>2025-06-17T07:36:36Z</time>
      </trkpt>
      <trkpt lat="43.28224" lon="3.49779">
        <ele>18</ele>
        <time>2025-06-17T07:36:37Z</time>
      </trkpt>
      <trkpt lat="43.28222" lon="3.49781">
        <ele>18</ele>
        <time>2025-06-17T07:36:38Z</time>
      </trkpt>
      <trkpt lat="43.28221" lon="3.49785">
        <ele>18</ele>
        <time>2025-06-17T07:36:39Z</time>
      </trkpt>
      <trkpt lat="43.28222" lon="3.4979">
        <ele>18</ele>
        <time>2025-06-17T07:36:40Z</time>
      </trkpt>
      <trkpt lat="43.28223" lon="3.49795">
        <ele>18</ele>
        <time>2025-06-17T07:36:41Z</time>
      </trkpt>
      <trkpt lat="43.28224" lon="3.49801">
        <ele>18</ele>
        <time>2025-06-17T07:36:42Z</time>
      </trkpt>
      <trkpt lat="43.28224" lon="3.49807">
        <ele>18</ele>
        <time>2025-06-17T07:36:43Z</time>
      </trkpt>
      <trkpt lat="43.28223" lon="3.49814">
        <ele>18</ele>
        <time>2025-06-17T07:36:44Z</time>
      </trkpt>
      <trkpt lat="43.28221" lon="3.4982">
        <ele>18</ele>
        <time>2025-06-17T07:36:45Z</time>
      </trkpt>
      <trkpt lat="43.2822" lon="3.49827">
        <ele>17.8</ele>
        <time>2025-06-17T07:36:46Z</time>
      </trkpt>
      <trkpt lat="43.28219" lon="3.49835">
        <ele>18</ele>
        <time>2025-06-17T07:36:47Z</time>
      </trkpt>
      <trkpt lat="43.28219" lon="3.49842">
        <ele>18</ele>
        <time>2025-06-17T07:36:48Z</time>
      </trkpt>
      <trkpt lat="43.2822" lon="3.4985">
        <ele>18</ele>
        <time>2025-06-17T07:36:49Z</time>
      </trkpt>
      <trkpt lat="43.28221" lon="3.49858">
        <ele>18</ele>
        <time>2025-06-17T07:36:50Z</time>
      </trkpt>
      <trkpt lat="43.28223" lon="3.49866">
        <ele>18</ele>
        <time>2025-06-17T07:36:51Z</time>
      </trkpt>
      <trkpt lat="43.28226" lon="3.49874">
        <ele>18</ele>
        <time>2025-06-17T07:36:52Z</time>
      </trkpt>
      <trkpt lat="43.2823" lon="3.4988">
        <ele>18</ele>
        <time>2025-06-17T07:36:53Z</time>
      </trkpt>
      <trkpt lat="43.28234" lon="3.49886">
        <ele>18</ele>
        <time>2025-06-17T07:36:54Z</time>
      </trkpt>
      <trkpt lat="43.28239" lon="3.49891">
        <ele>18</ele>
        <time>2025-06-17T07:36:55Z</time>
      </trkpt>
      <trkpt lat="43.28244" lon="3.49895">
        <ele>18</ele>
        <time>2025-06-17T07:36:56Z</time>
      </trkpt>
      <trkpt lat="43.28249" lon="3.49899">
        <ele>18</ele>
        <time>2025-06-17T07:36:57Z</time>
      </trkpt>
      <trkpt lat="43.28254" lon="3.49903">
        <ele>18</ele>
        <time>2025-06-17T07:36:58Z</time>
      </trkpt>
      <trkpt lat="43.28259" lon="3.49908">
        <ele>18</ele>
        <time>2025-06-17T07:36:59Z</time>
      </trkpt>
      <trkpt lat="43.28263" lon="3.49914">
        <ele>18</ele>
        <time>2025-06-17T07:37:00Z</time>
      </trkpt>
      <trkpt lat="43.28266" lon="3.49922">
        <ele>18.2</ele>
        <time>2025-06-17T07:37:01Z</time>
      </trkpt>
      <trkpt lat="43.28268" lon="3.49929">
        <ele>18.2</ele>
        <time>2025-06-17T07:37:02Z</time>
      </trkpt>
      <trkpt lat="43.28269" lon="3.49938">
        <ele>18.2</ele>
        <time>2025-06-17T07:37:03Z</time>
      </trkpt>
      <trkpt lat="43.28271" lon="3.49947">
        <ele>18.2</ele>
        <time>2025-06-17T07:37:04Z</time>
      </trkpt>
      <trkpt lat="43.28274" lon="3.49955">
        <ele>18.2</ele>
        <time>2025-06-17T07:37:05Z</time>
      </trkpt>
      <trkpt lat="43.28276" lon="3.49963">
        <ele>18.2</ele>
        <time>2025-06-17T07:37:06Z</time>
      </trkpt>
      <trkpt lat="43.28279" lon="3.49971">
        <ele>18.2</ele>
        <time>2025-06-17T07:37:07Z</time>
      </trkpt>
      <trkpt lat="43.28284" lon="3.49978">
        <ele>18</ele>
        <time>2025-06-17T07:37:08Z</time>
      </trkpt>
      <trkpt lat="43.28287" lon="3.49985">
        <ele>18.2</ele>
        <time>2025-06-17T07:37:09Z</time>
      </trkpt>
      <trkpt lat="43.28291" lon="3.49992">
        <ele>18.2</ele>
        <time>2025-06-17T07:37:10Z</time>
      </trkpt>
      <trkpt lat="43.28296" lon="3.49998">
        <ele>18.2</ele>
        <time>2025-06-17T07:37:11Z</time>
      </trkpt>
      <trkpt lat="43.28301" lon="3.50004">
        <ele>18.2</ele>
        <time>2025-06-17T07:37:12Z</time>
      </trkpt>
      <trkpt lat="43.28306" lon="3.50009">
        <ele>18.2</ele>
        <time>2025-06-17T07:37:13Z</time>
      </trkpt>
      <trkpt lat="43.28311" lon="3.50015">
        <ele>18.2</ele>
        <time>2025-06-17T07:37:14Z</time>
      </trkpt>
      <trkpt lat="43.28316" lon="3.50022">
        <ele>18.2</ele>
        <time>2025-06-17T07:37:15Z</time>
      </trkpt>
      <trkpt lat="43.2832" lon="3.50028">
        <ele>18.4</ele>
        <time>2025-06-17T07:37:16Z</time>
      </trkpt>
      <trkpt lat="43.28324" lon="3.50034">
        <ele>18.4</ele>
        <time>2025-06-17T07:37:17Z</time>
      </trkpt>
      <trkpt lat="43.28329" lon="3.50042">
        <ele>18.4</ele>
        <time>2025-06-17T07:37:18Z</time>
      </trkpt>
      <trkpt lat="43.28334" lon="3.50049">
        <ele>18.4</ele>
        <time>2025-06-17T07:37:19Z</time>
      </trkpt>
      <trkpt lat="43.28337" lon="3.50056">
        <ele>18.4</ele>
        <time>2025-06-17T07:37:20Z</time>
      </trkpt>
      <trkpt lat="43.28341" lon="3.50064">
        <ele>18.6</ele>
        <time>2025-06-17T07:37:21Z</time>
      </trkpt>
      <trkpt lat="43.28344" lon="3.50071">
        <ele>18.6</ele>
        <time>2025-06-17T07:37:22Z</time>
      </trkpt>
      <trkpt lat="43.28348" lon="3.50079">
        <ele>18.6</ele>
        <time>2025-06-17T07:37:23Z</time>
      </trkpt>
      <trkpt lat="43.28351" lon="3.50087">
        <ele>18.8</ele>
        <time>2025-06-17T07:37:24Z</time>
      </trkpt>
      <trkpt lat="43.28354" lon="3.50094">
        <ele>18.8</ele>
        <time>2025-06-17T07:37:25Z</time>
      </trkpt>
      <trkpt lat="43.28356" lon="3.50102">
        <ele>18.8</ele>
        <time>2025-06-17T07:37:26Z</time>
      </trkpt>
      <trkpt lat="43.28359" lon="3.5011">
        <ele>19</ele>
        <time>2025-06-17T07:37:27Z</time>
      </trkpt>
      <trkpt lat="43.28362" lon="3.50119">
        <ele>19</ele>
        <time>2025-06-17T07:37:28Z</time>
      </trkpt>
      <trkpt lat="43.28364" lon="3.50126">
        <ele>19</ele>
        <time>2025-06-17T07:37:29Z</time>
      </trkpt>
      <trkpt lat="43.28365" lon="3.50136">
        <ele>19</ele>
        <time>2025-06-17T07:37:30Z</time>
      </trkpt>
      <trkpt lat="43.28367" lon="3.50146">
        <ele>18.8</ele>
        <time>2025-06-17T07:37:31Z</time>
      </trkpt>
      <trkpt lat="43.2837" lon="3.50155">
        <ele>18.8</ele>
        <time>2025-06-17T07:37:32Z</time>
      </trkpt>
      <trkpt lat="43.28372" lon="3.50164">
        <ele>18.8</ele>
        <time>2025-06-17T07:37:33Z</time>
      </trkpt>
      <trkpt lat="43.28373" lon="3.50174">
        <ele>18.6</ele>
        <time>2025-06-17T07:37:34Z</time>
      </trkpt>
      <trkpt lat="43.28375" lon="3.50183">
        <ele>18.6</ele>
        <time>2025-06-17T07:37:35Z</time>
      </trkpt>
      <trkpt lat="43.28377" lon="3.50193">
        <ele>18.4</ele>
        <time>2025-06-17T07:37:36Z</time>
      </trkpt>
      <trkpt lat="43.28379" lon="3.50202">
        <ele>18.4</ele>
        <time>2025-06-17T07:37:37Z</time>
      </trkpt>
      <trkpt lat="43.28381" lon="3.50212">
        <ele>18.4</ele>
        <time>2025-06-17T07:37:38Z</time>
      </trkpt>
      <trkpt lat="43.28383" lon="3.50221">
        <ele>18.4</ele>
        <time>2025-06-17T07:37:39Z</time>
      </trkpt>
      <trkpt lat="43.28385" lon="3.50231">
        <ele>18.4</ele>
        <time>2025-06-17T07:37:40Z</time>
      </trkpt>
      <trkpt lat="43.28386" lon="3.5024">
        <ele>18.4</ele>
        <time>2025-06-17T07:37:41Z</time>
      </trkpt>
      <trkpt lat="43.28388" lon="3.50247">
        <ele>18.4</ele>
        <time>2025-06-17T07:37:42Z</time>
      </trkpt>
      <trkpt lat="43.2839" lon="3.50253">
        <ele>18.4</ele>
        <time>2025-06-17T07:37:43Z</time>
      </trkpt>
      <trkpt lat="43.28392" lon="3.5026">
        <ele>18.4</ele>
        <time>2025-06-17T07:37:44Z</time>
      </trkpt>
      <trkpt lat="43.28394" lon="3.50267">
        <ele>18.2</ele>
        <time>2025-06-17T07:37:45Z</time>
      </trkpt>
      <trkpt lat="43.28395" lon="3.50275">
        <ele>18.2</ele>
        <time>2025-06-17T07:37:46Z</time>
      </trkpt>
      <trkpt lat="43.28396" lon="3.50282">
        <ele>18.4</ele>
        <time>2025-06-17T07:37:47Z</time>
      </trkpt>
      <trkpt lat="43.28397" lon="3.5029">
        <ele>18.4</ele>
        <time>2025-06-17T07:37:48Z</time>
      </trkpt>
      <trkpt lat="43.28399" lon="3.50298">
        <ele>18.4</ele>
        <time>2025-06-17T07:37:49Z</time>
      </trkpt>
      <trkpt lat="43.28401" lon="3.50306">
        <ele>18.4</ele>
        <time>2025-06-17T07:37:50Z</time>
      </trkpt>
      <trkpt lat="43.28403" lon="3.50313">
        <ele>18.4</ele>
        <time>2025-06-17T07:37:51Z</time>
      </trkpt>
      <trkpt lat="43.28404" lon="3.50322">
        <ele>18.4</ele>
        <time>2025-06-17T07:37:52Z</time>
      </trkpt>
      <trkpt lat="43.28406" lon="3.50329">
        <ele>18.4</ele>
        <time>2025-06-17T07:37:53Z</time>
      </trkpt>
      <trkpt lat="43.28408" lon="3.50338">
        <ele>18.6</ele>
        <time>2025-06-17T07:37:54Z</time>
      </trkpt>
      <trkpt lat="43.28409" lon="3.50346">
        <ele>18.6</ele>
        <time>2025-06-17T07:37:55Z</time>
      </trkpt>
      <trkpt lat="43.28411" lon="3.50354">
        <ele>18.8</ele>
        <time>2025-06-17T07:37:56Z</time>
      </trkpt>
      <trkpt lat="43.28412" lon="3.50362">
        <ele>18.8</ele>
        <time>2025-06-17T07:37:57Z</time>
      </trkpt>
      <trkpt lat="43.28414" lon="3.5037">
        <ele>18.8</ele>
        <time>2025-06-17T07:37:58Z</time>
      </trkpt>
      <trkpt lat="43.28417" lon="3.50378">
        <ele>18.8</ele>
        <time>2025-06-17T07:37:59Z</time>
      </trkpt>
      <trkpt lat="43.28419" lon="3.50385">
        <ele>19</ele>
        <time>2025-06-17T07:38:00Z</time>
      </trkpt>
      <trkpt lat="43.28421" lon="3.50392">
        <ele>19</ele>
        <time>2025-06-17T07:38:01Z</time>
      </trkpt>
      <trkpt lat="43.28424" lon="3.50399">
        <ele>19</ele>
        <time>2025-06-17T07:38:02Z</time>
      </trkpt>
      <trkpt lat="43.28426" lon="3.50405">
        <ele>19.2</ele>
        <time>2025-06-17T07:38:03Z</time>
      </trkpt>
      <trkpt lat="43.28429" lon="3.50409">
        <ele>19.2</ele>
        <time>2025-06-17T07:38:04Z</time>
      </trkpt>
      <trkpt lat="43.28432" lon="3.50413">
        <ele>19.2</ele>
        <time>2025-06-17T07:38:05Z</time>
      </trkpt>
      <trkpt lat="43.28435" lon="3.50416">
        <ele>19.2</ele>
        <time>2025-06-17T07:38:06Z</time>
      </trkpt>
      <trkpt lat="43.28437" lon="3.5042">
        <ele>19.2</ele>
        <time>2025-06-17T07:38:07Z</time>
      </trkpt>
      <trkpt lat="43.28439" lon="3.50425">
        <ele>19.4</ele>
        <time>2025-06-17T07:38:08Z</time>
      </trkpt>
      <trkpt lat="43.28439" lon="3.5043">
        <ele>19.4</ele>
        <time>2025-06-17T07:38:09Z</time>
      </trkpt>
      <trkpt lat="43.28438" lon="3.50435">
        <ele>19.4</ele>
        <time>2025-06-17T07:38:10Z</time>
      </trkpt>
      <trkpt lat="43.28434" lon="3.5044">
        <ele>19.4</ele>
        <time>2025-06-17T07:38:11Z</time>
      </trkpt>
      <trkpt lat="43.2843" lon="3.50444">
        <ele>19.2</ele>
        <time>2025-06-17T07:38:12Z</time>
      </trkpt>
      <trkpt lat="43.28425" lon="3.50448">
        <ele>19.2</ele>
        <time>2025-06-17T07:38:13Z</time>
      </trkpt>
      <trkpt lat="43.2842" lon="3.50452">
        <ele>19</ele>
        <time>2025-06-17T07:38:14Z</time>
      </trkpt>
      <trkpt lat="43.28415" lon="3.50456">
        <ele>18.8</ele>
        <time>2025-06-17T07:38:15Z</time>
      </trkpt>
      <trkpt lat="43.28411" lon="3.50461">
        <ele>18.8</ele>
        <time>2025-06-17T07:38:16Z</time>
      </trkpt>
      <trkpt lat="43.28408" lon="3.50467">
        <ele>18.8</ele>
        <time>2025-06-17T07:38:17Z</time>
      </trkpt>
      <trkpt lat="43.28406" lon="3.50473">
        <ele>18.6</ele>
        <time>2025-06-17T07:38:18Z</time>
      </trkpt>
      <trkpt lat="43.28405" lon="3.5048">
        <ele>18.8</ele>
        <time>2025-06-17T07:38:19Z</time>
      </trkpt>
      <trkpt lat="43.28406" lon="3.50488">
        <ele>18.8</ele>
        <time>2025-06-17T07:38:20Z</time>
      </trkpt>
      <trkpt lat="43.28408" lon="3.50497">
        <ele>18.6</ele>
        <time>2025-06-17T07:38:21Z</time>
      </trkpt>
      <trkpt lat="43.28411" lon="3.50505">
        <ele>18.6</ele>
        <time>2025-06-17T07:38:22Z</time>
      </trkpt>
      <trkpt lat="43.28413" lon="3.50514">
        <ele>18.6</ele>
        <time>2025-06-17T07:38:23Z</time>
      </trkpt>
      <trkpt lat="43.28416" lon="3.50522">
        <ele>18.6</ele>
        <time>2025-06-17T07:38:24Z</time>
      </trkpt>
      <trkpt lat="43.28419" lon="3.50531">
        <ele>18.6</ele>
        <time>2025-06-17T07:38:25Z</time>
      </trkpt>
      <trkpt lat="43.28421" lon="3.50539">
        <ele>18.4</ele>
        <time>2025-06-17T07:38:26Z</time>
      </trkpt>
      <trkpt lat="43.28423" lon="3.50547">
        <ele>18.4</ele>
        <time>2025-06-17T07:38:27Z</time>
      </trkpt>
      <trkpt lat="43.28425" lon="3.50554">
        <ele>18.4</ele>
        <time>2025-06-17T07:38:28Z</time>
      </trkpt>
      <trkpt lat="43.28426" lon="3.5056">
        <ele>18.4</ele>
        <time>2025-06-17T07:38:29Z</time>
      </trkpt>
      <trkpt lat="43.28425" lon="3.50564">
        <ele>18.6</ele>
        <time>2025-06-17T07:38:30Z</time>
      </trkpt>
      <trkpt lat="43.28423" lon="3.50569">
        <ele>18.6</ele>
        <time>2025-06-17T07:38:31Z</time>
      </trkpt>
      <trkpt lat="43.28422" lon="3.50574">
        <ele>18.6</ele>
        <time>2025-06-17T07:38:32Z</time>
      </trkpt>
      <trkpt lat="43.28423" lon="3.50578">
        <ele>18.6</ele>
        <time>2025-06-17T07:38:33Z</time>
      </trkpt>
      <trkpt lat="43.28424" lon="3.50582">
        <ele>18.6</ele>
        <time>2025-06-17T07:38:34Z</time>
      </trkpt>
      <trkpt lat="43.28427" lon="3.50587">
        <ele>18.6</ele>
        <time>2025-06-17T07:38:35Z</time>
      </trkpt>
      <trkpt lat="43.28428" lon="3.50592">
        <ele>18.6</ele>
        <time>2025-06-17T07:38:36Z</time>
      </trkpt>
      <trkpt lat="43.2843" lon="3.50596">
        <ele>18.6</ele>
        <time>2025-06-17T07:38:37Z</time>
      </trkpt>
      <trkpt lat="43.28432" lon="3.506">
        <ele>18.6</ele>
        <time>2025-06-17T07:38:38Z</time>
      </trkpt>
      <trkpt lat="43.28434" lon="3.50605">
        <ele>18.6</ele>
        <time>2025-06-17T07:38:39Z</time>
      </trkpt>
      <trkpt lat="43.28436" lon="3.50609">
        <ele>18.6</ele>
        <time>2025-06-17T07:38:40Z</time>
      </trkpt>
      <trkpt lat="43.28439" lon="3.50611">
        <ele>18.6</ele>
        <time>2025-06-17T07:38:41Z</time>
      </trkpt>
      <trkpt lat="43.28443" lon="3.50613">
        <ele>18.6</ele>
        <time>2025-06-17T07:38:42Z</time>
      </trkpt>
      <trkpt lat="43.28446" lon="3.50613">
        <ele>18.8</ele>
        <time>2025-06-17T07:38:43Z</time>
      </trkpt>
      <trkpt lat="43.28449" lon="3.50611">
        <ele>18.8</ele>
        <time>2025-06-17T07:38:44Z</time>
      </trkpt>
      <trkpt lat="43.2845" lon="3.50607">
        <ele>18.8</ele>
        <time>2025-06-17T07:38:45Z</time>
      </trkpt>
      <trkpt lat="43.2845" lon="3.50604">
        <ele>18.8</ele>
        <time>2025-06-17T07:38:46Z</time>
      </trkpt>
      <trkpt lat="43.28449" lon="3.506">
        <ele>18.8</ele>
        <time>2025-06-17T07:38:47Z</time>
      </trkpt>
      <trkpt lat="43.28448" lon="3.50595">
        <ele>18.6</ele>
        <time>2025-06-17T07:38:48Z</time>
      </trkpt>
      <trkpt lat="43.28446" lon="3.5059">
        <ele>18.6</ele>
        <time>2025-06-17T07:38:49Z</time>
      </trkpt>
      <trkpt lat="43.28443" lon="3.50585">
        <ele>18.4</ele>
        <time>2025-06-17T07:38:50Z</time>
      </trkpt>
      <trkpt lat="43.28441" lon="3.50581">
        <ele>18.4</ele>
        <time>2025-06-17T07:38:51Z</time>
      </trkpt>
      <trkpt lat="43.2844" lon="3.50577">
        <ele>18.4</ele>
        <time>2025-06-17T07:38:52Z</time>
      </trkpt>
      <trkpt lat="43.28438" lon="3.50571">
        <ele>18.2</ele>
        <time>2025-06-17T07:38:53Z</time>
      </trkpt>
      <trkpt lat="43.28435" lon="3.50565">
        <ele>18.2</ele>
        <time>2025-06-17T07:38:54Z</time>
      </trkpt>
      <trkpt lat="43.28433" lon="3.50558">
        <ele>18.2</ele>
        <time>2025-06-17T07:38:55Z</time>
      </trkpt>
      <trkpt lat="43.2843" lon="3.5055">
        <ele>18.2</ele>
        <time>2025-06-17T07:38:56Z</time>
      </trkpt>
      <trkpt lat="43.28428" lon="3.50542">
        <ele>18.2</ele>
        <time>2025-06-17T07:38:57Z</time>
      </trkpt>
      <trkpt lat="43.28426" lon="3.50535">
        <ele>18.2</ele>
        <time>2025-06-17T07:38:58Z</time>
      </trkpt>
      <trkpt lat="43.28424" lon="3.50527">
        <ele>18.2</ele>
        <time>2025-06-17T07:38:59Z</time>
      </trkpt>
      <trkpt lat="43.28422" lon="3.5052">
        <ele>18.2</ele>
        <time>2025-06-17T07:39:00Z</time>
      </trkpt>
      <trkpt lat="43.2842" lon="3.50513">
        <ele>18.4</ele>
        <time>2025-06-17T07:39:01Z</time>
      </trkpt>
      <trkpt lat="43.28418" lon="3.50506">
        <ele>18.4</ele>
        <time>2025-06-17T07:39:02Z</time>
      </trkpt>
      <trkpt lat="43.28417" lon="3.505">
        <ele>18.4</ele>
        <time>2025-06-17T07:39:03Z</time>
      </trkpt>
      <trkpt lat="43.28415" lon="3.50493">
        <ele>18.4</ele>
        <time>2025-06-17T07:39:04Z</time>
      </trkpt>
      <trkpt lat="43.28415" lon="3.50486">
        <ele>18.4</ele>
        <time>2025-06-17T07:39:05Z</time>
      </trkpt>
      <trkpt lat="43.28415" lon="3.50479">
        <ele>18.4</ele>
        <time>2025-06-17T07:39:06Z</time>
      </trkpt>
      <trkpt lat="43.28416" lon="3.50473">
        <ele>18.4</ele>
        <time>2025-06-17T07:39:07Z</time>
      </trkpt>
      <trkpt lat="43.28418" lon="3.50468">
        <ele>18.6</ele>
        <time>2025-06-17T07:39:08Z</time>
      </trkpt>
      <trkpt lat="43.28421" lon="3.50463">
        <ele>18.6</ele>
        <time>2025-06-17T07:39:09Z</time>
      </trkpt>
      <trkpt lat="43.28424" lon="3.5046">
        <ele>18.6</ele>
        <time>2025-06-17T07:39:10Z</time>
      </trkpt>
      <trkpt lat="43.28426" lon="3.50454">
        <ele>18.8</ele>
        <time>2025-06-17T07:39:11Z</time>
      </trkpt>
      <trkpt lat="43.28429" lon="3.50451">
        <ele>18.8</ele>
        <time>2025-06-17T07:39:12Z</time>
      </trkpt>
      <trkpt lat="43.28432" lon="3.50448">
        <ele>19</ele>
        <time>2025-06-17T07:39:13Z</time>
      </trkpt>
      <trkpt lat="43.28436" lon="3.50446">
        <ele>19</ele>
        <time>2025-06-17T07:39:14Z</time>
      </trkpt>
      <trkpt lat="43.28441" lon="3.50445">
        <ele>19.2</ele>
        <time>2025-06-17T07:39:15Z</time>
      </trkpt>
      <trkpt lat="43.28445" lon="3.50447">
        <ele>19.2</ele>
        <time>2025-06-17T07:39:16Z</time>
      </trkpt>
      <trkpt lat="43.28449" lon="3.5045">
        <ele>19.4</ele>
        <time>2025-06-17T07:39:17Z</time>
      </trkpt>
      <trkpt lat="43.28453" lon="3.50454">
        <ele>19.6</ele>
        <time>2025-06-17T07:39:18Z</time>
      </trkpt>
      <trkpt lat="43.28455" lon="3.50458">
        <ele>19.6</ele>
        <time>2025-06-17T07:39:19Z</time>
      </trkpt>
      <trkpt lat="43.28458" lon="3.50463">
        <ele>19.6</ele>
        <time>2025-06-17T07:39:20Z</time>
      </trkpt>
      <trkpt lat="43.28461" lon="3.50468">
        <ele>19.8</ele>
        <time>2025-06-17T07:39:21Z</time>
      </trkpt>
      <trkpt lat="43.28463" lon="3.50474">
        <ele>19.8</ele>
        <time>2025-06-17T07:39:22Z</time>
      </trkpt>
      <trkpt lat="43.28465" lon="3.5048">
        <ele>20</ele>
        <time>2025-06-17T07:39:23Z</time>
      </trkpt>
      <trkpt lat="43.28467" lon="3.50485">
        <ele>20.2</ele>
        <time>2025-06-17T07:39:24Z</time>
      </trkpt>
      <trkpt lat="43.2847" lon="3.5049">
        <ele>20.2</ele>
        <time>2025-06-17T07:39:25Z</time>
      </trkpt>
      <trkpt lat="43.28472" lon="3.50496">
        <ele>20.4</ele>
        <time>2025-06-17T07:39:26Z</time>
      </trkpt>
      <trkpt lat="43.28476" lon="3.50501">
        <ele>20.4</ele>
        <time>2025-06-17T07:39:27Z</time>
      </trkpt>
      <trkpt lat="43.28479" lon="3.50506">
        <ele>20.6</ele>
        <time>2025-06-17T07:39:28Z</time>
      </trkpt>
      <trkpt lat="43.28483" lon="3.50511">
        <ele>20.8</ele>
        <time>2025-06-17T07:39:29Z</time>
      </trkpt>
      <trkpt lat="43.28486" lon="3.50516">
        <ele>20.8</ele>
        <time>2025-06-17T07:39:30Z</time>
      </trkpt>
      <trkpt lat="43.2849" lon="3.50521">
        <ele>21</ele>
        <time>2025-06-17T07:39:31Z</time>
      </trkpt>
      <trkpt lat="43.28493" lon="3.50526">
        <ele>21</ele>
        <time>2025-06-17T07:39:32Z</time>
      </trkpt>
      <trkpt lat="43.28497" lon="3.50531">
        <ele>21.2</ele>
        <time>2025-06-17T07:39:33Z</time>
      </trkpt>
      <trkpt lat="43.285" lon="3.50536">
        <ele>21.4</ele>
        <time>2025-06-17T07:39:34Z</time>
      </trkpt>
      <trkpt lat="43.28504" lon="3.50542">
        <ele>21.6</ele>
        <time>2025-06-17T07:39:35Z</time>
      </trkpt>
      <trkpt lat="43.28508" lon="3.50546">
        <ele>21.8</ele>
        <time>2025-06-17T07:39:36Z</time>
      </trkpt>
      <trkpt lat="43.28511" lon="3.5055">
        <ele>22</ele>
        <time>2025-06-17T07:39:37Z</time>
      </trkpt>
      <trkpt lat="43.28514" lon="3.50554">
        <ele>22.2</ele>
        <time>2025-06-17T07:39:38Z</time>
      </trkpt>
      <trkpt lat="43.28517" lon="3.50557">
        <ele>22.4</ele>
        <time>2025-06-17T07:39:39Z</time>
      </trkpt>
      <trkpt lat="43.28519" lon="3.5056">
        <ele>22.8</ele>
        <time>2025-06-17T07:39:40Z</time>
      </trkpt>
      <trkpt lat="43.28522" lon="3.50563">
        <ele>23</ele>
        <time>2025-06-17T07:39:41Z</time>
      </trkpt>
      <trkpt lat="43.28524" lon="3.50566">
        <ele>23.4</ele>
        <time>2025-06-17T07:39:42Z</time>
      </trkpt>
      <trkpt lat="43.28527" lon="3.50568">
        <ele>23.6</ele>
        <time>2025-06-17T07:39:43Z</time>
      </trkpt>
      <trkpt lat="43.2853" lon="3.5057">
        <ele>23.8</ele>
        <time>2025-06-17T07:39:44Z</time>
      </trkpt>
      <trkpt lat="43.28532" lon="3.50572">
        <ele>24.2</ele>
        <time>2025-06-17T07:39:45Z</time>
      </trkpt>
      <trkpt lat="43.28534" lon="3.50575">
        <ele>24.4</ele>
        <time>2025-06-17T07:39:46Z</time>
      </trkpt>
      <trkpt lat="43.28536" lon="3.50577">
        <ele>24.6</ele>
        <time>2025-06-17T07:39:47Z</time>
      </trkpt>
      <trkpt lat="43.28539" lon="3.50579">
        <ele>25</ele>
        <time>2025-06-17T07:39:48Z</time>
      </trkpt>
      <trkpt lat="43.28541" lon="3.50581">
        <ele>25.2</ele>
        <time>2025-06-17T07:39:49Z</time>
      </trkpt>
      <trkpt lat="43.28544" lon="3.50583">
        <ele>25.4</ele>
        <time>2025-06-17T07:39:50Z</time>
      </trkpt>
      <trkpt lat="43.28546" lon="3.50584">
        <ele>25.6</ele>
        <time>2025-06-17T07:39:51Z</time>
      </trkpt>
      <trkpt lat="43.28549" lon="3.50587">
        <ele>25.8</ele>
        <time>2025-06-17T07:39:52Z</time>
      </trkpt>
      <trkpt lat="43.28551" lon="3.50589">
        <ele>26</ele>
        <time>2025-06-17T07:39:53Z</time>
      </trkpt>
      <trkpt lat="43.28553" lon="3.50591">
        <ele>26</ele>
        <time>2025-06-17T07:39:54Z</time>
      </trkpt>
      <trkpt lat="43.28556" lon="3.50593">
        <ele>26.2</ele>
        <time>2025-06-17T07:39:55Z</time>
      </trkpt>
      <trkpt lat="43.28559" lon="3.50595">
        <ele>26.2</ele>
        <time>2025-06-17T07:39:56Z</time>
      </trkpt>
      <trkpt lat="43.28561" lon="3.50598">
        <ele>26.4</ele>
        <time>2025-06-17T07:39:57Z</time>
      </trkpt>
      <trkpt lat="43.28565" lon="3.506">
        <ele>26.6</ele>
        <time>2025-06-17T07:39:58Z</time>
      </trkpt>
      <trkpt lat="43.28567" lon="3.50603">
        <ele>26.6</ele>
        <time>2025-06-17T07:39:59Z</time>
      </trkpt>
      <trkpt lat="43.2857" lon="3.50606">
        <ele>26.6</ele>
        <time>2025-06-17T07:40:00Z</time>
      </trkpt>
      <trkpt lat="43.28574" lon="3.50609">
        <ele>26.6</ele>
        <time>2025-06-17T07:40:01Z</time>
      </trkpt>
      <trkpt lat="43.28577" lon="3.50612">
        <ele>26.6</ele>
        <time>2025-06-17T07:40:02Z</time>
      </trkpt>
      <trkpt lat="43.28581" lon="3.50615">
        <ele>26.6</ele>
        <time>2025-06-17T07:40:03Z</time>
      </trkpt>
      <trkpt lat="43.28585" lon="3.50619">
        <ele>26.6</ele>
        <time>2025-06-17T07:40:04Z</time>
      </trkpt>
      <trkpt lat="43.28589" lon="3.50623">
        <ele>26.6</ele>
        <time>2025-06-17T07:40:05Z</time>
      </trkpt>
      <trkpt lat="43.28593" lon="3.50626">
        <ele>26.4</ele>
        <time>2025-06-17T07:40:06Z</time>
      </trkpt>
      <trkpt lat="43.28597" lon="3.50631">
        <ele>26.4</ele>
        <time>2025-06-17T07:40:07Z</time>
      </trkpt>
      <trkpt lat="43.28601" lon="3.50635">
        <ele>26.4</ele>
        <time>2025-06-17T07:40:08Z</time>
      </trkpt>
      <trkpt lat="43.28605" lon="3.50639">
        <ele>26.4</ele>
        <time>2025-06-17T07:40:09Z</time>
      </trkpt>
      <trkpt lat="43.2861" lon="3.50644">
        <ele>26.4</ele>
        <time>2025-06-17T07:40:10Z</time>
      </trkpt>
      <trkpt lat="43.28614" lon="3.50649">
        <ele>26.4</ele>
        <time>2025-06-17T07:40:11Z</time>
      </trkpt>
      <trkpt lat="43.28619" lon="3.50654">
        <ele>26.4</ele>
        <time>2025-06-17T07:40:12Z</time>
      </trkpt>
      <trkpt lat="43.28622" lon="3.5066">
        <ele>26.4</ele>
        <time>2025-06-17T07:40:13Z</time>
      </trkpt>
      <trkpt lat="43.28627" lon="3.50666">
        <ele>26.2</ele>
        <time>2025-06-17T07:40:14Z</time>
      </trkpt>
      <trkpt lat="43.28631" lon="3.50672">
        <ele>26.2</ele>
        <time>2025-06-17T07:40:15Z</time>
      </trkpt>
      <trkpt lat="43.28635" lon="3.50678">
        <ele>26</ele>
        <time>2025-06-17T07:40:16Z</time>
      </trkpt>
      <trkpt lat="43.28639" lon="3.50686">
        <ele>25.8</ele>
        <time>2025-06-17T07:40:17Z</time>
      </trkpt>
      <trkpt lat="43.28642" lon="3.50693">
        <ele>25.8</ele>
        <time>2025-06-17T07:40:18Z</time>
      </trkpt>
      <trkpt lat="43.28645" lon="3.50701">
        <ele>25.6</ele>
        <time>2025-06-17T07:40:19Z</time>
      </trkpt>
      <trkpt lat="43.28649" lon="3.50709">
        <ele>25.6</ele>
        <time>2025-06-17T07:40:20Z</time>
      </trkpt>
      <trkpt lat="43.28652" lon="3.50719">
        <ele>25.4</ele>
        <time>2025-06-17T07:40:21Z</time>
      </trkpt>
      <trkpt lat="43.28654" lon="3.50728">
        <ele>25.2</ele>
        <time>2025-06-17T07:40:22Z</time>
      </trkpt>
      <trkpt lat="43.28656" lon="3.50738">
        <ele>24.8</ele>
        <time>2025-06-17T07:40:23Z</time>
      </trkpt>
      <trkpt lat="43.28657" lon="3.50748">
        <ele>24.6</ele>
        <time>2025-06-17T07:40:24Z</time>
      </trkpt>
      <trkpt lat="43.28658" lon="3.50759">
        <ele>24.2</ele>
        <time>2025-06-17T07:40:25Z</time>
      </trkpt>
      <trkpt lat="43.28658" lon="3.5077">
        <ele>23.8</ele>
        <time>2025-06-17T07:40:26Z</time>
      </trkpt>
      <trkpt lat="43.28659" lon="3.50781">
        <ele>23.6</ele>
        <time>2025-06-17T07:40:27Z</time>
      </trkpt>
      <trkpt lat="43.28659" lon="3.50792">
        <ele>23.2</ele>
        <time>2025-06-17T07:40:28Z</time>
      </trkpt>
      <trkpt lat="43.28659" lon="3.50803">
        <ele>23</ele>
        <time>2025-06-17T07:40:29Z</time>
      </trkpt>
      <trkpt lat="43.2866" lon="3.50813">
        <ele>22.8</ele>
        <time>2025-06-17T07:40:30Z</time>
      </trkpt>
      <trkpt lat="43.28659" lon="3.50822">
        <ele>22.6</ele>
        <time>2025-06-17T07:40:31Z</time>
      </trkpt>
      <trkpt lat="43.28659" lon="3.5083">
        <ele>22.4</ele>
        <time>2025-06-17T07:40:32Z</time>
      </trkpt>
      <trkpt lat="43.28659" lon="3.50839">
        <ele>22</ele>
        <time>2025-06-17T07:40:33Z</time>
      </trkpt>
      <trkpt lat="43.28659" lon="3.50848">
        <ele>21.8</ele>
        <time>2025-06-17T07:40:34Z</time>
      </trkpt>
      <trkpt lat="43.28658" lon="3.50858">
        <ele>21.6</ele>
        <time>2025-06-17T07:40:35Z</time>
      </trkpt>
      <trkpt lat="43.28659" lon="3.50867">
        <ele>21.6</ele>
        <time>2025-06-17T07:40:36Z</time>
      </trkpt>
      <trkpt lat="43.28659" lon="3.50877">
        <ele>21.4</ele>
        <time>2025-06-17T07:40:37Z</time>
      </trkpt>
      <trkpt lat="43.2866" lon="3.50886">
        <ele>21.2</ele>
        <time>2025-06-17T07:40:38Z</time>
      </trkpt>
      <trkpt lat="43.2866" lon="3.50894">
        <ele>21.2</ele>
        <time>2025-06-17T07:40:39Z</time>
      </trkpt>
      <trkpt lat="43.28661" lon="3.50899">
        <ele>21.2</ele>
        <time>2025-06-17T07:40:40Z</time>
      </trkpt>
      <trkpt lat="43.28661" lon="3.50902">
        <ele>21</ele>
        <time>2025-06-17T07:40:41Z</time>
      </trkpt>
      <trkpt lat="43.28661" lon="3.50906">
        <ele>21</ele>
        <time>2025-06-17T07:40:42Z</time>
      </trkpt>
      <trkpt lat="43.28661" lon="3.50911">
        <ele>21</ele>
        <time>2025-06-17T07:40:43Z</time>
      </trkpt>
      <trkpt lat="43.28662" lon="3.50917">
        <ele>21</ele>
        <time>2025-06-17T07:40:44Z</time>
      </trkpt>
      <trkpt lat="43.28663" lon="3.50924">
        <ele>20.8</ele>
        <time>2025-06-17T07:40:45Z</time>
      </trkpt>
      <trkpt lat="43.28663" lon="3.5093">
        <ele>20.8</ele>
        <time>2025-06-17T07:40:46Z</time>
      </trkpt>
      <trkpt lat="43.28665" lon="3.50936">
        <ele>20.8</ele>
        <time>2025-06-17T07:40:47Z</time>
      </trkpt>
      <trkpt lat="43.28666" lon="3.50943">
        <ele>20.8</ele>
        <time>2025-06-17T07:40:48Z</time>
      </trkpt>
      <trkpt lat="43.28667" lon="3.5095">
        <ele>20.8</ele>
        <time>2025-06-17T07:40:49Z</time>
      </trkpt>
      <trkpt lat="43.28667" lon="3.50957">
        <ele>20.6</ele>
        <time>2025-06-17T07:40:50Z</time>
      </trkpt>
      <trkpt lat="43.28667" lon="3.50965">
        <ele>20.4</ele>
        <time>2025-06-17T07:40:51Z</time>
      </trkpt>
      <trkpt lat="43.28667" lon="3.50971">
        <ele>20.4</ele>
        <time>2025-06-17T07:40:52Z</time>
      </trkpt>
      <trkpt lat="43.28665" lon="3.50979">
        <ele>20.2</ele>
        <time>2025-06-17T07:40:53Z</time>
      </trkpt>
      <trkpt lat="43.28664" lon="3.50986">
        <ele>20</ele>
        <time>2025-06-17T07:40:54Z</time>
      </trkpt>
      <trkpt lat="43.28662" lon="3.50993">
        <ele>20</ele>
        <time>2025-06-17T07:40:55Z</time>
      </trkpt>
      <trkpt lat="43.28659" lon="3.51">
        <ele>20</ele>
        <time>2025-06-17T07:40:56Z</time>
      </trkpt>
      <trkpt lat="43.28656" lon="3.51007">
        <ele>19.8</ele>
        <time>2025-06-17T07:40:57Z</time>
      </trkpt>
      <trkpt lat="43.28652" lon="3.51014">
        <ele>19.8</ele>
        <time>2025-06-17T07:40:58Z</time>
      </trkpt>
      <trkpt lat="43.28648" lon="3.51021">
        <ele>19.8</ele>
        <time>2025-06-17T07:40:59Z</time>
      </trkpt>
      <trkpt lat="43.28646" lon="3.51027">
        <ele>19.6</ele>
        <time>2025-06-17T07:41:00Z</time>
      </trkpt>
      <trkpt lat="43.28644" lon="3.51032">
        <ele>19.6</ele>
        <time>2025-06-17T07:41:01Z</time>
      </trkpt>
      <trkpt lat="43.28643" lon="3.51035">
        <ele>19.6</ele>
        <time>2025-06-17T07:41:02Z</time>
      </trkpt>
      <trkpt lat="43.28642" lon="3.51037">
        <ele>19.6</ele>
        <time>2025-06-17T07:41:03Z</time>
      </trkpt>
      <trkpt lat="43.28642" lon="3.51039">
        <ele>19.6</ele>
        <time>2025-06-17T07:41:04Z</time>
      </trkpt>
      <trkpt lat="43.28641" lon="3.51041">
        <ele>19.6</ele>
        <time>2025-06-17T07:41:05Z</time>
      </trkpt>
      <trkpt lat="43.28641" lon="3.51043">
        <ele>19.6</ele>
        <time>2025-06-17T07:41:06Z</time>
      </trkpt>
      <trkpt lat="43.28641" lon="3.51045">
        <ele>19.6</ele>
        <time>2025-06-17T07:41:07Z</time>
      </trkpt>
      <trkpt lat="43.28641" lon="3.51048">
        <ele>19.4</ele>
        <time>2025-06-17T07:41:08Z</time>
      </trkpt>
      <trkpt lat="43.2864" lon="3.51051">
        <ele>19.4</ele>
        <time>2025-06-17T07:41:09Z</time>
      </trkpt>
      <trkpt lat="43.2864" lon="3.51054">
        <ele>19.4</ele>
        <time>2025-06-17T07:41:10Z</time>
      </trkpt>
      <trkpt lat="43.2864" lon="3.51057">
        <ele>19.4</ele>
        <time>2025-06-17T07:41:11Z</time>
      </trkpt>
      <trkpt lat="43.2864" lon="3.5106">
        <ele>19.2</ele>
        <time>2025-06-17T07:41:12Z</time>
      </trkpt>
      <trkpt lat="43.2864" lon="3.51065">
        <ele>19.2</ele>
        <time>2025-06-17T07:41:13Z</time>
      </trkpt>
      <trkpt lat="43.28639" lon="3.51069">
        <ele>19.2</ele>
        <time>2025-06-17T07:41:14Z</time>
      </trkpt>
      <trkpt lat="43.28638" lon="3.51074">
        <ele>19.2</ele>
        <time>2025-06-17T07:41:15Z</time>
      </trkpt>
      <trkpt lat="43.28637" lon="3.51079">
        <ele>19</ele>
        <time>2025-06-17T07:41:16Z</time>
      </trkpt>
      <trkpt lat="43.28636" lon="3.51085">
        <ele>19</ele>
        <time>2025-06-17T07:41:17Z</time>
      </trkpt>
      <trkpt lat="43.28635" lon="3.5109">
        <ele>19</ele>
        <time>2025-06-17T07:41:18Z</time>
      </trkpt>
      <trkpt lat="43.28633" lon="3.51096">
        <ele>19</ele>
        <time>2025-06-17T07:41:19Z</time>
      </trkpt>
      <trkpt lat="43.28632" lon="3.51102">
        <ele>19</ele>
        <time>2025-06-17T07:41:20Z</time>
      </trkpt>
      <trkpt lat="43.28631" lon="3.51108">
        <ele>19</ele>
        <time>2025-06-17T07:41:21Z</time>
      </trkpt>
      <trkpt lat="43.2863" lon="3.51115">
        <ele>19</ele>
        <time>2025-06-17T07:41:22Z</time>
      </trkpt>
      <trkpt lat="43.28629" lon="3.5112">
        <ele>19</ele>
        <time>2025-06-17T07:41:23Z</time>
      </trkpt>
      <trkpt lat="43.28627" lon="3.51127">
        <ele>19</ele>
        <time>2025-06-17T07:41:24Z</time>
      </trkpt>
      <trkpt lat="43.28626" lon="3.51134">
        <ele>19</ele>
        <time>2025-06-17T07:41:25Z</time>
      </trkpt>
      <trkpt lat="43.28624" lon="3.51141">
        <ele>19</ele>
        <time>2025-06-17T07:41:26Z</time>
      </trkpt>
      <trkpt lat="43.28622" lon="3.51148">
        <ele>19.2</ele>
        <time>2025-06-17T07:41:27Z</time>
      </trkpt>
      <trkpt lat="43.28619" lon="3.51156">
        <ele>19</ele>
        <time>2025-06-17T07:41:28Z</time>
      </trkpt>
      <trkpt lat="43.28615" lon="3.51163">
        <ele>19</ele>
        <time>2025-06-17T07:41:29Z</time>
      </trkpt>
      <trkpt lat="43.28613" lon="3.5117">
        <ele>19</ele>
        <time>2025-06-17T07:41:30Z</time>
      </trkpt>
      <trkpt lat="43.2861" lon="3.51178">
        <ele>19</ele>
        <time>2025-06-17T07:41:31Z</time>
      </trkpt>
      <trkpt lat="43.28607" lon="3.51185">
        <ele>19</ele>
        <time>2025-06-17T07:41:32Z</time>
      </trkpt>
      <trkpt lat="43.28605" lon="3.51192">
        <ele>19.2</ele>
        <time>2025-06-17T07:41:33Z</time>
      </trkpt>
      <trkpt lat="43.28603" lon="3.51199">
        <ele>19.2</ele>
        <time>2025-06-17T07:41:34Z</time>
      </trkpt>
      <trkpt lat="43.286" lon="3.51205">
        <ele>19.2</ele>
        <time>2025-06-17T07:41:35Z</time>
      </trkpt>
      <trkpt lat="43.28599" lon="3.5121">
        <ele>19.2</ele>
        <time>2025-06-17T07:41:36Z</time>
      </trkpt>
      <trkpt lat="43.28598" lon="3.51214">
        <ele>19.2</ele>
        <time>2025-06-17T07:41:37Z</time>
      </trkpt>
      <trkpt lat="43.28597" lon="3.51216">
        <ele>19.2</ele>
        <time>2025-06-17T07:41:38Z</time>
      </trkpt>
      <trkpt lat="43.28596" lon="3.51219">
        <ele>19.2</ele>
        <time>2025-06-17T07:41:39Z</time>
      </trkpt>
      <trkpt lat="43.28595" lon="3.51221">
        <ele>19.2</ele>
        <time>2025-06-17T07:41:40Z</time>
      </trkpt>
      <trkpt lat="43.28594" lon="3.51224">
        <ele>19.4</ele>
        <time>2025-06-17T07:41:41Z</time>
      </trkpt>
      <trkpt lat="43.28592" lon="3.51228">
        <ele>19.4</ele>
        <time>2025-06-17T07:41:42Z</time>
      </trkpt>
      <trkpt lat="43.28591" lon="3.51232">
        <ele>19.4</ele>
        <time>2025-06-17T07:41:43Z</time>
      </trkpt>
      <trkpt lat="43.28589" lon="3.51236">
        <ele>19.4</ele>
        <time>2025-06-17T07:41:44Z</time>
      </trkpt>
      <trkpt lat="43.28588" lon="3.51241">
        <ele>19.4</ele>
        <time>2025-06-17T07:41:45Z</time>
      </trkpt>
      <trkpt lat="43.28586" lon="3.51246">
        <ele>19.2</ele>
        <time>2025-06-17T07:41:46Z</time>
      </trkpt>
      <trkpt lat="43.28584" lon="3.51251">
        <ele>19.2</ele>
        <time>2025-06-17T07:41:47Z</time>
      </trkpt>
      <trkpt lat="43.28582" lon="3.51256">
        <ele>19.4</ele>
        <time>2025-06-17T07:41:48Z</time>
      </trkpt>
      <trkpt lat="43.2858" lon="3.5126">
        <ele>19.4</ele>
        <time>2025-06-17T07:41:49Z</time>
      </trkpt>
      <trkpt lat="43.28578" lon="3.51265">
        <ele>19.4</ele>
        <time>2025-06-17T07:41:50Z</time>
      </trkpt>
      <trkpt lat="43.28577" lon="3.51268">
        <ele>19.4</ele>
        <time>2025-06-17T07:41:51Z</time>
      </trkpt>
      <trkpt lat="43.28575" lon="3.51271">
        <ele>19.6</ele>
        <time>2025-06-17T07:41:52Z</time>
      </trkpt>
      <trkpt lat="43.28573" lon="3.51273">
        <ele>19.6</ele>
        <time>2025-06-17T07:41:53Z</time>
      </trkpt>
      <trkpt lat="43.28571" lon="3.51277">
        <ele>19.6</ele>
        <time>2025-06-17T07:41:54Z</time>
      </trkpt>
      <trkpt lat="43.28569" lon="3.51281">
        <ele>19.6</ele>
        <time>2025-06-17T07:41:55Z</time>
      </trkpt>
      <trkpt lat="43.28567" lon="3.51285">
        <ele>19.6</ele>
        <time>2025-06-17T07:41:56Z</time>
      </trkpt>
      <trkpt lat="43.28565" lon="3.51287">
        <ele>19.6</ele>
        <time>2025-06-17T07:41:57Z</time>
      </trkpt>
      <trkpt lat="43.28562" lon="3.51291">
        <ele>19.6</ele>
        <time>2025-06-17T07:41:58Z</time>
      </trkpt>
      <trkpt lat="43.28559" lon="3.51294">
        <ele>19.6</ele>
        <time>2025-06-17T07:41:59Z</time>
      </trkpt>
      <trkpt lat="43.28556" lon="3.51297">
        <ele>19.6</ele>
        <time>2025-06-17T07:42:00Z</time>
      </trkpt>
      <trkpt lat="43.28552" lon="3.51301">
        <ele>19.6</ele>
        <time>2025-06-17T07:42:01Z</time>
      </trkpt>
      <trkpt lat="43.28549" lon="3.51304">
        <ele>19.8</ele>
        <time>2025-06-17T07:42:02Z</time>
      </trkpt>
      <trkpt lat="43.28547" lon="3.51308">
        <ele>19.8</ele>
        <time>2025-06-17T07:42:03Z</time>
      </trkpt>
      <trkpt lat="43.28544" lon="3.51313">
        <ele>19.6</ele>
        <time>2025-06-17T07:42:04Z</time>
      </trkpt>
      <trkpt lat="43.2854" lon="3.51317">
        <ele>19.6</ele>
        <time>2025-06-17T07:42:05Z</time>
      </trkpt>
      <trkpt lat="43.28535" lon="3.51322">
        <ele>19.6</ele>
        <time>2025-06-17T07:42:06Z</time>
      </trkpt>
      <trkpt lat="43.2853" lon="3.51326">
        <ele>19.6</ele>
        <time>2025-06-17T07:42:07Z</time>
      </trkpt>
      <trkpt lat="43.28525" lon="3.51331">
        <ele>19.4</ele>
        <time>2025-06-17T07:42:08Z</time>
      </trkpt>
      <trkpt lat="43.2852" lon="3.51336">
        <ele>19.4</ele>
        <time>2025-06-17T07:42:09Z</time>
      </trkpt>
      <trkpt lat="43.28515" lon="3.51341">
        <ele>19.4</ele>
        <time>2025-06-17T07:42:10Z</time>
      </trkpt>
      <trkpt lat="43.28509" lon="3.51346">
        <ele>19.2</ele>
        <time>2025-06-17T07:42:11Z</time>
      </trkpt>
      <trkpt lat="43.28505" lon="3.51352">
        <ele>19.2</ele>
        <time>2025-06-17T07:42:12Z</time>
      </trkpt>
      <trkpt lat="43.28499" lon="3.51358">
        <ele>19.2</ele>
        <time>2025-06-17T07:42:13Z</time>
      </trkpt>
      <trkpt lat="43.28494" lon="3.51365">
        <ele>19.2</ele>
        <time>2025-06-17T07:42:14Z</time>
      </trkpt>
      <trkpt lat="43.28488" lon="3.5137">
        <ele>19.2</ele>
        <time>2025-06-17T07:42:15Z</time>
      </trkpt>
      <trkpt lat="43.28483" lon="3.51375">
        <ele>19.2</ele>
        <time>2025-06-17T07:42:16Z</time>
      </trkpt>
      <trkpt lat="43.28478" lon="3.5138">
        <ele>19.2</ele>
        <time>2025-06-17T07:42:17Z</time>
      </trkpt>
      <trkpt lat="43.28473" lon="3.51385">
        <ele>19.2</ele>
        <time>2025-06-17T07:42:18Z</time>
      </trkpt>
      <trkpt lat="43.28468" lon="3.5139">
        <ele>19.4</ele>
        <time>2025-06-17T07:42:19Z</time>
      </trkpt>
      <trkpt lat="43.28463" lon="3.51396">
        <ele>19.4</ele>
        <time>2025-06-17T07:42:20Z</time>
      </trkpt>
      <trkpt lat="43.28458" lon="3.51401">
        <ele>19.4</ele>
        <time>2025-06-17T07:42:21Z</time>
      </trkpt>
      <trkpt lat="43.28452" lon="3.51406">
        <ele>19.4</ele>
        <time>2025-06-17T07:42:22Z</time>
      </trkpt>
      <trkpt lat="43.28447" lon="3.51411">
        <ele>19.4</ele>
        <time>2025-06-17T07:42:23Z</time>
      </trkpt>
      <trkpt lat="43.28441" lon="3.51416">
        <ele>19.4</ele>
        <time>2025-06-17T07:42:24Z</time>
      </trkpt>
      <trkpt lat="43.28436" lon="3.51421">
        <ele>19.4</ele>
        <time>2025-06-17T07:42:25Z</time>
      </trkpt>
      <trkpt lat="43.2843" lon="3.51426">
        <ele>19.4</ele>
        <time>2025-06-17T07:42:26Z</time>
      </trkpt>
      <trkpt lat="43.28424" lon="3.51431">
        <ele>19.4</ele>
        <time>2025-06-17T07:42:27Z</time>
      </trkpt>
      <trkpt lat="43.28418" lon="3.51435">
        <ele>19.4</ele>
        <time>2025-06-17T07:42:28Z</time>
      </trkpt>
      <trkpt lat="43.28412" lon="3.51439">
        <ele>19.4</ele>
        <time>2025-06-17T07:42:29Z</time>
      </trkpt>
      <trkpt lat="43.28407" lon="3.51443">
        <ele>19.4</ele>
        <time>2025-06-17T07:42:30Z</time>
      </trkpt>
      <trkpt lat="43.28401" lon="3.51448">
        <ele>19.4</ele>
        <time>2025-06-17T07:42:31Z</time>
      </trkpt>
      <trkpt lat="43.28394" lon="3.51452">
        <ele>19.2</ele>
        <time>2025-06-17T07:42:32Z</time>
      </trkpt>
      <trkpt lat="43.28388" lon="3.51456">
        <ele>19.2</ele>
        <time>2025-06-17T07:42:33Z</time>
      </trkpt>
      <trkpt lat="43.28382" lon="3.51459">
        <ele>19.2</ele>
        <time>2025-06-17T07:42:34Z</time>
      </trkpt>
      <trkpt lat="43.28376" lon="3.51463">
        <ele>19.2</ele>
        <time>2025-06-17T07:42:35Z</time>
      </trkpt>
      <trkpt lat="43.28369" lon="3.51466">
        <ele>19</ele>
        <time>2025-06-17T07:42:36Z</time>
      </trkpt>
      <trkpt lat="43.28364" lon="3.51469">
        <ele>19</ele>
        <time>2025-06-17T07:42:37Z</time>
      </trkpt>
      <trkpt lat="43.28357" lon="3.51473">
        <ele>19</ele>
        <time>2025-06-17T07:42:38Z</time>
      </trkpt>
      <trkpt lat="43.28352" lon="3.51477">
        <ele>19</ele>
        <time>2025-06-17T07:42:39Z</time>
      </trkpt>
      <trkpt lat="43.28345" lon="3.5148">
        <ele>19</ele>
        <time>2025-06-17T07:42:40Z</time>
      </trkpt>
      <trkpt lat="43.28339" lon="3.51483">
        <ele>19</ele>
        <time>2025-06-17T07:42:41Z</time>
      </trkpt>
      <trkpt lat="43.28333" lon="3.51485">
        <ele>19</ele>
        <time>2025-06-17T07:42:42Z</time>
      </trkpt>
      <trkpt lat="43.28327" lon="3.51489">
        <ele>19</ele>
        <time>2025-06-17T07:42:43Z</time>
      </trkpt>
      <trkpt lat="43.28321" lon="3.51492">
        <ele>19.2</ele>
        <time>2025-06-17T07:42:44Z</time>
      </trkpt>
      <trkpt lat="43.28315" lon="3.51495">
        <ele>19.2</ele>
        <time>2025-06-17T07:42:45Z</time>
      </trkpt>
      <trkpt lat="43.28309" lon="3.51498">
        <ele>19.2</ele>
        <time>2025-06-17T07:42:46Z</time>
      </trkpt>
      <trkpt lat="43.28303" lon="3.515">
        <ele>19.2</ele>
        <time>2025-06-17T07:42:47Z</time>
      </trkpt>
      <trkpt lat="43.28297" lon="3.51503">
        <ele>19.2</ele>
        <time>2025-06-17T07:42:48Z</time>
      </trkpt>
      <trkpt lat="43.28291" lon="3.51505">
        <ele>19.2</ele>
        <time>2025-06-17T07:42:49Z</time>
      </trkpt>
      <trkpt lat="43.28285" lon="3.51507">
        <ele>19.2</ele>
        <time>2025-06-17T07:42:50Z</time>
      </trkpt>
      <trkpt lat="43.28278" lon="3.5151">
        <ele>19.2</ele>
        <time>2025-06-17T07:42:51Z</time>
      </trkpt>
      <trkpt lat="43.28272" lon="3.51512">
        <ele>19.2</ele>
        <time>2025-06-17T07:42:52Z</time>
      </trkpt>
      <trkpt lat="43.28265" lon="3.51514">
        <ele>19.2</ele>
        <time>2025-06-17T07:42:53Z</time>
      </trkpt>
      <trkpt lat="43.28259" lon="3.51516">
        <ele>19.2</ele>
        <time>2025-06-17T07:42:54Z</time>
      </trkpt>
      <trkpt lat="43.28253" lon="3.51518">
        <ele>19.2</ele>
        <time>2025-06-17T07:42:55Z</time>
      </trkpt>
      <trkpt lat="43.28246" lon="3.5152">
        <ele>19.2</ele>
        <time>2025-06-17T07:42:56Z</time>
      </trkpt>
      <trkpt lat="43.28241" lon="3.51521">
        <ele>19.2</ele>
        <time>2025-06-17T07:42:57Z</time>
      </trkpt>
      <trkpt lat="43.28234" lon="3.51523">
        <ele>19.2</ele>
        <time>2025-06-17T07:42:58Z</time>
      </trkpt>
      <trkpt lat="43.28229" lon="3.51525">
        <ele>19.2</ele>
        <time>2025-06-17T07:42:59Z</time>
      </trkpt>
      <trkpt lat="43.28224" lon="3.51527">
        <ele>19</ele>
        <time>2025-06-17T07:43:00Z</time>
      </trkpt>
      <trkpt lat="43.28219" lon="3.51529">
        <ele>19</ele>
        <time>2025-06-17T07:43:01Z</time>
      </trkpt>
      <trkpt lat="43.28215" lon="3.51531">
        <ele>19.2</ele>
        <time>2025-06-17T07:43:02Z</time>
      </trkpt>
      <trkpt lat="43.2821" lon="3.51532">
        <ele>19.2</ele>
        <time>2025-06-17T07:43:03Z</time>
      </trkpt>
      <trkpt lat="43.28205" lon="3.51533">
        <ele>19</ele>
        <time>2025-06-17T07:43:04Z</time>
      </trkpt>
      <trkpt lat="43.282" lon="3.51535">
        <ele>19</ele>
        <time>2025-06-17T07:43:05Z</time>
      </trkpt>
      <trkpt lat="43.28194" lon="3.51537">
        <ele>19</ele>
        <time>2025-06-17T07:43:06Z</time>
      </trkpt>
      <trkpt lat="43.28188" lon="3.51539">
        <ele>19</ele>
        <time>2025-06-17T07:43:07Z</time>
      </trkpt>
      <trkpt lat="43.28183" lon="3.51541">
        <ele>19</ele>
        <time>2025-06-17T07:43:08Z</time>
      </trkpt>
      <trkpt lat="43.28177" lon="3.51543">
        <ele>19</ele>
        <time>2025-06-17T07:43:09Z</time>
      </trkpt>
      <trkpt lat="43.28171" lon="3.51546">
        <ele>19</ele>
        <time>2025-06-17T07:43:10Z</time>
      </trkpt>
      <trkpt lat="43.28165" lon="3.51548">
        <ele>18.8</ele>
        <time>2025-06-17T07:43:11Z</time>
      </trkpt>
      <trkpt lat="43.28159" lon="3.51549">
        <ele>18.8</ele>
        <time>2025-06-17T07:43:12Z</time>
      </trkpt>
      <trkpt lat="43.28152" lon="3.51549">
        <ele>18.8</ele>
        <time>2025-06-17T07:43:13Z</time>
      </trkpt>
      <trkpt lat="43.28145" lon="3.51549">
        <ele>19</ele>
        <time>2025-06-17T07:43:14Z</time>
      </trkpt>
      <trkpt lat="43.28139" lon="3.51548">
        <ele>19</ele>
        <time>2025-06-17T07:43:15Z</time>
      </trkpt>
      <trkpt lat="43.28133" lon="3.51547">
        <ele>19</ele>
        <time>2025-06-17T07:43:16Z</time>
      </trkpt>
      <trkpt lat="43.28126" lon="3.51545">
        <ele>18.8</ele>
        <time>2025-06-17T07:43:17Z</time>
      </trkpt>
      <trkpt lat="43.28121" lon="3.51544">
        <ele>18.8</ele>
        <time>2025-06-17T07:43:18Z</time>
      </trkpt>
      <trkpt lat="43.28114" lon="3.51542">
        <ele>18.8</ele>
        <time>2025-06-17T07:43:19Z</time>
      </trkpt>
      <trkpt lat="43.28108" lon="3.51539">
        <ele>18.8</ele>
        <time>2025-06-17T07:43:20Z</time>
      </trkpt>
      <trkpt lat="43.28102" lon="3.51536">
        <ele>18.6</ele>
        <time>2025-06-17T07:43:21Z</time>
      </trkpt>
      <trkpt lat="43.28096" lon="3.51533">
        <ele>18.6</ele>
        <time>2025-06-17T07:43:22Z</time>
      </trkpt>
      <trkpt lat="43.28091" lon="3.5153">
        <ele>18.6</ele>
        <time>2025-06-17T07:43:23Z</time>
      </trkpt>
      <trkpt lat="43.28086" lon="3.51527">
        <ele>18.4</ele>
        <time>2025-06-17T07:43:24Z</time>
      </trkpt>
      <trkpt lat="43.28081" lon="3.51522">
        <ele>18.4</ele>
        <time>2025-06-17T07:43:25Z</time>
      </trkpt>
      <trkpt lat="43.28076" lon="3.51517">
        <ele>18.4</ele>
        <time>2025-06-17T07:43:26Z</time>
      </trkpt>
      <trkpt lat="43.2807" lon="3.51512">
        <ele>18.2</ele>
        <time>2025-06-17T07:43:27Z</time>
      </trkpt>
      <trkpt lat="43.28065" lon="3.51507">
        <ele>18.2</ele>
        <time>2025-06-17T07:43:28Z</time>
      </trkpt>
      <trkpt lat="43.28061" lon="3.51502">
        <ele>18.2</ele>
        <time>2025-06-17T07:43:29Z</time>
      </trkpt>
      <trkpt lat="43.28057" lon="3.51498">
        <ele>18.2</ele>
        <time>2025-06-17T07:43:30Z</time>
      </trkpt>
      <trkpt lat="43.28054" lon="3.51494">
        <ele>18.2</ele>
        <time>2025-06-17T07:43:31Z</time>
      </trkpt>
      <trkpt lat="43.2805" lon="3.51491">
        <ele>18.2</ele>
        <time>2025-06-17T07:43:32Z</time>
      </trkpt>
      <trkpt lat="43.28048" lon="3.51489">
        <ele>18.2</ele>
        <time>2025-06-17T07:43:33Z</time>
      </trkpt>
      <trkpt lat="43.28045" lon="3.51488">
        <ele>18.2</ele>
        <time>2025-06-17T07:43:34Z</time>
      </trkpt>
      <trkpt lat="43.28042" lon="3.51489">
        <ele>18.2</ele>
        <time>2025-06-17T07:43:35Z</time>
      </trkpt>
      <trkpt lat="43.2804" lon="3.51491">
        <ele>18.4</ele>
        <time>2025-06-17T07:43:36Z</time>
      </trkpt>
      <trkpt lat="43.28039" lon="3.51494">
        <ele>18.4</ele>
        <time>2025-06-17T07:43:37Z</time>
      </trkpt>
      <trkpt lat="43.28037" lon="3.51498">
        <ele>18.4</ele>
        <time>2025-06-17T07:43:38Z</time>
      </trkpt>
      <trkpt lat="43.28036" lon="3.51502">
        <ele>18.4</ele>
        <time>2025-06-17T07:43:39Z</time>
      </trkpt>
      <trkpt lat="43.28034" lon="3.51507">
        <ele>18.6</ele>
        <time>2025-06-17T07:43:40Z</time>
      </trkpt>
      <trkpt lat="43.28033" lon="3.51511">
        <ele>18.6</ele>
        <time>2025-06-17T07:43:41Z</time>
      </trkpt>
      <trkpt lat="43.28032" lon="3.51516">
        <ele>18.6</ele>
        <time>2025-06-17T07:43:42Z</time>
      </trkpt>
      <trkpt lat="43.28031" lon="3.51522">
        <ele>18.6</ele>
        <time>2025-06-17T07:43:43Z</time>
      </trkpt>
      <trkpt lat="43.2803" lon="3.51527">
        <ele>18.6</ele>
        <time>2025-06-17T07:43:44Z</time>
      </trkpt>
      <trkpt lat="43.28028" lon="3.51532">
        <ele>18.6</ele>
        <time>2025-06-17T07:43:45Z</time>
      </trkpt>
      <trkpt lat="43.28024" lon="3.51539">
        <ele>18.6</ele>
        <time>2025-06-17T07:43:46Z</time>
      </trkpt>
      <trkpt lat="43.28021" lon="3.51544">
        <ele>18.6</ele>
        <time>2025-06-17T07:43:47Z</time>
      </trkpt>
      <trkpt lat="43.28018" lon="3.51549">
        <ele>18.6</ele>
        <time>2025-06-17T07:43:48Z</time>
      </trkpt>
      <trkpt lat="43.28015" lon="3.51554">
        <ele>18.8</ele>
        <time>2025-06-17T07:43:49Z</time>
      </trkpt>
      <trkpt lat="43.28013" lon="3.5156">
        <ele>18.8</ele>
        <time>2025-06-17T07:43:50Z</time>
      </trkpt>
      <trkpt lat="43.2801" lon="3.51564">
        <ele>18.8</ele>
        <time>2025-06-17T07:43:51Z</time>
      </trkpt>
      <trkpt lat="43.28009" lon="3.51567">
        <ele>19</ele>
        <time>2025-06-17T07:43:52Z</time>
      </trkpt>
      <trkpt lat="43.28006" lon="3.51571">
        <ele>19</ele>
        <time>2025-06-17T07:43:53Z</time>
      </trkpt>
      <trkpt lat="43.28003" lon="3.51572">
        <ele>19</ele>
        <time>2025-06-17T07:43:54Z</time>
      </trkpt>
      <trkpt lat="43.28" lon="3.51571">
        <ele>19</ele>
        <time>2025-06-17T07:43:55Z</time>
      </trkpt>
      <trkpt lat="43.27997" lon="3.51569">
        <ele>19.2</ele>
        <time>2025-06-17T07:43:56Z</time>
      </trkpt>
      <trkpt lat="43.27993" lon="3.51566">
        <ele>19.2</ele>
        <time>2025-06-17T07:43:57Z</time>
      </trkpt>
      <trkpt lat="43.2799" lon="3.51563">
        <ele>19.2</ele>
        <time>2025-06-17T07:43:58Z</time>
      </trkpt>
      <trkpt lat="43.27988" lon="3.51561">
        <ele>19.2</ele>
        <time>2025-06-17T07:43:59Z</time>
      </trkpt>
      <trkpt lat="43.27985" lon="3.51559">
        <ele>19.2</ele>
        <time>2025-06-17T07:44:00Z</time>
      </trkpt>
      <trkpt lat="43.27984" lon="3.51558">
        <ele>19.2</ele>
        <time>2025-06-17T07:44:01Z</time>
      </trkpt>
      <trkpt lat="43.27983" lon="3.51557">
        <ele>19.2</ele>
        <time>2025-06-17T07:44:02Z</time>
      </trkpt>
      <trkpt lat="43.27982" lon="3.51556">
        <ele>19.2</ele>
        <time>2025-06-17T07:44:03Z</time>
      </trkpt>
      <trkpt lat="43.2798" lon="3.51555">
        <ele>19.2</ele>
        <time>2025-06-17T07:44:04Z</time>
      </trkpt>
      <trkpt lat="43.27979" lon="3.51553">
        <ele>19.2</ele>
        <time>2025-06-17T07:44:05Z</time>
      </trkpt>
      <trkpt lat="43.27977" lon="3.5155">
        <ele>19.2</ele>
        <time>2025-06-17T07:44:06Z</time>
      </trkpt>
      <trkpt lat="43.27975" lon="3.51548">
        <ele>19</ele>
        <time>2025-06-17T07:44:07Z</time>
      </trkpt>
      <trkpt lat="43.27973" lon="3.51546">
        <ele>19</ele>
        <time>2025-06-17T07:44:08Z</time>
      </trkpt>
      <trkpt lat="43.27971" lon="3.51543">
        <ele>19</ele>
        <time>2025-06-17T07:44:09Z</time>
      </trkpt>
      <trkpt lat="43.27969" lon="3.5154">
        <ele>19.2</ele>
        <time>2025-06-17T07:44:10Z</time>
      </trkpt>
      <trkpt lat="43.27967" lon="3.51537">
        <ele>19.2</ele>
        <time>2025-06-17T07:44:11Z</time>
      </trkpt>
      <trkpt lat="43.27963" lon="3.51533">
        <ele>19.2</ele>
        <time>2025-06-17T07:44:12Z</time>
      </trkpt>
      <trkpt lat="43.2796" lon="3.5153">
        <ele>19.2</ele>
        <time>2025-06-17T07:44:13Z</time>
      </trkpt>
      <trkpt lat="43.27956" lon="3.51526">
        <ele>19</ele>
        <time>2025-06-17T07:44:14Z</time>
      </trkpt>
      <trkpt lat="43.27951" lon="3.51522">
        <ele>19</ele>
        <time>2025-06-17T07:44:15Z</time>
      </trkpt>
      <trkpt lat="43.27948" lon="3.51518">
        <ele>19</ele>
        <time>2025-06-17T07:44:16Z</time>
      </trkpt>
      <trkpt lat="43.27943" lon="3.51513">
        <ele>19</ele>
        <time>2025-06-17T07:44:17Z</time>
      </trkpt>
      <trkpt lat="43.27939" lon="3.51508">
        <ele>19</ele>
        <time>2025-06-17T07:44:18Z</time>
      </trkpt>
      <trkpt lat="43.27935" lon="3.51503">
        <ele>19</ele>
        <time>2025-06-17T07:44:19Z</time>
      </trkpt>
      <trkpt lat="43.2793" lon="3.51498">
        <ele>19.2</ele>
        <time>2025-06-17T07:44:20Z</time>
      </trkpt>
      <trkpt lat="43.27926" lon="3.51492">
        <ele>19.2</ele>
        <time>2025-06-17T07:44:21Z</time>
      </trkpt>
      <trkpt lat="43.27921" lon="3.51487">
        <ele>19</ele>
        <time>2025-06-17T07:44:22Z</time>
      </trkpt>
      <trkpt lat="43.27916" lon="3.51483">
        <ele>19.2</ele>
        <time>2025-06-17T07:44:23Z</time>
      </trkpt>
      <trkpt lat="43.27912" lon="3.51478">
        <ele>19</ele>
        <time>2025-06-17T07:44:24Z</time>
      </trkpt>
      <trkpt lat="43.27907" lon="3.51473">
        <ele>19</ele>
        <time>2025-06-17T07:44:25Z</time>
      </trkpt>
      <trkpt lat="43.27902" lon="3.51468">
        <ele>19</ele>
        <time>2025-06-17T07:44:26Z</time>
      </trkpt>
      <trkpt lat="43.27898" lon="3.51463">
        <ele>19</ele>
        <time>2025-06-17T07:44:27Z</time>
      </trkpt>
      <trkpt lat="43.27892" lon="3.51458">
        <ele>19</ele>
        <time>2025-06-17T07:44:28Z</time>
      </trkpt>
      <trkpt lat="43.27887" lon="3.51453">
        <ele>19.2</ele>
        <time>2025-06-17T07:44:29Z</time>
      </trkpt>
      <trkpt lat="43.27882" lon="3.51447">
        <ele>19.2</ele>
        <time>2025-06-17T07:44:30Z</time>
      </trkpt>
      <trkpt lat="43.27878" lon="3.51442">
        <ele>19.2</ele>
        <time>2025-06-17T07:44:31Z</time>
      </trkpt>
      <trkpt lat="43.27873" lon="3.51437">
        <ele>19.2</ele>
        <time>2025-06-17T07:44:32Z</time>
      </trkpt>
      <trkpt lat="43.27868" lon="3.51432">
        <ele>19</ele>
        <time>2025-06-17T07:44:33Z</time>
      </trkpt>
      <trkpt lat="43.27863" lon="3.51426">
        <ele>19</ele>
        <time>2025-06-17T07:44:34Z</time>
      </trkpt>
      <trkpt lat="43.27858" lon="3.5142">
        <ele>18.8</ele>
        <time>2025-06-17T07:44:35Z</time>
      </trkpt>
      <trkpt lat="43.27853" lon="3.51415">
        <ele>18.8</ele>
        <time>2025-06-17T07:44:36Z</time>
      </trkpt>
      <trkpt lat="43.27848" lon="3.51409">
        <ele>18.8</ele>
        <time>2025-06-17T07:44:37Z</time>
      </trkpt>
      <trkpt lat="43.27843" lon="3.51403">
        <ele>18.8</ele>
        <time>2025-06-17T07:44:38Z</time>
      </trkpt>
      <trkpt lat="43.27838" lon="3.51398">
        <ele>18.6</ele>
        <time>2025-06-17T07:44:39Z</time>
      </trkpt>
      <trkpt lat="43.27834" lon="3.51392">
        <ele>18.8</ele>
        <time>2025-06-17T07:44:40Z</time>
      </trkpt>
      <trkpt lat="43.27829" lon="3.51385">
        <ele>18.6</ele>
        <time>2025-06-17T07:44:41Z</time>
      </trkpt>
      <trkpt lat="43.27825" lon="3.51379">
        <ele>18.8</ele>
        <time>2025-06-17T07:44:42Z</time>
      </trkpt>
      <trkpt lat="43.2782" lon="3.51373">
        <ele>18.8</ele>
        <time>2025-06-17T07:44:43Z</time>
      </trkpt>
      <trkpt lat="43.27815" lon="3.51367">
        <ele>18.8</ele>
        <time>2025-06-17T07:44:44Z</time>
      </trkpt>
      <trkpt lat="43.2781" lon="3.5136">
        <ele>18.8</ele>
        <time>2025-06-17T07:44:45Z</time>
      </trkpt>
      <trkpt lat="43.27804" lon="3.51354">
        <ele>18.8</ele>
        <time>2025-06-17T07:44:46Z</time>
      </trkpt>
      <trkpt lat="43.27798" lon="3.51349">
        <ele>18.8</ele>
        <time>2025-06-17T07:44:47Z</time>
      </trkpt>
      <trkpt lat="43.27793" lon="3.51343">
        <ele>18.6</ele>
        <time>2025-06-17T07:44:48Z</time>
      </trkpt>
      <trkpt lat="43.27787" lon="3.51338">
        <ele>18.6</ele>
        <time>2025-06-17T07:44:49Z</time>
      </trkpt>
      <trkpt lat="43.27781" lon="3.51332">
        <ele>18.6</ele>
        <time>2025-06-17T07:44:50Z</time>
      </trkpt>
      <trkpt lat="43.27775" lon="3.51327">
        <ele>18.6</ele>
        <time>2025-06-17T07:44:51Z</time>
      </trkpt>
      <trkpt lat="43.2777" lon="3.51322">
        <ele>18.6</ele>
        <time>2025-06-17T07:44:52Z</time>
      </trkpt>
      <trkpt lat="43.27764" lon="3.51317">
        <ele>18.6</ele>
        <time>2025-06-17T07:44:53Z</time>
      </trkpt>
      <trkpt lat="43.27759" lon="3.51311">
        <ele>18.6</ele>
        <time>2025-06-17T07:44:54Z</time>
      </trkpt>
      <trkpt lat="43.27754" lon="3.51305">
        <ele>18.6</ele>
        <time>2025-06-17T07:44:55Z</time>
      </trkpt>
      <trkpt lat="43.27748" lon="3.51299">
        <ele>18.6</ele>
        <time>2025-06-17T07:44:56Z</time>
      </trkpt>
      <trkpt lat="43.27743" lon="3.51293">
        <ele>18.6</ele>
        <time>2025-06-17T07:44:57Z</time>
      </trkpt>
      <trkpt lat="43.27738" lon="3.51287">
        <ele>18.6</ele>
        <time>2025-06-17T07:44:58Z</time>
      </trkpt>
      <trkpt lat="43.27732" lon="3.51281">
        <ele>18.6</ele>
        <time>2025-06-17T07:44:59Z</time>
      </trkpt>
      <trkpt lat="43.27727" lon="3.51275">
        <ele>18.6</ele>
        <time>2025-06-17T07:45:00Z</time>
      </trkpt>
      <trkpt lat="43.27722" lon="3.51269">
        <ele>18.6</ele>
        <time>2025-06-17T07:45:01Z</time>
      </trkpt>
      <trkpt lat="43.27717" lon="3.51264">
        <ele>18.6</ele>
        <time>2025-06-17T07:45:02Z</time>
      </trkpt>
      <trkpt lat="43.27711" lon="3.51258">
        <ele>18.6</ele>
        <time>2025-06-17T07:45:03Z</time>
      </trkpt>
      <trkpt lat="43.27706" lon="3.51252">
        <ele>18.4</ele>
        <time>2025-06-17T07:45:04Z</time>
      </trkpt>
      <trkpt lat="43.277" lon="3.51246">
        <ele>18.4</ele>
        <time>2025-06-17T07:45:05Z</time>
      </trkpt>
      <trkpt lat="43.27695" lon="3.51241">
        <ele>18.4</ele>
        <time>2025-06-17T07:45:06Z</time>
      </trkpt>
      <trkpt lat="43.27689" lon="3.51235">
        <ele>18.4</ele>
        <time>2025-06-17T07:45:07Z</time>
      </trkpt>
      <trkpt lat="43.27684" lon="3.5123">
        <ele>18.4</ele>
        <time>2025-06-17T07:45:08Z</time>
      </trkpt>
      <trkpt lat="43.27678" lon="3.51226">
        <ele>18.6</ele>
        <time>2025-06-17T07:45:09Z</time>
      </trkpt>
      <trkpt lat="43.27672" lon="3.51222">
        <ele>18.6</ele>
        <time>2025-06-17T07:45:10Z</time>
      </trkpt>
      <trkpt lat="43.27666" lon="3.51218">
        <ele>18.6</ele>
        <time>2025-06-17T07:45:11Z</time>
      </trkpt>
      <trkpt lat="43.2766" lon="3.51214">
        <ele>18.8</ele>
        <time>2025-06-17T07:45:12Z</time>
      </trkpt>
      <trkpt lat="43.27654" lon="3.51211">
        <ele>18.8</ele>
        <time>2025-06-17T07:45:13Z</time>
      </trkpt>
      <trkpt lat="43.27648" lon="3.51207">
        <ele>18.8</ele>
        <time>2025-06-17T07:45:14Z</time>
      </trkpt>
      <trkpt lat="43.27642" lon="3.51204">
        <ele>18.6</ele>
        <time>2025-06-17T07:45:15Z</time>
      </trkpt>
      <trkpt lat="43.27636" lon="3.51201">
        <ele>18.6</ele>
        <time>2025-06-17T07:45:16Z</time>
      </trkpt>
      <trkpt lat="43.2763" lon="3.51199">
        <ele>18.6</ele>
        <time>2025-06-17T07:45:17Z</time>
      </trkpt>
      <trkpt lat="43.27624" lon="3.51196">
        <ele>18.6</ele>
        <time>2025-06-17T07:45:18Z</time>
      </trkpt>
      <trkpt lat="43.27618" lon="3.51193">
        <ele>18.6</ele>
        <time>2025-06-17T07:45:19Z</time>
      </trkpt>
      <trkpt lat="43.27611" lon="3.51191">
        <ele>18.6</ele>
        <time>2025-06-17T07:45:20Z</time>
      </trkpt>
      <trkpt lat="43.27605" lon="3.51188">
        <ele>18.8</ele>
        <time>2025-06-17T07:45:21Z</time>
      </trkpt>
      <trkpt lat="43.27599" lon="3.51186">
        <ele>18.8</ele>
        <time>2025-06-17T07:45:22Z</time>
      </trkpt>
      <trkpt lat="43.27593" lon="3.51183">
        <ele>18.8</ele>
        <time>2025-06-17T07:45:23Z</time>
      </trkpt>
      <trkpt lat="43.27587" lon="3.51181">
        <ele>18.8</ele>
        <time>2025-06-17T07:45:24Z</time>
      </trkpt>
      <trkpt lat="43.27581" lon="3.51179">
        <ele>18.8</ele>
        <time>2025-06-17T07:45:25Z</time>
      </trkpt>
      <trkpt lat="43.27575" lon="3.51177">
        <ele>19</ele>
        <time>2025-06-17T07:45:26Z</time>
      </trkpt>
      <trkpt lat="43.2757" lon="3.51175">
        <ele>19</ele>
        <time>2025-06-17T07:45:27Z</time>
      </trkpt>
      <trkpt lat="43.27565" lon="3.51172">
        <ele>19.2</ele>
        <time>2025-06-17T07:45:28Z</time>
      </trkpt>
      <trkpt lat="43.2756" lon="3.5117">
        <ele>19.2</ele>
        <time>2025-06-17T07:45:29Z</time>
      </trkpt>
      <trkpt lat="43.27556" lon="3.51168">
        <ele>19.4</ele>
        <time>2025-06-17T07:45:30Z</time>
      </trkpt>
      <trkpt lat="43.2755" lon="3.51166">
        <ele>19.4</ele>
        <time>2025-06-17T07:45:31Z</time>
      </trkpt>
      <trkpt lat="43.27544" lon="3.51164">
        <ele>19.4</ele>
        <time>2025-06-17T07:45:32Z</time>
      </trkpt>
      <trkpt lat="43.27538" lon="3.51162">
        <ele>19.2</ele>
        <time>2025-06-17T07:45:33Z</time>
      </trkpt>
      <trkpt lat="43.27533" lon="3.5116">
        <ele>19.2</ele>
        <time>2025-06-17T07:45:34Z</time>
      </trkpt>
      <trkpt lat="43.27527" lon="3.51159">
        <ele>19.2</ele>
        <time>2025-06-17T07:45:35Z</time>
      </trkpt>
      <trkpt lat="43.27521" lon="3.51158">
        <ele>19.2</ele>
        <time>2025-06-17T07:45:36Z</time>
      </trkpt>
      <trkpt lat="43.27515" lon="3.51157">
        <ele>19</ele>
        <time>2025-06-17T07:45:37Z</time>
      </trkpt>
      <trkpt lat="43.27509" lon="3.51156">
        <ele>19</ele>
        <time>2025-06-17T07:45:38Z</time>
      </trkpt>
      <trkpt lat="43.27504" lon="3.51154">
        <ele>19</ele>
        <time>2025-06-17T07:45:39Z</time>
      </trkpt>
      <trkpt lat="43.27498" lon="3.51152">
        <ele>19</ele>
        <time>2025-06-17T07:45:40Z</time>
      </trkpt>
      <trkpt lat="43.27493" lon="3.51149">
        <ele>18.8</ele>
        <time>2025-06-17T07:45:41Z</time>
      </trkpt>
      <trkpt lat="43.27488" lon="3.51146">
        <ele>18.8</ele>
        <time>2025-06-17T07:45:42Z</time>
      </trkpt>
      <trkpt lat="43.27483" lon="3.51142">
        <ele>18.8</ele>
        <time>2025-06-17T07:45:43Z</time>
      </trkpt>
      <trkpt lat="43.27478" lon="3.51138">
        <ele>18.8</ele>
        <time>2025-06-17T07:45:44Z</time>
      </trkpt>
      <trkpt lat="43.27474" lon="3.51136">
        <ele>18.8</ele>
        <time>2025-06-17T07:45:45Z</time>
      </trkpt>
      <trkpt lat="43.2747" lon="3.51133">
        <ele>18.6</ele>
        <time>2025-06-17T07:45:46Z</time>
      </trkpt>
      <trkpt lat="43.27468" lon="3.5113">
        <ele>18.6</ele>
        <time>2025-06-17T07:45:47Z</time>
      </trkpt>
      <trkpt lat="43.27466" lon="3.51128">
        <ele>18.6</ele>
        <time>2025-06-17T07:45:48Z</time>
      </trkpt>
      <trkpt lat="43.27465" lon="3.51125">
        <ele>18.6</ele>
        <time>2025-06-17T07:45:49Z</time>
      </trkpt>
      <trkpt lat="43.27466" lon="3.51121">
        <ele>18.6</ele>
        <time>2025-06-17T07:45:50Z</time>
      </trkpt>
      <trkpt lat="43.27468" lon="3.51117">
        <ele>18.4</ele>
        <time>2025-06-17T07:45:51Z</time>
      </trkpt>
      <trkpt lat="43.2747" lon="3.51113">
        <ele>18.2</ele>
        <time>2025-06-17T07:45:52Z</time>
      </trkpt>
      <trkpt lat="43.27473" lon="3.51108">
        <ele>18.2</ele>
        <time>2025-06-17T07:45:53Z</time>
      </trkpt>
      <trkpt lat="43.27477" lon="3.51103">
        <ele>18.2</ele>
        <time>2025-06-17T07:45:54Z</time>
      </trkpt>
      <trkpt lat="43.2748" lon="3.51098">
        <ele>18</ele>
        <time>2025-06-17T07:45:55Z</time>
      </trkpt>
      <trkpt lat="43.27483" lon="3.51093">
        <ele>18</ele>
        <time>2025-06-17T07:45:56Z</time>
      </trkpt>
      <trkpt lat="43.27486" lon="3.51088">
        <ele>18</ele>
        <time>2025-06-17T07:45:57Z</time>
      </trkpt>
      <trkpt lat="43.27489" lon="3.51083">
        <ele>18</ele>
        <time>2025-06-17T07:45:58Z</time>
      </trkpt>
      <trkpt lat="43.27492" lon="3.51078">
        <ele>17.8</ele>
        <time>2025-06-17T07:45:59Z</time>
      </trkpt>
      <trkpt lat="43.27496" lon="3.51072">
        <ele>17.8</ele>
        <time>2025-06-17T07:46:00Z</time>
      </trkpt>
      <trkpt lat="43.27499" lon="3.51067">
        <ele>17.8</ele>
        <time>2025-06-17T07:46:01Z</time>
      </trkpt>
      <trkpt lat="43.27503" lon="3.51061">
        <ele>17.8</ele>
        <time>2025-06-17T07:46:02Z</time>
      </trkpt>
      <trkpt lat="43.27506" lon="3.51055">
        <ele>17.8</ele>
        <time>2025-06-17T07:46:03Z</time>
      </trkpt>
      <trkpt lat="43.27509" lon="3.5105">
        <ele>17.8</ele>
        <time>2025-06-17T07:46:04Z</time>
      </trkpt>
      <trkpt lat="43.27512" lon="3.51046">
        <ele>17.8</ele>
        <time>2025-06-17T07:46:05Z</time>
      </trkpt>
      <trkpt lat="43.27515" lon="3.51043">
        <ele>17.8</ele>
        <time>2025-06-17T07:46:06Z</time>
      </trkpt>
      <trkpt lat="43.27517" lon="3.51042">
        <ele>17.8</ele>
        <time>2025-06-17T07:46:07Z</time>
      </trkpt>
      <trkpt lat="43.2752" lon="3.51039">
        <ele>17.8</ele>
        <time>2025-06-17T07:46:08Z</time>
      </trkpt>
      <trkpt lat="43.27523" lon="3.51037">
        <ele>17.8</ele>
        <time>2025-06-17T07:46:09Z</time>
      </trkpt>
      <trkpt lat="43.27525" lon="3.51033">
        <ele>17.8</ele>
        <time>2025-06-17T07:46:10Z</time>
      </trkpt>
      <trkpt lat="43.27527" lon="3.51031">
        <ele>18</ele>
        <time>2025-06-17T07:46:11Z</time>
      </trkpt>
      <trkpt lat="43.2753" lon="3.51028">
        <ele>18</ele>
        <time>2025-06-17T07:46:12Z</time>
      </trkpt>
      <trkpt lat="43.27532" lon="3.51024">
        <ele>18</ele>
        <time>2025-06-17T07:46:13Z</time>
      </trkpt>
      <trkpt lat="43.27534" lon="3.51021">
        <ele>18</ele>
        <time>2025-06-17T07:46:14Z</time>
      </trkpt>
      <trkpt lat="43.27537" lon="3.51018">
        <ele>18</ele>
        <time>2025-06-17T07:46:15Z</time>
      </trkpt>
      <trkpt lat="43.2754" lon="3.51015">
        <ele>18</ele>
        <time>2025-06-17T07:46:16Z</time>
      </trkpt>
      <trkpt lat="43.27542" lon="3.51012">
        <ele>18</ele>
        <time>2025-06-17T07:46:17Z</time>
      </trkpt>
      <trkpt lat="43.27545" lon="3.51009">
        <ele>18</ele>
        <time>2025-06-17T07:46:18Z</time>
      </trkpt>
      <trkpt lat="43.27546" lon="3.51006">
        <ele>18</ele>
        <time>2025-06-17T07:46:19Z</time>
      </trkpt>
      <trkpt lat="43.27549" lon="3.51004">
        <ele>18</ele>
        <time>2025-06-17T07:46:20Z</time>
      </trkpt>
      <trkpt lat="43.27552" lon="3.51004">
        <ele>18</ele>
        <time>2025-06-17T07:46:21Z</time>
      </trkpt>
      <trkpt lat="43.27555" lon="3.51004">
        <ele>18</ele>
        <time>2025-06-17T07:46:22Z</time>
      </trkpt>
      <trkpt lat="43.27559" lon="3.51006">
        <ele>17.8</ele>
        <time>2025-06-17T07:46:23Z</time>
      </trkpt>
      <trkpt lat="43.27563" lon="3.51009">
        <ele>17.8</ele>
        <time>2025-06-17T07:46:24Z</time>
      </trkpt>
      <trkpt lat="43.27566" lon="3.51012">
        <ele>17.8</ele>
        <time>2025-06-17T07:46:25Z</time>
      </trkpt>
      <trkpt lat="43.2757" lon="3.51016">
        <ele>17.6</ele>
        <time>2025-06-17T07:46:26Z</time>
      </trkpt>
      <trkpt lat="43.27573" lon="3.5102">
        <ele>17.6</ele>
        <time>2025-06-17T07:46:27Z</time>
      </trkpt>
      <trkpt lat="43.27578" lon="3.51024">
        <ele>17.6</ele>
        <time>2025-06-17T07:46:28Z</time>
      </trkpt>
      <trkpt lat="43.27581" lon="3.51027">
        <ele>17.6</ele>
        <time>2025-06-17T07:46:29Z</time>
      </trkpt>
      <trkpt lat="43.27585" lon="3.51031">
        <ele>17.6</ele>
        <time>2025-06-17T07:46:30Z</time>
      </trkpt>
      <trkpt lat="43.27589" lon="3.51035">
        <ele>17.6</ele>
        <time>2025-06-17T07:46:31Z</time>
      </trkpt>
      <trkpt lat="43.27593" lon="3.51038">
        <ele>17.6</ele>
        <time>2025-06-17T07:46:32Z</time>
      </trkpt>
      <trkpt lat="43.27598" lon="3.51042">
        <ele>17.6</ele>
        <time>2025-06-17T07:46:33Z</time>
      </trkpt>
      <trkpt lat="43.27601" lon="3.51045">
        <ele>17.6</ele>
        <time>2025-06-17T07:46:34Z</time>
      </trkpt>
      <trkpt lat="43.27607" lon="3.51049">
        <ele>17.6</ele>
        <time>2025-06-17T07:46:35Z</time>
      </trkpt>
      <trkpt lat="43.2761" lon="3.51053">
        <ele>17.6</ele>
        <time>2025-06-17T07:46:36Z</time>
      </trkpt>
      <trkpt lat="43.27615" lon="3.51056">
        <ele>17.6</ele>
        <time>2025-06-17T07:46:37Z</time>
      </trkpt>
      <trkpt lat="43.27619" lon="3.5106">
        <ele>17.4</ele>
        <time>2025-06-17T07:46:38Z</time>
      </trkpt>
      <trkpt lat="43.27623" lon="3.51064">
        <ele>17.4</ele>
        <time>2025-06-17T07:46:39Z</time>
      </trkpt>
      <trkpt lat="43.27628" lon="3.51067">
        <ele>17.4</ele>
        <time>2025-06-17T07:46:40Z</time>
      </trkpt>
      <trkpt lat="43.27632" lon="3.51071">
        <ele>17.4</ele>
        <time>2025-06-17T07:46:41Z</time>
      </trkpt>
      <trkpt lat="43.27635" lon="3.51074">
        <ele>17.4</ele>
        <time>2025-06-17T07:46:42Z</time>
      </trkpt>
      <trkpt lat="43.27639" lon="3.51077">
        <ele>17.6</ele>
        <time>2025-06-17T07:46:43Z</time>
      </trkpt>
      <trkpt lat="43.27642" lon="3.51078">
        <ele>17.6</ele>
        <time>2025-06-17T07:46:44Z</time>
      </trkpt>
      <trkpt lat="43.27645" lon="3.5108">
        <ele>17.6</ele>
        <time>2025-06-17T07:46:45Z</time>
      </trkpt>
      <trkpt lat="43.27647" lon="3.51081">
        <ele>17.6</ele>
        <time>2025-06-17T07:46:46Z</time>
      </trkpt>
      <trkpt lat="43.27649" lon="3.51081">
        <ele>17.6</ele>
        <time>2025-06-17T07:46:47Z</time>
      </trkpt>
      <trkpt lat="43.27651" lon="3.51082">
        <ele>17.6</ele>
        <time>2025-06-17T07:46:48Z</time>
      </trkpt>
      <trkpt lat="43.27652" lon="3.51083">
        <ele>17.6</ele>
        <time>2025-06-17T07:46:49Z</time>
      </trkpt>
      <trkpt lat="43.27652" lon="3.51085">
        <ele>17.6</ele>
        <time>2025-06-17T07:46:50Z</time>
      </trkpt>
      <trkpt lat="43.27654" lon="3.51085">
        <ele>17.6</ele>
        <time>2025-06-17T07:46:51Z</time>
      </trkpt>
      <trkpt lat="43.27656" lon="3.51086">
        <ele>17.6</ele>
        <time>2025-06-17T07:46:52Z</time>
      </trkpt>
      <trkpt lat="43.27658" lon="3.51087">
        <ele>17.6</ele>
        <time>2025-06-17T07:46:53Z</time>
      </trkpt>
      <trkpt lat="43.2766" lon="3.51089">
        <ele>17.6</ele>
        <time>2025-06-17T07:46:54Z</time>
      </trkpt>
      <trkpt lat="43.27663" lon="3.51092">
        <ele>17.6</ele>
        <time>2025-06-17T07:46:55Z</time>
      </trkpt>
      <trkpt lat="43.27666" lon="3.51095">
        <ele>17.6</ele>
        <time>2025-06-17T07:46:56Z</time>
      </trkpt>
      <trkpt lat="43.27668" lon="3.51097">
        <ele>17.6</ele>
        <time>2025-06-17T07:46:57Z</time>
      </trkpt>
      <trkpt lat="43.27673" lon="3.511">
        <ele>17.6</ele>
        <time>2025-06-17T07:46:58Z</time>
      </trkpt>
      <trkpt lat="43.27676" lon="3.51102">
        <ele>17.6</ele>
        <time>2025-06-17T07:46:59Z</time>
      </trkpt>
      <trkpt lat="43.27681" lon="3.51104">
        <ele>17.4</ele>
        <time>2025-06-17T07:47:00Z</time>
      </trkpt>
      <trkpt lat="43.27686" lon="3.51106">
        <ele>17.4</ele>
        <time>2025-06-17T07:47:01Z</time>
      </trkpt>
      <trkpt lat="43.2769" lon="3.51109">
        <ele>17.4</ele>
        <time>2025-06-17T07:47:02Z</time>
      </trkpt>
      <trkpt lat="43.27694" lon="3.51111">
        <ele>17.4</ele>
        <time>2025-06-17T07:47:03Z</time>
      </trkpt>
      <trkpt lat="43.27698" lon="3.51113">
        <ele>17.4</ele>
        <time>2025-06-17T07:47:04Z</time>
      </trkpt>
      <trkpt lat="43.27702" lon="3.51115">
        <ele>17.4</ele>
        <time>2025-06-17T07:47:05Z</time>
      </trkpt>
      <trkpt lat="43.27706" lon="3.51117">
        <ele>17.4</ele>
        <time>2025-06-17T07:47:06Z</time>
      </trkpt>
      <trkpt lat="43.2771" lon="3.51118">
        <ele>17.4</ele>
        <time>2025-06-17T07:47:07Z</time>
      </trkpt>
      <trkpt lat="43.27714" lon="3.5112">
        <ele>17.4</ele>
        <time>2025-06-17T07:47:08Z</time>
      </trkpt>
      <trkpt lat="43.27717" lon="3.51121">
        <ele>17.4</ele>
        <time>2025-06-17T07:47:09Z</time>
      </trkpt>
      <trkpt lat="43.27722" lon="3.51123">
        <ele>17.4</ele>
        <time>2025-06-17T07:47:10Z</time>
      </trkpt>
      <trkpt lat="43.27726" lon="3.51124">
        <ele>17.4</ele>
        <time>2025-06-17T07:47:11Z</time>
      </trkpt>
      <trkpt lat="43.27729" lon="3.51123">
        <ele>17.6</ele>
        <time>2025-06-17T07:47:12Z</time>
      </trkpt>
      <trkpt lat="43.27733" lon="3.51123">
        <ele>17.6</ele>
        <time>2025-06-17T07:47:13Z</time>
      </trkpt>
      <trkpt lat="43.27737" lon="3.51124">
        <ele>17.6</ele>
        <time>2025-06-17T07:47:14Z</time>
      </trkpt>
      <trkpt lat="43.2774" lon="3.51125">
        <ele>17.6</ele>
        <time>2025-06-17T07:47:15Z</time>
      </trkpt>
      <trkpt lat="43.27743" lon="3.51128">
        <ele>17.6</ele>
        <time>2025-06-17T07:47:16Z</time>
      </trkpt>
      <trkpt lat="43.27745" lon="3.5113">
        <ele>17.6</ele>
        <time>2025-06-17T07:47:17Z</time>
      </trkpt>
      <trkpt lat="43.27748" lon="3.51133">
        <ele>17.6</ele>
        <time>2025-06-17T07:47:18Z</time>
      </trkpt>
      <trkpt lat="43.2775" lon="3.51135">
        <ele>17.6</ele>
        <time>2025-06-17T07:47:19Z</time>
      </trkpt>
      <trkpt lat="43.27754" lon="3.51137">
        <ele>17.6</ele>
        <time>2025-06-17T07:47:20Z</time>
      </trkpt>
      <trkpt lat="43.27758" lon="3.51138">
        <ele>17.6</ele>
        <time>2025-06-17T07:47:21Z</time>
      </trkpt>
      <trkpt lat="43.27763" lon="3.51139">
        <ele>17.6</ele>
        <time>2025-06-17T07:47:22Z</time>
      </trkpt>
      <trkpt lat="43.27767" lon="3.5114">
        <ele>17.6</ele>
        <time>2025-06-17T07:47:23Z</time>
      </trkpt>
      <trkpt lat="43.27771" lon="3.51141">
        <ele>17.6</ele>
        <time>2025-06-17T07:47:24Z</time>
      </trkpt>
      <trkpt lat="43.27776" lon="3.51143">
        <ele>17.6</ele>
        <time>2025-06-17T07:47:25Z</time>
      </trkpt>
      <trkpt lat="43.27781" lon="3.51145">
        <ele>17.6</ele>
        <time>2025-06-17T07:47:26Z</time>
      </trkpt>
      <trkpt lat="43.27785" lon="3.51146">
        <ele>17.6</ele>
        <time>2025-06-17T07:47:27Z</time>
      </trkpt>
      <trkpt lat="43.2779" lon="3.51147">
        <ele>17.6</ele>
        <time>2025-06-17T07:47:28Z</time>
      </trkpt>
      <trkpt lat="43.27795" lon="3.51149">
        <ele>17.6</ele>
        <time>2025-06-17T07:47:29Z</time>
      </trkpt>
      <trkpt lat="43.27799" lon="3.5115">
        <ele>17.6</ele>
        <time>2025-06-17T07:47:30Z</time>
      </trkpt>
      <trkpt lat="43.27802" lon="3.51153">
        <ele>17.6</ele>
        <time>2025-06-17T07:47:31Z</time>
      </trkpt>
      <trkpt lat="43.27803" lon="3.51155">
        <ele>17.6</ele>
        <time>2025-06-17T07:47:32Z</time>
      </trkpt>
      <trkpt lat="43.27804" lon="3.51158">
        <ele>17.8</ele>
        <time>2025-06-17T07:47:33Z</time>
      </trkpt>
      <trkpt lat="43.27805" lon="3.51162">
        <ele>17.8</ele>
        <time>2025-06-17T07:47:34Z</time>
      </trkpt>
      <trkpt lat="43.27804" lon="3.51167">
        <ele>17.8</ele>
        <time>2025-06-17T07:47:35Z</time>
      </trkpt>
      <trkpt lat="43.27803" lon="3.51172">
        <ele>17.8</ele>
        <time>2025-06-17T07:47:36Z</time>
      </trkpt>
      <trkpt lat="43.27802" lon="3.51178">
        <ele>17.8</ele>
        <time>2025-06-17T07:47:37Z</time>
      </trkpt>
      <trkpt lat="43.27801" lon="3.51183">
        <ele>17.8</ele>
        <time>2025-06-17T07:47:38Z</time>
      </trkpt>
      <trkpt lat="43.278" lon="3.51188">
        <ele>17.8</ele>
        <time>2025-06-17T07:47:39Z</time>
      </trkpt>
      <trkpt lat="43.27798" lon="3.51193">
        <ele>18</ele>
        <time>2025-06-17T07:47:40Z</time>
      </trkpt>
      <trkpt lat="43.27797" lon="3.51198">
        <ele>18</ele>
        <time>2025-06-17T07:47:41Z</time>
      </trkpt>
      <trkpt lat="43.27797" lon="3.51203">
        <ele>18</ele>
        <time>2025-06-17T07:47:42Z</time>
      </trkpt>
      <trkpt lat="43.27796" lon="3.51208">
        <ele>18</ele>
        <time>2025-06-17T07:47:43Z</time>
      </trkpt>
      <trkpt lat="43.27796" lon="3.51211">
        <ele>18.2</ele>
        <time>2025-06-17T07:47:44Z</time>
      </trkpt>
      <trkpt lat="43.27795" lon="3.51217">
        <ele>18.2</ele>
        <time>2025-06-17T07:47:45Z</time>
      </trkpt>
      <trkpt lat="43.27793" lon="3.51222">
        <ele>18.2</ele>
        <time>2025-06-17T07:47:46Z</time>
      </trkpt>
      <trkpt lat="43.27793" lon="3.51227">
        <ele>18.2</ele>
        <time>2025-06-17T07:47:47Z</time>
      </trkpt>
      <trkpt lat="43.27792" lon="3.51232">
        <ele>18.4</ele>
        <time>2025-06-17T07:47:48Z</time>
      </trkpt>
      <trkpt lat="43.27791" lon="3.51238">
        <ele>18.4</ele>
        <time>2025-06-17T07:47:49Z</time>
      </trkpt>
      <trkpt lat="43.27789" lon="3.51243">
        <ele>18.4</ele>
        <time>2025-06-17T07:47:50Z</time>
      </trkpt>
      <trkpt lat="43.27787" lon="3.51249">
        <ele>18.4</ele>
        <time>2025-06-17T07:47:51Z</time>
      </trkpt>
      <trkpt lat="43.27785" lon="3.51253">
        <ele>18.4</ele>
        <time>2025-06-17T07:47:52Z</time>
      </trkpt>
      <trkpt lat="43.27782" lon="3.51258">
        <ele>18.6</ele>
        <time>2025-06-17T07:47:53Z</time>
      </trkpt>
      <trkpt lat="43.27779" lon="3.51263">
        <ele>18.6</ele>
        <time>2025-06-17T07:47:54Z</time>
      </trkpt>
      <trkpt lat="43.27776" lon="3.51268">
        <ele>18.6</ele>
        <time>2025-06-17T07:47:55Z</time>
      </trkpt>
      <trkpt lat="43.27773" lon="3.51272">
        <ele>18.6</ele>
        <time>2025-06-17T07:47:56Z</time>
      </trkpt>
      <trkpt lat="43.27771" lon="3.51276">
        <ele>18.6</ele>
        <time>2025-06-17T07:47:57Z</time>
      </trkpt>
      <trkpt lat="43.27769" lon="3.5128">
        <ele>18.6</ele>
        <time>2025-06-17T07:47:58Z</time>
      </trkpt>
      <trkpt lat="43.27766" lon="3.51284">
        <ele>18.6</ele>
        <time>2025-06-17T07:47:59Z</time>
      </trkpt>
      <trkpt lat="43.27764" lon="3.51288">
        <ele>18.6</ele>
        <time>2025-06-17T07:48:00Z</time>
      </trkpt>
      <trkpt lat="43.27763" lon="3.51291">
        <ele>18.6</ele>
        <time>2025-06-17T07:48:01Z</time>
      </trkpt>
      <trkpt lat="43.27761" lon="3.51295">
        <ele>18.6</ele>
        <time>2025-06-17T07:48:02Z</time>
      </trkpt>
      <trkpt lat="43.2776" lon="3.51298">
        <ele>18.6</ele>
        <time>2025-06-17T07:48:03Z</time>
      </trkpt>
      <trkpt lat="43.27759" lon="3.51299">
        <ele>18.8</ele>
        <time>2025-06-17T07:48:04Z</time>
      </trkpt>
      <trkpt lat="43.27758" lon="3.513">
        <ele>18.8</ele>
        <time>2025-06-17T07:48:05Z</time>
      </trkpt>
      <trkpt lat="43.27758" lon="3.51301">
        <ele>18.8</ele>
        <time>2025-06-17T07:48:06Z</time>
      </trkpt>
      <trkpt lat="43.27754" lon="3.51301">
        <ele>18.8</ele>
        <time>2025-06-17T07:48:55Z</time>
      </trkpt>
      <trkpt lat="43.27752" lon="3.51299">
        <ele>18.8</ele>
        <time>2025-06-17T07:48:56Z</time>
      </trkpt>
      <trkpt lat="43.27751" lon="3.51296">
        <ele>18.8</ele>
        <time>2025-06-17T07:48:57Z</time>
      </trkpt>
      <trkpt lat="43.27748" lon="3.51294">
        <ele>18.8</ele>
        <time>2025-06-17T07:48:58Z</time>
      </trkpt>
      <trkpt lat="43.27746" lon="3.51291">
        <ele>18.8</ele>
        <time>2025-06-17T07:48:59Z</time>
      </trkpt>
      <trkpt lat="43.27743" lon="3.51288">
        <ele>18.8</ele>
        <time>2025-06-17T07:49:00Z</time>
      </trkpt>
      <trkpt lat="43.2774" lon="3.51285">
        <ele>18.6</ele>
        <time>2025-06-17T07:49:01Z</time>
      </trkpt>
      <trkpt lat="43.27737" lon="3.51282">
        <ele>18.6</ele>
        <time>2025-06-17T07:49:02Z</time>
      </trkpt>
      <trkpt lat="43.27735" lon="3.51278">
        <ele>18.6</ele>
        <time>2025-06-17T07:49:03Z</time>
      </trkpt>
      <trkpt lat="43.27731" lon="3.51274">
        <ele>18.6</ele>
        <time>2025-06-17T07:49:04Z</time>
      </trkpt>
      <trkpt lat="43.27728" lon="3.5127">
        <ele>18.6</ele>
        <time>2025-06-17T07:49:05Z</time>
      </trkpt>
      <trkpt lat="43.27725" lon="3.51266">
        <ele>18.6</ele>
        <time>2025-06-17T07:49:06Z</time>
      </trkpt>
      <trkpt lat="43.27721" lon="3.51262">
        <ele>18.6</ele>
        <time>2025-06-17T07:49:07Z</time>
      </trkpt>
      <trkpt lat="43.27718" lon="3.51258">
        <ele>18.6</ele>
        <time>2025-06-17T07:49:08Z</time>
      </trkpt>
      <trkpt lat="43.27714" lon="3.51253">
        <ele>18.6</ele>
        <time>2025-06-17T07:49:09Z</time>
      </trkpt>
      <trkpt lat="43.2771" lon="3.51249">
        <ele>18.6</ele>
        <time>2025-06-17T07:49:10Z</time>
      </trkpt>
      <trkpt lat="43.27706" lon="3.51245">
        <ele>18.6</ele>
        <time>2025-06-17T07:49:11Z</time>
      </trkpt>
      <trkpt lat="43.27702" lon="3.51241">
        <ele>18.6</ele>
        <time>2025-06-17T07:49:12Z</time>
      </trkpt>
      <trkpt lat="43.27697" lon="3.51237">
        <ele>18.6</ele>
        <time>2025-06-17T07:49:13Z</time>
      </trkpt>
      <trkpt lat="43.27692" lon="3.51234">
        <ele>18.4</ele>
        <time>2025-06-17T07:49:14Z</time>
      </trkpt>
      <trkpt lat="43.27687" lon="3.5123">
        <ele>18.4</ele>
        <time>2025-06-17T07:49:15Z</time>
      </trkpt>
      <trkpt lat="43.27682" lon="3.51226">
        <ele>18.6</ele>
        <time>2025-06-17T07:49:16Z</time>
      </trkpt>
      <trkpt lat="43.27677" lon="3.51223">
        <ele>18.6</ele>
        <time>2025-06-17T07:49:17Z</time>
      </trkpt>
      <trkpt lat="43.27672" lon="3.51219">
        <ele>18.6</ele>
        <time>2025-06-17T07:49:18Z</time>
      </trkpt>
      <trkpt lat="43.27667" lon="3.51216">
        <ele>18.6</ele>
        <time>2025-06-17T07:49:19Z</time>
      </trkpt>
      <trkpt lat="43.27662" lon="3.51213">
        <ele>18.6</ele>
        <time>2025-06-17T07:49:20Z</time>
      </trkpt>
      <trkpt lat="43.27657" lon="3.5121">
        <ele>18.8</ele>
        <time>2025-06-17T07:49:21Z</time>
      </trkpt>
      <trkpt lat="43.27652" lon="3.51208">
        <ele>18.8</ele>
        <time>2025-06-17T07:49:22Z</time>
      </trkpt>
      <trkpt lat="43.27647" lon="3.51206">
        <ele>18.8</ele>
        <time>2025-06-17T07:49:23Z</time>
      </trkpt>
      <trkpt lat="43.27642" lon="3.51204">
        <ele>18.8</ele>
        <time>2025-06-17T07:49:24Z</time>
      </trkpt>
      <trkpt lat="43.27636" lon="3.51203">
        <ele>18.8</ele>
        <time>2025-06-17T07:49:25Z</time>
      </trkpt>
      <trkpt lat="43.27632" lon="3.51201">
        <ele>18.8</ele>
        <time>2025-06-17T07:49:26Z</time>
      </trkpt>
      <trkpt lat="43.27627" lon="3.51199">
        <ele>19</ele>
        <time>2025-06-17T07:49:27Z</time>
      </trkpt>
      <trkpt lat="43.27622" lon="3.51198">
        <ele>19</ele>
        <time>2025-06-17T07:49:28Z</time>
      </trkpt>
      <trkpt lat="43.27617" lon="3.51196">
        <ele>19</ele>
        <time>2025-06-17T07:49:29Z</time>
      </trkpt>
      <trkpt lat="43.27614" lon="3.51194">
        <ele>19</ele>
        <time>2025-06-17T07:49:30Z</time>
      </trkpt>
      <trkpt lat="43.27611" lon="3.51192">
        <ele>19</ele>
        <time>2025-06-17T07:49:31Z</time>
      </trkpt>
      <trkpt lat="43.27608" lon="3.5119">
        <ele>19.2</ele>
        <time>2025-06-17T07:49:32Z</time>
      </trkpt>
      <trkpt lat="43.27605" lon="3.51189">
        <ele>19.2</ele>
        <time>2025-06-17T07:49:33Z</time>
      </trkpt>
      <trkpt lat="43.27603" lon="3.51188">
        <ele>19.2</ele>
        <time>2025-06-17T07:49:34Z</time>
      </trkpt>
      <trkpt lat="43.27602" lon="3.51187">
        <ele>19.2</ele>
        <time>2025-06-17T07:49:35Z</time>
      </trkpt>
      <trkpt lat="43.276" lon="3.51188">
        <ele>19.2</ele>
        <time>2025-06-17T07:49:36Z</time>
      </trkpt>
      <trkpt lat="43.27603" lon="3.51193">
        <ele>19.4</ele>
        <time>2025-06-17T07:49:58Z</time>
      </trkpt>
      <trkpt lat="43.27605" lon="3.51193">
        <ele>19.4</ele>
        <time>2025-06-17T07:49:59Z</time>
      </trkpt>
      <trkpt lat="43.27608" lon="3.51194">
        <ele>19.4</ele>
        <time>2025-06-17T07:50:00Z</time>
      </trkpt>
      <trkpt lat="43.27611" lon="3.51195">
        <ele>19.4</ele>
        <time>2025-06-17T07:50:01Z</time>
      </trkpt>
      <trkpt lat="43.27615" lon="3.51196">
        <ele>19.4</ele>
        <time>2025-06-17T07:50:02Z</time>
      </trkpt>
      <trkpt lat="43.27619" lon="3.51198">
        <ele>19.2</ele>
        <time>2025-06-17T07:50:03Z</time>
      </trkpt>
      <trkpt lat="43.27623" lon="3.512">
        <ele>19.2</ele>
        <time>2025-06-17T07:50:04Z</time>
      </trkpt>
      <trkpt lat="43.27627" lon="3.51203">
        <ele>19.2</ele>
        <time>2025-06-17T07:50:05Z</time>
      </trkpt>
      <trkpt lat="43.27631" lon="3.51205">
        <ele>19.2</ele>
        <time>2025-06-17T07:50:06Z</time>
      </trkpt>
      <trkpt lat="43.27635" lon="3.51208">
        <ele>19.2</ele>
        <time>2025-06-17T07:50:07Z</time>
      </trkpt>
      <trkpt lat="43.27638" lon="3.51212">
        <ele>19.2</ele>
        <time>2025-06-17T07:50:08Z</time>
      </trkpt>
      <trkpt lat="43.27641" lon="3.51217">
        <ele>19.2</ele>
        <time>2025-06-17T07:50:09Z</time>
      </trkpt>
      <trkpt lat="43.27642" lon="3.51223">
        <ele>19.2</ele>
        <time>2025-06-17T07:50:10Z</time>
      </trkpt>
      <trkpt lat="43.27641" lon="3.51228">
        <ele>19.4</ele>
        <time>2025-06-17T07:50:11Z</time>
      </trkpt>
      <trkpt lat="43.2764" lon="3.51233">
        <ele>19.6</ele>
        <time>2025-06-17T07:50:12Z</time>
      </trkpt>
      <trkpt lat="43.27638" lon="3.51237">
        <ele>19.8</ele>
        <time>2025-06-17T07:50:13Z</time>
      </trkpt>
      <trkpt lat="43.27636" lon="3.51241">
        <ele>20</ele>
        <time>2025-06-17T07:50:14Z</time>
      </trkpt>
      <trkpt lat="43.27634" lon="3.51246">
        <ele>20.2</ele>
        <time>2025-06-17T07:50:15Z</time>
      </trkpt>
      <trkpt lat="43.27631" lon="3.5125">
        <ele>20.4</ele>
        <time>2025-06-17T07:50:16Z</time>
      </trkpt>
      <trkpt lat="43.27629" lon="3.51255">
        <ele>20.6</ele>
        <time>2025-06-17T07:50:17Z</time>
      </trkpt>
      <trkpt lat="43.27626" lon="3.51258">
        <ele>20.8</ele>
        <time>2025-06-17T07:50:18Z</time>
      </trkpt>
      <trkpt lat="43.27625" lon="3.51261">
        <ele>21</ele>
        <time>2025-06-17T07:50:19Z</time>
      </trkpt>
      <trkpt lat="43.27623" lon="3.51264">
        <ele>21.2</ele>
        <time>2025-06-17T07:50:20Z</time>
      </trkpt>
      <trkpt lat="43.27622" lon="3.51267">
        <ele>21.6</ele>
        <time>2025-06-17T07:50:21Z</time>
      </trkpt>
      <trkpt lat="43.27619" lon="3.51271">
        <ele>21.8</ele>
        <time>2025-06-17T07:50:22Z</time>
      </trkpt>
      <trkpt lat="43.27618" lon="3.51274">
        <ele>22</ele>
        <time>2025-06-17T07:50:23Z</time>
      </trkpt>
      <trkpt lat="43.27616" lon="3.51278">
        <ele>22.4</ele>
        <time>2025-06-17T07:50:24Z</time>
      </trkpt>
      <trkpt lat="43.27614" lon="3.51281">
        <ele>22.6</ele>
        <time>2025-06-17T07:50:25Z</time>
      </trkpt>
      <trkpt lat="43.27612" lon="3.51285">
        <ele>22.8</ele>
        <time>2025-06-17T07:50:26Z</time>
      </trkpt>
      <trkpt lat="43.27611" lon="3.51288">
        <ele>23.2</ele>
        <time>2025-06-17T07:50:27Z</time>
      </trkpt>
      <trkpt lat="43.27608" lon="3.51291">
        <ele>23.4</ele>
        <time>2025-06-17T07:50:28Z</time>
      </trkpt>
      <trkpt lat="43.27607" lon="3.51294">
        <ele>23.6</ele>
        <time>2025-06-17T07:50:29Z</time>
      </trkpt>
      <trkpt lat="43.27605" lon="3.51298">
        <ele>24</ele>
        <time>2025-06-17T07:50:30Z</time>
      </trkpt>
      <trkpt lat="43.27603" lon="3.51301">
        <ele>24.2</ele>
        <time>2025-06-17T07:50:31Z</time>
      </trkpt>
      <trkpt lat="43.27601" lon="3.51304">
        <ele>24.4</ele>
        <time>2025-06-17T07:50:32Z</time>
      </trkpt>
      <trkpt lat="43.27599" lon="3.51308">
        <ele>24.8</ele>
        <time>2025-06-17T07:50:33Z</time>
      </trkpt>
      <trkpt lat="43.27598" lon="3.51311">
        <ele>25</ele>
        <time>2025-06-17T07:50:34Z</time>
      </trkpt>
      <trkpt lat="43.27596" lon="3.51314">
        <ele>25.2</ele>
        <time>2025-06-17T07:50:35Z</time>
      </trkpt>
      <trkpt lat="43.27594" lon="3.51318">
        <ele>25.4</ele>
        <time>2025-06-17T07:50:36Z</time>
      </trkpt>
      <trkpt lat="43.27592" lon="3.5132">
        <ele>25.6</ele>
        <time>2025-06-17T07:50:37Z</time>
      </trkpt>
      <trkpt lat="43.2759" lon="3.51322">
        <ele>25.8</ele>
        <time>2025-06-17T07:50:38Z</time>
      </trkpt>
      <trkpt lat="43.27588" lon="3.51325">
        <ele>26</ele>
        <time>2025-06-17T07:50:39Z</time>
      </trkpt>
      <trkpt lat="43.27586" lon="3.51327">
        <ele>26.2</ele>
        <time>2025-06-17T07:50:40Z</time>
      </trkpt>
      <trkpt lat="43.27584" lon="3.5133">
        <ele>26.4</ele>
        <time>2025-06-17T07:50:41Z</time>
      </trkpt>
      <trkpt lat="43.27583" lon="3.51333">
        <ele>26.6</ele>
        <time>2025-06-17T07:50:42Z</time>
      </trkpt>
      <trkpt lat="43.27583" lon="3.51338">
        <ele>26.6</ele>
        <time>2025-06-17T07:50:43Z</time>
      </trkpt>
      <trkpt lat="43.27583" lon="3.51342">
        <ele>26.8</ele>
        <time>2025-06-17T07:50:44Z</time>
      </trkpt>
      <trkpt lat="43.27582" lon="3.51346">
        <ele>26.8</ele>
        <time>2025-06-17T07:50:45Z</time>
      </trkpt>
      <trkpt lat="43.27582" lon="3.5135">
        <ele>27</ele>
        <time>2025-06-17T07:50:46Z</time>
      </trkpt>
      <trkpt lat="43.27583" lon="3.51353">
        <ele>27</ele>
        <time>2025-06-17T07:50:47Z</time>
      </trkpt>
      <trkpt lat="43.27585" lon="3.51357">
        <ele>27</ele>
        <time>2025-06-17T07:50:48Z</time>
      </trkpt>
      <trkpt lat="43.27588" lon="3.5136">
        <ele>27</ele>
        <time>2025-06-17T07:50:49Z</time>
      </trkpt>
      <trkpt lat="43.2759" lon="3.51364">
        <ele>27.2</ele>
        <time>2025-06-17T07:50:50Z</time>
      </trkpt>
      <trkpt lat="43.27593" lon="3.51369">
        <ele>27.2</ele>
        <time>2025-06-17T07:50:51Z</time>
      </trkpt>
      <trkpt lat="43.27595" lon="3.51373">
        <ele>27.2</ele>
        <time>2025-06-17T07:50:52Z</time>
      </trkpt>
      <trkpt lat="43.27597" lon="3.51378">
        <ele>27.2</ele>
        <time>2025-06-17T07:50:53Z</time>
      </trkpt>
      <trkpt lat="43.27599" lon="3.51384">
        <ele>27.4</ele>
        <time>2025-06-17T07:50:54Z</time>
      </trkpt>
      <trkpt lat="43.27601" lon="3.51389">
        <ele>27.4</ele>
        <time>2025-06-17T07:50:55Z</time>
      </trkpt>
      <trkpt lat="43.27603" lon="3.51395">
        <ele>27.4</ele>
        <time>2025-06-17T07:50:56Z</time>
      </trkpt>
      <trkpt lat="43.27605" lon="3.514">
        <ele>27.4</ele>
        <time>2025-06-17T07:50:57Z</time>
      </trkpt>
      <trkpt lat="43.27607" lon="3.51406">
        <ele>27.4</ele>
        <time>2025-06-17T07:50:58Z</time>
      </trkpt>
      <trkpt lat="43.27609" lon="3.51412">
        <ele>27.4</ele>
        <time>2025-06-17T07:50:59Z</time>
      </trkpt>
      <trkpt lat="43.27611" lon="3.51418">
        <ele>27.4</ele>
        <time>2025-06-17T07:51:00Z</time>
      </trkpt>
      <trkpt lat="43.27613" lon="3.51424">
        <ele>27.4</ele>
        <time>2025-06-17T07:51:01Z</time>
      </trkpt>
      <trkpt lat="43.27614" lon="3.5143">
        <ele>27.4</ele>
        <time>2025-06-17T07:51:02Z</time>
      </trkpt>
      <trkpt lat="43.27616" lon="3.51435">
        <ele>27.4</ele>
        <time>2025-06-17T07:51:03Z</time>
      </trkpt>
      <trkpt lat="43.27619" lon="3.51441">
        <ele>27.4</ele>
        <time>2025-06-17T07:51:04Z</time>
      </trkpt>
      <trkpt lat="43.27621" lon="3.51446">
        <ele>27.6</ele>
        <time>2025-06-17T07:51:05Z</time>
      </trkpt>
      <trkpt lat="43.27624" lon="3.51452">
        <ele>27.6</ele>
        <time>2025-06-17T07:51:06Z</time>
      </trkpt>
      <trkpt lat="43.27627" lon="3.51457">
        <ele>27.6</ele>
        <time>2025-06-17T07:51:07Z</time>
      </trkpt>
      <trkpt lat="43.2763" lon="3.51462">
        <ele>27.6</ele>
        <time>2025-06-17T07:51:08Z</time>
      </trkpt>
      <trkpt lat="43.27633" lon="3.51467">
        <ele>27.6</ele>
        <time>2025-06-17T07:51:09Z</time>
      </trkpt>
      <trkpt lat="43.27637" lon="3.51471">
        <ele>27.8</ele>
        <time>2025-06-17T07:51:10Z</time>
      </trkpt>
      <trkpt lat="43.2764" lon="3.51475">
        <ele>27.8</ele>
        <time>2025-06-17T07:51:11Z</time>
      </trkpt>
      <trkpt lat="43.27645" lon="3.51479">
        <ele>27.8</ele>
        <time>2025-06-17T07:51:12Z</time>
      </trkpt>
      <trkpt lat="43.27648" lon="3.51482">
        <ele>27.8</ele>
        <time>2025-06-17T07:51:13Z</time>
      </trkpt>
      <trkpt lat="43.27653" lon="3.51486">
        <ele>27.8</ele>
        <time>2025-06-17T07:51:14Z</time>
      </trkpt>
      <trkpt lat="43.27656" lon="3.51488">
        <ele>27.8</ele>
        <time>2025-06-17T07:51:15Z</time>
      </trkpt>
      <trkpt lat="43.27661" lon="3.51491">
        <ele>27.8</ele>
        <time>2025-06-17T07:51:16Z</time>
      </trkpt>
      <trkpt lat="43.27665" lon="3.51494">
        <ele>27.8</ele>
        <time>2025-06-17T07:51:17Z</time>
      </trkpt>
      <trkpt lat="43.2767" lon="3.51497">
        <ele>27.8</ele>
        <time>2025-06-17T07:51:18Z</time>
      </trkpt>
      <trkpt lat="43.27674" lon="3.51499">
        <ele>27.8</ele>
        <time>2025-06-17T07:51:19Z</time>
      </trkpt>
      <trkpt lat="43.27677" lon="3.51502">
        <ele>27.8</ele>
        <time>2025-06-17T07:51:20Z</time>
      </trkpt>
      <trkpt lat="43.27681" lon="3.51505">
        <ele>28</ele>
        <time>2025-06-17T07:51:21Z</time>
      </trkpt>
      <trkpt lat="43.27685" lon="3.51508">
        <ele>28</ele>
        <time>2025-06-17T07:51:22Z</time>
      </trkpt>
      <trkpt lat="43.27688" lon="3.51511">
        <ele>28</ele>
        <time>2025-06-17T07:51:23Z</time>
      </trkpt>
      <trkpt lat="43.27692" lon="3.51513">
        <ele>28</ele>
        <time>2025-06-17T07:51:24Z</time>
      </trkpt>
      <trkpt lat="43.27695" lon="3.51516">
        <ele>28</ele>
        <time>2025-06-17T07:51:25Z</time>
      </trkpt>
      <trkpt lat="43.27699" lon="3.51519">
        <ele>28</ele>
        <time>2025-06-17T07:51:26Z</time>
      </trkpt>
      <trkpt lat="43.27702" lon="3.51523">
        <ele>28</ele>
        <time>2025-06-17T07:51:27Z</time>
      </trkpt>
      <trkpt lat="43.27706" lon="3.51526">
        <ele>28.2</ele>
        <time>2025-06-17T07:51:28Z</time>
      </trkpt>
      <trkpt lat="43.27709" lon="3.5153">
        <ele>28.2</ele>
        <time>2025-06-17T07:51:29Z</time>
      </trkpt>
      <trkpt lat="43.27712" lon="3.51535">
        <ele>28.2</ele>
        <time>2025-06-17T07:51:30Z</time>
      </trkpt>
      <trkpt lat="43.27715" lon="3.51539">
        <ele>28.2</ele>
        <time>2025-06-17T07:51:31Z</time>
      </trkpt>
      <trkpt lat="43.27717" lon="3.51544">
        <ele>28.2</ele>
        <time>2025-06-17T07:51:32Z</time>
      </trkpt>
      <trkpt lat="43.2772" lon="3.51549">
        <ele>28.4</ele>
        <time>2025-06-17T07:51:33Z</time>
      </trkpt>
      <trkpt lat="43.27723" lon="3.51554">
        <ele>28.4</ele>
        <time>2025-06-17T07:51:34Z</time>
      </trkpt>
      <trkpt lat="43.27726" lon="3.51559">
        <ele>28.4</ele>
        <time>2025-06-17T07:51:35Z</time>
      </trkpt>
      <trkpt lat="43.27729" lon="3.51564">
        <ele>28.4</ele>
        <time>2025-06-17T07:51:36Z</time>
      </trkpt>
      <trkpt lat="43.27732" lon="3.51568">
        <ele>28.6</ele>
        <time>2025-06-17T07:51:37Z</time>
      </trkpt>
      <trkpt lat="43.27736" lon="3.51573">
        <ele>28.6</ele>
        <time>2025-06-17T07:51:38Z</time>
      </trkpt>
      <trkpt lat="43.2774" lon="3.51577">
        <ele>28.6</ele>
        <time>2025-06-17T07:51:39Z</time>
      </trkpt>
      <trkpt lat="43.27743" lon="3.5158">
        <ele>28.6</ele>
        <time>2025-06-17T07:51:40Z</time>
      </trkpt>
      <trkpt lat="43.27746" lon="3.51584">
        <ele>28.6</ele>
        <time>2025-06-17T07:51:41Z</time>
      </trkpt>
      <trkpt lat="43.2775" lon="3.51587">
        <ele>28.8</ele>
        <time>2025-06-17T07:51:42Z</time>
      </trkpt>
      <trkpt lat="43.27753" lon="3.51591">
        <ele>28.8</ele>
        <time>2025-06-17T07:51:43Z</time>
      </trkpt>
      <trkpt lat="43.27756" lon="3.51595">
        <ele>28.8</ele>
        <time>2025-06-17T07:51:44Z</time>
      </trkpt>
      <trkpt lat="43.2776" lon="3.51599">
        <ele>29</ele>
        <time>2025-06-17T07:51:45Z</time>
      </trkpt>
      <trkpt lat="43.27763" lon="3.51603">
        <ele>29</ele>
        <time>2025-06-17T07:51:46Z</time>
      </trkpt>
      <trkpt lat="43.27767" lon="3.51607">
        <ele>29</ele>
        <time>2025-06-17T07:51:47Z</time>
      </trkpt>
      <trkpt lat="43.27772" lon="3.51611">
        <ele>29</ele>
        <time>2025-06-17T07:51:48Z</time>
      </trkpt>
      <trkpt lat="43.27776" lon="3.51614">
        <ele>29</ele>
        <time>2025-06-17T07:51:49Z</time>
      </trkpt>
      <trkpt lat="43.2778" lon="3.51618">
        <ele>28.8</ele>
        <time>2025-06-17T07:51:50Z</time>
      </trkpt>
      <trkpt lat="43.27785" lon="3.51622">
        <ele>28.8</ele>
        <time>2025-06-17T07:51:51Z</time>
      </trkpt>
      <trkpt lat="43.2779" lon="3.51626">
        <ele>28.8</ele>
        <time>2025-06-17T07:51:52Z</time>
      </trkpt>
      <trkpt lat="43.27794" lon="3.51629">
        <ele>28.6</ele>
        <time>2025-06-17T07:51:53Z</time>
      </trkpt>
      <trkpt lat="43.27798" lon="3.51632">
        <ele>28.6</ele>
        <time>2025-06-17T07:51:54Z</time>
      </trkpt>
      <trkpt lat="43.27803" lon="3.51635">
        <ele>28.6</ele>
        <time>2025-06-17T07:51:55Z</time>
      </trkpt>
      <trkpt lat="43.27808" lon="3.51637">
        <ele>28.4</ele>
        <time>2025-06-17T07:51:56Z</time>
      </trkpt>
      <trkpt lat="43.27812" lon="3.51637">
        <ele>28.2</ele>
        <time>2025-06-17T07:51:57Z</time>
      </trkpt>
      <trkpt lat="43.27816" lon="3.51638">
        <ele>28.2</ele>
        <time>2025-06-17T07:51:58Z</time>
      </trkpt>
      <trkpt lat="43.2782" lon="3.5164">
        <ele>28</ele>
        <time>2025-06-17T07:51:59Z</time>
      </trkpt>
      <trkpt lat="43.27823" lon="3.51641">
        <ele>27.8</ele>
        <time>2025-06-17T07:52:00Z</time>
      </trkpt>
      <trkpt lat="43.27827" lon="3.51642">
        <ele>27.8</ele>
        <time>2025-06-17T07:52:01Z</time>
      </trkpt>
      <trkpt lat="43.2783" lon="3.51642">
        <ele>27.6</ele>
        <time>2025-06-17T07:52:02Z</time>
      </trkpt>
      <trkpt lat="43.27835" lon="3.51643">
        <ele>27.4</ele>
        <time>2025-06-17T07:52:03Z</time>
      </trkpt>
      <trkpt lat="43.27839" lon="3.51643">
        <ele>27.4</ele>
        <time>2025-06-17T07:52:04Z</time>
      </trkpt>
      <trkpt lat="43.27843" lon="3.51644">
        <ele>27.2</ele>
        <time>2025-06-17T07:52:05Z</time>
      </trkpt>
      <trkpt lat="43.27848" lon="3.51644">
        <ele>27.2</ele>
        <time>2025-06-17T07:52:06Z</time>
      </trkpt>
      <trkpt lat="43.27853" lon="3.51644">
        <ele>27.2</ele>
        <time>2025-06-17T07:52:07Z</time>
      </trkpt>
      <trkpt lat="43.27859" lon="3.51645">
        <ele>27</ele>
        <time>2025-06-17T07:52:08Z</time>
      </trkpt>
      <trkpt lat="43.27864" lon="3.51645">
        <ele>26.8</ele>
        <time>2025-06-17T07:52:09Z</time>
      </trkpt>
      <trkpt lat="43.2787" lon="3.51645">
        <ele>26.6</ele>
        <time>2025-06-17T07:52:10Z</time>
      </trkpt>
      <trkpt lat="43.27876" lon="3.51645">
        <ele>26.6</ele>
        <time>2025-06-17T07:52:11Z</time>
      </trkpt>
      <trkpt lat="43.27883" lon="3.51646">
        <ele>26.4</ele>
        <time>2025-06-17T07:52:12Z</time>
      </trkpt>
      <trkpt lat="43.27889" lon="3.51646">
        <ele>26.2</ele>
        <time>2025-06-17T07:52:13Z</time>
      </trkpt>
      <trkpt lat="43.27896" lon="3.51646">
        <ele>26</ele>
        <time>2025-06-17T07:52:14Z</time>
      </trkpt>
      <trkpt lat="43.27903" lon="3.51647">
        <ele>25.8</ele>
        <time>2025-06-17T07:52:15Z</time>
      </trkpt>
      <trkpt lat="43.27909" lon="3.51648">
        <ele>25.6</ele>
        <time>2025-06-17T07:52:16Z</time>
      </trkpt>
      <trkpt lat="43.27915" lon="3.51648">
        <ele>25.4</ele>
        <time>2025-06-17T07:52:17Z</time>
      </trkpt>
      <trkpt lat="43.27923" lon="3.51648">
        <ele>25.2</ele>
        <time>2025-06-17T07:52:18Z</time>
      </trkpt>
      <trkpt lat="43.2793" lon="3.51649">
        <ele>25</ele>
        <time>2025-06-17T07:52:19Z</time>
      </trkpt>
      <trkpt lat="43.27937" lon="3.51649">
        <ele>24.8</ele>
        <time>2025-06-17T07:52:20Z</time>
      </trkpt>
      <trkpt lat="43.27944" lon="3.51649">
        <ele>24.8</ele>
        <time>2025-06-17T07:52:21Z</time>
      </trkpt>
      <trkpt lat="43.27951" lon="3.5165">
        <ele>24.8</ele>
        <time>2025-06-17T07:52:22Z</time>
      </trkpt>
      <trkpt lat="43.27958" lon="3.51652">
        <ele>24.6</ele>
        <time>2025-06-17T07:52:23Z</time>
      </trkpt>
      <trkpt lat="43.27965" lon="3.51654">
        <ele>24.6</ele>
        <time>2025-06-17T07:52:24Z</time>
      </trkpt>
      <trkpt lat="43.27972" lon="3.51657">
        <ele>24.6</ele>
        <time>2025-06-17T07:52:25Z</time>
      </trkpt>
      <trkpt lat="43.27978" lon="3.5166">
        <ele>24.6</ele>
        <time>2025-06-17T07:52:26Z</time>
      </trkpt>
      <trkpt lat="43.27984" lon="3.51664">
        <ele>24.6</ele>
        <time>2025-06-17T07:52:27Z</time>
      </trkpt>
      <trkpt lat="43.2799" lon="3.51668">
        <ele>24.6</ele>
        <time>2025-06-17T07:52:28Z</time>
      </trkpt>
      <trkpt lat="43.27996" lon="3.51671">
        <ele>24.6</ele>
        <time>2025-06-17T07:52:29Z</time>
      </trkpt>
      <trkpt lat="43.28001" lon="3.51675">
        <ele>24.8</ele>
        <time>2025-06-17T07:52:30Z</time>
      </trkpt>
      <trkpt lat="43.28006" lon="3.51678">
        <ele>24.8</ele>
        <time>2025-06-17T07:52:31Z</time>
      </trkpt>
      <trkpt lat="43.28012" lon="3.51681">
        <ele>25</ele>
        <time>2025-06-17T07:52:32Z</time>
      </trkpt>
      <trkpt lat="43.28017" lon="3.51684">
        <ele>25.2</ele>
        <time>2025-06-17T07:52:33Z</time>
      </trkpt>
      <trkpt lat="43.28023" lon="3.51688">
        <ele>25.2</ele>
        <time>2025-06-17T07:52:34Z</time>
      </trkpt>
      <trkpt lat="43.28028" lon="3.51691">
        <ele>25.4</ele>
        <time>2025-06-17T07:52:35Z</time>
      </trkpt>
      <trkpt lat="43.28032" lon="3.51694">
        <ele>25.6</ele>
        <time>2025-06-17T07:52:36Z</time>
      </trkpt>
      <trkpt lat="43.28036" lon="3.51696">
        <ele>26</ele>
        <time>2025-06-17T07:52:37Z</time>
      </trkpt>
      <trkpt lat="43.28039" lon="3.51698">
        <ele>26.2</ele>
        <time>2025-06-17T07:52:38Z</time>
      </trkpt>
      <trkpt lat="43.28041" lon="3.517">
        <ele>26.6</ele>
        <time>2025-06-17T07:52:39Z</time>
      </trkpt>
      <trkpt lat="43.28044" lon="3.51702">
        <ele>26.8</ele>
        <time>2025-06-17T07:52:40Z</time>
      </trkpt>
      <trkpt lat="43.28046" lon="3.51703">
        <ele>27.2</ele>
        <time>2025-06-17T07:52:41Z</time>
      </trkpt>
      <trkpt lat="43.28049" lon="3.51704">
        <ele>27.4</ele>
        <time>2025-06-17T07:52:42Z</time>
      </trkpt>
      <trkpt lat="43.28051" lon="3.51705">
        <ele>27.8</ele>
        <time>2025-06-17T07:52:43Z</time>
      </trkpt>
      <trkpt lat="43.28053" lon="3.51707">
        <ele>28.2</ele>
        <time>2025-06-17T07:52:44Z</time>
      </trkpt>
      <trkpt lat="43.28056" lon="3.51709">
        <ele>28.4</ele>
        <time>2025-06-17T07:52:45Z</time>
      </trkpt>
      <trkpt lat="43.28058" lon="3.51711">
        <ele>28.8</ele>
        <time>2025-06-17T07:52:46Z</time>
      </trkpt>
      <trkpt lat="43.28061" lon="3.51713">
        <ele>29</ele>
        <time>2025-06-17T07:52:47Z</time>
      </trkpt>
      <trkpt lat="43.28064" lon="3.51715">
        <ele>29.2</ele>
        <time>2025-06-17T07:52:48Z</time>
      </trkpt>
      <trkpt lat="43.28067" lon="3.51717">
        <ele>29.6</ele>
        <time>2025-06-17T07:52:49Z</time>
      </trkpt>
      <trkpt lat="43.2807" lon="3.5172">
        <ele>29.8</ele>
        <time>2025-06-17T07:52:50Z</time>
      </trkpt>
      <trkpt lat="43.28073" lon="3.51722">
        <ele>30</ele>
        <time>2025-06-17T07:52:51Z</time>
      </trkpt>
      <trkpt lat="43.28076" lon="3.51724">
        <ele>30.2</ele>
        <time>2025-06-17T07:52:52Z</time>
      </trkpt>
      <trkpt lat="43.28079" lon="3.51726">
        <ele>30.4</ele>
        <time>2025-06-17T07:52:53Z</time>
      </trkpt>
      <trkpt lat="43.28083" lon="3.51728">
        <ele>30.6</ele>
        <time>2025-06-17T07:52:54Z</time>
      </trkpt>
      <trkpt lat="43.28086" lon="3.5173">
        <ele>30.6</ele>
        <time>2025-06-17T07:52:55Z</time>
      </trkpt>
      <trkpt lat="43.2809" lon="3.51732">
        <ele>30.8</ele>
        <time>2025-06-17T07:52:56Z</time>
      </trkpt>
      <trkpt lat="43.28093" lon="3.51734">
        <ele>30.8</ele>
        <time>2025-06-17T07:52:57Z</time>
      </trkpt>
      <trkpt lat="43.28097" lon="3.51737">
        <ele>30.8</ele>
        <time>2025-06-17T07:52:58Z</time>
      </trkpt>
      <trkpt lat="43.281" lon="3.51739">
        <ele>31</ele>
        <time>2025-06-17T07:52:59Z</time>
      </trkpt>
      <trkpt lat="43.28104" lon="3.51741">
        <ele>31</ele>
        <time>2025-06-17T07:53:00Z</time>
      </trkpt>
      <trkpt lat="43.28108" lon="3.51744">
        <ele>31</ele>
        <time>2025-06-17T07:53:01Z</time>
      </trkpt>
      <trkpt lat="43.28112" lon="3.51746">
        <ele>31</ele>
        <time>2025-06-17T07:53:02Z</time>
      </trkpt>
      <trkpt lat="43.28116" lon="3.51749">
        <ele>31</ele>
        <time>2025-06-17T07:53:03Z</time>
      </trkpt>
      <trkpt lat="43.2812" lon="3.51752">
        <ele>31</ele>
        <time>2025-06-17T07:53:04Z</time>
      </trkpt>
      <trkpt lat="43.28125" lon="3.51755">
        <ele>30.8</ele>
        <time>2025-06-17T07:53:05Z</time>
      </trkpt>
      <trkpt lat="43.2813" lon="3.51758">
        <ele>30.6</ele>
        <time>2025-06-17T07:53:06Z</time>
      </trkpt>
      <trkpt lat="43.28134" lon="3.51761">
        <ele>30.4</ele>
        <time>2025-06-17T07:53:07Z</time>
      </trkpt>
      <trkpt lat="43.28139" lon="3.51764">
        <ele>30</ele>
        <time>2025-06-17T07:53:08Z</time>
      </trkpt>
      <trkpt lat="43.28144" lon="3.51767">
        <ele>29.6</ele>
        <time>2025-06-17T07:53:09Z</time>
      </trkpt>
      <trkpt lat="43.28147" lon="3.5177">
        <ele>29.4</ele>
        <time>2025-06-17T07:53:10Z</time>
      </trkpt>
      <trkpt lat="43.2815" lon="3.51772">
        <ele>29</ele>
        <time>2025-06-17T07:53:11Z</time>
      </trkpt>
      <trkpt lat="43.28153" lon="3.51774">
        <ele>28.6</ele>
        <time>2025-06-17T07:53:12Z</time>
      </trkpt>
      <trkpt lat="43.28154" lon="3.51775">
        <ele>28.4</ele>
        <time>2025-06-17T07:53:13Z</time>
      </trkpt>
      <trkpt lat="43.28156" lon="3.51777">
        <ele>28</ele>
        <time>2025-06-17T07:53:14Z</time>
      </trkpt>
      <trkpt lat="43.28158" lon="3.51778">
        <ele>27.8</ele>
        <time>2025-06-17T07:53:15Z</time>
      </trkpt>
      <trkpt lat="43.2816" lon="3.5178">
        <ele>27.6</ele>
        <time>2025-06-17T07:53:16Z</time>
      </trkpt>
      <trkpt lat="43.28162" lon="3.5178">
        <ele>27.4</ele>
        <time>2025-06-17T07:53:17Z</time>
      </trkpt>
      <trkpt lat="43.28164" lon="3.51779">
        <ele>27.4</ele>
        <time>2025-06-17T07:53:18Z</time>
      </trkpt>
      <trkpt lat="43.28167" lon="3.51775">
        <ele>27.2</ele>
        <time>2025-06-17T07:53:19Z</time>
      </trkpt>
      <trkpt lat="43.2817" lon="3.51771">
        <ele>27</ele>
        <time>2025-06-17T07:53:20Z</time>
      </trkpt>
      <trkpt lat="43.28173" lon="3.51767">
        <ele>27</ele>
        <time>2025-06-17T07:53:21Z</time>
      </trkpt>
      <trkpt lat="43.28175" lon="3.51762">
        <ele>26.8</ele>
        <time>2025-06-17T07:53:22Z</time>
      </trkpt>
      <trkpt lat="43.28177" lon="3.51757">
        <ele>26.8</ele>
        <time>2025-06-17T07:53:23Z</time>
      </trkpt>
      <trkpt lat="43.2818" lon="3.51751">
        <ele>26.6</ele>
        <time>2025-06-17T07:53:24Z</time>
      </trkpt>
      <trkpt lat="43.28182" lon="3.51746">
        <ele>26.6</ele>
        <time>2025-06-17T07:53:25Z</time>
      </trkpt>
      <trkpt lat="43.28185" lon="3.5174">
        <ele>26.4</ele>
        <time>2025-06-17T07:53:26Z</time>
      </trkpt>
      <trkpt lat="43.28187" lon="3.51734">
        <ele>26.4</ele>
        <time>2025-06-17T07:53:27Z</time>
      </trkpt>
      <trkpt lat="43.28189" lon="3.51728">
        <ele>26.2</ele>
        <time>2025-06-17T07:53:28Z</time>
      </trkpt>
      <trkpt lat="43.28191" lon="3.51721">
        <ele>26.2</ele>
        <time>2025-06-17T07:53:29Z</time>
      </trkpt>
      <trkpt lat="43.28193" lon="3.51713">
        <ele>25.8</ele>
        <time>2025-06-17T07:53:30Z</time>
      </trkpt>
      <trkpt lat="43.28195" lon="3.51706">
        <ele>25.6</ele>
        <time>2025-06-17T07:53:31Z</time>
      </trkpt>
      <trkpt lat="43.28198" lon="3.51697">
        <ele>25.2</ele>
        <time>2025-06-17T07:53:32Z</time>
      </trkpt>
      <trkpt lat="43.28201" lon="3.51689">
        <ele>24.8</ele>
        <time>2025-06-17T07:53:33Z</time>
      </trkpt>
      <trkpt lat="43.28203" lon="3.51679">
        <ele>24.2</ele>
        <time>2025-06-17T07:53:34Z</time>
      </trkpt>
      <trkpt lat="43.28206" lon="3.5167">
        <ele>23.6</ele>
        <time>2025-06-17T07:53:35Z</time>
      </trkpt>
      <trkpt lat="43.28208" lon="3.51662">
        <ele>23.2</ele>
        <time>2025-06-17T07:53:36Z</time>
      </trkpt>
      <trkpt lat="43.2821" lon="3.51653">
        <ele>22.6</ele>
        <time>2025-06-17T07:53:37Z</time>
      </trkpt>
      <trkpt lat="43.28211" lon="3.51647">
        <ele>22.2</ele>
        <time>2025-06-17T07:53:38Z</time>
      </trkpt>
      <trkpt lat="43.28213" lon="3.51643">
        <ele>22</ele>
        <time>2025-06-17T07:53:39Z</time>
      </trkpt>
      <trkpt lat="43.28215" lon="3.51641">
        <ele>21.8</ele>
        <time>2025-06-17T07:53:40Z</time>
      </trkpt>
      <trkpt lat="43.28218" lon="3.5164">
        <ele>21.6</ele>
        <time>2025-06-17T07:53:41Z</time>
      </trkpt>
      <trkpt lat="43.28221" lon="3.51639">
        <ele>21.4</ele>
        <time>2025-06-17T07:53:42Z</time>
      </trkpt>
      <trkpt lat="43.28224" lon="3.51637">
        <ele>21.2</ele>
        <time>2025-06-17T07:53:43Z</time>
      </trkpt>
      <trkpt lat="43.28227" lon="3.51633">
        <ele>21</ele>
        <time>2025-06-17T07:53:44Z</time>
      </trkpt>
      <trkpt lat="43.2823" lon="3.51628">
        <ele>20.8</ele>
        <time>2025-06-17T07:53:45Z</time>
      </trkpt>
      <trkpt lat="43.28231" lon="3.51624">
        <ele>20.8</ele>
        <time>2025-06-17T07:53:46Z</time>
      </trkpt>
      <trkpt lat="43.28232" lon="3.5162">
        <ele>20.6</ele>
        <time>2025-06-17T07:53:47Z</time>
      </trkpt>
      <trkpt lat="43.28234" lon="3.51616">
        <ele>20.6</ele>
        <time>2025-06-17T07:53:48Z</time>
      </trkpt>
      <trkpt lat="43.28236" lon="3.51613">
        <ele>20.6</ele>
        <time>2025-06-17T07:53:49Z</time>
      </trkpt>
      <trkpt lat="43.28241" lon="3.51611">
        <ele>20.6</ele>
        <time>2025-06-17T07:53:50Z</time>
      </trkpt>
      <trkpt lat="43.28245" lon="3.51609">
        <ele>20.6</ele>
        <time>2025-06-17T07:53:51Z</time>
      </trkpt>
      <trkpt lat="43.28249" lon="3.51608">
        <ele>20.4</ele>
        <time>2025-06-17T07:53:52Z</time>
      </trkpt>
      <trkpt lat="43.28254" lon="3.51606">
        <ele>20.4</ele>
        <time>2025-06-17T07:53:53Z</time>
      </trkpt>
      <trkpt lat="43.28258" lon="3.51604">
        <ele>20.4</ele>
        <time>2025-06-17T07:53:54Z</time>
      </trkpt>
      <trkpt lat="43.28263" lon="3.51602">
        <ele>20.4</ele>
        <time>2025-06-17T07:53:55Z</time>
      </trkpt>
      <trkpt lat="43.28268" lon="3.516">
        <ele>20.4</ele>
        <time>2025-06-17T07:53:56Z</time>
      </trkpt>
      <trkpt lat="43.28273" lon="3.51598">
        <ele>20.4</ele>
        <time>2025-06-17T07:53:57Z</time>
      </trkpt>
      <trkpt lat="43.28278" lon="3.51596">
        <ele>20.4</ele>
        <time>2025-06-17T07:53:58Z</time>
      </trkpt>
      <trkpt lat="43.28283" lon="3.51594">
        <ele>20.4</ele>
        <time>2025-06-17T07:53:59Z</time>
      </trkpt>
      <trkpt lat="43.28289" lon="3.51591">
        <ele>20.4</ele>
        <time>2025-06-17T07:54:00Z</time>
      </trkpt>
      <trkpt lat="43.28294" lon="3.51589">
        <ele>20.4</ele>
        <time>2025-06-17T07:54:01Z</time>
      </trkpt>
      <trkpt lat="43.283" lon="3.51587">
        <ele>20.4</ele>
        <time>2025-06-17T07:54:02Z</time>
      </trkpt>
      <trkpt lat="43.28305" lon="3.51585">
        <ele>20.4</ele>
        <time>2025-06-17T07:54:03Z</time>
      </trkpt>
      <trkpt lat="43.2831" lon="3.51582">
        <ele>20.2</ele>
        <time>2025-06-17T07:54:04Z</time>
      </trkpt>
      <trkpt lat="43.28315" lon="3.51579">
        <ele>20.4</ele>
        <time>2025-06-17T07:54:05Z</time>
      </trkpt>
      <trkpt lat="43.28321" lon="3.51576">
        <ele>20.4</ele>
        <time>2025-06-17T07:54:06Z</time>
      </trkpt>
      <trkpt lat="43.28326" lon="3.51574">
        <ele>20.4</ele>
        <time>2025-06-17T07:54:07Z</time>
      </trkpt>
      <trkpt lat="43.28333" lon="3.5157">
        <ele>20.4</ele>
        <time>2025-06-17T07:54:08Z</time>
      </trkpt>
      <trkpt lat="43.28339" lon="3.51568">
        <ele>20.4</ele>
        <time>2025-06-17T07:54:09Z</time>
      </trkpt>
      <trkpt lat="43.28345" lon="3.51565">
        <ele>20.4</ele>
        <time>2025-06-17T07:54:10Z</time>
      </trkpt>
      <trkpt lat="43.28351" lon="3.51562">
        <ele>20.4</ele>
        <time>2025-06-17T07:54:11Z</time>
      </trkpt>
      <trkpt lat="43.28357" lon="3.51559">
        <ele>20.4</ele>
        <time>2025-06-17T07:54:12Z</time>
      </trkpt>
      <trkpt lat="43.28363" lon="3.51556">
        <ele>20.4</ele>
        <time>2025-06-17T07:54:13Z</time>
      </trkpt>
      <trkpt lat="43.28369" lon="3.51553">
        <ele>20.4</ele>
        <time>2025-06-17T07:54:14Z</time>
      </trkpt>
      <trkpt lat="43.28375" lon="3.51549">
        <ele>20.2</ele>
        <time>2025-06-17T07:54:15Z</time>
      </trkpt>
      <trkpt lat="43.2838" lon="3.51545">
        <ele>20.2</ele>
        <time>2025-06-17T07:54:16Z</time>
      </trkpt>
      <trkpt lat="43.28387" lon="3.51541">
        <ele>20.4</ele>
        <time>2025-06-17T07:54:17Z</time>
      </trkpt>
      <trkpt lat="43.28392" lon="3.51537">
        <ele>20.2</ele>
        <time>2025-06-17T07:54:18Z</time>
      </trkpt>
      <trkpt lat="43.28398" lon="3.51532">
        <ele>20.2</ele>
        <time>2025-06-17T07:54:19Z</time>
      </trkpt>
      <trkpt lat="43.28404" lon="3.51528">
        <ele>20.2</ele>
        <time>2025-06-17T07:54:20Z</time>
      </trkpt>
      <trkpt lat="43.2841" lon="3.51524">
        <ele>20</ele>
        <time>2025-06-17T07:54:21Z</time>
      </trkpt>
      <trkpt lat="43.28416" lon="3.5152">
        <ele>20</ele>
        <time>2025-06-17T07:54:22Z</time>
      </trkpt>
      <trkpt lat="43.28422" lon="3.51517">
        <ele>20</ele>
        <time>2025-06-17T07:54:23Z</time>
      </trkpt>
      <trkpt lat="43.28429" lon="3.51513">
        <ele>20</ele>
        <time>2025-06-17T07:54:24Z</time>
      </trkpt>
      <trkpt lat="43.28435" lon="3.51509">
        <ele>20</ele>
        <time>2025-06-17T07:54:25Z</time>
      </trkpt>
      <trkpt lat="43.28441" lon="3.51506">
        <ele>19.8</ele>
        <time>2025-06-17T07:54:26Z</time>
      </trkpt>
      <trkpt lat="43.28447" lon="3.51501">
        <ele>19.8</ele>
        <time>2025-06-17T07:54:27Z</time>
      </trkpt>
      <trkpt lat="43.28453" lon="3.51497">
        <ele>19.8</ele>
        <time>2025-06-17T07:54:28Z</time>
      </trkpt>
      <trkpt lat="43.28459" lon="3.51493">
        <ele>19.8</ele>
        <time>2025-06-17T07:54:29Z</time>
      </trkpt>
      <trkpt lat="43.28464" lon="3.51488">
        <ele>19.8</ele>
        <time>2025-06-17T07:54:30Z</time>
      </trkpt>
      <trkpt lat="43.2847" lon="3.51483">
        <ele>19.8</ele>
        <time>2025-06-17T07:54:31Z</time>
      </trkpt>
      <trkpt lat="43.28476" lon="3.51478">
        <ele>19.8</ele>
        <time>2025-06-17T07:54:32Z</time>
      </trkpt>
      <trkpt lat="43.28482" lon="3.51473">
        <ele>20</ele>
        <time>2025-06-17T07:54:33Z</time>
      </trkpt>
      <trkpt lat="43.28487" lon="3.51468">
        <ele>20</ele>
        <time>2025-06-17T07:54:34Z</time>
      </trkpt>
      <trkpt lat="43.28492" lon="3.51463">
        <ele>20</ele>
        <time>2025-06-17T07:54:35Z</time>
      </trkpt>
      <trkpt lat="43.28498" lon="3.51459">
        <ele>20</ele>
        <time>2025-06-17T07:54:36Z</time>
      </trkpt>
      <trkpt lat="43.28503" lon="3.51454">
        <ele>20</ele>
        <time>2025-06-17T07:54:37Z</time>
      </trkpt>
      <trkpt lat="43.28508" lon="3.51449">
        <ele>20</ele>
        <time>2025-06-17T07:54:38Z</time>
      </trkpt>
      <trkpt lat="43.28513" lon="3.51445">
        <ele>20</ele>
        <time>2025-06-17T07:54:39Z</time>
      </trkpt>
      <trkpt lat="43.28518" lon="3.51441">
        <ele>20</ele>
        <time>2025-06-17T07:54:40Z</time>
      </trkpt>
      <trkpt lat="43.28523" lon="3.51437">
        <ele>20</ele>
        <time>2025-06-17T07:54:41Z</time>
      </trkpt>
      <trkpt lat="43.28528" lon="3.51432">
        <ele>20</ele>
        <time>2025-06-17T07:54:42Z</time>
      </trkpt>
      <trkpt lat="43.28532" lon="3.51429">
        <ele>20.2</ele>
        <time>2025-06-17T07:54:43Z</time>
      </trkpt>
      <trkpt lat="43.28538" lon="3.51425">
        <ele>20.2</ele>
        <time>2025-06-17T07:54:44Z</time>
      </trkpt>
      <trkpt lat="43.28543" lon="3.51422">
        <ele>20.2</ele>
        <time>2025-06-17T07:54:45Z</time>
      </trkpt>
      <trkpt lat="43.28548" lon="3.5142">
        <ele>20.2</ele>
        <time>2025-06-17T07:54:46Z</time>
      </trkpt>
      <trkpt lat="43.28552" lon="3.51419">
        <ele>20.4</ele>
        <time>2025-06-17T07:54:47Z</time>
      </trkpt>
      <trkpt lat="43.28557" lon="3.51419">
        <ele>20.4</ele>
        <time>2025-06-17T07:54:48Z</time>
      </trkpt>
      <trkpt lat="43.28562" lon="3.5142">
        <ele>20.6</ele>
        <time>2025-06-17T07:54:49Z</time>
      </trkpt>
      <trkpt lat="43.28567" lon="3.51423">
        <ele>20.8</ele>
        <time>2025-06-17T07:54:50Z</time>
      </trkpt>
      <trkpt lat="43.28572" lon="3.51426">
        <ele>21</ele>
        <time>2025-06-17T07:54:51Z</time>
      </trkpt>
      <trkpt lat="43.28577" lon="3.51431">
        <ele>21.2</ele>
        <time>2025-06-17T07:54:52Z</time>
      </trkpt>
      <trkpt lat="43.28581" lon="3.51435">
        <ele>21.4</ele>
        <time>2025-06-17T07:54:53Z</time>
      </trkpt>
      <trkpt lat="43.28586" lon="3.51441">
        <ele>21.6</ele>
        <time>2025-06-17T07:54:54Z</time>
      </trkpt>
      <trkpt lat="43.28589" lon="3.51447">
        <ele>21.8</ele>
        <time>2025-06-17T07:54:55Z</time>
      </trkpt>
      <trkpt lat="43.28592" lon="3.51453">
        <ele>22.2</ele>
        <time>2025-06-17T07:54:56Z</time>
      </trkpt>
      <trkpt lat="43.28595" lon="3.51459">
        <ele>22.4</ele>
        <time>2025-06-17T07:54:57Z</time>
      </trkpt>
      <trkpt lat="43.28597" lon="3.51466">
        <ele>22.6</ele>
        <time>2025-06-17T07:54:58Z</time>
      </trkpt>
      <trkpt lat="43.28599" lon="3.51473">
        <ele>22.8</ele>
        <time>2025-06-17T07:54:59Z</time>
      </trkpt>
      <trkpt lat="43.28601" lon="3.51479">
        <ele>23</ele>
        <time>2025-06-17T07:55:00Z</time>
      </trkpt>
      <trkpt lat="43.28603" lon="3.51485">
        <ele>23.2</ele>
        <time>2025-06-17T07:55:01Z</time>
      </trkpt>
      <trkpt lat="43.28605" lon="3.51492">
        <ele>23.4</ele>
        <time>2025-06-17T07:55:02Z</time>
      </trkpt>
      <trkpt lat="43.28607" lon="3.51497">
        <ele>23.4</ele>
        <time>2025-06-17T07:55:03Z</time>
      </trkpt>
      <trkpt lat="43.28608" lon="3.51502">
        <ele>23.6</ele>
        <time>2025-06-17T07:55:04Z</time>
      </trkpt>
      <trkpt lat="43.28611" lon="3.51508">
        <ele>23.8</ele>
        <time>2025-06-17T07:55:05Z</time>
      </trkpt>
      <trkpt lat="43.28613" lon="3.51514">
        <ele>24</ele>
        <time>2025-06-17T07:55:06Z</time>
      </trkpt>
      <trkpt lat="43.28615" lon="3.5152">
        <ele>24</ele>
        <time>2025-06-17T07:55:07Z</time>
      </trkpt>
      <trkpt lat="43.28616" lon="3.51526">
        <ele>24.2</ele>
        <time>2025-06-17T07:55:08Z</time>
      </trkpt>
      <trkpt lat="43.28617" lon="3.51533">
        <ele>24.2</ele>
        <time>2025-06-17T07:55:09Z</time>
      </trkpt>
      <trkpt lat="43.28619" lon="3.51539">
        <ele>24.4</ele>
        <time>2025-06-17T07:55:10Z</time>
      </trkpt>
      <trkpt lat="43.2862" lon="3.51545">
        <ele>24.4</ele>
        <time>2025-06-17T07:55:11Z</time>
      </trkpt>
      <trkpt lat="43.28622" lon="3.51552">
        <ele>24.6</ele>
        <time>2025-06-17T07:55:12Z</time>
      </trkpt>
      <trkpt lat="43.28623" lon="3.51558">
        <ele>24.6</ele>
        <time>2025-06-17T07:55:13Z</time>
      </trkpt>
      <trkpt lat="43.28624" lon="3.51564">
        <ele>24.8</ele>
        <time>2025-06-17T07:55:14Z</time>
      </trkpt>
      <trkpt lat="43.28626" lon="3.51571">
        <ele>24.8</ele>
        <time>2025-06-17T07:55:15Z</time>
      </trkpt>
      <trkpt lat="43.28627" lon="3.51578">
        <ele>25</ele>
        <time>2025-06-17T07:55:16Z</time>
      </trkpt>
      <trkpt lat="43.28628" lon="3.51585">
        <ele>25</ele>
        <time>2025-06-17T07:55:17Z</time>
      </trkpt>
      <trkpt lat="43.28629" lon="3.51592">
        <ele>25.2</ele>
        <time>2025-06-17T07:55:18Z</time>
      </trkpt>
      <trkpt lat="43.28629" lon="3.51599">
        <ele>25.2</ele>
        <time>2025-06-17T07:55:19Z</time>
      </trkpt>
      <trkpt lat="43.28629" lon="3.51605">
        <ele>25.2</ele>
        <time>2025-06-17T07:55:20Z</time>
      </trkpt>
      <trkpt lat="43.2863" lon="3.51612">
        <ele>25.4</ele>
        <time>2025-06-17T07:55:21Z</time>
      </trkpt>
      <trkpt lat="43.2863" lon="3.51619">
        <ele>25.4</ele>
        <time>2025-06-17T07:55:22Z</time>
      </trkpt>
      <trkpt lat="43.2863" lon="3.51626">
        <ele>25.4</ele>
        <time>2025-06-17T07:55:23Z</time>
      </trkpt>
      <trkpt lat="43.2863" lon="3.51633">
        <ele>25.6</ele>
        <time>2025-06-17T07:55:24Z</time>
      </trkpt>
      <trkpt lat="43.2863" lon="3.5164">
        <ele>25.6</ele>
        <time>2025-06-17T07:55:25Z</time>
      </trkpt>
      <trkpt lat="43.2863" lon="3.51647">
        <ele>25.6</ele>
        <time>2025-06-17T07:55:26Z</time>
      </trkpt>
      <trkpt lat="43.28631" lon="3.51654">
        <ele>25.8</ele>
        <time>2025-06-17T07:55:27Z</time>
      </trkpt>
      <trkpt lat="43.28632" lon="3.51661">
        <ele>25.8</ele>
        <time>2025-06-17T07:55:28Z</time>
      </trkpt>
      <trkpt lat="43.28633" lon="3.51668">
        <ele>25.8</ele>
        <time>2025-06-17T07:55:29Z</time>
      </trkpt>
      <trkpt lat="43.28634" lon="3.51674">
        <ele>25.8</ele>
        <time>2025-06-17T07:55:30Z</time>
      </trkpt>
      <trkpt lat="43.28636" lon="3.51682">
        <ele>26</ele>
        <time>2025-06-17T07:55:31Z</time>
      </trkpt>
      <trkpt lat="43.28637" lon="3.51688">
        <ele>26</ele>
        <time>2025-06-17T07:55:32Z</time>
      </trkpt>
      <trkpt lat="43.28641" lon="3.51695">
        <ele>26</ele>
        <time>2025-06-17T07:55:33Z</time>
      </trkpt>
      <trkpt lat="43.28645" lon="3.517">
        <ele>26</ele>
        <time>2025-06-17T07:55:34Z</time>
      </trkpt>
      <trkpt lat="43.28649" lon="3.51704">
        <ele>26</ele>
        <time>2025-06-17T07:55:35Z</time>
      </trkpt>
      <trkpt lat="43.28654" lon="3.51707">
        <ele>26</ele>
        <time>2025-06-17T07:55:36Z</time>
      </trkpt>
      <trkpt lat="43.28659" lon="3.51709">
        <ele>26</ele>
        <time>2025-06-17T07:55:37Z</time>
      </trkpt>
      <trkpt lat="43.28665" lon="3.51709">
        <ele>26</ele>
        <time>2025-06-17T07:55:38Z</time>
      </trkpt>
      <trkpt lat="43.28671" lon="3.51708">
        <ele>26</ele>
        <time>2025-06-17T07:55:39Z</time>
      </trkpt>
      <trkpt lat="43.28676" lon="3.51704">
        <ele>26</ele>
        <time>2025-06-17T07:55:40Z</time>
      </trkpt>
      <trkpt lat="43.2868" lon="3.51699">
        <ele>26</ele>
        <time>2025-06-17T07:55:41Z</time>
      </trkpt>
      <trkpt lat="43.28683" lon="3.51693">
        <ele>26</ele>
        <time>2025-06-17T07:55:42Z</time>
      </trkpt>
      <trkpt lat="43.28685" lon="3.51686">
        <ele>26</ele>
        <time>2025-06-17T07:55:43Z</time>
      </trkpt>
      <trkpt lat="43.28687" lon="3.51678">
        <ele>26</ele>
        <time>2025-06-17T07:55:44Z</time>
      </trkpt>
      <trkpt lat="43.28688" lon="3.5167">
        <ele>26</ele>
        <time>2025-06-17T07:55:45Z</time>
      </trkpt>
      <trkpt lat="43.28688" lon="3.51662">
        <ele>25.8</ele>
        <time>2025-06-17T07:55:46Z</time>
      </trkpt>
      <trkpt lat="43.28688" lon="3.51654">
        <ele>25.6</ele>
        <time>2025-06-17T07:55:47Z</time>
      </trkpt>
      <trkpt lat="43.28687" lon="3.51647">
        <ele>25.8</ele>
        <time>2025-06-17T07:55:48Z</time>
      </trkpt>
      <trkpt lat="43.28685" lon="3.51639">
        <ele>25.8</ele>
        <time>2025-06-17T07:55:49Z</time>
      </trkpt>
      <trkpt lat="43.28683" lon="3.51631">
        <ele>25.8</ele>
        <time>2025-06-17T07:55:50Z</time>
      </trkpt>
      <trkpt lat="43.2868" lon="3.51624">
        <ele>25.6</ele>
        <time>2025-06-17T07:55:51Z</time>
      </trkpt>
      <trkpt lat="43.28677" lon="3.51618">
        <ele>25.6</ele>
        <time>2025-06-17T07:55:52Z</time>
      </trkpt>
      <trkpt lat="43.28672" lon="3.51612">
        <ele>25.6</ele>
        <time>2025-06-17T07:55:53Z</time>
      </trkpt>
      <trkpt lat="43.28667" lon="3.51607">
        <ele>25.6</ele>
        <time>2025-06-17T07:55:54Z</time>
      </trkpt>
      <trkpt lat="43.28663" lon="3.51603">
        <ele>25.6</ele>
        <time>2025-06-17T07:55:55Z</time>
      </trkpt>
      <trkpt lat="43.28657" lon="3.51597">
        <ele>25.6</ele>
        <time>2025-06-17T07:55:56Z</time>
      </trkpt>
      <trkpt lat="43.28653" lon="3.51591">
        <ele>25.4</ele>
        <time>2025-06-17T07:55:57Z</time>
      </trkpt>
      <trkpt lat="43.28648" lon="3.51585">
        <ele>25.4</ele>
        <time>2025-06-17T07:55:58Z</time>
      </trkpt>
      <trkpt lat="43.28644" lon="3.51578">
        <ele>25.4</ele>
        <time>2025-06-17T07:55:59Z</time>
      </trkpt>
      <trkpt lat="43.2864" lon="3.51571">
        <ele>25.2</ele>
        <time>2025-06-17T07:56:00Z</time>
      </trkpt>
      <trkpt lat="43.28637" lon="3.51563">
        <ele>25.2</ele>
        <time>2025-06-17T07:56:01Z</time>
      </trkpt>
      <trkpt lat="43.28635" lon="3.51555">
        <ele>25.2</ele>
        <time>2025-06-17T07:56:02Z</time>
      </trkpt>
      <trkpt lat="43.28632" lon="3.51547">
        <ele>25</ele>
        <time>2025-06-17T07:56:03Z</time>
      </trkpt>
      <trkpt lat="43.2863" lon="3.51539">
        <ele>25</ele>
        <time>2025-06-17T07:56:04Z</time>
      </trkpt>
      <trkpt lat="43.28628" lon="3.5153">
        <ele>24.8</ele>
        <time>2025-06-17T07:56:05Z</time>
      </trkpt>
      <trkpt lat="43.28626" lon="3.51521">
        <ele>24.8</ele>
        <time>2025-06-17T07:56:06Z</time>
      </trkpt>
      <trkpt lat="43.28623" lon="3.51512">
        <ele>24.6</ele>
        <time>2025-06-17T07:56:07Z</time>
      </trkpt>
      <trkpt lat="43.28621" lon="3.51503">
        <ele>24.4</ele>
        <time>2025-06-17T07:56:08Z</time>
      </trkpt>
      <trkpt lat="43.28618" lon="3.51494">
        <ele>24.4</ele>
        <time>2025-06-17T07:56:09Z</time>
      </trkpt>
      <trkpt lat="43.28616" lon="3.51485">
        <ele>24.2</ele>
        <time>2025-06-17T07:56:10Z</time>
      </trkpt>
      <trkpt lat="43.28614" lon="3.51477">
        <ele>24</ele>
        <time>2025-06-17T07:56:11Z</time>
      </trkpt>
      <trkpt lat="43.28612" lon="3.51467">
        <ele>23.8</ele>
        <time>2025-06-17T07:56:12Z</time>
      </trkpt>
      <trkpt lat="43.28609" lon="3.51459">
        <ele>23.6</ele>
        <time>2025-06-17T07:56:13Z</time>
      </trkpt>
      <trkpt lat="43.28607" lon="3.5145">
        <ele>23.4</ele>
        <time>2025-06-17T07:56:14Z</time>
      </trkpt>
      <trkpt lat="43.28605" lon="3.51441">
        <ele>23.2</ele>
        <time>2025-06-17T07:56:15Z</time>
      </trkpt>
      <trkpt lat="43.28603" lon="3.51432">
        <ele>23</ele>
        <time>2025-06-17T07:56:16Z</time>
      </trkpt>
      <trkpt lat="43.28602" lon="3.51423">
        <ele>22.8</ele>
        <time>2025-06-17T07:56:17Z</time>
      </trkpt>
      <trkpt lat="43.28601" lon="3.51414">
        <ele>22.6</ele>
        <time>2025-06-17T07:56:18Z</time>
      </trkpt>
      <trkpt lat="43.28602" lon="3.51404">
        <ele>22.4</ele>
        <time>2025-06-17T07:56:19Z</time>
      </trkpt>
      <trkpt lat="43.28605" lon="3.51395">
        <ele>22.4</ele>
        <time>2025-06-17T07:56:20Z</time>
      </trkpt>
      <trkpt lat="43.28608" lon="3.51385">
        <ele>22.2</ele>
        <time>2025-06-17T07:56:21Z</time>
      </trkpt>
      <trkpt lat="43.2861" lon="3.51375">
        <ele>22</ele>
        <time>2025-06-17T07:56:22Z</time>
      </trkpt>
      <trkpt lat="43.28612" lon="3.51367">
        <ele>21.8</ele>
        <time>2025-06-17T07:56:23Z</time>
      </trkpt>
      <trkpt lat="43.28613" lon="3.51357">
        <ele>21.8</ele>
        <time>2025-06-17T07:56:24Z</time>
      </trkpt>
      <trkpt lat="43.28615" lon="3.51347">
        <ele>21.8</ele>
        <time>2025-06-17T07:56:25Z</time>
      </trkpt>
      <trkpt lat="43.28618" lon="3.51339">
        <ele>21.8</ele>
        <time>2025-06-17T07:56:26Z</time>
      </trkpt>
      <trkpt lat="43.28622" lon="3.51332">
        <ele>21.8</ele>
        <time>2025-06-17T07:56:27Z</time>
      </trkpt>
      <trkpt lat="43.28625" lon="3.51325">
        <ele>21.8</ele>
        <time>2025-06-17T07:56:28Z</time>
      </trkpt>
      <trkpt lat="43.2863" lon="3.51319">
        <ele>22</ele>
        <time>2025-06-17T07:56:29Z</time>
      </trkpt>
      <trkpt lat="43.28634" lon="3.51314">
        <ele>22.2</ele>
        <time>2025-06-17T07:56:30Z</time>
      </trkpt>
      <trkpt lat="43.28638" lon="3.51309">
        <ele>22.4</ele>
        <time>2025-06-17T07:56:31Z</time>
      </trkpt>
      <trkpt lat="43.28643" lon="3.51303">
        <ele>22.6</ele>
        <time>2025-06-17T07:56:32Z</time>
      </trkpt>
      <trkpt lat="43.28647" lon="3.51298">
        <ele>22.6</ele>
        <time>2025-06-17T07:56:33Z</time>
      </trkpt>
      <trkpt lat="43.28652" lon="3.51292">
        <ele>22.6</ele>
        <time>2025-06-17T07:56:34Z</time>
      </trkpt>
      <trkpt lat="43.28656" lon="3.51286">
        <ele>22.8</ele>
        <time>2025-06-17T07:56:35Z</time>
      </trkpt>
      <trkpt lat="43.2866" lon="3.5128">
        <ele>22.8</ele>
        <time>2025-06-17T07:56:36Z</time>
      </trkpt>
      <trkpt lat="43.28664" lon="3.51274">
        <ele>22.8</ele>
        <time>2025-06-17T07:56:37Z</time>
      </trkpt>
      <trkpt lat="43.28668" lon="3.51269">
        <ele>22.8</ele>
        <time>2025-06-17T07:56:38Z</time>
      </trkpt>
      <trkpt lat="43.28672" lon="3.51262">
        <ele>22.8</ele>
        <time>2025-06-17T07:56:39Z</time>
      </trkpt>
      <trkpt lat="43.28676" lon="3.51256">
        <ele>23</ele>
        <time>2025-06-17T07:56:40Z</time>
      </trkpt>
      <trkpt lat="43.2868" lon="3.5125">
        <ele>23</ele>
        <time>2025-06-17T07:56:41Z</time>
      </trkpt>
      <trkpt lat="43.28683" lon="3.51245">
        <ele>23.2</ele>
        <time>2025-06-17T07:56:42Z</time>
      </trkpt>
      <trkpt lat="43.28687" lon="3.51239">
        <ele>23.2</ele>
        <time>2025-06-17T07:56:43Z</time>
      </trkpt>
      <trkpt lat="43.28691" lon="3.51233">
        <ele>23.2</ele>
        <time>2025-06-17T07:56:44Z</time>
      </trkpt>
      <trkpt lat="43.28694" lon="3.51228">
        <ele>23.4</ele>
        <time>2025-06-17T07:56:45Z</time>
      </trkpt>
      <trkpt lat="43.28698" lon="3.51221">
        <ele>23.4</ele>
        <time>2025-06-17T07:56:46Z</time>
      </trkpt>
      <trkpt lat="43.28702" lon="3.51215">
        <ele>23.6</ele>
        <time>2025-06-17T07:56:47Z</time>
      </trkpt>
      <trkpt lat="43.28705" lon="3.51209">
        <ele>23.6</ele>
        <time>2025-06-17T07:56:48Z</time>
      </trkpt>
      <trkpt lat="43.28708" lon="3.51204">
        <ele>23.8</ele>
        <time>2025-06-17T07:56:49Z</time>
      </trkpt>
      <trkpt lat="43.28713" lon="3.51198">
        <ele>23.8</ele>
        <time>2025-06-17T07:56:50Z</time>
      </trkpt>
      <trkpt lat="43.28717" lon="3.51193">
        <ele>24</ele>
        <time>2025-06-17T07:56:51Z</time>
      </trkpt>
      <trkpt lat="43.28721" lon="3.51187">
        <ele>24</ele>
        <time>2025-06-17T07:56:52Z</time>
      </trkpt>
      <trkpt lat="43.28725" lon="3.51183">
        <ele>24</ele>
        <time>2025-06-17T07:56:53Z</time>
      </trkpt>
      <trkpt lat="43.28729" lon="3.51178">
        <ele>24</ele>
        <time>2025-06-17T07:56:54Z</time>
      </trkpt>
      <trkpt lat="43.28732" lon="3.51174">
        <ele>24</ele>
        <time>2025-06-17T07:56:55Z</time>
      </trkpt>
      <trkpt lat="43.28737" lon="3.5117">
        <ele>24.2</ele>
        <time>2025-06-17T07:56:56Z</time>
      </trkpt>
      <trkpt lat="43.28741" lon="3.51166">
        <ele>24.2</ele>
        <time>2025-06-17T07:56:57Z</time>
      </trkpt>
      <trkpt lat="43.28745" lon="3.51163">
        <ele>24.4</ele>
        <time>2025-06-17T07:56:58Z</time>
      </trkpt>
      <trkpt lat="43.2875" lon="3.51159">
        <ele>24.4</ele>
        <time>2025-06-17T07:56:59Z</time>
      </trkpt>
      <trkpt lat="43.28754" lon="3.51156">
        <ele>24.6</ele>
        <time>2025-06-17T07:57:00Z</time>
      </trkpt>
      <trkpt lat="43.28759" lon="3.51154">
        <ele>24.6</ele>
        <time>2025-06-17T07:57:01Z</time>
      </trkpt>
      <trkpt lat="43.28763" lon="3.51152">
        <ele>24.6</ele>
        <time>2025-06-17T07:57:02Z</time>
      </trkpt>
      <trkpt lat="43.28768" lon="3.51149">
        <ele>24.8</ele>
        <time>2025-06-17T07:57:03Z</time>
      </trkpt>
      <trkpt lat="43.28773" lon="3.51147">
        <ele>24.8</ele>
        <time>2025-06-17T07:57:04Z</time>
      </trkpt>
      <trkpt lat="43.28778" lon="3.51146">
        <ele>25</ele>
        <time>2025-06-17T07:57:05Z</time>
      </trkpt>
      <trkpt lat="43.28782" lon="3.51145">
        <ele>25</ele>
        <time>2025-06-17T07:57:06Z</time>
      </trkpt>
      <trkpt lat="43.28787" lon="3.51143">
        <ele>25.2</ele>
        <time>2025-06-17T07:57:07Z</time>
      </trkpt>
      <trkpt lat="43.28792" lon="3.51142">
        <ele>25.2</ele>
        <time>2025-06-17T07:57:08Z</time>
      </trkpt>
      <trkpt lat="43.28797" lon="3.51141">
        <ele>25.2</ele>
        <time>2025-06-17T07:57:09Z</time>
      </trkpt>
      <trkpt lat="43.28802" lon="3.51139">
        <ele>25.2</ele>
        <time>2025-06-17T07:57:10Z</time>
      </trkpt>
      <trkpt lat="43.28807" lon="3.51138">
        <ele>25.4</ele>
        <time>2025-06-17T07:57:11Z</time>
      </trkpt>
      <trkpt lat="43.28812" lon="3.51137">
        <ele>25.4</ele>
        <time>2025-06-17T07:57:12Z</time>
      </trkpt>
      <trkpt lat="43.28816" lon="3.51136">
        <ele>25.4</ele>
        <time>2025-06-17T07:57:13Z</time>
      </trkpt>
      <trkpt lat="43.28822" lon="3.51134">
        <ele>25.6</ele>
        <time>2025-06-17T07:57:14Z</time>
      </trkpt>
      <trkpt lat="43.28827" lon="3.51132">
        <ele>25.6</ele>
        <time>2025-06-17T07:57:15Z</time>
      </trkpt>
      <trkpt lat="43.28831" lon="3.5113">
        <ele>25.8</ele>
        <time>2025-06-17T07:57:16Z</time>
      </trkpt>
      <trkpt lat="43.28836" lon="3.51127">
        <ele>25.8</ele>
        <time>2025-06-17T07:57:17Z</time>
      </trkpt>
      <trkpt lat="43.28841" lon="3.51124">
        <ele>25.8</ele>
        <time>2025-06-17T07:57:18Z</time>
      </trkpt>
      <trkpt lat="43.28845" lon="3.51121">
        <ele>26</ele>
        <time>2025-06-17T07:57:19Z</time>
      </trkpt>
      <trkpt lat="43.28849" lon="3.51118">
        <ele>26</ele>
        <time>2025-06-17T07:57:20Z</time>
      </trkpt>
      <trkpt lat="43.28853" lon="3.51114">
        <ele>26</ele>
        <time>2025-06-17T07:57:21Z</time>
      </trkpt>
      <trkpt lat="43.28857" lon="3.5111">
        <ele>26.2</ele>
        <time>2025-06-17T07:57:22Z</time>
      </trkpt>
      <trkpt lat="43.28861" lon="3.51106">
        <ele>26.2</ele>
        <time>2025-06-17T07:57:23Z</time>
      </trkpt>
      <trkpt lat="43.28865" lon="3.51101">
        <ele>26.2</ele>
        <time>2025-06-17T07:57:24Z</time>
      </trkpt>
      <trkpt lat="43.28868" lon="3.51096">
        <ele>26.4</ele>
        <time>2025-06-17T07:57:25Z</time>
      </trkpt>
      <trkpt lat="43.28871" lon="3.51092">
        <ele>26.4</ele>
        <time>2025-06-17T07:57:26Z</time>
      </trkpt>
      <trkpt lat="43.28874" lon="3.51088">
        <ele>26.6</ele>
        <time>2025-06-17T07:57:27Z</time>
      </trkpt>
      <trkpt lat="43.28876" lon="3.51086">
        <ele>26.8</ele>
        <time>2025-06-17T07:57:28Z</time>
      </trkpt>
      <trkpt lat="43.28879" lon="3.51084">
        <ele>26.8</ele>
        <time>2025-06-17T07:57:29Z</time>
      </trkpt>
      <trkpt lat="43.28881" lon="3.51081">
        <ele>26.8</ele>
        <time>2025-06-17T07:57:30Z</time>
      </trkpt>
      <trkpt lat="43.28884" lon="3.51077">
        <ele>26.8</ele>
        <time>2025-06-17T07:57:31Z</time>
      </trkpt>
      <trkpt lat="43.28887" lon="3.51074">
        <ele>27</ele>
        <time>2025-06-17T07:57:32Z</time>
      </trkpt>
      <trkpt lat="43.28889" lon="3.5107">
        <ele>27</ele>
        <time>2025-06-17T07:57:33Z</time>
      </trkpt>
      <trkpt lat="43.28892" lon="3.51066">
        <ele>27.2</ele>
        <time>2025-06-17T07:57:34Z</time>
      </trkpt>
      <trkpt lat="43.28894" lon="3.51062">
        <ele>27.2</ele>
        <time>2025-06-17T07:57:35Z</time>
      </trkpt>
      <trkpt lat="43.28896" lon="3.51059">
        <ele>27.2</ele>
        <time>2025-06-17T07:57:36Z</time>
      </trkpt>
      <trkpt lat="43.28899" lon="3.51057">
        <ele>27.4</ele>
        <time>2025-06-17T07:57:37Z</time>
      </trkpt>
      <trkpt lat="43.28902" lon="3.51057">
        <ele>27.4</ele>
        <time>2025-06-17T07:57:38Z</time>
      </trkpt>
      <trkpt lat="43.28905" lon="3.51057">
        <ele>27.4</ele>
        <time>2025-06-17T07:57:39Z</time>
      </trkpt>
      <trkpt lat="43.28908" lon="3.51057">
        <ele>27.4</ele>
        <time>2025-06-17T07:57:40Z</time>
      </trkpt>
      <trkpt lat="43.28911" lon="3.51058">
        <ele>27.6</ele>
        <time>2025-06-17T07:57:41Z</time>
      </trkpt>
      <trkpt lat="43.28913" lon="3.51059">
        <ele>27.6</ele>
        <time>2025-06-17T07:57:42Z</time>
      </trkpt>
      <trkpt lat="43.28917" lon="3.51061">
        <ele>27.6</ele>
        <time>2025-06-17T07:57:43Z</time>
      </trkpt>
      <trkpt lat="43.28919" lon="3.51064">
        <ele>27.6</ele>
        <time>2025-06-17T07:57:44Z</time>
      </trkpt>
      <trkpt lat="43.28922" lon="3.51068">
        <ele>27.6</ele>
        <time>2025-06-17T07:57:45Z</time>
      </trkpt>
      <trkpt lat="43.28923" lon="3.51073">
        <ele>27.6</ele>
        <time>2025-06-17T07:57:46Z</time>
      </trkpt>
      <trkpt lat="43.28925" lon="3.51077">
        <ele>27.6</ele>
        <time>2025-06-17T07:57:47Z</time>
      </trkpt>
      <trkpt lat="43.28927" lon="3.51081">
        <ele>27.6</ele>
        <time>2025-06-17T07:57:48Z</time>
      </trkpt>
      <trkpt lat="43.28928" lon="3.51084">
        <ele>27.6</ele>
        <time>2025-06-17T07:57:49Z</time>
      </trkpt>
      <trkpt lat="43.28929" lon="3.51086">
        <ele>27.6</ele>
        <time>2025-06-17T07:57:50Z</time>
      </trkpt>
      <trkpt lat="43.2893" lon="3.51088">
        <ele>27.6</ele>
        <time>2025-06-17T07:58:23Z</time>
      </trkpt>
      <trkpt lat="43.28932" lon="3.51089">
        <ele>27.6</ele>
        <time>2025-06-17T07:58:24Z</time>
      </trkpt>
      <trkpt lat="43.28933" lon="3.51089">
        <ele>27.6</ele>
        <time>2025-06-17T07:58:25Z</time>
      </trkpt>
      <trkpt lat="43.28933" lon="3.51089">
        <ele>27.6</ele>
        <time>2025-06-17T07:58:26Z</time>
      </trkpt>
      <trkpt lat="43.28933" lon="3.51089">
        <ele>27.6</ele>
        <time>2025-06-17T07:58:27Z</time>
      </trkpt>
      <trkpt lat="43.28934" lon="3.51089">
        <ele>27.6</ele>
        <time>2025-06-17T07:58:28Z</time>
      </trkpt>
      <trkpt lat="43.28934" lon="3.51089">
        <ele>27.6</ele>
        <time>2025-06-17T07:58:29Z</time>
      </trkpt>
      <trkpt lat="43.28934" lon="3.51089">
        <ele>27.6</ele>
        <time>2025-06-17T07:58:30Z</time>
      </trkpt>
      <trkpt lat="43.2894" lon="3.51087">
        <ele>27.6</ele>
        <time>2025-06-17T07:58:31Z</time>
      </trkpt>
      <trkpt lat="43.28941" lon="3.51086">
        <ele>27.8</ele>
        <time>2025-06-17T07:58:32Z</time>
      </trkpt>
      <trkpt lat="43.28943" lon="3.51085">
        <ele>27.8</ele>
        <time>2025-06-17T07:58:33Z</time>
      </trkpt>
      <trkpt lat="43.28944" lon="3.51085">
        <ele>27.8</ele>
        <time>2025-06-17T07:58:34Z</time>
      </trkpt>
      <trkpt lat="43.28946" lon="3.51084">
        <ele>27.8</ele>
        <time>2025-06-17T07:58:35Z</time>
      </trkpt>
      <trkpt lat="43.28946" lon="3.51083">
        <ele>27.8</ele>
        <time>2025-06-17T07:58:36Z</time>
      </trkpt>
      <trkpt lat="43.28947" lon="3.51083">
        <ele>27.8</ele>
        <time>2025-06-17T07:58:37Z</time>
      </trkpt>
      <trkpt lat="43.28948" lon="3.51082">
        <ele>27.8</ele>
        <time>2025-06-17T07:58:38Z</time>
      </trkpt>
      <trkpt lat="43.2895" lon="3.51081">
        <ele>27.8</ele>
        <time>2025-06-17T07:58:39Z</time>
      </trkpt>
      <trkpt lat="43.28952" lon="3.5108">
        <ele>27.8</ele>
        <time>2025-06-17T07:58:40Z</time>
      </trkpt>
      <trkpt lat="43.28953" lon="3.51077">
        <ele>27.8</ele>
        <time>2025-06-17T07:58:41Z</time>
      </trkpt>
      <trkpt lat="43.28954" lon="3.51074">
        <ele>27.8</ele>
        <time>2025-06-17T07:58:42Z</time>
      </trkpt>
      <trkpt lat="43.28954" lon="3.5107">
        <ele>27.8</ele>
        <time>2025-06-17T07:58:43Z</time>
      </trkpt>
      <trkpt lat="43.28952" lon="3.51066">
        <ele>27.8</ele>
        <time>2025-06-17T07:58:44Z</time>
      </trkpt>
      <trkpt lat="43.2895" lon="3.51062">
        <ele>27.8</ele>
        <time>2025-06-17T07:58:45Z</time>
      </trkpt>
      <trkpt lat="43.28948" lon="3.51057">
        <ele>27.8</ele>
        <time>2025-06-17T07:58:46Z</time>
      </trkpt>
      <trkpt lat="43.28946" lon="3.51053">
        <ele>27.8</ele>
        <time>2025-06-17T07:58:47Z</time>
      </trkpt>
      <trkpt lat="43.28943" lon="3.51048">
        <ele>27.8</ele>
        <time>2025-06-17T07:58:48Z</time>
      </trkpt>
      <trkpt lat="43.28941" lon="3.51043">
        <ele>27.8</ele>
        <time>2025-06-17T07:58:49Z</time>
      </trkpt>
      <trkpt lat="43.28939" lon="3.51038">
        <ele>27.8</ele>
        <time>2025-06-17T07:58:50Z</time>
      </trkpt>
      <trkpt lat="43.28937" lon="3.51033">
        <ele>27.8</ele>
        <time>2025-06-17T07:58:51Z</time>
      </trkpt>
      <trkpt lat="43.28935" lon="3.51027">
        <ele>27.8</ele>
        <time>2025-06-17T07:58:52Z</time>
      </trkpt>
      <trkpt lat="43.28933" lon="3.51022">
        <ele>27.8</ele>
        <time>2025-06-17T07:58:53Z</time>
      </trkpt>
      <trkpt lat="43.28931" lon="3.51015">
        <ele>27.8</ele>
        <time>2025-06-17T07:58:54Z</time>
      </trkpt>
      <trkpt lat="43.28929" lon="3.51007">
        <ele>27.8</ele>
        <time>2025-06-17T07:58:55Z</time>
      </trkpt>
      <trkpt lat="43.28928" lon="3.51">
        <ele>27.8</ele>
        <time>2025-06-17T07:58:56Z</time>
      </trkpt>
      <trkpt lat="43.28927" lon="3.50993">
        <ele>27.8</ele>
        <time>2025-06-17T07:58:57Z</time>
      </trkpt>
      <trkpt lat="43.28927" lon="3.50986">
        <ele>27.8</ele>
        <time>2025-06-17T07:58:58Z</time>
      </trkpt>
      <trkpt lat="43.28927" lon="3.5098">
        <ele>27.8</ele>
        <time>2025-06-17T07:58:59Z</time>
      </trkpt>
      <trkpt lat="43.28928" lon="3.50973">
        <ele>27.8</ele>
        <time>2025-06-17T07:59:00Z</time>
      </trkpt>
      <trkpt lat="43.28928" lon="3.50966">
        <ele>27.8</ele>
        <time>2025-06-17T07:59:01Z</time>
      </trkpt>
      <trkpt lat="43.28928" lon="3.50959">
        <ele>27.8</ele>
        <time>2025-06-17T07:59:02Z</time>
      </trkpt>
      <trkpt lat="43.28929" lon="3.50951">
        <ele>27.8</ele>
        <time>2025-06-17T07:59:03Z</time>
      </trkpt>
      <trkpt lat="43.2893" lon="3.50945">
        <ele>27.8</ele>
        <time>2025-06-17T07:59:04Z</time>
      </trkpt>
      <trkpt lat="43.28931" lon="3.50937">
        <ele>27.8</ele>
        <time>2025-06-17T07:59:05Z</time>
      </trkpt>
      <trkpt lat="43.28931" lon="3.50931">
        <ele>27.8</ele>
        <time>2025-06-17T07:59:06Z</time>
      </trkpt>
      <trkpt lat="43.28932" lon="3.50924">
        <ele>27.8</ele>
        <time>2025-06-17T07:59:07Z</time>
      </trkpt>
      <trkpt lat="43.28933" lon="3.50917">
        <ele>28</ele>
        <time>2025-06-17T07:59:08Z</time>
      </trkpt>
      <trkpt lat="43.28933" lon="3.5091">
        <ele>28</ele>
        <time>2025-06-17T07:59:09Z</time>
      </trkpt>
      <trkpt lat="43.28933" lon="3.50903">
        <ele>28</ele>
        <time>2025-06-17T07:59:10Z</time>
      </trkpt>
      <trkpt lat="43.28932" lon="3.50896">
        <ele>28</ele>
        <time>2025-06-17T07:59:11Z</time>
      </trkpt>
      <trkpt lat="43.28932" lon="3.5089">
        <ele>28</ele>
        <time>2025-06-17T07:59:12Z</time>
      </trkpt>
      <trkpt lat="43.28932" lon="3.50882">
        <ele>28.2</ele>
        <time>2025-06-17T07:59:13Z</time>
      </trkpt>
      <trkpt lat="43.28931" lon="3.50875">
        <ele>28.2</ele>
        <time>2025-06-17T07:59:14Z</time>
      </trkpt>
      <trkpt lat="43.28931" lon="3.50868">
        <ele>28.2</ele>
        <time>2025-06-17T07:59:15Z</time>
      </trkpt>
      <trkpt lat="43.2893" lon="3.50862">
        <ele>28.2</ele>
        <time>2025-06-17T07:59:16Z</time>
      </trkpt>
      <trkpt lat="43.2893" lon="3.50855">
        <ele>28.2</ele>
        <time>2025-06-17T07:59:17Z</time>
      </trkpt>
      <trkpt lat="43.2893" lon="3.50848">
        <ele>28.2</ele>
        <time>2025-06-17T07:59:18Z</time>
      </trkpt>
      <trkpt lat="43.2893" lon="3.50843">
        <ele>28.2</ele>
        <time>2025-06-17T07:59:19Z</time>
      </trkpt>
      <trkpt lat="43.2893" lon="3.50835">
        <ele>28.2</ele>
        <time>2025-06-17T07:59:20Z</time>
      </trkpt>
      <trkpt lat="43.2893" lon="3.50828">
        <ele>28.2</ele>
        <time>2025-06-17T07:59:21Z</time>
      </trkpt>
      <trkpt lat="43.28931" lon="3.50822">
        <ele>28.4</ele>
        <time>2025-06-17T07:59:22Z</time>
      </trkpt>
      <trkpt lat="43.28931" lon="3.50815">
        <ele>28.4</ele>
        <time>2025-06-17T07:59:23Z</time>
      </trkpt>
      <trkpt lat="43.28932" lon="3.50809">
        <ele>28.4</ele>
        <time>2025-06-17T07:59:24Z</time>
      </trkpt>
      <trkpt lat="43.28934" lon="3.50803">
        <ele>28.6</ele>
        <time>2025-06-17T07:59:25Z</time>
      </trkpt>
      <trkpt lat="43.28936" lon="3.50797">
        <ele>28.6</ele>
        <time>2025-06-17T07:59:26Z</time>
      </trkpt>
      <trkpt lat="43.28938" lon="3.50791">
        <ele>28.8</ele>
        <time>2025-06-17T07:59:27Z</time>
      </trkpt>
      <trkpt lat="43.28939" lon="3.50786">
        <ele>28.8</ele>
        <time>2025-06-17T07:59:28Z</time>
      </trkpt>
      <trkpt lat="43.28942" lon="3.5078">
        <ele>29</ele>
        <time>2025-06-17T07:59:29Z</time>
      </trkpt>
      <trkpt lat="43.28944" lon="3.50776">
        <ele>29</ele>
        <time>2025-06-17T07:59:30Z</time>
      </trkpt>
      <trkpt lat="43.28947" lon="3.50771">
        <ele>29.2</ele>
        <time>2025-06-17T07:59:31Z</time>
      </trkpt>
      <trkpt lat="43.2895" lon="3.50768">
        <ele>29.4</ele>
        <time>2025-06-17T07:59:32Z</time>
      </trkpt>
      <trkpt lat="43.28954" lon="3.50765">
        <ele>29.4</ele>
        <time>2025-06-17T07:59:33Z</time>
      </trkpt>
      <trkpt lat="43.28957" lon="3.50762">
        <ele>29.6</ele>
        <time>2025-06-17T07:59:34Z</time>
      </trkpt>
      <trkpt lat="43.28961" lon="3.50759">
        <ele>29.6</ele>
        <time>2025-06-17T07:59:35Z</time>
      </trkpt>
      <trkpt lat="43.28965" lon="3.50756">
        <ele>29.6</ele>
        <time>2025-06-17T07:59:36Z</time>
      </trkpt>
      <trkpt lat="43.28969" lon="3.50753">
        <ele>29.8</ele>
        <time>2025-06-17T07:59:37Z</time>
      </trkpt>
      <trkpt lat="43.28972" lon="3.5075">
        <ele>29.8</ele>
        <time>2025-06-17T07:59:38Z</time>
      </trkpt>
      <trkpt lat="43.28976" lon="3.50747">
        <ele>29.8</ele>
        <time>2025-06-17T07:59:39Z</time>
      </trkpt>
      <trkpt lat="43.2898" lon="3.50744">
        <ele>29.8</ele>
        <time>2025-06-17T07:59:40Z</time>
      </trkpt>
      <trkpt lat="43.28984" lon="3.50741">
        <ele>29.8</ele>
        <time>2025-06-17T07:59:41Z</time>
      </trkpt>
      <trkpt lat="43.28987" lon="3.50738">
        <ele>29.8</ele>
        <time>2025-06-17T07:59:42Z</time>
      </trkpt>
      <trkpt lat="43.28992" lon="3.50736">
        <ele>30</ele>
        <time>2025-06-17T07:59:43Z</time>
      </trkpt>
      <trkpt lat="43.28995" lon="3.50736">
        <ele>30</ele>
        <time>2025-06-17T07:59:44Z</time>
      </trkpt>
      <trkpt lat="43.29" lon="3.50736">
        <ele>30</ele>
        <time>2025-06-17T07:59:45Z</time>
      </trkpt>
      <trkpt lat="43.29005" lon="3.50735">
        <ele>30</ele>
        <time>2025-06-17T07:59:46Z</time>
      </trkpt>
      <trkpt lat="43.2901" lon="3.50735">
        <ele>30</ele>
        <time>2025-06-17T07:59:47Z</time>
      </trkpt>
      <trkpt lat="43.29014" lon="3.50734">
        <ele>30.2</ele>
        <time>2025-06-17T07:59:48Z</time>
      </trkpt>
      <trkpt lat="43.29018" lon="3.50732">
        <ele>30.2</ele>
        <time>2025-06-17T07:59:49Z</time>
      </trkpt>
      <trkpt lat="43.29022" lon="3.5073">
        <ele>30.4</ele>
        <time>2025-06-17T07:59:50Z</time>
      </trkpt>
      <trkpt lat="43.29027" lon="3.50728">
        <ele>30.4</ele>
        <time>2025-06-17T07:59:51Z</time>
      </trkpt>
      <trkpt lat="43.29031" lon="3.50727">
        <ele>30.6</ele>
        <time>2025-06-17T07:59:52Z</time>
      </trkpt>
      <trkpt lat="43.29036" lon="3.50725">
        <ele>30.6</ele>
        <time>2025-06-17T07:59:53Z</time>
      </trkpt>
      <trkpt lat="43.29039" lon="3.50722">
        <ele>30.8</ele>
        <time>2025-06-17T07:59:54Z</time>
      </trkpt>
      <trkpt lat="43.29043" lon="3.5072">
        <ele>30.8</ele>
        <time>2025-06-17T07:59:55Z</time>
      </trkpt>
      <trkpt lat="43.29048" lon="3.50718">
        <ele>30.8</ele>
        <time>2025-06-17T07:59:56Z</time>
      </trkpt>
      <trkpt lat="43.29053" lon="3.50716">
        <ele>30.8</ele>
        <time>2025-06-17T07:59:57Z</time>
      </trkpt>
      <trkpt lat="43.29056" lon="3.50715">
        <ele>31</ele>
        <time>2025-06-17T07:59:58Z</time>
      </trkpt>
      <trkpt lat="43.2906" lon="3.50713">
        <ele>31</ele>
        <time>2025-06-17T07:59:59Z</time>
      </trkpt>
      <trkpt lat="43.29064" lon="3.50711">
        <ele>31</ele>
        <time>2025-06-17T08:00:00Z</time>
      </trkpt>
      <trkpt lat="43.29068" lon="3.50709">
        <ele>31.2</ele>
        <time>2025-06-17T08:00:01Z</time>
      </trkpt>
      <trkpt lat="43.29073" lon="3.50707">
        <ele>31.2</ele>
        <time>2025-06-17T08:00:02Z</time>
      </trkpt>
      <trkpt lat="43.29077" lon="3.50704">
        <ele>31.2</ele>
        <time>2025-06-17T08:00:03Z</time>
      </trkpt>
      <trkpt lat="43.29081" lon="3.50702">
        <ele>31.4</ele>
        <time>2025-06-17T08:00:04Z</time>
      </trkpt>
      <trkpt lat="43.29084" lon="3.507">
        <ele>31.4</ele>
        <time>2025-06-17T08:00:05Z</time>
      </trkpt>
      <trkpt lat="43.29085" lon="3.50698">
        <ele>31.6</ele>
        <time>2025-06-17T08:00:06Z</time>
      </trkpt>
      <trkpt lat="43.29089" lon="3.50685">
        <ele>31.8</ele>
        <time>2025-06-17T08:01:17Z</time>
      </trkpt>
      <trkpt lat="43.2909" lon="3.50684">
        <ele>31.8</ele>
        <time>2025-06-17T08:01:18Z</time>
      </trkpt>
      <trkpt lat="43.29093" lon="3.50682">
        <ele>32</ele>
        <time>2025-06-17T08:01:19Z</time>
      </trkpt>
      <trkpt lat="43.29096" lon="3.5068">
        <ele>32</ele>
        <time>2025-06-17T08:01:20Z</time>
      </trkpt>
      <trkpt lat="43.29099" lon="3.50679">
        <ele>32</ele>
        <time>2025-06-17T08:01:21Z</time>
      </trkpt>
      <trkpt lat="43.29103" lon="3.50677">
        <ele>32</ele>
        <time>2025-06-17T08:01:22Z</time>
      </trkpt>
      <trkpt lat="43.29107" lon="3.50675">
        <ele>32</ele>
        <time>2025-06-17T08:01:23Z</time>
      </trkpt>
      <trkpt lat="43.29111" lon="3.50673">
        <ele>32</ele>
        <time>2025-06-17T08:01:24Z</time>
      </trkpt>
      <trkpt lat="43.29115" lon="3.5067">
        <ele>32</ele>
        <time>2025-06-17T08:01:25Z</time>
      </trkpt>
      <trkpt lat="43.29119" lon="3.50668">
        <ele>32</ele>
        <time>2025-06-17T08:01:26Z</time>
      </trkpt>
      <trkpt lat="43.29124" lon="3.50665">
        <ele>32</ele>
        <time>2025-06-17T08:01:27Z</time>
      </trkpt>
      <trkpt lat="43.29128" lon="3.50663">
        <ele>32</ele>
        <time>2025-06-17T08:01:28Z</time>
      </trkpt>
      <trkpt lat="43.29132" lon="3.5066">
        <ele>32</ele>
        <time>2025-06-17T08:01:29Z</time>
      </trkpt>
      <trkpt lat="43.29137" lon="3.50658">
        <ele>32</ele>
        <time>2025-06-17T08:01:30Z</time>
      </trkpt>
      <trkpt lat="43.29142" lon="3.50655">
        <ele>32</ele>
        <time>2025-06-17T08:01:31Z</time>
      </trkpt>
      <trkpt lat="43.29146" lon="3.50653">
        <ele>32</ele>
        <time>2025-06-17T08:01:32Z</time>
      </trkpt>
      <trkpt lat="43.2915" lon="3.5065">
        <ele>32</ele>
        <time>2025-06-17T08:01:33Z</time>
      </trkpt>
      <trkpt lat="43.29154" lon="3.50648">
        <ele>32</ele>
        <time>2025-06-17T08:01:34Z</time>
      </trkpt>
      <trkpt lat="43.29158" lon="3.50646">
        <ele>32</ele>
        <time>2025-06-17T08:01:35Z</time>
      </trkpt>
      <trkpt lat="43.29162" lon="3.50644">
        <ele>32.2</ele>
        <time>2025-06-17T08:01:36Z</time>
      </trkpt>
      <trkpt lat="43.29166" lon="3.50642">
        <ele>32.4</ele>
        <time>2025-06-17T08:01:37Z</time>
      </trkpt>
      <trkpt lat="43.29169" lon="3.5064">
        <ele>32.4</ele>
        <time>2025-06-17T08:01:38Z</time>
      </trkpt>
      <trkpt lat="43.29173" lon="3.50638">
        <ele>32.4</ele>
        <time>2025-06-17T08:01:39Z</time>
      </trkpt>
      <trkpt lat="43.29176" lon="3.50637">
        <ele>32.6</ele>
        <time>2025-06-17T08:01:40Z</time>
      </trkpt>
      <trkpt lat="43.29178" lon="3.50635">
        <ele>32.6</ele>
        <time>2025-06-17T08:01:41Z</time>
      </trkpt>
      <trkpt lat="43.29181" lon="3.50633">
        <ele>32.8</ele>
        <time>2025-06-17T08:01:42Z</time>
      </trkpt>
      <trkpt lat="43.29184" lon="3.50632">
        <ele>32.8</ele>
        <time>2025-06-17T08:01:43Z</time>
      </trkpt>
      <trkpt lat="43.29186" lon="3.5063">
        <ele>32.8</ele>
        <time>2025-06-17T08:01:44Z</time>
      </trkpt>
      <trkpt lat="43.29189" lon="3.50628">
        <ele>32.8</ele>
        <time>2025-06-17T08:01:45Z</time>
      </trkpt>
      <trkpt lat="43.29191" lon="3.50626">
        <ele>32.8</ele>
        <time>2025-06-17T08:01:46Z</time>
      </trkpt>
      <trkpt lat="43.29194" lon="3.50625">
        <ele>33</ele>
        <time>2025-06-17T08:01:47Z</time>
      </trkpt>
      <trkpt lat="43.29196" lon="3.50624">
        <ele>33</ele>
        <time>2025-06-17T08:01:48Z</time>
      </trkpt>
      <trkpt lat="43.29197" lon="3.50623">
        <ele>33.2</ele>
        <time>2025-06-17T08:01:49Z</time>
      </trkpt>
      <trkpt lat="43.29199" lon="3.50622">
        <ele>33.2</ele>
        <time>2025-06-17T08:01:50Z</time>
      </trkpt>
      <trkpt lat="43.29202" lon="3.50621">
        <ele>33.2</ele>
        <time>2025-06-17T08:01:51Z</time>
      </trkpt>
      <trkpt lat="43.29204" lon="3.5062">
        <ele>33.4</ele>
        <time>2025-06-17T08:01:52Z</time>
      </trkpt>
      <trkpt lat="43.29206" lon="3.50618">
        <ele>33.4</ele>
        <time>2025-06-17T08:01:53Z</time>
      </trkpt>
      <trkpt lat="43.29209" lon="3.50617">
        <ele>33.4</ele>
        <time>2025-06-17T08:01:54Z</time>
      </trkpt>
      <trkpt lat="43.29211" lon="3.50615">
        <ele>33.4</ele>
        <time>2025-06-17T08:01:55Z</time>
      </trkpt>
      <trkpt lat="43.29213" lon="3.50614">
        <ele>33.6</ele>
        <time>2025-06-17T08:01:56Z</time>
      </trkpt>
      <trkpt lat="43.29204" lon="3.50619">
        <ele>33.6</ele>
        <time>2025-06-17T08:02:17Z</time>
      </trkpt>
      <trkpt lat="43.29203" lon="3.5062">
        <ele>33.6</ele>
        <time>2025-06-17T08:02:18Z</time>
      </trkpt>
      <trkpt lat="43.29201" lon="3.5062">
        <ele>33.6</ele>
        <time>2025-06-17T08:02:19Z</time>
      </trkpt>
      <trkpt lat="43.29201" lon="3.50621">
        <ele>33.6</ele>
        <time>2025-06-17T08:02:20Z</time>
      </trkpt>
      <trkpt lat="43.29199" lon="3.50621">
        <ele>33.6</ele>
        <time>2025-06-17T08:02:21Z</time>
      </trkpt>
      <trkpt lat="43.29198" lon="3.50622">
        <ele>33.6</ele>
        <time>2025-06-17T08:02:22Z</time>
      </trkpt>
      <trkpt lat="43.29196" lon="3.50623">
        <ele>33.6</ele>
        <time>2025-06-17T08:02:23Z</time>
      </trkpt>
      <trkpt lat="43.29195" lon="3.50624">
        <ele>33.6</ele>
        <time>2025-06-17T08:02:24Z</time>
      </trkpt>
      <trkpt lat="43.29194" lon="3.50624">
        <ele>33.6</ele>
        <time>2025-06-17T08:02:25Z</time>
      </trkpt>
      <trkpt lat="43.29193" lon="3.50625">
        <ele>33.4</ele>
        <time>2025-06-17T08:02:26Z</time>
      </trkpt>
      <trkpt lat="43.29191" lon="3.50626">
        <ele>33.4</ele>
        <time>2025-06-17T08:02:27Z</time>
      </trkpt>
      <trkpt lat="43.2919" lon="3.50627">
        <ele>33.4</ele>
        <time>2025-06-17T08:02:28Z</time>
      </trkpt>
      <trkpt lat="43.29189" lon="3.50628">
        <ele>33.4</ele>
        <time>2025-06-17T08:02:29Z</time>
      </trkpt>
      <trkpt lat="43.29188" lon="3.50628">
        <ele>33.4</ele>
        <time>2025-06-17T08:02:30Z</time>
      </trkpt>
      <trkpt lat="43.29186" lon="3.50629">
        <ele>33.4</ele>
        <time>2025-06-17T08:02:31Z</time>
      </trkpt>
      <trkpt lat="43.29185" lon="3.5063">
        <ele>33.4</ele>
        <time>2025-06-17T08:02:32Z</time>
      </trkpt>
      <trkpt lat="43.29183" lon="3.50631">
        <ele>33.2</ele>
        <time>2025-06-17T08:02:33Z</time>
      </trkpt>
      <trkpt lat="43.29182" lon="3.50632">
        <ele>33.2</ele>
        <time>2025-06-17T08:02:34Z</time>
      </trkpt>
      <trkpt lat="43.29181" lon="3.50633">
        <ele>33.2</ele>
        <time>2025-06-17T08:02:35Z</time>
      </trkpt>
      <trkpt lat="43.29179" lon="3.50633">
        <ele>33.2</ele>
        <time>2025-06-17T08:02:36Z</time>
      </trkpt>
      <trkpt lat="43.29178" lon="3.50634">
        <ele>33.2</ele>
        <time>2025-06-17T08:02:37Z</time>
      </trkpt>
      <trkpt lat="43.29177" lon="3.50635">
        <ele>33.2</ele>
        <time>2025-06-17T08:02:38Z</time>
      </trkpt>
      <trkpt lat="43.29176" lon="3.50635">
        <ele>33.2</ele>
        <time>2025-06-17T08:02:39Z</time>
      </trkpt>
      <trkpt lat="43.29175" lon="3.50636">
        <ele>33.2</ele>
        <time>2025-06-17T08:02:40Z</time>
      </trkpt>
      <trkpt lat="43.29173" lon="3.50636">
        <ele>33</ele>
        <time>2025-06-17T08:02:41Z</time>
      </trkpt>
      <trkpt lat="43.29172" lon="3.50637">
        <ele>33</ele>
        <time>2025-06-17T08:02:42Z</time>
      </trkpt>
      <trkpt lat="43.29171" lon="3.50638">
        <ele>33</ele>
        <time>2025-06-17T08:02:43Z</time>
      </trkpt>
      <trkpt lat="43.29169" lon="3.50638">
        <ele>33</ele>
        <time>2025-06-17T08:02:44Z</time>
      </trkpt>
      <trkpt lat="43.29168" lon="3.50639">
        <ele>33</ele>
        <time>2025-06-17T08:02:45Z</time>
      </trkpt>
      <trkpt lat="43.29166" lon="3.5064">
        <ele>33</ele>
        <time>2025-06-17T08:02:46Z</time>
      </trkpt>
      <trkpt lat="43.29165" lon="3.50641">
        <ele>33</ele>
        <time>2025-06-17T08:02:47Z</time>
      </trkpt>
      <trkpt lat="43.29164" lon="3.50642">
        <ele>32.8</ele>
        <time>2025-06-17T08:02:48Z</time>
      </trkpt>
      <trkpt lat="43.29162" lon="3.50643">
        <ele>32.8</ele>
        <time>2025-06-17T08:02:49Z</time>
      </trkpt>
      <trkpt lat="43.29161" lon="3.50644">
        <ele>32.8</ele>
        <time>2025-06-17T08:02:50Z</time>
      </trkpt>
      <trkpt lat="43.29159" lon="3.50644">
        <ele>32.8</ele>
        <time>2025-06-17T08:02:51Z</time>
      </trkpt>
      <trkpt lat="43.29158" lon="3.50645">
        <ele>32.8</ele>
        <time>2025-06-17T08:02:52Z</time>
      </trkpt>
      <trkpt lat="43.29156" lon="3.50645">
        <ele>32.8</ele>
        <time>2025-06-17T08:02:53Z</time>
      </trkpt>
      <trkpt lat="43.29154" lon="3.50646">
        <ele>32.8</ele>
        <time>2025-06-17T08:02:54Z</time>
      </trkpt>
      <trkpt lat="43.29153" lon="3.50647">
        <ele>32.6</ele>
        <time>2025-06-17T08:02:55Z</time>
      </trkpt>
      <trkpt lat="43.29152" lon="3.50648">
        <ele>32.6</ele>
        <time>2025-06-17T08:02:56Z</time>
      </trkpt>
      <trkpt lat="43.2915" lon="3.50648">
        <ele>32.6</ele>
        <time>2025-06-17T08:02:57Z</time>
      </trkpt>
      <trkpt lat="43.29149" lon="3.50649">
        <ele>32.4</ele>
        <time>2025-06-17T08:02:58Z</time>
      </trkpt>
      <trkpt lat="43.29147" lon="3.50649">
        <ele>32.4</ele>
        <time>2025-06-17T08:02:59Z</time>
      </trkpt>
      <trkpt lat="43.29146" lon="3.5065">
        <ele>32.4</ele>
        <time>2025-06-17T08:03:00Z</time>
      </trkpt>
      <trkpt lat="43.29145" lon="3.5065">
        <ele>32.4</ele>
        <time>2025-06-17T08:03:01Z</time>
      </trkpt>
      <trkpt lat="43.29144" lon="3.50651">
        <ele>32.4</ele>
        <time>2025-06-17T08:03:02Z</time>
      </trkpt>
      <trkpt lat="43.29143" lon="3.50652">
        <ele>32.4</ele>
        <time>2025-06-17T08:03:03Z</time>
      </trkpt>
      <trkpt lat="43.29142" lon="3.50652">
        <ele>32.4</ele>
        <time>2025-06-17T08:03:04Z</time>
      </trkpt>
      <trkpt lat="43.2914" lon="3.50653">
        <ele>32.4</ele>
        <time>2025-06-17T08:03:05Z</time>
      </trkpt>
      <trkpt lat="43.29139" lon="3.50653">
        <ele>32.4</ele>
        <time>2025-06-17T08:03:06Z</time>
      </trkpt>
      <trkpt lat="43.29138" lon="3.50654">
        <ele>32.4</ele>
        <time>2025-06-17T08:03:07Z</time>
      </trkpt>
      <trkpt lat="43.29137" lon="3.50655">
        <ele>32.4</ele>
        <time>2025-06-17T08:03:08Z</time>
      </trkpt>
      <trkpt lat="43.29135" lon="3.50655">
        <ele>32.4</ele>
        <time>2025-06-17T08:03:09Z</time>
      </trkpt>
      <trkpt lat="43.29134" lon="3.50656">
        <ele>32.4</ele>
        <time>2025-06-17T08:03:10Z</time>
      </trkpt>
      <trkpt lat="43.29133" lon="3.50657">
        <ele>32.4</ele>
        <time>2025-06-17T08:03:11Z</time>
      </trkpt>
      <trkpt lat="43.29131" lon="3.50657">
        <ele>32.4</ele>
        <time>2025-06-17T08:03:12Z</time>
      </trkpt>
      <trkpt lat="43.2913" lon="3.50658">
        <ele>32.2</ele>
        <time>2025-06-17T08:03:13Z</time>
      </trkpt>
      <trkpt lat="43.29129" lon="3.50658">
        <ele>32.2</ele>
        <time>2025-06-17T08:03:14Z</time>
      </trkpt>
      <trkpt lat="43.29128" lon="3.50659">
        <ele>32.2</ele>
        <time>2025-06-17T08:03:15Z</time>
      </trkpt>
      <trkpt lat="43.29127" lon="3.5066">
        <ele>32.2</ele>
        <time>2025-06-17T08:03:16Z</time>
      </trkpt>
      <trkpt lat="43.29126" lon="3.50661">
        <ele>32.2</ele>
        <time>2025-06-17T08:03:17Z</time>
      </trkpt>
      <trkpt lat="43.29125" lon="3.50662">
        <ele>32.2</ele>
        <time>2025-06-17T08:03:18Z</time>
      </trkpt>
      <trkpt lat="43.29124" lon="3.50663">
        <ele>32.2</ele>
        <time>2025-06-17T08:03:19Z</time>
      </trkpt>
      <trkpt lat="43.29122" lon="3.50663">
        <ele>32.4</ele>
        <time>2025-06-17T08:03:20Z</time>
      </trkpt>
      <trkpt lat="43.29121" lon="3.50664">
        <ele>32.4</ele>
        <time>2025-06-17T08:03:21Z</time>
      </trkpt>
      <trkpt lat="43.2912" lon="3.50665">
        <ele>32.4</ele>
        <time>2025-06-17T08:03:22Z</time>
      </trkpt>
      <trkpt lat="43.29119" lon="3.50665">
        <ele>32.4</ele>
        <time>2025-06-17T08:03:23Z</time>
      </trkpt>
      <trkpt lat="43.29118" lon="3.50666">
        <ele>32.4</ele>
        <time>2025-06-17T08:03:24Z</time>
      </trkpt>
      <trkpt lat="43.29117" lon="3.50667">
        <ele>32.4</ele>
        <time>2025-06-17T08:03:25Z</time>
      </trkpt>
      <trkpt lat="43.29116" lon="3.50668">
        <ele>32.4</ele>
        <time>2025-06-17T08:03:26Z</time>
      </trkpt>
      <trkpt lat="43.29115" lon="3.50669">
        <ele>32.4</ele>
        <time>2025-06-17T08:03:27Z</time>
      </trkpt>
      <trkpt lat="43.29114" lon="3.50669">
        <ele>32.4</ele>
        <time>2025-06-17T08:03:28Z</time>
      </trkpt>
      <trkpt lat="43.29113" lon="3.5067">
        <ele>32.2</ele>
        <time>2025-06-17T08:03:29Z</time>
      </trkpt>
      <trkpt lat="43.29111" lon="3.50671">
        <ele>32.2</ele>
        <time>2025-06-17T08:03:30Z</time>
      </trkpt>
      <trkpt lat="43.2911" lon="3.50671">
        <ele>32.2</ele>
        <time>2025-06-17T08:03:31Z</time>
      </trkpt>
      <trkpt lat="43.29109" lon="3.50672">
        <ele>32.2</ele>
        <time>2025-06-17T08:03:32Z</time>
      </trkpt>
      <trkpt lat="43.29108" lon="3.50673">
        <ele>32.2</ele>
        <time>2025-06-17T08:03:33Z</time>
      </trkpt>
      <trkpt lat="43.29106" lon="3.50673">
        <ele>32</ele>
        <time>2025-06-17T08:03:34Z</time>
      </trkpt>
      <trkpt lat="43.29105" lon="3.50674">
        <ele>32</ele>
        <time>2025-06-17T08:03:35Z</time>
      </trkpt>
      <trkpt lat="43.29104" lon="3.50674">
        <ele>32</ele>
        <time>2025-06-17T08:03:36Z</time>
      </trkpt>
      <trkpt lat="43.29103" lon="3.50675">
        <ele>32</ele>
        <time>2025-06-17T08:03:37Z</time>
      </trkpt>
      <trkpt lat="43.29101" lon="3.50675">
        <ele>32</ele>
        <time>2025-06-17T08:03:38Z</time>
      </trkpt>
      <trkpt lat="43.291" lon="3.50676">
        <ele>32</ele>
        <time>2025-06-17T08:03:39Z</time>
      </trkpt>
      <trkpt lat="43.29099" lon="3.50676">
        <ele>32</ele>
        <time>2025-06-17T08:03:40Z</time>
      </trkpt>
      <trkpt lat="43.29097" lon="3.50677">
        <ele>32</ele>
        <time>2025-06-17T08:03:41Z</time>
      </trkpt>
      <trkpt lat="43.29096" lon="3.50677">
        <ele>32</ele>
        <time>2025-06-17T08:03:42Z</time>
      </trkpt>
      <trkpt lat="43.29094" lon="3.50678">
        <ele>32</ele>
        <time>2025-06-17T08:03:43Z</time>
      </trkpt>
      <trkpt lat="43.29093" lon="3.50678">
        <ele>32</ele>
        <time>2025-06-17T08:03:44Z</time>
      </trkpt>
      <trkpt lat="43.29092" lon="3.50679">
        <ele>32</ele>
        <time>2025-06-17T08:03:45Z</time>
      </trkpt>
      <trkpt lat="43.2909" lon="3.5068">
        <ele>32</ele>
        <time>2025-06-17T08:03:46Z</time>
      </trkpt>
      <trkpt lat="43.29089" lon="3.50681">
        <ele>32</ele>
        <time>2025-06-17T08:03:47Z</time>
      </trkpt>
      <trkpt lat="43.29089" lon="3.50683">
        <ele>32</ele>
        <time>2025-06-17T08:03:48Z</time>
      </trkpt>
      <trkpt lat="43.29088" lon="3.50684">
        <ele>32</ele>
        <time>2025-06-17T08:03:49Z</time>
      </trkpt>
      <trkpt lat="43.29088" lon="3.50686">
        <ele>32</ele>
        <time>2025-06-17T08:03:50Z</time>
      </trkpt>
      <trkpt lat="43.29087" lon="3.50687">
        <ele>32</ele>
        <time>2025-06-17T08:03:51Z</time>
      </trkpt>
      <trkpt lat="43.29087" lon="3.50688">
        <ele>31.8</ele>
        <time>2025-06-17T08:03:52Z</time>
      </trkpt>
      <trkpt lat="43.29087" lon="3.5069">
        <ele>31.6</ele>
        <time>2025-06-17T08:03:53Z</time>
      </trkpt>
      <trkpt lat="43.29087" lon="3.50691">
        <ele>31.6</ele>
        <time>2025-06-17T08:03:54Z</time>
      </trkpt>
      <trkpt lat="43.29087" lon="3.50693">
        <ele>31.4</ele>
        <time>2025-06-17T08:03:55Z</time>
      </trkpt>
      <trkpt lat="43.29087" lon="3.50694">
        <ele>31.4</ele>
        <time>2025-06-17T08:03:56Z</time>
      </trkpt>
      <trkpt lat="43.29087" lon="3.50694">
        <ele>31.2</ele>
        <time>2025-06-17T08:03:57Z</time>
      </trkpt>
      <trkpt lat="43.29087" lon="3.50694">
        <ele>31.2</ele>
        <time>2025-06-17T08:03:58Z</time>
      </trkpt>
      <trkpt lat="43.29087" lon="3.50694">
        <ele>31</ele>
        <time>2025-06-17T08:03:59Z</time>
      </trkpt>
      <trkpt lat="43.29087" lon="3.50694">
        <ele>31</ele>
        <time>2025-06-17T08:04:00Z</time>
      </trkpt>
      <trkpt lat="43.29068" lon="3.50712">
        <ele>30.6</ele>
        <time>2025-06-17T08:07:18Z</time>
      </trkpt>
      <trkpt lat="43.29065" lon="3.50714">
        <ele>30.6</ele>
        <time>2025-06-17T08:07:19Z</time>
      </trkpt>
      <trkpt lat="43.2906" lon="3.50717">
        <ele>30.4</ele>
        <time>2025-06-17T08:07:20Z</time>
      </trkpt>
      <trkpt lat="43.29055" lon="3.50719">
        <ele>30.4</ele>
        <time>2025-06-17T08:07:21Z</time>
      </trkpt>
      <trkpt lat="43.29051" lon="3.50721">
        <ele>30.4</ele>
        <time>2025-06-17T08:07:22Z</time>
      </trkpt>
      <trkpt lat="43.29047" lon="3.50724">
        <ele>30.4</ele>
        <time>2025-06-17T08:07:23Z</time>
      </trkpt>
      <trkpt lat="43.29042" lon="3.50726">
        <ele>30.2</ele>
        <time>2025-06-17T08:07:24Z</time>
      </trkpt>
      <trkpt lat="43.29038" lon="3.50728">
        <ele>30.2</ele>
        <time>2025-06-17T08:07:25Z</time>
      </trkpt>
      <trkpt lat="43.29033" lon="3.5073">
        <ele>30</ele>
        <time>2025-06-17T08:07:26Z</time>
      </trkpt>
      <trkpt lat="43.29029" lon="3.50733">
        <ele>30</ele>
        <time>2025-06-17T08:07:27Z</time>
      </trkpt>
      <trkpt lat="43.29024" lon="3.50735">
        <ele>30</ele>
        <time>2025-06-17T08:07:28Z</time>
      </trkpt>
      <trkpt lat="43.29019" lon="3.50737">
        <ele>29.8</ele>
        <time>2025-06-17T08:07:29Z</time>
      </trkpt>
      <trkpt lat="43.29014" lon="3.50739">
        <ele>29.8</ele>
        <time>2025-06-17T08:07:30Z</time>
      </trkpt>
      <trkpt lat="43.29009" lon="3.50739">
        <ele>29.6</ele>
        <time>2025-06-17T08:07:31Z</time>
      </trkpt>
      <trkpt lat="43.29004" lon="3.50739">
        <ele>29.6</ele>
        <time>2025-06-17T08:07:32Z</time>
      </trkpt>
      <trkpt lat="43.28998" lon="3.50739">
        <ele>29.6</ele>
        <time>2025-06-17T08:07:33Z</time>
      </trkpt>
      <trkpt lat="43.28993" lon="3.5074">
        <ele>29.6</ele>
        <time>2025-06-17T08:07:34Z</time>
      </trkpt>
      <trkpt lat="43.28988" lon="3.50743">
        <ele>29.6</ele>
        <time>2025-06-17T08:07:35Z</time>
      </trkpt>
      <trkpt lat="43.28983" lon="3.50745">
        <ele>29.6</ele>
        <time>2025-06-17T08:07:36Z</time>
      </trkpt>
      <trkpt lat="43.28978" lon="3.50749">
        <ele>29.6</ele>
        <time>2025-06-17T08:07:37Z</time>
      </trkpt>
      <trkpt lat="43.28974" lon="3.50752">
        <ele>29.6</ele>
        <time>2025-06-17T08:07:38Z</time>
      </trkpt>
      <trkpt lat="43.28969" lon="3.50756">
        <ele>29.6</ele>
        <time>2025-06-17T08:07:39Z</time>
      </trkpt>
      <trkpt lat="43.28965" lon="3.50759">
        <ele>29.4</ele>
        <time>2025-06-17T08:07:40Z</time>
      </trkpt>
      <trkpt lat="43.2896" lon="3.50762">
        <ele>29.6</ele>
        <time>2025-06-17T08:07:41Z</time>
      </trkpt>
      <trkpt lat="43.28956" lon="3.50766">
        <ele>29.6</ele>
        <time>2025-06-17T08:07:42Z</time>
      </trkpt>
      <trkpt lat="43.28951" lon="3.50769">
        <ele>29.4</ele>
        <time>2025-06-17T08:07:43Z</time>
      </trkpt>
      <trkpt lat="43.28948" lon="3.50773">
        <ele>29.4</ele>
        <time>2025-06-17T08:07:44Z</time>
      </trkpt>
      <trkpt lat="43.28944" lon="3.50777">
        <ele>29.4</ele>
        <time>2025-06-17T08:07:45Z</time>
      </trkpt>
      <trkpt lat="43.28941" lon="3.50782">
        <ele>29.2</ele>
        <time>2025-06-17T08:07:46Z</time>
      </trkpt>
      <trkpt lat="43.28939" lon="3.50788">
        <ele>29.2</ele>
        <time>2025-06-17T08:07:47Z</time>
      </trkpt>
      <trkpt lat="43.28936" lon="3.50795">
        <ele>29</ele>
        <time>2025-06-17T08:07:48Z</time>
      </trkpt>
      <trkpt lat="43.28934" lon="3.50801">
        <ele>28.8</ele>
        <time>2025-06-17T08:07:49Z</time>
      </trkpt>
      <trkpt lat="43.28932" lon="3.50808">
        <ele>28.6</ele>
        <time>2025-06-17T08:07:50Z</time>
      </trkpt>
      <trkpt lat="43.2893" lon="3.50815">
        <ele>28.6</ele>
        <time>2025-06-17T08:07:51Z</time>
      </trkpt>
      <trkpt lat="43.28929" lon="3.50822">
        <ele>28.4</ele>
        <time>2025-06-17T08:07:52Z</time>
      </trkpt>
      <trkpt lat="43.28928" lon="3.5083">
        <ele>28.4</ele>
        <time>2025-06-17T08:07:53Z</time>
      </trkpt>
      <trkpt lat="43.28927" lon="3.50837">
        <ele>28.4</ele>
        <time>2025-06-17T08:07:54Z</time>
      </trkpt>
      <trkpt lat="43.28928" lon="3.50844">
        <ele>28.2</ele>
        <time>2025-06-17T08:07:55Z</time>
      </trkpt>
      <trkpt lat="43.28928" lon="3.50852">
        <ele>28</ele>
        <time>2025-06-17T08:07:56Z</time>
      </trkpt>
      <trkpt lat="43.28928" lon="3.50859">
        <ele>28</ele>
        <time>2025-06-17T08:07:57Z</time>
      </trkpt>
      <trkpt lat="43.28929" lon="3.50866">
        <ele>27.8</ele>
        <time>2025-06-17T08:07:58Z</time>
      </trkpt>
      <trkpt lat="43.2893" lon="3.50874">
        <ele>27.6</ele>
        <time>2025-06-17T08:07:59Z</time>
      </trkpt>
      <trkpt lat="43.2893" lon="3.50882">
        <ele>27.6</ele>
        <time>2025-06-17T08:08:00Z</time>
      </trkpt>
      <trkpt lat="43.28931" lon="3.5089">
        <ele>27.6</ele>
        <time>2025-06-17T08:08:01Z</time>
      </trkpt>
      <trkpt lat="43.28931" lon="3.50898">
        <ele>27.4</ele>
        <time>2025-06-17T08:08:02Z</time>
      </trkpt>
      <trkpt lat="43.28931" lon="3.50905">
        <ele>27.4</ele>
        <time>2025-06-17T08:08:03Z</time>
      </trkpt>
      <trkpt lat="43.28931" lon="3.50913">
        <ele>27.4</ele>
        <time>2025-06-17T08:08:04Z</time>
      </trkpt>
      <trkpt lat="43.28931" lon="3.50921">
        <ele>27.2</ele>
        <time>2025-06-17T08:08:05Z</time>
      </trkpt>
      <trkpt lat="43.28931" lon="3.50929">
        <ele>27.2</ele>
        <time>2025-06-17T08:08:06Z</time>
      </trkpt>
      <trkpt lat="43.2893" lon="3.50937">
        <ele>27.2</ele>
        <time>2025-06-17T08:08:07Z</time>
      </trkpt>
      <trkpt lat="43.28929" lon="3.50945">
        <ele>27.2</ele>
        <time>2025-06-17T08:08:08Z</time>
      </trkpt>
      <trkpt lat="43.28928" lon="3.50952">
        <ele>27.2</ele>
        <time>2025-06-17T08:08:09Z</time>
      </trkpt>
      <trkpt lat="43.28928" lon="3.5096">
        <ele>27.2</ele>
        <time>2025-06-17T08:08:10Z</time>
      </trkpt>
      <trkpt lat="43.28927" lon="3.50967">
        <ele>27.2</ele>
        <time>2025-06-17T08:08:11Z</time>
      </trkpt>
      <trkpt lat="43.28926" lon="3.50974">
        <ele>27.2</ele>
        <time>2025-06-17T08:08:12Z</time>
      </trkpt>
      <trkpt lat="43.28925" lon="3.50981">
        <ele>27.2</ele>
        <time>2025-06-17T08:08:13Z</time>
      </trkpt>
      <trkpt lat="43.28926" lon="3.50989">
        <ele>27.2</ele>
        <time>2025-06-17T08:08:14Z</time>
      </trkpt>
      <trkpt lat="43.28927" lon="3.50995">
        <ele>27.2</ele>
        <time>2025-06-17T08:08:15Z</time>
      </trkpt>
      <trkpt lat="43.28928" lon="3.51002">
        <ele>27.2</ele>
        <time>2025-06-17T08:08:16Z</time>
      </trkpt>
      <trkpt lat="43.2893" lon="3.51008">
        <ele>27.2</ele>
        <time>2025-06-17T08:08:17Z</time>
      </trkpt>
      <trkpt lat="43.28932" lon="3.51014">
        <ele>27</ele>
        <time>2025-06-17T08:08:18Z</time>
      </trkpt>
      <trkpt lat="43.28934" lon="3.5102">
        <ele>27.2</ele>
        <time>2025-06-17T08:08:19Z</time>
      </trkpt>
      <trkpt lat="43.28936" lon="3.51027">
        <ele>27.2</ele>
        <time>2025-06-17T08:08:20Z</time>
      </trkpt>
      <trkpt lat="43.28939" lon="3.51033">
        <ele>27.2</ele>
        <time>2025-06-17T08:08:21Z</time>
      </trkpt>
      <trkpt lat="43.28941" lon="3.51039">
        <ele>27.2</ele>
        <time>2025-06-17T08:08:22Z</time>
      </trkpt>
      <trkpt lat="43.28944" lon="3.51044">
        <ele>27.2</ele>
        <time>2025-06-17T08:08:23Z</time>
      </trkpt>
      <trkpt lat="43.28946" lon="3.5105">
        <ele>27.2</ele>
        <time>2025-06-17T08:08:24Z</time>
      </trkpt>
      <trkpt lat="43.28948" lon="3.51056">
        <ele>27</ele>
        <time>2025-06-17T08:08:25Z</time>
      </trkpt>
      <trkpt lat="43.28951" lon="3.51061">
        <ele>27</ele>
        <time>2025-06-17T08:08:26Z</time>
      </trkpt>
      <trkpt lat="43.28953" lon="3.51064">
        <ele>27.2</ele>
        <time>2025-06-17T08:08:27Z</time>
      </trkpt>
      <trkpt lat="43.28954" lon="3.51068">
        <ele>27.2</ele>
        <time>2025-06-17T08:08:28Z</time>
      </trkpt>
      <trkpt lat="43.28956" lon="3.5107">
        <ele>27.2</ele>
        <time>2025-06-17T08:08:29Z</time>
      </trkpt>
      <trkpt lat="43.28956" lon="3.51072">
        <ele>27.2</ele>
        <time>2025-06-17T08:08:30Z</time>
      </trkpt>
      <trkpt lat="43.28956" lon="3.51073">
        <ele>27.2</ele>
        <time>2025-06-17T08:08:31Z</time>
      </trkpt>
      <trkpt lat="43.28951" lon="3.51079">
        <ele>27.2</ele>
        <time>2025-06-17T08:08:36Z</time>
      </trkpt>
      <trkpt lat="43.28949" lon="3.5108">
        <ele>27.2</ele>
        <time>2025-06-17T08:08:37Z</time>
      </trkpt>
      <trkpt lat="43.28946" lon="3.51082">
        <ele>27.2</ele>
        <time>2025-06-17T08:08:38Z</time>
      </trkpt>
      <trkpt lat="43.28943" lon="3.51084">
        <ele>27.2</ele>
        <time>2025-06-17T08:08:39Z</time>
      </trkpt>
      <trkpt lat="43.2894" lon="3.51087">
        <ele>27.2</ele>
        <time>2025-06-17T08:08:40Z</time>
      </trkpt>
      <trkpt lat="43.28938" lon="3.51089">
        <ele>27.2</ele>
        <time>2025-06-17T08:08:41Z</time>
      </trkpt>
      <trkpt lat="43.28936" lon="3.51092">
        <ele>27</ele>
        <time>2025-06-17T08:08:42Z</time>
      </trkpt>
      <trkpt lat="43.28936" lon="3.51096">
        <ele>27</ele>
        <time>2025-06-17T08:08:43Z</time>
      </trkpt>
      <trkpt lat="43.28937" lon="3.511">
        <ele>27</ele>
        <time>2025-06-17T08:08:44Z</time>
      </trkpt>
      <trkpt lat="43.2894" lon="3.51105">
        <ele>27</ele>
        <time>2025-06-17T08:08:45Z</time>
      </trkpt>
      <trkpt lat="43.28942" lon="3.5111">
        <ele>27</ele>
        <time>2025-06-17T08:08:46Z</time>
      </trkpt>
      <trkpt lat="43.28945" lon="3.51115">
        <ele>27</ele>
        <time>2025-06-17T08:08:47Z</time>
      </trkpt>
      <trkpt lat="43.28948" lon="3.5112">
        <ele>27</ele>
        <time>2025-06-17T08:08:48Z</time>
      </trkpt>
      <trkpt lat="43.2895" lon="3.51126">
        <ele>26.8</ele>
        <time>2025-06-17T08:08:49Z</time>
      </trkpt>
      <trkpt lat="43.28952" lon="3.51131">
        <ele>26.8</ele>
        <time>2025-06-17T08:08:50Z</time>
      </trkpt>
      <trkpt lat="43.28955" lon="3.51137">
        <ele>26.8</ele>
        <time>2025-06-17T08:08:51Z</time>
      </trkpt>
      <trkpt lat="43.28957" lon="3.51144">
        <ele>26.6</ele>
        <time>2025-06-17T08:08:52Z</time>
      </trkpt>
      <trkpt lat="43.2896" lon="3.5115">
        <ele>26.6</ele>
        <time>2025-06-17T08:08:53Z</time>
      </trkpt>
      <trkpt lat="43.28963" lon="3.51156">
        <ele>26.4</ele>
        <time>2025-06-17T08:08:54Z</time>
      </trkpt>
      <trkpt lat="43.28965" lon="3.51162">
        <ele>26.4</ele>
        <time>2025-06-17T08:08:55Z</time>
      </trkpt>
      <trkpt lat="43.28968" lon="3.51169">
        <ele>26.4</ele>
        <time>2025-06-17T08:08:56Z</time>
      </trkpt>
      <trkpt lat="43.2897" lon="3.51175">
        <ele>26.4</ele>
        <time>2025-06-17T08:08:57Z</time>
      </trkpt>
      <trkpt lat="43.28972" lon="3.51182">
        <ele>26.2</ele>
        <time>2025-06-17T08:08:58Z</time>
      </trkpt>
      <trkpt lat="43.28975" lon="3.51189">
        <ele>26.2</ele>
        <time>2025-06-17T08:08:59Z</time>
      </trkpt>
      <trkpt lat="43.28977" lon="3.51196">
        <ele>26.2</ele>
        <time>2025-06-17T08:09:00Z</time>
      </trkpt>
      <trkpt lat="43.2898" lon="3.51203">
        <ele>26.2</ele>
        <time>2025-06-17T08:09:01Z</time>
      </trkpt>
      <trkpt lat="43.28983" lon="3.5121">
        <ele>26</ele>
        <time>2025-06-17T08:09:02Z</time>
      </trkpt>
      <trkpt lat="43.28985" lon="3.51217">
        <ele>26</ele>
        <time>2025-06-17T08:09:03Z</time>
      </trkpt>
      <trkpt lat="43.28989" lon="3.51224">
        <ele>25.8</ele>
        <time>2025-06-17T08:09:04Z</time>
      </trkpt>
      <trkpt lat="43.28991" lon="3.51231">
        <ele>25.8</ele>
        <time>2025-06-17T08:09:05Z</time>
      </trkpt>
      <trkpt lat="43.28994" lon="3.51238">
        <ele>25.8</ele>
        <time>2025-06-17T08:09:06Z</time>
      </trkpt>
      <trkpt lat="43.28996" lon="3.51246">
        <ele>25.8</ele>
        <time>2025-06-17T08:09:07Z</time>
      </trkpt>
      <trkpt lat="43.28998" lon="3.51254">
        <ele>25.6</ele>
        <time>2025-06-17T08:09:08Z</time>
      </trkpt>
      <trkpt lat="43.29" lon="3.51261">
        <ele>25.6</ele>
        <time>2025-06-17T08:09:09Z</time>
      </trkpt>
      <trkpt lat="43.29002" lon="3.51268">
        <ele>25.6</ele>
        <time>2025-06-17T08:09:10Z</time>
      </trkpt>
      <trkpt lat="43.29004" lon="3.51276">
        <ele>25.4</ele>
        <time>2025-06-17T08:09:11Z</time>
      </trkpt>
      <trkpt lat="43.29006" lon="3.51282">
        <ele>25.4</ele>
        <time>2025-06-17T08:09:12Z</time>
      </trkpt>
      <trkpt lat="43.29008" lon="3.51289">
        <ele>25.4</ele>
        <time>2025-06-17T08:09:13Z</time>
      </trkpt>
      <trkpt lat="43.2901" lon="3.51295">
        <ele>25.4</ele>
        <time>2025-06-17T08:09:14Z</time>
      </trkpt>
      <trkpt lat="43.29011" lon="3.51301">
        <ele>25.2</ele>
        <time>2025-06-17T08:09:15Z</time>
      </trkpt>
      <trkpt lat="43.29014" lon="3.51307">
        <ele>25.2</ele>
        <time>2025-06-17T08:09:16Z</time>
      </trkpt>
      <trkpt lat="43.29016" lon="3.51312">
        <ele>25.2</ele>
        <time>2025-06-17T08:09:17Z</time>
      </trkpt>
      <trkpt lat="43.29018" lon="3.51319">
        <ele>25.2</ele>
        <time>2025-06-17T08:09:18Z</time>
      </trkpt>
      <trkpt lat="43.29019" lon="3.51325">
        <ele>25.2</ele>
        <time>2025-06-17T08:09:19Z</time>
      </trkpt>
      <trkpt lat="43.2902" lon="3.51332">
        <ele>25</ele>
        <time>2025-06-17T08:09:20Z</time>
      </trkpt>
      <trkpt lat="43.29022" lon="3.5134">
        <ele>25</ele>
        <time>2025-06-17T08:09:21Z</time>
      </trkpt>
      <trkpt lat="43.29024" lon="3.51347">
        <ele>25</ele>
        <time>2025-06-17T08:09:22Z</time>
      </trkpt>
      <trkpt lat="43.29025" lon="3.51355">
        <ele>24.8</ele>
        <time>2025-06-17T08:09:23Z</time>
      </trkpt>
      <trkpt lat="43.29027" lon="3.51362">
        <ele>24.8</ele>
        <time>2025-06-17T08:09:24Z</time>
      </trkpt>
      <trkpt lat="43.29028" lon="3.51369">
        <ele>24.8</ele>
        <time>2025-06-17T08:09:25Z</time>
      </trkpt>
      <trkpt lat="43.2903" lon="3.51377">
        <ele>24.6</ele>
        <time>2025-06-17T08:09:26Z</time>
      </trkpt>
      <trkpt lat="43.29031" lon="3.51385">
        <ele>24.6</ele>
        <time>2025-06-17T08:09:27Z</time>
      </trkpt>
      <trkpt lat="43.29033" lon="3.51392">
        <ele>24.6</ele>
        <time>2025-06-17T08:09:28Z</time>
      </trkpt>
      <trkpt lat="43.29035" lon="3.514">
        <ele>24.4</ele>
        <time>2025-06-17T08:09:29Z</time>
      </trkpt>
      <trkpt lat="43.29036" lon="3.51408">
        <ele>24.4</ele>
        <time>2025-06-17T08:09:30Z</time>
      </trkpt>
      <trkpt lat="43.29038" lon="3.51416">
        <ele>24.4</ele>
        <time>2025-06-17T08:09:31Z</time>
      </trkpt>
      <trkpt lat="43.2904" lon="3.51423">
        <ele>24.2</ele>
        <time>2025-06-17T08:09:32Z</time>
      </trkpt>
      <trkpt lat="43.29041" lon="3.51431">
        <ele>24.2</ele>
        <time>2025-06-17T08:09:33Z</time>
      </trkpt>
      <trkpt lat="43.29043" lon="3.51438">
        <ele>24.2</ele>
        <time>2025-06-17T08:09:34Z</time>
      </trkpt>
      <trkpt lat="43.29045" lon="3.51445">
        <ele>24.2</ele>
        <time>2025-06-17T08:09:35Z</time>
      </trkpt>
      <trkpt lat="43.29046" lon="3.51452">
        <ele>24</ele>
        <time>2025-06-17T08:09:36Z</time>
      </trkpt>
      <trkpt lat="43.29047" lon="3.51458">
        <ele>24</ele>
        <time>2025-06-17T08:09:37Z</time>
      </trkpt>
      <trkpt lat="43.29049" lon="3.51464">
        <ele>24</ele>
        <time>2025-06-17T08:09:38Z</time>
      </trkpt>
      <trkpt lat="43.29049" lon="3.5147">
        <ele>24</ele>
        <time>2025-06-17T08:09:39Z</time>
      </trkpt>
      <trkpt lat="43.29048" lon="3.51475">
        <ele>23.8</ele>
        <time>2025-06-17T08:09:40Z</time>
      </trkpt>
      <trkpt lat="43.29047" lon="3.51481">
        <ele>23.8</ele>
        <time>2025-06-17T08:09:41Z</time>
      </trkpt>
      <trkpt lat="43.29045" lon="3.51485">
        <ele>23.8</ele>
        <time>2025-06-17T08:09:42Z</time>
      </trkpt>
      <trkpt lat="43.29044" lon="3.51488">
        <ele>23.8</ele>
        <time>2025-06-17T08:09:43Z</time>
      </trkpt>
      <trkpt lat="43.29043" lon="3.51491">
        <ele>23.8</ele>
        <time>2025-06-17T08:09:44Z</time>
      </trkpt>
      <trkpt lat="43.29043" lon="3.51493">
        <ele>24</ele>
        <time>2025-06-17T08:09:45Z</time>
      </trkpt>
      <trkpt lat="43.29045" lon="3.51496">
        <ele>24</ele>
        <time>2025-06-17T08:09:46Z</time>
      </trkpt>
      <trkpt lat="43.29048" lon="3.51498">
        <ele>24</ele>
        <time>2025-06-17T08:09:47Z</time>
      </trkpt>
      <trkpt lat="43.29052" lon="3.51499">
        <ele>24</ele>
        <time>2025-06-17T08:09:48Z</time>
      </trkpt>
      <trkpt lat="43.29056" lon="3.51499">
        <ele>23.8</ele>
        <time>2025-06-17T08:09:49Z</time>
      </trkpt>
      <trkpt lat="43.2906" lon="3.515">
        <ele>23.8</ele>
        <time>2025-06-17T08:09:50Z</time>
      </trkpt>
      <trkpt lat="43.29065" lon="3.51501">
        <ele>23.8</ele>
        <time>2025-06-17T08:09:51Z</time>
      </trkpt>
      <trkpt lat="43.2907" lon="3.51503">
        <ele>23.6</ele>
        <time>2025-06-17T08:09:52Z</time>
      </trkpt>
      <trkpt lat="43.29074" lon="3.51506">
        <ele>23.6</ele>
        <time>2025-06-17T08:09:53Z</time>
      </trkpt>
      <trkpt lat="43.29078" lon="3.5151">
        <ele>23.6</ele>
        <time>2025-06-17T08:09:54Z</time>
      </trkpt>
      <trkpt lat="43.29082" lon="3.51514">
        <ele>23.6</ele>
        <time>2025-06-17T08:09:55Z</time>
      </trkpt>
      <trkpt lat="43.29086" lon="3.51518">
        <ele>23.6</ele>
        <time>2025-06-17T08:09:56Z</time>
      </trkpt>
      <trkpt lat="43.29092" lon="3.51521">
        <ele>23.4</ele>
        <time>2025-06-17T08:09:57Z</time>
      </trkpt>
      <trkpt lat="43.29097" lon="3.51524">
        <ele>23.4</ele>
        <time>2025-06-17T08:09:58Z</time>
      </trkpt>
      <trkpt lat="43.29102" lon="3.51525">
        <ele>23.4</ele>
        <time>2025-06-17T08:09:59Z</time>
      </trkpt>
      <trkpt lat="43.29108" lon="3.51526">
        <ele>23.4</ele>
        <time>2025-06-17T08:10:00Z</time>
      </trkpt>
      <trkpt lat="43.29114" lon="3.51526">
        <ele>23.4</ele>
        <time>2025-06-17T08:10:01Z</time>
      </trkpt>
      <trkpt lat="43.2912" lon="3.51525">
        <ele>23.2</ele>
        <time>2025-06-17T08:10:02Z</time>
      </trkpt>
      <trkpt lat="43.29125" lon="3.51525">
        <ele>23.2</ele>
        <time>2025-06-17T08:10:03Z</time>
      </trkpt>
      <trkpt lat="43.2913" lon="3.51526">
        <ele>23</ele>
        <time>2025-06-17T08:10:04Z</time>
      </trkpt>
      <trkpt lat="43.29134" lon="3.51529">
        <ele>23</ele>
        <time>2025-06-17T08:10:05Z</time>
      </trkpt>
      <trkpt lat="43.29138" lon="3.51532">
        <ele>23</ele>
        <time>2025-06-17T08:10:06Z</time>
      </trkpt>
      <trkpt lat="43.29142" lon="3.51535">
        <ele>23</ele>
        <time>2025-06-17T08:10:07Z</time>
      </trkpt>
      <trkpt lat="43.29145" lon="3.51539">
        <ele>23</ele>
        <time>2025-06-17T08:10:08Z</time>
      </trkpt>
      <trkpt lat="43.29149" lon="3.51544">
        <ele>22.8</ele>
        <time>2025-06-17T08:10:09Z</time>
      </trkpt>
      <trkpt lat="43.29152" lon="3.51548">
        <ele>22.8</ele>
        <time>2025-06-17T08:10:10Z</time>
      </trkpt>
      <trkpt lat="43.29156" lon="3.51553">
        <ele>22.8</ele>
        <time>2025-06-17T08:10:11Z</time>
      </trkpt>
      <trkpt lat="43.2916" lon="3.51557">
        <ele>22.6</ele>
        <time>2025-06-17T08:10:12Z</time>
      </trkpt>
      <trkpt lat="43.29165" lon="3.51561">
        <ele>22.6</ele>
        <time>2025-06-17T08:10:13Z</time>
      </trkpt>
      <trkpt lat="43.2917" lon="3.51565">
        <ele>22.6</ele>
        <time>2025-06-17T08:10:14Z</time>
      </trkpt>
      <trkpt lat="43.29175" lon="3.51569">
        <ele>22.6</ele>
        <time>2025-06-17T08:10:15Z</time>
      </trkpt>
      <trkpt lat="43.29179" lon="3.51573">
        <ele>22.4</ele>
        <time>2025-06-17T08:10:16Z</time>
      </trkpt>
      <trkpt lat="43.29184" lon="3.51576">
        <ele>22.4</ele>
        <time>2025-06-17T08:10:17Z</time>
      </trkpt>
      <trkpt lat="43.29189" lon="3.5158">
        <ele>22.4</ele>
        <time>2025-06-17T08:10:18Z</time>
      </trkpt>
      <trkpt lat="43.29195" lon="3.51584">
        <ele>22.2</ele>
        <time>2025-06-17T08:10:19Z</time>
      </trkpt>
      <trkpt lat="43.292" lon="3.51588">
        <ele>22.2</ele>
        <time>2025-06-17T08:10:20Z</time>
      </trkpt>
      <trkpt lat="43.29205" lon="3.51592">
        <ele>22.2</ele>
        <time>2025-06-17T08:10:21Z</time>
      </trkpt>
      <trkpt lat="43.2921" lon="3.51596">
        <ele>22</ele>
        <time>2025-06-17T08:10:22Z</time>
      </trkpt>
      <trkpt lat="43.29216" lon="3.516">
        <ele>22</ele>
        <time>2025-06-17T08:10:23Z</time>
      </trkpt>
      <trkpt lat="43.29221" lon="3.51603">
        <ele>22</ele>
        <time>2025-06-17T08:10:24Z</time>
      </trkpt>
      <trkpt lat="43.29226" lon="3.51607">
        <ele>22</ele>
        <time>2025-06-17T08:10:25Z</time>
      </trkpt>
      <trkpt lat="43.29231" lon="3.51611">
        <ele>22</ele>
        <time>2025-06-17T08:10:26Z</time>
      </trkpt>
      <trkpt lat="43.29237" lon="3.51615">
        <ele>22</ele>
        <time>2025-06-17T08:10:27Z</time>
      </trkpt>
      <trkpt lat="43.29242" lon="3.51618">
        <ele>21.8</ele>
        <time>2025-06-17T08:10:28Z</time>
      </trkpt>
      <trkpt lat="43.29248" lon="3.51623">
        <ele>21.8</ele>
        <time>2025-06-17T08:10:29Z</time>
      </trkpt>
      <trkpt lat="43.29253" lon="3.51627">
        <ele>21.8</ele>
        <time>2025-06-17T08:10:30Z</time>
      </trkpt>
      <trkpt lat="43.29259" lon="3.51631">
        <ele>21.8</ele>
        <time>2025-06-17T08:10:31Z</time>
      </trkpt>
      <trkpt lat="43.29264" lon="3.51635">
        <ele>21.8</ele>
        <time>2025-06-17T08:10:32Z</time>
      </trkpt>
      <trkpt lat="43.2927" lon="3.51639">
        <ele>21.6</ele>
        <time>2025-06-17T08:10:33Z</time>
      </trkpt>
      <trkpt lat="43.29275" lon="3.51643">
        <ele>21.6</ele>
        <time>2025-06-17T08:10:34Z</time>
      </trkpt>
      <trkpt lat="43.29281" lon="3.51647">
        <ele>21.6</ele>
        <time>2025-06-17T08:10:35Z</time>
      </trkpt>
      <trkpt lat="43.29287" lon="3.5165">
        <ele>21.4</ele>
        <time>2025-06-17T08:10:36Z</time>
      </trkpt>
      <trkpt lat="43.29292" lon="3.51654">
        <ele>21.4</ele>
        <time>2025-06-17T08:10:37Z</time>
      </trkpt>
      <trkpt lat="43.29298" lon="3.51657">
        <ele>21.4</ele>
        <time>2025-06-17T08:10:38Z</time>
      </trkpt>
      <trkpt lat="43.29303" lon="3.5166">
        <ele>21.2</ele>
        <time>2025-06-17T08:10:39Z</time>
      </trkpt>
      <trkpt lat="43.29309" lon="3.51663">
        <ele>21.2</ele>
        <time>2025-06-17T08:10:40Z</time>
      </trkpt>
      <trkpt lat="43.29314" lon="3.51666">
        <ele>21.2</ele>
        <time>2025-06-17T08:10:41Z</time>
      </trkpt>
      <trkpt lat="43.2932" lon="3.51669">
        <ele>21.2</ele>
        <time>2025-06-17T08:10:42Z</time>
      </trkpt>
      <trkpt lat="43.29326" lon="3.51672">
        <ele>21</ele>
        <time>2025-06-17T08:10:43Z</time>
      </trkpt>
      <trkpt lat="43.29332" lon="3.51675">
        <ele>21</ele>
        <time>2025-06-17T08:10:44Z</time>
      </trkpt>
      <trkpt lat="43.29338" lon="3.51678">
        <ele>21</ele>
        <time>2025-06-17T08:10:45Z</time>
      </trkpt>
      <trkpt lat="43.29344" lon="3.51681">
        <ele>21</ele>
        <time>2025-06-17T08:10:46Z</time>
      </trkpt>
      <trkpt lat="43.29349" lon="3.51683">
        <ele>20.8</ele>
        <time>2025-06-17T08:10:47Z</time>
      </trkpt>
      <trkpt lat="43.29355" lon="3.51686">
        <ele>20.8</ele>
        <time>2025-06-17T08:10:48Z</time>
      </trkpt>
      <trkpt lat="43.29362" lon="3.51688">
        <ele>20.8</ele>
        <time>2025-06-17T08:10:49Z</time>
      </trkpt>
      <trkpt lat="43.29368" lon="3.51689">
        <ele>20.8</ele>
        <time>2025-06-17T08:10:50Z</time>
      </trkpt>
      <trkpt lat="43.29374" lon="3.51691">
        <ele>20.8</ele>
        <time>2025-06-17T08:10:51Z</time>
      </trkpt>
      <trkpt lat="43.2938" lon="3.51692">
        <ele>20.8</ele>
        <time>2025-06-17T08:10:52Z</time>
      </trkpt>
      <trkpt lat="43.29386" lon="3.51694">
        <ele>20.6</ele>
        <time>2025-06-17T08:10:53Z</time>
      </trkpt>
      <trkpt lat="43.29392" lon="3.51695">
        <ele>20.6</ele>
        <time>2025-06-17T08:10:54Z</time>
      </trkpt>
      <trkpt lat="43.29398" lon="3.51697">
        <ele>20.6</ele>
        <time>2025-06-17T08:10:55Z</time>
      </trkpt>
      <trkpt lat="43.29404" lon="3.51698">
        <ele>20.6</ele>
        <time>2025-06-17T08:10:56Z</time>
      </trkpt>
      <trkpt lat="43.29409" lon="3.517">
        <ele>20.6</ele>
        <time>2025-06-17T08:10:57Z</time>
      </trkpt>
      <trkpt lat="43.29415" lon="3.51703">
        <ele>20.6</ele>
        <time>2025-06-17T08:10:58Z</time>
      </trkpt>
      <trkpt lat="43.29421" lon="3.51705">
        <ele>20.6</ele>
        <time>2025-06-17T08:10:59Z</time>
      </trkpt>
      <trkpt lat="43.29426" lon="3.51707">
        <ele>20.6</ele>
        <time>2025-06-17T08:11:00Z</time>
      </trkpt>
      <trkpt lat="43.29432" lon="3.51711">
        <ele>20.4</ele>
        <time>2025-06-17T08:11:01Z</time>
      </trkpt>
      <trkpt lat="43.29438" lon="3.51714">
        <ele>20.4</ele>
        <time>2025-06-17T08:11:02Z</time>
      </trkpt>
      <trkpt lat="43.29443" lon="3.51718">
        <ele>20.4</ele>
        <time>2025-06-17T08:11:03Z</time>
      </trkpt>
      <trkpt lat="43.29449" lon="3.51721">
        <ele>20.2</ele>
        <time>2025-06-17T08:11:04Z</time>
      </trkpt>
      <trkpt lat="43.29455" lon="3.51724">
        <ele>20.2</ele>
        <time>2025-06-17T08:11:05Z</time>
      </trkpt>
      <trkpt lat="43.2946" lon="3.51726">
        <ele>20.2</ele>
        <time>2025-06-17T08:11:06Z</time>
      </trkpt>
      <trkpt lat="43.29466" lon="3.51729">
        <ele>20.2</ele>
        <time>2025-06-17T08:11:07Z</time>
      </trkpt>
      <trkpt lat="43.29471" lon="3.51731">
        <ele>20.2</ele>
        <time>2025-06-17T08:11:08Z</time>
      </trkpt>
      <trkpt lat="43.29476" lon="3.51731">
        <ele>20.2</ele>
        <time>2025-06-17T08:11:09Z</time>
      </trkpt>
      <trkpt lat="43.2948" lon="3.51731">
        <ele>20</ele>
        <time>2025-06-17T08:11:10Z</time>
      </trkpt>
      <trkpt lat="43.29485" lon="3.5173">
        <ele>20</ele>
        <time>2025-06-17T08:11:11Z</time>
      </trkpt>
      <trkpt lat="43.2949" lon="3.5173">
        <ele>20</ele>
        <time>2025-06-17T08:11:12Z</time>
      </trkpt>
      <trkpt lat="43.29495" lon="3.51731">
        <ele>20</ele>
        <time>2025-06-17T08:11:13Z</time>
      </trkpt>
      <trkpt lat="43.295" lon="3.51734">
        <ele>20</ele>
        <time>2025-06-17T08:11:14Z</time>
      </trkpt>
      <trkpt lat="43.29506" lon="3.51738">
        <ele>20</ele>
        <time>2025-06-17T08:11:15Z</time>
      </trkpt>
      <trkpt lat="43.29511" lon="3.51743">
        <ele>20</ele>
        <time>2025-06-17T08:11:16Z</time>
      </trkpt>
      <trkpt lat="43.29516" lon="3.51747">
        <ele>20</ele>
        <time>2025-06-17T08:11:17Z</time>
      </trkpt>
      <trkpt lat="43.29521" lon="3.5175">
        <ele>20</ele>
        <time>2025-06-17T08:11:18Z</time>
      </trkpt>
      <trkpt lat="43.29527" lon="3.51752">
        <ele>20</ele>
        <time>2025-06-17T08:11:19Z</time>
      </trkpt>
      <trkpt lat="43.29533" lon="3.51754">
        <ele>20</ele>
        <time>2025-06-17T08:11:20Z</time>
      </trkpt>
      <trkpt lat="43.29539" lon="3.51756">
        <ele>20</ele>
        <time>2025-06-17T08:11:21Z</time>
      </trkpt>
      <trkpt lat="43.29545" lon="3.51758">
        <ele>20</ele>
        <time>2025-06-17T08:11:22Z</time>
      </trkpt>
      <trkpt lat="43.2955" lon="3.5176">
        <ele>19.8</ele>
        <time>2025-06-17T08:11:23Z</time>
      </trkpt>
      <trkpt lat="43.29556" lon="3.51762">
        <ele>19.8</ele>
        <time>2025-06-17T08:11:24Z</time>
      </trkpt>
      <trkpt lat="43.29562" lon="3.51764">
        <ele>19.8</ele>
        <time>2025-06-17T08:11:25Z</time>
      </trkpt>
      <trkpt lat="43.29568" lon="3.51765">
        <ele>19.6</ele>
        <time>2025-06-17T08:11:26Z</time>
      </trkpt>
      <trkpt lat="43.29573" lon="3.51767">
        <ele>19.6</ele>
        <time>2025-06-17T08:11:27Z</time>
      </trkpt>
      <trkpt lat="43.29576" lon="3.51771">
        <ele>19.6</ele>
        <time>2025-06-17T08:11:28Z</time>
      </trkpt>
      <trkpt lat="43.29579" lon="3.51775">
        <ele>19.6</ele>
        <time>2025-06-17T08:11:29Z</time>
      </trkpt>
      <trkpt lat="43.29582" lon="3.51778">
        <ele>19.6</ele>
        <time>2025-06-17T08:11:30Z</time>
      </trkpt>
      <trkpt lat="43.29584" lon="3.51781">
        <ele>19.6</ele>
        <time>2025-06-17T08:11:31Z</time>
      </trkpt>
      <trkpt lat="43.29588" lon="3.51783">
        <ele>19.6</ele>
        <time>2025-06-17T08:11:32Z</time>
      </trkpt>
      <trkpt lat="43.29592" lon="3.51785">
        <ele>19.6</ele>
        <time>2025-06-17T08:11:33Z</time>
      </trkpt>
      <trkpt lat="43.29596" lon="3.51785">
        <ele>19.6</ele>
        <time>2025-06-17T08:11:34Z</time>
      </trkpt>
      <trkpt lat="43.296" lon="3.51784">
        <ele>19.4</ele>
        <time>2025-06-17T08:11:35Z</time>
      </trkpt>
      <trkpt lat="43.29604" lon="3.51783">
        <ele>19.4</ele>
        <time>2025-06-17T08:11:36Z</time>
      </trkpt>
      <trkpt lat="43.29609" lon="3.51781">
        <ele>19.4</ele>
        <time>2025-06-17T08:11:37Z</time>
      </trkpt>
      <trkpt lat="43.29614" lon="3.5178">
        <ele>19.2</ele>
        <time>2025-06-17T08:11:38Z</time>
      </trkpt>
      <trkpt lat="43.29619" lon="3.51779">
        <ele>19</ele>
        <time>2025-06-17T08:11:39Z</time>
      </trkpt>
      <trkpt lat="43.29624" lon="3.51779">
        <ele>19</ele>
        <time>2025-06-17T08:11:40Z</time>
      </trkpt>
      <trkpt lat="43.2963" lon="3.51778">
        <ele>19</ele>
        <time>2025-06-17T08:11:41Z</time>
      </trkpt>
      <trkpt lat="43.29635" lon="3.51778">
        <ele>19</ele>
        <time>2025-06-17T08:11:42Z</time>
      </trkpt>
      <trkpt lat="43.2964" lon="3.51778">
        <ele>19</ele>
        <time>2025-06-17T08:11:43Z</time>
      </trkpt>
      <trkpt lat="43.29645" lon="3.51778">
        <ele>18.8</ele>
        <time>2025-06-17T08:11:44Z</time>
      </trkpt>
      <trkpt lat="43.2965" lon="3.51778">
        <ele>18.8</ele>
        <time>2025-06-17T08:11:45Z</time>
      </trkpt>
      <trkpt lat="43.29655" lon="3.51778">
        <ele>18.8</ele>
        <time>2025-06-17T08:11:46Z</time>
      </trkpt>
      <trkpt lat="43.29661" lon="3.51778">
        <ele>18.6</ele>
        <time>2025-06-17T08:11:47Z</time>
      </trkpt>
      <trkpt lat="43.29666" lon="3.51781">
        <ele>18.6</ele>
        <time>2025-06-17T08:11:48Z</time>
      </trkpt>
      <trkpt lat="43.29672" lon="3.51784">
        <ele>18.6</ele>
        <time>2025-06-17T08:11:49Z</time>
      </trkpt>
      <trkpt lat="43.29677" lon="3.51786">
        <ele>18.4</ele>
        <time>2025-06-17T08:11:50Z</time>
      </trkpt>
      <trkpt lat="43.29683" lon="3.5179">
        <ele>18.4</ele>
        <time>2025-06-17T08:11:51Z</time>
      </trkpt>
      <trkpt lat="43.29688" lon="3.51794">
        <ele>18.4</ele>
        <time>2025-06-17T08:11:52Z</time>
      </trkpt>
      <trkpt lat="43.29694" lon="3.51797">
        <ele>18.2</ele>
        <time>2025-06-17T08:11:53Z</time>
      </trkpt>
      <trkpt lat="43.29699" lon="3.51801">
        <ele>18.2</ele>
        <time>2025-06-17T08:11:54Z</time>
      </trkpt>
      <trkpt lat="43.29704" lon="3.51805">
        <ele>18.2</ele>
        <time>2025-06-17T08:11:55Z</time>
      </trkpt>
      <trkpt lat="43.29709" lon="3.5181">
        <ele>18.2</ele>
        <time>2025-06-17T08:11:56Z</time>
      </trkpt>
      <trkpt lat="43.29714" lon="3.51814">
        <ele>18.2</ele>
        <time>2025-06-17T08:11:57Z</time>
      </trkpt>
      <trkpt lat="43.29719" lon="3.51819">
        <ele>18</ele>
        <time>2025-06-17T08:11:58Z</time>
      </trkpt>
      <trkpt lat="43.29724" lon="3.51823">
        <ele>18</ele>
        <time>2025-06-17T08:11:59Z</time>
      </trkpt>
      <trkpt lat="43.29729" lon="3.51829">
        <ele>18</ele>
        <time>2025-06-17T08:12:00Z</time>
      </trkpt>
      <trkpt lat="43.29733" lon="3.51835">
        <ele>18</ele>
        <time>2025-06-17T08:12:01Z</time>
      </trkpt>
      <trkpt lat="43.29736" lon="3.51842">
        <ele>18</ele>
        <time>2025-06-17T08:12:02Z</time>
      </trkpt>
      <trkpt lat="43.29739" lon="3.51849">
        <ele>18</ele>
        <time>2025-06-17T08:12:03Z</time>
      </trkpt>
      <trkpt lat="43.2974" lon="3.51857">
        <ele>18</ele>
        <time>2025-06-17T08:12:04Z</time>
      </trkpt>
      <trkpt lat="43.29741" lon="3.51864">
        <ele>18</ele>
        <time>2025-06-17T08:12:05Z</time>
      </trkpt>
      <trkpt lat="43.29741" lon="3.51872">
        <ele>18</ele>
        <time>2025-06-17T08:12:06Z</time>
      </trkpt>
      <trkpt lat="43.29741" lon="3.5188">
        <ele>18</ele>
        <time>2025-06-17T08:12:07Z</time>
      </trkpt>
      <trkpt lat="43.29741" lon="3.51887">
        <ele>18</ele>
        <time>2025-06-17T08:12:08Z</time>
      </trkpt>
      <trkpt lat="43.2974" lon="3.51894">
        <ele>18</ele>
        <time>2025-06-17T08:12:09Z</time>
      </trkpt>
      <trkpt lat="43.2974" lon="3.51901">
        <ele>18</ele>
        <time>2025-06-17T08:12:10Z</time>
      </trkpt>
      <trkpt lat="43.29739" lon="3.51908">
        <ele>18</ele>
        <time>2025-06-17T08:12:11Z</time>
      </trkpt>
      <trkpt lat="43.29738" lon="3.51914">
        <ele>18.2</ele>
        <time>2025-06-17T08:12:12Z</time>
      </trkpt>
      <trkpt lat="43.29736" lon="3.51921">
        <ele>18.2</ele>
        <time>2025-06-17T08:12:13Z</time>
      </trkpt>
      <trkpt lat="43.29734" lon="3.51927">
        <ele>18.2</ele>
        <time>2025-06-17T08:12:14Z</time>
      </trkpt>
      <trkpt lat="43.29732" lon="3.51932">
        <ele>18.2</ele>
        <time>2025-06-17T08:12:15Z</time>
      </trkpt>
      <trkpt lat="43.29729" lon="3.51938">
        <ele>18.2</ele>
        <time>2025-06-17T08:12:16Z</time>
      </trkpt>
      <trkpt lat="43.29727" lon="3.51943">
        <ele>18.2</ele>
        <time>2025-06-17T08:12:17Z</time>
      </trkpt>
      <trkpt lat="43.29724" lon="3.51948">
        <ele>18.2</ele>
        <time>2025-06-17T08:12:18Z</time>
      </trkpt>
      <trkpt lat="43.29722" lon="3.51953">
        <ele>18.2</ele>
        <time>2025-06-17T08:12:19Z</time>
      </trkpt>
      <trkpt lat="43.29719" lon="3.51959">
        <ele>18.2</ele>
        <time>2025-06-17T08:12:20Z</time>
      </trkpt>
      <trkpt lat="43.29716" lon="3.51965">
        <ele>18.2</ele>
        <time>2025-06-17T08:12:21Z</time>
      </trkpt>
      <trkpt lat="43.29714" lon="3.51971">
        <ele>18.2</ele>
        <time>2025-06-17T08:12:22Z</time>
      </trkpt>
      <trkpt lat="43.29711" lon="3.51977">
        <ele>18.2</ele>
        <time>2025-06-17T08:12:23Z</time>
      </trkpt>
      <trkpt lat="43.29708" lon="3.51983">
        <ele>18.2</ele>
        <time>2025-06-17T08:12:24Z</time>
      </trkpt>
      <trkpt lat="43.29705" lon="3.51989">
        <ele>18.2</ele>
        <time>2025-06-17T08:12:25Z</time>
      </trkpt>
      <trkpt lat="43.29703" lon="3.51995">
        <ele>18.2</ele>
        <time>2025-06-17T08:12:26Z</time>
      </trkpt>
      <trkpt lat="43.297" lon="3.52">
        <ele>18.2</ele>
        <time>2025-06-17T08:12:27Z</time>
      </trkpt>
      <trkpt lat="43.29698" lon="3.52006">
        <ele>18.2</ele>
        <time>2025-06-17T08:12:28Z</time>
      </trkpt>
      <trkpt lat="43.29695" lon="3.52011">
        <ele>18.2</ele>
        <time>2025-06-17T08:12:29Z</time>
      </trkpt>
      <trkpt lat="43.29693" lon="3.52016">
        <ele>18.2</ele>
        <time>2025-06-17T08:12:30Z</time>
      </trkpt>
      <trkpt lat="43.2969" lon="3.52021">
        <ele>18.2</ele>
        <time>2025-06-17T08:12:31Z</time>
      </trkpt>
      <trkpt lat="43.29688" lon="3.52026">
        <ele>18.2</ele>
        <time>2025-06-17T08:12:32Z</time>
      </trkpt>
      <trkpt lat="43.29686" lon="3.5203">
        <ele>18.2</ele>
        <time>2025-06-17T08:12:33Z</time>
      </trkpt>
      <trkpt lat="43.29685" lon="3.52034">
        <ele>18.2</ele>
        <time>2025-06-17T08:12:34Z</time>
      </trkpt>
      <trkpt lat="43.29683" lon="3.52037">
        <ele>18.2</ele>
        <time>2025-06-17T08:12:35Z</time>
      </trkpt>
      <trkpt lat="43.29681" lon="3.52041">
        <ele>18.2</ele>
        <time>2025-06-17T08:12:36Z</time>
      </trkpt>
      <trkpt lat="43.2968" lon="3.52045">
        <ele>18.2</ele>
        <time>2025-06-17T08:12:37Z</time>
      </trkpt>
      <trkpt lat="43.29679" lon="3.52049">
        <ele>18.2</ele>
        <time>2025-06-17T08:12:38Z</time>
      </trkpt>
      <trkpt lat="43.29678" lon="3.52052">
        <ele>18.2</ele>
        <time>2025-06-17T08:12:39Z</time>
      </trkpt>
      <trkpt lat="43.29677" lon="3.52056">
        <ele>18.2</ele>
        <time>2025-06-17T08:12:40Z</time>
      </trkpt>
      <trkpt lat="43.29675" lon="3.52059">
        <ele>18.2</ele>
        <time>2025-06-17T08:12:41Z</time>
      </trkpt>
      <trkpt lat="43.29674" lon="3.52063">
        <ele>18.2</ele>
        <time>2025-06-17T08:12:42Z</time>
      </trkpt>
      <trkpt lat="43.29673" lon="3.52068">
        <ele>18.2</ele>
        <time>2025-06-17T08:12:43Z</time>
      </trkpt>
      <trkpt lat="43.29672" lon="3.52072">
        <ele>18.2</ele>
        <time>2025-06-17T08:12:44Z</time>
      </trkpt>
      <trkpt lat="43.29671" lon="3.52077">
        <ele>18.2</ele>
        <time>2025-06-17T08:12:45Z</time>
      </trkpt>
      <trkpt lat="43.2967" lon="3.52082">
        <ele>18.2</ele>
        <time>2025-06-17T08:12:46Z</time>
      </trkpt>
      <trkpt lat="43.2967" lon="3.52087">
        <ele>18.2</ele>
        <time>2025-06-17T08:12:47Z</time>
      </trkpt>
      <trkpt lat="43.29669" lon="3.52093">
        <ele>18.2</ele>
        <time>2025-06-17T08:12:48Z</time>
      </trkpt>
      <trkpt lat="43.29669" lon="3.52098">
        <ele>18.4</ele>
        <time>2025-06-17T08:12:49Z</time>
      </trkpt>
      <trkpt lat="43.29669" lon="3.52103">
        <ele>18.4</ele>
        <time>2025-06-17T08:12:50Z</time>
      </trkpt>
      <trkpt lat="43.29669" lon="3.52108">
        <ele>18.4</ele>
        <time>2025-06-17T08:12:51Z</time>
      </trkpt>
      <trkpt lat="43.29669" lon="3.52113">
        <ele>18.4</ele>
        <time>2025-06-17T08:12:52Z</time>
      </trkpt>
      <trkpt lat="43.2967" lon="3.52118">
        <ele>18.4</ele>
        <time>2025-06-17T08:12:53Z</time>
      </trkpt>
      <trkpt lat="43.2967" lon="3.52123">
        <ele>18.4</ele>
        <time>2025-06-17T08:12:54Z</time>
      </trkpt>
      <trkpt lat="43.29672" lon="3.52128">
        <ele>18.4</ele>
        <time>2025-06-17T08:12:55Z</time>
      </trkpt>
      <trkpt lat="43.29673" lon="3.52134">
        <ele>18.4</ele>
        <time>2025-06-17T08:12:56Z</time>
      </trkpt>
      <trkpt lat="43.29674" lon="3.52138">
        <ele>18.4</ele>
        <time>2025-06-17T08:12:57Z</time>
      </trkpt>
      <trkpt lat="43.29675" lon="3.52144">
        <ele>18.4</ele>
        <time>2025-06-17T08:12:58Z</time>
      </trkpt>
      <trkpt lat="43.29675" lon="3.52149">
        <ele>18.4</ele>
        <time>2025-06-17T08:12:59Z</time>
      </trkpt>
      <trkpt lat="43.29674" lon="3.52154">
        <ele>18.4</ele>
        <time>2025-06-17T08:13:00Z</time>
      </trkpt>
      <trkpt lat="43.29672" lon="3.52158">
        <ele>18.4</ele>
        <time>2025-06-17T08:13:01Z</time>
      </trkpt>
      <trkpt lat="43.2967" lon="3.52163">
        <ele>18.4</ele>
        <time>2025-06-17T08:13:02Z</time>
      </trkpt>
      <trkpt lat="43.29669" lon="3.52167">
        <ele>18.4</ele>
        <time>2025-06-17T08:13:03Z</time>
      </trkpt>
      <trkpt lat="43.29668" lon="3.52171">
        <ele>18.4</ele>
        <time>2025-06-17T08:13:04Z</time>
      </trkpt>
      <trkpt lat="43.29668" lon="3.52175">
        <ele>18.4</ele>
        <time>2025-06-17T08:13:05Z</time>
      </trkpt>
      <trkpt lat="43.29669" lon="3.52179">
        <ele>18.4</ele>
        <time>2025-06-17T08:13:06Z</time>
      </trkpt>
      <trkpt lat="43.29668" lon="3.52183">
        <ele>18.4</ele>
        <time>2025-06-17T08:13:07Z</time>
      </trkpt>
      <trkpt lat="43.29668" lon="3.52186">
        <ele>18.4</ele>
        <time>2025-06-17T08:13:08Z</time>
      </trkpt>
      <trkpt lat="43.29668" lon="3.52189">
        <ele>18.4</ele>
        <time>2025-06-17T08:13:09Z</time>
      </trkpt>
      <trkpt lat="43.29668" lon="3.52191">
        <ele>18.4</ele>
        <time>2025-06-17T08:13:10Z</time>
      </trkpt>
      <trkpt lat="43.29668" lon="3.52193">
        <ele>18.4</ele>
        <time>2025-06-17T08:13:11Z</time>
      </trkpt>
      <trkpt lat="43.29669" lon="3.52195">
        <ele>18.4</ele>
        <time>2025-06-17T08:13:12Z</time>
      </trkpt>
      <trkpt lat="43.29671" lon="3.52197">
        <ele>18.4</ele>
        <time>2025-06-17T08:13:13Z</time>
      </trkpt>
      <trkpt lat="43.29673" lon="3.52198">
        <ele>18.2</ele>
        <time>2025-06-17T08:13:14Z</time>
      </trkpt>
      <trkpt lat="43.29676" lon="3.52198">
        <ele>18.2</ele>
        <time>2025-06-17T08:13:15Z</time>
      </trkpt>
      <trkpt lat="43.29679" lon="3.52198">
        <ele>18.2</ele>
        <time>2025-06-17T08:13:16Z</time>
      </trkpt>
      <trkpt lat="43.29682" lon="3.52199">
        <ele>18.2</ele>
        <time>2025-06-17T08:13:17Z</time>
      </trkpt>
      <trkpt lat="43.29685" lon="3.52199">
        <ele>18.2</ele>
        <time>2025-06-17T08:13:18Z</time>
      </trkpt>
      <trkpt lat="43.29689" lon="3.52199">
        <ele>18.2</ele>
        <time>2025-06-17T08:13:19Z</time>
      </trkpt>
      <trkpt lat="43.29692" lon="3.52198">
        <ele>18.2</ele>
        <time>2025-06-17T08:13:20Z</time>
      </trkpt>
      <trkpt lat="43.29695" lon="3.52196">
        <ele>18.4</ele>
        <time>2025-06-17T08:13:21Z</time>
      </trkpt>
      <trkpt lat="43.29698" lon="3.52193">
        <ele>18.2</ele>
        <time>2025-06-17T08:13:22Z</time>
      </trkpt>
      <trkpt lat="43.29701" lon="3.52189">
        <ele>18.2</ele>
        <time>2025-06-17T08:13:23Z</time>
      </trkpt>
      <trkpt lat="43.29704" lon="3.52184">
        <ele>18.2</ele>
        <time>2025-06-17T08:13:24Z</time>
      </trkpt>
      <trkpt lat="43.29705" lon="3.52178">
        <ele>18.2</ele>
        <time>2025-06-17T08:13:25Z</time>
      </trkpt>
      <trkpt lat="43.29706" lon="3.52172">
        <ele>18.2</ele>
        <time>2025-06-17T08:13:26Z</time>
      </trkpt>
      <trkpt lat="43.29705" lon="3.52166">
        <ele>18.2</ele>
        <time>2025-06-17T08:13:27Z</time>
      </trkpt>
      <trkpt lat="43.29702" lon="3.52161">
        <ele>18.2</ele>
        <time>2025-06-17T08:13:28Z</time>
      </trkpt>
      <trkpt lat="43.29699" lon="3.52157">
        <ele>18.2</ele>
        <time>2025-06-17T08:13:29Z</time>
      </trkpt>
      <trkpt lat="43.29696" lon="3.52154">
        <ele>18.2</ele>
        <time>2025-06-17T08:13:30Z</time>
      </trkpt>
      <trkpt lat="43.29692" lon="3.52151">
        <ele>18.4</ele>
        <time>2025-06-17T08:13:31Z</time>
      </trkpt>
      <trkpt lat="43.29687" lon="3.52148">
        <ele>18.4</ele>
        <time>2025-06-17T08:13:32Z</time>
      </trkpt>
      <trkpt lat="43.29683" lon="3.52144">
        <ele>18.4</ele>
        <time>2025-06-17T08:13:33Z</time>
      </trkpt>
      <trkpt lat="43.2968" lon="3.5214">
        <ele>18.4</ele>
        <time>2025-06-17T08:13:34Z</time>
      </trkpt>
      <trkpt lat="43.29677" lon="3.52134">
        <ele>18.4</ele>
        <time>2025-06-17T08:13:35Z</time>
      </trkpt>
      <trkpt lat="43.29676" lon="3.52128">
        <ele>18.4</ele>
        <time>2025-06-17T08:13:36Z</time>
      </trkpt>
      <trkpt lat="43.29675" lon="3.52122">
        <ele>18.4</ele>
        <time>2025-06-17T08:13:37Z</time>
      </trkpt>
      <trkpt lat="43.29674" lon="3.52115">
        <ele>18.4</ele>
        <time>2025-06-17T08:13:38Z</time>
      </trkpt>
      <trkpt lat="43.29674" lon="3.52108">
        <ele>18.4</ele>
        <time>2025-06-17T08:13:39Z</time>
      </trkpt>
      <trkpt lat="43.29674" lon="3.52102">
        <ele>18.4</ele>
        <time>2025-06-17T08:13:40Z</time>
      </trkpt>
      <trkpt lat="43.29675" lon="3.52096">
        <ele>18.4</ele>
        <time>2025-06-17T08:13:41Z</time>
      </trkpt>
      <trkpt lat="43.29676" lon="3.52091">
        <ele>18.4</ele>
        <time>2025-06-17T08:13:42Z</time>
      </trkpt>
      <trkpt lat="43.29677" lon="3.52086">
        <ele>18.4</ele>
        <time>2025-06-17T08:13:43Z</time>
      </trkpt>
      <trkpt lat="43.29678" lon="3.52081">
        <ele>18.4</ele>
        <time>2025-06-17T08:13:44Z</time>
      </trkpt>
      <trkpt lat="43.2968" lon="3.52077">
        <ele>18.4</ele>
        <time>2025-06-17T08:13:45Z</time>
      </trkpt>
      <trkpt lat="43.29681" lon="3.52073">
        <ele>18.4</ele>
        <time>2025-06-17T08:13:46Z</time>
      </trkpt>
      <trkpt lat="43.29682" lon="3.52068">
        <ele>18.4</ele>
        <time>2025-06-17T08:13:47Z</time>
      </trkpt>
      <trkpt lat="43.29684" lon="3.52064">
        <ele>18.4</ele>
        <time>2025-06-17T08:13:48Z</time>
      </trkpt>
      <trkpt lat="43.29685" lon="3.52059">
        <ele>18.4</ele>
        <time>2025-06-17T08:13:49Z</time>
      </trkpt>
      <trkpt lat="43.29687" lon="3.52055">
        <ele>18.2</ele>
        <time>2025-06-17T08:13:50Z</time>
      </trkpt>
      <trkpt lat="43.29689" lon="3.5205">
        <ele>18.2</ele>
        <time>2025-06-17T08:13:51Z</time>
      </trkpt>
      <trkpt lat="43.29691" lon="3.52046">
        <ele>18.2</ele>
        <time>2025-06-17T08:13:52Z</time>
      </trkpt>
      <trkpt lat="43.29693" lon="3.52042">
        <ele>18.2</ele>
        <time>2025-06-17T08:13:53Z</time>
      </trkpt>
      <trkpt lat="43.29695" lon="3.52037">
        <ele>18</ele>
        <time>2025-06-17T08:13:54Z</time>
      </trkpt>
      <trkpt lat="43.29698" lon="3.52033">
        <ele>18</ele>
        <time>2025-06-17T08:13:55Z</time>
      </trkpt>
      <trkpt lat="43.297" lon="3.52027">
        <ele>18</ele>
        <time>2025-06-17T08:13:56Z</time>
      </trkpt>
      <trkpt lat="43.29702" lon="3.52021">
        <ele>18</ele>
        <time>2025-06-17T08:13:57Z</time>
      </trkpt>
      <trkpt lat="43.29705" lon="3.52015">
        <ele>18</ele>
        <time>2025-06-17T08:13:58Z</time>
      </trkpt>
      <trkpt lat="43.29709" lon="3.52009">
        <ele>18</ele>
        <time>2025-06-17T08:13:59Z</time>
      </trkpt>
      <trkpt lat="43.29711" lon="3.52003">
        <ele>18.2</ele>
        <time>2025-06-17T08:14:00Z</time>
      </trkpt>
      <trkpt lat="43.29715" lon="3.51996">
        <ele>18.2</ele>
        <time>2025-06-17T08:14:01Z</time>
      </trkpt>
      <trkpt lat="43.29718" lon="3.51989">
        <ele>18.2</ele>
        <time>2025-06-17T08:14:02Z</time>
      </trkpt>
      <trkpt lat="43.29721" lon="3.51983">
        <ele>18.2</ele>
        <time>2025-06-17T08:14:03Z</time>
      </trkpt>
      <trkpt lat="43.29724" lon="3.51976">
        <ele>18.2</ele>
        <time>2025-06-17T08:14:04Z</time>
      </trkpt>
      <trkpt lat="43.29727" lon="3.5197">
        <ele>18.2</ele>
        <time>2025-06-17T08:14:05Z</time>
      </trkpt>
      <trkpt lat="43.2973" lon="3.51964">
        <ele>18.2</ele>
        <time>2025-06-17T08:14:06Z</time>
      </trkpt>
      <trkpt lat="43.29733" lon="3.51957">
        <ele>18.2</ele>
        <time>2025-06-17T08:14:07Z</time>
      </trkpt>
      <trkpt lat="43.29736" lon="3.51951">
        <ele>18.2</ele>
        <time>2025-06-17T08:14:08Z</time>
      </trkpt>
      <trkpt lat="43.29739" lon="3.51945">
        <ele>18.2</ele>
        <time>2025-06-17T08:14:09Z</time>
      </trkpt>
      <trkpt lat="43.29742" lon="3.51938">
        <ele>18.2</ele>
        <time>2025-06-17T08:14:10Z</time>
      </trkpt>
      <trkpt lat="43.29745" lon="3.51932">
        <ele>18.2</ele>
        <time>2025-06-17T08:14:11Z</time>
      </trkpt>
      <trkpt lat="43.29748" lon="3.51925">
        <ele>18.2</ele>
        <time>2025-06-17T08:14:12Z</time>
      </trkpt>
      <trkpt lat="43.29751" lon="3.51919">
        <ele>18.2</ele>
        <time>2025-06-17T08:14:13Z</time>
      </trkpt>
      <trkpt lat="43.29754" lon="3.51912">
        <ele>18.2</ele>
        <time>2025-06-17T08:14:14Z</time>
      </trkpt>
      <trkpt lat="43.29758" lon="3.51906">
        <ele>18.2</ele>
        <time>2025-06-17T08:14:15Z</time>
      </trkpt>
      <trkpt lat="43.29761" lon="3.51902">
        <ele>18.2</ele>
        <time>2025-06-17T08:14:16Z</time>
      </trkpt>
      <trkpt lat="43.29764" lon="3.51899">
        <ele>18.4</ele>
        <time>2025-06-17T08:14:17Z</time>
      </trkpt>
      <trkpt lat="43.29767" lon="3.51897">
        <ele>18.4</ele>
        <time>2025-06-17T08:14:18Z</time>
      </trkpt>
      <trkpt lat="43.29771" lon="3.51894">
        <ele>18.4</ele>
        <time>2025-06-17T08:14:19Z</time>
      </trkpt>
      <trkpt lat="43.29774" lon="3.51891">
        <ele>18.4</ele>
        <time>2025-06-17T08:14:20Z</time>
      </trkpt>
      <trkpt lat="43.29776" lon="3.51887">
        <ele>18.4</ele>
        <time>2025-06-17T08:14:21Z</time>
      </trkpt>
      <trkpt lat="43.29779" lon="3.51882">
        <ele>18.2</ele>
        <time>2025-06-17T08:14:22Z</time>
      </trkpt>
      <trkpt lat="43.29781" lon="3.51876">
        <ele>18.2</ele>
        <time>2025-06-17T08:14:23Z</time>
      </trkpt>
      <trkpt lat="43.29783" lon="3.51871">
        <ele>18</ele>
        <time>2025-06-17T08:14:24Z</time>
      </trkpt>
      <trkpt lat="43.29786" lon="3.51865">
        <ele>18.2</ele>
        <time>2025-06-17T08:14:25Z</time>
      </trkpt>
      <trkpt lat="43.29789" lon="3.5186">
        <ele>18</ele>
        <time>2025-06-17T08:14:26Z</time>
      </trkpt>
      <trkpt lat="43.29792" lon="3.51854">
        <ele>18</ele>
        <time>2025-06-17T08:14:27Z</time>
      </trkpt>
      <trkpt lat="43.29795" lon="3.51849">
        <ele>18</ele>
        <time>2025-06-17T08:14:28Z</time>
      </trkpt>
      <trkpt lat="43.29798" lon="3.51843">
        <ele>17.8</ele>
        <time>2025-06-17T08:14:29Z</time>
      </trkpt>
      <trkpt lat="43.29801" lon="3.51838">
        <ele>17.8</ele>
        <time>2025-06-17T08:14:30Z</time>
      </trkpt>
      <trkpt lat="43.29804" lon="3.51832">
        <ele>17.8</ele>
        <time>2025-06-17T08:14:31Z</time>
      </trkpt>
      <trkpt lat="43.29807" lon="3.51827">
        <ele>17.8</ele>
        <time>2025-06-17T08:14:32Z</time>
      </trkpt>
      <trkpt lat="43.29811" lon="3.51821">
        <ele>17.8</ele>
        <time>2025-06-17T08:14:33Z</time>
      </trkpt>
      <trkpt lat="43.29814" lon="3.51816">
        <ele>17.8</ele>
        <time>2025-06-17T08:14:34Z</time>
      </trkpt>
      <trkpt lat="43.29817" lon="3.5181">
        <ele>17.8</ele>
        <time>2025-06-17T08:14:35Z</time>
      </trkpt>
      <trkpt lat="43.29821" lon="3.51805">
        <ele>17.8</ele>
        <time>2025-06-17T08:14:36Z</time>
      </trkpt>
      <trkpt lat="43.29824" lon="3.51801">
        <ele>17.8</ele>
        <time>2025-06-17T08:14:37Z</time>
      </trkpt>
      <trkpt lat="43.29828" lon="3.51796">
        <ele>17.8</ele>
        <time>2025-06-17T08:14:38Z</time>
      </trkpt>
      <trkpt lat="43.29832" lon="3.51791">
        <ele>18</ele>
        <time>2025-06-17T08:14:39Z</time>
      </trkpt>
      <trkpt lat="43.29835" lon="3.51786">
        <ele>18</ele>
        <time>2025-06-17T08:14:40Z</time>
      </trkpt>
      <trkpt lat="43.29838" lon="3.51781">
        <ele>18</ele>
        <time>2025-06-17T08:14:41Z</time>
      </trkpt>
      <trkpt lat="43.29842" lon="3.51776">
        <ele>17.8</ele>
        <time>2025-06-17T08:14:42Z</time>
      </trkpt>
      <trkpt lat="43.29846" lon="3.51772">
        <ele>17.8</ele>
        <time>2025-06-17T08:14:43Z</time>
      </trkpt>
      <trkpt lat="43.2985" lon="3.51767">
        <ele>17.8</ele>
        <time>2025-06-17T08:14:44Z</time>
      </trkpt>
      <trkpt lat="43.29854" lon="3.51762">
        <ele>17.8</ele>
        <time>2025-06-17T08:14:45Z</time>
      </trkpt>
      <trkpt lat="43.29858" lon="3.51758">
        <ele>17.8</ele>
        <time>2025-06-17T08:14:46Z</time>
      </trkpt>
      <trkpt lat="43.29861" lon="3.51753">
        <ele>17.8</ele>
        <time>2025-06-17T08:14:47Z</time>
      </trkpt>
      <trkpt lat="43.29865" lon="3.51748">
        <ele>17.8</ele>
        <time>2025-06-17T08:14:48Z</time>
      </trkpt>
      <trkpt lat="43.29869" lon="3.51743">
        <ele>17.8</ele>
        <time>2025-06-17T08:14:49Z</time>
      </trkpt>
      <trkpt lat="43.29872" lon="3.51738">
        <ele>17.8</ele>
        <time>2025-06-17T08:14:50Z</time>
      </trkpt>
      <trkpt lat="43.29876" lon="3.51733">
        <ele>17.8</ele>
        <time>2025-06-17T08:14:51Z</time>
      </trkpt>
      <trkpt lat="43.2988" lon="3.51728">
        <ele>17.8</ele>
        <time>2025-06-17T08:14:52Z</time>
      </trkpt>
      <trkpt lat="43.29884" lon="3.51723">
        <ele>17.8</ele>
        <time>2025-06-17T08:14:53Z</time>
      </trkpt>
      <trkpt lat="43.29888" lon="3.51718">
        <ele>17.8</ele>
        <time>2025-06-17T08:14:54Z</time>
      </trkpt>
      <trkpt lat="43.29892" lon="3.51713">
        <ele>17.8</ele>
        <time>2025-06-17T08:14:55Z</time>
      </trkpt>
      <trkpt lat="43.29896" lon="3.51708">
        <ele>17.8</ele>
        <time>2025-06-17T08:14:56Z</time>
      </trkpt>
      <trkpt lat="43.299" lon="3.51703">
        <ele>17.8</ele>
        <time>2025-06-17T08:14:57Z</time>
      </trkpt>
      <trkpt lat="43.29904" lon="3.51698">
        <ele>17.8</ele>
        <time>2025-06-17T08:14:58Z</time>
      </trkpt>
      <trkpt lat="43.29907" lon="3.51693">
        <ele>17.8</ele>
        <time>2025-06-17T08:14:59Z</time>
      </trkpt>
      <trkpt lat="43.29911" lon="3.51688">
        <ele>17.6</ele>
        <time>2025-06-17T08:15:00Z</time>
      </trkpt>
      <trkpt lat="43.29915" lon="3.51683">
        <ele>17.8</ele>
        <time>2025-06-17T08:15:01Z</time>
      </trkpt>
      <trkpt lat="43.29919" lon="3.51678">
        <ele>17.8</ele>
        <time>2025-06-17T08:15:02Z</time>
      </trkpt>
      <trkpt lat="43.29923" lon="3.51673">
        <ele>17.8</ele>
        <time>2025-06-17T08:15:03Z</time>
      </trkpt>
      <trkpt lat="43.29927" lon="3.51668">
        <ele>17.8</ele>
        <time>2025-06-17T08:15:04Z</time>
      </trkpt>
      <trkpt lat="43.2993" lon="3.51662">
        <ele>17.8</ele>
        <time>2025-06-17T08:15:05Z</time>
      </trkpt>
      <trkpt lat="43.29934" lon="3.51657">
        <ele>17.8</ele>
        <time>2025-06-17T08:15:06Z</time>
      </trkpt>
      <trkpt lat="43.29938" lon="3.51652">
        <ele>17.8</ele>
        <time>2025-06-17T08:15:07Z</time>
      </trkpt>
      <trkpt lat="43.29942" lon="3.51647">
        <ele>17.8</ele>
        <time>2025-06-17T08:15:08Z</time>
      </trkpt>
      <trkpt lat="43.29946" lon="3.51641">
        <ele>18</ele>
        <time>2025-06-17T08:15:09Z</time>
      </trkpt>
      <trkpt lat="43.29949" lon="3.51636">
        <ele>18</ele>
        <time>2025-06-17T08:15:10Z</time>
      </trkpt>
      <trkpt lat="43.29953" lon="3.5163">
        <ele>18</ele>
        <time>2025-06-17T08:15:11Z</time>
      </trkpt>
      <trkpt lat="43.29957" lon="3.51624">
        <ele>18</ele>
        <time>2025-06-17T08:15:12Z</time>
      </trkpt>
      <trkpt lat="43.29959" lon="3.51617">
        <ele>18</ele>
        <time>2025-06-17T08:15:13Z</time>
      </trkpt>
      <trkpt lat="43.29962" lon="3.5161">
        <ele>18</ele>
        <time>2025-06-17T08:15:14Z</time>
      </trkpt>
      <trkpt lat="43.29965" lon="3.51604">
        <ele>18</ele>
        <time>2025-06-17T08:15:15Z</time>
      </trkpt>
      <trkpt lat="43.29967" lon="3.51597">
        <ele>18</ele>
        <time>2025-06-17T08:15:16Z</time>
      </trkpt>
      <trkpt lat="43.29969" lon="3.5159">
        <ele>18</ele>
        <time>2025-06-17T08:15:17Z</time>
      </trkpt>
      <trkpt lat="43.29971" lon="3.51583">
        <ele>18</ele>
        <time>2025-06-17T08:15:18Z</time>
      </trkpt>
      <trkpt lat="43.29973" lon="3.51576">
        <ele>18.2</ele>
        <time>2025-06-17T08:15:19Z</time>
      </trkpt>
      <trkpt lat="43.29975" lon="3.51569">
        <ele>18.2</ele>
        <time>2025-06-17T08:15:20Z</time>
      </trkpt>
      <trkpt lat="43.29977" lon="3.51562">
        <ele>18.2</ele>
        <time>2025-06-17T08:15:21Z</time>
      </trkpt>
      <trkpt lat="43.29978" lon="3.51555">
        <ele>18.2</ele>
        <time>2025-06-17T08:15:22Z</time>
      </trkpt>
      <trkpt lat="43.29981" lon="3.51548">
        <ele>18</ele>
        <time>2025-06-17T08:15:23Z</time>
      </trkpt>
      <trkpt lat="43.29983" lon="3.51541">
        <ele>18.2</ele>
        <time>2025-06-17T08:15:24Z</time>
      </trkpt>
      <trkpt lat="43.29985" lon="3.51534">
        <ele>18.2</ele>
        <time>2025-06-17T08:15:25Z</time>
      </trkpt>
      <trkpt lat="43.29988" lon="3.51528">
        <ele>18.2</ele>
        <time>2025-06-17T08:15:26Z</time>
      </trkpt>
      <trkpt lat="43.29991" lon="3.51521">
        <ele>18.2</ele>
        <time>2025-06-17T08:15:27Z</time>
      </trkpt>
      <trkpt lat="43.29993" lon="3.51515">
        <ele>18.2</ele>
        <time>2025-06-17T08:15:28Z</time>
      </trkpt>
      <trkpt lat="43.29996" lon="3.51509">
        <ele>18.4</ele>
        <time>2025-06-17T08:15:29Z</time>
      </trkpt>
      <trkpt lat="43.29999" lon="3.51503">
        <ele>18.2</ele>
        <time>2025-06-17T08:15:30Z</time>
      </trkpt>
      <trkpt lat="43.30002" lon="3.51497">
        <ele>18.2</ele>
        <time>2025-06-17T08:15:31Z</time>
      </trkpt>
      <trkpt lat="43.30005" lon="3.51491">
        <ele>18.2</ele>
        <time>2025-06-17T08:15:32Z</time>
      </trkpt>
      <trkpt lat="43.30008" lon="3.51485">
        <ele>18.2</ele>
        <time>2025-06-17T08:15:33Z</time>
      </trkpt>
      <trkpt lat="43.30012" lon="3.51479">
        <ele>18.2</ele>
        <time>2025-06-17T08:15:34Z</time>
      </trkpt>
      <trkpt lat="43.30017" lon="3.51475">
        <ele>18.2</ele>
        <time>2025-06-17T08:15:35Z</time>
      </trkpt>
      <trkpt lat="43.30021" lon="3.51471">
        <ele>18.4</ele>
        <time>2025-06-17T08:15:36Z</time>
      </trkpt>
      <trkpt lat="43.30026" lon="3.51469">
        <ele>18.2</ele>
        <time>2025-06-17T08:15:37Z</time>
      </trkpt>
      <trkpt lat="43.30031" lon="3.51467">
        <ele>18.2</ele>
        <time>2025-06-17T08:15:38Z</time>
      </trkpt>
      <trkpt lat="43.30037" lon="3.51467">
        <ele>18.2</ele>
        <time>2025-06-17T08:15:39Z</time>
      </trkpt>
      <trkpt lat="43.30042" lon="3.51468">
        <ele>18.2</ele>
        <time>2025-06-17T08:15:40Z</time>
      </trkpt>
      <trkpt lat="43.30047" lon="3.5147">
        <ele>18.2</ele>
        <time>2025-06-17T08:15:41Z</time>
      </trkpt>
      <trkpt lat="43.30053" lon="3.51471">
        <ele>18.2</ele>
        <time>2025-06-17T08:15:42Z</time>
      </trkpt>
      <trkpt lat="43.30058" lon="3.51473">
        <ele>18.2</ele>
        <time>2025-06-17T08:15:43Z</time>
      </trkpt>
      <trkpt lat="43.30063" lon="3.51475">
        <ele>18.2</ele>
        <time>2025-06-17T08:15:44Z</time>
      </trkpt>
      <trkpt lat="43.30069" lon="3.51477">
        <ele>18.2</ele>
        <time>2025-06-17T08:15:45Z</time>
      </trkpt>
      <trkpt lat="43.30075" lon="3.51478">
        <ele>18.2</ele>
        <time>2025-06-17T08:15:46Z</time>
      </trkpt>
      <trkpt lat="43.3008" lon="3.5148">
        <ele>18.2</ele>
        <time>2025-06-17T08:15:47Z</time>
      </trkpt>
      <trkpt lat="43.30086" lon="3.51482">
        <ele>18</ele>
        <time>2025-06-17T08:15:48Z</time>
      </trkpt>
      <trkpt lat="43.30092" lon="3.51484">
        <ele>18</ele>
        <time>2025-06-17T08:15:49Z</time>
      </trkpt>
      <trkpt lat="43.30098" lon="3.51486">
        <ele>18</ele>
        <time>2025-06-17T08:15:50Z</time>
      </trkpt>
      <trkpt lat="43.30104" lon="3.51488">
        <ele>18</ele>
        <time>2025-06-17T08:15:51Z</time>
      </trkpt>
      <trkpt lat="43.3011" lon="3.5149">
        <ele>18</ele>
        <time>2025-06-17T08:15:52Z</time>
      </trkpt>
      <trkpt lat="43.30115" lon="3.51492">
        <ele>18</ele>
        <time>2025-06-17T08:15:53Z</time>
      </trkpt>
      <trkpt lat="43.30121" lon="3.51493">
        <ele>18</ele>
        <time>2025-06-17T08:15:54Z</time>
      </trkpt>
      <trkpt lat="43.30127" lon="3.51495">
        <ele>18</ele>
        <time>2025-06-17T08:15:55Z</time>
      </trkpt>
      <trkpt lat="43.30133" lon="3.51497">
        <ele>18</ele>
        <time>2025-06-17T08:15:56Z</time>
      </trkpt>
      <trkpt lat="43.30138" lon="3.51498">
        <ele>17.8</ele>
        <time>2025-06-17T08:15:57Z</time>
      </trkpt>
      <trkpt lat="43.30144" lon="3.515">
        <ele>17.8</ele>
        <time>2025-06-17T08:15:58Z</time>
      </trkpt>
      <trkpt lat="43.3015" lon="3.51502">
        <ele>17.8</ele>
        <time>2025-06-17T08:15:59Z</time>
      </trkpt>
      <trkpt lat="43.30155" lon="3.51504">
        <ele>17.8</ele>
        <time>2025-06-17T08:16:00Z</time>
      </trkpt>
      <trkpt lat="43.30161" lon="3.51506">
        <ele>17.8</ele>
        <time>2025-06-17T08:16:01Z</time>
      </trkpt>
      <trkpt lat="43.30167" lon="3.51507">
        <ele>17.8</ele>
        <time>2025-06-17T08:16:02Z</time>
      </trkpt>
      <trkpt lat="43.30172" lon="3.51508">
        <ele>17.8</ele>
        <time>2025-06-17T08:16:03Z</time>
      </trkpt>
      <trkpt lat="43.30178" lon="3.5151">
        <ele>17.8</ele>
        <time>2025-06-17T08:16:04Z</time>
      </trkpt>
      <trkpt lat="43.30184" lon="3.51511">
        <ele>18</ele>
        <time>2025-06-17T08:16:05Z</time>
      </trkpt>
      <trkpt lat="43.3019" lon="3.51512">
        <ele>18</ele>
        <time>2025-06-17T08:16:06Z</time>
      </trkpt>
      <trkpt lat="43.30195" lon="3.51514">
        <ele>18</ele>
        <time>2025-06-17T08:16:07Z</time>
      </trkpt>
      <trkpt lat="43.302" lon="3.51515">
        <ele>18</ele>
        <time>2025-06-17T08:16:08Z</time>
      </trkpt>
      <trkpt lat="43.30206" lon="3.51517">
        <ele>18</ele>
        <time>2025-06-17T08:16:09Z</time>
      </trkpt>
      <trkpt lat="43.30212" lon="3.51518">
        <ele>18</ele>
        <time>2025-06-17T08:16:10Z</time>
      </trkpt>
      <trkpt lat="43.30218" lon="3.5152">
        <ele>18</ele>
        <time>2025-06-17T08:16:11Z</time>
      </trkpt>
      <trkpt lat="43.30224" lon="3.51522">
        <ele>18</ele>
        <time>2025-06-17T08:16:12Z</time>
      </trkpt>
      <trkpt lat="43.3023" lon="3.51524">
        <ele>18</ele>
        <time>2025-06-17T08:16:13Z</time>
      </trkpt>
      <trkpt lat="43.30235" lon="3.51525">
        <ele>17.8</ele>
        <time>2025-06-17T08:16:14Z</time>
      </trkpt>
      <trkpt lat="43.30241" lon="3.51527">
        <ele>17.8</ele>
        <time>2025-06-17T08:16:15Z</time>
      </trkpt>
      <trkpt lat="43.30247" lon="3.51528">
        <ele>17.8</ele>
        <time>2025-06-17T08:16:16Z</time>
      </trkpt>
      <trkpt lat="43.30252" lon="3.5153">
        <ele>17.8</ele>
        <time>2025-06-17T08:16:17Z</time>
      </trkpt>
      <trkpt lat="43.30258" lon="3.51531">
        <ele>17.8</ele>
        <time>2025-06-17T08:16:18Z</time>
      </trkpt>
      <trkpt lat="43.30264" lon="3.51532">
        <ele>17.8</ele>
        <time>2025-06-17T08:16:19Z</time>
      </trkpt>
      <trkpt lat="43.30269" lon="3.51534">
        <ele>17.8</ele>
        <time>2025-06-17T08:16:20Z</time>
      </trkpt>
      <trkpt lat="43.30275" lon="3.51535">
        <ele>17.8</ele>
        <time>2025-06-17T08:16:21Z</time>
      </trkpt>
      <trkpt lat="43.30281" lon="3.51537">
        <ele>17.8</ele>
        <time>2025-06-17T08:16:22Z</time>
      </trkpt>
      <trkpt lat="43.30286" lon="3.51539">
        <ele>17.8</ele>
        <time>2025-06-17T08:16:23Z</time>
      </trkpt>
      <trkpt lat="43.30292" lon="3.5154">
        <ele>17.8</ele>
        <time>2025-06-17T08:16:24Z</time>
      </trkpt>
      <trkpt lat="43.30298" lon="3.51542">
        <ele>17.8</ele>
        <time>2025-06-17T08:16:25Z</time>
      </trkpt>
      <trkpt lat="43.30304" lon="3.51544">
        <ele>17.8</ele>
        <time>2025-06-17T08:16:26Z</time>
      </trkpt>
      <trkpt lat="43.3031" lon="3.51545">
        <ele>18</ele>
        <time>2025-06-17T08:16:27Z</time>
      </trkpt>
      <trkpt lat="43.30316" lon="3.51547">
        <ele>17.8</ele>
        <time>2025-06-17T08:16:28Z</time>
      </trkpt>
      <trkpt lat="43.30321" lon="3.51548">
        <ele>18</ele>
        <time>2025-06-17T08:16:29Z</time>
      </trkpt>
      <trkpt lat="43.30327" lon="3.5155">
        <ele>18</ele>
        <time>2025-06-17T08:16:30Z</time>
      </trkpt>
      <trkpt lat="43.30333" lon="3.51552">
        <ele>18</ele>
        <time>2025-06-17T08:16:31Z</time>
      </trkpt>
      <trkpt lat="43.30339" lon="3.51554">
        <ele>18</ele>
        <time>2025-06-17T08:16:32Z</time>
      </trkpt>
      <trkpt lat="43.30345" lon="3.51555">
        <ele>18</ele>
        <time>2025-06-17T08:16:33Z</time>
      </trkpt>
      <trkpt lat="43.3035" lon="3.51557">
        <ele>18</ele>
        <time>2025-06-17T08:16:34Z</time>
      </trkpt>
      <trkpt lat="43.30356" lon="3.51558">
        <ele>18</ele>
        <time>2025-06-17T08:16:35Z</time>
      </trkpt>
      <trkpt lat="43.30362" lon="3.5156">
        <ele>18</ele>
        <time>2025-06-17T08:16:36Z</time>
      </trkpt>
      <trkpt lat="43.30368" lon="3.51561">
        <ele>18</ele>
        <time>2025-06-17T08:16:37Z</time>
      </trkpt>
      <trkpt lat="43.30374" lon="3.51563">
        <ele>18</ele>
        <time>2025-06-17T08:16:38Z</time>
      </trkpt>
      <trkpt lat="43.3038" lon="3.51565">
        <ele>18</ele>
        <time>2025-06-17T08:16:39Z</time>
      </trkpt>
      <trkpt lat="43.30386" lon="3.51566">
        <ele>18</ele>
        <time>2025-06-17T08:16:40Z</time>
      </trkpt>
      <trkpt lat="43.30392" lon="3.51568">
        <ele>18</ele>
        <time>2025-06-17T08:16:41Z</time>
      </trkpt>
      <trkpt lat="43.30398" lon="3.51569">
        <ele>18</ele>
        <time>2025-06-17T08:16:42Z</time>
      </trkpt>
      <trkpt lat="43.30404" lon="3.51571">
        <ele>18</ele>
        <time>2025-06-17T08:16:43Z</time>
      </trkpt>
      <trkpt lat="43.30409" lon="3.51572">
        <ele>18</ele>
        <time>2025-06-17T08:16:44Z</time>
      </trkpt>
      <trkpt lat="43.30415" lon="3.51574">
        <ele>18</ele>
        <time>2025-06-17T08:16:45Z</time>
      </trkpt>
      <trkpt lat="43.30421" lon="3.51575">
        <ele>17.8</ele>
        <time>2025-06-17T08:16:46Z</time>
      </trkpt>
      <trkpt lat="43.30427" lon="3.51577">
        <ele>17.8</ele>
        <time>2025-06-17T08:16:47Z</time>
      </trkpt>
      <trkpt lat="43.30433" lon="3.51578">
        <ele>17.8</ele>
        <time>2025-06-17T08:16:48Z</time>
      </trkpt>
      <trkpt lat="43.30439" lon="3.5158">
        <ele>17.8</ele>
        <time>2025-06-17T08:16:49Z</time>
      </trkpt>
      <trkpt lat="43.30445" lon="3.51581">
        <ele>17.8</ele>
        <time>2025-06-17T08:16:50Z</time>
      </trkpt>
      <trkpt lat="43.30451" lon="3.51583">
        <ele>17.8</ele>
        <time>2025-06-17T08:16:51Z</time>
      </trkpt>
      <trkpt lat="43.30457" lon="3.51584">
        <ele>17.8</ele>
        <time>2025-06-17T08:16:52Z</time>
      </trkpt>
      <trkpt lat="43.30462" lon="3.51586">
        <ele>17.8</ele>
        <time>2025-06-17T08:16:53Z</time>
      </trkpt>
      <trkpt lat="43.30468" lon="3.51587">
        <ele>17.8</ele>
        <time>2025-06-17T08:16:54Z</time>
      </trkpt>
      <trkpt lat="43.30474" lon="3.51589">
        <ele>17.8</ele>
        <time>2025-06-17T08:16:55Z</time>
      </trkpt>
      <trkpt lat="43.30479" lon="3.5159">
        <ele>17.8</ele>
        <time>2025-06-17T08:16:56Z</time>
      </trkpt>
      <trkpt lat="43.30485" lon="3.51592">
        <ele>18</ele>
        <time>2025-06-17T08:16:57Z</time>
      </trkpt>
      <trkpt lat="43.30491" lon="3.51593">
        <ele>18</ele>
        <time>2025-06-17T08:16:58Z</time>
      </trkpt>
      <trkpt lat="43.30496" lon="3.51595">
        <ele>18</ele>
        <time>2025-06-17T08:16:59Z</time>
      </trkpt>
      <trkpt lat="43.30502" lon="3.51597">
        <ele>18</ele>
        <time>2025-06-17T08:17:00Z</time>
      </trkpt>
      <trkpt lat="43.30508" lon="3.51598">
        <ele>18</ele>
        <time>2025-06-17T08:17:01Z</time>
      </trkpt>
      <trkpt lat="43.30514" lon="3.516">
        <ele>18</ele>
        <time>2025-06-17T08:17:02Z</time>
      </trkpt>
      <trkpt lat="43.30519" lon="3.51603">
        <ele>18</ele>
        <time>2025-06-17T08:17:03Z</time>
      </trkpt>
      <trkpt lat="43.30524" lon="3.51608">
        <ele>18.2</ele>
        <time>2025-06-17T08:17:04Z</time>
      </trkpt>
      <trkpt lat="43.30529" lon="3.51614">
        <ele>18.2</ele>
        <time>2025-06-17T08:17:05Z</time>
      </trkpt>
      <trkpt lat="43.30532" lon="3.51621">
        <ele>18.2</ele>
        <time>2025-06-17T08:17:06Z</time>
      </trkpt>
      <trkpt lat="43.30535" lon="3.51628">
        <ele>18.2</ele>
        <time>2025-06-17T08:17:07Z</time>
      </trkpt>
      <trkpt lat="43.30539" lon="3.51636">
        <ele>18.2</ele>
        <time>2025-06-17T08:17:08Z</time>
      </trkpt>
      <trkpt lat="43.30542" lon="3.51643">
        <ele>18.2</ele>
        <time>2025-06-17T08:17:09Z</time>
      </trkpt>
      <trkpt lat="43.30547" lon="3.51649">
        <ele>18.2</ele>
        <time>2025-06-17T08:17:10Z</time>
      </trkpt>
      <trkpt lat="43.30552" lon="3.51653">
        <ele>18.2</ele>
        <time>2025-06-17T08:17:11Z</time>
      </trkpt>
      <trkpt lat="43.30558" lon="3.51655">
        <ele>18.2</ele>
        <time>2025-06-17T08:17:12Z</time>
      </trkpt>
      <trkpt lat="43.30564" lon="3.51657">
        <ele>18</ele>
        <time>2025-06-17T08:17:13Z</time>
      </trkpt>
      <trkpt lat="43.3057" lon="3.51658">
        <ele>18</ele>
        <time>2025-06-17T08:17:14Z</time>
      </trkpt>
      <trkpt lat="43.30577" lon="3.51659">
        <ele>18</ele>
        <time>2025-06-17T08:17:15Z</time>
      </trkpt>
      <trkpt lat="43.30583" lon="3.5166">
        <ele>18</ele>
        <time>2025-06-17T08:17:16Z</time>
      </trkpt>
      <trkpt lat="43.30589" lon="3.5166">
        <ele>18.2</ele>
        <time>2025-06-17T08:17:17Z</time>
      </trkpt>
      <trkpt lat="43.30595" lon="3.5166">
        <ele>18.2</ele>
        <time>2025-06-17T08:17:18Z</time>
      </trkpt>
      <trkpt lat="43.30601" lon="3.5166">
        <ele>18.2</ele>
        <time>2025-06-17T08:17:19Z</time>
      </trkpt>
      <trkpt lat="43.30608" lon="3.5166">
        <ele>18.2</ele>
        <time>2025-06-17T08:17:20Z</time>
      </trkpt>
      <trkpt lat="43.30614" lon="3.5166">
        <ele>18.2</ele>
        <time>2025-06-17T08:17:21Z</time>
      </trkpt>
      <trkpt lat="43.3062" lon="3.5166">
        <ele>18.2</ele>
        <time>2025-06-17T08:17:22Z</time>
      </trkpt>
      <trkpt lat="43.30626" lon="3.51661">
        <ele>18.2</ele>
        <time>2025-06-17T08:17:23Z</time>
      </trkpt>
      <trkpt lat="43.30632" lon="3.51661">
        <ele>18.2</ele>
        <time>2025-06-17T08:17:24Z</time>
      </trkpt>
      <trkpt lat="43.30637" lon="3.51661">
        <ele>18.2</ele>
        <time>2025-06-17T08:17:25Z</time>
      </trkpt>
      <trkpt lat="43.30643" lon="3.51662">
        <ele>18.2</ele>
        <time>2025-06-17T08:17:26Z</time>
      </trkpt>
      <trkpt lat="43.30648" lon="3.51662">
        <ele>18.2</ele>
        <time>2025-06-17T08:17:27Z</time>
      </trkpt>
      <trkpt lat="43.30653" lon="3.51662">
        <ele>18.2</ele>
        <time>2025-06-17T08:17:28Z</time>
      </trkpt>
      <trkpt lat="43.30659" lon="3.51662">
        <ele>18.2</ele>
        <time>2025-06-17T08:17:29Z</time>
      </trkpt>
      <trkpt lat="43.30664" lon="3.51662">
        <ele>18.4</ele>
        <time>2025-06-17T08:17:30Z</time>
      </trkpt>
      <trkpt lat="43.30669" lon="3.51662">
        <ele>18.4</ele>
        <time>2025-06-17T08:17:31Z</time>
      </trkpt>
      <trkpt lat="43.30674" lon="3.51662">
        <ele>18.4</ele>
        <time>2025-06-17T08:17:32Z</time>
      </trkpt>
      <trkpt lat="43.3068" lon="3.51661">
        <ele>18.4</ele>
        <time>2025-06-17T08:17:33Z</time>
      </trkpt>
      <trkpt lat="43.30686" lon="3.5166">
        <ele>18.4</ele>
        <time>2025-06-17T08:17:34Z</time>
      </trkpt>
      <trkpt lat="43.30691" lon="3.51658">
        <ele>18.2</ele>
        <time>2025-06-17T08:17:35Z</time>
      </trkpt>
      <trkpt lat="43.30696" lon="3.51655">
        <ele>18.2</ele>
        <time>2025-06-17T08:17:36Z</time>
      </trkpt>
      <trkpt lat="43.30701" lon="3.51652">
        <ele>18.2</ele>
        <time>2025-06-17T08:17:37Z</time>
      </trkpt>
      <trkpt lat="43.30706" lon="3.51648">
        <ele>18.2</ele>
        <time>2025-06-17T08:17:38Z</time>
      </trkpt>
      <trkpt lat="43.3071" lon="3.51643">
        <ele>18.2</ele>
        <time>2025-06-17T08:17:39Z</time>
      </trkpt>
      <trkpt lat="43.30714" lon="3.51637">
        <ele>18.2</ele>
        <time>2025-06-17T08:17:40Z</time>
      </trkpt>
      <trkpt lat="43.30718" lon="3.51631">
        <ele>18.2</ele>
        <time>2025-06-17T08:17:41Z</time>
      </trkpt>
      <trkpt lat="43.30721" lon="3.51624">
        <ele>18.2</ele>
        <time>2025-06-17T08:17:42Z</time>
      </trkpt>
      <trkpt lat="43.30724" lon="3.51618">
        <ele>18</ele>
        <time>2025-06-17T08:17:43Z</time>
      </trkpt>
      <trkpt lat="43.30726" lon="3.5161">
        <ele>18</ele>
        <time>2025-06-17T08:17:44Z</time>
      </trkpt>
      <trkpt lat="43.30729" lon="3.51603">
        <ele>18</ele>
        <time>2025-06-17T08:17:45Z</time>
      </trkpt>
      <trkpt lat="43.30731" lon="3.51596">
        <ele>18</ele>
        <time>2025-06-17T08:17:46Z</time>
      </trkpt>
      <trkpt lat="43.30734" lon="3.51589">
        <ele>17.8</ele>
        <time>2025-06-17T08:17:47Z</time>
      </trkpt>
      <trkpt lat="43.30736" lon="3.51582">
        <ele>18</ele>
        <time>2025-06-17T08:17:48Z</time>
      </trkpt>
      <trkpt lat="43.30738" lon="3.51575">
        <ele>18</ele>
        <time>2025-06-17T08:17:49Z</time>
      </trkpt>
      <trkpt lat="43.30741" lon="3.51568">
        <ele>18</ele>
        <time>2025-06-17T08:17:50Z</time>
      </trkpt>
      <trkpt lat="43.30743" lon="3.51561">
        <ele>18</ele>
        <time>2025-06-17T08:17:51Z</time>
      </trkpt>
      <trkpt lat="43.30745" lon="3.51554">
        <ele>18</ele>
        <time>2025-06-17T08:17:52Z</time>
      </trkpt>
      <trkpt lat="43.30747" lon="3.51547">
        <ele>18</ele>
        <time>2025-06-17T08:17:53Z</time>
      </trkpt>
      <trkpt lat="43.30749" lon="3.5154">
        <ele>18</ele>
        <time>2025-06-17T08:17:54Z</time>
      </trkpt>
      <trkpt lat="43.30751" lon="3.51533">
        <ele>18</ele>
        <time>2025-06-17T08:17:55Z</time>
      </trkpt>
      <trkpt lat="43.30752" lon="3.51526">
        <ele>18</ele>
        <time>2025-06-17T08:17:56Z</time>
      </trkpt>
      <trkpt lat="43.30754" lon="3.51518">
        <ele>18</ele>
        <time>2025-06-17T08:17:57Z</time>
      </trkpt>
      <trkpt lat="43.30755" lon="3.51511">
        <ele>18.2</ele>
        <time>2025-06-17T08:17:58Z</time>
      </trkpt>
      <trkpt lat="43.30757" lon="3.51504">
        <ele>18.2</ele>
        <time>2025-06-17T08:17:59Z</time>
      </trkpt>
      <trkpt lat="43.30758" lon="3.51497">
        <ele>18.4</ele>
        <time>2025-06-17T08:18:00Z</time>
      </trkpt>
      <trkpt lat="43.3076" lon="3.5149">
        <ele>18.4</ele>
        <time>2025-06-17T08:18:01Z</time>
      </trkpt>
      <trkpt lat="43.30763" lon="3.51484">
        <ele>18.4</ele>
        <time>2025-06-17T08:18:02Z</time>
      </trkpt>
      <trkpt lat="43.30766" lon="3.51478">
        <ele>18.6</ele>
        <time>2025-06-17T08:18:03Z</time>
      </trkpt>
      <trkpt lat="43.3077" lon="3.51472">
        <ele>18.6</ele>
        <time>2025-06-17T08:18:04Z</time>
      </trkpt>
      <trkpt lat="43.30774" lon="3.51468">
        <ele>18.6</ele>
        <time>2025-06-17T08:18:05Z</time>
      </trkpt>
      <trkpt lat="43.30779" lon="3.51462">
        <ele>18.6</ele>
        <time>2025-06-17T08:18:06Z</time>
      </trkpt>
      <trkpt lat="43.30783" lon="3.51457">
        <ele>18.6</ele>
        <time>2025-06-17T08:18:07Z</time>
      </trkpt>
      <trkpt lat="43.30786" lon="3.51451">
        <ele>18.6</ele>
        <time>2025-06-17T08:18:08Z</time>
      </trkpt>
      <trkpt lat="43.30791" lon="3.51446">
        <ele>18.6</ele>
        <time>2025-06-17T08:18:09Z</time>
      </trkpt>
      <trkpt lat="43.30795" lon="3.51441">
        <ele>18.6</ele>
        <time>2025-06-17T08:18:10Z</time>
      </trkpt>
      <trkpt lat="43.30799" lon="3.51436">
        <ele>18.6</ele>
        <time>2025-06-17T08:18:11Z</time>
      </trkpt>
      <trkpt lat="43.30803" lon="3.5143">
        <ele>18.6</ele>
        <time>2025-06-17T08:18:12Z</time>
      </trkpt>
      <trkpt lat="43.30807" lon="3.51425">
        <ele>18.6</ele>
        <time>2025-06-17T08:18:13Z</time>
      </trkpt>
      <trkpt lat="43.30812" lon="3.5142">
        <ele>18.6</ele>
        <time>2025-06-17T08:18:14Z</time>
      </trkpt>
      <trkpt lat="43.30816" lon="3.51414">
        <ele>18.6</ele>
        <time>2025-06-17T08:18:15Z</time>
      </trkpt>
      <trkpt lat="43.3082" lon="3.51409">
        <ele>18.6</ele>
        <time>2025-06-17T08:18:16Z</time>
      </trkpt>
      <trkpt lat="43.30824" lon="3.51404">
        <ele>18.6</ele>
        <time>2025-06-17T08:18:17Z</time>
      </trkpt>
      <trkpt lat="43.30828" lon="3.51399">
        <ele>18.6</ele>
        <time>2025-06-17T08:18:18Z</time>
      </trkpt>
      <trkpt lat="43.30832" lon="3.51394">
        <ele>18.6</ele>
        <time>2025-06-17T08:18:19Z</time>
      </trkpt>
      <trkpt lat="43.30836" lon="3.51389">
        <ele>18.6</ele>
        <time>2025-06-17T08:18:20Z</time>
      </trkpt>
      <trkpt lat="43.3084" lon="3.51384">
        <ele>18.8</ele>
        <time>2025-06-17T08:18:21Z</time>
      </trkpt>
      <trkpt lat="43.30844" lon="3.51379">
        <ele>18.8</ele>
        <time>2025-06-17T08:18:22Z</time>
      </trkpt>
      <trkpt lat="43.30848" lon="3.51374">
        <ele>18.6</ele>
        <time>2025-06-17T08:18:23Z</time>
      </trkpt>
      <trkpt lat="43.30852" lon="3.51369">
        <ele>18.6</ele>
        <time>2025-06-17T08:18:24Z</time>
      </trkpt>
      <trkpt lat="43.30856" lon="3.51364">
        <ele>18.6</ele>
        <time>2025-06-17T08:18:25Z</time>
      </trkpt>
      <trkpt lat="43.3086" lon="3.51359">
        <ele>18.8</ele>
        <time>2025-06-17T08:18:26Z</time>
      </trkpt>
      <trkpt lat="43.30863" lon="3.51354">
        <ele>18.8</ele>
        <time>2025-06-17T08:18:27Z</time>
      </trkpt>
      <trkpt lat="43.30867" lon="3.5135">
        <ele>18.8</ele>
        <time>2025-06-17T08:18:28Z</time>
      </trkpt>
      <trkpt lat="43.3087" lon="3.51346">
        <ele>18.8</ele>
        <time>2025-06-17T08:18:29Z</time>
      </trkpt>
      <trkpt lat="43.30873" lon="3.51342">
        <ele>18.8</ele>
        <time>2025-06-17T08:18:30Z</time>
      </trkpt>
      <trkpt lat="43.30876" lon="3.51339">
        <ele>18.8</ele>
        <time>2025-06-17T08:18:31Z</time>
      </trkpt>
      <trkpt lat="43.30879" lon="3.51337">
        <ele>18.8</ele>
        <time>2025-06-17T08:18:32Z</time>
      </trkpt>
      <trkpt lat="43.30882" lon="3.51336">
        <ele>19</ele>
        <time>2025-06-17T08:18:33Z</time>
      </trkpt>
      <trkpt lat="43.30884" lon="3.51338">
        <ele>19</ele>
        <time>2025-06-17T08:18:34Z</time>
      </trkpt>
      <trkpt lat="43.30886" lon="3.51342">
        <ele>19.2</ele>
        <time>2025-06-17T08:18:35Z</time>
      </trkpt>
      <trkpt lat="43.30888" lon="3.51348">
        <ele>19.2</ele>
        <time>2025-06-17T08:18:36Z</time>
      </trkpt>
      <trkpt lat="43.3089" lon="3.51353">
        <ele>19.2</ele>
        <time>2025-06-17T08:18:37Z</time>
      </trkpt>
      <trkpt lat="43.30892" lon="3.51359">
        <ele>19.2</ele>
        <time>2025-06-17T08:18:38Z</time>
      </trkpt>
      <trkpt lat="43.30894" lon="3.51365">
        <ele>19.2</ele>
        <time>2025-06-17T08:18:39Z</time>
      </trkpt>
      <trkpt lat="43.30896" lon="3.51371">
        <ele>19.4</ele>
        <time>2025-06-17T08:18:40Z</time>
      </trkpt>
      <trkpt lat="43.30898" lon="3.51378">
        <ele>19.2</ele>
        <time>2025-06-17T08:18:41Z</time>
      </trkpt>
      <trkpt lat="43.309" lon="3.51385">
        <ele>19.4</ele>
        <time>2025-06-17T08:18:42Z</time>
      </trkpt>
      <trkpt lat="43.30903" lon="3.51391">
        <ele>19.4</ele>
        <time>2025-06-17T08:18:43Z</time>
      </trkpt>
      <trkpt lat="43.30905" lon="3.51398">
        <ele>19.4</ele>
        <time>2025-06-17T08:18:44Z</time>
      </trkpt>
      <trkpt lat="43.30907" lon="3.51405">
        <ele>19.4</ele>
        <time>2025-06-17T08:18:45Z</time>
      </trkpt>
      <trkpt lat="43.30909" lon="3.51412">
        <ele>19.4</ele>
        <time>2025-06-17T08:18:46Z</time>
      </trkpt>
      <trkpt lat="43.30911" lon="3.5142">
        <ele>19.4</ele>
        <time>2025-06-17T08:18:47Z</time>
      </trkpt>
      <trkpt lat="43.30914" lon="3.51427">
        <ele>19.4</ele>
        <time>2025-06-17T08:18:48Z</time>
      </trkpt>
      <trkpt lat="43.30916" lon="3.51434">
        <ele>19.4</ele>
        <time>2025-06-17T08:18:49Z</time>
      </trkpt>
      <trkpt lat="43.30919" lon="3.51442">
        <ele>19.4</ele>
        <time>2025-06-17T08:18:50Z</time>
      </trkpt>
      <trkpt lat="43.30921" lon="3.5145">
        <ele>19.4</ele>
        <time>2025-06-17T08:18:51Z</time>
      </trkpt>
      <trkpt lat="43.30924" lon="3.51457">
        <ele>19.4</ele>
        <time>2025-06-17T08:18:52Z</time>
      </trkpt>
      <trkpt lat="43.30927" lon="3.51465">
        <ele>19.4</ele>
        <time>2025-06-17T08:18:53Z</time>
      </trkpt>
      <trkpt lat="43.30929" lon="3.51473">
        <ele>19.4</ele>
        <time>2025-06-17T08:18:54Z</time>
      </trkpt>
      <trkpt lat="43.30931" lon="3.51481">
        <ele>19.4</ele>
        <time>2025-06-17T08:18:55Z</time>
      </trkpt>
      <trkpt lat="43.30934" lon="3.51489">
        <ele>19.4</ele>
        <time>2025-06-17T08:18:56Z</time>
      </trkpt>
      <trkpt lat="43.30937" lon="3.51497">
        <ele>19.4</ele>
        <time>2025-06-17T08:18:57Z</time>
      </trkpt>
      <trkpt lat="43.3094" lon="3.51505">
        <ele>19.4</ele>
        <time>2025-06-17T08:18:58Z</time>
      </trkpt>
      <trkpt lat="43.30942" lon="3.51514">
        <ele>19.4</ele>
        <time>2025-06-17T08:18:59Z</time>
      </trkpt>
      <trkpt lat="43.30945" lon="3.51522">
        <ele>19.4</ele>
        <time>2025-06-17T08:19:00Z</time>
      </trkpt>
      <trkpt lat="43.30948" lon="3.5153">
        <ele>19.2</ele>
        <time>2025-06-17T08:19:01Z</time>
      </trkpt>
      <trkpt lat="43.3095" lon="3.51539">
        <ele>19.2</ele>
        <time>2025-06-17T08:19:02Z</time>
      </trkpt>
      <trkpt lat="43.30953" lon="3.51547">
        <ele>19.4</ele>
        <time>2025-06-17T08:19:03Z</time>
      </trkpt>
      <trkpt lat="43.30956" lon="3.51555">
        <ele>19.4</ele>
        <time>2025-06-17T08:19:04Z</time>
      </trkpt>
      <trkpt lat="43.30958" lon="3.51564">
        <ele>19.2</ele>
        <time>2025-06-17T08:19:05Z</time>
      </trkpt>
      <trkpt lat="43.30961" lon="3.51572">
        <ele>19.2</ele>
        <time>2025-06-17T08:19:06Z</time>
      </trkpt>
      <trkpt lat="43.30964" lon="3.5158">
        <ele>19.2</ele>
        <time>2025-06-17T08:19:07Z</time>
      </trkpt>
      <trkpt lat="43.30966" lon="3.51589">
        <ele>19.2</ele>
        <time>2025-06-17T08:19:08Z</time>
      </trkpt>
      <trkpt lat="43.30969" lon="3.51598">
        <ele>19.2</ele>
        <time>2025-06-17T08:19:09Z</time>
      </trkpt>
      <trkpt lat="43.30971" lon="3.51607">
        <ele>19.2</ele>
        <time>2025-06-17T08:19:10Z</time>
      </trkpt>
      <trkpt lat="43.30974" lon="3.51615">
        <ele>19</ele>
        <time>2025-06-17T08:19:11Z</time>
      </trkpt>
      <trkpt lat="43.30977" lon="3.51624">
        <ele>19</ele>
        <time>2025-06-17T08:19:12Z</time>
      </trkpt>
      <trkpt lat="43.3098" lon="3.51632">
        <ele>19</ele>
        <time>2025-06-17T08:19:13Z</time>
      </trkpt>
      <trkpt lat="43.30982" lon="3.51641">
        <ele>19</ele>
        <time>2025-06-17T08:19:14Z</time>
      </trkpt>
      <trkpt lat="43.30985" lon="3.5165">
        <ele>19</ele>
        <time>2025-06-17T08:19:15Z</time>
      </trkpt>
      <trkpt lat="43.30988" lon="3.51658">
        <ele>19</ele>
        <time>2025-06-17T08:19:16Z</time>
      </trkpt>
      <trkpt lat="43.3099" lon="3.51667">
        <ele>19</ele>
        <time>2025-06-17T08:19:17Z</time>
      </trkpt>
      <trkpt lat="43.30993" lon="3.51676">
        <ele>18.8</ele>
        <time>2025-06-17T08:19:18Z</time>
      </trkpt>
      <trkpt lat="43.30996" lon="3.51684">
        <ele>18.8</ele>
        <time>2025-06-17T08:19:19Z</time>
      </trkpt>
      <trkpt lat="43.30999" lon="3.51693">
        <ele>18.8</ele>
        <time>2025-06-17T08:19:20Z</time>
      </trkpt>
      <trkpt lat="43.31001" lon="3.51702">
        <ele>18.8</ele>
        <time>2025-06-17T08:19:21Z</time>
      </trkpt>
      <trkpt lat="43.31004" lon="3.5171">
        <ele>18.8</ele>
        <time>2025-06-17T08:19:22Z</time>
      </trkpt>
      <trkpt lat="43.31006" lon="3.51719">
        <ele>18.8</ele>
        <time>2025-06-17T08:19:23Z</time>
      </trkpt>
      <trkpt lat="43.31009" lon="3.51727">
        <ele>18.8</ele>
        <time>2025-06-17T08:19:24Z</time>
      </trkpt>
      <trkpt lat="43.31012" lon="3.51735">
        <ele>18.8</ele>
        <time>2025-06-17T08:19:25Z</time>
      </trkpt>
      <trkpt lat="43.31014" lon="3.51743">
        <ele>18.8</ele>
        <time>2025-06-17T08:19:26Z</time>
      </trkpt>
      <trkpt lat="43.31017" lon="3.51751">
        <ele>18.8</ele>
        <time>2025-06-17T08:19:27Z</time>
      </trkpt>
      <trkpt lat="43.31019" lon="3.51759">
        <ele>18.8</ele>
        <time>2025-06-17T08:19:28Z</time>
      </trkpt>
      <trkpt lat="43.31022" lon="3.51767">
        <ele>18.8</ele>
        <time>2025-06-17T08:19:29Z</time>
      </trkpt>
      <trkpt lat="43.31024" lon="3.51775">
        <ele>18.8</ele>
        <time>2025-06-17T08:19:30Z</time>
      </trkpt>
      <trkpt lat="43.31027" lon="3.51784">
        <ele>18.8</ele>
        <time>2025-06-17T08:19:31Z</time>
      </trkpt>
      <trkpt lat="43.3103" lon="3.51792">
        <ele>18.8</ele>
        <time>2025-06-17T08:19:32Z</time>
      </trkpt>
      <trkpt lat="43.31032" lon="3.518">
        <ele>18.8</ele>
        <time>2025-06-17T08:19:33Z</time>
      </trkpt>
      <trkpt lat="43.31035" lon="3.51809">
        <ele>18.6</ele>
        <time>2025-06-17T08:19:34Z</time>
      </trkpt>
      <trkpt lat="43.31038" lon="3.51817">
        <ele>18.8</ele>
        <time>2025-06-17T08:19:35Z</time>
      </trkpt>
      <trkpt lat="43.3104" lon="3.51825">
        <ele>19</ele>
        <time>2025-06-17T08:19:36Z</time>
      </trkpt>
      <trkpt lat="43.31043" lon="3.51833">
        <ele>18.8</ele>
        <time>2025-06-17T08:19:37Z</time>
      </trkpt>
      <trkpt lat="43.31046" lon="3.51842">
        <ele>18.8</ele>
        <time>2025-06-17T08:19:38Z</time>
      </trkpt>
      <trkpt lat="43.31049" lon="3.5185">
        <ele>18.8</ele>
        <time>2025-06-17T08:19:39Z</time>
      </trkpt>
      <trkpt lat="43.31052" lon="3.51859">
        <ele>18.8</ele>
        <time>2025-06-17T08:19:40Z</time>
      </trkpt>
      <trkpt lat="43.31055" lon="3.51867">
        <ele>18.8</ele>
        <time>2025-06-17T08:19:41Z</time>
      </trkpt>
      <trkpt lat="43.31059" lon="3.51875">
        <ele>18.8</ele>
        <time>2025-06-17T08:19:42Z</time>
      </trkpt>
      <trkpt lat="43.31061" lon="3.51883">
        <ele>18.8</ele>
        <time>2025-06-17T08:19:43Z</time>
      </trkpt>
      <trkpt lat="43.31065" lon="3.51892">
        <ele>18.8</ele>
        <time>2025-06-17T08:19:44Z</time>
      </trkpt>
      <trkpt lat="43.31068" lon="3.519">
        <ele>18.8</ele>
        <time>2025-06-17T08:19:45Z</time>
      </trkpt>
      <trkpt lat="43.31071" lon="3.51908">
        <ele>18.8</ele>
        <time>2025-06-17T08:19:46Z</time>
      </trkpt>
      <trkpt lat="43.31074" lon="3.51916">
        <ele>18.8</ele>
        <time>2025-06-17T08:19:47Z</time>
      </trkpt>
      <trkpt lat="43.31077" lon="3.51925">
        <ele>18.8</ele>
        <time>2025-06-17T08:19:48Z</time>
      </trkpt>
      <trkpt lat="43.31079" lon="3.51934">
        <ele>18.8</ele>
        <time>2025-06-17T08:19:49Z</time>
      </trkpt>
      <trkpt lat="43.31082" lon="3.51942">
        <ele>18.8</ele>
        <time>2025-06-17T08:19:50Z</time>
      </trkpt>
      <trkpt lat="43.31085" lon="3.51951">
        <ele>18.8</ele>
        <time>2025-06-17T08:19:51Z</time>
      </trkpt>
      <trkpt lat="43.31088" lon="3.5196">
        <ele>18.6</ele>
        <time>2025-06-17T08:19:52Z</time>
      </trkpt>
      <trkpt lat="43.3109" lon="3.51969">
        <ele>18.6</ele>
        <time>2025-06-17T08:19:53Z</time>
      </trkpt>
      <trkpt lat="43.31093" lon="3.51978">
        <ele>18.6</ele>
        <time>2025-06-17T08:19:54Z</time>
      </trkpt>
      <trkpt lat="43.31096" lon="3.51987">
        <ele>18.6</ele>
        <time>2025-06-17T08:19:55Z</time>
      </trkpt>
      <trkpt lat="43.31098" lon="3.51995">
        <ele>18.6</ele>
        <time>2025-06-17T08:19:56Z</time>
      </trkpt>
      <trkpt lat="43.31101" lon="3.52004">
        <ele>18.8</ele>
        <time>2025-06-17T08:19:57Z</time>
      </trkpt>
      <trkpt lat="43.31104" lon="3.52013">
        <ele>18.8</ele>
        <time>2025-06-17T08:19:58Z</time>
      </trkpt>
      <trkpt lat="43.31107" lon="3.52021">
        <ele>18.8</ele>
        <time>2025-06-17T08:19:59Z</time>
      </trkpt>
      <trkpt lat="43.3111" lon="3.5203">
        <ele>18.8</ele>
        <time>2025-06-17T08:20:00Z</time>
      </trkpt>
      <trkpt lat="43.31113" lon="3.5204">
        <ele>18.8</ele>
        <time>2025-06-17T08:20:01Z</time>
      </trkpt>
      <trkpt lat="43.31115" lon="3.52049">
        <ele>18.8</ele>
        <time>2025-06-17T08:20:02Z</time>
      </trkpt>
      <trkpt lat="43.31118" lon="3.52058">
        <ele>18.8</ele>
        <time>2025-06-17T08:20:03Z</time>
      </trkpt>
      <trkpt lat="43.31121" lon="3.52067">
        <ele>18.8</ele>
        <time>2025-06-17T08:20:04Z</time>
      </trkpt>
      <trkpt lat="43.31124" lon="3.52075">
        <ele>18.8</ele>
        <time>2025-06-17T08:20:05Z</time>
      </trkpt>
      <trkpt lat="43.31126" lon="3.52084">
        <ele>18.8</ele>
        <time>2025-06-17T08:20:06Z</time>
      </trkpt>
      <trkpt lat="43.31129" lon="3.52092">
        <ele>18.8</ele>
        <time>2025-06-17T08:20:07Z</time>
      </trkpt>
      <trkpt lat="43.31132" lon="3.52102">
        <ele>19</ele>
        <time>2025-06-17T08:20:08Z</time>
      </trkpt>
      <trkpt lat="43.31135" lon="3.52111">
        <ele>18.8</ele>
        <time>2025-06-17T08:20:09Z</time>
      </trkpt>
      <trkpt lat="43.31137" lon="3.5212">
        <ele>19</ele>
        <time>2025-06-17T08:20:10Z</time>
      </trkpt>
      <trkpt lat="43.3114" lon="3.52129">
        <ele>18.8</ele>
        <time>2025-06-17T08:20:11Z</time>
      </trkpt>
      <trkpt lat="43.31143" lon="3.52137">
        <ele>18.8</ele>
        <time>2025-06-17T08:20:12Z</time>
      </trkpt>
      <trkpt lat="43.31146" lon="3.52146">
        <ele>18.8</ele>
        <time>2025-06-17T08:20:13Z</time>
      </trkpt>
      <trkpt lat="43.31148" lon="3.52155">
        <ele>18.8</ele>
        <time>2025-06-17T08:20:14Z</time>
      </trkpt>
      <trkpt lat="43.31151" lon="3.52163">
        <ele>18.8</ele>
        <time>2025-06-17T08:20:15Z</time>
      </trkpt>
      <trkpt lat="43.31154" lon="3.52172">
        <ele>18.8</ele>
        <time>2025-06-17T08:20:16Z</time>
      </trkpt>
      <trkpt lat="43.31156" lon="3.5218">
        <ele>18.8</ele>
        <time>2025-06-17T08:20:17Z</time>
      </trkpt>
      <trkpt lat="43.31159" lon="3.52189">
        <ele>18.8</ele>
        <time>2025-06-17T08:20:18Z</time>
      </trkpt>
      <trkpt lat="43.31162" lon="3.52198">
        <ele>18.8</ele>
        <time>2025-06-17T08:20:19Z</time>
      </trkpt>
      <trkpt lat="43.31164" lon="3.52207">
        <ele>18.8</ele>
        <time>2025-06-17T08:20:20Z</time>
      </trkpt>
      <trkpt lat="43.31167" lon="3.52215">
        <ele>18.8</ele>
        <time>2025-06-17T08:20:21Z</time>
      </trkpt>
      <trkpt lat="43.3117" lon="3.52224">
        <ele>18.8</ele>
        <time>2025-06-17T08:20:22Z</time>
      </trkpt>
      <trkpt lat="43.31173" lon="3.52233">
        <ele>18.6</ele>
        <time>2025-06-17T08:20:23Z</time>
      </trkpt>
      <trkpt lat="43.31175" lon="3.52242">
        <ele>18.6</ele>
        <time>2025-06-17T08:20:24Z</time>
      </trkpt>
      <trkpt lat="43.31178" lon="3.52251">
        <ele>18.6</ele>
        <time>2025-06-17T08:20:25Z</time>
      </trkpt>
      <trkpt lat="43.3118" lon="3.5226">
        <ele>18.8</ele>
        <time>2025-06-17T08:20:26Z</time>
      </trkpt>
      <trkpt lat="43.31183" lon="3.52268">
        <ele>18.8</ele>
        <time>2025-06-17T08:20:27Z</time>
      </trkpt>
      <trkpt lat="43.31186" lon="3.52277">
        <ele>18.8</ele>
        <time>2025-06-17T08:20:28Z</time>
      </trkpt>
      <trkpt lat="43.31189" lon="3.52286">
        <ele>18.8</ele>
        <time>2025-06-17T08:20:29Z</time>
      </trkpt>
      <trkpt lat="43.31192" lon="3.52295">
        <ele>19</ele>
        <time>2025-06-17T08:20:30Z</time>
      </trkpt>
      <trkpt lat="43.31195" lon="3.52303">
        <ele>19</ele>
        <time>2025-06-17T08:20:31Z</time>
      </trkpt>
      <trkpt lat="43.31198" lon="3.52313">
        <ele>18.8</ele>
        <time>2025-06-17T08:20:32Z</time>
      </trkpt>
      <trkpt lat="43.312" lon="3.52321">
        <ele>18.8</ele>
        <time>2025-06-17T08:20:33Z</time>
      </trkpt>
      <trkpt lat="43.31203" lon="3.5233">
        <ele>18.8</ele>
        <time>2025-06-17T08:20:34Z</time>
      </trkpt>
      <trkpt lat="43.31206" lon="3.52339">
        <ele>18.8</ele>
        <time>2025-06-17T08:20:35Z</time>
      </trkpt>
      <trkpt lat="43.31208" lon="3.52348">
        <ele>18.8</ele>
        <time>2025-06-17T08:20:36Z</time>
      </trkpt>
      <trkpt lat="43.31211" lon="3.52356">
        <ele>18.8</ele>
        <time>2025-06-17T08:20:37Z</time>
      </trkpt>
      <trkpt lat="43.31214" lon="3.52365">
        <ele>19</ele>
        <time>2025-06-17T08:20:38Z</time>
      </trkpt>
      <trkpt lat="43.31216" lon="3.52373">
        <ele>19</ele>
        <time>2025-06-17T08:20:39Z</time>
      </trkpt>
      <trkpt lat="43.31219" lon="3.52381">
        <ele>19</ele>
        <time>2025-06-17T08:20:40Z</time>
      </trkpt>
      <trkpt lat="43.31222" lon="3.5239">
        <ele>19.2</ele>
        <time>2025-06-17T08:20:41Z</time>
      </trkpt>
      <trkpt lat="43.31224" lon="3.52399">
        <ele>19</ele>
        <time>2025-06-17T08:20:42Z</time>
      </trkpt>
      <trkpt lat="43.31227" lon="3.52407">
        <ele>19</ele>
        <time>2025-06-17T08:20:43Z</time>
      </trkpt>
      <trkpt lat="43.3123" lon="3.52416">
        <ele>19</ele>
        <time>2025-06-17T08:20:44Z</time>
      </trkpt>
      <trkpt lat="43.31232" lon="3.52425">
        <ele>19</ele>
        <time>2025-06-17T08:20:45Z</time>
      </trkpt>
      <trkpt lat="43.31235" lon="3.52433">
        <ele>19</ele>
        <time>2025-06-17T08:20:46Z</time>
      </trkpt>
      <trkpt lat="43.31237" lon="3.52442">
        <ele>19</ele>
        <time>2025-06-17T08:20:47Z</time>
      </trkpt>
      <trkpt lat="43.3124" lon="3.5245">
        <ele>19</ele>
        <time>2025-06-17T08:20:48Z</time>
      </trkpt>
      <trkpt lat="43.31242" lon="3.52457">
        <ele>19</ele>
        <time>2025-06-17T08:20:49Z</time>
      </trkpt>
      <trkpt lat="43.31246" lon="3.52467">
        <ele>19</ele>
        <time>2025-06-17T08:20:50Z</time>
      </trkpt>
      <trkpt lat="43.31249" lon="3.52476">
        <ele>19</ele>
        <time>2025-06-17T08:20:51Z</time>
      </trkpt>
      <trkpt lat="43.31251" lon="3.52484">
        <ele>18.8</ele>
        <time>2025-06-17T08:20:52Z</time>
      </trkpt>
      <trkpt lat="43.31254" lon="3.52493">
        <ele>18.8</ele>
        <time>2025-06-17T08:20:53Z</time>
      </trkpt>
      <trkpt lat="43.31257" lon="3.52502">
        <ele>18.8</ele>
        <time>2025-06-17T08:20:54Z</time>
      </trkpt>
      <trkpt lat="43.31259" lon="3.5251">
        <ele>18.8</ele>
        <time>2025-06-17T08:20:55Z</time>
      </trkpt>
      <trkpt lat="43.31262" lon="3.52519">
        <ele>19</ele>
        <time>2025-06-17T08:20:56Z</time>
      </trkpt>
      <trkpt lat="43.31265" lon="3.52527">
        <ele>19</ele>
        <time>2025-06-17T08:20:57Z</time>
      </trkpt>
      <trkpt lat="43.31267" lon="3.52536">
        <ele>19</ele>
        <time>2025-06-17T08:20:58Z</time>
      </trkpt>
      <trkpt lat="43.3127" lon="3.52545">
        <ele>19</ele>
        <time>2025-06-17T08:20:59Z</time>
      </trkpt>
      <trkpt lat="43.31273" lon="3.52554">
        <ele>19</ele>
        <time>2025-06-17T08:21:00Z</time>
      </trkpt>
      <trkpt lat="43.31276" lon="3.52563">
        <ele>19</ele>
        <time>2025-06-17T08:21:01Z</time>
      </trkpt>
      <trkpt lat="43.31279" lon="3.52572">
        <ele>19</ele>
        <time>2025-06-17T08:21:02Z</time>
      </trkpt>
      <trkpt lat="43.31282" lon="3.52581">
        <ele>19</ele>
        <time>2025-06-17T08:21:03Z</time>
      </trkpt>
      <trkpt lat="43.31284" lon="3.5259">
        <ele>19</ele>
        <time>2025-06-17T08:21:04Z</time>
      </trkpt>
      <trkpt lat="43.31287" lon="3.52599">
        <ele>19</ele>
        <time>2025-06-17T08:21:05Z</time>
      </trkpt>
      <trkpt lat="43.3129" lon="3.52608">
        <ele>19</ele>
        <time>2025-06-17T08:21:06Z</time>
      </trkpt>
      <trkpt lat="43.31292" lon="3.52616">
        <ele>19</ele>
        <time>2025-06-17T08:21:07Z</time>
      </trkpt>
      <trkpt lat="43.31295" lon="3.52626">
        <ele>19</ele>
        <time>2025-06-17T08:21:08Z</time>
      </trkpt>
      <trkpt lat="43.31298" lon="3.52635">
        <ele>19</ele>
        <time>2025-06-17T08:21:09Z</time>
      </trkpt>
      <trkpt lat="43.31301" lon="3.52644">
        <ele>19</ele>
        <time>2025-06-17T08:21:10Z</time>
      </trkpt>
      <trkpt lat="43.31304" lon="3.52653">
        <ele>19</ele>
        <time>2025-06-17T08:21:11Z</time>
      </trkpt>
      <trkpt lat="43.31307" lon="3.52662">
        <ele>19</ele>
        <time>2025-06-17T08:21:12Z</time>
      </trkpt>
      <trkpt lat="43.3131" lon="3.5267">
        <ele>19</ele>
        <time>2025-06-17T08:21:13Z</time>
      </trkpt>
      <trkpt lat="43.31312" lon="3.52679">
        <ele>19</ele>
        <time>2025-06-17T08:21:14Z</time>
      </trkpt>
      <trkpt lat="43.31315" lon="3.52688">
        <ele>19.2</ele>
        <time>2025-06-17T08:21:15Z</time>
      </trkpt>
      <trkpt lat="43.31318" lon="3.52697">
        <ele>19.2</ele>
        <time>2025-06-17T08:21:16Z</time>
      </trkpt>
      <trkpt lat="43.31321" lon="3.52706">
        <ele>19.2</ele>
        <time>2025-06-17T08:21:17Z</time>
      </trkpt>
      <trkpt lat="43.31323" lon="3.52715">
        <ele>19.2</ele>
        <time>2025-06-17T08:21:18Z</time>
      </trkpt>
      <trkpt lat="43.31326" lon="3.52724">
        <ele>19.2</ele>
        <time>2025-06-17T08:21:19Z</time>
      </trkpt>
      <trkpt lat="43.3133" lon="3.52735">
        <ele>19.2</ele>
        <time>2025-06-17T08:21:20Z</time>
      </trkpt>
      <trkpt lat="43.31333" lon="3.52745">
        <ele>19.2</ele>
        <time>2025-06-17T08:21:21Z</time>
      </trkpt>
      <trkpt lat="43.31337" lon="3.52756">
        <ele>19.2</ele>
        <time>2025-06-17T08:21:22Z</time>
      </trkpt>
      <trkpt lat="43.3134" lon="3.52765">
        <ele>19.2</ele>
        <time>2025-06-17T08:21:23Z</time>
      </trkpt>
      <trkpt lat="43.31342" lon="3.52773">
        <ele>19.2</ele>
        <time>2025-06-17T08:21:24Z</time>
      </trkpt>
      <trkpt lat="43.31343" lon="3.52781">
        <ele>19.2</ele>
        <time>2025-06-17T08:21:25Z</time>
      </trkpt>
      <trkpt lat="43.31345" lon="3.52789">
        <ele>19.2</ele>
        <time>2025-06-17T08:21:26Z</time>
      </trkpt>
      <trkpt lat="43.31348" lon="3.52798">
        <ele>19.2</ele>
        <time>2025-06-17T08:21:27Z</time>
      </trkpt>
      <trkpt lat="43.31351" lon="3.52807">
        <ele>19.2</ele>
        <time>2025-06-17T08:21:28Z</time>
      </trkpt>
      <trkpt lat="43.31354" lon="3.52815">
        <ele>19.4</ele>
        <time>2025-06-17T08:21:29Z</time>
      </trkpt>
      <trkpt lat="43.31357" lon="3.52824">
        <ele>19.4</ele>
        <time>2025-06-17T08:21:30Z</time>
      </trkpt>
      <trkpt lat="43.3136" lon="3.52832">
        <ele>19.4</ele>
        <time>2025-06-17T08:21:31Z</time>
      </trkpt>
      <trkpt lat="43.31363" lon="3.52841">
        <ele>19.4</ele>
        <time>2025-06-17T08:21:32Z</time>
      </trkpt>
      <trkpt lat="43.31365" lon="3.5285">
        <ele>19.4</ele>
        <time>2025-06-17T08:21:33Z</time>
      </trkpt>
      <trkpt lat="43.31368" lon="3.52859">
        <ele>19.2</ele>
        <time>2025-06-17T08:21:34Z</time>
      </trkpt>
      <trkpt lat="43.3137" lon="3.52868">
        <ele>19.2</ele>
        <time>2025-06-17T08:21:35Z</time>
      </trkpt>
      <trkpt lat="43.31373" lon="3.52877">
        <ele>19.2</ele>
        <time>2025-06-17T08:21:36Z</time>
      </trkpt>
      <trkpt lat="43.31376" lon="3.52885">
        <ele>19.2</ele>
        <time>2025-06-17T08:21:37Z</time>
      </trkpt>
      <trkpt lat="43.31378" lon="3.52894">
        <ele>19.2</ele>
        <time>2025-06-17T08:21:38Z</time>
      </trkpt>
      <trkpt lat="43.31381" lon="3.52902">
        <ele>19.4</ele>
        <time>2025-06-17T08:21:39Z</time>
      </trkpt>
      <trkpt lat="43.31384" lon="3.5291">
        <ele>19.4</ele>
        <time>2025-06-17T08:21:40Z</time>
      </trkpt>
      <trkpt lat="43.31386" lon="3.52918">
        <ele>19.2</ele>
        <time>2025-06-17T08:21:41Z</time>
      </trkpt>
      <trkpt lat="43.31389" lon="3.52924">
        <ele>19.4</ele>
        <time>2025-06-17T08:21:42Z</time>
      </trkpt>
      <trkpt lat="43.3139" lon="3.5293">
        <ele>19.4</ele>
        <time>2025-06-17T08:21:43Z</time>
      </trkpt>
      <trkpt lat="43.31392" lon="3.52934">
        <ele>19.4</ele>
        <time>2025-06-17T08:21:44Z</time>
      </trkpt>
      <trkpt lat="43.31393" lon="3.52936">
        <ele>19.4</ele>
        <time>2025-06-17T08:21:45Z</time>
      </trkpt>
      <trkpt lat="43.31393" lon="3.52939">
        <ele>19.4</ele>
        <time>2025-06-17T08:21:46Z</time>
      </trkpt>
      <trkpt lat="43.31394" lon="3.5294">
        <ele>19.4</ele>
        <time>2025-06-17T08:21:47Z</time>
      </trkpt>
      <trkpt lat="43.31394" lon="3.52943">
        <ele>19.4</ele>
        <time>2025-06-17T08:21:48Z</time>
      </trkpt>
      <trkpt lat="43.31395" lon="3.52945">
        <ele>19.4</ele>
        <time>2025-06-17T08:21:49Z</time>
      </trkpt>
      <trkpt lat="43.31397" lon="3.52949">
        <ele>19.4</ele>
        <time>2025-06-17T08:21:50Z</time>
      </trkpt>
      <trkpt lat="43.31398" lon="3.52953">
        <ele>19.4</ele>
        <time>2025-06-17T08:21:51Z</time>
      </trkpt>
      <trkpt lat="43.314" lon="3.52958">
        <ele>19.4</ele>
        <time>2025-06-17T08:21:52Z</time>
      </trkpt>
      <trkpt lat="43.31402" lon="3.52963">
        <ele>19.4</ele>
        <time>2025-06-17T08:21:53Z</time>
      </trkpt>
      <trkpt lat="43.31404" lon="3.52969">
        <ele>19.4</ele>
        <time>2025-06-17T08:21:54Z</time>
      </trkpt>
      <trkpt lat="43.31405" lon="3.52975">
        <ele>19.4</ele>
        <time>2025-06-17T08:21:55Z</time>
      </trkpt>
      <trkpt lat="43.31407" lon="3.52981">
        <ele>19.4</ele>
        <time>2025-06-17T08:21:56Z</time>
      </trkpt>
      <trkpt lat="43.31409" lon="3.52988">
        <ele>19.4</ele>
        <time>2025-06-17T08:21:57Z</time>
      </trkpt>
      <trkpt lat="43.31411" lon="3.52995">
        <ele>19.4</ele>
        <time>2025-06-17T08:21:58Z</time>
      </trkpt>
      <trkpt lat="43.31414" lon="3.53003">
        <ele>19.4</ele>
        <time>2025-06-17T08:21:59Z</time>
      </trkpt>
      <trkpt lat="43.31416" lon="3.53009">
        <ele>19.4</ele>
        <time>2025-06-17T08:22:00Z</time>
      </trkpt>
      <trkpt lat="43.31418" lon="3.53017">
        <ele>19.2</ele>
        <time>2025-06-17T08:22:01Z</time>
      </trkpt>
      <trkpt lat="43.31421" lon="3.53024">
        <ele>19.2</ele>
        <time>2025-06-17T08:22:02Z</time>
      </trkpt>
      <trkpt lat="43.31423" lon="3.53032">
        <ele>19.2</ele>
        <time>2025-06-17T08:22:03Z</time>
      </trkpt>
      <trkpt lat="43.31425" lon="3.53039">
        <ele>19.2</ele>
        <time>2025-06-17T08:22:04Z</time>
      </trkpt>
      <trkpt lat="43.31427" lon="3.53047">
        <ele>19.2</ele>
        <time>2025-06-17T08:22:05Z</time>
      </trkpt>
      <trkpt lat="43.31429" lon="3.53054">
        <ele>19.2</ele>
        <time>2025-06-17T08:22:06Z</time>
      </trkpt>
      <trkpt lat="43.31432" lon="3.53062">
        <ele>19.2</ele>
        <time>2025-06-17T08:22:07Z</time>
      </trkpt>
      <trkpt lat="43.31434" lon="3.53069">
        <ele>19.2</ele>
        <time>2025-06-17T08:22:08Z</time>
      </trkpt>
      <trkpt lat="43.31436" lon="3.53077">
        <ele>19.2</ele>
        <time>2025-06-17T08:22:09Z</time>
      </trkpt>
      <trkpt lat="43.31439" lon="3.53084">
        <ele>19.2</ele>
        <time>2025-06-17T08:22:10Z</time>
      </trkpt>
      <trkpt lat="43.31441" lon="3.53092">
        <ele>19.2</ele>
        <time>2025-06-17T08:22:11Z</time>
      </trkpt>
      <trkpt lat="43.31444" lon="3.53099">
        <ele>19.2</ele>
        <time>2025-06-17T08:22:12Z</time>
      </trkpt>
      <trkpt lat="43.31446" lon="3.53105">
        <ele>19</ele>
        <time>2025-06-17T08:22:13Z</time>
      </trkpt>
      <trkpt lat="43.31448" lon="3.53112">
        <ele>19</ele>
        <time>2025-06-17T08:22:14Z</time>
      </trkpt>
      <trkpt lat="43.3145" lon="3.5312">
        <ele>19</ele>
        <time>2025-06-17T08:22:15Z</time>
      </trkpt>
      <trkpt lat="43.31451" lon="3.53126">
        <ele>19</ele>
        <time>2025-06-17T08:22:16Z</time>
      </trkpt>
      <trkpt lat="43.31454" lon="3.53135">
        <ele>19</ele>
        <time>2025-06-17T08:22:17Z</time>
      </trkpt>
      <trkpt lat="43.31456" lon="3.53142">
        <ele>19</ele>
        <time>2025-06-17T08:22:18Z</time>
      </trkpt>
      <trkpt lat="43.31458" lon="3.53149">
        <ele>19</ele>
        <time>2025-06-17T08:22:19Z</time>
      </trkpt>
      <trkpt lat="43.3146" lon="3.53157">
        <ele>18.8</ele>
        <time>2025-06-17T08:22:20Z</time>
      </trkpt>
      <trkpt lat="43.31463" lon="3.53164">
        <ele>18.8</ele>
        <time>2025-06-17T08:22:21Z</time>
      </trkpt>
      <trkpt lat="43.31465" lon="3.53172">
        <ele>18.8</ele>
        <time>2025-06-17T08:22:22Z</time>
      </trkpt>
      <trkpt lat="43.31468" lon="3.5318">
        <ele>18.8</ele>
        <time>2025-06-17T08:22:23Z</time>
      </trkpt>
      <trkpt lat="43.31471" lon="3.53187">
        <ele>18.6</ele>
        <time>2025-06-17T08:22:24Z</time>
      </trkpt>
      <trkpt lat="43.31473" lon="3.53195">
        <ele>18.6</ele>
        <time>2025-06-17T08:22:25Z</time>
      </trkpt>
      <trkpt lat="43.31476" lon="3.53203">
        <ele>18.6</ele>
        <time>2025-06-17T08:22:26Z</time>
      </trkpt>
      <trkpt lat="43.31478" lon="3.53211">
        <ele>18.6</ele>
        <time>2025-06-17T08:22:27Z</time>
      </trkpt>
      <trkpt lat="43.31481" lon="3.53219">
        <ele>18.6</ele>
        <time>2025-06-17T08:22:28Z</time>
      </trkpt>
      <trkpt lat="43.31483" lon="3.53227">
        <ele>18.6</ele>
        <time>2025-06-17T08:22:29Z</time>
      </trkpt>
      <trkpt lat="43.31486" lon="3.53236">
        <ele>18.4</ele>
        <time>2025-06-17T08:22:30Z</time>
      </trkpt>
      <trkpt lat="43.31489" lon="3.53244">
        <ele>18.6</ele>
        <time>2025-06-17T08:22:31Z</time>
      </trkpt>
      <trkpt lat="43.31491" lon="3.53253">
        <ele>18.6</ele>
        <time>2025-06-17T08:22:32Z</time>
      </trkpt>
      <trkpt lat="43.31494" lon="3.53261">
        <ele>18.4</ele>
        <time>2025-06-17T08:22:33Z</time>
      </trkpt>
      <trkpt lat="43.31497" lon="3.53269">
        <ele>18.4</ele>
        <time>2025-06-17T08:22:34Z</time>
      </trkpt>
      <trkpt lat="43.31499" lon="3.53278">
        <ele>18.4</ele>
        <time>2025-06-17T08:22:35Z</time>
      </trkpt>
      <trkpt lat="43.31501" lon="3.53286">
        <ele>18.6</ele>
        <time>2025-06-17T08:22:36Z</time>
      </trkpt>
      <trkpt lat="43.31504" lon="3.53294">
        <ele>18.6</ele>
        <time>2025-06-17T08:22:37Z</time>
      </trkpt>
      <trkpt lat="43.31506" lon="3.53301">
        <ele>18.6</ele>
        <time>2025-06-17T08:22:38Z</time>
      </trkpt>
      <trkpt lat="43.31509" lon="3.53309">
        <ele>18.6</ele>
        <time>2025-06-17T08:22:39Z</time>
      </trkpt>
      <trkpt lat="43.31511" lon="3.53316">
        <ele>18.6</ele>
        <time>2025-06-17T08:22:40Z</time>
      </trkpt>
      <trkpt lat="43.31513" lon="3.53324">
        <ele>18.6</ele>
        <time>2025-06-17T08:22:41Z</time>
      </trkpt>
      <trkpt lat="43.31516" lon="3.53331">
        <ele>18.6</ele>
        <time>2025-06-17T08:22:42Z</time>
      </trkpt>
      <trkpt lat="43.31518" lon="3.53339">
        <ele>18.6</ele>
        <time>2025-06-17T08:22:43Z</time>
      </trkpt>
      <trkpt lat="43.3152" lon="3.53346">
        <ele>18.6</ele>
        <time>2025-06-17T08:22:44Z</time>
      </trkpt>
      <trkpt lat="43.31522" lon="3.53353">
        <ele>18.6</ele>
        <time>2025-06-17T08:22:45Z</time>
      </trkpt>
      <trkpt lat="43.31524" lon="3.5336">
        <ele>18.6</ele>
        <time>2025-06-17T08:22:46Z</time>
      </trkpt>
      <trkpt lat="43.31527" lon="3.53366">
        <ele>18.6</ele>
        <time>2025-06-17T08:22:47Z</time>
      </trkpt>
      <trkpt lat="43.31529" lon="3.53373">
        <ele>18.6</ele>
        <time>2025-06-17T08:22:48Z</time>
      </trkpt>
      <trkpt lat="43.31531" lon="3.53379">
        <ele>18.6</ele>
        <time>2025-06-17T08:22:49Z</time>
      </trkpt>
      <trkpt lat="43.31532" lon="3.53386">
        <ele>18.6</ele>
        <time>2025-06-17T08:22:50Z</time>
      </trkpt>
      <trkpt lat="43.31534" lon="3.53393">
        <ele>18.6</ele>
        <time>2025-06-17T08:22:51Z</time>
      </trkpt>
      <trkpt lat="43.31537" lon="3.53399">
        <ele>18.6</ele>
        <time>2025-06-17T08:22:52Z</time>
      </trkpt>
      <trkpt lat="43.31539" lon="3.53405">
        <ele>18.6</ele>
        <time>2025-06-17T08:22:53Z</time>
      </trkpt>
      <trkpt lat="43.31541" lon="3.53412">
        <ele>18.4</ele>
        <time>2025-06-17T08:22:54Z</time>
      </trkpt>
      <trkpt lat="43.31543" lon="3.53418">
        <ele>18.6</ele>
        <time>2025-06-17T08:22:55Z</time>
      </trkpt>
      <trkpt lat="43.31545" lon="3.53423">
        <ele>18.6</ele>
        <time>2025-06-17T08:22:56Z</time>
      </trkpt>
      <trkpt lat="43.31546" lon="3.5343">
        <ele>18.6</ele>
        <time>2025-06-17T08:22:57Z</time>
      </trkpt>
      <trkpt lat="43.31548" lon="3.53436">
        <ele>18.6</ele>
        <time>2025-06-17T08:22:58Z</time>
      </trkpt>
      <trkpt lat="43.3155" lon="3.53442">
        <ele>18.6</ele>
        <time>2025-06-17T08:22:59Z</time>
      </trkpt>
      <trkpt lat="43.31552" lon="3.53448">
        <ele>18.6</ele>
        <time>2025-06-17T08:23:00Z</time>
      </trkpt>
      <trkpt lat="43.31554" lon="3.53455">
        <ele>18.6</ele>
        <time>2025-06-17T08:23:01Z</time>
      </trkpt>
      <trkpt lat="43.31556" lon="3.53461">
        <ele>18.6</ele>
        <time>2025-06-17T08:23:02Z</time>
      </trkpt>
      <trkpt lat="43.31557" lon="3.53467">
        <ele>18.6</ele>
        <time>2025-06-17T08:23:03Z</time>
      </trkpt>
      <trkpt lat="43.31558" lon="3.53473">
        <ele>18.6</ele>
        <time>2025-06-17T08:23:04Z</time>
      </trkpt>
      <trkpt lat="43.31559" lon="3.53481">
        <ele>18.6</ele>
        <time>2025-06-17T08:23:05Z</time>
      </trkpt>
      <trkpt lat="43.31559" lon="3.53487">
        <ele>18.6</ele>
        <time>2025-06-17T08:23:06Z</time>
      </trkpt>
      <trkpt lat="43.31558" lon="3.53493">
        <ele>18.6</ele>
        <time>2025-06-17T08:23:07Z</time>
      </trkpt>
      <trkpt lat="43.31557" lon="3.53499">
        <ele>18.6</ele>
        <time>2025-06-17T08:23:08Z</time>
      </trkpt>
      <trkpt lat="43.31556" lon="3.53505">
        <ele>18.6</ele>
        <time>2025-06-17T08:23:09Z</time>
      </trkpt>
      <trkpt lat="43.31556" lon="3.53511">
        <ele>18.6</ele>
        <time>2025-06-17T08:23:10Z</time>
      </trkpt>
      <trkpt lat="43.31556" lon="3.53517">
        <ele>18.6</ele>
        <time>2025-06-17T08:23:11Z</time>
      </trkpt>
      <trkpt lat="43.31556" lon="3.53521">
        <ele>18.4</ele>
        <time>2025-06-17T08:23:12Z</time>
      </trkpt>
      <trkpt lat="43.31555" lon="3.53524">
        <ele>18.4</ele>
        <time>2025-06-17T08:23:13Z</time>
      </trkpt>
      <trkpt lat="43.31555" lon="3.53526">
        <ele>18.4</ele>
        <time>2025-06-17T08:23:14Z</time>
      </trkpt>
      <trkpt lat="43.31558" lon="3.53536">
        <ele>18.2</ele>
        <time>2025-06-17T08:23:24Z</time>
      </trkpt>
      <trkpt lat="43.31561" lon="3.53538">
        <ele>18.2</ele>
        <time>2025-06-17T08:23:25Z</time>
      </trkpt>
      <trkpt lat="43.31563" lon="3.53537">
        <ele>18.2</ele>
        <time>2025-06-17T08:23:26Z</time>
      </trkpt>
      <trkpt lat="43.31565" lon="3.53536">
        <ele>18.2</ele>
        <time>2025-06-17T08:23:27Z</time>
      </trkpt>
      <trkpt lat="43.31568" lon="3.53535">
        <ele>18.2</ele>
        <time>2025-06-17T08:23:28Z</time>
      </trkpt>
      <trkpt lat="43.31571" lon="3.53537">
        <ele>18.2</ele>
        <time>2025-06-17T08:23:29Z</time>
      </trkpt>
      <trkpt lat="43.31574" lon="3.5354">
        <ele>18.4</ele>
        <time>2025-06-17T08:23:30Z</time>
      </trkpt>
      <trkpt lat="43.31577" lon="3.53545">
        <ele>18.4</ele>
        <time>2025-06-17T08:23:31Z</time>
      </trkpt>
      <trkpt lat="43.3158" lon="3.5355">
        <ele>18.4</ele>
        <time>2025-06-17T08:23:32Z</time>
      </trkpt>
      <trkpt lat="43.31582" lon="3.53556">
        <ele>18.4</ele>
        <time>2025-06-17T08:23:33Z</time>
      </trkpt>
      <trkpt lat="43.31584" lon="3.53562">
        <ele>18.4</ele>
        <time>2025-06-17T08:23:34Z</time>
      </trkpt>
      <trkpt lat="43.31587" lon="3.53569">
        <ele>18.4</ele>
        <time>2025-06-17T08:23:35Z</time>
      </trkpt>
      <trkpt lat="43.31588" lon="3.53576">
        <ele>18.2</ele>
        <time>2025-06-17T08:23:36Z</time>
      </trkpt>
      <trkpt lat="43.31591" lon="3.53583">
        <ele>18.2</ele>
        <time>2025-06-17T08:23:37Z</time>
      </trkpt>
      <trkpt lat="43.31594" lon="3.5359">
        <ele>18.2</ele>
        <time>2025-06-17T08:23:38Z</time>
      </trkpt>
      <trkpt lat="43.31596" lon="3.53597">
        <ele>18.2</ele>
        <time>2025-06-17T08:23:39Z</time>
      </trkpt>
      <trkpt lat="43.31598" lon="3.53603">
        <ele>18.2</ele>
        <time>2025-06-17T08:23:40Z</time>
      </trkpt>
      <trkpt lat="43.316" lon="3.53611">
        <ele>18.2</ele>
        <time>2025-06-17T08:23:41Z</time>
      </trkpt>
      <trkpt lat="43.31603" lon="3.53619">
        <ele>18.2</ele>
        <time>2025-06-17T08:23:42Z</time>
      </trkpt>
      <trkpt lat="43.31605" lon="3.53626">
        <ele>18.2</ele>
        <time>2025-06-17T08:23:43Z</time>
      </trkpt>
      <trkpt lat="43.31607" lon="3.53633">
        <ele>18.2</ele>
        <time>2025-06-17T08:23:44Z</time>
      </trkpt>
      <trkpt lat="43.3161" lon="3.53641">
        <ele>18.2</ele>
        <time>2025-06-17T08:23:45Z</time>
      </trkpt>
      <trkpt lat="43.31612" lon="3.53648">
        <ele>18.2</ele>
        <time>2025-06-17T08:23:46Z</time>
      </trkpt>
      <trkpt lat="43.31615" lon="3.53656">
        <ele>18.2</ele>
        <time>2025-06-17T08:23:47Z</time>
      </trkpt>
      <trkpt lat="43.31618" lon="3.53663">
        <ele>18.2</ele>
        <time>2025-06-17T08:23:48Z</time>
      </trkpt>
      <trkpt lat="43.3162" lon="3.53671">
        <ele>18.2</ele>
        <time>2025-06-17T08:23:49Z</time>
      </trkpt>
      <trkpt lat="43.31622" lon="3.53678">
        <ele>18.2</ele>
        <time>2025-06-17T08:23:50Z</time>
      </trkpt>
      <trkpt lat="43.31625" lon="3.53687">
        <ele>18.4</ele>
        <time>2025-06-17T08:23:51Z</time>
      </trkpt>
      <trkpt lat="43.31627" lon="3.53695">
        <ele>18.4</ele>
        <time>2025-06-17T08:23:52Z</time>
      </trkpt>
      <trkpt lat="43.3163" lon="3.53703">
        <ele>18.2</ele>
        <time>2025-06-17T08:23:53Z</time>
      </trkpt>
      <trkpt lat="43.31632" lon="3.53711">
        <ele>18.4</ele>
        <time>2025-06-17T08:23:54Z</time>
      </trkpt>
      <trkpt lat="43.31635" lon="3.53719">
        <ele>18.4</ele>
        <time>2025-06-17T08:23:55Z</time>
      </trkpt>
      <trkpt lat="43.31637" lon="3.53728">
        <ele>18.4</ele>
        <time>2025-06-17T08:23:56Z</time>
      </trkpt>
      <trkpt lat="43.3164" lon="3.53736">
        <ele>18.4</ele>
        <time>2025-06-17T08:23:57Z</time>
      </trkpt>
      <trkpt lat="43.31642" lon="3.53744">
        <ele>18.4</ele>
        <time>2025-06-17T08:23:58Z</time>
      </trkpt>
      <trkpt lat="43.31645" lon="3.53752">
        <ele>18.4</ele>
        <time>2025-06-17T08:23:59Z</time>
      </trkpt>
      <trkpt lat="43.31648" lon="3.53761">
        <ele>18.4</ele>
        <time>2025-06-17T08:24:00Z</time>
      </trkpt>
      <trkpt lat="43.3165" lon="3.53769">
        <ele>18.4</ele>
        <time>2025-06-17T08:24:01Z</time>
      </trkpt>
      <trkpt lat="43.31653" lon="3.53778">
        <ele>18.4</ele>
        <time>2025-06-17T08:24:02Z</time>
      </trkpt>
      <trkpt lat="43.31656" lon="3.53787">
        <ele>18.4</ele>
        <time>2025-06-17T08:24:03Z</time>
      </trkpt>
      <trkpt lat="43.31658" lon="3.53795">
        <ele>18.4</ele>
        <time>2025-06-17T08:24:04Z</time>
      </trkpt>
      <trkpt lat="43.31661" lon="3.53804">
        <ele>18.4</ele>
        <time>2025-06-17T08:24:05Z</time>
      </trkpt>
      <trkpt lat="43.31663" lon="3.53812">
        <ele>18.4</ele>
        <time>2025-06-17T08:24:06Z</time>
      </trkpt>
      <trkpt lat="43.31666" lon="3.53821">
        <ele>18.4</ele>
        <time>2025-06-17T08:24:07Z</time>
      </trkpt>
      <trkpt lat="43.31669" lon="3.5383">
        <ele>18.4</ele>
        <time>2025-06-17T08:24:08Z</time>
      </trkpt>
      <trkpt lat="43.31672" lon="3.53838">
        <ele>18.4</ele>
        <time>2025-06-17T08:24:09Z</time>
      </trkpt>
      <trkpt lat="43.31674" lon="3.53847">
        <ele>18.4</ele>
        <time>2025-06-17T08:24:10Z</time>
      </trkpt>
      <trkpt lat="43.31677" lon="3.53856">
        <ele>18.4</ele>
        <time>2025-06-17T08:24:11Z</time>
      </trkpt>
      <trkpt lat="43.3168" lon="3.53865">
        <ele>18.4</ele>
        <time>2025-06-17T08:24:12Z</time>
      </trkpt>
      <trkpt lat="43.31682" lon="3.53874">
        <ele>18.4</ele>
        <time>2025-06-17T08:24:13Z</time>
      </trkpt>
      <trkpt lat="43.31685" lon="3.53882">
        <ele>18.4</ele>
        <time>2025-06-17T08:24:14Z</time>
      </trkpt>
      <trkpt lat="43.31687" lon="3.5389">
        <ele>18.4</ele>
        <time>2025-06-17T08:24:15Z</time>
      </trkpt>
      <trkpt lat="43.3169" lon="3.53898">
        <ele>18.4</ele>
        <time>2025-06-17T08:24:16Z</time>
      </trkpt>
      <trkpt lat="43.31693" lon="3.53908">
        <ele>18.4</ele>
        <time>2025-06-17T08:24:17Z</time>
      </trkpt>
      <trkpt lat="43.31695" lon="3.53917">
        <ele>18.4</ele>
        <time>2025-06-17T08:24:18Z</time>
      </trkpt>
      <trkpt lat="43.31698" lon="3.53925">
        <ele>18.4</ele>
        <time>2025-06-17T08:24:19Z</time>
      </trkpt>
      <trkpt lat="43.31701" lon="3.53934">
        <ele>18.6</ele>
        <time>2025-06-17T08:24:20Z</time>
      </trkpt>
      <trkpt lat="43.31703" lon="3.53943">
        <ele>18.6</ele>
        <time>2025-06-17T08:24:21Z</time>
      </trkpt>
      <trkpt lat="43.31706" lon="3.53951">
        <ele>18.8</ele>
        <time>2025-06-17T08:24:22Z</time>
      </trkpt>
      <trkpt lat="43.31709" lon="3.5396">
        <ele>18.8</ele>
        <time>2025-06-17T08:24:23Z</time>
      </trkpt>
      <trkpt lat="43.31711" lon="3.53969">
        <ele>18.8</ele>
        <time>2025-06-17T08:24:24Z</time>
      </trkpt>
      <trkpt lat="43.31714" lon="3.53977">
        <ele>18.8</ele>
        <time>2025-06-17T08:24:25Z</time>
      </trkpt>
      <trkpt lat="43.31717" lon="3.53985">
        <ele>18.8</ele>
        <time>2025-06-17T08:24:26Z</time>
      </trkpt>
      <trkpt lat="43.31719" lon="3.53994">
        <ele>18.8</ele>
        <time>2025-06-17T08:24:27Z</time>
      </trkpt>
      <trkpt lat="43.31722" lon="3.54002">
        <ele>18.8</ele>
        <time>2025-06-17T08:24:28Z</time>
      </trkpt>
      <trkpt lat="43.31725" lon="3.5401">
        <ele>18.8</ele>
        <time>2025-06-17T08:24:29Z</time>
      </trkpt>
      <trkpt lat="43.31727" lon="3.54019">
        <ele>18.8</ele>
        <time>2025-06-17T08:24:30Z</time>
      </trkpt>
      <trkpt lat="43.3173" lon="3.54028">
        <ele>18.8</ele>
        <time>2025-06-17T08:24:31Z</time>
      </trkpt>
      <trkpt lat="43.31732" lon="3.54036">
        <ele>18.8</ele>
        <time>2025-06-17T08:24:32Z</time>
      </trkpt>
      <trkpt lat="43.31735" lon="3.54045">
        <ele>18.8</ele>
        <time>2025-06-17T08:24:33Z</time>
      </trkpt>
      <trkpt lat="43.31738" lon="3.54054">
        <ele>18.8</ele>
        <time>2025-06-17T08:24:34Z</time>
      </trkpt>
      <trkpt lat="43.31741" lon="3.54063">
        <ele>18.8</ele>
        <time>2025-06-17T08:24:35Z</time>
      </trkpt>
      <trkpt lat="43.31743" lon="3.54071">
        <ele>18.8</ele>
        <time>2025-06-17T08:24:36Z</time>
      </trkpt>
      <trkpt lat="43.31746" lon="3.54079">
        <ele>18.6</ele>
        <time>2025-06-17T08:24:37Z</time>
      </trkpt>
      <trkpt lat="43.31749" lon="3.54087">
        <ele>18.6</ele>
        <time>2025-06-17T08:24:38Z</time>
      </trkpt>
      <trkpt lat="43.31751" lon="3.54096">
        <ele>18.6</ele>
        <time>2025-06-17T08:24:39Z</time>
      </trkpt>
      <trkpt lat="43.31753" lon="3.54104">
        <ele>18.6</ele>
        <time>2025-06-17T08:24:40Z</time>
      </trkpt>
      <trkpt lat="43.31756" lon="3.54113">
        <ele>18.4</ele>
        <time>2025-06-17T08:24:41Z</time>
      </trkpt>
      <trkpt lat="43.31759" lon="3.54122">
        <ele>18.6</ele>
        <time>2025-06-17T08:24:42Z</time>
      </trkpt>
      <trkpt lat="43.31763" lon="3.54131">
        <ele>18.4</ele>
        <time>2025-06-17T08:24:43Z</time>
      </trkpt>
      <trkpt lat="43.31765" lon="3.54139">
        <ele>18.4</ele>
        <time>2025-06-17T08:24:44Z</time>
      </trkpt>
      <trkpt lat="43.31768" lon="3.54148">
        <ele>18.4</ele>
        <time>2025-06-17T08:24:45Z</time>
      </trkpt>
      <trkpt lat="43.3177" lon="3.54156">
        <ele>18.4</ele>
        <time>2025-06-17T08:24:46Z</time>
      </trkpt>
      <trkpt lat="43.31773" lon="3.54166">
        <ele>18.4</ele>
        <time>2025-06-17T08:24:47Z</time>
      </trkpt>
      <trkpt lat="43.31776" lon="3.54175">
        <ele>18.4</ele>
        <time>2025-06-17T08:24:48Z</time>
      </trkpt>
      <trkpt lat="43.31779" lon="3.54184">
        <ele>18.4</ele>
        <time>2025-06-17T08:24:49Z</time>
      </trkpt>
      <trkpt lat="43.31781" lon="3.54191">
        <ele>18.4</ele>
        <time>2025-06-17T08:24:50Z</time>
      </trkpt>
      <trkpt lat="43.31784" lon="3.54201">
        <ele>18.2</ele>
        <time>2025-06-17T08:24:51Z</time>
      </trkpt>
      <trkpt lat="43.31787" lon="3.5421">
        <ele>18.2</ele>
        <time>2025-06-17T08:24:52Z</time>
      </trkpt>
      <trkpt lat="43.31789" lon="3.54219">
        <ele>18.2</ele>
        <time>2025-06-17T08:24:53Z</time>
      </trkpt>
      <trkpt lat="43.31792" lon="3.54227">
        <ele>18.2</ele>
        <time>2025-06-17T08:24:54Z</time>
      </trkpt>
      <trkpt lat="43.31795" lon="3.54236">
        <ele>18.2</ele>
        <time>2025-06-17T08:24:55Z</time>
      </trkpt>
      <trkpt lat="43.31798" lon="3.54245">
        <ele>18.2</ele>
        <time>2025-06-17T08:24:56Z</time>
      </trkpt>
      <trkpt lat="43.318" lon="3.54254">
        <ele>18.2</ele>
        <time>2025-06-17T08:24:57Z</time>
      </trkpt>
      <trkpt lat="43.31803" lon="3.54262">
        <ele>18.2</ele>
        <time>2025-06-17T08:24:58Z</time>
      </trkpt>
      <trkpt lat="43.31805" lon="3.54271">
        <ele>18.2</ele>
        <time>2025-06-17T08:24:59Z</time>
      </trkpt>
      <trkpt lat="43.31808" lon="3.54279">
        <ele>18.2</ele>
        <time>2025-06-17T08:25:00Z</time>
      </trkpt>
      <trkpt lat="43.3181" lon="3.54287">
        <ele>18.2</ele>
        <time>2025-06-17T08:25:01Z</time>
      </trkpt>
      <trkpt lat="43.31813" lon="3.54296">
        <ele>18.2</ele>
        <time>2025-06-17T08:25:02Z</time>
      </trkpt>
      <trkpt lat="43.31816" lon="3.54304">
        <ele>18.4</ele>
        <time>2025-06-17T08:25:03Z</time>
      </trkpt>
      <trkpt lat="43.31818" lon="3.54312">
        <ele>18.4</ele>
        <time>2025-06-17T08:25:04Z</time>
      </trkpt>
      <trkpt lat="43.31821" lon="3.54321">
        <ele>18.4</ele>
        <time>2025-06-17T08:25:05Z</time>
      </trkpt>
      <trkpt lat="43.31823" lon="3.54329">
        <ele>18.4</ele>
        <time>2025-06-17T08:25:06Z</time>
      </trkpt>
      <trkpt lat="43.31826" lon="3.54337">
        <ele>18.4</ele>
        <time>2025-06-17T08:25:07Z</time>
      </trkpt>
      <trkpt lat="43.31829" lon="3.54345">
        <ele>18.4</ele>
        <time>2025-06-17T08:25:08Z</time>
      </trkpt>
      <trkpt lat="43.31831" lon="3.54354">
        <ele>18.4</ele>
        <time>2025-06-17T08:25:09Z</time>
      </trkpt>
      <trkpt lat="43.31834" lon="3.54363">
        <ele>18.4</ele>
        <time>2025-06-17T08:25:10Z</time>
      </trkpt>
      <trkpt lat="43.31837" lon="3.54371">
        <ele>18.4</ele>
        <time>2025-06-17T08:25:11Z</time>
      </trkpt>
      <trkpt lat="43.31839" lon="3.54379">
        <ele>18.4</ele>
        <time>2025-06-17T08:25:12Z</time>
      </trkpt>
      <trkpt lat="43.31841" lon="3.54388">
        <ele>18.4</ele>
        <time>2025-06-17T08:25:13Z</time>
      </trkpt>
      <trkpt lat="43.31844" lon="3.54396">
        <ele>18.4</ele>
        <time>2025-06-17T08:25:14Z</time>
      </trkpt>
      <trkpt lat="43.31846" lon="3.54404">
        <ele>18.4</ele>
        <time>2025-06-17T08:25:15Z</time>
      </trkpt>
      <trkpt lat="43.31849" lon="3.54412">
        <ele>18.4</ele>
        <time>2025-06-17T08:25:16Z</time>
      </trkpt>
      <trkpt lat="43.31851" lon="3.54421">
        <ele>18.2</ele>
        <time>2025-06-17T08:25:17Z</time>
      </trkpt>
      <trkpt lat="43.31853" lon="3.54429">
        <ele>18.2</ele>
        <time>2025-06-17T08:25:18Z</time>
      </trkpt>
      <trkpt lat="43.31856" lon="3.54437">
        <ele>18.2</ele>
        <time>2025-06-17T08:25:19Z</time>
      </trkpt>
      <trkpt lat="43.31858" lon="3.54445">
        <ele>18</ele>
        <time>2025-06-17T08:25:20Z</time>
      </trkpt>
      <trkpt lat="43.31861" lon="3.54453">
        <ele>18</ele>
        <time>2025-06-17T08:25:21Z</time>
      </trkpt>
      <trkpt lat="43.31864" lon="3.54461">
        <ele>18</ele>
        <time>2025-06-17T08:25:22Z</time>
      </trkpt>
      <trkpt lat="43.31866" lon="3.5447">
        <ele>18.2</ele>
        <time>2025-06-17T08:25:23Z</time>
      </trkpt>
      <trkpt lat="43.31868" lon="3.54478">
        <ele>18.2</ele>
        <time>2025-06-17T08:25:24Z</time>
      </trkpt>
      <trkpt lat="43.31871" lon="3.54486">
        <ele>18.2</ele>
        <time>2025-06-17T08:25:25Z</time>
      </trkpt>
      <trkpt lat="43.31873" lon="3.54494">
        <ele>18.4</ele>
        <time>2025-06-17T08:25:26Z</time>
      </trkpt>
      <trkpt lat="43.31875" lon="3.54503">
        <ele>18.4</ele>
        <time>2025-06-17T08:25:27Z</time>
      </trkpt>
      <trkpt lat="43.31877" lon="3.54511">
        <ele>18.4</ele>
        <time>2025-06-17T08:25:28Z</time>
      </trkpt>
      <trkpt lat="43.31879" lon="3.54519">
        <ele>18.4</ele>
        <time>2025-06-17T08:25:29Z</time>
      </trkpt>
      <trkpt lat="43.31881" lon="3.54527">
        <ele>18.4</ele>
        <time>2025-06-17T08:25:30Z</time>
      </trkpt>
      <trkpt lat="43.31883" lon="3.54536">
        <ele>18.2</ele>
        <time>2025-06-17T08:25:31Z</time>
      </trkpt>
      <trkpt lat="43.31885" lon="3.54544">
        <ele>18.2</ele>
        <time>2025-06-17T08:25:32Z</time>
      </trkpt>
      <trkpt lat="43.31887" lon="3.54551">
        <ele>18.4</ele>
        <time>2025-06-17T08:25:33Z</time>
      </trkpt>
      <trkpt lat="43.31889" lon="3.54559">
        <ele>18.4</ele>
        <time>2025-06-17T08:25:34Z</time>
      </trkpt>
      <trkpt lat="43.31891" lon="3.54566">
        <ele>18.4</ele>
        <time>2025-06-17T08:25:35Z</time>
      </trkpt>
      <trkpt lat="43.31893" lon="3.54573">
        <ele>18.4</ele>
        <time>2025-06-17T08:25:36Z</time>
      </trkpt>
      <trkpt lat="43.31895" lon="3.54581">
        <ele>18.4</ele>
        <time>2025-06-17T08:25:37Z</time>
      </trkpt>
      <trkpt lat="43.31895" lon="3.54588">
        <ele>18.4</ele>
        <time>2025-06-17T08:25:38Z</time>
      </trkpt>
      <trkpt lat="43.31894" lon="3.54597">
        <ele>18.4</ele>
        <time>2025-06-17T08:25:39Z</time>
      </trkpt>
      <trkpt lat="43.31893" lon="3.54603">
        <ele>18.2</ele>
        <time>2025-06-17T08:25:40Z</time>
      </trkpt>
      <trkpt lat="43.31891" lon="3.54611">
        <ele>18.2</ele>
        <time>2025-06-17T08:25:41Z</time>
      </trkpt>
      <trkpt lat="43.3189" lon="3.54617">
        <ele>18.2</ele>
        <time>2025-06-17T08:25:42Z</time>
      </trkpt>
      <trkpt lat="43.31888" lon="3.54622">
        <ele>18.2</ele>
        <time>2025-06-17T08:25:43Z</time>
      </trkpt>
      <trkpt lat="43.31887" lon="3.54625">
        <ele>18.2</ele>
        <time>2025-06-17T08:25:44Z</time>
      </trkpt>
      <trkpt lat="43.31886" lon="3.54628">
        <ele>18.2</ele>
        <time>2025-06-17T08:25:45Z</time>
      </trkpt>
      <trkpt lat="43.31886" lon="3.54634">
        <ele>18.2</ele>
        <time>2025-06-17T08:25:50Z</time>
      </trkpt>
      <trkpt lat="43.31887" lon="3.54636">
        <ele>18.4</ele>
        <time>2025-06-17T08:25:51Z</time>
      </trkpt>
      <trkpt lat="43.31888" lon="3.54638">
        <ele>18.4</ele>
        <time>2025-06-17T08:25:52Z</time>
      </trkpt>
      <trkpt lat="43.31889" lon="3.54641">
        <ele>18.4</ele>
        <time>2025-06-17T08:25:53Z</time>
      </trkpt>
      <trkpt lat="43.3189" lon="3.54643">
        <ele>18.4</ele>
        <time>2025-06-17T08:25:54Z</time>
      </trkpt>
      <trkpt lat="43.31892" lon="3.54646">
        <ele>18.4</ele>
        <time>2025-06-17T08:25:55Z</time>
      </trkpt>
      <trkpt lat="43.31894" lon="3.54649">
        <ele>18.2</ele>
        <time>2025-06-17T08:25:56Z</time>
      </trkpt>
      <trkpt lat="43.31898" lon="3.5465">
        <ele>18.2</ele>
        <time>2025-06-17T08:25:57Z</time>
      </trkpt>
      <trkpt lat="43.31901" lon="3.54649">
        <ele>18.2</ele>
        <time>2025-06-17T08:25:58Z</time>
      </trkpt>
      <trkpt lat="43.31904" lon="3.54649">
        <ele>18.2</ele>
        <time>2025-06-17T08:25:59Z</time>
      </trkpt>
      <trkpt lat="43.31908" lon="3.5465">
        <ele>18.2</ele>
        <time>2025-06-17T08:26:00Z</time>
      </trkpt>
      <trkpt lat="43.31911" lon="3.54653">
        <ele>18.2</ele>
        <time>2025-06-17T08:26:01Z</time>
      </trkpt>
      <trkpt lat="43.31915" lon="3.54656">
        <ele>18.2</ele>
        <time>2025-06-17T08:26:02Z</time>
      </trkpt>
      <trkpt lat="43.31918" lon="3.54661">
        <ele>18.2</ele>
        <time>2025-06-17T08:26:03Z</time>
      </trkpt>
      <trkpt lat="43.3192" lon="3.54666">
        <ele>18.2</ele>
        <time>2025-06-17T08:26:04Z</time>
      </trkpt>
      <trkpt lat="43.31923" lon="3.54672">
        <ele>18.2</ele>
        <time>2025-06-17T08:26:05Z</time>
      </trkpt>
      <trkpt lat="43.31925" lon="3.54678">
        <ele>18.2</ele>
        <time>2025-06-17T08:26:06Z</time>
      </trkpt>
      <trkpt lat="43.31927" lon="3.54685">
        <ele>18.2</ele>
        <time>2025-06-17T08:26:07Z</time>
      </trkpt>
      <trkpt lat="43.31929" lon="3.54692">
        <ele>18.2</ele>
        <time>2025-06-17T08:26:08Z</time>
      </trkpt>
      <trkpt lat="43.31931" lon="3.54699">
        <ele>18.2</ele>
        <time>2025-06-17T08:26:09Z</time>
      </trkpt>
      <trkpt lat="43.31934" lon="3.54706">
        <ele>18.2</ele>
        <time>2025-06-17T08:26:10Z</time>
      </trkpt>
      <trkpt lat="43.31936" lon="3.54713">
        <ele>18.2</ele>
        <time>2025-06-17T08:26:11Z</time>
      </trkpt>
      <trkpt lat="43.31938" lon="3.5472">
        <ele>18.2</ele>
        <time>2025-06-17T08:26:12Z</time>
      </trkpt>
      <trkpt lat="43.31941" lon="3.54727">
        <ele>18.2</ele>
        <time>2025-06-17T08:26:13Z</time>
      </trkpt>
      <trkpt lat="43.31944" lon="3.54734">
        <ele>18.2</ele>
        <time>2025-06-17T08:26:14Z</time>
      </trkpt>
      <trkpt lat="43.31946" lon="3.54742">
        <ele>18.2</ele>
        <time>2025-06-17T08:26:15Z</time>
      </trkpt>
      <trkpt lat="43.31949" lon="3.54749">
        <ele>18.2</ele>
        <time>2025-06-17T08:26:16Z</time>
      </trkpt>
      <trkpt lat="43.31951" lon="3.54757">
        <ele>18.2</ele>
        <time>2025-06-17T08:26:17Z</time>
      </trkpt>
      <trkpt lat="43.31954" lon="3.54764">
        <ele>18.2</ele>
        <time>2025-06-17T08:26:18Z</time>
      </trkpt>
      <trkpt lat="43.31956" lon="3.54772">
        <ele>18.2</ele>
        <time>2025-06-17T08:26:19Z</time>
      </trkpt>
      <trkpt lat="43.31958" lon="3.5478">
        <ele>18.2</ele>
        <time>2025-06-17T08:26:20Z</time>
      </trkpt>
      <trkpt lat="43.3196" lon="3.54789">
        <ele>18</ele>
        <time>2025-06-17T08:26:21Z</time>
      </trkpt>
      <trkpt lat="43.31963" lon="3.54797">
        <ele>18</ele>
        <time>2025-06-17T08:26:22Z</time>
      </trkpt>
      <trkpt lat="43.31965" lon="3.54805">
        <ele>18</ele>
        <time>2025-06-17T08:26:23Z</time>
      </trkpt>
      <trkpt lat="43.31969" lon="3.54813">
        <ele>18</ele>
        <time>2025-06-17T08:26:24Z</time>
      </trkpt>
      <trkpt lat="43.31971" lon="3.54821">
        <ele>18</ele>
        <time>2025-06-17T08:26:25Z</time>
      </trkpt>
      <trkpt lat="43.31974" lon="3.54829">
        <ele>18</ele>
        <time>2025-06-17T08:26:26Z</time>
      </trkpt>
      <trkpt lat="43.31977" lon="3.54838">
        <ele>18</ele>
        <time>2025-06-17T08:26:27Z</time>
      </trkpt>
      <trkpt lat="43.31979" lon="3.54846">
        <ele>18</ele>
        <time>2025-06-17T08:26:28Z</time>
      </trkpt>
      <trkpt lat="43.31982" lon="3.54855">
        <ele>18</ele>
        <time>2025-06-17T08:26:29Z</time>
      </trkpt>
      <trkpt lat="43.31985" lon="3.54863">
        <ele>18</ele>
        <time>2025-06-17T08:26:30Z</time>
      </trkpt>
      <trkpt lat="43.31988" lon="3.54871">
        <ele>17.8</ele>
        <time>2025-06-17T08:26:31Z</time>
      </trkpt>
      <trkpt lat="43.3199" lon="3.5488">
        <ele>17.8</ele>
        <time>2025-06-17T08:26:32Z</time>
      </trkpt>
      <trkpt lat="43.31993" lon="3.54889">
        <ele>17.8</ele>
        <time>2025-06-17T08:26:33Z</time>
      </trkpt>
      <trkpt lat="43.31996" lon="3.54897">
        <ele>17.8</ele>
        <time>2025-06-17T08:26:34Z</time>
      </trkpt>
      <trkpt lat="43.31998" lon="3.54906">
        <ele>17.8</ele>
        <time>2025-06-17T08:26:35Z</time>
      </trkpt>
      <trkpt lat="43.32001" lon="3.54914">
        <ele>17.8</ele>
        <time>2025-06-17T08:26:36Z</time>
      </trkpt>
      <trkpt lat="43.32004" lon="3.54923">
        <ele>17.8</ele>
        <time>2025-06-17T08:26:37Z</time>
      </trkpt>
      <trkpt lat="43.32006" lon="3.54931">
        <ele>17.8</ele>
        <time>2025-06-17T08:26:38Z</time>
      </trkpt>
      <trkpt lat="43.32008" lon="3.54939">
        <ele>17.8</ele>
        <time>2025-06-17T08:26:39Z</time>
      </trkpt>
      <trkpt lat="43.32011" lon="3.54947">
        <ele>17.8</ele>
        <time>2025-06-17T08:26:40Z</time>
      </trkpt>
      <trkpt lat="43.32013" lon="3.54954">
        <ele>18</ele>
        <time>2025-06-17T08:26:41Z</time>
      </trkpt>
      <trkpt lat="43.32013" lon="3.54957">
        <ele>18</ele>
        <time>2025-06-17T08:26:42Z</time>
      </trkpt>
      <trkpt lat="43.32014" lon="3.5496">
        <ele>18</ele>
        <time>2025-06-17T08:26:43Z</time>
      </trkpt>
      <trkpt lat="43.32014" lon="3.54962">
        <ele>18</ele>
        <time>2025-06-17T08:26:49Z</time>
      </trkpt>
      <trkpt lat="43.32015" lon="3.54964">
        <ele>18.2</ele>
        <time>2025-06-17T08:26:50Z</time>
      </trkpt>
      <trkpt lat="43.32016" lon="3.54966">
        <ele>18.2</ele>
        <time>2025-06-17T08:26:51Z</time>
      </trkpt>
      <trkpt lat="43.32017" lon="3.54969">
        <ele>18.2</ele>
        <time>2025-06-17T08:26:52Z</time>
      </trkpt>
      <trkpt lat="43.32018" lon="3.54972">
        <ele>18.2</ele>
        <time>2025-06-17T08:26:53Z</time>
      </trkpt>
      <trkpt lat="43.32018" lon="3.54975">
        <ele>18.2</ele>
        <time>2025-06-17T08:26:54Z</time>
      </trkpt>
      <trkpt lat="43.3202" lon="3.54979">
        <ele>18.2</ele>
        <time>2025-06-17T08:26:55Z</time>
      </trkpt>
      <trkpt lat="43.32021" lon="3.54984">
        <ele>18.2</ele>
        <time>2025-06-17T08:26:56Z</time>
      </trkpt>
      <trkpt lat="43.32022" lon="3.54989">
        <ele>18.2</ele>
        <time>2025-06-17T08:26:57Z</time>
      </trkpt>
      <trkpt lat="43.32024" lon="3.54994">
        <ele>18.2</ele>
        <time>2025-06-17T08:26:58Z</time>
      </trkpt>
      <trkpt lat="43.32025" lon="3.54999">
        <ele>18</ele>
        <time>2025-06-17T08:26:59Z</time>
      </trkpt>
      <trkpt lat="43.32027" lon="3.55004">
        <ele>18</ele>
        <time>2025-06-17T08:27:00Z</time>
      </trkpt>
      <trkpt lat="43.32028" lon="3.55009">
        <ele>18</ele>
        <time>2025-06-17T08:27:01Z</time>
      </trkpt>
      <trkpt lat="43.3203" lon="3.55014">
        <ele>18</ele>
        <time>2025-06-17T08:27:02Z</time>
      </trkpt>
      <trkpt lat="43.32032" lon="3.55021">
        <ele>18</ele>
        <time>2025-06-17T08:27:03Z</time>
      </trkpt>
      <trkpt lat="43.32033" lon="3.55027">
        <ele>18</ele>
        <time>2025-06-17T08:27:04Z</time>
      </trkpt>
      <trkpt lat="43.32035" lon="3.55032">
        <ele>18</ele>
        <time>2025-06-17T08:27:05Z</time>
      </trkpt>
      <trkpt lat="43.32037" lon="3.55039">
        <ele>18</ele>
        <time>2025-06-17T08:27:06Z</time>
      </trkpt>
      <trkpt lat="43.32039" lon="3.55045">
        <ele>18</ele>
        <time>2025-06-17T08:27:07Z</time>
      </trkpt>
      <trkpt lat="43.3204" lon="3.5505">
        <ele>18</ele>
        <time>2025-06-17T08:27:08Z</time>
      </trkpt>
      <trkpt lat="43.32042" lon="3.55056">
        <ele>18</ele>
        <time>2025-06-17T08:27:09Z</time>
      </trkpt>
      <trkpt lat="43.32044" lon="3.55062">
        <ele>18.2</ele>
        <time>2025-06-17T08:27:10Z</time>
      </trkpt>
      <trkpt lat="43.32046" lon="3.55068">
        <ele>18.2</ele>
        <time>2025-06-17T08:27:11Z</time>
      </trkpt>
      <trkpt lat="43.32048" lon="3.55074">
        <ele>18.2</ele>
        <time>2025-06-17T08:27:12Z</time>
      </trkpt>
      <trkpt lat="43.3205" lon="3.5508">
        <ele>18.2</ele>
        <time>2025-06-17T08:27:13Z</time>
      </trkpt>
      <trkpt lat="43.32052" lon="3.55087">
        <ele>18.4</ele>
        <time>2025-06-17T08:27:14Z</time>
      </trkpt>
      <trkpt lat="43.32054" lon="3.55093">
        <ele>18.4</ele>
        <time>2025-06-17T08:27:15Z</time>
      </trkpt>
      <trkpt lat="43.32056" lon="3.55099">
        <ele>18.4</ele>
        <time>2025-06-17T08:27:16Z</time>
      </trkpt>
      <trkpt lat="43.32057" lon="3.55105">
        <ele>18.4</ele>
        <time>2025-06-17T08:27:17Z</time>
      </trkpt>
      <trkpt lat="43.32059" lon="3.55111">
        <ele>18.6</ele>
        <time>2025-06-17T08:27:18Z</time>
      </trkpt>
      <trkpt lat="43.32061" lon="3.55118">
        <ele>18.6</ele>
        <time>2025-06-17T08:27:19Z</time>
      </trkpt>
      <trkpt lat="43.32063" lon="3.55124">
        <ele>18.8</ele>
        <time>2025-06-17T08:27:20Z</time>
      </trkpt>
      <trkpt lat="43.32065" lon="3.5513">
        <ele>18.8</ele>
        <time>2025-06-17T08:27:21Z</time>
      </trkpt>
      <trkpt lat="43.32067" lon="3.55137">
        <ele>18.8</ele>
        <time>2025-06-17T08:27:22Z</time>
      </trkpt>
      <trkpt lat="43.32068" lon="3.55143">
        <ele>19</ele>
        <time>2025-06-17T08:27:23Z</time>
      </trkpt>
      <trkpt lat="43.32071" lon="3.55149">
        <ele>19</ele>
        <time>2025-06-17T08:27:24Z</time>
      </trkpt>
      <trkpt lat="43.32073" lon="3.55155">
        <ele>19.2</ele>
        <time>2025-06-17T08:27:25Z</time>
      </trkpt>
      <trkpt lat="43.32075" lon="3.55161">
        <ele>19.2</ele>
        <time>2025-06-17T08:27:26Z</time>
      </trkpt>
      <trkpt lat="43.32077" lon="3.55168">
        <ele>19.2</ele>
        <time>2025-06-17T08:27:27Z</time>
      </trkpt>
      <trkpt lat="43.32079" lon="3.55174">
        <ele>19.2</ele>
        <time>2025-06-17T08:27:28Z</time>
      </trkpt>
      <trkpt lat="43.32082" lon="3.5518">
        <ele>19.4</ele>
        <time>2025-06-17T08:27:29Z</time>
      </trkpt>
      <trkpt lat="43.32084" lon="3.55186">
        <ele>19.4</ele>
        <time>2025-06-17T08:27:30Z</time>
      </trkpt>
      <trkpt lat="43.32086" lon="3.55192">
        <ele>19.4</ele>
        <time>2025-06-17T08:27:31Z</time>
      </trkpt>
      <trkpt lat="43.32089" lon="3.55198">
        <ele>19.6</ele>
        <time>2025-06-17T08:27:32Z</time>
      </trkpt>
      <trkpt lat="43.32091" lon="3.55204">
        <ele>19.6</ele>
        <time>2025-06-17T08:27:33Z</time>
      </trkpt>
      <trkpt lat="43.32093" lon="3.5521">
        <ele>19.6</ele>
        <time>2025-06-17T08:27:34Z</time>
      </trkpt>
      <trkpt lat="43.32095" lon="3.55216">
        <ele>19.8</ele>
        <time>2025-06-17T08:27:35Z</time>
      </trkpt>
      <trkpt lat="43.32097" lon="3.55222">
        <ele>19.8</ele>
        <time>2025-06-17T08:27:36Z</time>
      </trkpt>
      <trkpt lat="43.32098" lon="3.55228">
        <ele>19.8</ele>
        <time>2025-06-17T08:27:37Z</time>
      </trkpt>
      <trkpt lat="43.321" lon="3.55234">
        <ele>19.8</ele>
        <time>2025-06-17T08:27:38Z</time>
      </trkpt>
      <trkpt lat="43.32103" lon="3.5524">
        <ele>19.8</ele>
        <time>2025-06-17T08:27:39Z</time>
      </trkpt>
      <trkpt lat="43.32105" lon="3.55247">
        <ele>19.8</ele>
        <time>2025-06-17T08:27:40Z</time>
      </trkpt>
      <trkpt lat="43.32106" lon="3.55254">
        <ele>19.8</ele>
        <time>2025-06-17T08:27:41Z</time>
      </trkpt>
      <trkpt lat="43.32109" lon="3.55261">
        <ele>19.8</ele>
        <time>2025-06-17T08:27:42Z</time>
      </trkpt>
      <trkpt lat="43.32111" lon="3.55268">
        <ele>19.8</ele>
        <time>2025-06-17T08:27:43Z</time>
      </trkpt>
      <trkpt lat="43.32113" lon="3.55275">
        <ele>19.8</ele>
        <time>2025-06-17T08:27:44Z</time>
      </trkpt>
      <trkpt lat="43.32115" lon="3.55282">
        <ele>19.6</ele>
        <time>2025-06-17T08:27:45Z</time>
      </trkpt>
      <trkpt lat="43.32118" lon="3.5529">
        <ele>19.6</ele>
        <time>2025-06-17T08:27:46Z</time>
      </trkpt>
      <trkpt lat="43.32121" lon="3.55298">
        <ele>19.6</ele>
        <time>2025-06-17T08:27:47Z</time>
      </trkpt>
      <trkpt lat="43.32123" lon="3.55306">
        <ele>19.4</ele>
        <time>2025-06-17T08:27:48Z</time>
      </trkpt>
      <trkpt lat="43.32126" lon="3.55314">
        <ele>19.4</ele>
        <time>2025-06-17T08:27:49Z</time>
      </trkpt>
      <trkpt lat="43.32129" lon="3.55322">
        <ele>19.4</ele>
        <time>2025-06-17T08:27:50Z</time>
      </trkpt>
      <trkpt lat="43.32132" lon="3.55331">
        <ele>19.4</ele>
        <time>2025-06-17T08:27:51Z</time>
      </trkpt>
      <trkpt lat="43.32134" lon="3.55339">
        <ele>19.4</ele>
        <time>2025-06-17T08:27:52Z</time>
      </trkpt>
      <trkpt lat="43.32137" lon="3.55347">
        <ele>19.2</ele>
        <time>2025-06-17T08:27:53Z</time>
      </trkpt>
      <trkpt lat="43.3214" lon="3.55355">
        <ele>19.2</ele>
        <time>2025-06-17T08:27:54Z</time>
      </trkpt>
      <trkpt lat="43.32143" lon="3.55363">
        <ele>19.2</ele>
        <time>2025-06-17T08:27:55Z</time>
      </trkpt>
      <trkpt lat="43.32146" lon="3.55372">
        <ele>19</ele>
        <time>2025-06-17T08:27:56Z</time>
      </trkpt>
      <trkpt lat="43.32149" lon="3.5538">
        <ele>19</ele>
        <time>2025-06-17T08:27:57Z</time>
      </trkpt>
      <trkpt lat="43.32152" lon="3.55388">
        <ele>19</ele>
        <time>2025-06-17T08:27:58Z</time>
      </trkpt>
      <trkpt lat="43.32155" lon="3.55397">
        <ele>19</ele>
        <time>2025-06-17T08:27:59Z</time>
      </trkpt>
      <trkpt lat="43.32158" lon="3.55405">
        <ele>19</ele>
        <time>2025-06-17T08:28:00Z</time>
      </trkpt>
      <trkpt lat="43.32162" lon="3.55412">
        <ele>18.8</ele>
        <time>2025-06-17T08:28:01Z</time>
      </trkpt>
      <trkpt lat="43.32165" lon="3.55421">
        <ele>18.8</ele>
        <time>2025-06-17T08:28:02Z</time>
      </trkpt>
      <trkpt lat="43.32169" lon="3.55429">
        <ele>18.8</ele>
        <time>2025-06-17T08:28:03Z</time>
      </trkpt>
      <trkpt lat="43.32173" lon="3.55437">
        <ele>18.8</ele>
        <time>2025-06-17T08:28:04Z</time>
      </trkpt>
      <trkpt lat="43.32176" lon="3.55445">
        <ele>18.8</ele>
        <time>2025-06-17T08:28:05Z</time>
      </trkpt>
      <trkpt lat="43.3218" lon="3.55453">
        <ele>18.8</ele>
        <time>2025-06-17T08:28:06Z</time>
      </trkpt>
      <trkpt lat="43.32184" lon="3.55461">
        <ele>18.6</ele>
        <time>2025-06-17T08:28:07Z</time>
      </trkpt>
      <trkpt lat="43.32188" lon="3.55469">
        <ele>18.6</ele>
        <time>2025-06-17T08:28:08Z</time>
      </trkpt>
      <trkpt lat="43.32191" lon="3.55477">
        <ele>18.6</ele>
        <time>2025-06-17T08:28:09Z</time>
      </trkpt>
      <trkpt lat="43.32196" lon="3.55485">
        <ele>18.6</ele>
        <time>2025-06-17T08:28:10Z</time>
      </trkpt>
      <trkpt lat="43.32199" lon="3.55493">
        <ele>18.6</ele>
        <time>2025-06-17T08:28:11Z</time>
      </trkpt>
      <trkpt lat="43.32204" lon="3.555">
        <ele>18.6</ele>
        <time>2025-06-17T08:28:12Z</time>
      </trkpt>
      <trkpt lat="43.32208" lon="3.55508">
        <ele>18.6</ele>
        <time>2025-06-17T08:28:13Z</time>
      </trkpt>
      <trkpt lat="43.32212" lon="3.55516">
        <ele>18.6</ele>
        <time>2025-06-17T08:28:14Z</time>
      </trkpt>
      <trkpt lat="43.32216" lon="3.55523">
        <ele>18.4</ele>
        <time>2025-06-17T08:28:15Z</time>
      </trkpt>
      <trkpt lat="43.3222" lon="3.55531">
        <ele>18.4</ele>
        <time>2025-06-17T08:28:16Z</time>
      </trkpt>
      <trkpt lat="43.32224" lon="3.55538">
        <ele>18.4</ele>
        <time>2025-06-17T08:28:17Z</time>
      </trkpt>
      <trkpt lat="43.32228" lon="3.55545">
        <ele>18.4</ele>
        <time>2025-06-17T08:28:18Z</time>
      </trkpt>
      <trkpt lat="43.32232" lon="3.55553">
        <ele>18.4</ele>
        <time>2025-06-17T08:28:19Z</time>
      </trkpt>
      <trkpt lat="43.32236" lon="3.5556">
        <ele>18.4</ele>
        <time>2025-06-17T08:28:20Z</time>
      </trkpt>
      <trkpt lat="43.32239" lon="3.55567">
        <ele>18.4</ele>
        <time>2025-06-17T08:28:21Z</time>
      </trkpt>
      <trkpt lat="43.32243" lon="3.55574">
        <ele>18.4</ele>
        <time>2025-06-17T08:28:22Z</time>
      </trkpt>
      <trkpt lat="43.32246" lon="3.55581">
        <ele>18.2</ele>
        <time>2025-06-17T08:28:23Z</time>
      </trkpt>
      <trkpt lat="43.32249" lon="3.55588">
        <ele>18.2</ele>
        <time>2025-06-17T08:28:24Z</time>
      </trkpt>
      <trkpt lat="43.32252" lon="3.55594">
        <ele>18.2</ele>
        <time>2025-06-17T08:28:25Z</time>
      </trkpt>
      <trkpt lat="43.32256" lon="3.556">
        <ele>18.2</ele>
        <time>2025-06-17T08:28:26Z</time>
      </trkpt>
      <trkpt lat="43.3226" lon="3.55606">
        <ele>18.2</ele>
        <time>2025-06-17T08:28:27Z</time>
      </trkpt>
      <trkpt lat="43.32264" lon="3.55612">
        <ele>18.2</ele>
        <time>2025-06-17T08:28:28Z</time>
      </trkpt>
      <trkpt lat="43.32268" lon="3.55618">
        <ele>18.2</ele>
        <time>2025-06-17T08:28:29Z</time>
      </trkpt>
      <trkpt lat="43.32272" lon="3.55624">
        <ele>18.2</ele>
        <time>2025-06-17T08:28:30Z</time>
      </trkpt>
      <trkpt lat="43.32276" lon="3.55631">
        <ele>18.4</ele>
        <time>2025-06-17T08:28:31Z</time>
      </trkpt>
      <trkpt lat="43.3228" lon="3.55637">
        <ele>18.4</ele>
        <time>2025-06-17T08:28:32Z</time>
      </trkpt>
      <trkpt lat="43.32283" lon="3.55644">
        <ele>18.4</ele>
        <time>2025-06-17T08:28:33Z</time>
      </trkpt>
      <trkpt lat="43.32287" lon="3.5565">
        <ele>18.4</ele>
        <time>2025-06-17T08:28:34Z</time>
      </trkpt>
      <trkpt lat="43.32291" lon="3.55657">
        <ele>18.4</ele>
        <time>2025-06-17T08:28:35Z</time>
      </trkpt>
      <trkpt lat="43.32294" lon="3.55664">
        <ele>18.4</ele>
        <time>2025-06-17T08:28:36Z</time>
      </trkpt>
      <trkpt lat="43.32298" lon="3.55671">
        <ele>18.4</ele>
        <time>2025-06-17T08:28:37Z</time>
      </trkpt>
      <trkpt lat="43.32302" lon="3.55678">
        <ele>18.4</ele>
        <time>2025-06-17T08:28:38Z</time>
      </trkpt>
      <trkpt lat="43.32306" lon="3.55685">
        <ele>18.4</ele>
        <time>2025-06-17T08:28:39Z</time>
      </trkpt>
      <trkpt lat="43.3231" lon="3.55693">
        <ele>18.4</ele>
        <time>2025-06-17T08:28:40Z</time>
      </trkpt>
      <trkpt lat="43.32314" lon="3.55701">
        <ele>18.4</ele>
        <time>2025-06-17T08:28:41Z</time>
      </trkpt>
      <trkpt lat="43.32318" lon="3.55708">
        <ele>18.2</ele>
        <time>2025-06-17T08:28:42Z</time>
      </trkpt>
      <trkpt lat="43.32322" lon="3.55716">
        <ele>18.2</ele>
        <time>2025-06-17T08:28:43Z</time>
      </trkpt>
      <trkpt lat="43.32326" lon="3.55723">
        <ele>18.2</ele>
        <time>2025-06-17T08:28:44Z</time>
      </trkpt>
      <trkpt lat="43.32329" lon="3.55729">
        <ele>18.2</ele>
        <time>2025-06-17T08:28:45Z</time>
      </trkpt>
      <trkpt lat="43.32334" lon="3.55737">
        <ele>18.2</ele>
        <time>2025-06-17T08:28:46Z</time>
      </trkpt>
      <trkpt lat="43.32338" lon="3.55744">
        <ele>18.2</ele>
        <time>2025-06-17T08:28:47Z</time>
      </trkpt>
      <trkpt lat="43.32342" lon="3.55751">
        <ele>18.2</ele>
        <time>2025-06-17T08:28:48Z</time>
      </trkpt>
      <trkpt lat="43.32346" lon="3.55758">
        <ele>18.2</ele>
        <time>2025-06-17T08:28:49Z</time>
      </trkpt>
      <trkpt lat="43.32349" lon="3.55765">
        <ele>18.2</ele>
        <time>2025-06-17T08:28:50Z</time>
      </trkpt>
      <trkpt lat="43.32354" lon="3.55772">
        <ele>18.2</ele>
        <time>2025-06-17T08:28:51Z</time>
      </trkpt>
      <trkpt lat="43.32358" lon="3.55779">
        <ele>18.2</ele>
        <time>2025-06-17T08:28:52Z</time>
      </trkpt>
      <trkpt lat="43.32362" lon="3.55786">
        <ele>18.2</ele>
        <time>2025-06-17T08:28:53Z</time>
      </trkpt>
      <trkpt lat="43.32366" lon="3.55793">
        <ele>18.2</ele>
        <time>2025-06-17T08:28:54Z</time>
      </trkpt>
      <trkpt lat="43.3237" lon="3.558">
        <ele>18.2</ele>
        <time>2025-06-17T08:28:55Z</time>
      </trkpt>
      <trkpt lat="43.32374" lon="3.55807">
        <ele>18.4</ele>
        <time>2025-06-17T08:28:56Z</time>
      </trkpt>
      <trkpt lat="43.32378" lon="3.55814">
        <ele>18.4</ele>
        <time>2025-06-17T08:28:57Z</time>
      </trkpt>
      <trkpt lat="43.32383" lon="3.55821">
        <ele>18.4</ele>
        <time>2025-06-17T08:28:58Z</time>
      </trkpt>
      <trkpt lat="43.32386" lon="3.55827">
        <ele>18.4</ele>
        <time>2025-06-17T08:28:59Z</time>
      </trkpt>
      <trkpt lat="43.3239" lon="3.55834">
        <ele>18.4</ele>
        <time>2025-06-17T08:29:00Z</time>
      </trkpt>
      <trkpt lat="43.32394" lon="3.55842">
        <ele>18.4</ele>
        <time>2025-06-17T08:29:01Z</time>
      </trkpt>
      <trkpt lat="43.32398" lon="3.55848">
        <ele>18.4</ele>
        <time>2025-06-17T08:29:02Z</time>
      </trkpt>
      <trkpt lat="43.32402" lon="3.55855">
        <ele>18.4</ele>
        <time>2025-06-17T08:29:03Z</time>
      </trkpt>
      <trkpt lat="43.32405" lon="3.55861">
        <ele>18.4</ele>
        <time>2025-06-17T08:29:04Z</time>
      </trkpt>
      <trkpt lat="43.32408" lon="3.55867">
        <ele>18.4</ele>
        <time>2025-06-17T08:29:05Z</time>
      </trkpt>
      <trkpt lat="43.3241" lon="3.55873">
        <ele>18.4</ele>
        <time>2025-06-17T08:29:06Z</time>
      </trkpt>
      <trkpt lat="43.32413" lon="3.55877">
        <ele>18.6</ele>
        <time>2025-06-17T08:29:07Z</time>
      </trkpt>
      <trkpt lat="43.32416" lon="3.55882">
        <ele>18.6</ele>
        <time>2025-06-17T08:29:08Z</time>
      </trkpt>
      <trkpt lat="43.32418" lon="3.55887">
        <ele>18.6</ele>
        <time>2025-06-17T08:29:09Z</time>
      </trkpt>
      <trkpt lat="43.32421" lon="3.55891">
        <ele>18.6</ele>
        <time>2025-06-17T08:29:10Z</time>
      </trkpt>
      <trkpt lat="43.32423" lon="3.55896">
        <ele>18.6</ele>
        <time>2025-06-17T08:29:11Z</time>
      </trkpt>
      <trkpt lat="43.32424" lon="3.559">
        <ele>18.6</ele>
        <time>2025-06-17T08:29:12Z</time>
      </trkpt>
      <trkpt lat="43.32426" lon="3.55905">
        <ele>18.6</ele>
        <time>2025-06-17T08:29:13Z</time>
      </trkpt>
      <trkpt lat="43.32429" lon="3.55909">
        <ele>18.8</ele>
        <time>2025-06-17T08:29:14Z</time>
      </trkpt>
      <trkpt lat="43.32432" lon="3.55915">
        <ele>18.8</ele>
        <time>2025-06-17T08:29:15Z</time>
      </trkpt>
      <trkpt lat="43.32435" lon="3.5592">
        <ele>18.8</ele>
        <time>2025-06-17T08:29:16Z</time>
      </trkpt>
      <trkpt lat="43.32438" lon="3.55926">
        <ele>18.8</ele>
        <time>2025-06-17T08:29:17Z</time>
      </trkpt>
      <trkpt lat="43.32442" lon="3.55932">
        <ele>18.8</ele>
        <time>2025-06-17T08:29:18Z</time>
      </trkpt>
      <trkpt lat="43.32445" lon="3.55938">
        <ele>18.8</ele>
        <time>2025-06-17T08:29:19Z</time>
      </trkpt>
      <trkpt lat="43.32448" lon="3.55944">
        <ele>18.6</ele>
        <time>2025-06-17T08:29:20Z</time>
      </trkpt>
      <trkpt lat="43.32452" lon="3.55951">
        <ele>18.6</ele>
        <time>2025-06-17T08:29:21Z</time>
      </trkpt>
      <trkpt lat="43.32456" lon="3.55957">
        <ele>18.6</ele>
        <time>2025-06-17T08:29:22Z</time>
      </trkpt>
      <trkpt lat="43.32459" lon="3.55963">
        <ele>18.8</ele>
        <time>2025-06-17T08:29:23Z</time>
      </trkpt>
      <trkpt lat="43.32463" lon="3.55969">
        <ele>18.8</ele>
        <time>2025-06-17T08:29:24Z</time>
      </trkpt>
      <trkpt lat="43.32466" lon="3.55975">
        <ele>18.8</ele>
        <time>2025-06-17T08:29:25Z</time>
      </trkpt>
      <trkpt lat="43.32469" lon="3.55982">
        <ele>18.8</ele>
        <time>2025-06-17T08:29:26Z</time>
      </trkpt>
      <trkpt lat="43.32472" lon="3.55988">
        <ele>18.8</ele>
        <time>2025-06-17T08:29:27Z</time>
      </trkpt>
      <trkpt lat="43.32475" lon="3.55994">
        <ele>18.8</ele>
        <time>2025-06-17T08:29:28Z</time>
      </trkpt>
      <trkpt lat="43.32476" lon="3.56001">
        <ele>18.8</ele>
        <time>2025-06-17T08:29:29Z</time>
      </trkpt>
      <trkpt lat="43.32477" lon="3.56008">
        <ele>18.8</ele>
        <time>2025-06-17T08:29:30Z</time>
      </trkpt>
      <trkpt lat="43.32479" lon="3.56015">
        <ele>18.8</ele>
        <time>2025-06-17T08:29:31Z</time>
      </trkpt>
      <trkpt lat="43.32481" lon="3.56021">
        <ele>18.8</ele>
        <time>2025-06-17T08:29:32Z</time>
      </trkpt>
      <trkpt lat="43.32484" lon="3.56027">
        <ele>18.8</ele>
        <time>2025-06-17T08:29:33Z</time>
      </trkpt>
      <trkpt lat="43.32489" lon="3.56031">
        <ele>18.8</ele>
        <time>2025-06-17T08:29:34Z</time>
      </trkpt>
      <trkpt lat="43.32493" lon="3.56034">
        <ele>19</ele>
        <time>2025-06-17T08:29:35Z</time>
      </trkpt>
      <trkpt lat="43.32498" lon="3.56038">
        <ele>19</ele>
        <time>2025-06-17T08:29:36Z</time>
      </trkpt>
      <trkpt lat="43.32502" lon="3.56043">
        <ele>19</ele>
        <time>2025-06-17T08:29:37Z</time>
      </trkpt>
      <trkpt lat="43.32506" lon="3.56048">
        <ele>19</ele>
        <time>2025-06-17T08:29:38Z</time>
      </trkpt>
      <trkpt lat="43.3251" lon="3.56054">
        <ele>19</ele>
        <time>2025-06-17T08:29:39Z</time>
      </trkpt>
      <trkpt lat="43.32514" lon="3.5606">
        <ele>19</ele>
        <time>2025-06-17T08:29:40Z</time>
      </trkpt>
      <trkpt lat="43.32517" lon="3.56066">
        <ele>19</ele>
        <time>2025-06-17T08:29:41Z</time>
      </trkpt>
      <trkpt lat="43.32521" lon="3.56072">
        <ele>19</ele>
        <time>2025-06-17T08:29:42Z</time>
      </trkpt>
      <trkpt lat="43.32525" lon="3.56078">
        <ele>19</ele>
        <time>2025-06-17T08:29:43Z</time>
      </trkpt>
      <trkpt lat="43.32529" lon="3.56085">
        <ele>19</ele>
        <time>2025-06-17T08:29:44Z</time>
      </trkpt>
      <trkpt lat="43.32532" lon="3.56091">
        <ele>19</ele>
        <time>2025-06-17T08:29:45Z</time>
      </trkpt>
      <trkpt lat="43.32536" lon="3.56097">
        <ele>19</ele>
        <time>2025-06-17T08:29:46Z</time>
      </trkpt>
      <trkpt lat="43.3254" lon="3.56104">
        <ele>19</ele>
        <time>2025-06-17T08:29:47Z</time>
      </trkpt>
      <trkpt lat="43.32543" lon="3.56111">
        <ele>19</ele>
        <time>2025-06-17T08:29:48Z</time>
      </trkpt>
      <trkpt lat="43.32547" lon="3.56118">
        <ele>19</ele>
        <time>2025-06-17T08:29:49Z</time>
      </trkpt>
      <trkpt lat="43.32551" lon="3.56125">
        <ele>19</ele>
        <time>2025-06-17T08:29:50Z</time>
      </trkpt>
      <trkpt lat="43.32555" lon="3.56132">
        <ele>19</ele>
        <time>2025-06-17T08:29:51Z</time>
      </trkpt>
      <trkpt lat="43.32559" lon="3.56139">
        <ele>19</ele>
        <time>2025-06-17T08:29:52Z</time>
      </trkpt>
      <trkpt lat="43.32563" lon="3.56146">
        <ele>19</ele>
        <time>2025-06-17T08:29:53Z</time>
      </trkpt>
      <trkpt lat="43.32567" lon="3.56153">
        <ele>19</ele>
        <time>2025-06-17T08:29:54Z</time>
      </trkpt>
      <trkpt lat="43.3257" lon="3.5616">
        <ele>19</ele>
        <time>2025-06-17T08:29:55Z</time>
      </trkpt>
      <trkpt lat="43.32574" lon="3.56166">
        <ele>19</ele>
        <time>2025-06-17T08:29:56Z</time>
      </trkpt>
      <trkpt lat="43.32577" lon="3.56173">
        <ele>19.2</ele>
        <time>2025-06-17T08:29:57Z</time>
      </trkpt>
      <trkpt lat="43.32581" lon="3.5618">
        <ele>19.2</ele>
        <time>2025-06-17T08:29:58Z</time>
      </trkpt>
      <trkpt lat="43.32584" lon="3.56187">
        <ele>19</ele>
        <time>2025-06-17T08:29:59Z</time>
      </trkpt>
      <trkpt lat="43.32587" lon="3.56193">
        <ele>19</ele>
        <time>2025-06-17T08:30:00Z</time>
      </trkpt>
      <trkpt lat="43.32591" lon="3.562">
        <ele>19</ele>
        <time>2025-06-17T08:30:01Z</time>
      </trkpt>
      <trkpt lat="43.32594" lon="3.56207">
        <ele>19</ele>
        <time>2025-06-17T08:30:02Z</time>
      </trkpt>
      <trkpt lat="43.32597" lon="3.56214">
        <ele>19.2</ele>
        <time>2025-06-17T08:30:03Z</time>
      </trkpt>
      <trkpt lat="43.326" lon="3.5622">
        <ele>19.2</ele>
        <time>2025-06-17T08:30:04Z</time>
      </trkpt>
      <trkpt lat="43.32602" lon="3.56226">
        <ele>19</ele>
        <time>2025-06-17T08:30:05Z</time>
      </trkpt>
      <trkpt lat="43.32604" lon="3.56233">
        <ele>19</ele>
        <time>2025-06-17T08:30:06Z</time>
      </trkpt>
      <trkpt lat="43.32606" lon="3.5624">
        <ele>19</ele>
        <time>2025-06-17T08:30:07Z</time>
      </trkpt>
      <trkpt lat="43.32607" lon="3.56247">
        <ele>19</ele>
        <time>2025-06-17T08:30:08Z</time>
      </trkpt>
      <trkpt lat="43.32607" lon="3.56253">
        <ele>19</ele>
        <time>2025-06-17T08:30:09Z</time>
      </trkpt>
      <trkpt lat="43.32609" lon="3.56258">
        <ele>19</ele>
        <time>2025-06-17T08:30:10Z</time>
      </trkpt>
      <trkpt lat="43.32612" lon="3.56262">
        <ele>19</ele>
        <time>2025-06-17T08:30:11Z</time>
      </trkpt>
      <trkpt lat="43.32615" lon="3.56265">
        <ele>19</ele>
        <time>2025-06-17T08:30:12Z</time>
      </trkpt>
      <trkpt lat="43.32618" lon="3.56268">
        <ele>19</ele>
        <time>2025-06-17T08:30:13Z</time>
      </trkpt>
      <trkpt lat="43.3262" lon="3.56273">
        <ele>19</ele>
        <time>2025-06-17T08:30:14Z</time>
      </trkpt>
      <trkpt lat="43.32622" lon="3.56279">
        <ele>19.2</ele>
        <time>2025-06-17T08:30:15Z</time>
      </trkpt>
      <trkpt lat="43.32623" lon="3.56285">
        <ele>19.2</ele>
        <time>2025-06-17T08:30:16Z</time>
      </trkpt>
      <trkpt lat="43.32626" lon="3.56291">
        <ele>19.2</ele>
        <time>2025-06-17T08:30:17Z</time>
      </trkpt>
      <trkpt lat="43.32628" lon="3.56297">
        <ele>19.4</ele>
        <time>2025-06-17T08:30:18Z</time>
      </trkpt>
      <trkpt lat="43.32631" lon="3.56304">
        <ele>19.4</ele>
        <time>2025-06-17T08:30:19Z</time>
      </trkpt>
      <trkpt lat="43.32633" lon="3.5631">
        <ele>19.4</ele>
        <time>2025-06-17T08:30:20Z</time>
      </trkpt>
      <trkpt lat="43.32636" lon="3.56316">
        <ele>19.4</ele>
        <time>2025-06-17T08:30:21Z</time>
      </trkpt>
      <trkpt lat="43.32638" lon="3.56323">
        <ele>19.4</ele>
        <time>2025-06-17T08:30:22Z</time>
      </trkpt>
      <trkpt lat="43.32641" lon="3.5633">
        <ele>19.4</ele>
        <time>2025-06-17T08:30:23Z</time>
      </trkpt>
      <trkpt lat="43.32643" lon="3.56336">
        <ele>19.6</ele>
        <time>2025-06-17T08:30:24Z</time>
      </trkpt>
      <trkpt lat="43.32646" lon="3.56342">
        <ele>19.6</ele>
        <time>2025-06-17T08:30:25Z</time>
      </trkpt>
      <trkpt lat="43.32649" lon="3.56349">
        <ele>19.6</ele>
        <time>2025-06-17T08:30:26Z</time>
      </trkpt>
      <trkpt lat="43.32651" lon="3.56355">
        <ele>19.6</ele>
        <time>2025-06-17T08:30:27Z</time>
      </trkpt>
      <trkpt lat="43.32654" lon="3.56363">
        <ele>19.6</ele>
        <time>2025-06-17T08:30:28Z</time>
      </trkpt>
      <trkpt lat="43.32656" lon="3.56369">
        <ele>19.6</ele>
        <time>2025-06-17T08:30:29Z</time>
      </trkpt>
      <trkpt lat="43.32659" lon="3.56376">
        <ele>19.8</ele>
        <time>2025-06-17T08:30:30Z</time>
      </trkpt>
      <trkpt lat="43.32661" lon="3.56382">
        <ele>19.6</ele>
        <time>2025-06-17T08:30:31Z</time>
      </trkpt>
      <trkpt lat="43.32664" lon="3.56389">
        <ele>19.8</ele>
        <time>2025-06-17T08:30:32Z</time>
      </trkpt>
      <trkpt lat="43.32667" lon="3.56396">
        <ele>19.8</ele>
        <time>2025-06-17T08:30:33Z</time>
      </trkpt>
      <trkpt lat="43.32669" lon="3.56403">
        <ele>19.8</ele>
        <time>2025-06-17T08:30:34Z</time>
      </trkpt>
      <trkpt lat="43.32672" lon="3.5641">
        <ele>19.8</ele>
        <time>2025-06-17T08:30:35Z</time>
      </trkpt>
      <trkpt lat="43.32674" lon="3.56416">
        <ele>19.8</ele>
        <time>2025-06-17T08:30:36Z</time>
      </trkpt>
      <trkpt lat="43.32677" lon="3.56423">
        <ele>20</ele>
        <time>2025-06-17T08:30:37Z</time>
      </trkpt>
      <trkpt lat="43.3268" lon="3.5643">
        <ele>20</ele>
        <time>2025-06-17T08:30:38Z</time>
      </trkpt>
      <trkpt lat="43.32682" lon="3.56437">
        <ele>20</ele>
        <time>2025-06-17T08:30:39Z</time>
      </trkpt>
      <trkpt lat="43.32685" lon="3.56444">
        <ele>20</ele>
        <time>2025-06-17T08:30:40Z</time>
      </trkpt>
      <trkpt lat="43.32687" lon="3.5645">
        <ele>20.2</ele>
        <time>2025-06-17T08:30:41Z</time>
      </trkpt>
      <trkpt lat="43.3269" lon="3.56457">
        <ele>20.2</ele>
        <time>2025-06-17T08:30:42Z</time>
      </trkpt>
      <trkpt lat="43.32692" lon="3.56464">
        <ele>20.4</ele>
        <time>2025-06-17T08:30:43Z</time>
      </trkpt>
      <trkpt lat="43.32695" lon="3.56471">
        <ele>20.4</ele>
        <time>2025-06-17T08:30:44Z</time>
      </trkpt>
      <trkpt lat="43.32698" lon="3.56478">
        <ele>20.4</ele>
        <time>2025-06-17T08:30:45Z</time>
      </trkpt>
      <trkpt lat="43.327" lon="3.56485">
        <ele>20.4</ele>
        <time>2025-06-17T08:30:46Z</time>
      </trkpt>
      <trkpt lat="43.32703" lon="3.56492">
        <ele>20.4</ele>
        <time>2025-06-17T08:30:47Z</time>
      </trkpt>
      <trkpt lat="43.32706" lon="3.56499">
        <ele>20.4</ele>
        <time>2025-06-17T08:30:48Z</time>
      </trkpt>
      <trkpt lat="43.32708" lon="3.56506">
        <ele>20.4</ele>
        <time>2025-06-17T08:30:49Z</time>
      </trkpt>
      <trkpt lat="43.32711" lon="3.56514">
        <ele>20.4</ele>
        <time>2025-06-17T08:30:50Z</time>
      </trkpt>
      <trkpt lat="43.32714" lon="3.56521">
        <ele>20.4</ele>
        <time>2025-06-17T08:30:51Z</time>
      </trkpt>
      <trkpt lat="43.32717" lon="3.56528">
        <ele>20.4</ele>
        <time>2025-06-17T08:30:52Z</time>
      </trkpt>
      <trkpt lat="43.3272" lon="3.56535">
        <ele>20.4</ele>
        <time>2025-06-17T08:30:53Z</time>
      </trkpt>
      <trkpt lat="43.32723" lon="3.56542">
        <ele>20.4</ele>
        <time>2025-06-17T08:30:54Z</time>
      </trkpt>
      <trkpt lat="43.32727" lon="3.56549">
        <ele>20.4</ele>
        <time>2025-06-17T08:30:55Z</time>
      </trkpt>
      <trkpt lat="43.3273" lon="3.56557">
        <ele>20.4</ele>
        <time>2025-06-17T08:30:56Z</time>
      </trkpt>
      <trkpt lat="43.32733" lon="3.56563">
        <ele>20.4</ele>
        <time>2025-06-17T08:30:57Z</time>
      </trkpt>
      <trkpt lat="43.32736" lon="3.56571">
        <ele>20.4</ele>
        <time>2025-06-17T08:30:58Z</time>
      </trkpt>
      <trkpt lat="43.3274" lon="3.56578">
        <ele>20.4</ele>
        <time>2025-06-17T08:30:59Z</time>
      </trkpt>
      <trkpt lat="43.32743" lon="3.56585">
        <ele>20.4</ele>
        <time>2025-06-17T08:31:00Z</time>
      </trkpt>
      <trkpt lat="43.32746" lon="3.56592">
        <ele>20.4</ele>
        <time>2025-06-17T08:31:01Z</time>
      </trkpt>
      <trkpt lat="43.32749" lon="3.56599">
        <ele>20.4</ele>
        <time>2025-06-17T08:31:02Z</time>
      </trkpt>
      <trkpt lat="43.32753" lon="3.56606">
        <ele>20.4</ele>
        <time>2025-06-17T08:31:03Z</time>
      </trkpt>
      <trkpt lat="43.32756" lon="3.56613">
        <ele>20.6</ele>
        <time>2025-06-17T08:31:04Z</time>
      </trkpt>
      <trkpt lat="43.32759" lon="3.56621">
        <ele>20.6</ele>
        <time>2025-06-17T08:31:05Z</time>
      </trkpt>
      <trkpt lat="43.32763" lon="3.56627">
        <ele>20.6</ele>
        <time>2025-06-17T08:31:06Z</time>
      </trkpt>
      <trkpt lat="43.32766" lon="3.56635">
        <ele>20.6</ele>
        <time>2025-06-17T08:31:07Z</time>
      </trkpt>
      <trkpt lat="43.3277" lon="3.56642">
        <ele>20.6</ele>
        <time>2025-06-17T08:31:08Z</time>
      </trkpt>
      <trkpt lat="43.32773" lon="3.56649">
        <ele>20.6</ele>
        <time>2025-06-17T08:31:09Z</time>
      </trkpt>
      <trkpt lat="43.32777" lon="3.56656">
        <ele>20.6</ele>
        <time>2025-06-17T08:31:10Z</time>
      </trkpt>
      <trkpt lat="43.3278" lon="3.56663">
        <ele>20.6</ele>
        <time>2025-06-17T08:31:11Z</time>
      </trkpt>
      <trkpt lat="43.32784" lon="3.5667">
        <ele>20.4</ele>
        <time>2025-06-17T08:31:12Z</time>
      </trkpt>
      <trkpt lat="43.32788" lon="3.56678">
        <ele>20.4</ele>
        <time>2025-06-17T08:31:13Z</time>
      </trkpt>
      <trkpt lat="43.32792" lon="3.56685">
        <ele>20.4</ele>
        <time>2025-06-17T08:31:14Z</time>
      </trkpt>
      <trkpt lat="43.32795" lon="3.56691">
        <ele>20.4</ele>
        <time>2025-06-17T08:31:15Z</time>
      </trkpt>
      <trkpt lat="43.32799" lon="3.56699">
        <ele>20.2</ele>
        <time>2025-06-17T08:31:16Z</time>
      </trkpt>
      <trkpt lat="43.32803" lon="3.56706">
        <ele>20.2</ele>
        <time>2025-06-17T08:31:17Z</time>
      </trkpt>
      <trkpt lat="43.32806" lon="3.56712">
        <ele>20.2</ele>
        <time>2025-06-17T08:31:18Z</time>
      </trkpt>
      <trkpt lat="43.3281" lon="3.56719">
        <ele>20.2</ele>
        <time>2025-06-17T08:31:19Z</time>
      </trkpt>
      <trkpt lat="43.32814" lon="3.56725">
        <ele>20.2</ele>
        <time>2025-06-17T08:31:20Z</time>
      </trkpt>
      <trkpt lat="43.32818" lon="3.56732">
        <ele>20.2</ele>
        <time>2025-06-17T08:31:21Z</time>
      </trkpt>
      <trkpt lat="43.32822" lon="3.56739">
        <ele>20.2</ele>
        <time>2025-06-17T08:31:22Z</time>
      </trkpt>
      <trkpt lat="43.32826" lon="3.56746">
        <ele>20</ele>
        <time>2025-06-17T08:31:23Z</time>
      </trkpt>
      <trkpt lat="43.3283" lon="3.56752">
        <ele>20.2</ele>
        <time>2025-06-17T08:31:24Z</time>
      </trkpt>
      <trkpt lat="43.32834" lon="3.56759">
        <ele>20.2</ele>
        <time>2025-06-17T08:31:25Z</time>
      </trkpt>
      <trkpt lat="43.32838" lon="3.56766">
        <ele>20.2</ele>
        <time>2025-06-17T08:31:26Z</time>
      </trkpt>
      <trkpt lat="43.32842" lon="3.56772">
        <ele>20.2</ele>
        <time>2025-06-17T08:31:27Z</time>
      </trkpt>
      <trkpt lat="43.32846" lon="3.56778">
        <ele>20.2</ele>
        <time>2025-06-17T08:31:28Z</time>
      </trkpt>
      <trkpt lat="43.32851" lon="3.56785">
        <ele>20.2</ele>
        <time>2025-06-17T08:31:29Z</time>
      </trkpt>
      <trkpt lat="43.32855" lon="3.56791">
        <ele>20.2</ele>
        <time>2025-06-17T08:31:30Z</time>
      </trkpt>
      <trkpt lat="43.3286" lon="3.56797">
        <ele>20.2</ele>
        <time>2025-06-17T08:31:31Z</time>
      </trkpt>
      <trkpt lat="43.32864" lon="3.56803">
        <ele>20.2</ele>
        <time>2025-06-17T08:31:32Z</time>
      </trkpt>
      <trkpt lat="43.32868" lon="3.56809">
        <ele>20.2</ele>
        <time>2025-06-17T08:31:33Z</time>
      </trkpt>
      <trkpt lat="43.32873" lon="3.56815">
        <ele>20.2</ele>
        <time>2025-06-17T08:31:34Z</time>
      </trkpt>
      <trkpt lat="43.32878" lon="3.56821">
        <ele>20.2</ele>
        <time>2025-06-17T08:31:35Z</time>
      </trkpt>
      <trkpt lat="43.32882" lon="3.56827">
        <ele>20.2</ele>
        <time>2025-06-17T08:31:36Z</time>
      </trkpt>
      <trkpt lat="43.32887" lon="3.56832">
        <ele>20.2</ele>
        <time>2025-06-17T08:31:37Z</time>
      </trkpt>
      <trkpt lat="43.32891" lon="3.56838">
        <ele>20.2</ele>
        <time>2025-06-17T08:31:38Z</time>
      </trkpt>
      <trkpt lat="43.32896" lon="3.56844">
        <ele>20.2</ele>
        <time>2025-06-17T08:31:39Z</time>
      </trkpt>
      <trkpt lat="43.32901" lon="3.5685">
        <ele>20.4</ele>
        <time>2025-06-17T08:31:40Z</time>
      </trkpt>
      <trkpt lat="43.32906" lon="3.56855">
        <ele>20.4</ele>
        <time>2025-06-17T08:31:41Z</time>
      </trkpt>
      <trkpt lat="43.32911" lon="3.56861">
        <ele>20.4</ele>
        <time>2025-06-17T08:31:42Z</time>
      </trkpt>
      <trkpt lat="43.32915" lon="3.56866">
        <ele>20.4</ele>
        <time>2025-06-17T08:31:43Z</time>
      </trkpt>
      <trkpt lat="43.3292" lon="3.56872">
        <ele>20.4</ele>
        <time>2025-06-17T08:31:44Z</time>
      </trkpt>
      <trkpt lat="43.32924" lon="3.56878">
        <ele>20.4</ele>
        <time>2025-06-17T08:31:45Z</time>
      </trkpt>
      <trkpt lat="43.32929" lon="3.56884">
        <ele>20.4</ele>
        <time>2025-06-17T08:31:46Z</time>
      </trkpt>
      <trkpt lat="43.32934" lon="3.56889">
        <ele>20.4</ele>
        <time>2025-06-17T08:31:47Z</time>
      </trkpt>
      <trkpt lat="43.32939" lon="3.56895">
        <ele>20.4</ele>
        <time>2025-06-17T08:31:48Z</time>
      </trkpt>
      <trkpt lat="43.32944" lon="3.56901">
        <ele>20.4</ele>
        <time>2025-06-17T08:31:49Z</time>
      </trkpt>
      <trkpt lat="43.32949" lon="3.56907">
        <ele>20.4</ele>
        <time>2025-06-17T08:31:50Z</time>
      </trkpt>
      <trkpt lat="43.32953" lon="3.56912">
        <ele>20.2</ele>
        <time>2025-06-17T08:31:51Z</time>
      </trkpt>
      <trkpt lat="43.32958" lon="3.56918">
        <ele>20.2</ele>
        <time>2025-06-17T08:31:52Z</time>
      </trkpt>
      <trkpt lat="43.32963" lon="3.56924">
        <ele>20.2</ele>
        <time>2025-06-17T08:31:53Z</time>
      </trkpt>
      <trkpt lat="43.32968" lon="3.56929">
        <ele>20.2</ele>
        <time>2025-06-17T08:31:54Z</time>
      </trkpt>
      <trkpt lat="43.32973" lon="3.56935">
        <ele>20.2</ele>
        <time>2025-06-17T08:31:55Z</time>
      </trkpt>
      <trkpt lat="43.32977" lon="3.5694">
        <ele>20.2</ele>
        <time>2025-06-17T08:31:56Z</time>
      </trkpt>
      <trkpt lat="43.32982" lon="3.56946">
        <ele>20.2</ele>
        <time>2025-06-17T08:31:57Z</time>
      </trkpt>
      <trkpt lat="43.32987" lon="3.56951">
        <ele>20.2</ele>
        <time>2025-06-17T08:31:58Z</time>
      </trkpt>
      <trkpt lat="43.32991" lon="3.56957">
        <ele>20.2</ele>
        <time>2025-06-17T08:31:59Z</time>
      </trkpt>
      <trkpt lat="43.32996" lon="3.56963">
        <ele>20.2</ele>
        <time>2025-06-17T08:32:00Z</time>
      </trkpt>
      <trkpt lat="43.33001" lon="3.56968">
        <ele>20.2</ele>
        <time>2025-06-17T08:32:01Z</time>
      </trkpt>
      <trkpt lat="43.33006" lon="3.56974">
        <ele>20.2</ele>
        <time>2025-06-17T08:32:02Z</time>
      </trkpt>
      <trkpt lat="43.33011" lon="3.56979">
        <ele>20.2</ele>
        <time>2025-06-17T08:32:03Z</time>
      </trkpt>
      <trkpt lat="43.33015" lon="3.56985">
        <ele>20.2</ele>
        <time>2025-06-17T08:32:04Z</time>
      </trkpt>
      <trkpt lat="43.3302" lon="3.56991">
        <ele>20.2</ele>
        <time>2025-06-17T08:32:05Z</time>
      </trkpt>
      <trkpt lat="43.33025" lon="3.56997">
        <ele>20.2</ele>
        <time>2025-06-17T08:32:06Z</time>
      </trkpt>
      <trkpt lat="43.3303" lon="3.57002">
        <ele>20.2</ele>
        <time>2025-06-17T08:32:07Z</time>
      </trkpt>
      <trkpt lat="43.33035" lon="3.57008">
        <ele>20</ele>
        <time>2025-06-17T08:32:08Z</time>
      </trkpt>
      <trkpt lat="43.3304" lon="3.57014">
        <ele>20</ele>
        <time>2025-06-17T08:32:09Z</time>
      </trkpt>
      <trkpt lat="43.33044" lon="3.57019">
        <ele>20</ele>
        <time>2025-06-17T08:32:10Z</time>
      </trkpt>
      <trkpt lat="43.33049" lon="3.57025">
        <ele>20</ele>
        <time>2025-06-17T08:32:11Z</time>
      </trkpt>
      <trkpt lat="43.33054" lon="3.57031">
        <ele>20</ele>
        <time>2025-06-17T08:32:12Z</time>
      </trkpt>
      <trkpt lat="43.33059" lon="3.57037">
        <ele>20</ele>
        <time>2025-06-17T08:32:13Z</time>
      </trkpt>
      <trkpt lat="43.33063" lon="3.57042">
        <ele>20</ele>
        <time>2025-06-17T08:32:14Z</time>
      </trkpt>
      <trkpt lat="43.33068" lon="3.57048">
        <ele>20</ele>
        <time>2025-06-17T08:32:15Z</time>
      </trkpt>
      <trkpt lat="43.33073" lon="3.57054">
        <ele>20</ele>
        <time>2025-06-17T08:32:16Z</time>
      </trkpt>
      <trkpt lat="43.33078" lon="3.57059">
        <ele>20.2</ele>
        <time>2025-06-17T08:32:17Z</time>
      </trkpt>
      <trkpt lat="43.33083" lon="3.57065">
        <ele>20.2</ele>
        <time>2025-06-17T08:32:18Z</time>
      </trkpt>
      <trkpt lat="43.33088" lon="3.57071">
        <ele>20.2</ele>
        <time>2025-06-17T08:32:19Z</time>
      </trkpt>
      <trkpt lat="43.33093" lon="3.57076">
        <ele>20.2</ele>
        <time>2025-06-17T08:32:20Z</time>
      </trkpt>
      <trkpt lat="43.33098" lon="3.57081">
        <ele>20.2</ele>
        <time>2025-06-17T08:32:21Z</time>
      </trkpt>
      <trkpt lat="43.33103" lon="3.57087">
        <ele>20.2</ele>
        <time>2025-06-17T08:32:22Z</time>
      </trkpt>
      <trkpt lat="43.33108" lon="3.57093">
        <ele>20.2</ele>
        <time>2025-06-17T08:32:23Z</time>
      </trkpt>
      <trkpt lat="43.33113" lon="3.57099">
        <ele>20.2</ele>
        <time>2025-06-17T08:32:24Z</time>
      </trkpt>
      <trkpt lat="43.33118" lon="3.57105">
        <ele>20.2</ele>
        <time>2025-06-17T08:32:25Z</time>
      </trkpt>
      <trkpt lat="43.33123" lon="3.5711">
        <ele>20</ele>
        <time>2025-06-17T08:32:26Z</time>
      </trkpt>
      <trkpt lat="43.33128" lon="3.57116">
        <ele>20</ele>
        <time>2025-06-17T08:32:27Z</time>
      </trkpt>
      <trkpt lat="43.33134" lon="3.57122">
        <ele>19.8</ele>
        <time>2025-06-17T08:32:28Z</time>
      </trkpt>
      <trkpt lat="43.33139" lon="3.57128">
        <ele>19.6</ele>
        <time>2025-06-17T08:32:29Z</time>
      </trkpt>
      <trkpt lat="43.33145" lon="3.57134">
        <ele>19.6</ele>
        <time>2025-06-17T08:32:30Z</time>
      </trkpt>
      <trkpt lat="43.3315" lon="3.5714">
        <ele>19.4</ele>
        <time>2025-06-17T08:32:31Z</time>
      </trkpt>
      <trkpt lat="43.33155" lon="3.57147">
        <ele>19.4</ele>
        <time>2025-06-17T08:32:32Z</time>
      </trkpt>
      <trkpt lat="43.3316" lon="3.57153">
        <ele>19.2</ele>
        <time>2025-06-17T08:32:33Z</time>
      </trkpt>
      <trkpt lat="43.33165" lon="3.5716">
        <ele>19.2</ele>
        <time>2025-06-17T08:32:34Z</time>
      </trkpt>
      <trkpt lat="43.33171" lon="3.57166">
        <ele>19.2</ele>
        <time>2025-06-17T08:32:35Z</time>
      </trkpt>
      <trkpt lat="43.33176" lon="3.57172">
        <ele>19.2</ele>
        <time>2025-06-17T08:32:36Z</time>
      </trkpt>
      <trkpt lat="43.33181" lon="3.57178">
        <ele>19.2</ele>
        <time>2025-06-17T08:32:37Z</time>
      </trkpt>
      <trkpt lat="43.33186" lon="3.57184">
        <ele>19.2</ele>
        <time>2025-06-17T08:32:38Z</time>
      </trkpt>
      <trkpt lat="43.33191" lon="3.5719">
        <ele>19.2</ele>
        <time>2025-06-17T08:32:39Z</time>
      </trkpt>
      <trkpt lat="43.33196" lon="3.57196">
        <ele>19.2</ele>
        <time>2025-06-17T08:32:40Z</time>
      </trkpt>
      <trkpt lat="43.33201" lon="3.57202">
        <ele>19.2</ele>
        <time>2025-06-17T08:32:41Z</time>
      </trkpt>
      <trkpt lat="43.33206" lon="3.57208">
        <ele>19.2</ele>
        <time>2025-06-17T08:32:42Z</time>
      </trkpt>
      <trkpt lat="43.33211" lon="3.57214">
        <ele>19.4</ele>
        <time>2025-06-17T08:32:43Z</time>
      </trkpt>
      <trkpt lat="43.33215" lon="3.5722">
        <ele>19.4</ele>
        <time>2025-06-17T08:32:44Z</time>
      </trkpt>
      <trkpt lat="43.3322" lon="3.57225">
        <ele>19.4</ele>
        <time>2025-06-17T08:32:45Z</time>
      </trkpt>
      <trkpt lat="43.33225" lon="3.57231">
        <ele>19.4</ele>
        <time>2025-06-17T08:32:46Z</time>
      </trkpt>
      <trkpt lat="43.33229" lon="3.57237">
        <ele>19.4</ele>
        <time>2025-06-17T08:32:47Z</time>
      </trkpt>
      <trkpt lat="43.33234" lon="3.57243">
        <ele>19.2</ele>
        <time>2025-06-17T08:32:48Z</time>
      </trkpt>
      <trkpt lat="43.33239" lon="3.57248">
        <ele>19.2</ele>
        <time>2025-06-17T08:32:49Z</time>
      </trkpt>
      <trkpt lat="43.33244" lon="3.57254">
        <ele>19.2</ele>
        <time>2025-06-17T08:32:50Z</time>
      </trkpt>
      <trkpt lat="43.33249" lon="3.5726">
        <ele>19</ele>
        <time>2025-06-17T08:32:51Z</time>
      </trkpt>
      <trkpt lat="43.33254" lon="3.57266">
        <ele>19</ele>
        <time>2025-06-17T08:32:52Z</time>
      </trkpt>
      <trkpt lat="43.33259" lon="3.57272">
        <ele>18.8</ele>
        <time>2025-06-17T08:32:53Z</time>
      </trkpt>
      <trkpt lat="43.33265" lon="3.57278">
        <ele>18.8</ele>
        <time>2025-06-17T08:32:54Z</time>
      </trkpt>
      <trkpt lat="43.33269" lon="3.57283">
        <ele>18.8</ele>
        <time>2025-06-17T08:32:55Z</time>
      </trkpt>
      <trkpt lat="43.33274" lon="3.57289">
        <ele>18.6</ele>
        <time>2025-06-17T08:32:56Z</time>
      </trkpt>
      <trkpt lat="43.33279" lon="3.57295">
        <ele>18.6</ele>
        <time>2025-06-17T08:32:57Z</time>
      </trkpt>
      <trkpt lat="43.33284" lon="3.573">
        <ele>18.6</ele>
        <time>2025-06-17T08:32:58Z</time>
      </trkpt>
      <trkpt lat="43.33289" lon="3.57306">
        <ele>18.6</ele>
        <time>2025-06-17T08:32:59Z</time>
      </trkpt>
      <trkpt lat="43.33294" lon="3.57312">
        <ele>18.4</ele>
        <time>2025-06-17T08:33:00Z</time>
      </trkpt>
      <trkpt lat="43.33298" lon="3.57317">
        <ele>18.4</ele>
        <time>2025-06-17T08:33:01Z</time>
      </trkpt>
      <trkpt lat="43.33304" lon="3.57324">
        <ele>18.2</ele>
        <time>2025-06-17T08:33:02Z</time>
      </trkpt>
      <trkpt lat="43.33309" lon="3.5733">
        <ele>18.2</ele>
        <time>2025-06-17T08:33:03Z</time>
      </trkpt>
      <trkpt lat="43.33314" lon="3.57335">
        <ele>18.2</ele>
        <time>2025-06-17T08:33:04Z</time>
      </trkpt>
      <trkpt lat="43.33319" lon="3.57341">
        <ele>18.2</ele>
        <time>2025-06-17T08:33:05Z</time>
      </trkpt>
      <trkpt lat="43.33323" lon="3.57347">
        <ele>18.2</ele>
        <time>2025-06-17T08:33:06Z</time>
      </trkpt>
      <trkpt lat="43.33328" lon="3.57353">
        <ele>18.2</ele>
        <time>2025-06-17T08:33:07Z</time>
      </trkpt>
      <trkpt lat="43.33333" lon="3.57358">
        <ele>18.2</ele>
        <time>2025-06-17T08:33:08Z</time>
      </trkpt>
      <trkpt lat="43.33337" lon="3.57364">
        <ele>18.2</ele>
        <time>2025-06-17T08:33:09Z</time>
      </trkpt>
      <trkpt lat="43.33341" lon="3.57369">
        <ele>18.2</ele>
        <time>2025-06-17T08:33:10Z</time>
      </trkpt>
      <trkpt lat="43.33347" lon="3.57375">
        <ele>18.2</ele>
        <time>2025-06-17T08:33:11Z</time>
      </trkpt>
      <trkpt lat="43.33351" lon="3.57381">
        <ele>18.2</ele>
        <time>2025-06-17T08:33:12Z</time>
      </trkpt>
      <trkpt lat="43.33356" lon="3.57387">
        <ele>18.2</ele>
        <time>2025-06-17T08:33:13Z</time>
      </trkpt>
      <trkpt lat="43.3336" lon="3.57392">
        <ele>18.2</ele>
        <time>2025-06-17T08:33:14Z</time>
      </trkpt>
      <trkpt lat="43.33365" lon="3.57398">
        <ele>18.2</ele>
        <time>2025-06-17T08:33:15Z</time>
      </trkpt>
      <trkpt lat="43.3337" lon="3.57403">
        <ele>18.2</ele>
        <time>2025-06-17T08:33:16Z</time>
      </trkpt>
      <trkpt lat="43.33375" lon="3.57408">
        <ele>18.2</ele>
        <time>2025-06-17T08:33:17Z</time>
      </trkpt>
      <trkpt lat="43.3338" lon="3.57414">
        <ele>18</ele>
        <time>2025-06-17T08:33:18Z</time>
      </trkpt>
      <trkpt lat="43.33385" lon="3.57419">
        <ele>18</ele>
        <time>2025-06-17T08:33:19Z</time>
      </trkpt>
      <trkpt lat="43.3339" lon="3.57425">
        <ele>18</ele>
        <time>2025-06-17T08:33:20Z</time>
      </trkpt>
      <trkpt lat="43.33395" lon="3.5743">
        <ele>18</ele>
        <time>2025-06-17T08:33:21Z</time>
      </trkpt>
      <trkpt lat="43.334" lon="3.57436">
        <ele>18</ele>
        <time>2025-06-17T08:33:22Z</time>
      </trkpt>
      <trkpt lat="43.33405" lon="3.57442">
        <ele>17.8</ele>
        <time>2025-06-17T08:33:23Z</time>
      </trkpt>
      <trkpt lat="43.3341" lon="3.57448">
        <ele>17.8</ele>
        <time>2025-06-17T08:33:24Z</time>
      </trkpt>
      <trkpt lat="43.33414" lon="3.57454">
        <ele>17.8</ele>
        <time>2025-06-17T08:33:25Z</time>
      </trkpt>
      <trkpt lat="43.33418" lon="3.5746">
        <ele>17.8</ele>
        <time>2025-06-17T08:33:26Z</time>
      </trkpt>
      <trkpt lat="43.33423" lon="3.57466">
        <ele>17.8</ele>
        <time>2025-06-17T08:33:27Z</time>
      </trkpt>
      <trkpt lat="43.33428" lon="3.57472">
        <ele>18</ele>
        <time>2025-06-17T08:33:28Z</time>
      </trkpt>
      <trkpt lat="43.33433" lon="3.57477">
        <ele>18</ele>
        <time>2025-06-17T08:33:29Z</time>
      </trkpt>
      <trkpt lat="43.33438" lon="3.57481">
        <ele>18</ele>
        <time>2025-06-17T08:33:30Z</time>
      </trkpt>
      <trkpt lat="43.33443" lon="3.57486">
        <ele>18</ele>
        <time>2025-06-17T08:33:31Z</time>
      </trkpt>
      <trkpt lat="43.33449" lon="3.57491">
        <ele>18</ele>
        <time>2025-06-17T08:33:32Z</time>
      </trkpt>
      <trkpt lat="43.33455" lon="3.57495">
        <ele>18</ele>
        <time>2025-06-17T08:33:33Z</time>
      </trkpt>
      <trkpt lat="43.33461" lon="3.57499">
        <ele>18</ele>
        <time>2025-06-17T08:33:34Z</time>
      </trkpt>
      <trkpt lat="43.33466" lon="3.57503">
        <ele>18</ele>
        <time>2025-06-17T08:33:35Z</time>
      </trkpt>
      <trkpt lat="43.33471" lon="3.57507">
        <ele>18</ele>
        <time>2025-06-17T08:33:36Z</time>
      </trkpt>
      <trkpt lat="43.33476" lon="3.5751">
        <ele>18</ele>
        <time>2025-06-17T08:33:37Z</time>
      </trkpt>
      <trkpt lat="43.33481" lon="3.57512">
        <ele>18.2</ele>
        <time>2025-06-17T08:33:38Z</time>
      </trkpt>
      <trkpt lat="43.33486" lon="3.57512">
        <ele>18.2</ele>
        <time>2025-06-17T08:33:39Z</time>
      </trkpt>
      <trkpt lat="43.3349" lon="3.57509">
        <ele>18.2</ele>
        <time>2025-06-17T08:33:40Z</time>
      </trkpt>
      <trkpt lat="43.33495" lon="3.57504">
        <ele>18.2</ele>
        <time>2025-06-17T08:33:41Z</time>
      </trkpt>
      <trkpt lat="43.33499" lon="3.57498">
        <ele>18.2</ele>
        <time>2025-06-17T08:33:42Z</time>
      </trkpt>
      <trkpt lat="43.33503" lon="3.57492">
        <ele>18.2</ele>
        <time>2025-06-17T08:33:43Z</time>
      </trkpt>
      <trkpt lat="43.33507" lon="3.57486">
        <ele>18</ele>
        <time>2025-06-17T08:33:44Z</time>
      </trkpt>
      <trkpt lat="43.33511" lon="3.5748">
        <ele>18</ele>
        <time>2025-06-17T08:33:45Z</time>
      </trkpt>
      <trkpt lat="43.33514" lon="3.57475">
        <ele>18</ele>
        <time>2025-06-17T08:33:46Z</time>
      </trkpt>
      <trkpt lat="43.33518" lon="3.57468">
        <ele>18</ele>
        <time>2025-06-17T08:33:47Z</time>
      </trkpt>
      <trkpt lat="43.33521" lon="3.57462">
        <ele>17.8</ele>
        <time>2025-06-17T08:33:48Z</time>
      </trkpt>
      <trkpt lat="43.33524" lon="3.57457">
        <ele>17.8</ele>
        <time>2025-06-17T08:33:49Z</time>
      </trkpt>
      <trkpt lat="43.33527" lon="3.57455">
        <ele>17.8</ele>
        <time>2025-06-17T08:33:50Z</time>
      </trkpt>
      <trkpt lat="43.33532" lon="3.57456">
        <ele>18</ele>
        <time>2025-06-17T08:33:51Z</time>
      </trkpt>
      <trkpt lat="43.33535" lon="3.57459">
        <ele>18</ele>
        <time>2025-06-17T08:33:52Z</time>
      </trkpt>
      <trkpt lat="43.33539" lon="3.57465">
        <ele>17.8</ele>
        <time>2025-06-17T08:33:53Z</time>
      </trkpt>
      <trkpt lat="43.33542" lon="3.5747">
        <ele>17.8</ele>
        <time>2025-06-17T08:33:54Z</time>
      </trkpt>
      <trkpt lat="43.33546" lon="3.57475">
        <ele>17.8</ele>
        <time>2025-06-17T08:33:55Z</time>
      </trkpt>
      <trkpt lat="43.3355" lon="3.57481">
        <ele>17.8</ele>
        <time>2025-06-17T08:33:56Z</time>
      </trkpt>
      <trkpt lat="43.33554" lon="3.57487">
        <ele>17.8</ele>
        <time>2025-06-17T08:33:57Z</time>
      </trkpt>
      <trkpt lat="43.33558" lon="3.57492">
        <ele>17.8</ele>
        <time>2025-06-17T08:33:58Z</time>
      </trkpt>
      <trkpt lat="43.33562" lon="3.57497">
        <ele>17.8</ele>
        <time>2025-06-17T08:33:59Z</time>
      </trkpt>
      <trkpt lat="43.33566" lon="3.57503">
        <ele>17.8</ele>
        <time>2025-06-17T08:34:00Z</time>
      </trkpt>
      <trkpt lat="43.3357" lon="3.57508">
        <ele>17.8</ele>
        <time>2025-06-17T08:34:01Z</time>
      </trkpt>
      <trkpt lat="43.33575" lon="3.57515">
        <ele>17.8</ele>
        <time>2025-06-17T08:34:02Z</time>
      </trkpt>
      <trkpt lat="43.3358" lon="3.57521">
        <ele>17.8</ele>
        <time>2025-06-17T08:34:03Z</time>
      </trkpt>
      <trkpt lat="43.33584" lon="3.57526">
        <ele>17.8</ele>
        <time>2025-06-17T08:34:04Z</time>
      </trkpt>
      <trkpt lat="43.3359" lon="3.57532">
        <ele>17.8</ele>
        <time>2025-06-17T08:34:05Z</time>
      </trkpt>
      <trkpt lat="43.33595" lon="3.57537">
        <ele>17.8</ele>
        <time>2025-06-17T08:34:06Z</time>
      </trkpt>
      <trkpt lat="43.33599" lon="3.57543">
        <ele>17.8</ele>
        <time>2025-06-17T08:34:07Z</time>
      </trkpt>
      <trkpt lat="43.33604" lon="3.5755">
        <ele>17.8</ele>
        <time>2025-06-17T08:34:08Z</time>
      </trkpt>
      <trkpt lat="43.33608" lon="3.57556">
        <ele>17.8</ele>
        <time>2025-06-17T08:34:09Z</time>
      </trkpt>
      <trkpt lat="43.33613" lon="3.57563">
        <ele>17.8</ele>
        <time>2025-06-17T08:34:10Z</time>
      </trkpt>
      <trkpt lat="43.33618" lon="3.57569">
        <ele>17.8</ele>
        <time>2025-06-17T08:34:11Z</time>
      </trkpt>
      <trkpt lat="43.33623" lon="3.57576">
        <ele>17.8</ele>
        <time>2025-06-17T08:34:12Z</time>
      </trkpt>
      <trkpt lat="43.33628" lon="3.57582">
        <ele>17.8</ele>
        <time>2025-06-17T08:34:13Z</time>
      </trkpt>
      <trkpt lat="43.33632" lon="3.57587">
        <ele>17.8</ele>
        <time>2025-06-17T08:34:14Z</time>
      </trkpt>
      <trkpt lat="43.33637" lon="3.57594">
        <ele>17.8</ele>
        <time>2025-06-17T08:34:15Z</time>
      </trkpt>
      <trkpt lat="43.33641" lon="3.57601">
        <ele>17.8</ele>
        <time>2025-06-17T08:34:16Z</time>
      </trkpt>
      <trkpt lat="43.33646" lon="3.57607">
        <ele>17.8</ele>
        <time>2025-06-17T08:34:17Z</time>
      </trkpt>
      <trkpt lat="43.33651" lon="3.57613">
        <ele>17.8</ele>
        <time>2025-06-17T08:34:18Z</time>
      </trkpt>
      <trkpt lat="43.33656" lon="3.57619">
        <ele>17.8</ele>
        <time>2025-06-17T08:34:19Z</time>
      </trkpt>
      <trkpt lat="43.33661" lon="3.57625">
        <ele>17.8</ele>
        <time>2025-06-17T08:34:20Z</time>
      </trkpt>
      <trkpt lat="43.33666" lon="3.57632">
        <ele>17.8</ele>
        <time>2025-06-17T08:34:21Z</time>
      </trkpt>
      <trkpt lat="43.33671" lon="3.57638">
        <ele>17.8</ele>
        <time>2025-06-17T08:34:22Z</time>
      </trkpt>
      <trkpt lat="43.33675" lon="3.57644">
        <ele>17.8</ele>
        <time>2025-06-17T08:34:23Z</time>
      </trkpt>
      <trkpt lat="43.33679" lon="3.5765">
        <ele>17.8</ele>
        <time>2025-06-17T08:34:24Z</time>
      </trkpt>
      <trkpt lat="43.33684" lon="3.57657">
        <ele>17.8</ele>
        <time>2025-06-17T08:34:25Z</time>
      </trkpt>
      <trkpt lat="43.33689" lon="3.57663">
        <ele>17.8</ele>
        <time>2025-06-17T08:34:26Z</time>
      </trkpt>
      <trkpt lat="43.33693" lon="3.57669">
        <ele>17.8</ele>
        <time>2025-06-17T08:34:27Z</time>
      </trkpt>
      <trkpt lat="43.33698" lon="3.57675">
        <ele>17.8</ele>
        <time>2025-06-17T08:34:28Z</time>
      </trkpt>
      <trkpt lat="43.33702" lon="3.57682">
        <ele>17.8</ele>
        <time>2025-06-17T08:34:29Z</time>
      </trkpt>
      <trkpt lat="43.33707" lon="3.57688">
        <ele>17.8</ele>
        <time>2025-06-17T08:34:30Z</time>
      </trkpt>
      <trkpt lat="43.33712" lon="3.57694">
        <ele>17.8</ele>
        <time>2025-06-17T08:34:31Z</time>
      </trkpt>
      <trkpt lat="43.33716" lon="3.57699">
        <ele>17.8</ele>
        <time>2025-06-17T08:34:32Z</time>
      </trkpt>
      <trkpt lat="43.33721" lon="3.57705">
        <ele>17.8</ele>
        <time>2025-06-17T08:34:33Z</time>
      </trkpt>
      <trkpt lat="43.33725" lon="3.5771">
        <ele>17.8</ele>
        <time>2025-06-17T08:34:34Z</time>
      </trkpt>
      <trkpt lat="43.33729" lon="3.57716">
        <ele>17.8</ele>
        <time>2025-06-17T08:34:35Z</time>
      </trkpt>
      <trkpt lat="43.33733" lon="3.57721">
        <ele>17.8</ele>
        <time>2025-06-17T08:34:36Z</time>
      </trkpt>
      <trkpt lat="43.33738" lon="3.57727">
        <ele>17.8</ele>
        <time>2025-06-17T08:34:37Z</time>
      </trkpt>
      <trkpt lat="43.33741" lon="3.57732">
        <ele>18</ele>
        <time>2025-06-17T08:34:38Z</time>
      </trkpt>
      <trkpt lat="43.33743" lon="3.57736">
        <ele>18</ele>
        <time>2025-06-17T08:34:39Z</time>
      </trkpt>
      <trkpt lat="43.33745" lon="3.57742">
        <ele>18</ele>
        <time>2025-06-17T08:34:40Z</time>
      </trkpt>
      <trkpt lat="43.33744" lon="3.57747">
        <ele>18</ele>
        <time>2025-06-17T08:34:41Z</time>
      </trkpt>
      <trkpt lat="43.3374" lon="3.57753">
        <ele>18</ele>
        <time>2025-06-17T08:34:42Z</time>
      </trkpt>
      <trkpt lat="43.33738" lon="3.57759">
        <ele>18</ele>
        <time>2025-06-17T08:34:43Z</time>
      </trkpt>
      <trkpt lat="43.33735" lon="3.57765">
        <ele>18</ele>
        <time>2025-06-17T08:34:44Z</time>
      </trkpt>
      <trkpt lat="43.33733" lon="3.57772">
        <ele>18</ele>
        <time>2025-06-17T08:34:45Z</time>
      </trkpt>
      <trkpt lat="43.3373" lon="3.57778">
        <ele>18</ele>
        <time>2025-06-17T08:34:46Z</time>
      </trkpt>
      <trkpt lat="43.33727" lon="3.57783">
        <ele>18.2</ele>
        <time>2025-06-17T08:34:47Z</time>
      </trkpt>
      <trkpt lat="43.33723" lon="3.57788">
        <ele>18.2</ele>
        <time>2025-06-17T08:34:48Z</time>
      </trkpt>
      <trkpt lat="43.3372" lon="3.57793">
        <ele>18.4</ele>
        <time>2025-06-17T08:34:49Z</time>
      </trkpt>
      <trkpt lat="43.33716" lon="3.57797">
        <ele>18.6</ele>
        <time>2025-06-17T08:34:50Z</time>
      </trkpt>
      <trkpt lat="43.33714" lon="3.57802">
        <ele>18.8</ele>
        <time>2025-06-17T08:34:51Z</time>
      </trkpt>
      <trkpt lat="43.33712" lon="3.57808">
        <ele>19</ele>
        <time>2025-06-17T08:34:52Z</time>
      </trkpt>
      <trkpt lat="43.33712" lon="3.57814">
        <ele>19</ele>
        <time>2025-06-17T08:34:53Z</time>
      </trkpt>
      <trkpt lat="43.33713" lon="3.5782">
        <ele>19</ele>
        <time>2025-06-17T08:34:54Z</time>
      </trkpt>
      <trkpt lat="43.33716" lon="3.57825">
        <ele>19.2</ele>
        <time>2025-06-17T08:34:55Z</time>
      </trkpt>
      <trkpt lat="43.3372" lon="3.5783">
        <ele>19.2</ele>
        <time>2025-06-17T08:34:56Z</time>
      </trkpt>
      <trkpt lat="43.33724" lon="3.57835">
        <ele>19.2</ele>
        <time>2025-06-17T08:34:57Z</time>
      </trkpt>
      <trkpt lat="43.33728" lon="3.57841">
        <ele>19.2</ele>
        <time>2025-06-17T08:34:58Z</time>
      </trkpt>
      <trkpt lat="43.33732" lon="3.57845">
        <ele>19.2</ele>
        <time>2025-06-17T08:34:59Z</time>
      </trkpt>
      <trkpt lat="43.33736" lon="3.5785">
        <ele>19.2</ele>
        <time>2025-06-17T08:35:00Z</time>
      </trkpt>
      <trkpt lat="43.3374" lon="3.57856">
        <ele>19.2</ele>
        <time>2025-06-17T08:35:01Z</time>
      </trkpt>
      <trkpt lat="43.33744" lon="3.57861">
        <ele>19.2</ele>
        <time>2025-06-17T08:35:02Z</time>
      </trkpt>
      <trkpt lat="43.33749" lon="3.57866">
        <ele>19</ele>
        <time>2025-06-17T08:35:03Z</time>
      </trkpt>
      <trkpt lat="43.33753" lon="3.57872">
        <ele>19</ele>
        <time>2025-06-17T08:35:04Z</time>
      </trkpt>
      <trkpt lat="43.33758" lon="3.57877">
        <ele>19</ele>
        <time>2025-06-17T08:35:05Z</time>
      </trkpt>
      <trkpt lat="43.33762" lon="3.57883">
        <ele>18.8</ele>
        <time>2025-06-17T08:35:06Z</time>
      </trkpt>
      <trkpt lat="43.33766" lon="3.57889">
        <ele>18.8</ele>
        <time>2025-06-17T08:35:07Z</time>
      </trkpt>
      <trkpt lat="43.33771" lon="3.57894">
        <ele>18.8</ele>
        <time>2025-06-17T08:35:08Z</time>
      </trkpt>
      <trkpt lat="43.33775" lon="3.579">
        <ele>18.8</ele>
        <time>2025-06-17T08:35:09Z</time>
      </trkpt>
      <trkpt lat="43.33779" lon="3.57905">
        <ele>18.8</ele>
        <time>2025-06-17T08:35:10Z</time>
      </trkpt>
      <trkpt lat="43.33785" lon="3.5791">
        <ele>18.8</ele>
        <time>2025-06-17T08:35:11Z</time>
      </trkpt>
      <trkpt lat="43.33789" lon="3.57916">
        <ele>18.6</ele>
        <time>2025-06-17T08:35:12Z</time>
      </trkpt>
      <trkpt lat="43.33793" lon="3.57921">
        <ele>18.6</ele>
        <time>2025-06-17T08:35:13Z</time>
      </trkpt>
      <trkpt lat="43.33798" lon="3.57927">
        <ele>18.6</ele>
        <time>2025-06-17T08:35:14Z</time>
      </trkpt>
      <trkpt lat="43.33802" lon="3.57932">
        <ele>18.6</ele>
        <time>2025-06-17T08:35:15Z</time>
      </trkpt>
      <trkpt lat="43.33808" lon="3.57938">
        <ele>18.6</ele>
        <time>2025-06-17T08:35:16Z</time>
      </trkpt>
      <trkpt lat="43.33812" lon="3.57944">
        <ele>18.6</ele>
        <time>2025-06-17T08:35:17Z</time>
      </trkpt>
      <trkpt lat="43.33817" lon="3.5795">
        <ele>18.6</ele>
        <time>2025-06-17T08:35:18Z</time>
      </trkpt>
      <trkpt lat="43.33822" lon="3.57956">
        <ele>18.4</ele>
        <time>2025-06-17T08:35:19Z</time>
      </trkpt>
      <trkpt lat="43.33826" lon="3.57961">
        <ele>18.4</ele>
        <time>2025-06-17T08:35:20Z</time>
      </trkpt>
      <trkpt lat="43.33832" lon="3.57968">
        <ele>18.4</ele>
        <time>2025-06-17T08:35:21Z</time>
      </trkpt>
      <trkpt lat="43.33836" lon="3.57974">
        <ele>18.4</ele>
        <time>2025-06-17T08:35:22Z</time>
      </trkpt>
      <trkpt lat="43.33842" lon="3.57979">
        <ele>18.4</ele>
        <time>2025-06-17T08:35:23Z</time>
      </trkpt>
      <trkpt lat="43.33847" lon="3.57985">
        <ele>18.4</ele>
        <time>2025-06-17T08:35:24Z</time>
      </trkpt>
      <trkpt lat="43.33852" lon="3.5799">
        <ele>18.4</ele>
        <time>2025-06-17T08:35:25Z</time>
      </trkpt>
      <trkpt lat="43.33857" lon="3.57996">
        <ele>18.4</ele>
        <time>2025-06-17T08:35:26Z</time>
      </trkpt>
      <trkpt lat="43.33862" lon="3.58002">
        <ele>18.4</ele>
        <time>2025-06-17T08:35:27Z</time>
      </trkpt>
      <trkpt lat="43.33867" lon="3.58007">
        <ele>18.4</ele>
        <time>2025-06-17T08:35:28Z</time>
      </trkpt>
      <trkpt lat="43.33871" lon="3.58014">
        <ele>18.4</ele>
        <time>2025-06-17T08:35:29Z</time>
      </trkpt>
      <trkpt lat="43.33876" lon="3.5802">
        <ele>18.4</ele>
        <time>2025-06-17T08:35:30Z</time>
      </trkpt>
      <trkpt lat="43.3388" lon="3.58026">
        <ele>18.2</ele>
        <time>2025-06-17T08:35:31Z</time>
      </trkpt>
      <trkpt lat="43.33885" lon="3.58032">
        <ele>18.2</ele>
        <time>2025-06-17T08:35:32Z</time>
      </trkpt>
      <trkpt lat="43.33889" lon="3.58038">
        <ele>18.2</ele>
        <time>2025-06-17T08:35:33Z</time>
      </trkpt>
      <trkpt lat="43.33894" lon="3.58044">
        <ele>18.2</ele>
        <time>2025-06-17T08:35:34Z</time>
      </trkpt>
      <trkpt lat="43.33899" lon="3.58049">
        <ele>18.2</ele>
        <time>2025-06-17T08:35:35Z</time>
      </trkpt>
      <trkpt lat="43.33903" lon="3.58055">
        <ele>18.2</ele>
        <time>2025-06-17T08:35:36Z</time>
      </trkpt>
      <trkpt lat="43.33908" lon="3.58061">
        <ele>18.2</ele>
        <time>2025-06-17T08:35:37Z</time>
      </trkpt>
      <trkpt lat="43.33913" lon="3.58066">
        <ele>18.2</ele>
        <time>2025-06-17T08:35:38Z</time>
      </trkpt>
      <trkpt lat="43.33918" lon="3.58072">
        <ele>18.2</ele>
        <time>2025-06-17T08:35:39Z</time>
      </trkpt>
      <trkpt lat="43.33922" lon="3.58078">
        <ele>18.2</ele>
        <time>2025-06-17T08:35:40Z</time>
      </trkpt>
      <trkpt lat="43.33927" lon="3.58083">
        <ele>18.2</ele>
        <time>2025-06-17T08:35:41Z</time>
      </trkpt>
      <trkpt lat="43.33932" lon="3.58089">
        <ele>18.2</ele>
        <time>2025-06-17T08:35:42Z</time>
      </trkpt>
      <trkpt lat="43.33936" lon="3.58094">
        <ele>18.2</ele>
        <time>2025-06-17T08:35:43Z</time>
      </trkpt>
      <trkpt lat="43.33941" lon="3.581">
        <ele>18.2</ele>
        <time>2025-06-17T08:35:44Z</time>
      </trkpt>
      <trkpt lat="43.33945" lon="3.58105">
        <ele>18.2</ele>
        <time>2025-06-17T08:35:45Z</time>
      </trkpt>
      <trkpt lat="43.3395" lon="3.58111">
        <ele>18</ele>
        <time>2025-06-17T08:35:46Z</time>
      </trkpt>
      <trkpt lat="43.33955" lon="3.58116">
        <ele>18</ele>
        <time>2025-06-17T08:35:47Z</time>
      </trkpt>
      <trkpt lat="43.33959" lon="3.58122">
        <ele>18</ele>
        <time>2025-06-17T08:35:48Z</time>
      </trkpt>
      <trkpt lat="43.33964" lon="3.58127">
        <ele>18</ele>
        <time>2025-06-17T08:35:49Z</time>
      </trkpt>
      <trkpt lat="43.33968" lon="3.58133">
        <ele>18</ele>
        <time>2025-06-17T08:35:50Z</time>
      </trkpt>
      <trkpt lat="43.33973" lon="3.58139">
        <ele>18</ele>
        <time>2025-06-17T08:35:51Z</time>
      </trkpt>
      <trkpt lat="43.33977" lon="3.58145">
        <ele>18</ele>
        <time>2025-06-17T08:35:52Z</time>
      </trkpt>
      <trkpt lat="43.33982" lon="3.5815">
        <ele>18</ele>
        <time>2025-06-17T08:35:53Z</time>
      </trkpt>
      <trkpt lat="43.33986" lon="3.58156">
        <ele>18</ele>
        <time>2025-06-17T08:35:54Z</time>
      </trkpt>
      <trkpt lat="43.33991" lon="3.58162">
        <ele>18</ele>
        <time>2025-06-17T08:35:55Z</time>
      </trkpt>
      <trkpt lat="43.33996" lon="3.58168">
        <ele>18.2</ele>
        <time>2025-06-17T08:35:56Z</time>
      </trkpt>
      <trkpt lat="43.34" lon="3.58173">
        <ele>18.2</ele>
        <time>2025-06-17T08:35:57Z</time>
      </trkpt>
      <trkpt lat="43.34005" lon="3.58179">
        <ele>18.4</ele>
        <time>2025-06-17T08:35:58Z</time>
      </trkpt>
      <trkpt lat="43.34009" lon="3.58185">
        <ele>18.4</ele>
        <time>2025-06-17T08:35:59Z</time>
      </trkpt>
      <trkpt lat="43.34014" lon="3.58191">
        <ele>18.4</ele>
        <time>2025-06-17T08:36:00Z</time>
      </trkpt>
      <trkpt lat="43.34018" lon="3.58196">
        <ele>18.4</ele>
        <time>2025-06-17T08:36:01Z</time>
      </trkpt>
      <trkpt lat="43.34024" lon="3.58203">
        <ele>18.4</ele>
        <time>2025-06-17T08:36:02Z</time>
      </trkpt>
      <trkpt lat="43.34029" lon="3.58208">
        <ele>18.4</ele>
        <time>2025-06-17T08:36:03Z</time>
      </trkpt>
      <trkpt lat="43.34034" lon="3.58214">
        <ele>18.4</ele>
        <time>2025-06-17T08:36:04Z</time>
      </trkpt>
      <trkpt lat="43.34039" lon="3.58219">
        <ele>18.4</ele>
        <time>2025-06-17T08:36:05Z</time>
      </trkpt>
      <trkpt lat="43.34044" lon="3.58226">
        <ele>18.4</ele>
        <time>2025-06-17T08:36:06Z</time>
      </trkpt>
      <trkpt lat="43.34049" lon="3.58231">
        <ele>18.4</ele>
        <time>2025-06-17T08:36:07Z</time>
      </trkpt>
      <trkpt lat="43.34054" lon="3.58237">
        <ele>18.2</ele>
        <time>2025-06-17T08:36:08Z</time>
      </trkpt>
      <trkpt lat="43.34059" lon="3.58242">
        <ele>18.2</ele>
        <time>2025-06-17T08:36:09Z</time>
      </trkpt>
      <trkpt lat="43.34064" lon="3.58248">
        <ele>18.2</ele>
        <time>2025-06-17T08:36:10Z</time>
      </trkpt>
      <trkpt lat="43.34069" lon="3.58254">
        <ele>18.2</ele>
        <time>2025-06-17T08:36:11Z</time>
      </trkpt>
      <trkpt lat="43.34073" lon="3.5826">
        <ele>18.2</ele>
        <time>2025-06-17T08:36:12Z</time>
      </trkpt>
      <trkpt lat="43.34078" lon="3.58266">
        <ele>18.2</ele>
        <time>2025-06-17T08:36:13Z</time>
      </trkpt>
      <trkpt lat="43.34082" lon="3.58271">
        <ele>18.2</ele>
        <time>2025-06-17T08:36:14Z</time>
      </trkpt>
      <trkpt lat="43.34087" lon="3.58277">
        <ele>18.2</ele>
        <time>2025-06-17T08:36:15Z</time>
      </trkpt>
      <trkpt lat="43.34092" lon="3.58283">
        <ele>18.2</ele>
        <time>2025-06-17T08:36:16Z</time>
      </trkpt>
      <trkpt lat="43.34097" lon="3.58288">
        <ele>18.2</ele>
        <time>2025-06-17T08:36:17Z</time>
      </trkpt>
      <trkpt lat="43.34102" lon="3.58294">
        <ele>18.2</ele>
        <time>2025-06-17T08:36:18Z</time>
      </trkpt>
      <trkpt lat="43.34106" lon="3.583">
        <ele>18.2</ele>
        <time>2025-06-17T08:36:19Z</time>
      </trkpt>
      <trkpt lat="43.34111" lon="3.58306">
        <ele>18.2</ele>
        <time>2025-06-17T08:36:20Z</time>
      </trkpt>
      <trkpt lat="43.34115" lon="3.58312">
        <ele>18.2</ele>
        <time>2025-06-17T08:36:21Z</time>
      </trkpt>
      <trkpt lat="43.34121" lon="3.58318">
        <ele>18.2</ele>
        <time>2025-06-17T08:36:22Z</time>
      </trkpt>
      <trkpt lat="43.34125" lon="3.58324">
        <ele>18.2</ele>
        <time>2025-06-17T08:36:23Z</time>
      </trkpt>
      <trkpt lat="43.3413" lon="3.5833">
        <ele>18.2</ele>
        <time>2025-06-17T08:36:24Z</time>
      </trkpt>
      <trkpt lat="43.34135" lon="3.58335">
        <ele>18.2</ele>
        <time>2025-06-17T08:36:25Z</time>
      </trkpt>
      <trkpt lat="43.3414" lon="3.58341">
        <ele>18.2</ele>
        <time>2025-06-17T08:36:26Z</time>
      </trkpt>
      <trkpt lat="43.34144" lon="3.58347">
        <ele>18.2</ele>
        <time>2025-06-17T08:36:27Z</time>
      </trkpt>
      <trkpt lat="43.34149" lon="3.58353">
        <ele>18.2</ele>
        <time>2025-06-17T08:36:28Z</time>
      </trkpt>
      <trkpt lat="43.34154" lon="3.58358">
        <ele>18.2</ele>
        <time>2025-06-17T08:36:29Z</time>
      </trkpt>
      <trkpt lat="43.34158" lon="3.58364">
        <ele>18.2</ele>
        <time>2025-06-17T08:36:30Z</time>
      </trkpt>
      <trkpt lat="43.34163" lon="3.5837">
        <ele>18.2</ele>
        <time>2025-06-17T08:36:31Z</time>
      </trkpt>
      <trkpt lat="43.34168" lon="3.58375">
        <ele>18.2</ele>
        <time>2025-06-17T08:36:32Z</time>
      </trkpt>
      <trkpt lat="43.34173" lon="3.58381">
        <ele>18.2</ele>
        <time>2025-06-17T08:36:33Z</time>
      </trkpt>
      <trkpt lat="43.34177" lon="3.58387">
        <ele>18.4</ele>
        <time>2025-06-17T08:36:34Z</time>
      </trkpt>
      <trkpt lat="43.34181" lon="3.58392">
        <ele>18.4</ele>
        <time>2025-06-17T08:36:35Z</time>
      </trkpt>
      <trkpt lat="43.34187" lon="3.58398">
        <ele>18.4</ele>
        <time>2025-06-17T08:36:36Z</time>
      </trkpt>
      <trkpt lat="43.3419" lon="3.58403">
        <ele>18.6</ele>
        <time>2025-06-17T08:36:37Z</time>
      </trkpt>
      <trkpt lat="43.34195" lon="3.58409">
        <ele>18.6</ele>
        <time>2025-06-17T08:36:38Z</time>
      </trkpt>
      <trkpt lat="43.342" lon="3.58414">
        <ele>18.6</ele>
        <time>2025-06-17T08:36:39Z</time>
      </trkpt>
      <trkpt lat="43.34205" lon="3.5842">
        <ele>18.6</ele>
        <time>2025-06-17T08:36:40Z</time>
      </trkpt>
      <trkpt lat="43.34209" lon="3.58426">
        <ele>18.6</ele>
        <time>2025-06-17T08:36:41Z</time>
      </trkpt>
      <trkpt lat="43.34214" lon="3.58432">
        <ele>18.6</ele>
        <time>2025-06-17T08:36:42Z</time>
      </trkpt>
      <trkpt lat="43.34219" lon="3.58438">
        <ele>18.6</ele>
        <time>2025-06-17T08:36:43Z</time>
      </trkpt>
      <trkpt lat="43.34224" lon="3.58443">
        <ele>18.6</ele>
        <time>2025-06-17T08:36:44Z</time>
      </trkpt>
      <trkpt lat="43.34228" lon="3.58449">
        <ele>18.6</ele>
        <time>2025-06-17T08:36:45Z</time>
      </trkpt>
      <trkpt lat="43.34233" lon="3.58455">
        <ele>18.6</ele>
        <time>2025-06-17T08:36:46Z</time>
      </trkpt>
      <trkpt lat="43.34237" lon="3.5846">
        <ele>18.6</ele>
        <time>2025-06-17T08:36:47Z</time>
      </trkpt>
      <trkpt lat="43.34242" lon="3.58466">
        <ele>18.6</ele>
        <time>2025-06-17T08:36:48Z</time>
      </trkpt>
      <trkpt lat="43.34247" lon="3.58472">
        <ele>18.6</ele>
        <time>2025-06-17T08:36:49Z</time>
      </trkpt>
      <trkpt lat="43.34251" lon="3.58476">
        <ele>18.6</ele>
        <time>2025-06-17T08:36:50Z</time>
      </trkpt>
      <trkpt lat="43.34256" lon="3.58483">
        <ele>18.6</ele>
        <time>2025-06-17T08:36:51Z</time>
      </trkpt>
      <trkpt lat="43.34261" lon="3.58489">
        <ele>18.6</ele>
        <time>2025-06-17T08:36:52Z</time>
      </trkpt>
      <trkpt lat="43.34265" lon="3.58495">
        <ele>18.6</ele>
        <time>2025-06-17T08:36:53Z</time>
      </trkpt>
      <trkpt lat="43.3427" lon="3.58501">
        <ele>18.6</ele>
        <time>2025-06-17T08:36:54Z</time>
      </trkpt>
      <trkpt lat="43.34274" lon="3.58506">
        <ele>18.6</ele>
        <time>2025-06-17T08:36:55Z</time>
      </trkpt>
      <trkpt lat="43.34278" lon="3.58511">
        <ele>18.6</ele>
        <time>2025-06-17T08:36:56Z</time>
      </trkpt>
      <trkpt lat="43.34283" lon="3.58517">
        <ele>18.6</ele>
        <time>2025-06-17T08:36:57Z</time>
      </trkpt>
      <trkpt lat="43.34287" lon="3.58522">
        <ele>18.6</ele>
        <time>2025-06-17T08:36:58Z</time>
      </trkpt>
      <trkpt lat="43.34292" lon="3.58528">
        <ele>18.6</ele>
        <time>2025-06-17T08:36:59Z</time>
      </trkpt>
      <trkpt lat="43.34296" lon="3.58533">
        <ele>18.6</ele>
        <time>2025-06-17T08:37:00Z</time>
      </trkpt>
      <trkpt lat="43.343" lon="3.58537">
        <ele>18.6</ele>
        <time>2025-06-17T08:37:01Z</time>
      </trkpt>
      <trkpt lat="43.34306" lon="3.58544">
        <ele>18.6</ele>
        <time>2025-06-17T08:37:02Z</time>
      </trkpt>
      <trkpt lat="43.34311" lon="3.5855">
        <ele>18.6</ele>
        <time>2025-06-17T08:37:03Z</time>
      </trkpt>
      <trkpt lat="43.34315" lon="3.58556">
        <ele>18.6</ele>
        <time>2025-06-17T08:37:04Z</time>
      </trkpt>
      <trkpt lat="43.3432" lon="3.58561">
        <ele>18.6</ele>
        <time>2025-06-17T08:37:05Z</time>
      </trkpt>
      <trkpt lat="43.34324" lon="3.58567">
        <ele>18.6</ele>
        <time>2025-06-17T08:37:06Z</time>
      </trkpt>
      <trkpt lat="43.34329" lon="3.58573">
        <ele>18.6</ele>
        <time>2025-06-17T08:37:07Z</time>
      </trkpt>
      <trkpt lat="43.34333" lon="3.58578">
        <ele>18.6</ele>
        <time>2025-06-17T08:37:08Z</time>
      </trkpt>
      <trkpt lat="43.34338" lon="3.58584">
        <ele>18.6</ele>
        <time>2025-06-17T08:37:09Z</time>
      </trkpt>
      <trkpt lat="43.34343" lon="3.5859">
        <ele>18.6</ele>
        <time>2025-06-17T08:37:10Z</time>
      </trkpt>
      <trkpt lat="43.34348" lon="3.58596">
        <ele>18.6</ele>
        <time>2025-06-17T08:37:11Z</time>
      </trkpt>
      <trkpt lat="43.34353" lon="3.58602">
        <ele>18.6</ele>
        <time>2025-06-17T08:37:12Z</time>
      </trkpt>
      <trkpt lat="43.34357" lon="3.58608">
        <ele>18.6</ele>
        <time>2025-06-17T08:37:13Z</time>
      </trkpt>
      <trkpt lat="43.34362" lon="3.58613">
        <ele>18.6</ele>
        <time>2025-06-17T08:37:14Z</time>
      </trkpt>
      <trkpt lat="43.34366" lon="3.58619">
        <ele>18.6</ele>
        <time>2025-06-17T08:37:15Z</time>
      </trkpt>
      <trkpt lat="43.34371" lon="3.58625">
        <ele>18.6</ele>
        <time>2025-06-17T08:37:16Z</time>
      </trkpt>
      <trkpt lat="43.34376" lon="3.58631">
        <ele>18.6</ele>
        <time>2025-06-17T08:37:17Z</time>
      </trkpt>
      <trkpt lat="43.3438" lon="3.58637">
        <ele>18.6</ele>
        <time>2025-06-17T08:37:18Z</time>
      </trkpt>
      <trkpt lat="43.34384" lon="3.58642">
        <ele>18.6</ele>
        <time>2025-06-17T08:37:19Z</time>
      </trkpt>
      <trkpt lat="43.34389" lon="3.58648">
        <ele>18.6</ele>
        <time>2025-06-17T08:37:20Z</time>
      </trkpt>
      <trkpt lat="43.34394" lon="3.58654">
        <ele>18.6</ele>
        <time>2025-06-17T08:37:21Z</time>
      </trkpt>
      <trkpt lat="43.34398" lon="3.58659">
        <ele>18.6</ele>
        <time>2025-06-17T08:37:22Z</time>
      </trkpt>
      <trkpt lat="43.34403" lon="3.58665">
        <ele>18.6</ele>
        <time>2025-06-17T08:37:23Z</time>
      </trkpt>
      <trkpt lat="43.34408" lon="3.58671">
        <ele>18.6</ele>
        <time>2025-06-17T08:37:24Z</time>
      </trkpt>
      <trkpt lat="43.34412" lon="3.58676">
        <ele>18.6</ele>
        <time>2025-06-17T08:37:25Z</time>
      </trkpt>
      <trkpt lat="43.34417" lon="3.58682">
        <ele>18.6</ele>
        <time>2025-06-17T08:37:26Z</time>
      </trkpt>
      <trkpt lat="43.34422" lon="3.58688">
        <ele>18.6</ele>
        <time>2025-06-17T08:37:27Z</time>
      </trkpt>
      <trkpt lat="43.34426" lon="3.58693">
        <ele>18.6</ele>
        <time>2025-06-17T08:37:28Z</time>
      </trkpt>
      <trkpt lat="43.34431" lon="3.58699">
        <ele>18.6</ele>
        <time>2025-06-17T08:37:29Z</time>
      </trkpt>
      <trkpt lat="43.34435" lon="3.58705">
        <ele>18.6</ele>
        <time>2025-06-17T08:37:30Z</time>
      </trkpt>
      <trkpt lat="43.3444" lon="3.5871">
        <ele>18.6</ele>
        <time>2025-06-17T08:37:31Z</time>
      </trkpt>
      <trkpt lat="43.34444" lon="3.58716">
        <ele>18.6</ele>
        <time>2025-06-17T08:37:32Z</time>
      </trkpt>
      <trkpt lat="43.34449" lon="3.58722">
        <ele>18.6</ele>
        <time>2025-06-17T08:37:33Z</time>
      </trkpt>
      <trkpt lat="43.34454" lon="3.58728">
        <ele>18.6</ele>
        <time>2025-06-17T08:37:34Z</time>
      </trkpt>
      <trkpt lat="43.34458" lon="3.58734">
        <ele>18.6</ele>
        <time>2025-06-17T08:37:35Z</time>
      </trkpt>
      <trkpt lat="43.34463" lon="3.58739">
        <ele>18.6</ele>
        <time>2025-06-17T08:37:36Z</time>
      </trkpt>
      <trkpt lat="43.34468" lon="3.58745">
        <ele>18.6</ele>
        <time>2025-06-17T08:37:37Z</time>
      </trkpt>
      <trkpt lat="43.34472" lon="3.5875">
        <ele>18.6</ele>
        <time>2025-06-17T08:37:38Z</time>
      </trkpt>
      <trkpt lat="43.34477" lon="3.58756">
        <ele>18.6</ele>
        <time>2025-06-17T08:37:39Z</time>
      </trkpt>
      <trkpt lat="43.34481" lon="3.58761">
        <ele>18.6</ele>
        <time>2025-06-17T08:37:40Z</time>
      </trkpt>
      <trkpt lat="43.34486" lon="3.58767">
        <ele>18.6</ele>
        <time>2025-06-17T08:37:41Z</time>
      </trkpt>
      <trkpt lat="43.34491" lon="3.58773">
        <ele>18.6</ele>
        <time>2025-06-17T08:37:42Z</time>
      </trkpt>
      <trkpt lat="43.34496" lon="3.58779">
        <ele>18.6</ele>
        <time>2025-06-17T08:37:43Z</time>
      </trkpt>
      <trkpt lat="43.345" lon="3.58785">
        <ele>18.6</ele>
        <time>2025-06-17T08:37:44Z</time>
      </trkpt>
      <trkpt lat="43.34505" lon="3.5879">
        <ele>18.6</ele>
        <time>2025-06-17T08:37:45Z</time>
      </trkpt>
      <trkpt lat="43.3451" lon="3.58796">
        <ele>18.4</ele>
        <time>2025-06-17T08:37:46Z</time>
      </trkpt>
      <trkpt lat="43.34514" lon="3.58802">
        <ele>18.4</ele>
        <time>2025-06-17T08:37:47Z</time>
      </trkpt>
      <trkpt lat="43.34519" lon="3.58808">
        <ele>18.4</ele>
        <time>2025-06-17T08:37:48Z</time>
      </trkpt>
      <trkpt lat="43.34523" lon="3.58814">
        <ele>18.4</ele>
        <time>2025-06-17T08:37:49Z</time>
      </trkpt>
      <trkpt lat="43.34528" lon="3.58819">
        <ele>18.4</ele>
        <time>2025-06-17T08:37:50Z</time>
      </trkpt>
      <trkpt lat="43.34533" lon="3.58826">
        <ele>18.4</ele>
        <time>2025-06-17T08:37:51Z</time>
      </trkpt>
      <trkpt lat="43.34537" lon="3.58831">
        <ele>18.4</ele>
        <time>2025-06-17T08:37:52Z</time>
      </trkpt>
      <trkpt lat="43.34542" lon="3.58837">
        <ele>18.4</ele>
        <time>2025-06-17T08:37:53Z</time>
      </trkpt>
      <trkpt lat="43.34546" lon="3.58843">
        <ele>18.4</ele>
        <time>2025-06-17T08:37:54Z</time>
      </trkpt>
      <trkpt lat="43.3455" lon="3.58849">
        <ele>18.4</ele>
        <time>2025-06-17T08:37:55Z</time>
      </trkpt>
      <trkpt lat="43.34555" lon="3.58854">
        <ele>18.4</ele>
        <time>2025-06-17T08:37:56Z</time>
      </trkpt>
      <trkpt lat="43.34559" lon="3.5886">
        <ele>18.4</ele>
        <time>2025-06-17T08:37:57Z</time>
      </trkpt>
      <trkpt lat="43.34564" lon="3.58865">
        <ele>18.4</ele>
        <time>2025-06-17T08:37:58Z</time>
      </trkpt>
      <trkpt lat="43.34568" lon="3.58871">
        <ele>18.4</ele>
        <time>2025-06-17T08:37:59Z</time>
      </trkpt>
      <trkpt lat="43.34573" lon="3.58876">
        <ele>18.4</ele>
        <time>2025-06-17T08:38:00Z</time>
      </trkpt>
      <trkpt lat="43.34577" lon="3.58882">
        <ele>18.4</ele>
        <time>2025-06-17T08:38:01Z</time>
      </trkpt>
      <trkpt lat="43.34582" lon="3.58888">
        <ele>18.4</ele>
        <time>2025-06-17T08:38:02Z</time>
      </trkpt>
      <trkpt lat="43.34586" lon="3.58894">
        <ele>18.4</ele>
        <time>2025-06-17T08:38:03Z</time>
      </trkpt>
      <trkpt lat="43.34591" lon="3.589">
        <ele>18.4</ele>
        <time>2025-06-17T08:38:04Z</time>
      </trkpt>
      <trkpt lat="43.34595" lon="3.58906">
        <ele>18.4</ele>
        <time>2025-06-17T08:38:05Z</time>
      </trkpt>
      <trkpt lat="43.346" lon="3.58912">
        <ele>18.4</ele>
        <time>2025-06-17T08:38:06Z</time>
      </trkpt>
      <trkpt lat="43.34605" lon="3.58918">
        <ele>18.4</ele>
        <time>2025-06-17T08:38:07Z</time>
      </trkpt>
      <trkpt lat="43.34609" lon="3.58923">
        <ele>18.4</ele>
        <time>2025-06-17T08:38:08Z</time>
      </trkpt>
      <trkpt lat="43.34614" lon="3.58929">
        <ele>18.4</ele>
        <time>2025-06-17T08:38:09Z</time>
      </trkpt>
      <trkpt lat="43.34619" lon="3.58935">
        <ele>18.4</ele>
        <time>2025-06-17T08:38:10Z</time>
      </trkpt>
      <trkpt lat="43.34623" lon="3.5894">
        <ele>18.6</ele>
        <time>2025-06-17T08:38:11Z</time>
      </trkpt>
      <trkpt lat="43.34628" lon="3.58946">
        <ele>18.6</ele>
        <time>2025-06-17T08:38:12Z</time>
      </trkpt>
      <trkpt lat="43.34633" lon="3.58952">
        <ele>18.4</ele>
        <time>2025-06-17T08:38:13Z</time>
      </trkpt>
      <trkpt lat="43.34637" lon="3.58958">
        <ele>18.4</ele>
        <time>2025-06-17T08:38:14Z</time>
      </trkpt>
      <trkpt lat="43.34642" lon="3.58965">
        <ele>18.6</ele>
        <time>2025-06-17T08:38:15Z</time>
      </trkpt>
      <trkpt lat="43.34647" lon="3.5897">
        <ele>18.6</ele>
        <time>2025-06-17T08:38:16Z</time>
      </trkpt>
      <trkpt lat="43.34652" lon="3.58976">
        <ele>18.6</ele>
        <time>2025-06-17T08:38:17Z</time>
      </trkpt>
      <trkpt lat="43.34657" lon="3.58981">
        <ele>18.6</ele>
        <time>2025-06-17T08:38:18Z</time>
      </trkpt>
      <trkpt lat="43.34662" lon="3.58987">
        <ele>18.4</ele>
        <time>2025-06-17T08:38:19Z</time>
      </trkpt>
      <trkpt lat="43.34666" lon="3.58993">
        <ele>18.4</ele>
        <time>2025-06-17T08:38:20Z</time>
      </trkpt>
      <trkpt lat="43.34671" lon="3.59">
        <ele>18.4</ele>
        <time>2025-06-17T08:38:21Z</time>
      </trkpt>
      <trkpt lat="43.34676" lon="3.59006">
        <ele>18.4</ele>
        <time>2025-06-17T08:38:22Z</time>
      </trkpt>
      <trkpt lat="43.3468" lon="3.59012">
        <ele>18.2</ele>
        <time>2025-06-17T08:38:23Z</time>
      </trkpt>
      <trkpt lat="43.34685" lon="3.59019">
        <ele>18.2</ele>
        <time>2025-06-17T08:38:24Z</time>
      </trkpt>
      <trkpt lat="43.3469" lon="3.59025">
        <ele>18.2</ele>
        <time>2025-06-17T08:38:25Z</time>
      </trkpt>
      <trkpt lat="43.34695" lon="3.59031">
        <ele>18.2</ele>
        <time>2025-06-17T08:38:26Z</time>
      </trkpt>
      <trkpt lat="43.347" lon="3.59037">
        <ele>18.2</ele>
        <time>2025-06-17T08:38:27Z</time>
      </trkpt>
      <trkpt lat="43.34705" lon="3.59042">
        <ele>18.2</ele>
        <time>2025-06-17T08:38:28Z</time>
      </trkpt>
      <trkpt lat="43.34709" lon="3.59048">
        <ele>18.2</ele>
        <time>2025-06-17T08:38:29Z</time>
      </trkpt>
      <trkpt lat="43.34715" lon="3.59054">
        <ele>18.2</ele>
        <time>2025-06-17T08:38:30Z</time>
      </trkpt>
      <trkpt lat="43.34721" lon="3.59059">
        <ele>18.2</ele>
        <time>2025-06-17T08:38:31Z</time>
      </trkpt>
      <trkpt lat="43.34726" lon="3.59064">
        <ele>18.2</ele>
        <time>2025-06-17T08:38:32Z</time>
      </trkpt>
      <trkpt lat="43.34732" lon="3.59067">
        <ele>18.2</ele>
        <time>2025-06-17T08:38:33Z</time>
      </trkpt>
      <trkpt lat="43.34738" lon="3.59069">
        <ele>18.2</ele>
        <time>2025-06-17T08:38:34Z</time>
      </trkpt>
      <trkpt lat="43.34744" lon="3.59068">
        <ele>18.2</ele>
        <time>2025-06-17T08:38:35Z</time>
      </trkpt>
      <trkpt lat="43.34749" lon="3.59066">
        <ele>18</ele>
        <time>2025-06-17T08:38:36Z</time>
      </trkpt>
      <trkpt lat="43.34755" lon="3.59062">
        <ele>18</ele>
        <time>2025-06-17T08:38:37Z</time>
      </trkpt>
      <trkpt lat="43.34759" lon="3.59056">
        <ele>17.8</ele>
        <time>2025-06-17T08:38:38Z</time>
      </trkpt>
      <trkpt lat="43.34763" lon="3.5905">
        <ele>17.8</ele>
        <time>2025-06-17T08:38:39Z</time>
      </trkpt>
      <trkpt lat="43.34767" lon="3.59044">
        <ele>17.6</ele>
        <time>2025-06-17T08:38:40Z</time>
      </trkpt>
      <trkpt lat="43.34772" lon="3.59039">
        <ele>17.6</ele>
        <time>2025-06-17T08:38:41Z</time>
      </trkpt>
      <trkpt lat="43.34777" lon="3.59035">
        <ele>17.4</ele>
        <time>2025-06-17T08:38:42Z</time>
      </trkpt>
      <trkpt lat="43.34783" lon="3.59033">
        <ele>17.4</ele>
        <time>2025-06-17T08:38:43Z</time>
      </trkpt>
      <trkpt lat="43.34788" lon="3.59034">
        <ele>17.4</ele>
        <time>2025-06-17T08:38:44Z</time>
      </trkpt>
      <trkpt lat="43.34793" lon="3.59039">
        <ele>17.2</ele>
        <time>2025-06-17T08:38:45Z</time>
      </trkpt>
      <trkpt lat="43.34798" lon="3.59044">
        <ele>17.2</ele>
        <time>2025-06-17T08:38:46Z</time>
      </trkpt>
      <trkpt lat="43.34803" lon="3.5905">
        <ele>17</ele>
        <time>2025-06-17T08:38:47Z</time>
      </trkpt>
      <trkpt lat="43.34809" lon="3.59055">
        <ele>17</ele>
        <time>2025-06-17T08:38:48Z</time>
      </trkpt>
      <trkpt lat="43.34815" lon="3.59059">
        <ele>17</ele>
        <time>2025-06-17T08:38:49Z</time>
      </trkpt>
      <trkpt lat="43.34821" lon="3.59061">
        <ele>17</ele>
        <time>2025-06-17T08:38:50Z</time>
      </trkpt>
      <trkpt lat="43.34827" lon="3.59064">
        <ele>17</ele>
        <time>2025-06-17T08:38:51Z</time>
      </trkpt>
      <trkpt lat="43.34833" lon="3.59067">
        <ele>17</ele>
        <time>2025-06-17T08:38:52Z</time>
      </trkpt>
      <trkpt lat="43.34838" lon="3.59072">
        <ele>17</ele>
        <time>2025-06-17T08:38:53Z</time>
      </trkpt>
      <trkpt lat="43.34843" lon="3.59078">
        <ele>17</ele>
        <time>2025-06-17T08:38:54Z</time>
      </trkpt>
      <trkpt lat="43.34848" lon="3.59084">
        <ele>17</ele>
        <time>2025-06-17T08:38:55Z</time>
      </trkpt>
      <trkpt lat="43.34852" lon="3.59091">
        <ele>17</ele>
        <time>2025-06-17T08:38:56Z</time>
      </trkpt>
      <trkpt lat="43.34857" lon="3.59097">
        <ele>17</ele>
        <time>2025-06-17T08:38:57Z</time>
      </trkpt>
      <trkpt lat="43.34861" lon="3.59103">
        <ele>17</ele>
        <time>2025-06-17T08:38:58Z</time>
      </trkpt>
      <trkpt lat="43.34865" lon="3.59109">
        <ele>17</ele>
        <time>2025-06-17T08:38:59Z</time>
      </trkpt>
      <trkpt lat="43.34868" lon="3.59116">
        <ele>17</ele>
        <time>2025-06-17T08:39:00Z</time>
      </trkpt>
      <trkpt lat="43.34871" lon="3.59121">
        <ele>17</ele>
        <time>2025-06-17T08:39:01Z</time>
      </trkpt>
      <trkpt lat="43.34876" lon="3.59128">
        <ele>17</ele>
        <time>2025-06-17T08:39:02Z</time>
      </trkpt>
      <trkpt lat="43.3488" lon="3.59134">
        <ele>17</ele>
        <time>2025-06-17T08:39:03Z</time>
      </trkpt>
      <trkpt lat="43.34884" lon="3.5914">
        <ele>16.8</ele>
        <time>2025-06-17T08:39:04Z</time>
      </trkpt>
      <trkpt lat="43.34888" lon="3.59146">
        <ele>16.8</ele>
        <time>2025-06-17T08:39:05Z</time>
      </trkpt>
      <trkpt lat="43.34892" lon="3.59153">
        <ele>16.8</ele>
        <time>2025-06-17T08:39:06Z</time>
      </trkpt>
      <trkpt lat="43.34896" lon="3.5916">
        <ele>16.8</ele>
        <time>2025-06-17T08:39:07Z</time>
      </trkpt>
      <trkpt lat="43.349" lon="3.59166">
        <ele>16.8</ele>
        <time>2025-06-17T08:39:08Z</time>
      </trkpt>
      <trkpt lat="43.34904" lon="3.59173">
        <ele>16.6</ele>
        <time>2025-06-17T08:39:09Z</time>
      </trkpt>
      <trkpt lat="43.34908" lon="3.59179">
        <ele>16.6</ele>
        <time>2025-06-17T08:39:10Z</time>
      </trkpt>
      <trkpt lat="43.34912" lon="3.59185">
        <ele>16.6</ele>
        <time>2025-06-17T08:39:11Z</time>
      </trkpt>
      <trkpt lat="43.34916" lon="3.59192">
        <ele>16.6</ele>
        <time>2025-06-17T08:39:12Z</time>
      </trkpt>
      <trkpt lat="43.3492" lon="3.59198">
        <ele>16.8</ele>
        <time>2025-06-17T08:39:13Z</time>
      </trkpt>
      <trkpt lat="43.34924" lon="3.59204">
        <ele>16.8</ele>
        <time>2025-06-17T08:39:14Z</time>
      </trkpt>
      <trkpt lat="43.34928" lon="3.59211">
        <ele>16.8</ele>
        <time>2025-06-17T08:39:15Z</time>
      </trkpt>
      <trkpt lat="43.34932" lon="3.59217">
        <ele>16.8</ele>
        <time>2025-06-17T08:39:16Z</time>
      </trkpt>
      <trkpt lat="43.34936" lon="3.59223">
        <ele>17</ele>
        <time>2025-06-17T08:39:17Z</time>
      </trkpt>
      <trkpt lat="43.3494" lon="3.59229">
        <ele>17</ele>
        <time>2025-06-17T08:39:18Z</time>
      </trkpt>
      <trkpt lat="43.34944" lon="3.59234">
        <ele>17</ele>
        <time>2025-06-17T08:39:19Z</time>
      </trkpt>
      <trkpt lat="43.34949" lon="3.5924">
        <ele>17</ele>
        <time>2025-06-17T08:39:20Z</time>
      </trkpt>
      <trkpt lat="43.34954" lon="3.59245">
        <ele>17</ele>
        <time>2025-06-17T08:39:21Z</time>
      </trkpt>
      <trkpt lat="43.3496" lon="3.59249">
        <ele>17</ele>
        <time>2025-06-17T08:39:22Z</time>
      </trkpt>
      <trkpt lat="43.34965" lon="3.59254">
        <ele>17</ele>
        <time>2025-06-17T08:39:23Z</time>
      </trkpt>
      <trkpt lat="43.34971" lon="3.59257">
        <ele>17</ele>
        <time>2025-06-17T08:39:24Z</time>
      </trkpt>
      <trkpt lat="43.34975" lon="3.59261">
        <ele>17</ele>
        <time>2025-06-17T08:39:25Z</time>
      </trkpt>
      <trkpt lat="43.34982" lon="3.59267">
        <ele>17</ele>
        <time>2025-06-17T08:39:26Z</time>
      </trkpt>
      <trkpt lat="43.34986" lon="3.59272">
        <ele>17</ele>
        <time>2025-06-17T08:39:27Z</time>
      </trkpt>
      <trkpt lat="43.34991" lon="3.59279">
        <ele>17</ele>
        <time>2025-06-17T08:39:28Z</time>
      </trkpt>
      <trkpt lat="43.34995" lon="3.59285">
        <ele>17</ele>
        <time>2025-06-17T08:39:29Z</time>
      </trkpt>
      <trkpt lat="43.35" lon="3.59292">
        <ele>16.8</ele>
        <time>2025-06-17T08:39:30Z</time>
      </trkpt>
      <trkpt lat="43.35004" lon="3.59299">
        <ele>16.8</ele>
        <time>2025-06-17T08:39:31Z</time>
      </trkpt>
      <trkpt lat="43.35008" lon="3.59306">
        <ele>16.8</ele>
        <time>2025-06-17T08:39:32Z</time>
      </trkpt>
      <trkpt lat="43.35013" lon="3.59313">
        <ele>16.8</ele>
        <time>2025-06-17T08:39:33Z</time>
      </trkpt>
      <trkpt lat="43.35017" lon="3.59319">
        <ele>16.8</ele>
        <time>2025-06-17T08:39:34Z</time>
      </trkpt>
      <trkpt lat="43.35021" lon="3.59325">
        <ele>16.8</ele>
        <time>2025-06-17T08:39:35Z</time>
      </trkpt>
      <trkpt lat="43.35026" lon="3.59332">
        <ele>16.8</ele>
        <time>2025-06-17T08:39:36Z</time>
      </trkpt>
      <trkpt lat="43.35031" lon="3.59337">
        <ele>17</ele>
        <time>2025-06-17T08:39:37Z</time>
      </trkpt>
      <trkpt lat="43.35036" lon="3.59341">
        <ele>16.8</ele>
        <time>2025-06-17T08:39:38Z</time>
      </trkpt>
      <trkpt lat="43.35042" lon="3.59345">
        <ele>16.8</ele>
        <time>2025-06-17T08:39:39Z</time>
      </trkpt>
      <trkpt lat="43.35047" lon="3.59348">
        <ele>16.8</ele>
        <time>2025-06-17T08:39:40Z</time>
      </trkpt>
      <trkpt lat="43.35053" lon="3.59352">
        <ele>17</ele>
        <time>2025-06-17T08:39:41Z</time>
      </trkpt>
      <trkpt lat="43.35058" lon="3.59358">
        <ele>17</ele>
        <time>2025-06-17T08:39:42Z</time>
      </trkpt>
      <trkpt lat="43.35062" lon="3.59364">
        <ele>17</ele>
        <time>2025-06-17T08:39:43Z</time>
      </trkpt>
      <trkpt lat="43.35066" lon="3.59371">
        <ele>17</ele>
        <time>2025-06-17T08:39:44Z</time>
      </trkpt>
      <trkpt lat="43.3507" lon="3.59377">
        <ele>17</ele>
        <time>2025-06-17T08:39:45Z</time>
      </trkpt>
      <trkpt lat="43.35075" lon="3.59384">
        <ele>17</ele>
        <time>2025-06-17T08:39:46Z</time>
      </trkpt>
      <trkpt lat="43.35079" lon="3.59391">
        <ele>17</ele>
        <time>2025-06-17T08:39:47Z</time>
      </trkpt>
      <trkpt lat="43.35083" lon="3.59398">
        <ele>17</ele>
        <time>2025-06-17T08:39:48Z</time>
      </trkpt>
      <trkpt lat="43.35087" lon="3.59404">
        <ele>17</ele>
        <time>2025-06-17T08:39:49Z</time>
      </trkpt>
      <trkpt lat="43.35092" lon="3.59411">
        <ele>16.8</ele>
        <time>2025-06-17T08:39:50Z</time>
      </trkpt>
      <trkpt lat="43.35096" lon="3.59418">
        <ele>16.8</ele>
        <time>2025-06-17T08:39:51Z</time>
      </trkpt>
      <trkpt lat="43.35101" lon="3.59425">
        <ele>16.8</ele>
        <time>2025-06-17T08:39:52Z</time>
      </trkpt>
      <trkpt lat="43.35105" lon="3.59432">
        <ele>16.8</ele>
        <time>2025-06-17T08:39:53Z</time>
      </trkpt>
      <trkpt lat="43.3511" lon="3.59437">
        <ele>16.8</ele>
        <time>2025-06-17T08:39:54Z</time>
      </trkpt>
      <trkpt lat="43.35116" lon="3.59442">
        <ele>16.8</ele>
        <time>2025-06-17T08:39:55Z</time>
      </trkpt>
      <trkpt lat="43.35122" lon="3.59446">
        <ele>16.8</ele>
        <time>2025-06-17T08:39:56Z</time>
      </trkpt>
      <trkpt lat="43.35127" lon="3.5945">
        <ele>16.8</ele>
        <time>2025-06-17T08:39:57Z</time>
      </trkpt>
      <trkpt lat="43.35133" lon="3.59454">
        <ele>16.8</ele>
        <time>2025-06-17T08:39:58Z</time>
      </trkpt>
      <trkpt lat="43.35139" lon="3.59459">
        <ele>16.8</ele>
        <time>2025-06-17T08:39:59Z</time>
      </trkpt>
      <trkpt lat="43.35143" lon="3.59465">
        <ele>16.8</ele>
        <time>2025-06-17T08:40:00Z</time>
      </trkpt>
      <trkpt lat="43.35148" lon="3.59471">
        <ele>16.8</ele>
        <time>2025-06-17T08:40:01Z</time>
      </trkpt>
      <trkpt lat="43.35152" lon="3.59478">
        <ele>16.8</ele>
        <time>2025-06-17T08:40:02Z</time>
      </trkpt>
      <trkpt lat="43.35156" lon="3.59485">
        <ele>16.8</ele>
        <time>2025-06-17T08:40:03Z</time>
      </trkpt>
      <trkpt lat="43.3516" lon="3.59492">
        <ele>16.8</ele>
        <time>2025-06-17T08:40:04Z</time>
      </trkpt>
      <trkpt lat="43.35163" lon="3.595">
        <ele>16.8</ele>
        <time>2025-06-17T08:40:05Z</time>
      </trkpt>
      <trkpt lat="43.35168" lon="3.59507">
        <ele>16.8</ele>
        <time>2025-06-17T08:40:06Z</time>
      </trkpt>
      <trkpt lat="43.35172" lon="3.59514">
        <ele>16.8</ele>
        <time>2025-06-17T08:40:07Z</time>
      </trkpt>
      <trkpt lat="43.35176" lon="3.59521">
        <ele>16.6</ele>
        <time>2025-06-17T08:40:08Z</time>
      </trkpt>
      <trkpt lat="43.35179" lon="3.59528">
        <ele>16.6</ele>
        <time>2025-06-17T08:40:09Z</time>
      </trkpt>
      <trkpt lat="43.35183" lon="3.59535">
        <ele>16.6</ele>
        <time>2025-06-17T08:40:10Z</time>
      </trkpt>
      <trkpt lat="43.35188" lon="3.59543">
        <ele>16.6</ele>
        <time>2025-06-17T08:40:11Z</time>
      </trkpt>
      <trkpt lat="43.35192" lon="3.5955">
        <ele>16.4</ele>
        <time>2025-06-17T08:40:12Z</time>
      </trkpt>
      <trkpt lat="43.35196" lon="3.59558">
        <ele>16.4</ele>
        <time>2025-06-17T08:40:13Z</time>
      </trkpt>
      <trkpt lat="43.352" lon="3.59565">
        <ele>16.4</ele>
        <time>2025-06-17T08:40:14Z</time>
      </trkpt>
      <trkpt lat="43.35204" lon="3.59572">
        <ele>16.4</ele>
        <time>2025-06-17T08:40:15Z</time>
      </trkpt>
      <trkpt lat="43.35207" lon="3.59579">
        <ele>16.4</ele>
        <time>2025-06-17T08:40:16Z</time>
      </trkpt>
      <trkpt lat="43.35212" lon="3.59586">
        <ele>16.6</ele>
        <time>2025-06-17T08:40:17Z</time>
      </trkpt>
      <trkpt lat="43.35216" lon="3.59593">
        <ele>16.6</ele>
        <time>2025-06-17T08:40:18Z</time>
      </trkpt>
      <trkpt lat="43.3522" lon="3.59599">
        <ele>16.8</ele>
        <time>2025-06-17T08:40:19Z</time>
      </trkpt>
      <trkpt lat="43.35223" lon="3.59605">
        <ele>16.8</ele>
        <time>2025-06-17T08:40:20Z</time>
      </trkpt>
      <trkpt lat="43.35227" lon="3.59611">
        <ele>17</ele>
        <time>2025-06-17T08:40:21Z</time>
      </trkpt>
      <trkpt lat="43.35231" lon="3.59618">
        <ele>17</ele>
        <time>2025-06-17T08:40:22Z</time>
      </trkpt>
      <trkpt lat="43.35235" lon="3.59624">
        <ele>17.2</ele>
        <time>2025-06-17T08:40:23Z</time>
      </trkpt>
      <trkpt lat="43.3524" lon="3.5963">
        <ele>17.2</ele>
        <time>2025-06-17T08:40:24Z</time>
      </trkpt>
      <trkpt lat="43.35244" lon="3.59636">
        <ele>17.2</ele>
        <time>2025-06-17T08:40:25Z</time>
      </trkpt>
      <trkpt lat="43.35248" lon="3.59643">
        <ele>17.4</ele>
        <time>2025-06-17T08:40:26Z</time>
      </trkpt>
      <trkpt lat="43.35252" lon="3.59649">
        <ele>17.4</ele>
        <time>2025-06-17T08:40:27Z</time>
      </trkpt>
      <trkpt lat="43.35257" lon="3.59655">
        <ele>17.4</ele>
        <time>2025-06-17T08:40:28Z</time>
      </trkpt>
      <trkpt lat="43.35261" lon="3.59661">
        <ele>17.4</ele>
        <time>2025-06-17T08:40:29Z</time>
      </trkpt>
      <trkpt lat="43.35265" lon="3.59667">
        <ele>17.4</ele>
        <time>2025-06-17T08:40:30Z</time>
      </trkpt>
      <trkpt lat="43.35269" lon="3.59674">
        <ele>17.4</ele>
        <time>2025-06-17T08:40:31Z</time>
      </trkpt>
      <trkpt lat="43.35274" lon="3.59681">
        <ele>17.4</ele>
        <time>2025-06-17T08:40:32Z</time>
      </trkpt>
      <trkpt lat="43.35279" lon="3.59687">
        <ele>17.4</ele>
        <time>2025-06-17T08:40:33Z</time>
      </trkpt>
      <trkpt lat="43.35283" lon="3.59693">
        <ele>17.4</ele>
        <time>2025-06-17T08:40:34Z</time>
      </trkpt>
      <trkpt lat="43.35287" lon="3.59699">
        <ele>17.4</ele>
        <time>2025-06-17T08:40:35Z</time>
      </trkpt>
      <trkpt lat="43.35292" lon="3.59706">
        <ele>17.4</ele>
        <time>2025-06-17T08:40:36Z</time>
      </trkpt>
      <trkpt lat="43.35296" lon="3.59713">
        <ele>17.4</ele>
        <time>2025-06-17T08:40:37Z</time>
      </trkpt>
      <trkpt lat="43.353" lon="3.5972">
        <ele>17.4</ele>
        <time>2025-06-17T08:40:38Z</time>
      </trkpt>
      <trkpt lat="43.35303" lon="3.59726">
        <ele>17.4</ele>
        <time>2025-06-17T08:40:39Z</time>
      </trkpt>
      <trkpt lat="43.35306" lon="3.59733">
        <ele>17.6</ele>
        <time>2025-06-17T08:40:40Z</time>
      </trkpt>
      <trkpt lat="43.3531" lon="3.59739">
        <ele>17.6</ele>
        <time>2025-06-17T08:40:41Z</time>
      </trkpt>
      <trkpt lat="43.35313" lon="3.59745">
        <ele>17.8</ele>
        <time>2025-06-17T08:40:42Z</time>
      </trkpt>
      <trkpt lat="43.35317" lon="3.59751">
        <ele>17.8</ele>
        <time>2025-06-17T08:40:43Z</time>
      </trkpt>
      <trkpt lat="43.35321" lon="3.59755">
        <ele>17.8</ele>
        <time>2025-06-17T08:40:44Z</time>
      </trkpt>
      <trkpt lat="43.35326" lon="3.59759">
        <ele>18</ele>
        <time>2025-06-17T08:40:45Z</time>
      </trkpt>
      <trkpt lat="43.35332" lon="3.59763">
        <ele>17.8</ele>
        <time>2025-06-17T08:40:46Z</time>
      </trkpt>
      <trkpt lat="43.35338" lon="3.59767">
        <ele>17.8</ele>
        <time>2025-06-17T08:40:47Z</time>
      </trkpt>
      <trkpt lat="43.35343" lon="3.5977">
        <ele>17.8</ele>
        <time>2025-06-17T08:40:48Z</time>
      </trkpt>
      <trkpt lat="43.35349" lon="3.59774">
        <ele>17.6</ele>
        <time>2025-06-17T08:40:49Z</time>
      </trkpt>
      <trkpt lat="43.35355" lon="3.59779">
        <ele>17.4</ele>
        <time>2025-06-17T08:40:50Z</time>
      </trkpt>
      <trkpt lat="43.3536" lon="3.59785">
        <ele>17.2</ele>
        <time>2025-06-17T08:40:51Z</time>
      </trkpt>
      <trkpt lat="43.35365" lon="3.59792">
        <ele>17</ele>
        <time>2025-06-17T08:40:52Z</time>
      </trkpt>
      <trkpt lat="43.35369" lon="3.59799">
        <ele>17</ele>
        <time>2025-06-17T08:40:53Z</time>
      </trkpt>
      <trkpt lat="43.35374" lon="3.59805">
        <ele>16.8</ele>
        <time>2025-06-17T08:40:54Z</time>
      </trkpt>
      <trkpt lat="43.35377" lon="3.59812">
        <ele>16.8</ele>
        <time>2025-06-17T08:40:55Z</time>
      </trkpt>
      <trkpt lat="43.35382" lon="3.59819">
        <ele>16.8</ele>
        <time>2025-06-17T08:40:56Z</time>
      </trkpt>
      <trkpt lat="43.35386" lon="3.59826">
        <ele>16.8</ele>
        <time>2025-06-17T08:40:57Z</time>
      </trkpt>
      <trkpt lat="43.3539" lon="3.59833">
        <ele>16.8</ele>
        <time>2025-06-17T08:40:58Z</time>
      </trkpt>
      <trkpt lat="43.35394" lon="3.59839">
        <ele>17</ele>
        <time>2025-06-17T08:40:59Z</time>
      </trkpt>
      <trkpt lat="43.35398" lon="3.59846">
        <ele>17</ele>
        <time>2025-06-17T08:41:00Z</time>
      </trkpt>
      <trkpt lat="43.354" lon="3.59851">
        <ele>17.2</ele>
        <time>2025-06-17T08:41:01Z</time>
      </trkpt>
      <trkpt lat="43.35405" lon="3.59858">
        <ele>17.2</ele>
        <time>2025-06-17T08:41:02Z</time>
      </trkpt>
      <trkpt lat="43.35409" lon="3.59864">
        <ele>17.2</ele>
        <time>2025-06-17T08:41:03Z</time>
      </trkpt>
      <trkpt lat="43.35413" lon="3.5987">
        <ele>17.4</ele>
        <time>2025-06-17T08:41:04Z</time>
      </trkpt>
      <trkpt lat="43.35417" lon="3.59876">
        <ele>17.4</ele>
        <time>2025-06-17T08:41:05Z</time>
      </trkpt>
      <trkpt lat="43.35421" lon="3.59882">
        <ele>17.4</ele>
        <time>2025-06-17T08:41:06Z</time>
      </trkpt>
      <trkpt lat="43.35425" lon="3.59889">
        <ele>17.4</ele>
        <time>2025-06-17T08:41:07Z</time>
      </trkpt>
      <trkpt lat="43.35429" lon="3.59895">
        <ele>17.4</ele>
        <time>2025-06-17T08:41:08Z</time>
      </trkpt>
      <trkpt lat="43.35432" lon="3.59902">
        <ele>17.4</ele>
        <time>2025-06-17T08:41:09Z</time>
      </trkpt>
      <trkpt lat="43.35436" lon="3.59908">
        <ele>17.4</ele>
        <time>2025-06-17T08:41:10Z</time>
      </trkpt>
      <trkpt lat="43.3544" lon="3.59914">
        <ele>17.2</ele>
        <time>2025-06-17T08:41:11Z</time>
      </trkpt>
      <trkpt lat="43.35444" lon="3.5992">
        <ele>17.2</ele>
        <time>2025-06-17T08:41:12Z</time>
      </trkpt>
      <trkpt lat="43.35448" lon="3.59927">
        <ele>17.2</ele>
        <time>2025-06-17T08:41:13Z</time>
      </trkpt>
      <trkpt lat="43.35453" lon="3.59933">
        <ele>17.2</ele>
        <time>2025-06-17T08:41:14Z</time>
      </trkpt>
      <trkpt lat="43.35456" lon="3.5994">
        <ele>17.2</ele>
        <time>2025-06-17T08:41:15Z</time>
      </trkpt>
      <trkpt lat="43.35461" lon="3.59946">
        <ele>17.2</ele>
        <time>2025-06-17T08:41:16Z</time>
      </trkpt>
      <trkpt lat="43.35465" lon="3.59952">
        <ele>17.2</ele>
        <time>2025-06-17T08:41:17Z</time>
      </trkpt>
      <trkpt lat="43.35469" lon="3.59959">
        <ele>17.2</ele>
        <time>2025-06-17T08:41:18Z</time>
      </trkpt>
      <trkpt lat="43.35473" lon="3.59966">
        <ele>17.2</ele>
        <time>2025-06-17T08:41:19Z</time>
      </trkpt>
      <trkpt lat="43.35477" lon="3.59972">
        <ele>17.2</ele>
        <time>2025-06-17T08:41:20Z</time>
      </trkpt>
      <trkpt lat="43.35482" lon="3.59978">
        <ele>17.2</ele>
        <time>2025-06-17T08:41:21Z</time>
      </trkpt>
      <trkpt lat="43.35487" lon="3.59982">
        <ele>17.2</ele>
        <time>2025-06-17T08:41:22Z</time>
      </trkpt>
      <trkpt lat="43.35492" lon="3.59985">
        <ele>17</ele>
        <time>2025-06-17T08:41:23Z</time>
      </trkpt>
      <trkpt lat="43.35498" lon="3.59987">
        <ele>17</ele>
        <time>2025-06-17T08:41:24Z</time>
      </trkpt>
      <trkpt lat="43.35504" lon="3.59987">
        <ele>17</ele>
        <time>2025-06-17T08:41:25Z</time>
      </trkpt>
      <trkpt lat="43.35511" lon="3.59989">
        <ele>17</ele>
        <time>2025-06-17T08:41:26Z</time>
      </trkpt>
      <trkpt lat="43.35516" lon="3.59991">
        <ele>17</ele>
        <time>2025-06-17T08:41:27Z</time>
      </trkpt>
      <trkpt lat="43.35522" lon="3.59994">
        <ele>17.2</ele>
        <time>2025-06-17T08:41:28Z</time>
      </trkpt>
      <trkpt lat="43.35527" lon="3.59999">
        <ele>17</ele>
        <time>2025-06-17T08:41:29Z</time>
      </trkpt>
      <trkpt lat="43.35531" lon="3.60006">
        <ele>17.2</ele>
        <time>2025-06-17T08:41:30Z</time>
      </trkpt>
      <trkpt lat="43.35534" lon="3.60012">
        <ele>17.2</ele>
        <time>2025-06-17T08:41:31Z</time>
      </trkpt>
      <trkpt lat="43.35538" lon="3.60019">
        <ele>17.2</ele>
        <time>2025-06-17T08:41:32Z</time>
      </trkpt>
      <trkpt lat="43.35542" lon="3.60026">
        <ele>17.2</ele>
        <time>2025-06-17T08:41:33Z</time>
      </trkpt>
      <trkpt lat="43.35546" lon="3.60032">
        <ele>17.2</ele>
        <time>2025-06-17T08:41:34Z</time>
      </trkpt>
      <trkpt lat="43.3555" lon="3.60037">
        <ele>17.2</ele>
        <time>2025-06-17T08:41:35Z</time>
      </trkpt>
      <trkpt lat="43.35554" lon="3.60044">
        <ele>17.2</ele>
        <time>2025-06-17T08:41:36Z</time>
      </trkpt>
      <trkpt lat="43.35558" lon="3.6005">
        <ele>17.2</ele>
        <time>2025-06-17T08:41:37Z</time>
      </trkpt>
      <trkpt lat="43.35562" lon="3.60056">
        <ele>17.2</ele>
        <time>2025-06-17T08:41:38Z</time>
      </trkpt>
      <trkpt lat="43.35565" lon="3.60061">
        <ele>17.2</ele>
        <time>2025-06-17T08:41:39Z</time>
      </trkpt>
      <trkpt lat="43.35569" lon="3.60067">
        <ele>17.2</ele>
        <time>2025-06-17T08:41:40Z</time>
      </trkpt>
      <trkpt lat="43.35573" lon="3.60072">
        <ele>17.4</ele>
        <time>2025-06-17T08:41:41Z</time>
      </trkpt>
      <trkpt lat="43.35577" lon="3.60078">
        <ele>17.4</ele>
        <time>2025-06-17T08:41:42Z</time>
      </trkpt>
      <trkpt lat="43.35581" lon="3.60083">
        <ele>17.4</ele>
        <time>2025-06-17T08:41:43Z</time>
      </trkpt>
      <trkpt lat="43.35585" lon="3.60089">
        <ele>17.4</ele>
        <time>2025-06-17T08:41:44Z</time>
      </trkpt>
      <trkpt lat="43.35588" lon="3.60095">
        <ele>17.4</ele>
        <time>2025-06-17T08:41:45Z</time>
      </trkpt>
      <trkpt lat="43.35593" lon="3.60101">
        <ele>17.4</ele>
        <time>2025-06-17T08:41:46Z</time>
      </trkpt>
      <trkpt lat="43.35597" lon="3.60107">
        <ele>17.4</ele>
        <time>2025-06-17T08:41:47Z</time>
      </trkpt>
      <trkpt lat="43.35601" lon="3.60113">
        <ele>17.4</ele>
        <time>2025-06-17T08:41:48Z</time>
      </trkpt>
      <trkpt lat="43.35605" lon="3.60119">
        <ele>17.2</ele>
        <time>2025-06-17T08:41:49Z</time>
      </trkpt>
      <trkpt lat="43.3561" lon="3.60125">
        <ele>17.2</ele>
        <time>2025-06-17T08:41:50Z</time>
      </trkpt>
      <trkpt lat="43.35614" lon="3.60129">
        <ele>17.2</ele>
        <time>2025-06-17T08:41:51Z</time>
      </trkpt>
      <trkpt lat="43.3562" lon="3.60133">
        <ele>17.2</ele>
        <time>2025-06-17T08:41:52Z</time>
      </trkpt>
      <trkpt lat="43.35625" lon="3.60137">
        <ele>17.2</ele>
        <time>2025-06-17T08:41:53Z</time>
      </trkpt>
      <trkpt lat="43.3563" lon="3.60142">
        <ele>17.2</ele>
        <time>2025-06-17T08:41:54Z</time>
      </trkpt>
      <trkpt lat="43.35634" lon="3.60147">
        <ele>17</ele>
        <time>2025-06-17T08:41:55Z</time>
      </trkpt>
      <trkpt lat="43.35639" lon="3.60154">
        <ele>17</ele>
        <time>2025-06-17T08:41:56Z</time>
      </trkpt>
      <trkpt lat="43.35644" lon="3.6016">
        <ele>16.8</ele>
        <time>2025-06-17T08:41:57Z</time>
      </trkpt>
      <trkpt lat="43.35648" lon="3.60166">
        <ele>16.8</ele>
        <time>2025-06-17T08:41:58Z</time>
      </trkpt>
      <trkpt lat="43.35653" lon="3.60172">
        <ele>16.8</ele>
        <time>2025-06-17T08:41:59Z</time>
      </trkpt>
      <trkpt lat="43.35657" lon="3.60179">
        <ele>16.8</ele>
        <time>2025-06-17T08:42:00Z</time>
      </trkpt>
      <trkpt lat="43.35661" lon="3.60185">
        <ele>16.8</ele>
        <time>2025-06-17T08:42:01Z</time>
      </trkpt>
      <trkpt lat="43.35665" lon="3.60192">
        <ele>16.8</ele>
        <time>2025-06-17T08:42:02Z</time>
      </trkpt>
      <trkpt lat="43.35669" lon="3.60199">
        <ele>16.8</ele>
        <time>2025-06-17T08:42:03Z</time>
      </trkpt>
      <trkpt lat="43.35673" lon="3.60204">
        <ele>16.8</ele>
        <time>2025-06-17T08:42:04Z</time>
      </trkpt>
      <trkpt lat="43.35678" lon="3.60211">
        <ele>16.8</ele>
        <time>2025-06-17T08:42:05Z</time>
      </trkpt>
      <trkpt lat="43.35682" lon="3.60218">
        <ele>16.8</ele>
        <time>2025-06-17T08:42:06Z</time>
      </trkpt>
      <trkpt lat="43.35686" lon="3.60225">
        <ele>16.6</ele>
        <time>2025-06-17T08:42:07Z</time>
      </trkpt>
      <trkpt lat="43.3569" lon="3.60231">
        <ele>16.6</ele>
        <time>2025-06-17T08:42:08Z</time>
      </trkpt>
      <trkpt lat="43.35694" lon="3.60237">
        <ele>16.6</ele>
        <time>2025-06-17T08:42:09Z</time>
      </trkpt>
      <trkpt lat="43.35699" lon="3.60244">
        <ele>16.6</ele>
        <time>2025-06-17T08:42:10Z</time>
      </trkpt>
      <trkpt lat="43.35703" lon="3.60251">
        <ele>16.6</ele>
        <time>2025-06-17T08:42:11Z</time>
      </trkpt>
      <trkpt lat="43.35707" lon="3.60257">
        <ele>16.6</ele>
        <time>2025-06-17T08:42:12Z</time>
      </trkpt>
      <trkpt lat="43.35711" lon="3.60264">
        <ele>16.6</ele>
        <time>2025-06-17T08:42:13Z</time>
      </trkpt>
      <trkpt lat="43.35715" lon="3.6027">
        <ele>16.6</ele>
        <time>2025-06-17T08:42:14Z</time>
      </trkpt>
      <trkpt lat="43.35719" lon="3.60276">
        <ele>16.6</ele>
        <time>2025-06-17T08:42:15Z</time>
      </trkpt>
      <trkpt lat="43.35723" lon="3.60283">
        <ele>16.6</ele>
        <time>2025-06-17T08:42:16Z</time>
      </trkpt>
      <trkpt lat="43.35727" lon="3.6029">
        <ele>16.8</ele>
        <time>2025-06-17T08:42:17Z</time>
      </trkpt>
      <trkpt lat="43.35731" lon="3.60296">
        <ele>16.8</ele>
        <time>2025-06-17T08:42:18Z</time>
      </trkpt>
      <trkpt lat="43.35735" lon="3.60303">
        <ele>16.8</ele>
        <time>2025-06-17T08:42:19Z</time>
      </trkpt>
      <trkpt lat="43.35739" lon="3.60309">
        <ele>16.8</ele>
        <time>2025-06-17T08:42:20Z</time>
      </trkpt>
      <trkpt lat="43.35742" lon="3.60316">
        <ele>16.8</ele>
        <time>2025-06-17T08:42:21Z</time>
      </trkpt>
      <trkpt lat="43.35746" lon="3.60322">
        <ele>16.8</ele>
        <time>2025-06-17T08:42:22Z</time>
      </trkpt>
      <trkpt lat="43.3575" lon="3.60328">
        <ele>16.8</ele>
        <time>2025-06-17T08:42:23Z</time>
      </trkpt>
      <trkpt lat="43.35755" lon="3.60335">
        <ele>16.8</ele>
        <time>2025-06-17T08:42:24Z</time>
      </trkpt>
      <trkpt lat="43.35758" lon="3.60341">
        <ele>17</ele>
        <time>2025-06-17T08:42:25Z</time>
      </trkpt>
      <trkpt lat="43.35763" lon="3.60347">
        <ele>16.8</ele>
        <time>2025-06-17T08:42:26Z</time>
      </trkpt>
      <trkpt lat="43.35766" lon="3.60354">
        <ele>16.8</ele>
        <time>2025-06-17T08:42:27Z</time>
      </trkpt>
      <trkpt lat="43.35771" lon="3.6036">
        <ele>16.8</ele>
        <time>2025-06-17T08:42:28Z</time>
      </trkpt>
      <trkpt lat="43.35775" lon="3.60366">
        <ele>16.8</ele>
        <time>2025-06-17T08:42:29Z</time>
      </trkpt>
      <trkpt lat="43.3578" lon="3.60371">
        <ele>16.8</ele>
        <time>2025-06-17T08:42:30Z</time>
      </trkpt>
      <trkpt lat="43.35786" lon="3.60375">
        <ele>16.6</ele>
        <time>2025-06-17T08:42:31Z</time>
      </trkpt>
      <trkpt lat="43.35792" lon="3.60377">
        <ele>16.6</ele>
        <time>2025-06-17T08:42:32Z</time>
      </trkpt>
      <trkpt lat="43.35798" lon="3.60377">
        <ele>16.6</ele>
        <time>2025-06-17T08:42:33Z</time>
      </trkpt>
      <trkpt lat="43.35804" lon="3.60377">
        <ele>16.4</ele>
        <time>2025-06-17T08:42:34Z</time>
      </trkpt>
      <trkpt lat="43.35811" lon="3.60379">
        <ele>16.4</ele>
        <time>2025-06-17T08:42:35Z</time>
      </trkpt>
      <trkpt lat="43.35816" lon="3.60382">
        <ele>16.6</ele>
        <time>2025-06-17T08:42:36Z</time>
      </trkpt>
      <trkpt lat="43.35821" lon="3.60387">
        <ele>16.6</ele>
        <time>2025-06-17T08:42:37Z</time>
      </trkpt>
      <trkpt lat="43.35825" lon="3.60394">
        <ele>16.6</ele>
        <time>2025-06-17T08:42:38Z</time>
      </trkpt>
      <trkpt lat="43.35829" lon="3.60401">
        <ele>16.6</ele>
        <time>2025-06-17T08:42:39Z</time>
      </trkpt>
      <trkpt lat="43.35833" lon="3.60408">
        <ele>16.6</ele>
        <time>2025-06-17T08:42:40Z</time>
      </trkpt>
      <trkpt lat="43.35837" lon="3.60415">
        <ele>16.6</ele>
        <time>2025-06-17T08:42:41Z</time>
      </trkpt>
      <trkpt lat="43.35841" lon="3.60422">
        <ele>16.6</ele>
        <time>2025-06-17T08:42:42Z</time>
      </trkpt>
      <trkpt lat="43.35845" lon="3.60428">
        <ele>16.6</ele>
        <time>2025-06-17T08:42:43Z</time>
      </trkpt>
      <trkpt lat="43.35849" lon="3.60434">
        <ele>16.6</ele>
        <time>2025-06-17T08:42:44Z</time>
      </trkpt>
      <trkpt lat="43.35853" lon="3.6044">
        <ele>16.6</ele>
        <time>2025-06-17T08:42:45Z</time>
      </trkpt>
      <trkpt lat="43.35858" lon="3.60447">
        <ele>16.6</ele>
        <time>2025-06-17T08:42:46Z</time>
      </trkpt>
      <trkpt lat="43.35862" lon="3.60453">
        <ele>16.6</ele>
        <time>2025-06-17T08:42:47Z</time>
      </trkpt>
      <trkpt lat="43.35866" lon="3.6046">
        <ele>16.8</ele>
        <time>2025-06-17T08:42:48Z</time>
      </trkpt>
      <trkpt lat="43.3587" lon="3.60466">
        <ele>16.8</ele>
        <time>2025-06-17T08:42:49Z</time>
      </trkpt>
      <trkpt lat="43.35874" lon="3.60473">
        <ele>16.6</ele>
        <time>2025-06-17T08:42:50Z</time>
      </trkpt>
      <trkpt lat="43.35878" lon="3.60479">
        <ele>16.6</ele>
        <time>2025-06-17T08:42:51Z</time>
      </trkpt>
      <trkpt lat="43.35882" lon="3.60485">
        <ele>16.6</ele>
        <time>2025-06-17T08:42:52Z</time>
      </trkpt>
      <trkpt lat="43.35886" lon="3.60491">
        <ele>16.6</ele>
        <time>2025-06-17T08:42:53Z</time>
      </trkpt>
      <trkpt lat="43.35889" lon="3.60497">
        <ele>16.6</ele>
        <time>2025-06-17T08:42:54Z</time>
      </trkpt>
      <trkpt lat="43.35894" lon="3.60503">
        <ele>16.6</ele>
        <time>2025-06-17T08:42:55Z</time>
      </trkpt>
      <trkpt lat="43.35897" lon="3.60509">
        <ele>16.6</ele>
        <time>2025-06-17T08:42:56Z</time>
      </trkpt>
      <trkpt lat="43.35901" lon="3.60515">
        <ele>16.6</ele>
        <time>2025-06-17T08:42:57Z</time>
      </trkpt>
      <trkpt lat="43.35905" lon="3.60521">
        <ele>16.8</ele>
        <time>2025-06-17T08:42:58Z</time>
      </trkpt>
      <trkpt lat="43.35909" lon="3.60527">
        <ele>16.8</ele>
        <time>2025-06-17T08:42:59Z</time>
      </trkpt>
      <trkpt lat="43.35913" lon="3.60533">
        <ele>17</ele>
        <time>2025-06-17T08:43:00Z</time>
      </trkpt>
      <trkpt lat="43.35916" lon="3.60539">
        <ele>17</ele>
        <time>2025-06-17T08:43:01Z</time>
      </trkpt>
      <trkpt lat="43.3592" lon="3.60545">
        <ele>17.2</ele>
        <time>2025-06-17T08:43:02Z</time>
      </trkpt>
      <trkpt lat="43.35924" lon="3.60551">
        <ele>17.4</ele>
        <time>2025-06-17T08:43:03Z</time>
      </trkpt>
      <trkpt lat="43.35927" lon="3.60556">
        <ele>17.4</ele>
        <time>2025-06-17T08:43:04Z</time>
      </trkpt>
      <trkpt lat="43.35931" lon="3.60562">
        <ele>17.4</ele>
        <time>2025-06-17T08:43:05Z</time>
      </trkpt>
      <trkpt lat="43.35935" lon="3.60568">
        <ele>17.4</ele>
        <time>2025-06-17T08:43:06Z</time>
      </trkpt>
      <trkpt lat="43.35939" lon="3.60575">
        <ele>17.4</ele>
        <time>2025-06-17T08:43:07Z</time>
      </trkpt>
      <trkpt lat="43.35943" lon="3.60581">
        <ele>17.4</ele>
        <time>2025-06-17T08:43:08Z</time>
      </trkpt>
      <trkpt lat="43.35947" lon="3.60588">
        <ele>17.2</ele>
        <time>2025-06-17T08:43:09Z</time>
      </trkpt>
      <trkpt lat="43.35951" lon="3.60596">
        <ele>17.2</ele>
        <time>2025-06-17T08:43:10Z</time>
      </trkpt>
      <trkpt lat="43.35955" lon="3.60603">
        <ele>17.2</ele>
        <time>2025-06-17T08:43:11Z</time>
      </trkpt>
      <trkpt lat="43.3596" lon="3.6061">
        <ele>17.2</ele>
        <time>2025-06-17T08:43:12Z</time>
      </trkpt>
      <trkpt lat="43.35964" lon="3.60617">
        <ele>17.2</ele>
        <time>2025-06-17T08:43:13Z</time>
      </trkpt>
      <trkpt lat="43.35968" lon="3.60623">
        <ele>17</ele>
        <time>2025-06-17T08:43:14Z</time>
      </trkpt>
      <trkpt lat="43.35972" lon="3.60629">
        <ele>17</ele>
        <time>2025-06-17T08:43:15Z</time>
      </trkpt>
      <trkpt lat="43.35977" lon="3.60637">
        <ele>17</ele>
        <time>2025-06-17T08:43:16Z</time>
      </trkpt>
      <trkpt lat="43.35981" lon="3.60644">
        <ele>17</ele>
        <time>2025-06-17T08:43:17Z</time>
      </trkpt>
      <trkpt lat="43.35986" lon="3.60651">
        <ele>17</ele>
        <time>2025-06-17T08:43:18Z</time>
      </trkpt>
      <trkpt lat="43.3599" lon="3.60658">
        <ele>17</ele>
        <time>2025-06-17T08:43:19Z</time>
      </trkpt>
      <trkpt lat="43.35994" lon="3.60665">
        <ele>17</ele>
        <time>2025-06-17T08:43:20Z</time>
      </trkpt>
      <trkpt lat="43.35998" lon="3.60672">
        <ele>17</ele>
        <time>2025-06-17T08:43:21Z</time>
      </trkpt>
      <trkpt lat="43.36003" lon="3.60679">
        <ele>16.8</ele>
        <time>2025-06-17T08:43:22Z</time>
      </trkpt>
      <trkpt lat="43.36007" lon="3.60686">
        <ele>16.8</ele>
        <time>2025-06-17T08:43:23Z</time>
      </trkpt>
      <trkpt lat="43.36011" lon="3.60694">
        <ele>16.8</ele>
        <time>2025-06-17T08:43:24Z</time>
      </trkpt>
      <trkpt lat="43.36016" lon="3.60701">
        <ele>16.8</ele>
        <time>2025-06-17T08:43:25Z</time>
      </trkpt>
      <trkpt lat="43.3602" lon="3.60707">
        <ele>16.8</ele>
        <time>2025-06-17T08:43:26Z</time>
      </trkpt>
      <trkpt lat="43.36024" lon="3.60713">
        <ele>16.8</ele>
        <time>2025-06-17T08:43:27Z</time>
      </trkpt>
      <trkpt lat="43.36029" lon="3.60718">
        <ele>17</ele>
        <time>2025-06-17T08:43:28Z</time>
      </trkpt>
      <trkpt lat="43.36034" lon="3.60721">
        <ele>17</ele>
        <time>2025-06-17T08:43:29Z</time>
      </trkpt>
      <trkpt lat="43.36039" lon="3.60723">
        <ele>17</ele>
        <time>2025-06-17T08:43:30Z</time>
      </trkpt>
      <trkpt lat="43.36045" lon="3.60722">
        <ele>17</ele>
        <time>2025-06-17T08:43:31Z</time>
      </trkpt>
      <trkpt lat="43.3605" lon="3.60719">
        <ele>16.8</ele>
        <time>2025-06-17T08:43:32Z</time>
      </trkpt>
      <trkpt lat="43.36055" lon="3.60715">
        <ele>16.8</ele>
        <time>2025-06-17T08:43:33Z</time>
      </trkpt>
      <trkpt lat="43.3606" lon="3.60711">
        <ele>16.6</ele>
        <time>2025-06-17T08:43:34Z</time>
      </trkpt>
      <trkpt lat="43.36066" lon="3.60708">
        <ele>16.6</ele>
        <time>2025-06-17T08:43:35Z</time>
      </trkpt>
      <trkpt lat="43.36071" lon="3.60706">
        <ele>16.6</ele>
        <time>2025-06-17T08:43:36Z</time>
      </trkpt>
      <trkpt lat="43.36077" lon="3.60707">
        <ele>16.6</ele>
        <time>2025-06-17T08:43:37Z</time>
      </trkpt>
      <trkpt lat="43.36083" lon="3.6071">
        <ele>16.4</ele>
        <time>2025-06-17T08:43:38Z</time>
      </trkpt>
      <trkpt lat="43.36088" lon="3.60714">
        <ele>16.4</ele>
        <time>2025-06-17T08:43:39Z</time>
      </trkpt>
      <trkpt lat="43.36092" lon="3.60721">
        <ele>16.4</ele>
        <time>2025-06-17T08:43:40Z</time>
      </trkpt>
      <trkpt lat="43.36097" lon="3.60727">
        <ele>16.2</ele>
        <time>2025-06-17T08:43:41Z</time>
      </trkpt>
      <trkpt lat="43.36101" lon="3.60734">
        <ele>16.2</ele>
        <time>2025-06-17T08:43:42Z</time>
      </trkpt>
      <trkpt lat="43.36105" lon="3.6074">
        <ele>16.2</ele>
        <time>2025-06-17T08:43:43Z</time>
      </trkpt>
      <trkpt lat="43.36109" lon="3.60746">
        <ele>16.2</ele>
        <time>2025-06-17T08:43:44Z</time>
      </trkpt>
      <trkpt lat="43.36113" lon="3.60753">
        <ele>16.2</ele>
        <time>2025-06-17T08:43:45Z</time>
      </trkpt>
      <trkpt lat="43.36118" lon="3.60759">
        <ele>16.2</ele>
        <time>2025-06-17T08:43:46Z</time>
      </trkpt>
      <trkpt lat="43.36122" lon="3.60766">
        <ele>16.2</ele>
        <time>2025-06-17T08:43:47Z</time>
      </trkpt>
      <trkpt lat="43.36126" lon="3.60773">
        <ele>16.2</ele>
        <time>2025-06-17T08:43:48Z</time>
      </trkpt>
      <trkpt lat="43.3613" lon="3.60779">
        <ele>16.2</ele>
        <time>2025-06-17T08:43:49Z</time>
      </trkpt>
      <trkpt lat="43.36135" lon="3.60786">
        <ele>16.2</ele>
        <time>2025-06-17T08:43:50Z</time>
      </trkpt>
      <trkpt lat="43.36138" lon="3.60793">
        <ele>16.2</ele>
        <time>2025-06-17T08:43:51Z</time>
      </trkpt>
      <trkpt lat="43.36143" lon="3.608">
        <ele>16.2</ele>
        <time>2025-06-17T08:43:52Z</time>
      </trkpt>
      <trkpt lat="43.36146" lon="3.60806">
        <ele>16.2</ele>
        <time>2025-06-17T08:43:53Z</time>
      </trkpt>
      <trkpt lat="43.36151" lon="3.60813">
        <ele>16.2</ele>
        <time>2025-06-17T08:43:54Z</time>
      </trkpt>
      <trkpt lat="43.36155" lon="3.60819">
        <ele>16.2</ele>
        <time>2025-06-17T08:43:55Z</time>
      </trkpt>
      <trkpt lat="43.36159" lon="3.60826">
        <ele>16.2</ele>
        <time>2025-06-17T08:43:56Z</time>
      </trkpt>
      <trkpt lat="43.36164" lon="3.60833">
        <ele>16.2</ele>
        <time>2025-06-17T08:43:57Z</time>
      </trkpt>
      <trkpt lat="43.36168" lon="3.6084">
        <ele>16.2</ele>
        <time>2025-06-17T08:43:58Z</time>
      </trkpt>
      <trkpt lat="43.36173" lon="3.60847">
        <ele>16</ele>
        <time>2025-06-17T08:43:59Z</time>
      </trkpt>
      <trkpt lat="43.36177" lon="3.60853">
        <ele>16.2</ele>
        <time>2025-06-17T08:44:00Z</time>
      </trkpt>
      <trkpt lat="43.36181" lon="3.60861">
        <ele>16.2</ele>
        <time>2025-06-17T08:44:01Z</time>
      </trkpt>
      <trkpt lat="43.36185" lon="3.60867">
        <ele>16.2</ele>
        <time>2025-06-17T08:44:02Z</time>
      </trkpt>
      <trkpt lat="43.3619" lon="3.60874">
        <ele>16.2</ele>
        <time>2025-06-17T08:44:03Z</time>
      </trkpt>
      <trkpt lat="43.36194" lon="3.60881">
        <ele>16.2</ele>
        <time>2025-06-17T08:44:04Z</time>
      </trkpt>
      <trkpt lat="43.36198" lon="3.60887">
        <ele>16.2</ele>
        <time>2025-06-17T08:44:05Z</time>
      </trkpt>
      <trkpt lat="43.36203" lon="3.60895">
        <ele>16.2</ele>
        <time>2025-06-17T08:44:06Z</time>
      </trkpt>
      <trkpt lat="43.36207" lon="3.60901">
        <ele>16.2</ele>
        <time>2025-06-17T08:44:07Z</time>
      </trkpt>
      <trkpt lat="43.36211" lon="3.60909">
        <ele>16.2</ele>
        <time>2025-06-17T08:44:08Z</time>
      </trkpt>
      <trkpt lat="43.36215" lon="3.60916">
        <ele>16.2</ele>
        <time>2025-06-17T08:44:09Z</time>
      </trkpt>
      <trkpt lat="43.3622" lon="3.60923">
        <ele>16.2</ele>
        <time>2025-06-17T08:44:10Z</time>
      </trkpt>
      <trkpt lat="43.36224" lon="3.6093">
        <ele>16.2</ele>
        <time>2025-06-17T08:44:11Z</time>
      </trkpt>
      <trkpt lat="43.36228" lon="3.60937">
        <ele>16.2</ele>
        <time>2025-06-17T08:44:12Z</time>
      </trkpt>
      <trkpt lat="43.36233" lon="3.60944">
        <ele>16.2</ele>
        <time>2025-06-17T08:44:13Z</time>
      </trkpt>
      <trkpt lat="43.36237" lon="3.60951">
        <ele>16.2</ele>
        <time>2025-06-17T08:44:14Z</time>
      </trkpt>
      <trkpt lat="43.36242" lon="3.60958">
        <ele>16.2</ele>
        <time>2025-06-17T08:44:15Z</time>
      </trkpt>
      <trkpt lat="43.36246" lon="3.60965">
        <ele>16.2</ele>
        <time>2025-06-17T08:44:16Z</time>
      </trkpt>
      <trkpt lat="43.36251" lon="3.60972">
        <ele>16.2</ele>
        <time>2025-06-17T08:44:17Z</time>
      </trkpt>
      <trkpt lat="43.36255" lon="3.6098">
        <ele>16.2</ele>
        <time>2025-06-17T08:44:18Z</time>
      </trkpt>
      <trkpt lat="43.3626" lon="3.60987">
        <ele>16.2</ele>
        <time>2025-06-17T08:44:19Z</time>
      </trkpt>
      <trkpt lat="43.36264" lon="3.60994">
        <ele>16.2</ele>
        <time>2025-06-17T08:44:20Z</time>
      </trkpt>
      <trkpt lat="43.36268" lon="3.61001">
        <ele>16.2</ele>
        <time>2025-06-17T08:44:21Z</time>
      </trkpt>
      <trkpt lat="43.36273" lon="3.61009">
        <ele>16.2</ele>
        <time>2025-06-17T08:44:22Z</time>
      </trkpt>
      <trkpt lat="43.36277" lon="3.61016">
        <ele>16.2</ele>
        <time>2025-06-17T08:44:23Z</time>
      </trkpt>
      <trkpt lat="43.36282" lon="3.61023">
        <ele>16.2</ele>
        <time>2025-06-17T08:44:24Z</time>
      </trkpt>
      <trkpt lat="43.36286" lon="3.61029">
        <ele>16.2</ele>
        <time>2025-06-17T08:44:25Z</time>
      </trkpt>
      <trkpt lat="43.36291" lon="3.61036">
        <ele>16.2</ele>
        <time>2025-06-17T08:44:26Z</time>
      </trkpt>
      <trkpt lat="43.36295" lon="3.61043">
        <ele>16</ele>
        <time>2025-06-17T08:44:27Z</time>
      </trkpt>
      <trkpt lat="43.36299" lon="3.61049">
        <ele>16.2</ele>
        <time>2025-06-17T08:44:28Z</time>
      </trkpt>
      <trkpt lat="43.36304" lon="3.61056">
        <ele>16.2</ele>
        <time>2025-06-17T08:44:29Z</time>
      </trkpt>
      <trkpt lat="43.36309" lon="3.61064">
        <ele>16.2</ele>
        <time>2025-06-17T08:44:30Z</time>
      </trkpt>
      <trkpt lat="43.36313" lon="3.61071">
        <ele>16.2</ele>
        <time>2025-06-17T08:44:31Z</time>
      </trkpt>
      <trkpt lat="43.36317" lon="3.61078">
        <ele>16.2</ele>
        <time>2025-06-17T08:44:32Z</time>
      </trkpt>
      <trkpt lat="43.36321" lon="3.61085">
        <ele>16</ele>
        <time>2025-06-17T08:44:33Z</time>
      </trkpt>
      <trkpt lat="43.36325" lon="3.61092">
        <ele>16</ele>
        <time>2025-06-17T08:44:34Z</time>
      </trkpt>
      <trkpt lat="43.3633" lon="3.61099">
        <ele>16</ele>
        <time>2025-06-17T08:44:35Z</time>
      </trkpt>
      <trkpt lat="43.36334" lon="3.61106">
        <ele>16</ele>
        <time>2025-06-17T08:44:36Z</time>
      </trkpt>
      <trkpt lat="43.36338" lon="3.61113">
        <ele>16</ele>
        <time>2025-06-17T08:44:37Z</time>
      </trkpt>
      <trkpt lat="43.36343" lon="3.6112">
        <ele>16</ele>
        <time>2025-06-17T08:44:38Z</time>
      </trkpt>
      <trkpt lat="43.36346" lon="3.61127">
        <ele>16</ele>
        <time>2025-06-17T08:44:39Z</time>
      </trkpt>
      <trkpt lat="43.36351" lon="3.61134">
        <ele>16</ele>
        <time>2025-06-17T08:44:40Z</time>
      </trkpt>
      <trkpt lat="43.36355" lon="3.61141">
        <ele>16</ele>
        <time>2025-06-17T08:44:41Z</time>
      </trkpt>
      <trkpt lat="43.3636" lon="3.61148">
        <ele>16</ele>
        <time>2025-06-17T08:44:42Z</time>
      </trkpt>
      <trkpt lat="43.36364" lon="3.61155">
        <ele>16</ele>
        <time>2025-06-17T08:44:43Z</time>
      </trkpt>
      <trkpt lat="43.36369" lon="3.61162">
        <ele>16</ele>
        <time>2025-06-17T08:44:44Z</time>
      </trkpt>
      <trkpt lat="43.36373" lon="3.61169">
        <ele>16</ele>
        <time>2025-06-17T08:44:45Z</time>
      </trkpt>
      <trkpt lat="43.36377" lon="3.61176">
        <ele>16</ele>
        <time>2025-06-17T08:44:46Z</time>
      </trkpt>
      <trkpt lat="43.36382" lon="3.61183">
        <ele>16</ele>
        <time>2025-06-17T08:44:47Z</time>
      </trkpt>
      <trkpt lat="43.36386" lon="3.6119">
        <ele>16</ele>
        <time>2025-06-17T08:44:48Z</time>
      </trkpt>
      <trkpt lat="43.36391" lon="3.61196">
        <ele>16</ele>
        <time>2025-06-17T08:44:49Z</time>
      </trkpt>
      <trkpt lat="43.36395" lon="3.61203">
        <ele>16</ele>
        <time>2025-06-17T08:44:50Z</time>
      </trkpt>
      <trkpt lat="43.36399" lon="3.6121">
        <ele>16</ele>
        <time>2025-06-17T08:44:51Z</time>
      </trkpt>
      <trkpt lat="43.36404" lon="3.61217">
        <ele>16</ele>
        <time>2025-06-17T08:44:52Z</time>
      </trkpt>
      <trkpt lat="43.36408" lon="3.61224">
        <ele>16</ele>
        <time>2025-06-17T08:44:53Z</time>
      </trkpt>
      <trkpt lat="43.36412" lon="3.61231">
        <ele>16</ele>
        <time>2025-06-17T08:44:54Z</time>
      </trkpt>
      <trkpt lat="43.36416" lon="3.61237">
        <ele>16</ele>
        <time>2025-06-17T08:44:55Z</time>
      </trkpt>
      <trkpt lat="43.3642" lon="3.61244">
        <ele>16</ele>
        <time>2025-06-17T08:44:56Z</time>
      </trkpt>
      <trkpt lat="43.36424" lon="3.61251">
        <ele>16</ele>
        <time>2025-06-17T08:44:57Z</time>
      </trkpt>
      <trkpt lat="43.36428" lon="3.61258">
        <ele>16</ele>
        <time>2025-06-17T08:44:58Z</time>
      </trkpt>
      <trkpt lat="43.36432" lon="3.61264">
        <ele>16</ele>
        <time>2025-06-17T08:44:59Z</time>
      </trkpt>
      <trkpt lat="43.36437" lon="3.61271">
        <ele>16</ele>
        <time>2025-06-17T08:45:00Z</time>
      </trkpt>
      <trkpt lat="43.3644" lon="3.61277">
        <ele>16</ele>
        <time>2025-06-17T08:45:01Z</time>
      </trkpt>
      <trkpt lat="43.36445" lon="3.61285">
        <ele>16</ele>
        <time>2025-06-17T08:45:02Z</time>
      </trkpt>
      <trkpt lat="43.36449" lon="3.61292">
        <ele>16</ele>
        <time>2025-06-17T08:45:03Z</time>
      </trkpt>
      <trkpt lat="43.36454" lon="3.61299">
        <ele>16.2</ele>
        <time>2025-06-17T08:45:04Z</time>
      </trkpt>
      <trkpt lat="43.36457" lon="3.61305">
        <ele>16.2</ele>
        <time>2025-06-17T08:45:05Z</time>
      </trkpt>
      <trkpt lat="43.36462" lon="3.61312">
        <ele>16.2</ele>
        <time>2025-06-17T08:45:06Z</time>
      </trkpt>
      <trkpt lat="43.36466" lon="3.61318">
        <ele>16.2</ele>
        <time>2025-06-17T08:45:07Z</time>
      </trkpt>
      <trkpt lat="43.3647" lon="3.61325">
        <ele>16.2</ele>
        <time>2025-06-17T08:45:08Z</time>
      </trkpt>
      <trkpt lat="43.36474" lon="3.61331">
        <ele>16.2</ele>
        <time>2025-06-17T08:45:09Z</time>
      </trkpt>
      <trkpt lat="43.36478" lon="3.61337">
        <ele>16.2</ele>
        <time>2025-06-17T08:45:10Z</time>
      </trkpt>
      <trkpt lat="43.36482" lon="3.61343">
        <ele>16.4</ele>
        <time>2025-06-17T08:45:11Z</time>
      </trkpt>
      <trkpt lat="43.36486" lon="3.61351">
        <ele>16.4</ele>
        <time>2025-06-17T08:45:12Z</time>
      </trkpt>
      <trkpt lat="43.36489" lon="3.61358">
        <ele>16.2</ele>
        <time>2025-06-17T08:45:13Z</time>
      </trkpt>
      <trkpt lat="43.36493" lon="3.61365">
        <ele>16.2</ele>
        <time>2025-06-17T08:45:14Z</time>
      </trkpt>
      <trkpt lat="43.36497" lon="3.61372">
        <ele>16.2</ele>
        <time>2025-06-17T08:45:15Z</time>
      </trkpt>
      <trkpt lat="43.365" lon="3.61379">
        <ele>16.2</ele>
        <time>2025-06-17T08:45:16Z</time>
      </trkpt>
      <trkpt lat="43.36504" lon="3.61387">
        <ele>16.2</ele>
        <time>2025-06-17T08:45:17Z</time>
      </trkpt>
      <trkpt lat="43.36508" lon="3.61394">
        <ele>16.2</ele>
        <time>2025-06-17T08:45:18Z</time>
      </trkpt>
      <trkpt lat="43.36512" lon="3.61401">
        <ele>16</ele>
        <time>2025-06-17T08:45:19Z</time>
      </trkpt>
      <trkpt lat="43.36516" lon="3.61408">
        <ele>16</ele>
        <time>2025-06-17T08:45:20Z</time>
      </trkpt>
      <trkpt lat="43.36519" lon="3.61415">
        <ele>16</ele>
        <time>2025-06-17T08:45:21Z</time>
      </trkpt>
      <trkpt lat="43.36523" lon="3.61422">
        <ele>16</ele>
        <time>2025-06-17T08:45:22Z</time>
      </trkpt>
      <trkpt lat="43.36527" lon="3.61429">
        <ele>16</ele>
        <time>2025-06-17T08:45:23Z</time>
      </trkpt>
      <trkpt lat="43.36531" lon="3.61436">
        <ele>16.2</ele>
        <time>2025-06-17T08:45:24Z</time>
      </trkpt>
      <trkpt lat="43.36535" lon="3.61443">
        <ele>16.2</ele>
        <time>2025-06-17T08:45:25Z</time>
      </trkpt>
      <trkpt lat="43.36539" lon="3.61449">
        <ele>16.2</ele>
        <time>2025-06-17T08:45:26Z</time>
      </trkpt>
      <trkpt lat="43.36544" lon="3.61456">
        <ele>16.2</ele>
        <time>2025-06-17T08:45:27Z</time>
      </trkpt>
      <trkpt lat="43.36548" lon="3.61462">
        <ele>16.2</ele>
        <time>2025-06-17T08:45:28Z</time>
      </trkpt>
      <trkpt lat="43.36552" lon="3.61468">
        <ele>16.2</ele>
        <time>2025-06-17T08:45:29Z</time>
      </trkpt>
      <trkpt lat="43.36556" lon="3.61474">
        <ele>16.2</ele>
        <time>2025-06-17T08:45:30Z</time>
      </trkpt>
      <trkpt lat="43.3656" lon="3.61481">
        <ele>16.2</ele>
        <time>2025-06-17T08:45:31Z</time>
      </trkpt>
      <trkpt lat="43.36565" lon="3.61487">
        <ele>16.2</ele>
        <time>2025-06-17T08:45:32Z</time>
      </trkpt>
      <trkpt lat="43.36569" lon="3.61493">
        <ele>16.2</ele>
        <time>2025-06-17T08:45:33Z</time>
      </trkpt>
      <trkpt lat="43.36573" lon="3.615">
        <ele>16.2</ele>
        <time>2025-06-17T08:45:34Z</time>
      </trkpt>
      <trkpt lat="43.36577" lon="3.61506">
        <ele>16.2</ele>
        <time>2025-06-17T08:45:35Z</time>
      </trkpt>
      <trkpt lat="43.36581" lon="3.61512">
        <ele>16.2</ele>
        <time>2025-06-17T08:45:36Z</time>
      </trkpt>
      <trkpt lat="43.36585" lon="3.61519">
        <ele>16.2</ele>
        <time>2025-06-17T08:45:37Z</time>
      </trkpt>
      <trkpt lat="43.36589" lon="3.61525">
        <ele>16.2</ele>
        <time>2025-06-17T08:45:38Z</time>
      </trkpt>
      <trkpt lat="43.36593" lon="3.61532">
        <ele>16.2</ele>
        <time>2025-06-17T08:45:39Z</time>
      </trkpt>
      <trkpt lat="43.36597" lon="3.61539">
        <ele>16.2</ele>
        <time>2025-06-17T08:45:40Z</time>
      </trkpt>
      <trkpt lat="43.36601" lon="3.61545">
        <ele>16.2</ele>
        <time>2025-06-17T08:45:41Z</time>
      </trkpt>
      <trkpt lat="43.36605" lon="3.61553">
        <ele>16.2</ele>
        <time>2025-06-17T08:45:42Z</time>
      </trkpt>
      <trkpt lat="43.36608" lon="3.6156">
        <ele>16.2</ele>
        <time>2025-06-17T08:45:43Z</time>
      </trkpt>
      <trkpt lat="43.36612" lon="3.61568">
        <ele>16.2</ele>
        <time>2025-06-17T08:45:44Z</time>
      </trkpt>
      <trkpt lat="43.36616" lon="3.61575">
        <ele>16.2</ele>
        <time>2025-06-17T08:45:45Z</time>
      </trkpt>
      <trkpt lat="43.36621" lon="3.61581">
        <ele>16.2</ele>
        <time>2025-06-17T08:45:46Z</time>
      </trkpt>
      <trkpt lat="43.36625" lon="3.61587">
        <ele>16.2</ele>
        <time>2025-06-17T08:45:47Z</time>
      </trkpt>
      <trkpt lat="43.3663" lon="3.61594">
        <ele>16.2</ele>
        <time>2025-06-17T08:45:48Z</time>
      </trkpt>
      <trkpt lat="43.36634" lon="3.61599">
        <ele>16.2</ele>
        <time>2025-06-17T08:45:49Z</time>
      </trkpt>
      <trkpt lat="43.36641" lon="3.61604">
        <ele>16</ele>
        <time>2025-06-17T08:45:50Z</time>
      </trkpt>
      <trkpt lat="43.36646" lon="3.6161">
        <ele>16</ele>
        <time>2025-06-17T08:45:51Z</time>
      </trkpt>
      <trkpt lat="43.36651" lon="3.61615">
        <ele>16</ele>
        <time>2025-06-17T08:45:52Z</time>
      </trkpt>
      <trkpt lat="43.36655" lon="3.61621">
        <ele>16</ele>
        <time>2025-06-17T08:45:53Z</time>
      </trkpt>
      <trkpt lat="43.36659" lon="3.61627">
        <ele>16</ele>
        <time>2025-06-17T08:45:54Z</time>
      </trkpt>
      <trkpt lat="43.36663" lon="3.61634">
        <ele>16</ele>
        <time>2025-06-17T08:45:55Z</time>
      </trkpt>
      <trkpt lat="43.36667" lon="3.6164">
        <ele>16</ele>
        <time>2025-06-17T08:45:56Z</time>
      </trkpt>
      <trkpt lat="43.36671" lon="3.61646">
        <ele>16.2</ele>
        <time>2025-06-17T08:45:57Z</time>
      </trkpt>
      <trkpt lat="43.36675" lon="3.61652">
        <ele>16.2</ele>
        <time>2025-06-17T08:45:58Z</time>
      </trkpt>
      <trkpt lat="43.36679" lon="3.61658">
        <ele>16.2</ele>
        <time>2025-06-17T08:45:59Z</time>
      </trkpt>
      <trkpt lat="43.36684" lon="3.61665">
        <ele>16.2</ele>
        <time>2025-06-17T08:46:00Z</time>
      </trkpt>
      <trkpt lat="43.36688" lon="3.6167">
        <ele>16.2</ele>
        <time>2025-06-17T08:46:01Z</time>
      </trkpt>
      <trkpt lat="43.36693" lon="3.61676">
        <ele>16.2</ele>
        <time>2025-06-17T08:46:02Z</time>
      </trkpt>
      <trkpt lat="43.36697" lon="3.61683">
        <ele>16.2</ele>
        <time>2025-06-17T08:46:03Z</time>
      </trkpt>
      <trkpt lat="43.36702" lon="3.61689">
        <ele>16</ele>
        <time>2025-06-17T08:46:04Z</time>
      </trkpt>
      <trkpt lat="43.36707" lon="3.61696">
        <ele>16</ele>
        <time>2025-06-17T08:46:05Z</time>
      </trkpt>
      <trkpt lat="43.36712" lon="3.61703">
        <ele>16</ele>
        <time>2025-06-17T08:46:06Z</time>
      </trkpt>
      <trkpt lat="43.36717" lon="3.6171">
        <ele>16</ele>
        <time>2025-06-17T08:46:07Z</time>
      </trkpt>
      <trkpt lat="43.36721" lon="3.61716">
        <ele>16</ele>
        <time>2025-06-17T08:46:08Z</time>
      </trkpt>
      <trkpt lat="43.36726" lon="3.61723">
        <ele>15.8</ele>
        <time>2025-06-17T08:46:09Z</time>
      </trkpt>
      <trkpt lat="43.36732" lon="3.6173">
        <ele>15.8</ele>
        <time>2025-06-17T08:46:10Z</time>
      </trkpt>
      <trkpt lat="43.36737" lon="3.61736">
        <ele>15.8</ele>
        <time>2025-06-17T08:46:11Z</time>
      </trkpt>
      <trkpt lat="43.36742" lon="3.61742">
        <ele>15.8</ele>
        <time>2025-06-17T08:46:12Z</time>
      </trkpt>
      <trkpt lat="43.36748" lon="3.61748">
        <ele>15.8</ele>
        <time>2025-06-17T08:46:13Z</time>
      </trkpt>
      <trkpt lat="43.36753" lon="3.61754">
        <ele>15.8</ele>
        <time>2025-06-17T08:46:14Z</time>
      </trkpt>
      <trkpt lat="43.36758" lon="3.61761">
        <ele>15.8</ele>
        <time>2025-06-17T08:46:15Z</time>
      </trkpt>
      <trkpt lat="43.36762" lon="3.61768">
        <ele>15.8</ele>
        <time>2025-06-17T08:46:16Z</time>
      </trkpt>
      <trkpt lat="43.36767" lon="3.61774">
        <ele>15.8</ele>
        <time>2025-06-17T08:46:17Z</time>
      </trkpt>
      <trkpt lat="43.36771" lon="3.61781">
        <ele>15.8</ele>
        <time>2025-06-17T08:46:18Z</time>
      </trkpt>
      <trkpt lat="43.36775" lon="3.61787">
        <ele>15.8</ele>
        <time>2025-06-17T08:46:19Z</time>
      </trkpt>
      <trkpt lat="43.3678" lon="3.61794">
        <ele>15.8</ele>
        <time>2025-06-17T08:46:20Z</time>
      </trkpt>
      <trkpt lat="43.36784" lon="3.618">
        <ele>15.8</ele>
        <time>2025-06-17T08:46:21Z</time>
      </trkpt>
      <trkpt lat="43.36788" lon="3.61807">
        <ele>15.8</ele>
        <time>2025-06-17T08:46:22Z</time>
      </trkpt>
      <trkpt lat="43.36792" lon="3.61813">
        <ele>15.8</ele>
        <time>2025-06-17T08:46:23Z</time>
      </trkpt>
      <trkpt lat="43.36796" lon="3.6182">
        <ele>15.8</ele>
        <time>2025-06-17T08:46:24Z</time>
      </trkpt>
      <trkpt lat="43.368" lon="3.61825">
        <ele>15.8</ele>
        <time>2025-06-17T08:46:25Z</time>
      </trkpt>
      <trkpt lat="43.36804" lon="3.61831">
        <ele>15.8</ele>
        <time>2025-06-17T08:46:26Z</time>
      </trkpt>
      <trkpt lat="43.36809" lon="3.61837">
        <ele>15.8</ele>
        <time>2025-06-17T08:46:27Z</time>
      </trkpt>
      <trkpt lat="43.36814" lon="3.61842">
        <ele>15.8</ele>
        <time>2025-06-17T08:46:28Z</time>
      </trkpt>
      <trkpt lat="43.36819" lon="3.61848">
        <ele>15.8</ele>
        <time>2025-06-17T08:46:29Z</time>
      </trkpt>
      <trkpt lat="43.36824" lon="3.61854">
        <ele>15.6</ele>
        <time>2025-06-17T08:46:30Z</time>
      </trkpt>
      <trkpt lat="43.36829" lon="3.6186">
        <ele>15.6</ele>
        <time>2025-06-17T08:46:31Z</time>
      </trkpt>
      <trkpt lat="43.36835" lon="3.61866">
        <ele>15.6</ele>
        <time>2025-06-17T08:46:32Z</time>
      </trkpt>
      <trkpt lat="43.3684" lon="3.61873">
        <ele>15.6</ele>
        <time>2025-06-17T08:46:33Z</time>
      </trkpt>
      <trkpt lat="43.36846" lon="3.61879">
        <ele>15.6</ele>
        <time>2025-06-17T08:46:34Z</time>
      </trkpt>
      <trkpt lat="43.36851" lon="3.61885">
        <ele>15.6</ele>
        <time>2025-06-17T08:46:35Z</time>
      </trkpt>
      <trkpt lat="43.36856" lon="3.61892">
        <ele>15.6</ele>
        <time>2025-06-17T08:46:36Z</time>
      </trkpt>
      <trkpt lat="43.36862" lon="3.61898">
        <ele>15.6</ele>
        <time>2025-06-17T08:46:37Z</time>
      </trkpt>
      <trkpt lat="43.36868" lon="3.61905">
        <ele>15.6</ele>
        <time>2025-06-17T08:46:38Z</time>
      </trkpt>
      <trkpt lat="43.36873" lon="3.61912">
        <ele>15.6</ele>
        <time>2025-06-17T08:46:39Z</time>
      </trkpt>
      <trkpt lat="43.36878" lon="3.61919">
        <ele>15.6</ele>
        <time>2025-06-17T08:46:40Z</time>
      </trkpt>
      <trkpt lat="43.36882" lon="3.61927">
        <ele>15.6</ele>
        <time>2025-06-17T08:46:41Z</time>
      </trkpt>
      <trkpt lat="43.36887" lon="3.61935">
        <ele>15.6</ele>
        <time>2025-06-17T08:46:42Z</time>
      </trkpt>
      <trkpt lat="43.36892" lon="3.61943">
        <ele>15.6</ele>
        <time>2025-06-17T08:46:43Z</time>
      </trkpt>
      <trkpt lat="43.36897" lon="3.6195">
        <ele>15.8</ele>
        <time>2025-06-17T08:46:44Z</time>
      </trkpt>
      <trkpt lat="43.36902" lon="3.61957">
        <ele>15.8</ele>
        <time>2025-06-17T08:46:45Z</time>
      </trkpt>
      <trkpt lat="43.36906" lon="3.61965">
        <ele>15.8</ele>
        <time>2025-06-17T08:46:46Z</time>
      </trkpt>
      <trkpt lat="43.36911" lon="3.61972">
        <ele>15.8</ele>
        <time>2025-06-17T08:46:47Z</time>
      </trkpt>
      <trkpt lat="43.36916" lon="3.6198">
        <ele>15.8</ele>
        <time>2025-06-17T08:46:48Z</time>
      </trkpt>
      <trkpt lat="43.3692" lon="3.61987">
        <ele>15.8</ele>
        <time>2025-06-17T08:46:49Z</time>
      </trkpt>
      <trkpt lat="43.36925" lon="3.61994">
        <ele>16</ele>
        <time>2025-06-17T08:46:50Z</time>
      </trkpt>
      <trkpt lat="43.3693" lon="3.62001">
        <ele>16</ele>
        <time>2025-06-17T08:46:51Z</time>
      </trkpt>
      <trkpt lat="43.36935" lon="3.62009">
        <ele>16</ele>
        <time>2025-06-17T08:46:52Z</time>
      </trkpt>
      <trkpt lat="43.3694" lon="3.62016">
        <ele>16</ele>
        <time>2025-06-17T08:46:53Z</time>
      </trkpt>
      <trkpt lat="43.36945" lon="3.62023">
        <ele>16</ele>
        <time>2025-06-17T08:46:54Z</time>
      </trkpt>
      <trkpt lat="43.3695" lon="3.62029">
        <ele>16</ele>
        <time>2025-06-17T08:46:55Z</time>
      </trkpt>
      <trkpt lat="43.36955" lon="3.62037">
        <ele>16</ele>
        <time>2025-06-17T08:46:56Z</time>
      </trkpt>
      <trkpt lat="43.3696" lon="3.62044">
        <ele>16</ele>
        <time>2025-06-17T08:46:57Z</time>
      </trkpt>
      <trkpt lat="43.36965" lon="3.6205">
        <ele>16</ele>
        <time>2025-06-17T08:46:58Z</time>
      </trkpt>
      <trkpt lat="43.3697" lon="3.62058">
        <ele>16</ele>
        <time>2025-06-17T08:46:59Z</time>
      </trkpt>
      <trkpt lat="43.36975" lon="3.62065">
        <ele>16</ele>
        <time>2025-06-17T08:47:00Z</time>
      </trkpt>
      <trkpt lat="43.3698" lon="3.62072">
        <ele>16</ele>
        <time>2025-06-17T08:47:01Z</time>
      </trkpt>
      <trkpt lat="43.36985" lon="3.62079">
        <ele>16</ele>
        <time>2025-06-17T08:47:02Z</time>
      </trkpt>
      <trkpt lat="43.3699" lon="3.62085">
        <ele>15.8</ele>
        <time>2025-06-17T08:47:03Z</time>
      </trkpt>
      <trkpt lat="43.36996" lon="3.62092">
        <ele>15.8</ele>
        <time>2025-06-17T08:47:04Z</time>
      </trkpt>
      <trkpt lat="43.37001" lon="3.62099">
        <ele>15.8</ele>
        <time>2025-06-17T08:47:05Z</time>
      </trkpt>
      <trkpt lat="43.37006" lon="3.62106">
        <ele>15.8</ele>
        <time>2025-06-17T08:47:06Z</time>
      </trkpt>
      <trkpt lat="43.37011" lon="3.62113">
        <ele>15.8</ele>
        <time>2025-06-17T08:47:07Z</time>
      </trkpt>
      <trkpt lat="43.37016" lon="3.6212">
        <ele>15.8</ele>
        <time>2025-06-17T08:47:08Z</time>
      </trkpt>
      <trkpt lat="43.3702" lon="3.62127">
        <ele>15.8</ele>
        <time>2025-06-17T08:47:09Z</time>
      </trkpt>
      <trkpt lat="43.37025" lon="3.62134">
        <ele>15.8</ele>
        <time>2025-06-17T08:47:10Z</time>
      </trkpt>
      <trkpt lat="43.3703" lon="3.6214">
        <ele>15.8</ele>
        <time>2025-06-17T08:47:11Z</time>
      </trkpt>
      <trkpt lat="43.37035" lon="3.62148">
        <ele>15.8</ele>
        <time>2025-06-17T08:47:12Z</time>
      </trkpt>
      <trkpt lat="43.37039" lon="3.62155">
        <ele>15.8</ele>
        <time>2025-06-17T08:47:13Z</time>
      </trkpt>
      <trkpt lat="43.37044" lon="3.62162">
        <ele>15.8</ele>
        <time>2025-06-17T08:47:14Z</time>
      </trkpt>
      <trkpt lat="43.37049" lon="3.62168">
        <ele>15.8</ele>
        <time>2025-06-17T08:47:15Z</time>
      </trkpt>
      <trkpt lat="43.37054" lon="3.62175">
        <ele>15.8</ele>
        <time>2025-06-17T08:47:16Z</time>
      </trkpt>
      <trkpt lat="43.37059" lon="3.62182">
        <ele>15.8</ele>
        <time>2025-06-17T08:47:17Z</time>
      </trkpt>
      <trkpt lat="43.37063" lon="3.62189">
        <ele>15.8</ele>
        <time>2025-06-17T08:47:18Z</time>
      </trkpt>
      <trkpt lat="43.37068" lon="3.62195">
        <ele>15.8</ele>
        <time>2025-06-17T08:47:19Z</time>
      </trkpt>
      <trkpt lat="43.37073" lon="3.62202">
        <ele>15.8</ele>
        <time>2025-06-17T08:47:20Z</time>
      </trkpt>
      <trkpt lat="43.37078" lon="3.6221">
        <ele>15.8</ele>
        <time>2025-06-17T08:47:21Z</time>
      </trkpt>
      <trkpt lat="43.37083" lon="3.62217">
        <ele>15.8</ele>
        <time>2025-06-17T08:47:22Z</time>
      </trkpt>
      <trkpt lat="43.37087" lon="3.62224">
        <ele>15.8</ele>
        <time>2025-06-17T08:47:23Z</time>
      </trkpt>
      <trkpt lat="43.37092" lon="3.62231">
        <ele>15.8</ele>
        <time>2025-06-17T08:47:24Z</time>
      </trkpt>
      <trkpt lat="43.37097" lon="3.62237">
        <ele>15.8</ele>
        <time>2025-06-17T08:47:25Z</time>
      </trkpt>
      <trkpt lat="43.37102" lon="3.62244">
        <ele>15.8</ele>
        <time>2025-06-17T08:47:26Z</time>
      </trkpt>
      <trkpt lat="43.37106" lon="3.62251">
        <ele>15.8</ele>
        <time>2025-06-17T08:47:27Z</time>
      </trkpt>
      <trkpt lat="43.37111" lon="3.62258">
        <ele>15.8</ele>
        <time>2025-06-17T08:47:28Z</time>
      </trkpt>
      <trkpt lat="43.37116" lon="3.62264">
        <ele>15.8</ele>
        <time>2025-06-17T08:47:29Z</time>
      </trkpt>
      <trkpt lat="43.37121" lon="3.62271">
        <ele>15.8</ele>
        <time>2025-06-17T08:47:30Z</time>
      </trkpt>
      <trkpt lat="43.37125" lon="3.62278">
        <ele>15.8</ele>
        <time>2025-06-17T08:47:31Z</time>
      </trkpt>
      <trkpt lat="43.3713" lon="3.62285">
        <ele>15.8</ele>
        <time>2025-06-17T08:47:32Z</time>
      </trkpt>
      <trkpt lat="43.37135" lon="3.62291">
        <ele>15.6</ele>
        <time>2025-06-17T08:47:33Z</time>
      </trkpt>
      <trkpt lat="43.3714" lon="3.62298">
        <ele>15.6</ele>
        <time>2025-06-17T08:47:34Z</time>
      </trkpt>
      <trkpt lat="43.37145" lon="3.62305">
        <ele>15.6</ele>
        <time>2025-06-17T08:47:35Z</time>
      </trkpt>
      <trkpt lat="43.37149" lon="3.62311">
        <ele>15.6</ele>
        <time>2025-06-17T08:47:36Z</time>
      </trkpt>
      <trkpt lat="43.37154" lon="3.62318">
        <ele>15.6</ele>
        <time>2025-06-17T08:47:37Z</time>
      </trkpt>
      <trkpt lat="43.37158" lon="3.62325">
        <ele>15.6</ele>
        <time>2025-06-17T08:47:38Z</time>
      </trkpt>
      <trkpt lat="43.37163" lon="3.62332">
        <ele>15.6</ele>
        <time>2025-06-17T08:47:39Z</time>
      </trkpt>
      <trkpt lat="43.37168" lon="3.62339">
        <ele>15.6</ele>
        <time>2025-06-17T08:47:40Z</time>
      </trkpt>
      <trkpt lat="43.37172" lon="3.62345">
        <ele>15.6</ele>
        <time>2025-06-17T08:47:41Z</time>
      </trkpt>
      <trkpt lat="43.37177" lon="3.62352">
        <ele>15.6</ele>
        <time>2025-06-17T08:47:42Z</time>
      </trkpt>
      <trkpt lat="43.37181" lon="3.62359">
        <ele>15.6</ele>
        <time>2025-06-17T08:47:43Z</time>
      </trkpt>
      <trkpt lat="43.37186" lon="3.62366">
        <ele>15.6</ele>
        <time>2025-06-17T08:47:44Z</time>
      </trkpt>
      <trkpt lat="43.37191" lon="3.62372">
        <ele>15.6</ele>
        <time>2025-06-17T08:47:45Z</time>
      </trkpt>
      <trkpt lat="43.37196" lon="3.62379">
        <ele>15.6</ele>
        <time>2025-06-17T08:47:46Z</time>
      </trkpt>
      <trkpt lat="43.372" lon="3.62385">
        <ele>15.6</ele>
        <time>2025-06-17T08:47:47Z</time>
      </trkpt>
      <trkpt lat="43.37205" lon="3.62392">
        <ele>15.6</ele>
        <time>2025-06-17T08:47:48Z</time>
      </trkpt>
      <trkpt lat="43.3721" lon="3.62399">
        <ele>15.6</ele>
        <time>2025-06-17T08:47:49Z</time>
      </trkpt>
      <trkpt lat="43.37214" lon="3.62406">
        <ele>15.6</ele>
        <time>2025-06-17T08:47:50Z</time>
      </trkpt>
      <trkpt lat="43.37219" lon="3.62412">
        <ele>15.6</ele>
        <time>2025-06-17T08:47:51Z</time>
      </trkpt>
      <trkpt lat="43.37223" lon="3.62419">
        <ele>15.6</ele>
        <time>2025-06-17T08:47:52Z</time>
      </trkpt>
      <trkpt lat="43.37227" lon="3.62425">
        <ele>15.6</ele>
        <time>2025-06-17T08:47:53Z</time>
      </trkpt>
      <trkpt lat="43.37232" lon="3.62432">
        <ele>15.6</ele>
        <time>2025-06-17T08:47:54Z</time>
      </trkpt>
      <trkpt lat="43.37237" lon="3.62439">
        <ele>15.6</ele>
        <time>2025-06-17T08:47:55Z</time>
      </trkpt>
      <trkpt lat="43.37241" lon="3.62445">
        <ele>15.6</ele>
        <time>2025-06-17T08:47:56Z</time>
      </trkpt>
      <trkpt lat="43.37246" lon="3.62452">
        <ele>15.6</ele>
        <time>2025-06-17T08:47:57Z</time>
      </trkpt>
      <trkpt lat="43.3725" lon="3.62458">
        <ele>15.6</ele>
        <time>2025-06-17T08:47:58Z</time>
      </trkpt>
      <trkpt lat="43.37255" lon="3.62465">
        <ele>15.6</ele>
        <time>2025-06-17T08:47:59Z</time>
      </trkpt>
      <trkpt lat="43.37259" lon="3.62471">
        <ele>15.6</ele>
        <time>2025-06-17T08:48:00Z</time>
      </trkpt>
      <trkpt lat="43.37264" lon="3.62478">
        <ele>15.6</ele>
        <time>2025-06-17T08:48:01Z</time>
      </trkpt>
      <trkpt lat="43.37269" lon="3.62485">
        <ele>15.6</ele>
        <time>2025-06-17T08:48:02Z</time>
      </trkpt>
      <trkpt lat="43.37273" lon="3.62491">
        <ele>15.6</ele>
        <time>2025-06-17T08:48:03Z</time>
      </trkpt>
      <trkpt lat="43.37278" lon="3.62498">
        <ele>15.6</ele>
        <time>2025-06-17T08:48:04Z</time>
      </trkpt>
      <trkpt lat="43.37282" lon="3.62504">
        <ele>15.6</ele>
        <time>2025-06-17T08:48:05Z</time>
      </trkpt>
      <trkpt lat="43.37287" lon="3.62511">
        <ele>15.6</ele>
        <time>2025-06-17T08:48:06Z</time>
      </trkpt>
      <trkpt lat="43.37291" lon="3.62518">
        <ele>15.6</ele>
        <time>2025-06-17T08:48:07Z</time>
      </trkpt>
      <trkpt lat="43.37296" lon="3.62525">
        <ele>15.6</ele>
        <time>2025-06-17T08:48:08Z</time>
      </trkpt>
      <trkpt lat="43.37301" lon="3.62531">
        <ele>15.6</ele>
        <time>2025-06-17T08:48:09Z</time>
      </trkpt>
      <trkpt lat="43.37306" lon="3.62538">
        <ele>15.6</ele>
        <time>2025-06-17T08:48:10Z</time>
      </trkpt>
      <trkpt lat="43.3731" lon="3.62545">
        <ele>15.6</ele>
        <time>2025-06-17T08:48:11Z</time>
      </trkpt>
      <trkpt lat="43.37315" lon="3.62552">
        <ele>15.6</ele>
        <time>2025-06-17T08:48:12Z</time>
      </trkpt>
      <trkpt lat="43.3732" lon="3.62558">
        <ele>15.6</ele>
        <time>2025-06-17T08:48:13Z</time>
      </trkpt>
      <trkpt lat="43.37324" lon="3.62565">
        <ele>15.6</ele>
        <time>2025-06-17T08:48:14Z</time>
      </trkpt>
      <trkpt lat="43.37329" lon="3.62572">
        <ele>15.6</ele>
        <time>2025-06-17T08:48:15Z</time>
      </trkpt>
      <trkpt lat="43.37334" lon="3.62579">
        <ele>15.6</ele>
        <time>2025-06-17T08:48:16Z</time>
      </trkpt>
      <trkpt lat="43.37338" lon="3.62585">
        <ele>15.6</ele>
        <time>2025-06-17T08:48:17Z</time>
      </trkpt>
      <trkpt lat="43.37343" lon="3.62592">
        <ele>15.6</ele>
        <time>2025-06-17T08:48:18Z</time>
      </trkpt>
      <trkpt lat="43.37347" lon="3.62598">
        <ele>15.6</ele>
        <time>2025-06-17T08:48:19Z</time>
      </trkpt>
      <trkpt lat="43.37352" lon="3.62605">
        <ele>15.6</ele>
        <time>2025-06-17T08:48:20Z</time>
      </trkpt>
      <trkpt lat="43.37356" lon="3.62611">
        <ele>15.6</ele>
        <time>2025-06-17T08:48:21Z</time>
      </trkpt>
      <trkpt lat="43.37361" lon="3.62618">
        <ele>15.6</ele>
        <time>2025-06-17T08:48:22Z</time>
      </trkpt>
      <trkpt lat="43.37366" lon="3.62625">
        <ele>15.6</ele>
        <time>2025-06-17T08:48:23Z</time>
      </trkpt>
      <trkpt lat="43.3737" lon="3.62632">
        <ele>15.6</ele>
        <time>2025-06-17T08:48:24Z</time>
      </trkpt>
      <trkpt lat="43.37374" lon="3.62638">
        <ele>15.6</ele>
        <time>2025-06-17T08:48:25Z</time>
      </trkpt>
      <trkpt lat="43.37379" lon="3.62645">
        <ele>15.6</ele>
        <time>2025-06-17T08:48:26Z</time>
      </trkpt>
      <trkpt lat="43.37383" lon="3.62652">
        <ele>15.6</ele>
        <time>2025-06-17T08:48:27Z</time>
      </trkpt>
      <trkpt lat="43.37388" lon="3.62659">
        <ele>15.6</ele>
        <time>2025-06-17T08:48:28Z</time>
      </trkpt>
      <trkpt lat="43.37393" lon="3.62666">
        <ele>15.6</ele>
        <time>2025-06-17T08:48:29Z</time>
      </trkpt>
      <trkpt lat="43.37397" lon="3.62672">
        <ele>15.6</ele>
        <time>2025-06-17T08:48:30Z</time>
      </trkpt>
      <trkpt lat="43.37402" lon="3.62679">
        <ele>15.6</ele>
        <time>2025-06-17T08:48:31Z</time>
      </trkpt>
      <trkpt lat="43.37406" lon="3.62686">
        <ele>15.6</ele>
        <time>2025-06-17T08:48:32Z</time>
      </trkpt>
      <trkpt lat="43.37411" lon="3.62693">
        <ele>15.6</ele>
        <time>2025-06-17T08:48:33Z</time>
      </trkpt>
      <trkpt lat="43.37415" lon="3.627">
        <ele>15.6</ele>
        <time>2025-06-17T08:48:34Z</time>
      </trkpt>
      <trkpt lat="43.37419" lon="3.62707">
        <ele>15.6</ele>
        <time>2025-06-17T08:48:35Z</time>
      </trkpt>
      <trkpt lat="43.37424" lon="3.62714">
        <ele>15.4</ele>
        <time>2025-06-17T08:48:36Z</time>
      </trkpt>
      <trkpt lat="43.37428" lon="3.6272">
        <ele>15.4</ele>
        <time>2025-06-17T08:48:37Z</time>
      </trkpt>
      <trkpt lat="43.37433" lon="3.62727">
        <ele>15.4</ele>
        <time>2025-06-17T08:48:38Z</time>
      </trkpt>
      <trkpt lat="43.37437" lon="3.62733">
        <ele>15.4</ele>
        <time>2025-06-17T08:48:39Z</time>
      </trkpt>
      <trkpt lat="43.37442" lon="3.6274">
        <ele>15.4</ele>
        <time>2025-06-17T08:48:40Z</time>
      </trkpt>
      <trkpt lat="43.37446" lon="3.62746">
        <ele>15.4</ele>
        <time>2025-06-17T08:48:41Z</time>
      </trkpt>
      <trkpt lat="43.37451" lon="3.62753">
        <ele>15.4</ele>
        <time>2025-06-17T08:48:42Z</time>
      </trkpt>
      <trkpt lat="43.37455" lon="3.62759">
        <ele>15.4</ele>
        <time>2025-06-17T08:48:43Z</time>
      </trkpt>
      <trkpt lat="43.3746" lon="3.62765">
        <ele>15.4</ele>
        <time>2025-06-17T08:48:44Z</time>
      </trkpt>
      <trkpt lat="43.37465" lon="3.62771">
        <ele>15.4</ele>
        <time>2025-06-17T08:48:45Z</time>
      </trkpt>
      <trkpt lat="43.3747" lon="3.62777">
        <ele>15.4</ele>
        <time>2025-06-17T08:48:46Z</time>
      </trkpt>
      <trkpt lat="43.37474" lon="3.62783">
        <ele>15.4</ele>
        <time>2025-06-17T08:48:47Z</time>
      </trkpt>
      <trkpt lat="43.37479" lon="3.62789">
        <ele>15.4</ele>
        <time>2025-06-17T08:48:48Z</time>
      </trkpt>
      <trkpt lat="43.37483" lon="3.62795">
        <ele>15.4</ele>
        <time>2025-06-17T08:48:49Z</time>
      </trkpt>
      <trkpt lat="43.37487" lon="3.62801">
        <ele>15.6</ele>
        <time>2025-06-17T08:48:50Z</time>
      </trkpt>
      <trkpt lat="43.37492" lon="3.62807">
        <ele>15.4</ele>
        <time>2025-06-17T08:48:51Z</time>
      </trkpt>
      <trkpt lat="43.37497" lon="3.62814">
        <ele>15.6</ele>
        <time>2025-06-17T08:48:52Z</time>
      </trkpt>
      <trkpt lat="43.37502" lon="3.6282">
        <ele>15.6</ele>
        <time>2025-06-17T08:48:53Z</time>
      </trkpt>
      <trkpt lat="43.37506" lon="3.62827">
        <ele>15.6</ele>
        <time>2025-06-17T08:48:54Z</time>
      </trkpt>
      <trkpt lat="43.37511" lon="3.62832">
        <ele>15.6</ele>
        <time>2025-06-17T08:48:55Z</time>
      </trkpt>
      <trkpt lat="43.37516" lon="3.62839">
        <ele>15.6</ele>
        <time>2025-06-17T08:48:56Z</time>
      </trkpt>
      <trkpt lat="43.3752" lon="3.62845">
        <ele>15.4</ele>
        <time>2025-06-17T08:48:57Z</time>
      </trkpt>
      <trkpt lat="43.37525" lon="3.62852">
        <ele>15.4</ele>
        <time>2025-06-17T08:48:58Z</time>
      </trkpt>
      <trkpt lat="43.3753" lon="3.62858">
        <ele>15.4</ele>
        <time>2025-06-17T08:48:59Z</time>
      </trkpt>
      <trkpt lat="43.37534" lon="3.62864">
        <ele>15.4</ele>
        <time>2025-06-17T08:49:00Z</time>
      </trkpt>
      <trkpt lat="43.37539" lon="3.62871">
        <ele>15.4</ele>
        <time>2025-06-17T08:49:01Z</time>
      </trkpt>
      <trkpt lat="43.37543" lon="3.62877">
        <ele>15.6</ele>
        <time>2025-06-17T08:49:02Z</time>
      </trkpt>
      <trkpt lat="43.37548" lon="3.62883">
        <ele>15.6</ele>
        <time>2025-06-17T08:49:03Z</time>
      </trkpt>
      <trkpt lat="43.37552" lon="3.6289">
        <ele>15.6</ele>
        <time>2025-06-17T08:49:04Z</time>
      </trkpt>
      <trkpt lat="43.37556" lon="3.62896">
        <ele>15.6</ele>
        <time>2025-06-17T08:49:05Z</time>
      </trkpt>
      <trkpt lat="43.3756" lon="3.62901">
        <ele>15.6</ele>
        <time>2025-06-17T08:49:06Z</time>
      </trkpt>
      <trkpt lat="43.37565" lon="3.62907">
        <ele>15.6</ele>
        <time>2025-06-17T08:49:07Z</time>
      </trkpt>
      <trkpt lat="43.3757" lon="3.62913">
        <ele>15.6</ele>
        <time>2025-06-17T08:49:08Z</time>
      </trkpt>
      <trkpt lat="43.37575" lon="3.6292">
        <ele>15.6</ele>
        <time>2025-06-17T08:49:09Z</time>
      </trkpt>
      <trkpt lat="43.37579" lon="3.62926">
        <ele>15.6</ele>
        <time>2025-06-17T08:49:10Z</time>
      </trkpt>
      <trkpt lat="43.37583" lon="3.62934">
        <ele>15.6</ele>
        <time>2025-06-17T08:49:11Z</time>
      </trkpt>
      <trkpt lat="43.37588" lon="3.62941">
        <ele>15.6</ele>
        <time>2025-06-17T08:49:12Z</time>
      </trkpt>
      <trkpt lat="43.37592" lon="3.62948">
        <ele>15.6</ele>
        <time>2025-06-17T08:49:13Z</time>
      </trkpt>
      <trkpt lat="43.37596" lon="3.62955">
        <ele>15.6</ele>
        <time>2025-06-17T08:49:14Z</time>
      </trkpt>
      <trkpt lat="43.376" lon="3.62963">
        <ele>15.4</ele>
        <time>2025-06-17T08:49:15Z</time>
      </trkpt>
      <trkpt lat="43.37604" lon="3.6297">
        <ele>15.4</ele>
        <time>2025-06-17T08:49:16Z</time>
      </trkpt>
      <trkpt lat="43.37609" lon="3.62978">
        <ele>15.4</ele>
        <time>2025-06-17T08:49:17Z</time>
      </trkpt>
      <trkpt lat="43.37613" lon="3.62984">
        <ele>15.6</ele>
        <time>2025-06-17T08:49:18Z</time>
      </trkpt>
      <trkpt lat="43.37617" lon="3.6299">
        <ele>15.6</ele>
        <time>2025-06-17T08:49:19Z</time>
      </trkpt>
      <trkpt lat="43.37622" lon="3.62998">
        <ele>15.6</ele>
        <time>2025-06-17T08:49:20Z</time>
      </trkpt>
      <trkpt lat="43.37626" lon="3.63005">
        <ele>15.6</ele>
        <time>2025-06-17T08:49:21Z</time>
      </trkpt>
      <trkpt lat="43.37631" lon="3.63012">
        <ele>15.6</ele>
        <time>2025-06-17T08:49:22Z</time>
      </trkpt>
      <trkpt lat="43.37635" lon="3.6302">
        <ele>15.6</ele>
        <time>2025-06-17T08:49:23Z</time>
      </trkpt>
      <trkpt lat="43.3764" lon="3.63026">
        <ele>15.8</ele>
        <time>2025-06-17T08:49:24Z</time>
      </trkpt>
      <trkpt lat="43.37644" lon="3.63033">
        <ele>15.8</ele>
        <time>2025-06-17T08:49:25Z</time>
      </trkpt>
      <trkpt lat="43.37648" lon="3.6304">
        <ele>15.8</ele>
        <time>2025-06-17T08:49:26Z</time>
      </trkpt>
      <trkpt lat="43.37653" lon="3.63047">
        <ele>15.8</ele>
        <time>2025-06-17T08:49:27Z</time>
      </trkpt>
      <trkpt lat="43.37657" lon="3.63055">
        <ele>15.8</ele>
        <time>2025-06-17T08:49:28Z</time>
      </trkpt>
      <trkpt lat="43.37662" lon="3.63062">
        <ele>15.8</ele>
        <time>2025-06-17T08:49:29Z</time>
      </trkpt>
      <trkpt lat="43.37666" lon="3.63069">
        <ele>15.8</ele>
        <time>2025-06-17T08:49:30Z</time>
      </trkpt>
      <trkpt lat="43.37671" lon="3.63076">
        <ele>15.8</ele>
        <time>2025-06-17T08:49:31Z</time>
      </trkpt>
      <trkpt lat="43.37675" lon="3.63083">
        <ele>15.8</ele>
        <time>2025-06-17T08:49:32Z</time>
      </trkpt>
      <trkpt lat="43.37679" lon="3.6309">
        <ele>15.8</ele>
        <time>2025-06-17T08:49:33Z</time>
      </trkpt>
      <trkpt lat="43.37684" lon="3.63097">
        <ele>16</ele>
        <time>2025-06-17T08:49:34Z</time>
      </trkpt>
      <trkpt lat="43.37688" lon="3.63103">
        <ele>16</ele>
        <time>2025-06-17T08:49:35Z</time>
      </trkpt>
      <trkpt lat="43.37692" lon="3.6311">
        <ele>16</ele>
        <time>2025-06-17T08:49:36Z</time>
      </trkpt>
      <trkpt lat="43.37697" lon="3.63117">
        <ele>16.2</ele>
        <time>2025-06-17T08:49:37Z</time>
      </trkpt>
      <trkpt lat="43.37701" lon="3.63123">
        <ele>16.2</ele>
        <time>2025-06-17T08:49:38Z</time>
      </trkpt>
      <trkpt lat="43.37705" lon="3.63129">
        <ele>16</ele>
        <time>2025-06-17T08:49:39Z</time>
      </trkpt>
      <trkpt lat="43.37709" lon="3.63136">
        <ele>16</ele>
        <time>2025-06-17T08:49:40Z</time>
      </trkpt>
      <trkpt lat="43.37713" lon="3.63141">
        <ele>16</ele>
        <time>2025-06-17T08:49:41Z</time>
      </trkpt>
      <trkpt lat="43.37718" lon="3.63149">
        <ele>16</ele>
        <time>2025-06-17T08:49:42Z</time>
      </trkpt>
      <trkpt lat="43.37722" lon="3.63156">
        <ele>16</ele>
        <time>2025-06-17T08:49:43Z</time>
      </trkpt>
      <trkpt lat="43.37727" lon="3.63162">
        <ele>16</ele>
        <time>2025-06-17T08:49:44Z</time>
      </trkpt>
      <trkpt lat="43.37731" lon="3.63169">
        <ele>16</ele>
        <time>2025-06-17T08:49:45Z</time>
      </trkpt>
      <trkpt lat="43.37735" lon="3.63176">
        <ele>16</ele>
        <time>2025-06-17T08:49:46Z</time>
      </trkpt>
      <trkpt lat="43.3774" lon="3.63183">
        <ele>16</ele>
        <time>2025-06-17T08:49:47Z</time>
      </trkpt>
      <trkpt lat="43.37744" lon="3.6319">
        <ele>16</ele>
        <time>2025-06-17T08:49:48Z</time>
      </trkpt>
      <trkpt lat="43.37749" lon="3.63197">
        <ele>16</ele>
        <time>2025-06-17T08:49:49Z</time>
      </trkpt>
      <trkpt lat="43.37753" lon="3.63203">
        <ele>16</ele>
        <time>2025-06-17T08:49:50Z</time>
      </trkpt>
      <trkpt lat="43.37758" lon="3.6321">
        <ele>16.2</ele>
        <time>2025-06-17T08:49:51Z</time>
      </trkpt>
      <trkpt lat="43.37762" lon="3.63217">
        <ele>16.2</ele>
        <time>2025-06-17T08:49:52Z</time>
      </trkpt>
      <trkpt lat="43.37766" lon="3.63224">
        <ele>16.2</ele>
        <time>2025-06-17T08:49:53Z</time>
      </trkpt>
      <trkpt lat="43.3777" lon="3.63231">
        <ele>16.2</ele>
        <time>2025-06-17T08:49:54Z</time>
      </trkpt>
      <trkpt lat="43.37775" lon="3.63237">
        <ele>16.2</ele>
        <time>2025-06-17T08:49:55Z</time>
      </trkpt>
      <trkpt lat="43.37779" lon="3.63244">
        <ele>16.2</ele>
        <time>2025-06-17T08:49:56Z</time>
      </trkpt>
      <trkpt lat="43.37783" lon="3.6325">
        <ele>16</ele>
        <time>2025-06-17T08:49:57Z</time>
      </trkpt>
      <trkpt lat="43.37788" lon="3.63258">
        <ele>16.2</ele>
        <time>2025-06-17T08:49:58Z</time>
      </trkpt>
      <trkpt lat="43.37792" lon="3.63264">
        <ele>16.2</ele>
        <time>2025-06-17T08:49:59Z</time>
      </trkpt>
      <trkpt lat="43.37796" lon="3.63271">
        <ele>16.2</ele>
        <time>2025-06-17T08:50:00Z</time>
      </trkpt>
      <trkpt lat="43.37801" lon="3.63277">
        <ele>16.2</ele>
        <time>2025-06-17T08:50:01Z</time>
      </trkpt>
      <trkpt lat="43.37805" lon="3.63284">
        <ele>16.2</ele>
        <time>2025-06-17T08:50:02Z</time>
      </trkpt>
      <trkpt lat="43.3781" lon="3.63291">
        <ele>16.2</ele>
        <time>2025-06-17T08:50:03Z</time>
      </trkpt>
      <trkpt lat="43.37814" lon="3.63297">
        <ele>16</ele>
        <time>2025-06-17T08:50:04Z</time>
      </trkpt>
      <trkpt lat="43.37818" lon="3.63303">
        <ele>16</ele>
        <time>2025-06-17T08:50:05Z</time>
      </trkpt>
      <trkpt lat="43.37823" lon="3.63311">
        <ele>16</ele>
        <time>2025-06-17T08:50:06Z</time>
      </trkpt>
      <trkpt lat="43.37827" lon="3.63318">
        <ele>16</ele>
        <time>2025-06-17T08:50:07Z</time>
      </trkpt>
      <trkpt lat="43.37831" lon="3.63324">
        <ele>16</ele>
        <time>2025-06-17T08:50:08Z</time>
      </trkpt>
      <trkpt lat="43.37836" lon="3.63331">
        <ele>16</ele>
        <time>2025-06-17T08:50:09Z</time>
      </trkpt>
      <trkpt lat="43.37839" lon="3.63337">
        <ele>16</ele>
        <time>2025-06-17T08:50:10Z</time>
      </trkpt>
      <trkpt lat="43.37844" lon="3.63345">
        <ele>16</ele>
        <time>2025-06-17T08:50:11Z</time>
      </trkpt>
      <trkpt lat="43.37848" lon="3.63351">
        <ele>16</ele>
        <time>2025-06-17T08:50:12Z</time>
      </trkpt>
      <trkpt lat="43.37853" lon="3.63359">
        <ele>15.8</ele>
        <time>2025-06-17T08:50:13Z</time>
      </trkpt>
      <trkpt lat="43.37857" lon="3.63365">
        <ele>15.8</ele>
        <time>2025-06-17T08:50:14Z</time>
      </trkpt>
      <trkpt lat="43.37861" lon="3.63372">
        <ele>15.8</ele>
        <time>2025-06-17T08:50:15Z</time>
      </trkpt>
      <trkpt lat="43.37866" lon="3.63379">
        <ele>15.8</ele>
        <time>2025-06-17T08:50:16Z</time>
      </trkpt>
      <trkpt lat="43.3787" lon="3.63386">
        <ele>15.8</ele>
        <time>2025-06-17T08:50:17Z</time>
      </trkpt>
      <trkpt lat="43.37875" lon="3.63393">
        <ele>16</ele>
        <time>2025-06-17T08:50:18Z</time>
      </trkpt>
      <trkpt lat="43.37879" lon="3.634">
        <ele>16</ele>
        <time>2025-06-17T08:50:19Z</time>
      </trkpt>
      <trkpt lat="43.37884" lon="3.63407">
        <ele>15.8</ele>
        <time>2025-06-17T08:50:20Z</time>
      </trkpt>
      <trkpt lat="43.37888" lon="3.63414">
        <ele>15.8</ele>
        <time>2025-06-17T08:50:21Z</time>
      </trkpt>
      <trkpt lat="43.37893" lon="3.63421">
        <ele>15.8</ele>
        <time>2025-06-17T08:50:22Z</time>
      </trkpt>
      <trkpt lat="43.37897" lon="3.63428">
        <ele>15.8</ele>
        <time>2025-06-17T08:50:23Z</time>
      </trkpt>
      <trkpt lat="43.37902" lon="3.63435">
        <ele>16</ele>
        <time>2025-06-17T08:50:24Z</time>
      </trkpt>
      <trkpt lat="43.37906" lon="3.63442">
        <ele>16</ele>
        <time>2025-06-17T08:50:25Z</time>
      </trkpt>
      <trkpt lat="43.3791" lon="3.63449">
        <ele>16</ele>
        <time>2025-06-17T08:50:26Z</time>
      </trkpt>
      <trkpt lat="43.37914" lon="3.63456">
        <ele>15.8</ele>
        <time>2025-06-17T08:50:27Z</time>
      </trkpt>
      <trkpt lat="43.37919" lon="3.63463">
        <ele>15.8</ele>
        <time>2025-06-17T08:50:28Z</time>
      </trkpt>
      <trkpt lat="43.37923" lon="3.63471">
        <ele>15.8</ele>
        <time>2025-06-17T08:50:29Z</time>
      </trkpt>
      <trkpt lat="43.37927" lon="3.63478">
        <ele>15.8</ele>
        <time>2025-06-17T08:50:30Z</time>
      </trkpt>
      <trkpt lat="43.37932" lon="3.63485">
        <ele>15.8</ele>
        <time>2025-06-17T08:50:31Z</time>
      </trkpt>
      <trkpt lat="43.37937" lon="3.63492">
        <ele>15.8</ele>
        <time>2025-06-17T08:50:32Z</time>
      </trkpt>
      <trkpt lat="43.37941" lon="3.63498">
        <ele>15.8</ele>
        <time>2025-06-17T08:50:33Z</time>
      </trkpt>
      <trkpt lat="43.37945" lon="3.63506">
        <ele>15.8</ele>
        <time>2025-06-17T08:50:34Z</time>
      </trkpt>
      <trkpt lat="43.3795" lon="3.63513">
        <ele>15.6</ele>
        <time>2025-06-17T08:50:35Z</time>
      </trkpt>
      <trkpt lat="43.37954" lon="3.6352">
        <ele>15.6</ele>
        <time>2025-06-17T08:50:36Z</time>
      </trkpt>
      <trkpt lat="43.37959" lon="3.63527">
        <ele>15.6</ele>
        <time>2025-06-17T08:50:37Z</time>
      </trkpt>
      <trkpt lat="43.37963" lon="3.63534">
        <ele>15.6</ele>
        <time>2025-06-17T08:50:38Z</time>
      </trkpt>
      <trkpt lat="43.37968" lon="3.63541">
        <ele>15.6</ele>
        <time>2025-06-17T08:50:39Z</time>
      </trkpt>
      <trkpt lat="43.37972" lon="3.63548">
        <ele>15.6</ele>
        <time>2025-06-17T08:50:40Z</time>
      </trkpt>
      <trkpt lat="43.37976" lon="3.63555">
        <ele>15.6</ele>
        <time>2025-06-17T08:50:41Z</time>
      </trkpt>
      <trkpt lat="43.3798" lon="3.63562">
        <ele>15.6</ele>
        <time>2025-06-17T08:50:42Z</time>
      </trkpt>
      <trkpt lat="43.37985" lon="3.63569">
        <ele>15.6</ele>
        <time>2025-06-17T08:50:43Z</time>
      </trkpt>
      <trkpt lat="43.37988" lon="3.63575">
        <ele>15.6</ele>
        <time>2025-06-17T08:50:44Z</time>
      </trkpt>
      <trkpt lat="43.37992" lon="3.63582">
        <ele>15.6</ele>
        <time>2025-06-17T08:50:45Z</time>
      </trkpt>
      <trkpt lat="43.37996" lon="3.63588">
        <ele>15.8</ele>
        <time>2025-06-17T08:50:46Z</time>
      </trkpt>
      <trkpt lat="43.38" lon="3.63594">
        <ele>15.8</ele>
        <time>2025-06-17T08:50:47Z</time>
      </trkpt>
      <trkpt lat="43.38003" lon="3.63599">
        <ele>15.8</ele>
        <time>2025-06-17T08:50:48Z</time>
      </trkpt>
      <trkpt lat="43.38007" lon="3.63605">
        <ele>15.8</ele>
        <time>2025-06-17T08:50:49Z</time>
      </trkpt>
      <trkpt lat="43.38011" lon="3.63611">
        <ele>15.8</ele>
        <time>2025-06-17T08:50:50Z</time>
      </trkpt>
      <trkpt lat="43.38014" lon="3.63616">
        <ele>15.8</ele>
        <time>2025-06-17T08:50:51Z</time>
      </trkpt>
      <trkpt lat="43.38018" lon="3.63622">
        <ele>15.8</ele>
        <time>2025-06-17T08:50:52Z</time>
      </trkpt>
      <trkpt lat="43.38021" lon="3.63627">
        <ele>15.8</ele>
        <time>2025-06-17T08:50:53Z</time>
      </trkpt>
      <trkpt lat="43.38025" lon="3.63633">
        <ele>15.8</ele>
        <time>2025-06-17T08:50:54Z</time>
      </trkpt>
      <trkpt lat="43.38029" lon="3.63639">
        <ele>15.8</ele>
        <time>2025-06-17T08:50:55Z</time>
      </trkpt>
      <trkpt lat="43.38032" lon="3.63645">
        <ele>15.8</ele>
        <time>2025-06-17T08:50:56Z</time>
      </trkpt>
      <trkpt lat="43.38036" lon="3.63652">
        <ele>15.8</ele>
        <time>2025-06-17T08:50:57Z</time>
      </trkpt>
      <trkpt lat="43.3804" lon="3.63657">
        <ele>15.8</ele>
        <time>2025-06-17T08:50:58Z</time>
      </trkpt>
      <trkpt lat="43.38043" lon="3.63663">
        <ele>15.8</ele>
        <time>2025-06-17T08:50:59Z</time>
      </trkpt>
      <trkpt lat="43.38047" lon="3.63669">
        <ele>15.8</ele>
        <time>2025-06-17T08:51:00Z</time>
      </trkpt>
      <trkpt lat="43.38051" lon="3.63676">
        <ele>15.8</ele>
        <time>2025-06-17T08:51:01Z</time>
      </trkpt>
      <trkpt lat="43.38055" lon="3.63683">
        <ele>15.8</ele>
        <time>2025-06-17T08:51:02Z</time>
      </trkpt>
      <trkpt lat="43.38059" lon="3.6369">
        <ele>15.8</ele>
        <time>2025-06-17T08:51:03Z</time>
      </trkpt>
      <trkpt lat="43.38064" lon="3.63696">
        <ele>15.8</ele>
        <time>2025-06-17T08:51:04Z</time>
      </trkpt>
      <trkpt lat="43.38067" lon="3.63703">
        <ele>15.8</ele>
        <time>2025-06-17T08:51:05Z</time>
      </trkpt>
      <trkpt lat="43.38072" lon="3.6371">
        <ele>15.8</ele>
        <time>2025-06-17T08:51:06Z</time>
      </trkpt>
      <trkpt lat="43.38076" lon="3.63716">
        <ele>15.8</ele>
        <time>2025-06-17T08:51:07Z</time>
      </trkpt>
      <trkpt lat="43.3808" lon="3.63723">
        <ele>15.8</ele>
        <time>2025-06-17T08:51:08Z</time>
      </trkpt>
      <trkpt lat="43.38084" lon="3.63729">
        <ele>15.8</ele>
        <time>2025-06-17T08:51:09Z</time>
      </trkpt>
      <trkpt lat="43.38089" lon="3.63736">
        <ele>15.8</ele>
        <time>2025-06-17T08:51:10Z</time>
      </trkpt>
      <trkpt lat="43.38093" lon="3.63743">
        <ele>15.8</ele>
        <time>2025-06-17T08:51:11Z</time>
      </trkpt>
      <trkpt lat="43.38098" lon="3.6375">
        <ele>15.8</ele>
        <time>2025-06-17T08:51:12Z</time>
      </trkpt>
      <trkpt lat="43.38102" lon="3.63757">
        <ele>15.8</ele>
        <time>2025-06-17T08:51:13Z</time>
      </trkpt>
      <trkpt lat="43.38106" lon="3.63764">
        <ele>15.8</ele>
        <time>2025-06-17T08:51:14Z</time>
      </trkpt>
      <trkpt lat="43.38111" lon="3.63771">
        <ele>15.8</ele>
        <time>2025-06-17T08:51:15Z</time>
      </trkpt>
      <trkpt lat="43.38115" lon="3.63778">
        <ele>15.8</ele>
        <time>2025-06-17T08:51:16Z</time>
      </trkpt>
      <trkpt lat="43.38119" lon="3.63785">
        <ele>15.8</ele>
        <time>2025-06-17T08:51:17Z</time>
      </trkpt>
      <trkpt lat="43.38123" lon="3.63792">
        <ele>15.8</ele>
        <time>2025-06-17T08:51:18Z</time>
      </trkpt>
      <trkpt lat="43.38128" lon="3.63799">
        <ele>15.8</ele>
        <time>2025-06-17T08:51:19Z</time>
      </trkpt>
      <trkpt lat="43.38133" lon="3.63806">
        <ele>15.8</ele>
        <time>2025-06-17T08:51:20Z</time>
      </trkpt>
      <trkpt lat="43.38137" lon="3.63813">
        <ele>15.8</ele>
        <time>2025-06-17T08:51:21Z</time>
      </trkpt>
      <trkpt lat="43.38142" lon="3.63821">
        <ele>15.8</ele>
        <time>2025-06-17T08:51:22Z</time>
      </trkpt>
      <trkpt lat="43.38146" lon="3.63828">
        <ele>15.6</ele>
        <time>2025-06-17T08:51:23Z</time>
      </trkpt>
      <trkpt lat="43.38151" lon="3.63835">
        <ele>15.6</ele>
        <time>2025-06-17T08:51:24Z</time>
      </trkpt>
      <trkpt lat="43.38154" lon="3.63841">
        <ele>15.6</ele>
        <time>2025-06-17T08:51:25Z</time>
      </trkpt>
      <trkpt lat="43.38159" lon="3.63848">
        <ele>15.6</ele>
        <time>2025-06-17T08:51:26Z</time>
      </trkpt>
      <trkpt lat="43.38163" lon="3.63855">
        <ele>15.6</ele>
        <time>2025-06-17T08:51:27Z</time>
      </trkpt>
      <trkpt lat="43.38168" lon="3.63863">
        <ele>15.6</ele>
        <time>2025-06-17T08:51:28Z</time>
      </trkpt>
      <trkpt lat="43.38173" lon="3.6387">
        <ele>15.6</ele>
        <time>2025-06-17T08:51:29Z</time>
      </trkpt>
      <trkpt lat="43.38177" lon="3.63878">
        <ele>15.8</ele>
        <time>2025-06-17T08:51:30Z</time>
      </trkpt>
      <trkpt lat="43.38182" lon="3.63884">
        <ele>15.8</ele>
        <time>2025-06-17T08:51:31Z</time>
      </trkpt>
      <trkpt lat="43.38186" lon="3.63892">
        <ele>15.8</ele>
        <time>2025-06-17T08:51:32Z</time>
      </trkpt>
      <trkpt lat="43.38191" lon="3.63899">
        <ele>15.8</ele>
        <time>2025-06-17T08:51:33Z</time>
      </trkpt>
      <trkpt lat="43.38195" lon="3.63906">
        <ele>15.8</ele>
        <time>2025-06-17T08:51:34Z</time>
      </trkpt>
      <trkpt lat="43.382" lon="3.63913">
        <ele>15.8</ele>
        <time>2025-06-17T08:51:35Z</time>
      </trkpt>
      <trkpt lat="43.38205" lon="3.63921">
        <ele>15.8</ele>
        <time>2025-06-17T08:51:36Z</time>
      </trkpt>
      <trkpt lat="43.38209" lon="3.63928">
        <ele>15.8</ele>
        <time>2025-06-17T08:51:37Z</time>
      </trkpt>
      <trkpt lat="43.38214" lon="3.63935">
        <ele>15.8</ele>
        <time>2025-06-17T08:51:38Z</time>
      </trkpt>
      <trkpt lat="43.38219" lon="3.63943">
        <ele>15.8</ele>
        <time>2025-06-17T08:51:39Z</time>
      </trkpt>
      <trkpt lat="43.38223" lon="3.63951">
        <ele>15.8</ele>
        <time>2025-06-17T08:51:40Z</time>
      </trkpt>
      <trkpt lat="43.38228" lon="3.63958">
        <ele>15.6</ele>
        <time>2025-06-17T08:51:41Z</time>
      </trkpt>
      <trkpt lat="43.38233" lon="3.63966">
        <ele>15.6</ele>
        <time>2025-06-17T08:51:42Z</time>
      </trkpt>
      <trkpt lat="43.38237" lon="3.63973">
        <ele>15.6</ele>
        <time>2025-06-17T08:51:43Z</time>
      </trkpt>
      <trkpt lat="43.38242" lon="3.63981">
        <ele>15.6</ele>
        <time>2025-06-17T08:51:44Z</time>
      </trkpt>
      <trkpt lat="43.38247" lon="3.63989">
        <ele>15.6</ele>
        <time>2025-06-17T08:51:45Z</time>
      </trkpt>
      <trkpt lat="43.38252" lon="3.63996">
        <ele>15.6</ele>
        <time>2025-06-17T08:51:46Z</time>
      </trkpt>
      <trkpt lat="43.38256" lon="3.64004">
        <ele>15.6</ele>
        <time>2025-06-17T08:51:47Z</time>
      </trkpt>
      <trkpt lat="43.38261" lon="3.64011">
        <ele>15.6</ele>
        <time>2025-06-17T08:51:48Z</time>
      </trkpt>
      <trkpt lat="43.38266" lon="3.64019">
        <ele>15.6</ele>
        <time>2025-06-17T08:51:49Z</time>
      </trkpt>
      <trkpt lat="43.3827" lon="3.64025">
        <ele>15.6</ele>
        <time>2025-06-17T08:51:50Z</time>
      </trkpt>
      <trkpt lat="43.38275" lon="3.64033">
        <ele>15.4</ele>
        <time>2025-06-17T08:51:51Z</time>
      </trkpt>
      <trkpt lat="43.38281" lon="3.64042">
        <ele>15.4</ele>
        <time>2025-06-17T08:51:52Z</time>
      </trkpt>
      <trkpt lat="43.38285" lon="3.6405">
        <ele>15.4</ele>
        <time>2025-06-17T08:51:53Z</time>
      </trkpt>
      <trkpt lat="43.3829" lon="3.64057">
        <ele>15.4</ele>
        <time>2025-06-17T08:51:54Z</time>
      </trkpt>
      <trkpt lat="43.38294" lon="3.64065">
        <ele>15.4</ele>
        <time>2025-06-17T08:51:55Z</time>
      </trkpt>
      <trkpt lat="43.38299" lon="3.64073">
        <ele>15.4</ele>
        <time>2025-06-17T08:51:56Z</time>
      </trkpt>
      <trkpt lat="43.38304" lon="3.64081">
        <ele>15.4</ele>
        <time>2025-06-17T08:51:57Z</time>
      </trkpt>
      <trkpt lat="43.38309" lon="3.64088">
        <ele>15.4</ele>
        <time>2025-06-17T08:51:58Z</time>
      </trkpt>
      <trkpt lat="43.38313" lon="3.64095">
        <ele>15.4</ele>
        <time>2025-06-17T08:51:59Z</time>
      </trkpt>
      <trkpt lat="43.38318" lon="3.64103">
        <ele>15.4</ele>
        <time>2025-06-17T08:52:00Z</time>
      </trkpt>
      <trkpt lat="43.38322" lon="3.6411">
        <ele>15.4</ele>
        <time>2025-06-17T08:52:01Z</time>
      </trkpt>
      <trkpt lat="43.38327" lon="3.64117">
        <ele>15.6</ele>
        <time>2025-06-17T08:52:02Z</time>
      </trkpt>
      <trkpt lat="43.38331" lon="3.64125">
        <ele>15.6</ele>
        <time>2025-06-17T08:52:03Z</time>
      </trkpt>
      <trkpt lat="43.38336" lon="3.64132">
        <ele>15.6</ele>
        <time>2025-06-17T08:52:04Z</time>
      </trkpt>
      <trkpt lat="43.3834" lon="3.64139">
        <ele>15.6</ele>
        <time>2025-06-17T08:52:05Z</time>
      </trkpt>
      <trkpt lat="43.38345" lon="3.64147">
        <ele>15.6</ele>
        <time>2025-06-17T08:52:06Z</time>
      </trkpt>
      <trkpt lat="43.38349" lon="3.64154">
        <ele>15.6</ele>
        <time>2025-06-17T08:52:07Z</time>
      </trkpt>
      <trkpt lat="43.38354" lon="3.64161">
        <ele>15.6</ele>
        <time>2025-06-17T08:52:08Z</time>
      </trkpt>
      <trkpt lat="43.38359" lon="3.64169">
        <ele>15.4</ele>
        <time>2025-06-17T08:52:09Z</time>
      </trkpt>
      <trkpt lat="43.38363" lon="3.64175">
        <ele>15.4</ele>
        <time>2025-06-17T08:52:10Z</time>
      </trkpt>
      <trkpt lat="43.38367" lon="3.64183">
        <ele>15.4</ele>
        <time>2025-06-17T08:52:11Z</time>
      </trkpt>
      <trkpt lat="43.38372" lon="3.6419">
        <ele>15.4</ele>
        <time>2025-06-17T08:52:12Z</time>
      </trkpt>
      <trkpt lat="43.38376" lon="3.64198">
        <ele>15.4</ele>
        <time>2025-06-17T08:52:13Z</time>
      </trkpt>
      <trkpt lat="43.38381" lon="3.64205">
        <ele>15.4</ele>
        <time>2025-06-17T08:52:14Z</time>
      </trkpt>
      <trkpt lat="43.38385" lon="3.64212">
        <ele>15.4</ele>
        <time>2025-06-17T08:52:15Z</time>
      </trkpt>
      <trkpt lat="43.3839" lon="3.64219">
        <ele>15.4</ele>
        <time>2025-06-17T08:52:16Z</time>
      </trkpt>
      <trkpt lat="43.38394" lon="3.64226">
        <ele>15.4</ele>
        <time>2025-06-17T08:52:17Z</time>
      </trkpt>
      <trkpt lat="43.38398" lon="3.64233">
        <ele>15.4</ele>
        <time>2025-06-17T08:52:18Z</time>
      </trkpt>
      <trkpt lat="43.38403" lon="3.64241">
        <ele>15.6</ele>
        <time>2025-06-17T08:52:19Z</time>
      </trkpt>
      <trkpt lat="43.38407" lon="3.64248">
        <ele>15.6</ele>
        <time>2025-06-17T08:52:20Z</time>
      </trkpt>
      <trkpt lat="43.38412" lon="3.64255">
        <ele>15.4</ele>
        <time>2025-06-17T08:52:21Z</time>
      </trkpt>
      <trkpt lat="43.38417" lon="3.64263">
        <ele>15.4</ele>
        <time>2025-06-17T08:52:22Z</time>
      </trkpt>
      <trkpt lat="43.38421" lon="3.6427">
        <ele>15.4</ele>
        <time>2025-06-17T08:52:23Z</time>
      </trkpt>
      <trkpt lat="43.38426" lon="3.64277">
        <ele>15.4</ele>
        <time>2025-06-17T08:52:24Z</time>
      </trkpt>
      <trkpt lat="43.3843" lon="3.64284">
        <ele>15.4</ele>
        <time>2025-06-17T08:52:25Z</time>
      </trkpt>
      <trkpt lat="43.38435" lon="3.64291">
        <ele>15.4</ele>
        <time>2025-06-17T08:52:26Z</time>
      </trkpt>
      <trkpt lat="43.38439" lon="3.64298">
        <ele>15.4</ele>
        <time>2025-06-17T08:52:27Z</time>
      </trkpt>
      <trkpt lat="43.38443" lon="3.64305">
        <ele>15.4</ele>
        <time>2025-06-17T08:52:28Z</time>
      </trkpt>
      <trkpt lat="43.38447" lon="3.64311">
        <ele>15.4</ele>
        <time>2025-06-17T08:52:29Z</time>
      </trkpt>
      <trkpt lat="43.38451" lon="3.64318">
        <ele>15.4</ele>
        <time>2025-06-17T08:52:30Z</time>
      </trkpt>
      <trkpt lat="43.38456" lon="3.64324">
        <ele>15.4</ele>
        <time>2025-06-17T08:52:31Z</time>
      </trkpt>
      <trkpt lat="43.3846" lon="3.64331">
        <ele>15.4</ele>
        <time>2025-06-17T08:52:32Z</time>
      </trkpt>
      <trkpt lat="43.38465" lon="3.64338">
        <ele>15.4</ele>
        <time>2025-06-17T08:52:33Z</time>
      </trkpt>
      <trkpt lat="43.38469" lon="3.64345">
        <ele>15.4</ele>
        <time>2025-06-17T08:52:34Z</time>
      </trkpt>
      <trkpt lat="43.38473" lon="3.64352">
        <ele>15.4</ele>
        <time>2025-06-17T08:52:35Z</time>
      </trkpt>
      <trkpt lat="43.38478" lon="3.64359">
        <ele>15.4</ele>
        <time>2025-06-17T08:52:36Z</time>
      </trkpt>
      <trkpt lat="43.38482" lon="3.64366">
        <ele>15.6</ele>
        <time>2025-06-17T08:52:37Z</time>
      </trkpt>
      <trkpt lat="43.38487" lon="3.64373">
        <ele>15.6</ele>
        <time>2025-06-17T08:52:38Z</time>
      </trkpt>
      <trkpt lat="43.38491" lon="3.64381">
        <ele>15.6</ele>
        <time>2025-06-17T08:52:39Z</time>
      </trkpt>
      <trkpt lat="43.38495" lon="3.64387">
        <ele>15.6</ele>
        <time>2025-06-17T08:52:40Z</time>
      </trkpt>
      <trkpt lat="43.385" lon="3.64395">
        <ele>15.6</ele>
        <time>2025-06-17T08:52:41Z</time>
      </trkpt>
      <trkpt lat="43.38505" lon="3.64402">
        <ele>15.4</ele>
        <time>2025-06-17T08:52:42Z</time>
      </trkpt>
      <trkpt lat="43.38509" lon="3.64409">
        <ele>15.4</ele>
        <time>2025-06-17T08:52:43Z</time>
      </trkpt>
      <trkpt lat="43.38514" lon="3.64416">
        <ele>15.4</ele>
        <time>2025-06-17T08:52:44Z</time>
      </trkpt>
      <trkpt lat="43.38518" lon="3.64423">
        <ele>15.4</ele>
        <time>2025-06-17T08:52:45Z</time>
      </trkpt>
      <trkpt lat="43.38523" lon="3.64431">
        <ele>15.4</ele>
        <time>2025-06-17T08:52:46Z</time>
      </trkpt>
      <trkpt lat="43.38527" lon="3.64438">
        <ele>15.4</ele>
        <time>2025-06-17T08:52:47Z</time>
      </trkpt>
      <trkpt lat="43.38532" lon="3.64445">
        <ele>15.4</ele>
        <time>2025-06-17T08:52:48Z</time>
      </trkpt>
      <trkpt lat="43.38536" lon="3.64451">
        <ele>15.4</ele>
        <time>2025-06-17T08:52:49Z</time>
      </trkpt>
      <trkpt lat="43.38541" lon="3.64459">
        <ele>15.4</ele>
        <time>2025-06-17T08:52:50Z</time>
      </trkpt>
      <trkpt lat="43.38545" lon="3.64466">
        <ele>15.4</ele>
        <time>2025-06-17T08:52:51Z</time>
      </trkpt>
      <trkpt lat="43.38549" lon="3.64474">
        <ele>15.4</ele>
        <time>2025-06-17T08:52:52Z</time>
      </trkpt>
      <trkpt lat="43.38554" lon="3.64481">
        <ele>15.4</ele>
        <time>2025-06-17T08:52:53Z</time>
      </trkpt>
      <trkpt lat="43.38558" lon="3.64488">
        <ele>15.4</ele>
        <time>2025-06-17T08:52:54Z</time>
      </trkpt>
      <trkpt lat="43.38562" lon="3.64496">
        <ele>15.4</ele>
        <time>2025-06-17T08:52:55Z</time>
      </trkpt>
      <trkpt lat="43.38567" lon="3.64503">
        <ele>15.4</ele>
        <time>2025-06-17T08:52:56Z</time>
      </trkpt>
      <trkpt lat="43.38571" lon="3.6451">
        <ele>15.4</ele>
        <time>2025-06-17T08:52:57Z</time>
      </trkpt>
      <trkpt lat="43.38576" lon="3.64517">
        <ele>15.4</ele>
        <time>2025-06-17T08:52:58Z</time>
      </trkpt>
      <trkpt lat="43.3858" lon="3.64524">
        <ele>15.4</ele>
        <time>2025-06-17T08:52:59Z</time>
      </trkpt>
      <trkpt lat="43.38585" lon="3.64532">
        <ele>15.4</ele>
        <time>2025-06-17T08:53:00Z</time>
      </trkpt>
      <trkpt lat="43.3859" lon="3.64539">
        <ele>15.4</ele>
        <time>2025-06-17T08:53:01Z</time>
      </trkpt>
      <trkpt lat="43.38594" lon="3.64546">
        <ele>15.4</ele>
        <time>2025-06-17T08:53:02Z</time>
      </trkpt>
      <trkpt lat="43.38599" lon="3.64554">
        <ele>15.4</ele>
        <time>2025-06-17T08:53:03Z</time>
      </trkpt>
      <trkpt lat="43.38603" lon="3.64561">
        <ele>15.4</ele>
        <time>2025-06-17T08:53:04Z</time>
      </trkpt>
      <trkpt lat="43.38608" lon="3.64568">
        <ele>15.4</ele>
        <time>2025-06-17T08:53:05Z</time>
      </trkpt>
      <trkpt lat="43.38613" lon="3.64576">
        <ele>15.4</ele>
        <time>2025-06-17T08:53:06Z</time>
      </trkpt>
      <trkpt lat="43.38617" lon="3.64583">
        <ele>15.4</ele>
        <time>2025-06-17T08:53:07Z</time>
      </trkpt>
      <trkpt lat="43.38622" lon="3.6459">
        <ele>15.4</ele>
        <time>2025-06-17T08:53:08Z</time>
      </trkpt>
      <trkpt lat="43.38627" lon="3.64598">
        <ele>15.4</ele>
        <time>2025-06-17T08:53:09Z</time>
      </trkpt>
      <trkpt lat="43.38632" lon="3.64605">
        <ele>15.4</ele>
        <time>2025-06-17T08:53:10Z</time>
      </trkpt>
      <trkpt lat="43.38637" lon="3.64613">
        <ele>15.4</ele>
        <time>2025-06-17T08:53:11Z</time>
      </trkpt>
      <trkpt lat="43.38641" lon="3.6462">
        <ele>15.4</ele>
        <time>2025-06-17T08:53:12Z</time>
      </trkpt>
      <trkpt lat="43.38646" lon="3.64628">
        <ele>15.4</ele>
        <time>2025-06-17T08:53:13Z</time>
      </trkpt>
      <trkpt lat="43.3865" lon="3.64636">
        <ele>15.4</ele>
        <time>2025-06-17T08:53:14Z</time>
      </trkpt>
      <trkpt lat="43.38654" lon="3.64642">
        <ele>15.4</ele>
        <time>2025-06-17T08:53:15Z</time>
      </trkpt>
      <trkpt lat="43.3866" lon="3.64651">
        <ele>15.4</ele>
        <time>2025-06-17T08:53:16Z</time>
      </trkpt>
      <trkpt lat="43.38665" lon="3.64658">
        <ele>15.4</ele>
        <time>2025-06-17T08:53:17Z</time>
      </trkpt>
      <trkpt lat="43.38669" lon="3.64666">
        <ele>15.4</ele>
        <time>2025-06-17T08:53:18Z</time>
      </trkpt>
      <trkpt lat="43.38674" lon="3.64673">
        <ele>15.4</ele>
        <time>2025-06-17T08:53:19Z</time>
      </trkpt>
      <trkpt lat="43.38679" lon="3.64681">
        <ele>15.4</ele>
        <time>2025-06-17T08:53:20Z</time>
      </trkpt>
      <trkpt lat="43.38684" lon="3.64688">
        <ele>15.4</ele>
        <time>2025-06-17T08:53:21Z</time>
      </trkpt>
      <trkpt lat="43.38689" lon="3.64696">
        <ele>15.4</ele>
        <time>2025-06-17T08:53:22Z</time>
      </trkpt>
      <trkpt lat="43.38694" lon="3.64704">
        <ele>15.2</ele>
        <time>2025-06-17T08:53:23Z</time>
      </trkpt>
      <trkpt lat="43.38699" lon="3.64711">
        <ele>15.4</ele>
        <time>2025-06-17T08:53:24Z</time>
      </trkpt>
      <trkpt lat="43.38704" lon="3.64718">
        <ele>15.4</ele>
        <time>2025-06-17T08:53:25Z</time>
      </trkpt>
      <trkpt lat="43.38709" lon="3.64726">
        <ele>15.4</ele>
        <time>2025-06-17T08:53:26Z</time>
      </trkpt>
      <trkpt lat="43.38714" lon="3.64733">
        <ele>15.4</ele>
        <time>2025-06-17T08:53:27Z</time>
      </trkpt>
      <trkpt lat="43.38719" lon="3.6474">
        <ele>15.4</ele>
        <time>2025-06-17T08:53:28Z</time>
      </trkpt>
      <trkpt lat="43.38724" lon="3.64747">
        <ele>15.2</ele>
        <time>2025-06-17T08:53:29Z</time>
      </trkpt>
      <trkpt lat="43.3873" lon="3.64755">
        <ele>15.2</ele>
        <time>2025-06-17T08:53:30Z</time>
      </trkpt>
      <trkpt lat="43.38735" lon="3.64762">
        <ele>15.4</ele>
        <time>2025-06-17T08:53:31Z</time>
      </trkpt>
      <trkpt lat="43.3874" lon="3.64769">
        <ele>15.2</ele>
        <time>2025-06-17T08:53:32Z</time>
      </trkpt>
      <trkpt lat="43.38745" lon="3.64776">
        <ele>15.2</ele>
        <time>2025-06-17T08:53:33Z</time>
      </trkpt>
      <trkpt lat="43.3875" lon="3.64783">
        <ele>15.4</ele>
        <time>2025-06-17T08:53:34Z</time>
      </trkpt>
      <trkpt lat="43.38755" lon="3.6479">
        <ele>15.4</ele>
        <time>2025-06-17T08:53:35Z</time>
      </trkpt>
      <trkpt lat="43.38761" lon="3.64797">
        <ele>15.4</ele>
        <time>2025-06-17T08:53:36Z</time>
      </trkpt>
      <trkpt lat="43.38766" lon="3.64803">
        <ele>15.4</ele>
        <time>2025-06-17T08:53:37Z</time>
      </trkpt>
      <trkpt lat="43.38772" lon="3.6481">
        <ele>15.4</ele>
        <time>2025-06-17T08:53:38Z</time>
      </trkpt>
      <trkpt lat="43.38776" lon="3.64816">
        <ele>15.4</ele>
        <time>2025-06-17T08:53:39Z</time>
      </trkpt>
      <trkpt lat="43.38782" lon="3.64824">
        <ele>15.4</ele>
        <time>2025-06-17T08:53:40Z</time>
      </trkpt>
      <trkpt lat="43.38788" lon="3.6483">
        <ele>15.4</ele>
        <time>2025-06-17T08:53:41Z</time>
      </trkpt>
      <trkpt lat="43.38793" lon="3.64838">
        <ele>15.4</ele>
        <time>2025-06-17T08:53:42Z</time>
      </trkpt>
      <trkpt lat="43.38798" lon="3.64845">
        <ele>15.4</ele>
        <time>2025-06-17T08:53:43Z</time>
      </trkpt>
      <trkpt lat="43.38802" lon="3.64854">
        <ele>15.4</ele>
        <time>2025-06-17T08:53:44Z</time>
      </trkpt>
      <trkpt lat="43.38806" lon="3.64861">
        <ele>15.4</ele>
        <time>2025-06-17T08:53:45Z</time>
      </trkpt>
      <trkpt lat="43.3881" lon="3.6487">
        <ele>15.4</ele>
        <time>2025-06-17T08:53:46Z</time>
      </trkpt>
      <trkpt lat="43.38814" lon="3.64877">
        <ele>15.4</ele>
        <time>2025-06-17T08:53:47Z</time>
      </trkpt>
      <trkpt lat="43.38818" lon="3.64884">
        <ele>15.4</ele>
        <time>2025-06-17T08:53:48Z</time>
      </trkpt>
      <trkpt lat="43.38822" lon="3.64892">
        <ele>15.4</ele>
        <time>2025-06-17T08:53:49Z</time>
      </trkpt>
      <trkpt lat="43.38826" lon="3.64899">
        <ele>15.4</ele>
        <time>2025-06-17T08:53:50Z</time>
      </trkpt>
      <trkpt lat="43.38831" lon="3.64907">
        <ele>15.6</ele>
        <time>2025-06-17T08:53:51Z</time>
      </trkpt>
      <trkpt lat="43.38834" lon="3.64914">
        <ele>15.6</ele>
        <time>2025-06-17T08:53:52Z</time>
      </trkpt>
      <trkpt lat="43.38838" lon="3.64921">
        <ele>15.6</ele>
        <time>2025-06-17T08:53:53Z</time>
      </trkpt>
      <trkpt lat="43.38843" lon="3.64928">
        <ele>15.8</ele>
        <time>2025-06-17T08:53:54Z</time>
      </trkpt>
      <trkpt lat="43.38846" lon="3.64935">
        <ele>15.8</ele>
        <time>2025-06-17T08:53:55Z</time>
      </trkpt>
      <trkpt lat="43.3885" lon="3.64942">
        <ele>15.8</ele>
        <time>2025-06-17T08:53:56Z</time>
      </trkpt>
      <trkpt lat="43.38854" lon="3.64949">
        <ele>15.8</ele>
        <time>2025-06-17T08:53:57Z</time>
      </trkpt>
      <trkpt lat="43.38857" lon="3.64955">
        <ele>16</ele>
        <time>2025-06-17T08:53:58Z</time>
      </trkpt>
      <trkpt lat="43.38861" lon="3.64961">
        <ele>16</ele>
        <time>2025-06-17T08:53:59Z</time>
      </trkpt>
      <trkpt lat="43.38864" lon="3.64968">
        <ele>16</ele>
        <time>2025-06-17T08:54:00Z</time>
      </trkpt>
      <trkpt lat="43.38867" lon="3.64974">
        <ele>16.2</ele>
        <time>2025-06-17T08:54:01Z</time>
      </trkpt>
      <trkpt lat="43.38871" lon="3.64981">
        <ele>16.4</ele>
        <time>2025-06-17T08:54:02Z</time>
      </trkpt>
      <trkpt lat="43.38875" lon="3.64987">
        <ele>16.4</ele>
        <time>2025-06-17T08:54:03Z</time>
      </trkpt>
      <trkpt lat="43.38878" lon="3.64994">
        <ele>16.6</ele>
        <time>2025-06-17T08:54:04Z</time>
      </trkpt>
      <trkpt lat="43.3888" lon="3.64998">
        <ele>16.6</ele>
        <time>2025-06-17T08:54:05Z</time>
      </trkpt>
      <trkpt lat="43.38885" lon="3.65005">
        <ele>16.6</ele>
        <time>2025-06-17T08:54:06Z</time>
      </trkpt>
      <trkpt lat="43.38888" lon="3.65011">
        <ele>16.6</ele>
        <time>2025-06-17T08:54:07Z</time>
      </trkpt>
      <trkpt lat="43.38892" lon="3.65018">
        <ele>16.6</ele>
        <time>2025-06-17T08:54:08Z</time>
      </trkpt>
      <trkpt lat="43.38895" lon="3.65024">
        <ele>16.6</ele>
        <time>2025-06-17T08:54:09Z</time>
      </trkpt>
      <trkpt lat="43.38899" lon="3.6503">
        <ele>16.6</ele>
        <time>2025-06-17T08:54:10Z</time>
      </trkpt>
      <trkpt lat="43.38903" lon="3.65037">
        <ele>16.6</ele>
        <time>2025-06-17T08:54:11Z</time>
      </trkpt>
      <trkpt lat="43.38906" lon="3.65043">
        <ele>16.6</ele>
        <time>2025-06-17T08:54:12Z</time>
      </trkpt>
      <trkpt lat="43.38909" lon="3.6505">
        <ele>16.6</ele>
        <time>2025-06-17T08:54:13Z</time>
      </trkpt>
      <trkpt lat="43.38912" lon="3.65056">
        <ele>16.4</ele>
        <time>2025-06-17T08:54:14Z</time>
      </trkpt>
      <trkpt lat="43.38916" lon="3.65063">
        <ele>16.4</ele>
        <time>2025-06-17T08:54:15Z</time>
      </trkpt>
      <trkpt lat="43.38919" lon="3.65069">
        <ele>16.4</ele>
        <time>2025-06-17T08:54:16Z</time>
      </trkpt>
      <trkpt lat="43.38923" lon="3.65076">
        <ele>16.4</ele>
        <time>2025-06-17T08:54:17Z</time>
      </trkpt>
      <trkpt lat="43.38926" lon="3.65082">
        <ele>16.4</ele>
        <time>2025-06-17T08:54:18Z</time>
      </trkpt>
      <trkpt lat="43.3893" lon="3.65089">
        <ele>16.4</ele>
        <time>2025-06-17T08:54:19Z</time>
      </trkpt>
      <trkpt lat="43.38933" lon="3.65096">
        <ele>16.4</ele>
        <time>2025-06-17T08:54:20Z</time>
      </trkpt>
      <trkpt lat="43.38937" lon="3.65102">
        <ele>16.4</ele>
        <time>2025-06-17T08:54:21Z</time>
      </trkpt>
      <trkpt lat="43.38941" lon="3.65108">
        <ele>16.4</ele>
        <time>2025-06-17T08:54:22Z</time>
      </trkpt>
      <trkpt lat="43.38945" lon="3.65114">
        <ele>16.4</ele>
        <time>2025-06-17T08:54:23Z</time>
      </trkpt>
      <trkpt lat="43.38949" lon="3.6512">
        <ele>16.4</ele>
        <time>2025-06-17T08:54:24Z</time>
      </trkpt>
      <trkpt lat="43.38952" lon="3.65126">
        <ele>16.4</ele>
        <time>2025-06-17T08:54:25Z</time>
      </trkpt>
      <trkpt lat="43.38955" lon="3.65133">
        <ele>16.6</ele>
        <time>2025-06-17T08:54:26Z</time>
      </trkpt>
      <trkpt lat="43.38958" lon="3.65138">
        <ele>16.6</ele>
        <time>2025-06-17T08:54:27Z</time>
      </trkpt>
      <trkpt lat="43.38962" lon="3.65145">
        <ele>16.6</ele>
        <time>2025-06-17T08:54:28Z</time>
      </trkpt>
      <trkpt lat="43.38964" lon="3.6515">
        <ele>16.6</ele>
        <time>2025-06-17T08:54:29Z</time>
      </trkpt>
      <trkpt lat="43.38968" lon="3.65157">
        <ele>16.4</ele>
        <time>2025-06-17T08:54:30Z</time>
      </trkpt>
      <trkpt lat="43.38972" lon="3.65164">
        <ele>16.4</ele>
        <time>2025-06-17T08:54:31Z</time>
      </trkpt>
      <trkpt lat="43.38975" lon="3.65171">
        <ele>16.4</ele>
        <time>2025-06-17T08:54:32Z</time>
      </trkpt>
      <trkpt lat="43.38979" lon="3.65177">
        <ele>16.4</ele>
        <time>2025-06-17T08:54:33Z</time>
      </trkpt>
      <trkpt lat="43.38982" lon="3.65183">
        <ele>16.4</ele>
        <time>2025-06-17T08:54:34Z</time>
      </trkpt>
      <trkpt lat="43.38986" lon="3.6519">
        <ele>16.4</ele>
        <time>2025-06-17T08:54:35Z</time>
      </trkpt>
      <trkpt lat="43.38989" lon="3.65197">
        <ele>16.4</ele>
        <time>2025-06-17T08:54:36Z</time>
      </trkpt>
      <trkpt lat="43.38992" lon="3.65203">
        <ele>16.4</ele>
        <time>2025-06-17T08:54:37Z</time>
      </trkpt>
      <trkpt lat="43.38996" lon="3.6521">
        <ele>16.4</ele>
        <time>2025-06-17T08:54:38Z</time>
      </trkpt>
      <trkpt lat="43.38999" lon="3.65216">
        <ele>16.4</ele>
        <time>2025-06-17T08:54:39Z</time>
      </trkpt>
      <trkpt lat="43.39002" lon="3.65224">
        <ele>16.4</ele>
        <time>2025-06-17T08:54:40Z</time>
      </trkpt>
      <trkpt lat="43.39005" lon="3.65231">
        <ele>16.4</ele>
        <time>2025-06-17T08:54:41Z</time>
      </trkpt>
      <trkpt lat="43.39008" lon="3.65238">
        <ele>16.4</ele>
        <time>2025-06-17T08:54:42Z</time>
      </trkpt>
      <trkpt lat="43.3901" lon="3.65246">
        <ele>16.4</ele>
        <time>2025-06-17T08:54:43Z</time>
      </trkpt>
      <trkpt lat="43.39013" lon="3.65253">
        <ele>16.4</ele>
        <time>2025-06-17T08:54:44Z</time>
      </trkpt>
      <trkpt lat="43.39016" lon="3.6526">
        <ele>16.4</ele>
        <time>2025-06-17T08:54:45Z</time>
      </trkpt>
      <trkpt lat="43.39019" lon="3.65268">
        <ele>16.4</ele>
        <time>2025-06-17T08:54:46Z</time>
      </trkpt>
      <trkpt lat="43.39021" lon="3.65274">
        <ele>16.4</ele>
        <time>2025-06-17T08:54:47Z</time>
      </trkpt>
      <trkpt lat="43.39024" lon="3.65281">
        <ele>16.4</ele>
        <time>2025-06-17T08:54:48Z</time>
      </trkpt>
      <trkpt lat="43.39027" lon="3.65287">
        <ele>16.4</ele>
        <time>2025-06-17T08:54:49Z</time>
      </trkpt>
      <trkpt lat="43.39029" lon="3.65294">
        <ele>16.4</ele>
        <time>2025-06-17T08:54:50Z</time>
      </trkpt>
      <trkpt lat="43.39032" lon="3.65301">
        <ele>16.4</ele>
        <time>2025-06-17T08:54:51Z</time>
      </trkpt>
      <trkpt lat="43.39035" lon="3.65308">
        <ele>16.4</ele>
        <time>2025-06-17T08:54:52Z</time>
      </trkpt>
      <trkpt lat="43.39038" lon="3.65314">
        <ele>16.4</ele>
        <time>2025-06-17T08:54:53Z</time>
      </trkpt>
      <trkpt lat="43.3904" lon="3.6532">
        <ele>16.6</ele>
        <time>2025-06-17T08:54:54Z</time>
      </trkpt>
      <trkpt lat="43.39042" lon="3.65326">
        <ele>16.4</ele>
        <time>2025-06-17T08:54:55Z</time>
      </trkpt>
      <trkpt lat="43.39045" lon="3.65334">
        <ele>16.4</ele>
        <time>2025-06-17T08:54:56Z</time>
      </trkpt>
      <trkpt lat="43.39048" lon="3.65341">
        <ele>16.4</ele>
        <time>2025-06-17T08:54:57Z</time>
      </trkpt>
      <trkpt lat="43.39051" lon="3.65348">
        <ele>16.4</ele>
        <time>2025-06-17T08:54:58Z</time>
      </trkpt>
      <trkpt lat="43.39054" lon="3.65355">
        <ele>16.4</ele>
        <time>2025-06-17T08:54:59Z</time>
      </trkpt>
      <trkpt lat="43.39057" lon="3.65362">
        <ele>16.4</ele>
        <time>2025-06-17T08:55:00Z</time>
      </trkpt>
      <trkpt lat="43.39059" lon="3.65369">
        <ele>16.4</ele>
        <time>2025-06-17T08:55:01Z</time>
      </trkpt>
      <trkpt lat="43.39062" lon="3.65376">
        <ele>16.4</ele>
        <time>2025-06-17T08:55:02Z</time>
      </trkpt>
      <trkpt lat="43.39065" lon="3.65384">
        <ele>16.4</ele>
        <time>2025-06-17T08:55:03Z</time>
      </trkpt>
      <trkpt lat="43.39068" lon="3.65391">
        <ele>16.4</ele>
        <time>2025-06-17T08:55:04Z</time>
      </trkpt>
      <trkpt lat="43.3907" lon="3.65398">
        <ele>16.4</ele>
        <time>2025-06-17T08:55:05Z</time>
      </trkpt>
      <trkpt lat="43.39073" lon="3.65406">
        <ele>16.4</ele>
        <time>2025-06-17T08:55:06Z</time>
      </trkpt>
      <trkpt lat="43.39077" lon="3.65413">
        <ele>16.4</ele>
        <time>2025-06-17T08:55:07Z</time>
      </trkpt>
      <trkpt lat="43.3908" lon="3.6542">
        <ele>16.4</ele>
        <time>2025-06-17T08:55:08Z</time>
      </trkpt>
      <trkpt lat="43.39083" lon="3.65427">
        <ele>16.4</ele>
        <time>2025-06-17T08:55:09Z</time>
      </trkpt>
      <trkpt lat="43.39086" lon="3.65435">
        <ele>16.4</ele>
        <time>2025-06-17T08:55:10Z</time>
      </trkpt>
      <trkpt lat="43.39089" lon="3.65443">
        <ele>16.4</ele>
        <time>2025-06-17T08:55:11Z</time>
      </trkpt>
      <trkpt lat="43.39092" lon="3.6545">
        <ele>16.4</ele>
        <time>2025-06-17T08:55:12Z</time>
      </trkpt>
      <trkpt lat="43.39096" lon="3.65458">
        <ele>16.4</ele>
        <time>2025-06-17T08:55:13Z</time>
      </trkpt>
      <trkpt lat="43.39098" lon="3.65465">
        <ele>16.4</ele>
        <time>2025-06-17T08:55:14Z</time>
      </trkpt>
      <trkpt lat="43.39101" lon="3.65473">
        <ele>16.4</ele>
        <time>2025-06-17T08:55:15Z</time>
      </trkpt>
      <trkpt lat="43.39104" lon="3.65481">
        <ele>16.4</ele>
        <time>2025-06-17T08:55:16Z</time>
      </trkpt>
      <trkpt lat="43.39107" lon="3.65488">
        <ele>16.4</ele>
        <time>2025-06-17T08:55:17Z</time>
      </trkpt>
      <trkpt lat="43.3911" lon="3.65496">
        <ele>16.4</ele>
        <time>2025-06-17T08:55:18Z</time>
      </trkpt>
      <trkpt lat="43.39113" lon="3.65503">
        <ele>16.4</ele>
        <time>2025-06-17T08:55:19Z</time>
      </trkpt>
      <trkpt lat="43.39116" lon="3.65511">
        <ele>16.4</ele>
        <time>2025-06-17T08:55:20Z</time>
      </trkpt>
      <trkpt lat="43.39119" lon="3.65517">
        <ele>16.4</ele>
        <time>2025-06-17T08:55:21Z</time>
      </trkpt>
      <trkpt lat="43.39122" lon="3.65528">
        <ele>16.4</ele>
        <time>2025-06-17T08:55:22Z</time>
      </trkpt>
      <trkpt lat="43.39125" lon="3.65535">
        <ele>16.4</ele>
        <time>2025-06-17T08:55:23Z</time>
      </trkpt>
      <trkpt lat="43.39129" lon="3.65543">
        <ele>16.4</ele>
        <time>2025-06-17T08:55:24Z</time>
      </trkpt>
      <trkpt lat="43.39131" lon="3.65551">
        <ele>16.4</ele>
        <time>2025-06-17T08:55:25Z</time>
      </trkpt>
      <trkpt lat="43.39134" lon="3.65558">
        <ele>16.4</ele>
        <time>2025-06-17T08:55:26Z</time>
      </trkpt>
      <trkpt lat="43.39137" lon="3.65567">
        <ele>16.4</ele>
        <time>2025-06-17T08:55:27Z</time>
      </trkpt>
      <trkpt lat="43.39141" lon="3.65575">
        <ele>16.4</ele>
        <time>2025-06-17T08:55:28Z</time>
      </trkpt>
      <trkpt lat="43.39143" lon="3.65583">
        <ele>16.4</ele>
        <time>2025-06-17T08:55:29Z</time>
      </trkpt>
      <trkpt lat="43.39146" lon="3.65591">
        <ele>16.4</ele>
        <time>2025-06-17T08:55:30Z</time>
      </trkpt>
      <trkpt lat="43.39149" lon="3.65599">
        <ele>16.4</ele>
        <time>2025-06-17T08:55:31Z</time>
      </trkpt>
      <trkpt lat="43.39152" lon="3.65608">
        <ele>16.4</ele>
        <time>2025-06-17T08:55:32Z</time>
      </trkpt>
      <trkpt lat="43.39155" lon="3.65616">
        <ele>16.4</ele>
        <time>2025-06-17T08:55:33Z</time>
      </trkpt>
      <trkpt lat="43.39159" lon="3.65624">
        <ele>16.4</ele>
        <time>2025-06-17T08:55:34Z</time>
      </trkpt>
      <trkpt lat="43.39162" lon="3.65631">
        <ele>16.4</ele>
        <time>2025-06-17T08:55:35Z</time>
      </trkpt>
      <trkpt lat="43.39166" lon="3.65639">
        <ele>16.4</ele>
        <time>2025-06-17T08:55:36Z</time>
      </trkpt>
      <trkpt lat="43.3917" lon="3.65647">
        <ele>16.4</ele>
        <time>2025-06-17T08:55:37Z</time>
      </trkpt>
      <trkpt lat="43.39173" lon="3.65654">
        <ele>16.4</ele>
        <time>2025-06-17T08:55:38Z</time>
      </trkpt>
      <trkpt lat="43.39176" lon="3.65662">
        <ele>16.4</ele>
        <time>2025-06-17T08:55:39Z</time>
      </trkpt>
      <trkpt lat="43.39179" lon="3.65669">
        <ele>16.4</ele>
        <time>2025-06-17T08:55:40Z</time>
      </trkpt>
      <trkpt lat="43.39182" lon="3.65677">
        <ele>16.4</ele>
        <time>2025-06-17T08:55:41Z</time>
      </trkpt>
      <trkpt lat="43.39185" lon="3.65685">
        <ele>16.4</ele>
        <time>2025-06-17T08:55:42Z</time>
      </trkpt>
      <trkpt lat="43.39188" lon="3.65692">
        <ele>16.4</ele>
        <time>2025-06-17T08:55:43Z</time>
      </trkpt>
      <trkpt lat="43.3919" lon="3.65699">
        <ele>16.4</ele>
        <time>2025-06-17T08:55:44Z</time>
      </trkpt>
      <trkpt lat="43.39192" lon="3.65705">
        <ele>16.4</ele>
        <time>2025-06-17T08:55:45Z</time>
      </trkpt>
      <trkpt lat="43.39195" lon="3.65713">
        <ele>16.4</ele>
        <time>2025-06-17T08:55:46Z</time>
      </trkpt>
      <trkpt lat="43.39199" lon="3.65721">
        <ele>16.4</ele>
        <time>2025-06-17T08:55:47Z</time>
      </trkpt>
      <trkpt lat="43.39201" lon="3.65727">
        <ele>16.4</ele>
        <time>2025-06-17T08:55:48Z</time>
      </trkpt>
      <trkpt lat="43.39204" lon="3.65736">
        <ele>16.4</ele>
        <time>2025-06-17T08:55:49Z</time>
      </trkpt>
      <trkpt lat="43.39207" lon="3.65743">
        <ele>16.4</ele>
        <time>2025-06-17T08:55:50Z</time>
      </trkpt>
      <trkpt lat="43.3921" lon="3.6575">
        <ele>16.4</ele>
        <time>2025-06-17T08:55:51Z</time>
      </trkpt>
      <trkpt lat="43.39213" lon="3.65757">
        <ele>16.4</ele>
        <time>2025-06-17T08:55:52Z</time>
      </trkpt>
      <trkpt lat="43.39216" lon="3.65765">
        <ele>16.4</ele>
        <time>2025-06-17T08:55:53Z</time>
      </trkpt>
      <trkpt lat="43.39219" lon="3.65772">
        <ele>16.4</ele>
        <time>2025-06-17T08:55:54Z</time>
      </trkpt>
      <trkpt lat="43.39222" lon="3.65779">
        <ele>16.4</ele>
        <time>2025-06-17T08:55:55Z</time>
      </trkpt>
      <trkpt lat="43.39225" lon="3.65786">
        <ele>16.4</ele>
        <time>2025-06-17T08:55:56Z</time>
      </trkpt>
      <trkpt lat="43.39229" lon="3.65793">
        <ele>16.4</ele>
        <time>2025-06-17T08:55:57Z</time>
      </trkpt>
      <trkpt lat="43.39232" lon="3.65801">
        <ele>16.4</ele>
        <time>2025-06-17T08:55:58Z</time>
      </trkpt>
      <trkpt lat="43.39235" lon="3.65808">
        <ele>16.4</ele>
        <time>2025-06-17T08:55:59Z</time>
      </trkpt>
      <trkpt lat="43.39237" lon="3.65816">
        <ele>16.4</ele>
        <time>2025-06-17T08:56:00Z</time>
      </trkpt>
      <trkpt lat="43.3924" lon="3.65824">
        <ele>16.4</ele>
        <time>2025-06-17T08:56:01Z</time>
      </trkpt>
      <trkpt lat="43.39244" lon="3.65832">
        <ele>16.4</ele>
        <time>2025-06-17T08:56:02Z</time>
      </trkpt>
      <trkpt lat="43.39247" lon="3.65839">
        <ele>16.4</ele>
        <time>2025-06-17T08:56:03Z</time>
      </trkpt>
      <trkpt lat="43.3925" lon="3.65848">
        <ele>16.4</ele>
        <time>2025-06-17T08:56:04Z</time>
      </trkpt>
      <trkpt lat="43.39253" lon="3.65855">
        <ele>16.4</ele>
        <time>2025-06-17T08:56:05Z</time>
      </trkpt>
      <trkpt lat="43.39256" lon="3.65864">
        <ele>16.4</ele>
        <time>2025-06-17T08:56:06Z</time>
      </trkpt>
      <trkpt lat="43.39258" lon="3.65872">
        <ele>16.4</ele>
        <time>2025-06-17T08:56:07Z</time>
      </trkpt>
      <trkpt lat="43.39261" lon="3.65879">
        <ele>16.4</ele>
        <time>2025-06-17T08:56:08Z</time>
      </trkpt>
      <trkpt lat="43.39264" lon="3.65886">
        <ele>16.4</ele>
        <time>2025-06-17T08:56:09Z</time>
      </trkpt>
      <trkpt lat="43.39267" lon="3.65893">
        <ele>16.4</ele>
        <time>2025-06-17T08:56:10Z</time>
      </trkpt>
      <trkpt lat="43.39271" lon="3.65901">
        <ele>16.2</ele>
        <time>2025-06-17T08:56:11Z</time>
      </trkpt>
      <trkpt lat="43.39274" lon="3.65908">
        <ele>16.2</ele>
        <time>2025-06-17T08:56:12Z</time>
      </trkpt>
      <trkpt lat="43.39277" lon="3.65913">
        <ele>16.4</ele>
        <time>2025-06-17T08:56:13Z</time>
      </trkpt>
      <trkpt lat="43.3928" lon="3.6592">
        <ele>16.4</ele>
        <time>2025-06-17T08:56:14Z</time>
      </trkpt>
      <trkpt lat="43.39284" lon="3.65928">
        <ele>16.2</ele>
        <time>2025-06-17T08:56:15Z</time>
      </trkpt>
      <trkpt lat="43.39287" lon="3.65935">
        <ele>16.2</ele>
        <time>2025-06-17T08:56:16Z</time>
      </trkpt>
      <trkpt lat="43.3929" lon="3.65943">
        <ele>16.2</ele>
        <time>2025-06-17T08:56:17Z</time>
      </trkpt>
      <trkpt lat="43.39292" lon="3.65951">
        <ele>16.2</ele>
        <time>2025-06-17T08:56:18Z</time>
      </trkpt>
      <trkpt lat="43.39294" lon="3.65958">
        <ele>16.2</ele>
        <time>2025-06-17T08:56:19Z</time>
      </trkpt>
      <trkpt lat="43.39296" lon="3.65967">
        <ele>16.2</ele>
        <time>2025-06-17T08:56:20Z</time>
      </trkpt>
      <trkpt lat="43.39299" lon="3.65975">
        <ele>16.2</ele>
        <time>2025-06-17T08:56:21Z</time>
      </trkpt>
      <trkpt lat="43.39302" lon="3.65982">
        <ele>16.2</ele>
        <time>2025-06-17T08:56:22Z</time>
      </trkpt>
      <trkpt lat="43.39304" lon="3.6599">
        <ele>16.2</ele>
        <time>2025-06-17T08:56:23Z</time>
      </trkpt>
      <trkpt lat="43.39307" lon="3.65997">
        <ele>16.2</ele>
        <time>2025-06-17T08:56:24Z</time>
      </trkpt>
      <trkpt lat="43.3931" lon="3.66004">
        <ele>16.2</ele>
        <time>2025-06-17T08:56:25Z</time>
      </trkpt>
      <trkpt lat="43.39314" lon="3.66012">
        <ele>16.4</ele>
        <time>2025-06-17T08:56:26Z</time>
      </trkpt>
      <trkpt lat="43.39316" lon="3.66019">
        <ele>16.4</ele>
        <time>2025-06-17T08:56:27Z</time>
      </trkpt>
      <trkpt lat="43.39319" lon="3.66026">
        <ele>16.4</ele>
        <time>2025-06-17T08:56:28Z</time>
      </trkpt>
      <trkpt lat="43.39321" lon="3.66033">
        <ele>16.4</ele>
        <time>2025-06-17T08:56:29Z</time>
      </trkpt>
      <trkpt lat="43.39324" lon="3.6604">
        <ele>16.4</ele>
        <time>2025-06-17T08:56:30Z</time>
      </trkpt>
      <trkpt lat="43.39327" lon="3.66047">
        <ele>16.4</ele>
        <time>2025-06-17T08:56:31Z</time>
      </trkpt>
      <trkpt lat="43.39329" lon="3.66054">
        <ele>16.2</ele>
        <time>2025-06-17T08:56:32Z</time>
      </trkpt>
      <trkpt lat="43.39331" lon="3.6606">
        <ele>16.2</ele>
        <time>2025-06-17T08:56:33Z</time>
      </trkpt>
      <trkpt lat="43.39332" lon="3.66068">
        <ele>16.2</ele>
        <time>2025-06-17T08:56:34Z</time>
      </trkpt>
      <trkpt lat="43.39333" lon="3.66076">
        <ele>16.2</ele>
        <time>2025-06-17T08:56:35Z</time>
      </trkpt>
      <trkpt lat="43.39333" lon="3.66083">
        <ele>16.2</ele>
        <time>2025-06-17T08:56:36Z</time>
      </trkpt>
      <trkpt lat="43.39333" lon="3.6609">
        <ele>16.2</ele>
        <time>2025-06-17T08:56:37Z</time>
      </trkpt>
      <trkpt lat="43.39333" lon="3.66096">
        <ele>16.2</ele>
        <time>2025-06-17T08:56:38Z</time>
      </trkpt>
      <trkpt lat="43.39332" lon="3.66103">
        <ele>16.2</ele>
        <time>2025-06-17T08:56:39Z</time>
      </trkpt>
      <trkpt lat="43.39332" lon="3.6611">
        <ele>16.4</ele>
        <time>2025-06-17T08:56:40Z</time>
      </trkpt>
      <trkpt lat="43.39332" lon="3.66116">
        <ele>16.4</ele>
        <time>2025-06-17T08:56:41Z</time>
      </trkpt>
      <trkpt lat="43.39331" lon="3.66123">
        <ele>16.4</ele>
        <time>2025-06-17T08:56:42Z</time>
      </trkpt>
      <trkpt lat="43.39331" lon="3.66129">
        <ele>16.4</ele>
        <time>2025-06-17T08:56:43Z</time>
      </trkpt>
      <trkpt lat="43.39331" lon="3.66135">
        <ele>16.4</ele>
        <time>2025-06-17T08:56:44Z</time>
      </trkpt>
      <trkpt lat="43.39332" lon="3.66141">
        <ele>16.4</ele>
        <time>2025-06-17T08:56:45Z</time>
      </trkpt>
      <trkpt lat="43.39332" lon="3.66147">
        <ele>16.2</ele>
        <time>2025-06-17T08:56:46Z</time>
      </trkpt>
      <trkpt lat="43.3933" lon="3.66153">
        <ele>16.2</ele>
        <time>2025-06-17T08:56:47Z</time>
      </trkpt>
      <trkpt lat="43.39327" lon="3.66157">
        <ele>16.2</ele>
        <time>2025-06-17T08:56:48Z</time>
      </trkpt>
      <trkpt lat="43.39323" lon="3.6616">
        <ele>16.2</ele>
        <time>2025-06-17T08:56:49Z</time>
      </trkpt>
      <trkpt lat="43.39319" lon="3.66164">
        <ele>16.2</ele>
        <time>2025-06-17T08:56:50Z</time>
      </trkpt>
      <trkpt lat="43.39315" lon="3.66169">
        <ele>16.2</ele>
        <time>2025-06-17T08:56:51Z</time>
      </trkpt>
      <trkpt lat="43.39313" lon="3.66174">
        <ele>16.2</ele>
        <time>2025-06-17T08:56:52Z</time>
      </trkpt>
      <trkpt lat="43.39311" lon="3.6618">
        <ele>16.4</ele>
        <time>2025-06-17T08:56:53Z</time>
      </trkpt>
      <trkpt lat="43.39309" lon="3.66186">
        <ele>16.4</ele>
        <time>2025-06-17T08:56:54Z</time>
      </trkpt>
      <trkpt lat="43.39309" lon="3.66193">
        <ele>16.4</ele>
        <time>2025-06-17T08:56:55Z</time>
      </trkpt>
      <trkpt lat="43.3931" lon="3.662">
        <ele>16.6</ele>
        <time>2025-06-17T08:56:56Z</time>
      </trkpt>
      <trkpt lat="43.39312" lon="3.66206">
        <ele>16.6</ele>
        <time>2025-06-17T08:56:57Z</time>
      </trkpt>
      <trkpt lat="43.39314" lon="3.66213">
        <ele>16.6</ele>
        <time>2025-06-17T08:56:58Z</time>
      </trkpt>
      <trkpt lat="43.39317" lon="3.66219">
        <ele>16.8</ele>
        <time>2025-06-17T08:56:59Z</time>
      </trkpt>
      <trkpt lat="43.39319" lon="3.66226">
        <ele>16.8</ele>
        <time>2025-06-17T08:57:00Z</time>
      </trkpt>
      <trkpt lat="43.39322" lon="3.66232">
        <ele>16.8</ele>
        <time>2025-06-17T08:57:01Z</time>
      </trkpt>
      <trkpt lat="43.39324" lon="3.66239">
        <ele>16.8</ele>
        <time>2025-06-17T08:57:02Z</time>
      </trkpt>
      <trkpt lat="43.39326" lon="3.66246">
        <ele>16.8</ele>
        <time>2025-06-17T08:57:03Z</time>
      </trkpt>
      <trkpt lat="43.39328" lon="3.66251">
        <ele>16.8</ele>
        <time>2025-06-17T08:57:04Z</time>
      </trkpt>
      <trkpt lat="43.3933" lon="3.66258">
        <ele>16.8</ele>
        <time>2025-06-17T08:57:05Z</time>
      </trkpt>
      <trkpt lat="43.39332" lon="3.66267">
        <ele>16.8</ele>
        <time>2025-06-17T08:57:06Z</time>
      </trkpt>
      <trkpt lat="43.39334" lon="3.66273">
        <ele>17</ele>
        <time>2025-06-17T08:57:07Z</time>
      </trkpt>
      <trkpt lat="43.39336" lon="3.66281">
        <ele>17</ele>
        <time>2025-06-17T08:57:08Z</time>
      </trkpt>
      <trkpt lat="43.39337" lon="3.66287">
        <ele>17.2</ele>
        <time>2025-06-17T08:57:09Z</time>
      </trkpt>
      <trkpt lat="43.39338" lon="3.66294">
        <ele>17.2</ele>
        <time>2025-06-17T08:57:10Z</time>
      </trkpt>
      <trkpt lat="43.39339" lon="3.663">
        <ele>17.4</ele>
        <time>2025-06-17T08:57:11Z</time>
      </trkpt>
      <trkpt lat="43.39341" lon="3.66307">
        <ele>17.4</ele>
        <time>2025-06-17T08:57:12Z</time>
      </trkpt>
      <trkpt lat="43.39343" lon="3.66313">
        <ele>17.4</ele>
        <time>2025-06-17T08:57:13Z</time>
      </trkpt>
      <trkpt lat="43.39345" lon="3.66319">
        <ele>17.4</ele>
        <time>2025-06-17T08:57:14Z</time>
      </trkpt>
      <trkpt lat="43.39348" lon="3.66326">
        <ele>17.6</ele>
        <time>2025-06-17T08:57:15Z</time>
      </trkpt>
      <trkpt lat="43.3935" lon="3.66332">
        <ele>17.6</ele>
        <time>2025-06-17T08:57:16Z</time>
      </trkpt>
      <trkpt lat="43.39352" lon="3.66338">
        <ele>17.6</ele>
        <time>2025-06-17T08:57:17Z</time>
      </trkpt>
      <trkpt lat="43.39355" lon="3.66344">
        <ele>17.4</ele>
        <time>2025-06-17T08:57:18Z</time>
      </trkpt>
      <trkpt lat="43.39358" lon="3.66351">
        <ele>17.4</ele>
        <time>2025-06-17T08:57:19Z</time>
      </trkpt>
      <trkpt lat="43.3936" lon="3.66357">
        <ele>17.4</ele>
        <time>2025-06-17T08:57:20Z</time>
      </trkpt>
      <trkpt lat="43.39362" lon="3.66365">
        <ele>17.2</ele>
        <time>2025-06-17T08:57:21Z</time>
      </trkpt>
      <trkpt lat="43.39363" lon="3.66374">
        <ele>17.2</ele>
        <time>2025-06-17T08:57:22Z</time>
      </trkpt>
      <trkpt lat="43.39362" lon="3.66381">
        <ele>17</ele>
        <time>2025-06-17T08:57:23Z</time>
      </trkpt>
      <trkpt lat="43.39361" lon="3.66389">
        <ele>17</ele>
        <time>2025-06-17T08:57:24Z</time>
      </trkpt>
      <trkpt lat="43.3936" lon="3.66396">
        <ele>17</ele>
        <time>2025-06-17T08:57:25Z</time>
      </trkpt>
      <trkpt lat="43.3936" lon="3.66404">
        <ele>16.8</ele>
        <time>2025-06-17T08:57:26Z</time>
      </trkpt>
      <trkpt lat="43.39361" lon="3.66412">
        <ele>16.8</ele>
        <time>2025-06-17T08:57:27Z</time>
      </trkpt>
      <trkpt lat="43.39362" lon="3.66419">
        <ele>16.6</ele>
        <time>2025-06-17T08:57:28Z</time>
      </trkpt>
      <trkpt lat="43.39362" lon="3.66427">
        <ele>16.6</ele>
        <time>2025-06-17T08:57:29Z</time>
      </trkpt>
      <trkpt lat="43.39363" lon="3.66434">
        <ele>16.4</ele>
        <time>2025-06-17T08:57:30Z</time>
      </trkpt>
      <trkpt lat="43.39363" lon="3.66442">
        <ele>16.4</ele>
        <time>2025-06-17T08:57:31Z</time>
      </trkpt>
      <trkpt lat="43.39364" lon="3.66452">
        <ele>16.4</ele>
        <time>2025-06-17T08:57:32Z</time>
      </trkpt>
      <trkpt lat="43.39365" lon="3.6646">
        <ele>16.4</ele>
        <time>2025-06-17T08:57:33Z</time>
      </trkpt>
      <trkpt lat="43.39366" lon="3.66468">
        <ele>16.4</ele>
        <time>2025-06-17T08:57:34Z</time>
      </trkpt>
      <trkpt lat="43.39366" lon="3.66476">
        <ele>16.4</ele>
        <time>2025-06-17T08:57:35Z</time>
      </trkpt>
      <trkpt lat="43.39367" lon="3.66485">
        <ele>16.4</ele>
        <time>2025-06-17T08:57:36Z</time>
      </trkpt>
      <trkpt lat="43.39368" lon="3.66493">
        <ele>16.4</ele>
        <time>2025-06-17T08:57:37Z</time>
      </trkpt>
      <trkpt lat="43.39369" lon="3.665">
        <ele>16.4</ele>
        <time>2025-06-17T08:57:38Z</time>
      </trkpt>
      <trkpt lat="43.3937" lon="3.66508">
        <ele>16.4</ele>
        <time>2025-06-17T08:57:39Z</time>
      </trkpt>
      <trkpt lat="43.39372" lon="3.66516">
        <ele>16.4</ele>
        <time>2025-06-17T08:57:40Z</time>
      </trkpt>
      <trkpt lat="43.39373" lon="3.66523">
        <ele>16.4</ele>
        <time>2025-06-17T08:57:41Z</time>
      </trkpt>
      <trkpt lat="43.39373" lon="3.66531">
        <ele>16.4</ele>
        <time>2025-06-17T08:57:42Z</time>
      </trkpt>
      <trkpt lat="43.39375" lon="3.66538">
        <ele>16.4</ele>
        <time>2025-06-17T08:57:43Z</time>
      </trkpt>
      <trkpt lat="43.39376" lon="3.66544">
        <ele>16.4</ele>
        <time>2025-06-17T08:57:44Z</time>
      </trkpt>
      <trkpt lat="43.39378" lon="3.66551">
        <ele>16.4</ele>
        <time>2025-06-17T08:57:45Z</time>
      </trkpt>
      <trkpt lat="43.39381" lon="3.66556">
        <ele>16.4</ele>
        <time>2025-06-17T08:57:46Z</time>
      </trkpt>
      <trkpt lat="43.39384" lon="3.66562">
        <ele>16.6</ele>
        <time>2025-06-17T08:57:47Z</time>
      </trkpt>
      <trkpt lat="43.39387" lon="3.66567">
        <ele>16.6</ele>
        <time>2025-06-17T08:57:48Z</time>
      </trkpt>
      <trkpt lat="43.39389" lon="3.66574">
        <ele>16.6</ele>
        <time>2025-06-17T08:57:49Z</time>
      </trkpt>
      <trkpt lat="43.3939" lon="3.66581">
        <ele>16.8</ele>
        <time>2025-06-17T08:57:50Z</time>
      </trkpt>
      <trkpt lat="43.39391" lon="3.66588">
        <ele>16.8</ele>
        <time>2025-06-17T08:57:51Z</time>
      </trkpt>
      <trkpt lat="43.39392" lon="3.66596">
        <ele>16.8</ele>
        <time>2025-06-17T08:57:52Z</time>
      </trkpt>
      <trkpt lat="43.39393" lon="3.66603">
        <ele>16.8</ele>
        <time>2025-06-17T08:57:53Z</time>
      </trkpt>
      <trkpt lat="43.39394" lon="3.66611">
        <ele>16.8</ele>
        <time>2025-06-17T08:57:54Z</time>
      </trkpt>
      <trkpt lat="43.39396" lon="3.66619">
        <ele>16.8</ele>
        <time>2025-06-17T08:57:55Z</time>
      </trkpt>
      <trkpt lat="43.39398" lon="3.66626">
        <ele>16.8</ele>
        <time>2025-06-17T08:57:56Z</time>
      </trkpt>
      <trkpt lat="43.394" lon="3.66636">
        <ele>16.8</ele>
        <time>2025-06-17T08:57:57Z</time>
      </trkpt>
      <trkpt lat="43.39401" lon="3.66644">
        <ele>16.8</ele>
        <time>2025-06-17T08:57:58Z</time>
      </trkpt>
      <trkpt lat="43.39402" lon="3.66652">
        <ele>16.8</ele>
        <time>2025-06-17T08:57:59Z</time>
      </trkpt>
      <trkpt lat="43.39403" lon="3.66661">
        <ele>16.8</ele>
        <time>2025-06-17T08:58:00Z</time>
      </trkpt>
      <trkpt lat="43.39404" lon="3.66669">
        <ele>16.8</ele>
        <time>2025-06-17T08:58:01Z</time>
      </trkpt>
      <trkpt lat="43.39405" lon="3.66678">
        <ele>16.8</ele>
        <time>2025-06-17T08:58:02Z</time>
      </trkpt>
      <trkpt lat="43.39406" lon="3.66686">
        <ele>16.8</ele>
        <time>2025-06-17T08:58:03Z</time>
      </trkpt>
      <trkpt lat="43.39407" lon="3.66694">
        <ele>17</ele>
        <time>2025-06-17T08:58:04Z</time>
      </trkpt>
      <trkpt lat="43.39409" lon="3.66702">
        <ele>17</ele>
        <time>2025-06-17T08:58:05Z</time>
      </trkpt>
      <trkpt lat="43.39409" lon="3.6671">
        <ele>17</ele>
        <time>2025-06-17T08:58:06Z</time>
      </trkpt>
      <trkpt lat="43.3941" lon="3.66719">
        <ele>17</ele>
        <time>2025-06-17T08:58:07Z</time>
      </trkpt>
      <trkpt lat="43.39411" lon="3.66727">
        <ele>17</ele>
        <time>2025-06-17T08:58:08Z</time>
      </trkpt>
      <trkpt lat="43.39412" lon="3.66735">
        <ele>17</ele>
        <time>2025-06-17T08:58:09Z</time>
      </trkpt>
      <trkpt lat="43.39413" lon="3.66743">
        <ele>17</ele>
        <time>2025-06-17T08:58:10Z</time>
      </trkpt>
      <trkpt lat="43.39414" lon="3.6675">
        <ele>17</ele>
        <time>2025-06-17T08:58:11Z</time>
      </trkpt>
      <trkpt lat="43.39415" lon="3.66758">
        <ele>17</ele>
        <time>2025-06-17T08:58:12Z</time>
      </trkpt>
      <trkpt lat="43.39416" lon="3.66766">
        <ele>17</ele>
        <time>2025-06-17T08:58:13Z</time>
      </trkpt>
      <trkpt lat="43.39417" lon="3.66774">
        <ele>17.2</ele>
        <time>2025-06-17T08:58:14Z</time>
      </trkpt>
      <trkpt lat="43.39417" lon="3.66781">
        <ele>17.2</ele>
        <time>2025-06-17T08:58:15Z</time>
      </trkpt>
      <trkpt lat="43.39418" lon="3.6679">
        <ele>17.2</ele>
        <time>2025-06-17T08:58:16Z</time>
      </trkpt>
      <trkpt lat="43.39419" lon="3.66798">
        <ele>17.2</ele>
        <time>2025-06-17T08:58:17Z</time>
      </trkpt>
      <trkpt lat="43.3942" lon="3.66806">
        <ele>17.4</ele>
        <time>2025-06-17T08:58:18Z</time>
      </trkpt>
      <trkpt lat="43.39421" lon="3.66812">
        <ele>17.4</ele>
        <time>2025-06-17T08:58:19Z</time>
      </trkpt>
      <trkpt lat="43.39422" lon="3.66822">
        <ele>17.4</ele>
        <time>2025-06-17T08:58:20Z</time>
      </trkpt>
      <trkpt lat="43.39423" lon="3.66829">
        <ele>17.4</ele>
        <time>2025-06-17T08:58:21Z</time>
      </trkpt>
      <trkpt lat="43.39423" lon="3.66838">
        <ele>17.4</ele>
        <time>2025-06-17T08:58:22Z</time>
      </trkpt>
      <trkpt lat="43.39424" lon="3.66846">
        <ele>17.4</ele>
        <time>2025-06-17T08:58:23Z</time>
      </trkpt>
      <trkpt lat="43.39425" lon="3.66854">
        <ele>17.4</ele>
        <time>2025-06-17T08:58:24Z</time>
      </trkpt>
      <trkpt lat="43.39425" lon="3.66862">
        <ele>17.6</ele>
        <time>2025-06-17T08:58:25Z</time>
      </trkpt>
      <trkpt lat="43.39426" lon="3.6687">
        <ele>17.6</ele>
        <time>2025-06-17T08:58:26Z</time>
      </trkpt>
      <trkpt lat="43.39427" lon="3.66878">
        <ele>17.6</ele>
        <time>2025-06-17T08:58:27Z</time>
      </trkpt>
      <trkpt lat="43.39428" lon="3.66886">
        <ele>17.8</ele>
        <time>2025-06-17T08:58:28Z</time>
      </trkpt>
      <trkpt lat="43.39428" lon="3.66894">
        <ele>17.8</ele>
        <time>2025-06-17T08:58:29Z</time>
      </trkpt>
      <trkpt lat="43.39429" lon="3.66902">
        <ele>17.8</ele>
        <time>2025-06-17T08:58:30Z</time>
      </trkpt>
      <trkpt lat="43.3943" lon="3.6691">
        <ele>18</ele>
        <time>2025-06-17T08:58:31Z</time>
      </trkpt>
      <trkpt lat="43.39431" lon="3.66919">
        <ele>18</ele>
        <time>2025-06-17T08:58:32Z</time>
      </trkpt>
      <trkpt lat="43.39431" lon="3.66927">
        <ele>18</ele>
        <time>2025-06-17T08:58:33Z</time>
      </trkpt>
      <trkpt lat="43.39431" lon="3.66935">
        <ele>18</ele>
        <time>2025-06-17T08:58:34Z</time>
      </trkpt>
      <trkpt lat="43.39432" lon="3.66943">
        <ele>18</ele>
        <time>2025-06-17T08:58:35Z</time>
      </trkpt>
      <trkpt lat="43.39431" lon="3.66951">
        <ele>18</ele>
        <time>2025-06-17T08:58:36Z</time>
      </trkpt>
      <trkpt lat="43.3943" lon="3.66959">
        <ele>18.2</ele>
        <time>2025-06-17T08:58:37Z</time>
      </trkpt>
      <trkpt lat="43.39429" lon="3.66967">
        <ele>18.2</ele>
        <time>2025-06-17T08:58:38Z</time>
      </trkpt>
      <trkpt lat="43.39427" lon="3.66974">
        <ele>18.4</ele>
        <time>2025-06-17T08:58:39Z</time>
      </trkpt>
      <trkpt lat="43.39426" lon="3.66983">
        <ele>18.6</ele>
        <time>2025-06-17T08:58:40Z</time>
      </trkpt>
      <trkpt lat="43.39424" lon="3.6699">
        <ele>18.8</ele>
        <time>2025-06-17T08:58:41Z</time>
      </trkpt>
      <trkpt lat="43.39423" lon="3.66999">
        <ele>19</ele>
        <time>2025-06-17T08:58:42Z</time>
      </trkpt>
      <trkpt lat="43.39422" lon="3.67006">
        <ele>19</ele>
        <time>2025-06-17T08:58:43Z</time>
      </trkpt>
      <trkpt lat="43.39421" lon="3.67014">
        <ele>19.2</ele>
        <time>2025-06-17T08:58:44Z</time>
      </trkpt>
      <trkpt lat="43.39419" lon="3.67022">
        <ele>19.2</ele>
        <time>2025-06-17T08:58:45Z</time>
      </trkpt>
      <trkpt lat="43.39417" lon="3.67029">
        <ele>19.4</ele>
        <time>2025-06-17T08:58:46Z</time>
      </trkpt>
      <trkpt lat="43.39415" lon="3.67036">
        <ele>19.4</ele>
        <time>2025-06-17T08:58:47Z</time>
      </trkpt>
      <trkpt lat="43.39413" lon="3.67043">
        <ele>19.4</ele>
        <time>2025-06-17T08:58:48Z</time>
      </trkpt>
      <trkpt lat="43.39411" lon="3.6705">
        <ele>19.6</ele>
        <time>2025-06-17T08:58:49Z</time>
      </trkpt>
      <trkpt lat="43.39408" lon="3.67057">
        <ele>19.6</ele>
        <time>2025-06-17T08:58:50Z</time>
      </trkpt>
      <trkpt lat="43.39406" lon="3.67064">
        <ele>19.6</ele>
        <time>2025-06-17T08:58:51Z</time>
      </trkpt>
      <trkpt lat="43.39404" lon="3.67071">
        <ele>19.8</ele>
        <time>2025-06-17T08:58:52Z</time>
      </trkpt>
      <trkpt lat="43.39402" lon="3.67078">
        <ele>19.8</ele>
        <time>2025-06-17T08:58:53Z</time>
      </trkpt>
      <trkpt lat="43.394" lon="3.67085">
        <ele>20</ele>
        <time>2025-06-17T08:58:54Z</time>
      </trkpt>
      <trkpt lat="43.39399" lon="3.67092">
        <ele>20</ele>
        <time>2025-06-17T08:58:55Z</time>
      </trkpt>
      <trkpt lat="43.39396" lon="3.67098">
        <ele>20</ele>
        <time>2025-06-17T08:58:56Z</time>
      </trkpt>
      <trkpt lat="43.39394" lon="3.67105">
        <ele>20.2</ele>
        <time>2025-06-17T08:58:57Z</time>
      </trkpt>
      <trkpt lat="43.39392" lon="3.67112">
        <ele>20.2</ele>
        <time>2025-06-17T08:58:58Z</time>
      </trkpt>
      <trkpt lat="43.39391" lon="3.67118">
        <ele>20.2</ele>
        <time>2025-06-17T08:58:59Z</time>
      </trkpt>
      <trkpt lat="43.39389" lon="3.67125">
        <ele>20.4</ele>
        <time>2025-06-17T08:59:00Z</time>
      </trkpt>
      <trkpt lat="43.39387" lon="3.67132">
        <ele>20.6</ele>
        <time>2025-06-17T08:59:01Z</time>
      </trkpt>
      <trkpt lat="43.39385" lon="3.67138">
        <ele>20.6</ele>
        <time>2025-06-17T08:59:02Z</time>
      </trkpt>
      <trkpt lat="43.39382" lon="3.67145">
        <ele>20.6</ele>
        <time>2025-06-17T08:59:03Z</time>
      </trkpt>
      <trkpt lat="43.3938" lon="3.67152">
        <ele>20.8</ele>
        <time>2025-06-17T08:59:04Z</time>
      </trkpt>
      <trkpt lat="43.39378" lon="3.67158">
        <ele>20.8</ele>
        <time>2025-06-17T08:59:05Z</time>
      </trkpt>
      <trkpt lat="43.39375" lon="3.67164">
        <ele>20.8</ele>
        <time>2025-06-17T08:59:06Z</time>
      </trkpt>
      <trkpt lat="43.39373" lon="3.67171">
        <ele>20.8</ele>
        <time>2025-06-17T08:59:07Z</time>
      </trkpt>
      <trkpt lat="43.3937" lon="3.67177">
        <ele>20.8</ele>
        <time>2025-06-17T08:59:08Z</time>
      </trkpt>
      <trkpt lat="43.39367" lon="3.67182">
        <ele>20.8</ele>
        <time>2025-06-17T08:59:09Z</time>
      </trkpt>
      <trkpt lat="43.39364" lon="3.67189">
        <ele>20.8</ele>
        <time>2025-06-17T08:59:10Z</time>
      </trkpt>
      <trkpt lat="43.39361" lon="3.67195">
        <ele>21</ele>
        <time>2025-06-17T08:59:11Z</time>
      </trkpt>
      <trkpt lat="43.39358" lon="3.67201">
        <ele>21</ele>
        <time>2025-06-17T08:59:12Z</time>
      </trkpt>
      <trkpt lat="43.39355" lon="3.67207">
        <ele>21</ele>
        <time>2025-06-17T08:59:13Z</time>
      </trkpt>
      <trkpt lat="43.39352" lon="3.67213">
        <ele>21</ele>
        <time>2025-06-17T08:59:14Z</time>
      </trkpt>
      <trkpt lat="43.39349" lon="3.67218">
        <ele>21</ele>
        <time>2025-06-17T08:59:15Z</time>
      </trkpt>
      <trkpt lat="43.39346" lon="3.67224">
        <ele>21.2</ele>
        <time>2025-06-17T08:59:16Z</time>
      </trkpt>
      <trkpt lat="43.39342" lon="3.6723">
        <ele>21.2</ele>
        <time>2025-06-17T08:59:17Z</time>
      </trkpt>
      <trkpt lat="43.39339" lon="3.67236">
        <ele>21.2</ele>
        <time>2025-06-17T08:59:18Z</time>
      </trkpt>
      <trkpt lat="43.39336" lon="3.67242">
        <ele>21.2</ele>
        <time>2025-06-17T08:59:19Z</time>
      </trkpt>
      <trkpt lat="43.39333" lon="3.67247">
        <ele>21.2</ele>
        <time>2025-06-17T08:59:20Z</time>
      </trkpt>
      <trkpt lat="43.3933" lon="3.67253">
        <ele>21.2</ele>
        <time>2025-06-17T08:59:21Z</time>
      </trkpt>
      <trkpt lat="43.39327" lon="3.6726">
        <ele>21.2</ele>
        <time>2025-06-17T08:59:22Z</time>
      </trkpt>
      <trkpt lat="43.39324" lon="3.67265">
        <ele>21.2</ele>
        <time>2025-06-17T08:59:23Z</time>
      </trkpt>
      <trkpt lat="43.39321" lon="3.67271">
        <ele>21.2</ele>
        <time>2025-06-17T08:59:24Z</time>
      </trkpt>
      <trkpt lat="43.39317" lon="3.67276">
        <ele>21.2</ele>
        <time>2025-06-17T08:59:25Z</time>
      </trkpt>
      <trkpt lat="43.39314" lon="3.67282">
        <ele>21.2</ele>
        <time>2025-06-17T08:59:26Z</time>
      </trkpt>
      <trkpt lat="43.39311" lon="3.67288">
        <ele>21.4</ele>
        <time>2025-06-17T08:59:27Z</time>
      </trkpt>
      <trkpt lat="43.39308" lon="3.67294">
        <ele>21.4</ele>
        <time>2025-06-17T08:59:28Z</time>
      </trkpt>
      <trkpt lat="43.39305" lon="3.67299">
        <ele>21.4</ele>
        <time>2025-06-17T08:59:29Z</time>
      </trkpt>
      <trkpt lat="43.39302" lon="3.67305">
        <ele>21.4</ele>
        <time>2025-06-17T08:59:30Z</time>
      </trkpt>
      <trkpt lat="43.39298" lon="3.67311">
        <ele>21.4</ele>
        <time>2025-06-17T08:59:31Z</time>
      </trkpt>
      <trkpt lat="43.39295" lon="3.67316">
        <ele>21.4</ele>
        <time>2025-06-17T08:59:32Z</time>
      </trkpt>
      <trkpt lat="43.39292" lon="3.67322">
        <ele>21.4</ele>
        <time>2025-06-17T08:59:33Z</time>
      </trkpt>
      <trkpt lat="43.39288" lon="3.67327">
        <ele>21.6</ele>
        <time>2025-06-17T08:59:34Z</time>
      </trkpt>
      <trkpt lat="43.39285" lon="3.67333">
        <ele>21.6</ele>
        <time>2025-06-17T08:59:35Z</time>
      </trkpt>
      <trkpt lat="43.39282" lon="3.67338">
        <ele>21.6</ele>
        <time>2025-06-17T08:59:36Z</time>
      </trkpt>
      <trkpt lat="43.39279" lon="3.67344">
        <ele>21.8</ele>
        <time>2025-06-17T08:59:37Z</time>
      </trkpt>
      <trkpt lat="43.39276" lon="3.6735">
        <ele>21.8</ele>
        <time>2025-06-17T08:59:38Z</time>
      </trkpt>
      <trkpt lat="43.39274" lon="3.67355">
        <ele>21.8</ele>
        <time>2025-06-17T08:59:39Z</time>
      </trkpt>
      <trkpt lat="43.39271" lon="3.67362">
        <ele>21.8</ele>
        <time>2025-06-17T08:59:40Z</time>
      </trkpt>
      <trkpt lat="43.39268" lon="3.6737">
        <ele>22</ele>
        <time>2025-06-17T08:59:41Z</time>
      </trkpt>
      <trkpt lat="43.39266" lon="3.67377">
        <ele>22</ele>
        <time>2025-06-17T08:59:42Z</time>
      </trkpt>
      <trkpt lat="43.39265" lon="3.67384">
        <ele>22</ele>
        <time>2025-06-17T08:59:43Z</time>
      </trkpt>
      <trkpt lat="43.39264" lon="3.67392">
        <ele>22</ele>
        <time>2025-06-17T08:59:44Z</time>
      </trkpt>
      <trkpt lat="43.39263" lon="3.67399">
        <ele>22</ele>
        <time>2025-06-17T08:59:45Z</time>
      </trkpt>
      <trkpt lat="43.39263" lon="3.67407">
        <ele>22</ele>
        <time>2025-06-17T08:59:46Z</time>
      </trkpt>
      <trkpt lat="43.39263" lon="3.67414">
        <ele>22.2</ele>
        <time>2025-06-17T08:59:47Z</time>
      </trkpt>
      <trkpt lat="43.39263" lon="3.67422">
        <ele>22.2</ele>
        <time>2025-06-17T08:59:48Z</time>
      </trkpt>
      <trkpt lat="43.39262" lon="3.67428">
        <ele>22.4</ele>
        <time>2025-06-17T08:59:49Z</time>
      </trkpt>
      <trkpt lat="43.39262" lon="3.67436">
        <ele>22.4</ele>
        <time>2025-06-17T08:59:50Z</time>
      </trkpt>
      <trkpt lat="43.39262" lon="3.67443">
        <ele>22.4</ele>
        <time>2025-06-17T08:59:51Z</time>
      </trkpt>
      <trkpt lat="43.39263" lon="3.67449">
        <ele>22.6</ele>
        <time>2025-06-17T08:59:52Z</time>
      </trkpt>
      <trkpt lat="43.39263" lon="3.67455">
        <ele>22.6</ele>
        <time>2025-06-17T08:59:53Z</time>
      </trkpt>
      <trkpt lat="43.39264" lon="3.67461">
        <ele>22.8</ele>
        <time>2025-06-17T08:59:54Z</time>
      </trkpt>
      <trkpt lat="43.39265" lon="3.67467">
        <ele>22.8</ele>
        <time>2025-06-17T08:59:55Z</time>
      </trkpt>
      <trkpt lat="43.39267" lon="3.67473">
        <ele>23</ele>
        <time>2025-06-17T08:59:56Z</time>
      </trkpt>
      <trkpt lat="43.39268" lon="3.67478">
        <ele>23</ele>
        <time>2025-06-17T08:59:57Z</time>
      </trkpt>
      <trkpt lat="43.39269" lon="3.67483">
        <ele>23.2</ele>
        <time>2025-06-17T08:59:58Z</time>
      </trkpt>
      <trkpt lat="43.3927" lon="3.67487">
        <ele>23.2</ele>
        <time>2025-06-17T08:59:59Z</time>
      </trkpt>
      <trkpt lat="43.39271" lon="3.67491">
        <ele>23.4</ele>
        <time>2025-06-17T09:00:00Z</time>
      </trkpt>
      <trkpt lat="43.39272" lon="3.67495">
        <ele>23.6</ele>
        <time>2025-06-17T09:00:01Z</time>
      </trkpt>
      <trkpt lat="43.39273" lon="3.67498">
        <ele>23.8</ele>
        <time>2025-06-17T09:00:02Z</time>
      </trkpt>
      <trkpt lat="43.39274" lon="3.67501">
        <ele>23.8</ele>
        <time>2025-06-17T09:00:03Z</time>
      </trkpt>
      <trkpt lat="43.39275" lon="3.67502">
        <ele>24</ele>
        <time>2025-06-17T09:00:04Z</time>
      </trkpt>
      <trkpt lat="43.39276" lon="3.67505">
        <ele>24.2</ele>
        <time>2025-06-17T09:00:05Z</time>
      </trkpt>
      <trkpt lat="43.39279" lon="3.67511">
        <ele>24.6</ele>
        <time>2025-06-17T09:00:13Z</time>
      </trkpt>
      <trkpt lat="43.3928" lon="3.67513">
        <ele>24.6</ele>
        <time>2025-06-17T09:00:14Z</time>
      </trkpt>
      <trkpt lat="43.39281" lon="3.67516">
        <ele>24.6</ele>
        <time>2025-06-17T09:00:15Z</time>
      </trkpt>
      <trkpt lat="43.39282" lon="3.67518">
        <ele>24.8</ele>
        <time>2025-06-17T09:00:16Z</time>
      </trkpt>
      <trkpt lat="43.39284" lon="3.6752">
        <ele>24.8</ele>
        <time>2025-06-17T09:00:17Z</time>
      </trkpt>
      <trkpt lat="43.39286" lon="3.67523">
        <ele>24.8</ele>
        <time>2025-06-17T09:00:18Z</time>
      </trkpt>
      <trkpt lat="43.39287" lon="3.67525">
        <ele>25</ele>
        <time>2025-06-17T09:00:19Z</time>
      </trkpt>
      <trkpt lat="43.39289" lon="3.67527">
        <ele>25.2</ele>
        <time>2025-06-17T09:00:20Z</time>
      </trkpt>
      <trkpt lat="43.3929" lon="3.6753">
        <ele>25.2</ele>
        <time>2025-06-17T09:00:21Z</time>
      </trkpt>
      <trkpt lat="43.39292" lon="3.67533">
        <ele>25.4</ele>
        <time>2025-06-17T09:00:22Z</time>
      </trkpt>
      <trkpt lat="43.39294" lon="3.67536">
        <ele>25.6</ele>
        <time>2025-06-17T09:00:23Z</time>
      </trkpt>
      <trkpt lat="43.39295" lon="3.67539">
        <ele>25.6</ele>
        <time>2025-06-17T09:00:24Z</time>
      </trkpt>
      <trkpt lat="43.39296" lon="3.67542">
        <ele>25.8</ele>
        <time>2025-06-17T09:00:25Z</time>
      </trkpt>
      <trkpt lat="43.39298" lon="3.67545">
        <ele>26</ele>
        <time>2025-06-17T09:00:26Z</time>
      </trkpt>
      <trkpt lat="43.393" lon="3.67548">
        <ele>26.2</ele>
        <time>2025-06-17T09:00:27Z</time>
      </trkpt>
      <trkpt lat="43.39302" lon="3.6755">
        <ele>26.4</ele>
        <time>2025-06-17T09:00:28Z</time>
      </trkpt>
      <trkpt lat="43.39304" lon="3.67553">
        <ele>26.4</ele>
        <time>2025-06-17T09:00:29Z</time>
      </trkpt>
      <trkpt lat="43.39306" lon="3.67555">
        <ele>26.6</ele>
        <time>2025-06-17T09:00:30Z</time>
      </trkpt>
      <trkpt lat="43.39308" lon="3.67558">
        <ele>26.8</ele>
        <time>2025-06-17T09:00:31Z</time>
      </trkpt>
      <trkpt lat="43.3931" lon="3.67561">
        <ele>27</ele>
        <time>2025-06-17T09:00:32Z</time>
      </trkpt>
      <trkpt lat="43.39312" lon="3.67564">
        <ele>27.2</ele>
        <time>2025-06-17T09:00:33Z</time>
      </trkpt>
      <trkpt lat="43.39314" lon="3.67566">
        <ele>27.2</ele>
        <time>2025-06-17T09:00:34Z</time>
      </trkpt>
      <trkpt lat="43.39316" lon="3.6757">
        <ele>27.4</ele>
        <time>2025-06-17T09:00:35Z</time>
      </trkpt>
      <trkpt lat="43.39317" lon="3.67572">
        <ele>27.6</ele>
        <time>2025-06-17T09:00:36Z</time>
      </trkpt>
      <trkpt lat="43.39319" lon="3.67576">
        <ele>27.8</ele>
        <time>2025-06-17T09:00:37Z</time>
      </trkpt>
      <trkpt lat="43.39321" lon="3.67579">
        <ele>28</ele>
        <time>2025-06-17T09:00:38Z</time>
      </trkpt>
      <trkpt lat="43.39322" lon="3.67582">
        <ele>28.2</ele>
        <time>2025-06-17T09:00:39Z</time>
      </trkpt>
      <trkpt lat="43.39324" lon="3.67584">
        <ele>28.4</ele>
        <time>2025-06-17T09:00:40Z</time>
      </trkpt>
      <trkpt lat="43.39326" lon="3.67587">
        <ele>28.4</ele>
        <time>2025-06-17T09:00:41Z</time>
      </trkpt>
      <trkpt lat="43.39328" lon="3.6759">
        <ele>28.6</ele>
        <time>2025-06-17T09:00:42Z</time>
      </trkpt>
      <trkpt lat="43.39329" lon="3.67593">
        <ele>28.8</ele>
        <time>2025-06-17T09:00:43Z</time>
      </trkpt>
      <trkpt lat="43.39331" lon="3.67595">
        <ele>29</ele>
        <time>2025-06-17T09:00:44Z</time>
      </trkpt>
      <trkpt lat="43.39333" lon="3.67598">
        <ele>29.2</ele>
        <time>2025-06-17T09:00:45Z</time>
      </trkpt>
      <trkpt lat="43.39335" lon="3.67601">
        <ele>29.4</ele>
        <time>2025-06-17T09:00:46Z</time>
      </trkpt>
      <trkpt lat="43.39337" lon="3.67604">
        <ele>29.6</ele>
        <time>2025-06-17T09:00:47Z</time>
      </trkpt>
      <trkpt lat="43.39339" lon="3.67606">
        <ele>29.8</ele>
        <time>2025-06-17T09:00:48Z</time>
      </trkpt>
      <trkpt lat="43.39341" lon="3.67609">
        <ele>29.8</ele>
        <time>2025-06-17T09:00:49Z</time>
      </trkpt>
      <trkpt lat="43.39343" lon="3.67612">
        <ele>30</ele>
        <time>2025-06-17T09:00:50Z</time>
      </trkpt>
      <trkpt lat="43.39345" lon="3.67614">
        <ele>30.2</ele>
        <time>2025-06-17T09:00:51Z</time>
      </trkpt>
      <trkpt lat="43.39347" lon="3.67616">
        <ele>30.4</ele>
        <time>2025-06-17T09:00:52Z</time>
      </trkpt>
      <trkpt lat="43.39349" lon="3.67619">
        <ele>30.6</ele>
        <time>2025-06-17T09:00:53Z</time>
      </trkpt>
      <trkpt lat="43.39351" lon="3.6762">
        <ele>30.8</ele>
        <time>2025-06-17T09:00:54Z</time>
      </trkpt>
      <trkpt lat="43.39353" lon="3.67623">
        <ele>30.8</ele>
        <time>2025-06-17T09:00:55Z</time>
      </trkpt>
      <trkpt lat="43.39355" lon="3.67625">
        <ele>31</ele>
        <time>2025-06-17T09:00:56Z</time>
      </trkpt>
      <trkpt lat="43.39358" lon="3.67627">
        <ele>31.4</ele>
        <time>2025-06-17T09:00:57Z</time>
      </trkpt>
      <trkpt lat="43.3936" lon="3.6763">
        <ele>31.4</ele>
        <time>2025-06-17T09:00:58Z</time>
      </trkpt>
      <trkpt lat="43.39362" lon="3.67631">
        <ele>31.6</ele>
        <time>2025-06-17T09:00:59Z</time>
      </trkpt>
      <trkpt lat="43.39364" lon="3.67633">
        <ele>31.8</ele>
        <time>2025-06-17T09:01:00Z</time>
      </trkpt>
      <trkpt lat="43.39367" lon="3.67636">
        <ele>32</ele>
        <time>2025-06-17T09:01:01Z</time>
      </trkpt>
      <trkpt lat="43.39369" lon="3.67638">
        <ele>32</ele>
        <time>2025-06-17T09:01:02Z</time>
      </trkpt>
      <trkpt lat="43.39372" lon="3.67639">
        <ele>32.2</ele>
        <time>2025-06-17T09:01:03Z</time>
      </trkpt>
      <trkpt lat="43.39374" lon="3.67641">
        <ele>32.4</ele>
        <time>2025-06-17T09:01:04Z</time>
      </trkpt>
      <trkpt lat="43.39377" lon="3.67644">
        <ele>32.4</ele>
        <time>2025-06-17T09:01:05Z</time>
      </trkpt>
      <trkpt lat="43.39378" lon="3.67646">
        <ele>32.6</ele>
        <time>2025-06-17T09:01:06Z</time>
      </trkpt>
      <trkpt lat="43.3938" lon="3.67649">
        <ele>32.6</ele>
        <time>2025-06-17T09:01:07Z</time>
      </trkpt>
      <trkpt lat="43.39382" lon="3.67651">
        <ele>32.8</ele>
        <time>2025-06-17T09:01:08Z</time>
      </trkpt>
      <trkpt lat="43.39384" lon="3.67654">
        <ele>33</ele>
        <time>2025-06-17T09:01:09Z</time>
      </trkpt>
      <trkpt lat="43.39386" lon="3.67657">
        <ele>33</ele>
        <time>2025-06-17T09:01:10Z</time>
      </trkpt>
      <trkpt lat="43.39388" lon="3.67659">
        <ele>33.2</ele>
        <time>2025-06-17T09:01:11Z</time>
      </trkpt>
      <trkpt lat="43.3939" lon="3.67661">
        <ele>33.2</ele>
        <time>2025-06-17T09:01:12Z</time>
      </trkpt>
      <trkpt lat="43.39392" lon="3.67664">
        <ele>33.2</ele>
        <time>2025-06-17T09:01:13Z</time>
      </trkpt>
      <trkpt lat="43.39395" lon="3.67666">
        <ele>33.4</ele>
        <time>2025-06-17T09:01:14Z</time>
      </trkpt>
      <trkpt lat="43.39399" lon="3.67668">
        <ele>33.4</ele>
        <time>2025-06-17T09:01:15Z</time>
      </trkpt>
      <trkpt lat="43.39401" lon="3.67669">
        <ele>33.4</ele>
        <time>2025-06-17T09:01:16Z</time>
      </trkpt>
      <trkpt lat="43.39404" lon="3.67672">
        <ele>33.4</ele>
        <time>2025-06-17T09:01:17Z</time>
      </trkpt>
      <trkpt lat="43.39407" lon="3.67674">
        <ele>33.6</ele>
        <time>2025-06-17T09:01:18Z</time>
      </trkpt>
      <trkpt lat="43.39409" lon="3.67677">
        <ele>33.6</ele>
        <time>2025-06-17T09:01:19Z</time>
      </trkpt>
      <trkpt lat="43.39412" lon="3.67679">
        <ele>33.6</ele>
        <time>2025-06-17T09:01:20Z</time>
      </trkpt>
      <trkpt lat="43.39415" lon="3.67682">
        <ele>33.6</ele>
        <time>2025-06-17T09:01:21Z</time>
      </trkpt>
      <trkpt lat="43.39419" lon="3.67685">
        <ele>33.6</ele>
        <time>2025-06-17T09:01:22Z</time>
      </trkpt>
      <trkpt lat="43.39422" lon="3.67688">
        <ele>33.6</ele>
        <time>2025-06-17T09:01:23Z</time>
      </trkpt>
      <trkpt lat="43.39425" lon="3.67691">
        <ele>33.8</ele>
        <time>2025-06-17T09:01:24Z</time>
      </trkpt>
      <trkpt lat="43.39429" lon="3.67694">
        <ele>33.8</ele>
        <time>2025-06-17T09:01:25Z</time>
      </trkpt>
      <trkpt lat="43.39433" lon="3.67697">
        <ele>33.8</ele>
        <time>2025-06-17T09:01:26Z</time>
      </trkpt>
      <trkpt lat="43.39437" lon="3.677">
        <ele>33.6</ele>
        <time>2025-06-17T09:01:27Z</time>
      </trkpt>
      <trkpt lat="43.39439" lon="3.67703">
        <ele>33.6</ele>
        <time>2025-06-17T09:01:28Z</time>
      </trkpt>
      <trkpt lat="43.39442" lon="3.67706">
        <ele>33.6</ele>
        <time>2025-06-17T09:01:29Z</time>
      </trkpt>
      <trkpt lat="43.39444" lon="3.67711">
        <ele>33.6</ele>
        <time>2025-06-17T09:01:30Z</time>
      </trkpt>
      <trkpt lat="43.39445" lon="3.67717">
        <ele>33.4</ele>
        <time>2025-06-17T09:01:31Z</time>
      </trkpt>
      <trkpt lat="43.39444" lon="3.67723">
        <ele>33.4</ele>
        <time>2025-06-17T09:01:32Z</time>
      </trkpt>
      <trkpt lat="43.39442" lon="3.6773">
        <ele>33.2</ele>
        <time>2025-06-17T09:01:33Z</time>
      </trkpt>
      <trkpt lat="43.39441" lon="3.67736">
        <ele>33.2</ele>
        <time>2025-06-17T09:01:34Z</time>
      </trkpt>
      <trkpt lat="43.39439" lon="3.67743">
        <ele>33.2</ele>
        <time>2025-06-17T09:01:35Z</time>
      </trkpt>
      <trkpt lat="43.39437" lon="3.6775">
        <ele>33</ele>
        <time>2025-06-17T09:01:36Z</time>
      </trkpt>
      <trkpt lat="43.39435" lon="3.67756">
        <ele>33</ele>
        <time>2025-06-17T09:01:37Z</time>
      </trkpt>
      <trkpt lat="43.39432" lon="3.67764">
        <ele>33</ele>
        <time>2025-06-17T09:01:38Z</time>
      </trkpt>
      <trkpt lat="43.39431" lon="3.6777">
        <ele>33</ele>
        <time>2025-06-17T09:01:39Z</time>
      </trkpt>
      <trkpt lat="43.39428" lon="3.67778">
        <ele>32.8</ele>
        <time>2025-06-17T09:01:40Z</time>
      </trkpt>
      <trkpt lat="43.39426" lon="3.67785">
        <ele>32.8</ele>
        <time>2025-06-17T09:01:41Z</time>
      </trkpt>
      <trkpt lat="43.39425" lon="3.67792">
        <ele>32.6</ele>
        <time>2025-06-17T09:01:42Z</time>
      </trkpt>
      <trkpt lat="43.39423" lon="3.67799">
        <ele>32.4</ele>
        <time>2025-06-17T09:01:43Z</time>
      </trkpt>
      <trkpt lat="43.39421" lon="3.67807">
        <ele>32.2</ele>
        <time>2025-06-17T09:01:44Z</time>
      </trkpt>
      <trkpt lat="43.39419" lon="3.67814">
        <ele>32.2</ele>
        <time>2025-06-17T09:01:45Z</time>
      </trkpt>
      <trkpt lat="43.39417" lon="3.67822">
        <ele>32</ele>
        <time>2025-06-17T09:01:46Z</time>
      </trkpt>
      <trkpt lat="43.39415" lon="3.67828">
        <ele>32</ele>
        <time>2025-06-17T09:01:47Z</time>
      </trkpt>
      <trkpt lat="43.39413" lon="3.67836">
        <ele>32</ele>
        <time>2025-06-17T09:01:48Z</time>
      </trkpt>
      <trkpt lat="43.39411" lon="3.67842">
        <ele>31.8</ele>
        <time>2025-06-17T09:01:49Z</time>
      </trkpt>
      <trkpt lat="43.39408" lon="3.67851">
        <ele>31.8</ele>
        <time>2025-06-17T09:01:50Z</time>
      </trkpt>
      <trkpt lat="43.39406" lon="3.67859">
        <ele>31.6</ele>
        <time>2025-06-17T09:01:51Z</time>
      </trkpt>
      <trkpt lat="43.39405" lon="3.67866">
        <ele>31.6</ele>
        <time>2025-06-17T09:01:52Z</time>
      </trkpt>
      <trkpt lat="43.39403" lon="3.67873">
        <ele>31.4</ele>
        <time>2025-06-17T09:01:53Z</time>
      </trkpt>
      <trkpt lat="43.39401" lon="3.6788">
        <ele>31.4</ele>
        <time>2025-06-17T09:01:54Z</time>
      </trkpt>
      <trkpt lat="43.394" lon="3.67888">
        <ele>31.4</ele>
        <time>2025-06-17T09:01:55Z</time>
      </trkpt>
      <trkpt lat="43.39398" lon="3.67896">
        <ele>31.2</ele>
        <time>2025-06-17T09:01:56Z</time>
      </trkpt>
      <trkpt lat="43.39396" lon="3.67903">
        <ele>31.2</ele>
        <time>2025-06-17T09:01:57Z</time>
      </trkpt>
      <trkpt lat="43.39394" lon="3.6791">
        <ele>31.2</ele>
        <time>2025-06-17T09:01:58Z</time>
      </trkpt>
      <trkpt lat="43.39393" lon="3.67917">
        <ele>31.2</ele>
        <time>2025-06-17T09:01:59Z</time>
      </trkpt>
      <trkpt lat="43.39391" lon="3.67925">
        <ele>31</ele>
        <time>2025-06-17T09:02:00Z</time>
      </trkpt>
      <trkpt lat="43.39389" lon="3.67932">
        <ele>31</ele>
        <time>2025-06-17T09:02:01Z</time>
      </trkpt>
      <trkpt lat="43.39387" lon="3.6794">
        <ele>31</ele>
        <time>2025-06-17T09:02:02Z</time>
      </trkpt>
      <trkpt lat="43.39385" lon="3.67947">
        <ele>31</ele>
        <time>2025-06-17T09:02:03Z</time>
      </trkpt>
      <trkpt lat="43.39383" lon="3.67955">
        <ele>31</ele>
        <time>2025-06-17T09:02:04Z</time>
      </trkpt>
      <trkpt lat="43.39381" lon="3.67962">
        <ele>30.8</ele>
        <time>2025-06-17T09:02:05Z</time>
      </trkpt>
      <trkpt lat="43.39379" lon="3.67968">
        <ele>30.8</ele>
        <time>2025-06-17T09:02:06Z</time>
      </trkpt>
      <trkpt lat="43.39376" lon="3.67973">
        <ele>30.8</ele>
        <time>2025-06-17T09:02:07Z</time>
      </trkpt>
      <trkpt lat="43.39373" lon="3.67978">
        <ele>30.8</ele>
        <time>2025-06-17T09:02:08Z</time>
      </trkpt>
      <trkpt lat="43.39372" lon="3.67983">
        <ele>30.6</ele>
        <time>2025-06-17T09:02:09Z</time>
      </trkpt>
      <trkpt lat="43.39372" lon="3.6799">
        <ele>30.6</ele>
        <time>2025-06-17T09:02:10Z</time>
      </trkpt>
      <trkpt lat="43.39373" lon="3.67996">
        <ele>30.6</ele>
        <time>2025-06-17T09:02:11Z</time>
      </trkpt>
      <trkpt lat="43.39375" lon="3.68003">
        <ele>30.6</ele>
        <time>2025-06-17T09:02:12Z</time>
      </trkpt>
      <trkpt lat="43.39375" lon="3.68009">
        <ele>30.4</ele>
        <time>2025-06-17T09:02:13Z</time>
      </trkpt>
      <trkpt lat="43.39375" lon="3.68016">
        <ele>30.4</ele>
        <time>2025-06-17T09:02:14Z</time>
      </trkpt>
      <trkpt lat="43.39375" lon="3.68024">
        <ele>30.4</ele>
        <time>2025-06-17T09:02:15Z</time>
      </trkpt>
      <trkpt lat="43.39374" lon="3.6803">
        <ele>30.4</ele>
        <time>2025-06-17T09:02:16Z</time>
      </trkpt>
      <trkpt lat="43.39375" lon="3.6804">
        <ele>30.4</ele>
        <time>2025-06-17T09:02:17Z</time>
      </trkpt>
      <trkpt lat="43.39375" lon="3.68049">
        <ele>30.4</ele>
        <time>2025-06-17T09:02:18Z</time>
      </trkpt>
      <trkpt lat="43.39376" lon="3.68058">
        <ele>30.4</ele>
        <time>2025-06-17T09:02:19Z</time>
      </trkpt>
      <trkpt lat="43.39376" lon="3.68066">
        <ele>30.4</ele>
        <time>2025-06-17T09:02:20Z</time>
      </trkpt>
      <trkpt lat="43.39376" lon="3.68075">
        <ele>30.2</ele>
        <time>2025-06-17T09:02:21Z</time>
      </trkpt>
      <trkpt lat="43.39377" lon="3.68085">
        <ele>30.2</ele>
        <time>2025-06-17T09:02:22Z</time>
      </trkpt>
      <trkpt lat="43.39377" lon="3.68094">
        <ele>30.2</ele>
        <time>2025-06-17T09:02:23Z</time>
      </trkpt>
      <trkpt lat="43.39378" lon="3.68103">
        <ele>30.2</ele>
        <time>2025-06-17T09:02:24Z</time>
      </trkpt>
      <trkpt lat="43.39378" lon="3.68112">
        <ele>30.2</ele>
        <time>2025-06-17T09:02:25Z</time>
      </trkpt>
      <trkpt lat="43.39379" lon="3.68122">
        <ele>30.2</ele>
        <time>2025-06-17T09:02:26Z</time>
      </trkpt>
      <trkpt lat="43.39379" lon="3.68132">
        <ele>30</ele>
        <time>2025-06-17T09:02:27Z</time>
      </trkpt>
      <trkpt lat="43.3938" lon="3.68141">
        <ele>30</ele>
        <time>2025-06-17T09:02:28Z</time>
      </trkpt>
      <trkpt lat="43.3938" lon="3.68151">
        <ele>29.8</ele>
        <time>2025-06-17T09:02:29Z</time>
      </trkpt>
      <trkpt lat="43.3938" lon="3.68159">
        <ele>29.8</ele>
        <time>2025-06-17T09:02:30Z</time>
      </trkpt>
      <trkpt lat="43.39381" lon="3.6817">
        <ele>29.6</ele>
        <time>2025-06-17T09:02:31Z</time>
      </trkpt>
      <trkpt lat="43.39381" lon="3.68179">
        <ele>29.4</ele>
        <time>2025-06-17T09:02:32Z</time>
      </trkpt>
      <trkpt lat="43.39381" lon="3.68188">
        <ele>29.2</ele>
        <time>2025-06-17T09:02:33Z</time>
      </trkpt>
      <trkpt lat="43.39382" lon="3.68198">
        <ele>29.2</ele>
        <time>2025-06-17T09:02:34Z</time>
      </trkpt>
      <trkpt lat="43.39383" lon="3.68207">
        <ele>29.2</ele>
        <time>2025-06-17T09:02:35Z</time>
      </trkpt>
      <trkpt lat="43.39383" lon="3.68216">
        <ele>29.2</ele>
        <time>2025-06-17T09:02:36Z</time>
      </trkpt>
      <trkpt lat="43.39384" lon="3.68225">
        <ele>29.2</ele>
        <time>2025-06-17T09:02:37Z</time>
      </trkpt>
      <trkpt lat="43.39384" lon="3.68234">
        <ele>29.2</ele>
        <time>2025-06-17T09:02:38Z</time>
      </trkpt>
      <trkpt lat="43.39384" lon="3.68243">
        <ele>29.2</ele>
        <time>2025-06-17T09:02:39Z</time>
      </trkpt>
      <trkpt lat="43.39385" lon="3.68251">
        <ele>29.2</ele>
        <time>2025-06-17T09:02:40Z</time>
      </trkpt>
      <trkpt lat="43.39385" lon="3.68261">
        <ele>29.2</ele>
        <time>2025-06-17T09:02:41Z</time>
      </trkpt>
      <trkpt lat="43.39384" lon="3.68269">
        <ele>29.2</ele>
        <time>2025-06-17T09:02:42Z</time>
      </trkpt>
      <trkpt lat="43.39383" lon="3.68278">
        <ele>29.2</ele>
        <time>2025-06-17T09:02:43Z</time>
      </trkpt>
      <trkpt lat="43.39382" lon="3.68286">
        <ele>29.2</ele>
        <time>2025-06-17T09:02:44Z</time>
      </trkpt>
      <trkpt lat="43.39381" lon="3.68294">
        <ele>29</ele>
        <time>2025-06-17T09:02:45Z</time>
      </trkpt>
      <trkpt lat="43.39379" lon="3.68304">
        <ele>29</ele>
        <time>2025-06-17T09:02:46Z</time>
      </trkpt>
      <trkpt lat="43.39375" lon="3.68312">
        <ele>29</ele>
        <time>2025-06-17T09:02:47Z</time>
      </trkpt>
      <trkpt lat="43.39372" lon="3.68321">
        <ele>28.8</ele>
        <time>2025-06-17T09:02:48Z</time>
      </trkpt>
      <trkpt lat="43.39369" lon="3.68329">
        <ele>28.8</ele>
        <time>2025-06-17T09:02:49Z</time>
      </trkpt>
      <trkpt lat="43.39365" lon="3.68337">
        <ele>28.6</ele>
        <time>2025-06-17T09:02:50Z</time>
      </trkpt>
      <trkpt lat="43.3936" lon="3.68345">
        <ele>28.6</ele>
        <time>2025-06-17T09:02:51Z</time>
      </trkpt>
      <trkpt lat="43.39356" lon="3.68353">
        <ele>28.4</ele>
        <time>2025-06-17T09:02:52Z</time>
      </trkpt>
      <trkpt lat="43.39352" lon="3.68362">
        <ele>28.2</ele>
        <time>2025-06-17T09:02:53Z</time>
      </trkpt>
      <trkpt lat="43.39348" lon="3.6837">
        <ele>28.2</ele>
        <time>2025-06-17T09:02:54Z</time>
      </trkpt>
      <trkpt lat="43.39344" lon="3.68379">
        <ele>28</ele>
        <time>2025-06-17T09:02:55Z</time>
      </trkpt>
      <trkpt lat="43.3934" lon="3.68388">
        <ele>28</ele>
        <time>2025-06-17T09:02:56Z</time>
      </trkpt>
      <trkpt lat="43.39336" lon="3.68396">
        <ele>27.8</ele>
        <time>2025-06-17T09:02:57Z</time>
      </trkpt>
      <trkpt lat="43.39332" lon="3.68403">
        <ele>27.8</ele>
        <time>2025-06-17T09:02:58Z</time>
      </trkpt>
      <trkpt lat="43.39328" lon="3.68412">
        <ele>27.8</ele>
        <time>2025-06-17T09:02:59Z</time>
      </trkpt>
      <trkpt lat="43.39324" lon="3.6842">
        <ele>27.8</ele>
        <time>2025-06-17T09:03:00Z</time>
      </trkpt>
      <trkpt lat="43.39321" lon="3.68428">
        <ele>27.6</ele>
        <time>2025-06-17T09:03:01Z</time>
      </trkpt>
      <trkpt lat="43.39317" lon="3.68437">
        <ele>27.6</ele>
        <time>2025-06-17T09:03:02Z</time>
      </trkpt>
      <trkpt lat="43.39314" lon="3.68446">
        <ele>27.6</ele>
        <time>2025-06-17T09:03:03Z</time>
      </trkpt>
      <trkpt lat="43.3931" lon="3.68455">
        <ele>27.4</ele>
        <time>2025-06-17T09:03:04Z</time>
      </trkpt>
      <trkpt lat="43.39308" lon="3.68462">
        <ele>27.4</ele>
        <time>2025-06-17T09:03:05Z</time>
      </trkpt>
      <trkpt lat="43.39304" lon="3.68472">
        <ele>27.4</ele>
        <time>2025-06-17T09:03:06Z</time>
      </trkpt>
      <trkpt lat="43.39302" lon="3.68479">
        <ele>27.2</ele>
        <time>2025-06-17T09:03:07Z</time>
      </trkpt>
      <trkpt lat="43.39298" lon="3.6849">
        <ele>27.2</ele>
        <time>2025-06-17T09:03:08Z</time>
      </trkpt>
      <trkpt lat="43.39296" lon="3.68498">
        <ele>27</ele>
        <time>2025-06-17T09:03:09Z</time>
      </trkpt>
      <trkpt lat="43.39292" lon="3.68508">
        <ele>27</ele>
        <time>2025-06-17T09:03:10Z</time>
      </trkpt>
      <trkpt lat="43.3929" lon="3.68518">
        <ele>26.8</ele>
        <time>2025-06-17T09:03:11Z</time>
      </trkpt>
      <trkpt lat="43.39287" lon="3.68528">
        <ele>26.8</ele>
        <time>2025-06-17T09:03:12Z</time>
      </trkpt>
      <trkpt lat="43.39285" lon="3.68537">
        <ele>26.8</ele>
        <time>2025-06-17T09:03:13Z</time>
      </trkpt>
      <trkpt lat="43.39282" lon="3.68546">
        <ele>26.6</ele>
        <time>2025-06-17T09:03:14Z</time>
      </trkpt>
      <trkpt lat="43.39279" lon="3.68556">
        <ele>26.6</ele>
        <time>2025-06-17T09:03:15Z</time>
      </trkpt>
      <trkpt lat="43.39276" lon="3.68565">
        <ele>26.4</ele>
        <time>2025-06-17T09:03:16Z</time>
      </trkpt>
      <trkpt lat="43.39272" lon="3.68575">
        <ele>26.4</ele>
        <time>2025-06-17T09:03:17Z</time>
      </trkpt>
      <trkpt lat="43.39269" lon="3.68584">
        <ele>26.4</ele>
        <time>2025-06-17T09:03:18Z</time>
      </trkpt>
      <trkpt lat="43.39266" lon="3.68594">
        <ele>26.4</ele>
        <time>2025-06-17T09:03:19Z</time>
      </trkpt>
      <trkpt lat="43.39264" lon="3.68603">
        <ele>26.2</ele>
        <time>2025-06-17T09:03:20Z</time>
      </trkpt>
      <trkpt lat="43.39262" lon="3.68614">
        <ele>26.2</ele>
        <time>2025-06-17T09:03:21Z</time>
      </trkpt>
      <trkpt lat="43.3926" lon="3.68624">
        <ele>26.2</ele>
        <time>2025-06-17T09:03:22Z</time>
      </trkpt>
      <trkpt lat="43.39258" lon="3.68634">
        <ele>26</ele>
        <time>2025-06-17T09:03:23Z</time>
      </trkpt>
      <trkpt lat="43.39258" lon="3.68644">
        <ele>25.8</ele>
        <time>2025-06-17T09:03:24Z</time>
      </trkpt>
      <trkpt lat="43.39258" lon="3.68653">
        <ele>25.8</ele>
        <time>2025-06-17T09:03:25Z</time>
      </trkpt>
      <trkpt lat="43.39259" lon="3.68664">
        <ele>25.6</ele>
        <time>2025-06-17T09:03:26Z</time>
      </trkpt>
      <trkpt lat="43.3926" lon="3.68674">
        <ele>25.6</ele>
        <time>2025-06-17T09:03:27Z</time>
      </trkpt>
      <trkpt lat="43.39261" lon="3.68685">
        <ele>25.6</ele>
        <time>2025-06-17T09:03:28Z</time>
      </trkpt>
      <trkpt lat="43.39261" lon="3.68694">
        <ele>25.4</ele>
        <time>2025-06-17T09:03:29Z</time>
      </trkpt>
      <trkpt lat="43.39261" lon="3.68703">
        <ele>25.4</ele>
        <time>2025-06-17T09:03:30Z</time>
      </trkpt>
      <trkpt lat="43.3926" lon="3.68716">
        <ele>25.2</ele>
        <time>2025-06-17T09:03:31Z</time>
      </trkpt>
      <trkpt lat="43.39259" lon="3.68727">
        <ele>25.2</ele>
        <time>2025-06-17T09:03:32Z</time>
      </trkpt>
      <trkpt lat="43.39259" lon="3.68737">
        <ele>25.2</ele>
        <time>2025-06-17T09:03:33Z</time>
      </trkpt>
      <trkpt lat="43.39258" lon="3.68747">
        <ele>25</ele>
        <time>2025-06-17T09:03:34Z</time>
      </trkpt>
      <trkpt lat="43.39257" lon="3.68757">
        <ele>25</ele>
        <time>2025-06-17T09:03:35Z</time>
      </trkpt>
      <trkpt lat="43.39256" lon="3.68768">
        <ele>25</ele>
        <time>2025-06-17T09:03:36Z</time>
      </trkpt>
      <trkpt lat="43.39256" lon="3.68778">
        <ele>24.8</ele>
        <time>2025-06-17T09:03:37Z</time>
      </trkpt>
      <trkpt lat="43.39255" lon="3.68788">
        <ele>24.8</ele>
        <time>2025-06-17T09:03:38Z</time>
      </trkpt>
      <trkpt lat="43.39254" lon="3.68798">
        <ele>24.8</ele>
        <time>2025-06-17T09:03:39Z</time>
      </trkpt>
      <trkpt lat="43.39253" lon="3.68809">
        <ele>24.6</ele>
        <time>2025-06-17T09:03:40Z</time>
      </trkpt>
      <trkpt lat="43.39252" lon="3.68818">
        <ele>24.6</ele>
        <time>2025-06-17T09:03:41Z</time>
      </trkpt>
      <trkpt lat="43.39252" lon="3.68828">
        <ele>24.6</ele>
        <time>2025-06-17T09:03:42Z</time>
      </trkpt>
      <trkpt lat="43.39251" lon="3.68838">
        <ele>24.4</ele>
        <time>2025-06-17T09:03:43Z</time>
      </trkpt>
      <trkpt lat="43.3925" lon="3.68847">
        <ele>24.4</ele>
        <time>2025-06-17T09:03:44Z</time>
      </trkpt>
      <trkpt lat="43.3925" lon="3.68857">
        <ele>24.4</ele>
        <time>2025-06-17T09:03:45Z</time>
      </trkpt>
      <trkpt lat="43.39249" lon="3.68866">
        <ele>24.4</ele>
        <time>2025-06-17T09:03:46Z</time>
      </trkpt>
      <trkpt lat="43.39248" lon="3.68875">
        <ele>24.4</ele>
        <time>2025-06-17T09:03:47Z</time>
      </trkpt>
      <trkpt lat="43.39248" lon="3.68884">
        <ele>24.2</ele>
        <time>2025-06-17T09:03:48Z</time>
      </trkpt>
      <trkpt lat="43.39247" lon="3.68892">
        <ele>24.2</ele>
        <time>2025-06-17T09:03:49Z</time>
      </trkpt>
      <trkpt lat="43.39245" lon="3.68902">
        <ele>24.2</ele>
        <time>2025-06-17T09:03:50Z</time>
      </trkpt>
      <trkpt lat="43.39243" lon="3.68911">
        <ele>24.2</ele>
        <time>2025-06-17T09:03:51Z</time>
      </trkpt>
      <trkpt lat="43.39243" lon="3.6892">
        <ele>24.2</ele>
        <time>2025-06-17T09:03:52Z</time>
      </trkpt>
      <trkpt lat="43.39242" lon="3.68929">
        <ele>24.2</ele>
        <time>2025-06-17T09:03:53Z</time>
      </trkpt>
      <trkpt lat="43.39241" lon="3.68937">
        <ele>24.2</ele>
        <time>2025-06-17T09:03:54Z</time>
      </trkpt>
      <trkpt lat="43.39241" lon="3.68945">
        <ele>24.2</ele>
        <time>2025-06-17T09:03:55Z</time>
      </trkpt>
      <trkpt lat="43.3924" lon="3.68956">
        <ele>24.2</ele>
        <time>2025-06-17T09:03:56Z</time>
      </trkpt>
      <trkpt lat="43.3924" lon="3.68963">
        <ele>24.2</ele>
        <time>2025-06-17T09:03:57Z</time>
      </trkpt>
      <trkpt lat="43.39239" lon="3.68972">
        <ele>24.2</ele>
        <time>2025-06-17T09:03:58Z</time>
      </trkpt>
      <trkpt lat="43.39238" lon="3.6898">
        <ele>24.2</ele>
        <time>2025-06-17T09:03:59Z</time>
      </trkpt>
      <trkpt lat="43.39238" lon="3.68989">
        <ele>24</ele>
        <time>2025-06-17T09:04:00Z</time>
      </trkpt>
      <trkpt lat="43.39237" lon="3.68997">
        <ele>24</ele>
        <time>2025-06-17T09:04:01Z</time>
      </trkpt>
      <trkpt lat="43.39237" lon="3.69004">
        <ele>24.2</ele>
        <time>2025-06-17T09:04:02Z</time>
      </trkpt>
      <trkpt lat="43.39237" lon="3.69011">
        <ele>24.2</ele>
        <time>2025-06-17T09:04:03Z</time>
      </trkpt>
      <trkpt lat="43.39238" lon="3.69018">
        <ele>24</ele>
        <time>2025-06-17T09:04:04Z</time>
      </trkpt>
      <trkpt lat="43.39238" lon="3.69025">
        <ele>24</ele>
        <time>2025-06-17T09:04:05Z</time>
      </trkpt>
      <trkpt lat="43.39238" lon="3.69033">
        <ele>24</ele>
        <time>2025-06-17T09:04:06Z</time>
      </trkpt>
      <trkpt lat="43.39238" lon="3.6904">
        <ele>24</ele>
        <time>2025-06-17T09:04:07Z</time>
      </trkpt>
      <trkpt lat="43.39238" lon="3.69047">
        <ele>23.8</ele>
        <time>2025-06-17T09:04:08Z</time>
      </trkpt>
      <trkpt lat="43.39238" lon="3.69054">
        <ele>23.8</ele>
        <time>2025-06-17T09:04:09Z</time>
      </trkpt>
      <trkpt lat="43.39237" lon="3.69062">
        <ele>23.8</ele>
        <time>2025-06-17T09:04:10Z</time>
      </trkpt>
      <trkpt lat="43.39236" lon="3.6907">
        <ele>23.6</ele>
        <time>2025-06-17T09:04:11Z</time>
      </trkpt>
      <trkpt lat="43.39235" lon="3.69077">
        <ele>23.6</ele>
        <time>2025-06-17T09:04:12Z</time>
      </trkpt>
      <trkpt lat="43.39234" lon="3.69084">
        <ele>23.6</ele>
        <time>2025-06-17T09:04:13Z</time>
      </trkpt>
      <trkpt lat="43.39233" lon="3.69092">
        <ele>23.6</ele>
        <time>2025-06-17T09:04:14Z</time>
      </trkpt>
      <trkpt lat="43.39233" lon="3.69099">
        <ele>23.6</ele>
        <time>2025-06-17T09:04:15Z</time>
      </trkpt>
      <trkpt lat="43.39232" lon="3.69106">
        <ele>23.6</ele>
        <time>2025-06-17T09:04:16Z</time>
      </trkpt>
      <trkpt lat="43.39232" lon="3.69112">
        <ele>23.6</ele>
        <time>2025-06-17T09:04:17Z</time>
      </trkpt>
      <trkpt lat="43.39231" lon="3.69117">
        <ele>23.4</ele>
        <time>2025-06-17T09:04:18Z</time>
      </trkpt>
      <trkpt lat="43.3923" lon="3.69119">
        <ele>23.4</ele>
        <time>2025-06-17T09:04:19Z</time>
      </trkpt>
      <trkpt lat="43.3923" lon="3.69122">
        <ele>23.4</ele>
        <time>2025-06-17T09:04:20Z</time>
      </trkpt>
      <trkpt lat="43.39229" lon="3.69122">
        <ele>23.6</ele>
        <time>2025-06-17T09:05:24Z</time>
      </trkpt>
      <trkpt lat="43.39232" lon="3.69121">
        <ele>23.6</ele>
        <time>2025-06-17T09:05:25Z</time>
      </trkpt>
      <trkpt lat="43.39234" lon="3.69121">
        <ele>23.6</ele>
        <time>2025-06-17T09:05:26Z</time>
      </trkpt>
      <trkpt lat="43.39235" lon="3.6912">
        <ele>23.6</ele>
        <time>2025-06-17T09:05:27Z</time>
      </trkpt>
      <trkpt lat="43.39236" lon="3.6912">
        <ele>23.6</ele>
        <time>2025-06-17T09:05:28Z</time>
      </trkpt>
      <trkpt lat="43.39237" lon="3.6912">
        <ele>23.6</ele>
        <time>2025-06-17T09:05:29Z</time>
      </trkpt>
      <trkpt lat="43.39237" lon="3.6912">
        <ele>23.6</ele>
        <time>2025-06-17T09:05:30Z</time>
      </trkpt>
      <trkpt lat="43.39238" lon="3.6912">
        <ele>23.6</ele>
        <time>2025-06-17T09:05:31Z</time>
      </trkpt>
      <trkpt lat="43.39238" lon="3.6912">
        <ele>23.6</ele>
        <time>2025-06-17T09:05:32Z</time>
      </trkpt>
      <trkpt lat="43.39238" lon="3.6912">
        <ele>23.6</ele>
        <time>2025-06-17T09:05:33Z</time>
      </trkpt>
      <trkpt lat="43.39238" lon="3.6912">
        <ele>23.6</ele>
        <time>2025-06-17T09:05:34Z</time>
      </trkpt>
      <trkpt lat="43.3924" lon="3.69119">
        <ele>23.6</ele>
        <time>2025-06-17T09:05:35Z</time>
      </trkpt>
      <trkpt lat="43.39242" lon="3.6912">
        <ele>23.8</ele>
        <time>2025-06-17T09:05:36Z</time>
      </trkpt>
      <trkpt lat="43.39243" lon="3.69122">
        <ele>23.8</ele>
        <time>2025-06-17T09:05:37Z</time>
      </trkpt>
      <trkpt lat="43.39243" lon="3.69125">
        <ele>23.8</ele>
        <time>2025-06-17T09:05:38Z</time>
      </trkpt>
      <trkpt lat="43.39245" lon="3.69127">
        <ele>23.8</ele>
        <time>2025-06-17T09:05:39Z</time>
      </trkpt>
      <trkpt lat="43.39245" lon="3.6913">
        <ele>23.8</ele>
        <time>2025-06-17T09:05:40Z</time>
      </trkpt>
      <trkpt lat="43.39247" lon="3.69133">
        <ele>23.8</ele>
        <time>2025-06-17T09:05:41Z</time>
      </trkpt>
      <trkpt lat="43.39248" lon="3.69136">
        <ele>24</ele>
        <time>2025-06-17T09:05:42Z</time>
      </trkpt>
      <trkpt lat="43.3925" lon="3.69139">
        <ele>24</ele>
        <time>2025-06-17T09:05:43Z</time>
      </trkpt>
      <trkpt lat="43.39252" lon="3.69142">
        <ele>24</ele>
        <time>2025-06-17T09:05:44Z</time>
      </trkpt>
      <trkpt lat="43.39253" lon="3.69145">
        <ele>24.2</ele>
        <time>2025-06-17T09:05:45Z</time>
      </trkpt>
      <trkpt lat="43.39255" lon="3.69147">
        <ele>24.2</ele>
        <time>2025-06-17T09:05:46Z</time>
      </trkpt>
      <trkpt lat="43.39257" lon="3.69148">
        <ele>24.4</ele>
        <time>2025-06-17T09:05:47Z</time>
      </trkpt>
      <trkpt lat="43.3926" lon="3.69147">
        <ele>24.4</ele>
        <time>2025-06-17T09:05:48Z</time>
      </trkpt>
      <trkpt lat="43.39263" lon="3.69145">
        <ele>24.4</ele>
        <time>2025-06-17T09:05:49Z</time>
      </trkpt>
      <trkpt lat="43.39265" lon="3.69143">
        <ele>24.4</ele>
        <time>2025-06-17T09:05:50Z</time>
      </trkpt>
      <trkpt lat="43.39267" lon="3.69141">
        <ele>24.4</ele>
        <time>2025-06-17T09:05:51Z</time>
      </trkpt>
      <trkpt lat="43.39269" lon="3.6914">
        <ele>24.4</ele>
        <time>2025-06-17T09:05:52Z</time>
      </trkpt>
      <trkpt lat="43.39272" lon="3.69139">
        <ele>24.2</ele>
        <time>2025-06-17T09:05:53Z</time>
      </trkpt>
      <trkpt lat="43.39274" lon="3.69137">
        <ele>24.2</ele>
        <time>2025-06-17T09:05:54Z</time>
      </trkpt>
      <trkpt lat="43.39277" lon="3.69137">
        <ele>24</ele>
        <time>2025-06-17T09:05:55Z</time>
      </trkpt>
      <trkpt lat="43.39279" lon="3.6914">
        <ele>24</ele>
        <time>2025-06-17T09:05:56Z</time>
      </trkpt>
      <trkpt lat="43.39281" lon="3.69144">
        <ele>23.8</ele>
        <time>2025-06-17T09:05:57Z</time>
      </trkpt>
      <trkpt lat="43.39284" lon="3.69149">
        <ele>23.8</ele>
        <time>2025-06-17T09:05:58Z</time>
      </trkpt>
      <trkpt lat="43.39286" lon="3.69155">
        <ele>23.8</ele>
        <time>2025-06-17T09:05:59Z</time>
      </trkpt>
      <trkpt lat="43.39289" lon="3.6916">
        <ele>23.8</ele>
        <time>2025-06-17T09:06:00Z</time>
      </trkpt>
      <trkpt lat="43.39292" lon="3.69164">
        <ele>23.8</ele>
        <time>2025-06-17T09:06:01Z</time>
      </trkpt>
      <trkpt lat="43.39296" lon="3.69169">
        <ele>23.6</ele>
        <time>2025-06-17T09:06:02Z</time>
      </trkpt>
      <trkpt lat="43.39301" lon="3.69173">
        <ele>23.6</ele>
        <time>2025-06-17T09:06:03Z</time>
      </trkpt>
      <trkpt lat="43.39305" lon="3.69177">
        <ele>23.6</ele>
        <time>2025-06-17T09:06:04Z</time>
      </trkpt>
      <trkpt lat="43.39311" lon="3.69182">
        <ele>23.4</ele>
        <time>2025-06-17T09:06:05Z</time>
      </trkpt>
      <trkpt lat="43.39317" lon="3.69186">
        <ele>23.2</ele>
        <time>2025-06-17T09:06:06Z</time>
      </trkpt>
      <trkpt lat="43.39322" lon="3.69191">
        <ele>23.2</ele>
        <time>2025-06-17T09:06:07Z</time>
      </trkpt>
      <trkpt lat="43.39328" lon="3.69195">
        <ele>23.2</ele>
        <time>2025-06-17T09:06:08Z</time>
      </trkpt>
      <trkpt lat="43.39334" lon="3.69199">
        <ele>23</ele>
        <time>2025-06-17T09:06:09Z</time>
      </trkpt>
      <trkpt lat="43.39339" lon="3.69204">
        <ele>23</ele>
        <time>2025-06-17T09:06:10Z</time>
      </trkpt>
      <trkpt lat="43.39345" lon="3.69209">
        <ele>22.8</ele>
        <time>2025-06-17T09:06:11Z</time>
      </trkpt>
      <trkpt lat="43.39351" lon="3.69213">
        <ele>22.8</ele>
        <time>2025-06-17T09:06:12Z</time>
      </trkpt>
      <trkpt lat="43.39357" lon="3.69217">
        <ele>22.8</ele>
        <time>2025-06-17T09:06:13Z</time>
      </trkpt>
      <trkpt lat="43.39363" lon="3.69221">
        <ele>22.8</ele>
        <time>2025-06-17T09:06:14Z</time>
      </trkpt>
      <trkpt lat="43.39369" lon="3.69225">
        <ele>22.8</ele>
        <time>2025-06-17T09:06:15Z</time>
      </trkpt>
      <trkpt lat="43.39375" lon="3.69229">
        <ele>22.8</ele>
        <time>2025-06-17T09:06:16Z</time>
      </trkpt>
      <trkpt lat="43.3938" lon="3.69232">
        <ele>22.8</ele>
        <time>2025-06-17T09:06:17Z</time>
      </trkpt>
      <trkpt lat="43.39383" lon="3.69234">
        <ele>22.6</ele>
        <time>2025-06-17T09:06:18Z</time>
      </trkpt>
      <trkpt lat="43.39386" lon="3.69236">
        <ele>22.6</ele>
        <time>2025-06-17T09:06:19Z</time>
      </trkpt>
      <trkpt lat="43.39388" lon="3.69237">
        <ele>22.6</ele>
        <time>2025-06-17T09:06:20Z</time>
      </trkpt>
      <trkpt lat="43.3939" lon="3.69238">
        <ele>22.6</ele>
        <time>2025-06-17T09:06:21Z</time>
      </trkpt>
      <trkpt lat="43.39391" lon="3.69238">
        <ele>22.6</ele>
        <time>2025-06-17T09:06:22Z</time>
      </trkpt>
      <trkpt lat="43.39393" lon="3.69238">
        <ele>22.6</ele>
        <time>2025-06-17T09:06:23Z</time>
      </trkpt>
      <trkpt lat="43.39393" lon="3.69238">
        <ele>22.6</ele>
        <time>2025-06-17T09:06:24Z</time>
      </trkpt>
      <trkpt lat="43.39394" lon="3.69238">
        <ele>22.6</ele>
        <time>2025-06-17T09:06:25Z</time>
      </trkpt>
      <trkpt lat="43.39396" lon="3.69239">
        <ele>22.6</ele>
        <time>2025-06-17T09:06:26Z</time>
      </trkpt>
      <trkpt lat="43.39397" lon="3.69241">
        <ele>22.6</ele>
        <time>2025-06-17T09:06:27Z</time>
      </trkpt>
      <trkpt lat="43.39399" lon="3.69242">
        <ele>22.6</ele>
        <time>2025-06-17T09:06:28Z</time>
      </trkpt>
      <trkpt lat="43.39402" lon="3.69244">
        <ele>22.6</ele>
        <time>2025-06-17T09:06:29Z</time>
      </trkpt>
      <trkpt lat="43.39405" lon="3.69246">
        <ele>22.6</ele>
        <time>2025-06-17T09:06:30Z</time>
      </trkpt>
      <trkpt lat="43.39408" lon="3.69249">
        <ele>22.6</ele>
        <time>2025-06-17T09:06:31Z</time>
      </trkpt>
      <trkpt lat="43.39412" lon="3.69252">
        <ele>22.6</ele>
        <time>2025-06-17T09:06:32Z</time>
      </trkpt>
      <trkpt lat="43.39415" lon="3.69256">
        <ele>22.6</ele>
        <time>2025-06-17T09:06:33Z</time>
      </trkpt>
      <trkpt lat="43.39419" lon="3.69261">
        <ele>22.6</ele>
        <time>2025-06-17T09:06:34Z</time>
      </trkpt>
      <trkpt lat="43.39423" lon="3.69265">
        <ele>22.6</ele>
        <time>2025-06-17T09:06:35Z</time>
      </trkpt>
      <trkpt lat="43.39427" lon="3.69272">
        <ele>22.6</ele>
        <time>2025-06-17T09:06:36Z</time>
      </trkpt>
      <trkpt lat="43.3943" lon="3.6928">
        <ele>22.4</ele>
        <time>2025-06-17T09:06:37Z</time>
      </trkpt>
      <trkpt lat="43.39434" lon="3.69289">
        <ele>22.4</ele>
        <time>2025-06-17T09:06:38Z</time>
      </trkpt>
      <trkpt lat="43.39437" lon="3.69298">
        <ele>22.4</ele>
        <time>2025-06-17T09:06:39Z</time>
      </trkpt>
      <trkpt lat="43.39439" lon="3.69306">
        <ele>22.2</ele>
        <time>2025-06-17T09:06:40Z</time>
      </trkpt>
      <trkpt lat="43.39442" lon="3.69315">
        <ele>22</ele>
        <time>2025-06-17T09:06:41Z</time>
      </trkpt>
      <trkpt lat="43.39445" lon="3.69323">
        <ele>22</ele>
        <time>2025-06-17T09:06:42Z</time>
      </trkpt>
      <trkpt lat="43.39448" lon="3.69332">
        <ele>21.8</ele>
        <time>2025-06-17T09:06:43Z</time>
      </trkpt>
      <trkpt lat="43.39451" lon="3.6934">
        <ele>21.8</ele>
        <time>2025-06-17T09:06:44Z</time>
      </trkpt>
      <trkpt lat="43.39454" lon="3.69348">
        <ele>21.8</ele>
        <time>2025-06-17T09:06:45Z</time>
      </trkpt>
      <trkpt lat="43.39456" lon="3.69357">
        <ele>21.6</ele>
        <time>2025-06-17T09:06:46Z</time>
      </trkpt>
      <trkpt lat="43.39459" lon="3.69365">
        <ele>21.6</ele>
        <time>2025-06-17T09:06:47Z</time>
      </trkpt>
      <trkpt lat="43.39462" lon="3.69373">
        <ele>21.6</ele>
        <time>2025-06-17T09:06:48Z</time>
      </trkpt>
      <trkpt lat="43.39465" lon="3.69382">
        <ele>21.4</ele>
        <time>2025-06-17T09:06:49Z</time>
      </trkpt>
      <trkpt lat="43.39469" lon="3.69389">
        <ele>21.4</ele>
        <time>2025-06-17T09:06:50Z</time>
      </trkpt>
      <trkpt lat="43.39472" lon="3.69396">
        <ele>21.4</ele>
        <time>2025-06-17T09:06:51Z</time>
      </trkpt>
      <trkpt lat="43.39475" lon="3.69405">
        <ele>21.2</ele>
        <time>2025-06-17T09:06:52Z</time>
      </trkpt>
      <trkpt lat="43.39477" lon="3.69413">
        <ele>21.2</ele>
        <time>2025-06-17T09:06:53Z</time>
      </trkpt>
      <trkpt lat="43.3948" lon="3.69422">
        <ele>21</ele>
        <time>2025-06-17T09:06:54Z</time>
      </trkpt>
      <trkpt lat="43.39482" lon="3.6943">
        <ele>21</ele>
        <time>2025-06-17T09:06:55Z</time>
      </trkpt>
      <trkpt lat="43.39485" lon="3.69439">
        <ele>21</ele>
        <time>2025-06-17T09:06:56Z</time>
      </trkpt>
      <trkpt lat="43.39487" lon="3.69447">
        <ele>21</ele>
        <time>2025-06-17T09:06:57Z</time>
      </trkpt>
      <trkpt lat="43.3949" lon="3.69456">
        <ele>21</ele>
        <time>2025-06-17T09:06:58Z</time>
      </trkpt>
      <trkpt lat="43.39492" lon="3.69465">
        <ele>20.8</ele>
        <time>2025-06-17T09:06:59Z</time>
      </trkpt>
      <trkpt lat="43.39494" lon="3.69473">
        <ele>20.8</ele>
        <time>2025-06-17T09:07:00Z</time>
      </trkpt>
      <trkpt lat="43.39497" lon="3.69481">
        <ele>20.8</ele>
        <time>2025-06-17T09:07:01Z</time>
      </trkpt>
      <trkpt lat="43.39499" lon="3.69489">
        <ele>20.8</ele>
        <time>2025-06-17T09:07:02Z</time>
      </trkpt>
      <trkpt lat="43.395" lon="3.69497">
        <ele>20.8</ele>
        <time>2025-06-17T09:07:03Z</time>
      </trkpt>
      <trkpt lat="43.39501" lon="3.69504">
        <ele>20.8</ele>
        <time>2025-06-17T09:07:04Z</time>
      </trkpt>
      <trkpt lat="43.39503" lon="3.69509">
        <ele>20.8</ele>
        <time>2025-06-17T09:07:05Z</time>
      </trkpt>
      <trkpt lat="43.39505" lon="3.69513">
        <ele>20.6</ele>
        <time>2025-06-17T09:07:06Z</time>
      </trkpt>
      <trkpt lat="43.39509" lon="3.69515">
        <ele>20.6</ele>
        <time>2025-06-17T09:07:07Z</time>
      </trkpt>
      <trkpt lat="43.39513" lon="3.69516">
        <ele>20.6</ele>
        <time>2025-06-17T09:07:08Z</time>
      </trkpt>
      <trkpt lat="43.39518" lon="3.69517">
        <ele>20.4</ele>
        <time>2025-06-17T09:07:09Z</time>
      </trkpt>
      <trkpt lat="43.39522" lon="3.69519">
        <ele>20.4</ele>
        <time>2025-06-17T09:07:10Z</time>
      </trkpt>
      <trkpt lat="43.39526" lon="3.69521">
        <ele>20.2</ele>
        <time>2025-06-17T09:07:11Z</time>
      </trkpt>
      <trkpt lat="43.39531" lon="3.69521">
        <ele>20</ele>
        <time>2025-06-17T09:07:12Z</time>
      </trkpt>
      <trkpt lat="43.39536" lon="3.69521">
        <ele>19.8</ele>
        <time>2025-06-17T09:07:13Z</time>
      </trkpt>
      <trkpt lat="43.39541" lon="3.69521">
        <ele>19.6</ele>
        <time>2025-06-17T09:07:14Z</time>
      </trkpt>
      <trkpt lat="43.39545" lon="3.69521">
        <ele>19.2</ele>
        <time>2025-06-17T09:07:15Z</time>
      </trkpt>
      <trkpt lat="43.3955" lon="3.69522">
        <ele>18.8</ele>
        <time>2025-06-17T09:07:16Z</time>
      </trkpt>
      <trkpt lat="43.39555" lon="3.69524">
        <ele>18.4</ele>
        <time>2025-06-17T09:07:17Z</time>
      </trkpt>
      <trkpt lat="43.3956" lon="3.69526">
        <ele>18</ele>
        <time>2025-06-17T09:07:18Z</time>
      </trkpt>
      <trkpt lat="43.39566" lon="3.69529">
        <ele>17.6</ele>
        <time>2025-06-17T09:07:19Z</time>
      </trkpt>
      <trkpt lat="43.39571" lon="3.69531">
        <ele>17.2</ele>
        <time>2025-06-17T09:07:20Z</time>
      </trkpt>
      <trkpt lat="43.39575" lon="3.69533">
        <ele>17</ele>
        <time>2025-06-17T09:07:21Z</time>
      </trkpt>
      <trkpt lat="43.3958" lon="3.69535">
        <ele>17</ele>
        <time>2025-06-17T09:07:22Z</time>
      </trkpt>
      <trkpt lat="43.39582" lon="3.69537">
        <ele>16.8</ele>
        <time>2025-06-17T09:07:23Z</time>
      </trkpt>
      <trkpt lat="43.39584" lon="3.69538">
        <ele>16.8</ele>
        <time>2025-06-17T09:07:24Z</time>
      </trkpt>
      <trkpt lat="43.39585" lon="3.69539">
        <ele>16.8</ele>
        <time>2025-06-17T09:07:43Z</time>
      </trkpt>
      <trkpt lat="43.39588" lon="3.6954">
        <ele>16.8</ele>
        <time>2025-06-17T09:07:44Z</time>
      </trkpt>
      <trkpt lat="43.3959" lon="3.69541">
        <ele>16.8</ele>
        <time>2025-06-17T09:07:45Z</time>
      </trkpt>
      <trkpt lat="43.39592" lon="3.69543">
        <ele>16.8</ele>
        <time>2025-06-17T09:07:46Z</time>
      </trkpt>
      <trkpt lat="43.39594" lon="3.69544">
        <ele>16.8</ele>
        <time>2025-06-17T09:07:47Z</time>
      </trkpt>
      <trkpt lat="43.39596" lon="3.69547">
        <ele>16.8</ele>
        <time>2025-06-17T09:07:48Z</time>
      </trkpt>
      <trkpt lat="43.39599" lon="3.69549">
        <ele>16.8</ele>
        <time>2025-06-17T09:07:49Z</time>
      </trkpt>
      <trkpt lat="43.39603" lon="3.69552">
        <ele>16.8</ele>
        <time>2025-06-17T09:07:50Z</time>
      </trkpt>
      <trkpt lat="43.39607" lon="3.69555">
        <ele>16.6</ele>
        <time>2025-06-17T09:07:51Z</time>
      </trkpt>
      <trkpt lat="43.39611" lon="3.69558">
        <ele>16.6</ele>
        <time>2025-06-17T09:07:52Z</time>
      </trkpt>
      <trkpt lat="43.39616" lon="3.69561">
        <ele>16.6</ele>
        <time>2025-06-17T09:07:53Z</time>
      </trkpt>
      <trkpt lat="43.39621" lon="3.69564">
        <ele>16.6</ele>
        <time>2025-06-17T09:07:54Z</time>
      </trkpt>
      <trkpt lat="43.39626" lon="3.69567">
        <ele>16.8</ele>
        <time>2025-06-17T09:07:55Z</time>
      </trkpt>
      <trkpt lat="43.3963" lon="3.69569">
        <ele>16.8</ele>
        <time>2025-06-17T09:07:56Z</time>
      </trkpt>
      <trkpt lat="43.39635" lon="3.69572">
        <ele>16.8</ele>
        <time>2025-06-17T09:07:57Z</time>
      </trkpt>
      <trkpt lat="43.39641" lon="3.69574">
        <ele>16.8</ele>
        <time>2025-06-17T09:07:58Z</time>
      </trkpt>
      <trkpt lat="43.39646" lon="3.69577">
        <ele>16.8</ele>
        <time>2025-06-17T09:07:59Z</time>
      </trkpt>
      <trkpt lat="43.39652" lon="3.69579">
        <ele>16.8</ele>
        <time>2025-06-17T09:08:00Z</time>
      </trkpt>
      <trkpt lat="43.39657" lon="3.69581">
        <ele>16.8</ele>
        <time>2025-06-17T09:08:01Z</time>
      </trkpt>
      <trkpt lat="43.39662" lon="3.69583">
        <ele>16.8</ele>
        <time>2025-06-17T09:08:02Z</time>
      </trkpt>
      <trkpt lat="43.39668" lon="3.69585">
        <ele>16.8</ele>
        <time>2025-06-17T09:08:03Z</time>
      </trkpt>
      <trkpt lat="43.39673" lon="3.69588">
        <ele>16.8</ele>
        <time>2025-06-17T09:08:04Z</time>
      </trkpt>
      <trkpt lat="43.3968" lon="3.6959">
        <ele>16.8</ele>
        <time>2025-06-17T09:08:05Z</time>
      </trkpt>
      <trkpt lat="43.39685" lon="3.69592">
        <ele>16.8</ele>
        <time>2025-06-17T09:08:06Z</time>
      </trkpt>
      <trkpt lat="43.39692" lon="3.69595">
        <ele>16.8</ele>
        <time>2025-06-17T09:08:07Z</time>
      </trkpt>
      <trkpt lat="43.39697" lon="3.69598">
        <ele>16.8</ele>
        <time>2025-06-17T09:08:08Z</time>
      </trkpt>
      <trkpt lat="43.39703" lon="3.69601">
        <ele>16.8</ele>
        <time>2025-06-17T09:08:09Z</time>
      </trkpt>
      <trkpt lat="43.39709" lon="3.69604">
        <ele>16.8</ele>
        <time>2025-06-17T09:08:10Z</time>
      </trkpt>
      <trkpt lat="43.39715" lon="3.69606">
        <ele>16.8</ele>
        <time>2025-06-17T09:08:11Z</time>
      </trkpt>
      <trkpt lat="43.39721" lon="3.69609">
        <ele>16.8</ele>
        <time>2025-06-17T09:08:12Z</time>
      </trkpt>
      <trkpt lat="43.39728" lon="3.69611">
        <ele>16.8</ele>
        <time>2025-06-17T09:08:13Z</time>
      </trkpt>
      <trkpt lat="43.39733" lon="3.69614">
        <ele>16.8</ele>
        <time>2025-06-17T09:08:14Z</time>
      </trkpt>
      <trkpt lat="43.39739" lon="3.69617">
        <ele>17</ele>
        <time>2025-06-17T09:08:15Z</time>
      </trkpt>
      <trkpt lat="43.39745" lon="3.6962">
        <ele>17</ele>
        <time>2025-06-17T09:08:16Z</time>
      </trkpt>
      <trkpt lat="43.39751" lon="3.69624">
        <ele>17</ele>
        <time>2025-06-17T09:08:17Z</time>
      </trkpt>
      <trkpt lat="43.39757" lon="3.69628">
        <ele>17</ele>
        <time>2025-06-17T09:08:18Z</time>
      </trkpt>
      <trkpt lat="43.39763" lon="3.69632">
        <ele>17</ele>
        <time>2025-06-17T09:08:19Z</time>
      </trkpt>
      <trkpt lat="43.39768" lon="3.69637">
        <ele>17</ele>
        <time>2025-06-17T09:08:20Z</time>
      </trkpt>
      <trkpt lat="43.39773" lon="3.69644">
        <ele>17</ele>
        <time>2025-06-17T09:08:21Z</time>
      </trkpt>
      <trkpt lat="43.39776" lon="3.6965">
        <ele>17</ele>
        <time>2025-06-17T09:08:22Z</time>
      </trkpt>
      <trkpt lat="43.3978" lon="3.69656">
        <ele>17</ele>
        <time>2025-06-17T09:08:23Z</time>
      </trkpt>
      <trkpt lat="43.39785" lon="3.69661">
        <ele>17.2</ele>
        <time>2025-06-17T09:08:24Z</time>
      </trkpt>
      <trkpt lat="43.3979" lon="3.69665">
        <ele>17.2</ele>
        <time>2025-06-17T09:08:25Z</time>
      </trkpt>
      <trkpt lat="43.39795" lon="3.69668">
        <ele>17.2</ele>
        <time>2025-06-17T09:08:26Z</time>
      </trkpt>
      <trkpt lat="43.39801" lon="3.69671">
        <ele>17.2</ele>
        <time>2025-06-17T09:08:27Z</time>
      </trkpt>
      <trkpt lat="43.39807" lon="3.69673">
        <ele>17.2</ele>
        <time>2025-06-17T09:08:28Z</time>
      </trkpt>
      <trkpt lat="43.39812" lon="3.69675">
        <ele>17.2</ele>
        <time>2025-06-17T09:08:29Z</time>
      </trkpt>
      <trkpt lat="43.39817" lon="3.69677">
        <ele>17.2</ele>
        <time>2025-06-17T09:08:30Z</time>
      </trkpt>
      <trkpt lat="43.39823" lon="3.69678">
        <ele>17.2</ele>
        <time>2025-06-17T09:08:31Z</time>
      </trkpt>
      <trkpt lat="43.39828" lon="3.69679">
        <ele>17.2</ele>
        <time>2025-06-17T09:08:32Z</time>
      </trkpt>
      <trkpt lat="43.39833" lon="3.69681">
        <ele>17.2</ele>
        <time>2025-06-17T09:08:33Z</time>
      </trkpt>
      <trkpt lat="43.39838" lon="3.69682">
        <ele>17.2</ele>
        <time>2025-06-17T09:08:34Z</time>
      </trkpt>
      <trkpt lat="43.39843" lon="3.69683">
        <ele>17.2</ele>
        <time>2025-06-17T09:08:35Z</time>
      </trkpt>
      <trkpt lat="43.39848" lon="3.69683">
        <ele>17</ele>
        <time>2025-06-17T09:08:36Z</time>
      </trkpt>
      <trkpt lat="43.39852" lon="3.69683">
        <ele>17</ele>
        <time>2025-06-17T09:08:37Z</time>
      </trkpt>
      <trkpt lat="43.39857" lon="3.69682">
        <ele>17</ele>
        <time>2025-06-17T09:08:38Z</time>
      </trkpt>
      <trkpt lat="43.39861" lon="3.69681">
        <ele>17</ele>
        <time>2025-06-17T09:08:39Z</time>
      </trkpt>
      <trkpt lat="43.39866" lon="3.69679">
        <ele>17</ele>
        <time>2025-06-17T09:08:40Z</time>
      </trkpt>
      <trkpt lat="43.3987" lon="3.69678">
        <ele>17</ele>
        <time>2025-06-17T09:08:41Z</time>
      </trkpt>
      <trkpt lat="43.39875" lon="3.69676">
        <ele>16.8</ele>
        <time>2025-06-17T09:08:42Z</time>
      </trkpt>
      <trkpt lat="43.39879" lon="3.69675">
        <ele>16.8</ele>
        <time>2025-06-17T09:08:43Z</time>
      </trkpt>
      <trkpt lat="43.39884" lon="3.69674">
        <ele>16.8</ele>
        <time>2025-06-17T09:08:44Z</time>
      </trkpt>
      <trkpt lat="43.39889" lon="3.69673">
        <ele>16.8</ele>
        <time>2025-06-17T09:08:45Z</time>
      </trkpt>
      <trkpt lat="43.39894" lon="3.69672">
        <ele>17</ele>
        <time>2025-06-17T09:08:46Z</time>
      </trkpt>
      <trkpt lat="43.39899" lon="3.69671">
        <ele>17</ele>
        <time>2025-06-17T09:08:47Z</time>
      </trkpt>
      <trkpt lat="43.39904" lon="3.6967">
        <ele>17</ele>
        <time>2025-06-17T09:08:48Z</time>
      </trkpt>
      <trkpt lat="43.39909" lon="3.69669">
        <ele>17</ele>
        <time>2025-06-17T09:08:49Z</time>
      </trkpt>
      <trkpt lat="43.39914" lon="3.69668">
        <ele>17</ele>
        <time>2025-06-17T09:08:50Z</time>
      </trkpt>
      <trkpt lat="43.39919" lon="3.69668">
        <ele>17</ele>
        <time>2025-06-17T09:08:51Z</time>
      </trkpt>
      <trkpt lat="43.39924" lon="3.69667">
        <ele>17</ele>
        <time>2025-06-17T09:08:52Z</time>
      </trkpt>
      <trkpt lat="43.39929" lon="3.69666">
        <ele>17</ele>
        <time>2025-06-17T09:08:53Z</time>
      </trkpt>
      <trkpt lat="43.39935" lon="3.69664">
        <ele>17</ele>
        <time>2025-06-17T09:08:54Z</time>
      </trkpt>
      <trkpt lat="43.3994" lon="3.69661">
        <ele>17</ele>
        <time>2025-06-17T09:08:55Z</time>
      </trkpt>
      <trkpt lat="43.39946" lon="3.69659">
        <ele>17</ele>
        <time>2025-06-17T09:08:56Z</time>
      </trkpt>
      <trkpt lat="43.39951" lon="3.69657">
        <ele>17</ele>
        <time>2025-06-17T09:08:57Z</time>
      </trkpt>
      <trkpt lat="43.39956" lon="3.69655">
        <ele>17</ele>
        <time>2025-06-17T09:08:58Z</time>
      </trkpt>
      <trkpt lat="43.39961" lon="3.69655">
        <ele>17</ele>
        <time>2025-06-17T09:08:59Z</time>
      </trkpt>
      <trkpt lat="43.39967" lon="3.69657">
        <ele>16.8</ele>
        <time>2025-06-17T09:09:00Z</time>
      </trkpt>
      <trkpt lat="43.39973" lon="3.6966">
        <ele>17</ele>
        <time>2025-06-17T09:09:01Z</time>
      </trkpt>
      <trkpt lat="43.39979" lon="3.69662">
        <ele>17</ele>
        <time>2025-06-17T09:09:02Z</time>
      </trkpt>
      <trkpt lat="43.39985" lon="3.69663">
        <ele>17</ele>
        <time>2025-06-17T09:09:03Z</time>
      </trkpt>
      <trkpt lat="43.39991" lon="3.69665">
        <ele>17</ele>
        <time>2025-06-17T09:09:04Z</time>
      </trkpt>
      <trkpt lat="43.39997" lon="3.69666">
        <ele>17</ele>
        <time>2025-06-17T09:09:05Z</time>
      </trkpt>
      <trkpt lat="43.40003" lon="3.69667">
        <ele>17</ele>
        <time>2025-06-17T09:09:06Z</time>
      </trkpt>
      <trkpt lat="43.40009" lon="3.69667">
        <ele>16.8</ele>
        <time>2025-06-17T09:09:07Z</time>
      </trkpt>
      <trkpt lat="43.40015" lon="3.69668">
        <ele>16.8</ele>
        <time>2025-06-17T09:09:08Z</time>
      </trkpt>
      <trkpt lat="43.40021" lon="3.6967">
        <ele>16.6</ele>
        <time>2025-06-17T09:09:09Z</time>
      </trkpt>
      <trkpt lat="43.40027" lon="3.69671">
        <ele>16.6</ele>
        <time>2025-06-17T09:09:10Z</time>
      </trkpt>
      <trkpt lat="43.40033" lon="3.69672">
        <ele>16.6</ele>
        <time>2025-06-17T09:09:11Z</time>
      </trkpt>
      <trkpt lat="43.40039" lon="3.69673">
        <ele>16.4</ele>
        <time>2025-06-17T09:09:12Z</time>
      </trkpt>
      <trkpt lat="43.40044" lon="3.69674">
        <ele>16.4</ele>
        <time>2025-06-17T09:09:13Z</time>
      </trkpt>
      <trkpt lat="43.40049" lon="3.69675">
        <ele>16.4</ele>
        <time>2025-06-17T09:09:14Z</time>
      </trkpt>
      <trkpt lat="43.40053" lon="3.69677">
        <ele>16.4</ele>
        <time>2025-06-17T09:09:15Z</time>
      </trkpt>
      <trkpt lat="43.40056" lon="3.69678">
        <ele>16.4</ele>
        <time>2025-06-17T09:09:16Z</time>
      </trkpt>
      <trkpt lat="43.4006" lon="3.6968">
        <ele>16.4</ele>
        <time>2025-06-17T09:09:17Z</time>
      </trkpt>
      <trkpt lat="43.40063" lon="3.69681">
        <ele>16.4</ele>
        <time>2025-06-17T09:09:18Z</time>
      </trkpt>
      <trkpt lat="43.40067" lon="3.69682">
        <ele>16.4</ele>
        <time>2025-06-17T09:09:19Z</time>
      </trkpt>
      <trkpt lat="43.40071" lon="3.69683">
        <ele>16.6</ele>
        <time>2025-06-17T09:09:20Z</time>
      </trkpt>
      <trkpt lat="43.40074" lon="3.69684">
        <ele>16.6</ele>
        <time>2025-06-17T09:09:21Z</time>
      </trkpt>
      <trkpt lat="43.40077" lon="3.69685">
        <ele>16.6</ele>
        <time>2025-06-17T09:09:22Z</time>
      </trkpt>
      <trkpt lat="43.4008" lon="3.69686">
        <ele>16.6</ele>
        <time>2025-06-17T09:09:23Z</time>
      </trkpt>
      <trkpt lat="43.40083" lon="3.69687">
        <ele>16.6</ele>
        <time>2025-06-17T09:09:24Z</time>
      </trkpt>
      <trkpt lat="43.40086" lon="3.69688">
        <ele>16.6</ele>
        <time>2025-06-17T09:09:25Z</time>
      </trkpt>
      <trkpt lat="43.40088" lon="3.69688">
        <ele>16.6</ele>
        <time>2025-06-17T09:09:26Z</time>
      </trkpt>
      <trkpt lat="43.4009" lon="3.69689">
        <ele>16.8</ele>
        <time>2025-06-17T09:09:27Z</time>
      </trkpt>
      <trkpt lat="43.40091" lon="3.6969">
        <ele>16.8</ele>
        <time>2025-06-17T09:09:28Z</time>
      </trkpt>
      <trkpt lat="43.40093" lon="3.69691">
        <ele>16.8</ele>
        <time>2025-06-17T09:09:29Z</time>
      </trkpt>
      <trkpt lat="43.40096" lon="3.69692">
        <ele>16.8</ele>
        <time>2025-06-17T09:09:30Z</time>
      </trkpt>
      <trkpt lat="43.40098" lon="3.69692">
        <ele>16.8</ele>
        <time>2025-06-17T09:09:31Z</time>
      </trkpt>
      <trkpt lat="43.401" lon="3.69693">
        <ele>16.8</ele>
        <time>2025-06-17T09:09:32Z</time>
      </trkpt>
      <trkpt lat="43.40102" lon="3.69694">
        <ele>16.8</ele>
        <time>2025-06-17T09:09:33Z</time>
      </trkpt>
      <trkpt lat="43.40104" lon="3.69695">
        <ele>16.8</ele>
        <time>2025-06-17T09:09:34Z</time>
      </trkpt>
      <trkpt lat="43.40106" lon="3.69696">
        <ele>16.8</ele>
        <time>2025-06-17T09:09:35Z</time>
      </trkpt>
      <trkpt lat="43.40112" lon="3.69699">
        <ele>16.8</ele>
        <time>2025-06-17T09:09:46Z</time>
      </trkpt>
      <trkpt lat="43.40114" lon="3.69699">
        <ele>16.8</ele>
        <time>2025-06-17T09:09:47Z</time>
      </trkpt>
      <trkpt lat="43.40115" lon="3.697">
        <ele>16.8</ele>
        <time>2025-06-17T09:09:48Z</time>
      </trkpt>
      <trkpt lat="43.40117" lon="3.69699">
        <ele>16.8</ele>
        <time>2025-06-17T09:09:49Z</time>
      </trkpt>
      <trkpt lat="43.40118" lon="3.69699">
        <ele>16.8</ele>
        <time>2025-06-17T09:09:50Z</time>
      </trkpt>
      <trkpt lat="43.4012" lon="3.69698">
        <ele>16.8</ele>
        <time>2025-06-17T09:09:51Z</time>
      </trkpt>
      <trkpt lat="43.40122" lon="3.69698">
        <ele>16.8</ele>
        <time>2025-06-17T09:09:52Z</time>
      </trkpt>
      <trkpt lat="43.40125" lon="3.69698">
        <ele>16.8</ele>
        <time>2025-06-17T09:09:53Z</time>
      </trkpt>
      <trkpt lat="43.40127" lon="3.69699">
        <ele>16.8</ele>
        <time>2025-06-17T09:09:54Z</time>
      </trkpt>
      <trkpt lat="43.40131" lon="3.697">
        <ele>16.8</ele>
        <time>2025-06-17T09:09:55Z</time>
      </trkpt>
      <trkpt lat="43.40134" lon="3.69701">
        <ele>16.8</ele>
        <time>2025-06-17T09:09:56Z</time>
      </trkpt>
      <trkpt lat="43.40138" lon="3.69702">
        <ele>16.8</ele>
        <time>2025-06-17T09:09:57Z</time>
      </trkpt>
      <trkpt lat="43.40142" lon="3.69703">
        <ele>17</ele>
        <time>2025-06-17T09:09:58Z</time>
      </trkpt>
      <trkpt lat="43.40146" lon="3.69704">
        <ele>17</ele>
        <time>2025-06-17T09:09:59Z</time>
      </trkpt>
      <trkpt lat="43.4015" lon="3.69705">
        <ele>17</ele>
        <time>2025-06-17T09:10:00Z</time>
      </trkpt>
      <trkpt lat="43.40153" lon="3.69705">
        <ele>17.2</ele>
        <time>2025-06-17T09:10:01Z</time>
      </trkpt>
      <trkpt lat="43.40156" lon="3.69706">
        <ele>17.2</ele>
        <time>2025-06-17T09:10:02Z</time>
      </trkpt>
      <trkpt lat="43.40159" lon="3.69707">
        <ele>17.4</ele>
        <time>2025-06-17T09:10:03Z</time>
      </trkpt>
      <trkpt lat="43.40162" lon="3.69708">
        <ele>17.4</ele>
        <time>2025-06-17T09:10:04Z</time>
      </trkpt>
      <trkpt lat="43.40164" lon="3.69711">
        <ele>17.4</ele>
        <time>2025-06-17T09:10:05Z</time>
      </trkpt>
      <trkpt lat="43.40167" lon="3.69714">
        <ele>17.6</ele>
        <time>2025-06-17T09:10:06Z</time>
      </trkpt>
      <trkpt lat="43.40169" lon="3.69719">
        <ele>17.8</ele>
        <time>2025-06-17T09:10:07Z</time>
      </trkpt>
      <trkpt lat="43.4017" lon="3.69723">
        <ele>17.8</ele>
        <time>2025-06-17T09:10:08Z</time>
      </trkpt>
      <trkpt lat="43.40171" lon="3.69728">
        <ele>18</ele>
        <time>2025-06-17T09:10:09Z</time>
      </trkpt>
      <trkpt lat="43.40172" lon="3.69732">
        <ele>18</ele>
        <time>2025-06-17T09:10:10Z</time>
      </trkpt>
      <trkpt lat="43.40172" lon="3.69737">
        <ele>18.2</ele>
        <time>2025-06-17T09:10:11Z</time>
      </trkpt>
      <trkpt lat="43.40173" lon="3.69741">
        <ele>18.2</ele>
        <time>2025-06-17T09:10:12Z</time>
      </trkpt>
      <trkpt lat="43.40173" lon="3.69746">
        <ele>18.4</ele>
        <time>2025-06-17T09:10:13Z</time>
      </trkpt>
      <trkpt lat="43.40173" lon="3.6975">
        <ele>18.4</ele>
        <time>2025-06-17T09:10:14Z</time>
      </trkpt>
      <trkpt lat="43.40174" lon="3.69754">
        <ele>18.6</ele>
        <time>2025-06-17T09:10:15Z</time>
      </trkpt>
      <trkpt lat="43.40175" lon="3.69758">
        <ele>18.4</ele>
        <time>2025-06-17T09:10:16Z</time>
      </trkpt>
      <trkpt lat="43.40176" lon="3.69762">
        <ele>18.4</ele>
        <time>2025-06-17T09:10:17Z</time>
      </trkpt>
      <trkpt lat="43.40177" lon="3.69766">
        <ele>18.2</ele>
        <time>2025-06-17T09:10:18Z</time>
      </trkpt>
      <trkpt lat="43.4018" lon="3.69769">
        <ele>18.2</ele>
        <time>2025-06-17T09:10:19Z</time>
      </trkpt>
      <trkpt lat="43.40183" lon="3.69771">
        <ele>18</ele>
        <time>2025-06-17T09:10:20Z</time>
      </trkpt>
      <trkpt lat="43.40187" lon="3.69773">
        <ele>17.8</ele>
        <time>2025-06-17T09:10:21Z</time>
      </trkpt>
      <trkpt lat="43.40191" lon="3.69774">
        <ele>17.6</ele>
        <time>2025-06-17T09:10:22Z</time>
      </trkpt>
      <trkpt lat="43.40195" lon="3.69774">
        <ele>17.6</ele>
        <time>2025-06-17T09:10:23Z</time>
      </trkpt>
      <trkpt lat="43.402" lon="3.69775">
        <ele>17.4</ele>
        <time>2025-06-17T09:10:24Z</time>
      </trkpt>
      <trkpt lat="43.40205" lon="3.69775">
        <ele>17.4</ele>
        <time>2025-06-17T09:10:25Z</time>
      </trkpt>
      <trkpt lat="43.4021" lon="3.69776">
        <ele>17.2</ele>
        <time>2025-06-17T09:10:26Z</time>
      </trkpt>
      <trkpt lat="43.40215" lon="3.69776">
        <ele>17.2</ele>
        <time>2025-06-17T09:10:27Z</time>
      </trkpt>
      <trkpt lat="43.4022" lon="3.69775">
        <ele>17.2</ele>
        <time>2025-06-17T09:10:28Z</time>
      </trkpt>
      <trkpt lat="43.40224" lon="3.69775">
        <ele>17.2</ele>
        <time>2025-06-17T09:10:29Z</time>
      </trkpt>
      <trkpt lat="43.40229" lon="3.69774">
        <ele>17.2</ele>
        <time>2025-06-17T09:10:30Z</time>
      </trkpt>
      <trkpt lat="43.40233" lon="3.69773">
        <ele>17.2</ele>
        <time>2025-06-17T09:10:31Z</time>
      </trkpt>
      <trkpt lat="43.40237" lon="3.69772">
        <ele>17.2</ele>
        <time>2025-06-17T09:10:32Z</time>
      </trkpt>
      <trkpt lat="43.40242" lon="3.69771">
        <ele>17.4</ele>
        <time>2025-06-17T09:10:33Z</time>
      </trkpt>
      <trkpt lat="43.40246" lon="3.6977">
        <ele>17.4</ele>
        <time>2025-06-17T09:10:34Z</time>
      </trkpt>
      <trkpt lat="43.4025" lon="3.69768">
        <ele>17.4</ele>
        <time>2025-06-17T09:10:35Z</time>
      </trkpt>
      <trkpt lat="43.40255" lon="3.69767">
        <ele>17.4</ele>
        <time>2025-06-17T09:10:36Z</time>
      </trkpt>
      <trkpt lat="43.40259" lon="3.69765">
        <ele>17.4</ele>
        <time>2025-06-17T09:10:37Z</time>
      </trkpt>
      <trkpt lat="43.40263" lon="3.69764">
        <ele>17.4</ele>
        <time>2025-06-17T09:10:38Z</time>
      </trkpt>
      <trkpt lat="43.40268" lon="3.69763">
        <ele>17.2</ele>
        <time>2025-06-17T09:10:39Z</time>
      </trkpt>
      <trkpt lat="43.40272" lon="3.69761">
        <ele>17.2</ele>
        <time>2025-06-17T09:10:40Z</time>
      </trkpt>
      <trkpt lat="43.40278" lon="3.6976">
        <ele>17.2</ele>
        <time>2025-06-17T09:10:41Z</time>
      </trkpt>
      <trkpt lat="43.40283" lon="3.69759">
        <ele>17</ele>
        <time>2025-06-17T09:10:42Z</time>
      </trkpt>
      <trkpt lat="43.40287" lon="3.69757">
        <ele>17</ele>
        <time>2025-06-17T09:10:43Z</time>
      </trkpt>
      <trkpt lat="43.40292" lon="3.69755">
        <ele>17</ele>
        <time>2025-06-17T09:10:44Z</time>
      </trkpt>
      <trkpt lat="43.40296" lon="3.69754">
        <ele>16.8</ele>
        <time>2025-06-17T09:10:45Z</time>
      </trkpt>
      <trkpt lat="43.403" lon="3.69752">
        <ele>16.8</ele>
        <time>2025-06-17T09:10:46Z</time>
      </trkpt>
      <trkpt lat="43.40306" lon="3.6975">
        <ele>16.8</ele>
        <time>2025-06-17T09:10:47Z</time>
      </trkpt>
      <trkpt lat="43.4031" lon="3.69747">
        <ele>16.8</ele>
        <time>2025-06-17T09:10:48Z</time>
      </trkpt>
      <trkpt lat="43.40315" lon="3.69746">
        <ele>16.8</ele>
        <time>2025-06-17T09:10:49Z</time>
      </trkpt>
      <trkpt lat="43.4032" lon="3.69745">
        <ele>16.8</ele>
        <time>2025-06-17T09:10:50Z</time>
      </trkpt>
      <trkpt lat="43.40324" lon="3.69745">
        <ele>16.8</ele>
        <time>2025-06-17T09:10:51Z</time>
      </trkpt>
      <trkpt lat="43.40329" lon="3.69744">
        <ele>16.6</ele>
        <time>2025-06-17T09:10:52Z</time>
      </trkpt>
      <trkpt lat="43.40334" lon="3.69743">
        <ele>16.6</ele>
        <time>2025-06-17T09:10:53Z</time>
      </trkpt>
      <trkpt lat="43.40339" lon="3.69742">
        <ele>16.6</ele>
        <time>2025-06-17T09:10:54Z</time>
      </trkpt>
      <trkpt lat="43.40344" lon="3.69741">
        <ele>16.6</ele>
        <time>2025-06-17T09:10:55Z</time>
      </trkpt>
      <trkpt lat="43.40349" lon="3.69739">
        <ele>16.6</ele>
        <time>2025-06-17T09:10:56Z</time>
      </trkpt>
      <trkpt lat="43.40354" lon="3.69738">
        <ele>16.6</ele>
        <time>2025-06-17T09:10:57Z</time>
      </trkpt>
      <trkpt lat="43.40359" lon="3.69737">
        <ele>16.6</ele>
        <time>2025-06-17T09:10:58Z</time>
      </trkpt>
      <trkpt lat="43.40365" lon="3.69735">
        <ele>16.4</ele>
        <time>2025-06-17T09:10:59Z</time>
      </trkpt>
      <trkpt lat="43.4037" lon="3.69734">
        <ele>16.4</ele>
        <time>2025-06-17T09:11:00Z</time>
      </trkpt>
      <trkpt lat="43.40376" lon="3.69733">
        <ele>16.4</ele>
        <time>2025-06-17T09:11:01Z</time>
      </trkpt>
      <trkpt lat="43.40381" lon="3.69732">
        <ele>16.4</ele>
        <time>2025-06-17T09:11:02Z</time>
      </trkpt>
      <trkpt lat="43.40386" lon="3.6973">
        <ele>16.6</ele>
        <time>2025-06-17T09:11:03Z</time>
      </trkpt>
      <trkpt lat="43.40391" lon="3.69729">
        <ele>16.6</ele>
        <time>2025-06-17T09:11:04Z</time>
      </trkpt>
      <trkpt lat="43.40396" lon="3.69729">
        <ele>16.6</ele>
        <time>2025-06-17T09:11:05Z</time>
      </trkpt>
      <trkpt lat="43.404" lon="3.69726">
        <ele>16.6</ele>
        <time>2025-06-17T09:11:06Z</time>
      </trkpt>
      <trkpt lat="43.40404" lon="3.69724">
        <ele>16.6</ele>
        <time>2025-06-17T09:11:07Z</time>
      </trkpt>
      <trkpt lat="43.40408" lon="3.69724">
        <ele>16.6</ele>
        <time>2025-06-17T09:11:08Z</time>
      </trkpt>
      <trkpt lat="43.40411" lon="3.69723">
        <ele>16.8</ele>
        <time>2025-06-17T09:11:09Z</time>
      </trkpt>
      <trkpt lat="43.40413" lon="3.69723">
        <ele>16.8</ele>
        <time>2025-06-17T09:11:10Z</time>
      </trkpt>
      <trkpt lat="43.40415" lon="3.69723">
        <ele>17</ele>
        <time>2025-06-17T09:11:11Z</time>
      </trkpt>
      <trkpt lat="43.40417" lon="3.69724">
        <ele>17.2</ele>
        <time>2025-06-17T09:11:12Z</time>
      </trkpt>
      <trkpt lat="43.40419" lon="3.69725">
        <ele>17.2</ele>
        <time>2025-06-17T09:11:13Z</time>
      </trkpt>
      <trkpt lat="43.40421" lon="3.69726">
        <ele>17.2</ele>
        <time>2025-06-17T09:11:14Z</time>
      </trkpt>
      <trkpt lat="43.40423" lon="3.69723">
        <ele>17.4</ele>
        <time>2025-06-17T09:11:15Z</time>
      </trkpt>
      <trkpt lat="43.40425" lon="3.69721">
        <ele>17.4</ele>
        <time>2025-06-17T09:11:16Z</time>
      </trkpt>
      <trkpt lat="43.40428" lon="3.69719">
        <ele>17.4</ele>
        <time>2025-06-17T09:11:17Z</time>
      </trkpt>
      <trkpt lat="43.4043" lon="3.69717">
        <ele>17.4</ele>
        <time>2025-06-17T09:11:18Z</time>
      </trkpt>
      <trkpt lat="43.40433" lon="3.69716">
        <ele>17.4</ele>
        <time>2025-06-17T09:11:19Z</time>
      </trkpt>
      <trkpt lat="43.40437" lon="3.69716">
        <ele>17.2</ele>
        <time>2025-06-17T09:11:20Z</time>
      </trkpt>
      <trkpt lat="43.4044" lon="3.69716">
        <ele>17.2</ele>
        <time>2025-06-17T09:11:21Z</time>
      </trkpt>
      <trkpt lat="43.40446" lon="3.69715">
        <ele>17.2</ele>
        <time>2025-06-17T09:11:22Z</time>
      </trkpt>
      <trkpt lat="43.40451" lon="3.69714">
        <ele>17.2</ele>
        <time>2025-06-17T09:11:23Z</time>
      </trkpt>
      <trkpt lat="43.40456" lon="3.69713">
        <ele>17</ele>
        <time>2025-06-17T09:11:24Z</time>
      </trkpt>
      <trkpt lat="43.40461" lon="3.69712">
        <ele>17</ele>
        <time>2025-06-17T09:11:25Z</time>
      </trkpt>
      <trkpt lat="43.40466" lon="3.69711">
        <ele>17</ele>
        <time>2025-06-17T09:11:26Z</time>
      </trkpt>
      <trkpt lat="43.40471" lon="3.6971">
        <ele>17</ele>
        <time>2025-06-17T09:11:27Z</time>
      </trkpt>
      <trkpt lat="43.40476" lon="3.69708">
        <ele>17</ele>
        <time>2025-06-17T09:11:28Z</time>
      </trkpt>
      <trkpt lat="43.40482" lon="3.69706">
        <ele>16.8</ele>
        <time>2025-06-17T09:11:29Z</time>
      </trkpt>
      <trkpt lat="43.40487" lon="3.69705">
        <ele>16.8</ele>
        <time>2025-06-17T09:11:30Z</time>
      </trkpt>
      <trkpt lat="43.40492" lon="3.69704">
        <ele>16.8</ele>
        <time>2025-06-17T09:11:31Z</time>
      </trkpt>
      <trkpt lat="43.40497" lon="3.69702">
        <ele>16.8</ele>
        <time>2025-06-17T09:11:32Z</time>
      </trkpt>
      <trkpt lat="43.40503" lon="3.697">
        <ele>16.8</ele>
        <time>2025-06-17T09:11:33Z</time>
      </trkpt>
      <trkpt lat="43.40508" lon="3.69699">
        <ele>16.8</ele>
        <time>2025-06-17T09:11:34Z</time>
      </trkpt>
      <trkpt lat="43.40514" lon="3.69698">
        <ele>16.8</ele>
        <time>2025-06-17T09:11:35Z</time>
      </trkpt>
      <trkpt lat="43.40519" lon="3.69697">
        <ele>16.8</ele>
        <time>2025-06-17T09:11:36Z</time>
      </trkpt>
      <trkpt lat="43.40524" lon="3.69697">
        <ele>16.8</ele>
        <time>2025-06-17T09:11:37Z</time>
      </trkpt>
      <trkpt lat="43.40529" lon="3.69698">
        <ele>16.6</ele>
        <time>2025-06-17T09:11:38Z</time>
      </trkpt>
      <trkpt lat="43.40532" lon="3.69699">
        <ele>16.6</ele>
        <time>2025-06-17T09:11:39Z</time>
      </trkpt>
      <trkpt lat="43.40535" lon="3.69703">
        <ele>16.6</ele>
        <time>2025-06-17T09:11:40Z</time>
      </trkpt>
      <trkpt lat="43.40537" lon="3.69707">
        <ele>16.6</ele>
        <time>2025-06-17T09:11:41Z</time>
      </trkpt>
      <trkpt lat="43.40539" lon="3.69712">
        <ele>16.8</ele>
        <time>2025-06-17T09:11:42Z</time>
      </trkpt>
      <trkpt lat="43.40542" lon="3.69716">
        <ele>16.8</ele>
        <time>2025-06-17T09:11:43Z</time>
      </trkpt>
      <trkpt lat="43.40544" lon="3.69721">
        <ele>16.8</ele>
        <time>2025-06-17T09:11:44Z</time>
      </trkpt>
      <trkpt lat="43.40546" lon="3.69727">
        <ele>16.8</ele>
        <time>2025-06-17T09:11:45Z</time>
      </trkpt>
      <trkpt lat="43.40549" lon="3.69732">
        <ele>16.8</ele>
        <time>2025-06-17T09:11:46Z</time>
      </trkpt>
      <trkpt lat="43.40551" lon="3.69736">
        <ele>16.8</ele>
        <time>2025-06-17T09:11:47Z</time>
      </trkpt>
      <trkpt lat="43.40553" lon="3.69741">
        <ele>16.8</ele>
        <time>2025-06-17T09:11:48Z</time>
      </trkpt>
      <trkpt lat="43.40555" lon="3.69745">
        <ele>17</ele>
        <time>2025-06-17T09:11:49Z</time>
      </trkpt>
      <trkpt lat="43.40558" lon="3.69752">
        <ele>17</ele>
        <time>2025-06-17T09:11:50Z</time>
      </trkpt>
      <trkpt lat="43.40561" lon="3.69756">
        <ele>17</ele>
        <time>2025-06-17T09:11:51Z</time>
      </trkpt>
      <trkpt lat="43.40563" lon="3.6976">
        <ele>17</ele>
        <time>2025-06-17T09:11:52Z</time>
      </trkpt>
      <trkpt lat="43.40565" lon="3.69762">
        <ele>17</ele>
        <time>2025-06-17T09:11:53Z</time>
      </trkpt>
      <trkpt lat="43.4057" lon="3.69771">
        <ele>17.2</ele>
        <time>2025-06-17T09:12:14Z</time>
      </trkpt>
      <trkpt lat="43.40571" lon="3.69773">
        <ele>17.2</ele>
        <time>2025-06-17T09:12:15Z</time>
      </trkpt>
      <trkpt lat="43.40573" lon="3.69775">
        <ele>17.2</ele>
        <time>2025-06-17T09:12:16Z</time>
      </trkpt>
      <trkpt lat="43.40575" lon="3.69779">
        <ele>17.2</ele>
        <time>2025-06-17T09:12:17Z</time>
      </trkpt>
      <trkpt lat="43.40576" lon="3.69782">
        <ele>17</ele>
        <time>2025-06-17T09:12:18Z</time>
      </trkpt>
      <trkpt lat="43.40579" lon="3.69788">
        <ele>17</ele>
        <time>2025-06-17T09:12:19Z</time>
      </trkpt>
      <trkpt lat="43.40582" lon="3.69793">
        <ele>17</ele>
        <time>2025-06-17T09:12:20Z</time>
      </trkpt>
      <trkpt lat="43.40584" lon="3.69799">
        <ele>17</ele>
        <time>2025-06-17T09:12:21Z</time>
      </trkpt>
      <trkpt lat="43.40586" lon="3.69805">
        <ele>17</ele>
        <time>2025-06-17T09:12:22Z</time>
      </trkpt>
      <trkpt lat="43.40589" lon="3.6981">
        <ele>17</ele>
        <time>2025-06-17T09:12:23Z</time>
      </trkpt>
      <trkpt lat="43.40592" lon="3.69816">
        <ele>17</ele>
        <time>2025-06-17T09:12:24Z</time>
      </trkpt>
      <trkpt lat="43.40595" lon="3.69822">
        <ele>17</ele>
        <time>2025-06-17T09:12:25Z</time>
      </trkpt>
      <trkpt lat="43.40598" lon="3.69829">
        <ele>17</ele>
        <time>2025-06-17T09:12:26Z</time>
      </trkpt>
      <trkpt lat="43.40601" lon="3.69834">
        <ele>17</ele>
        <time>2025-06-17T09:12:27Z</time>
      </trkpt>
      <trkpt lat="43.40603" lon="3.6984">
        <ele>17</ele>
        <time>2025-06-17T09:12:28Z</time>
      </trkpt>
      <trkpt lat="43.40607" lon="3.69846">
        <ele>17</ele>
        <time>2025-06-17T09:12:29Z</time>
      </trkpt>
      <trkpt lat="43.40609" lon="3.69853">
        <ele>17</ele>
        <time>2025-06-17T09:12:30Z</time>
      </trkpt>
      <trkpt lat="43.40613" lon="3.69859">
        <ele>17</ele>
        <time>2025-06-17T09:12:31Z</time>
      </trkpt>
      <trkpt lat="43.40616" lon="3.69864">
        <ele>17.2</ele>
        <time>2025-06-17T09:12:32Z</time>
      </trkpt>
      <trkpt lat="43.4062" lon="3.69871">
        <ele>17.2</ele>
        <time>2025-06-17T09:12:33Z</time>
      </trkpt>
      <trkpt lat="43.40625" lon="3.69877">
        <ele>17.4</ele>
        <time>2025-06-17T09:12:34Z</time>
      </trkpt>
      <trkpt lat="43.40629" lon="3.69881">
        <ele>17.6</ele>
        <time>2025-06-17T09:12:35Z</time>
      </trkpt>
      <trkpt lat="43.40635" lon="3.69884">
        <ele>17.8</ele>
        <time>2025-06-17T09:12:36Z</time>
      </trkpt>
      <trkpt lat="43.4064" lon="3.69884">
        <ele>18</ele>
        <time>2025-06-17T09:12:37Z</time>
      </trkpt>
      <trkpt lat="43.40644" lon="3.69883">
        <ele>18.2</ele>
        <time>2025-06-17T09:12:38Z</time>
      </trkpt>
      <trkpt lat="43.40649" lon="3.69881">
        <ele>18.4</ele>
        <time>2025-06-17T09:12:39Z</time>
      </trkpt>
      <trkpt lat="43.40653" lon="3.69878">
        <ele>18.6</ele>
        <time>2025-06-17T09:12:40Z</time>
      </trkpt>
      <trkpt lat="43.40658" lon="3.69876">
        <ele>18.8</ele>
        <time>2025-06-17T09:12:41Z</time>
      </trkpt>
      <trkpt lat="43.40662" lon="3.69873">
        <ele>18.8</ele>
        <time>2025-06-17T09:12:42Z</time>
      </trkpt>
      <trkpt lat="43.40666" lon="3.69871">
        <ele>18.8</ele>
        <time>2025-06-17T09:12:43Z</time>
      </trkpt>
      <trkpt lat="43.40671" lon="3.69867">
        <ele>18.8</ele>
        <time>2025-06-17T09:12:44Z</time>
      </trkpt>
      <trkpt lat="43.40674" lon="3.69863">
        <ele>18.8</ele>
        <time>2025-06-17T09:12:45Z</time>
      </trkpt>
      <trkpt lat="43.40677" lon="3.69858">
        <ele>18.6</ele>
        <time>2025-06-17T09:12:46Z</time>
      </trkpt>
      <trkpt lat="43.40678" lon="3.69853">
        <ele>18.6</ele>
        <time>2025-06-17T09:12:47Z</time>
      </trkpt>
      <trkpt lat="43.40678" lon="3.69846">
        <ele>18.4</ele>
        <time>2025-06-17T09:12:48Z</time>
      </trkpt>
      <trkpt lat="43.40676" lon="3.69839">
        <ele>18.2</ele>
        <time>2025-06-17T09:12:49Z</time>
      </trkpt>
      <trkpt lat="43.40674" lon="3.69832">
        <ele>18</ele>
        <time>2025-06-17T09:12:50Z</time>
      </trkpt>
      <trkpt lat="43.40671" lon="3.69826">
        <ele>18</ele>
        <time>2025-06-17T09:12:51Z</time>
      </trkpt>
      <trkpt lat="43.40667" lon="3.6982">
        <ele>17.8</ele>
        <time>2025-06-17T09:12:52Z</time>
      </trkpt>
      <trkpt lat="43.40664" lon="3.69813">
        <ele>17.6</ele>
        <time>2025-06-17T09:12:53Z</time>
      </trkpt>
      <trkpt lat="43.40661" lon="3.69806">
        <ele>17.6</ele>
        <time>2025-06-17T09:12:54Z</time>
      </trkpt>
      <trkpt lat="43.40657" lon="3.698">
        <ele>17.6</ele>
        <time>2025-06-17T09:12:55Z</time>
      </trkpt>
      <trkpt lat="43.40654" lon="3.69793">
        <ele>17.4</ele>
        <time>2025-06-17T09:12:56Z</time>
      </trkpt>
      <trkpt lat="43.40651" lon="3.69787">
        <ele>17.4</ele>
        <time>2025-06-17T09:12:57Z</time>
      </trkpt>
      <trkpt lat="43.40648" lon="3.6978">
        <ele>17.4</ele>
        <time>2025-06-17T09:12:58Z</time>
      </trkpt>
      <trkpt lat="43.40645" lon="3.69773">
        <ele>17.2</ele>
        <time>2025-06-17T09:12:59Z</time>
      </trkpt>
      <trkpt lat="43.40642" lon="3.69766">
        <ele>17.2</ele>
        <time>2025-06-17T09:13:00Z</time>
      </trkpt>
      <trkpt lat="43.40639" lon="3.6976">
        <ele>17.2</ele>
        <time>2025-06-17T09:13:01Z</time>
      </trkpt>
      <trkpt lat="43.40637" lon="3.69753">
        <ele>17.2</ele>
        <time>2025-06-17T09:13:02Z</time>
      </trkpt>
      <trkpt lat="43.40634" lon="3.69746">
        <ele>17.2</ele>
        <time>2025-06-17T09:13:03Z</time>
      </trkpt>
      <trkpt lat="43.40632" lon="3.69739">
        <ele>17.2</ele>
        <time>2025-06-17T09:13:04Z</time>
      </trkpt>
      <trkpt lat="43.40631" lon="3.69731">
        <ele>17</ele>
        <time>2025-06-17T09:13:05Z</time>
      </trkpt>
      <trkpt lat="43.4063" lon="3.69723">
        <ele>17</ele>
        <time>2025-06-17T09:13:06Z</time>
      </trkpt>
      <trkpt lat="43.4063" lon="3.69715">
        <ele>17</ele>
        <time>2025-06-17T09:13:07Z</time>
      </trkpt>
      <trkpt lat="43.40632" lon="3.69708">
        <ele>17</ele>
        <time>2025-06-17T09:13:08Z</time>
      </trkpt>
      <trkpt lat="43.40635" lon="3.69702">
        <ele>17</ele>
        <time>2025-06-17T09:13:09Z</time>
      </trkpt>
      <trkpt lat="43.40639" lon="3.69697">
        <ele>16.8</ele>
        <time>2025-06-17T09:13:10Z</time>
      </trkpt>
      <trkpt lat="43.40643" lon="3.69695">
        <ele>16.8</ele>
        <time>2025-06-17T09:13:11Z</time>
      </trkpt>
      <trkpt lat="43.40648" lon="3.69693">
        <ele>16.8</ele>
        <time>2025-06-17T09:13:12Z</time>
      </trkpt>
      <trkpt lat="43.40654" lon="3.69692">
        <ele>16.8</ele>
        <time>2025-06-17T09:13:13Z</time>
      </trkpt>
      <trkpt lat="43.40659" lon="3.6969">
        <ele>17</ele>
        <time>2025-06-17T09:13:14Z</time>
      </trkpt>
      <trkpt lat="43.40663" lon="3.69688">
        <ele>17</ele>
        <time>2025-06-17T09:13:15Z</time>
      </trkpt>
      <trkpt lat="43.40667" lon="3.69687">
        <ele>17</ele>
        <time>2025-06-17T09:13:16Z</time>
      </trkpt>
      <trkpt lat="43.40671" lon="3.69684">
        <ele>17</ele>
        <time>2025-06-17T09:13:17Z</time>
      </trkpt>
      <trkpt lat="43.40674" lon="3.69682">
        <ele>17</ele>
        <time>2025-06-17T09:13:18Z</time>
      </trkpt>
      <trkpt lat="43.40677" lon="3.69679">
        <ele>17.2</ele>
        <time>2025-06-17T09:13:19Z</time>
      </trkpt>
      <trkpt lat="43.40679" lon="3.69676">
        <ele>17.4</ele>
        <time>2025-06-17T09:13:20Z</time>
      </trkpt>
      <trkpt lat="43.40681" lon="3.69672">
        <ele>17.4</ele>
        <time>2025-06-17T09:13:21Z</time>
      </trkpt>
      <trkpt lat="43.40683" lon="3.69668">
        <ele>17.6</ele>
        <time>2025-06-17T09:13:22Z</time>
      </trkpt>
      <trkpt lat="43.40685" lon="3.69664">
        <ele>17.8</ele>
        <time>2025-06-17T09:13:23Z</time>
      </trkpt>
      <trkpt lat="43.40685" lon="3.6966">
        <ele>18</ele>
        <time>2025-06-17T09:13:24Z</time>
      </trkpt>
      <trkpt lat="43.40685" lon="3.69656">
        <ele>18</ele>
        <time>2025-06-17T09:13:25Z</time>
      </trkpt>
      <trkpt lat="43.40684" lon="3.69654">
        <ele>18.2</ele>
        <time>2025-06-17T09:13:26Z</time>
      </trkpt>
      <trkpt lat="43.40687" lon="3.69657">
        <ele>18.8</ele>
        <time>2025-06-17T09:14:37Z</time>
      </trkpt>
      <trkpt lat="43.40687" lon="3.69657">
        <ele>18.8</ele>
        <time>2025-06-17T09:14:38Z</time>
      </trkpt>
      <trkpt lat="43.40689" lon="3.69659">
        <ele>18.6</ele>
        <time>2025-06-17T09:14:39Z</time>
      </trkpt>
      <trkpt lat="43.4069" lon="3.6966">
        <ele>18.6</ele>
        <time>2025-06-17T09:14:40Z</time>
      </trkpt>
      <trkpt lat="43.40692" lon="3.69661">
        <ele>18.4</ele>
        <time>2025-06-17T09:14:41Z</time>
      </trkpt>
      <trkpt lat="43.40694" lon="3.69662">
        <ele>18.4</ele>
        <time>2025-06-17T09:14:42Z</time>
      </trkpt>
      <trkpt lat="43.40697" lon="3.69663">
        <ele>18.2</ele>
        <time>2025-06-17T09:14:43Z</time>
      </trkpt>
      <trkpt lat="43.407" lon="3.69664">
        <ele>18</ele>
        <time>2025-06-17T09:14:44Z</time>
      </trkpt>
      <trkpt lat="43.40703" lon="3.69663">
        <ele>18</ele>
        <time>2025-06-17T09:14:45Z</time>
      </trkpt>
      <trkpt lat="43.40706" lon="3.69663">
        <ele>17.8</ele>
        <time>2025-06-17T09:14:46Z</time>
      </trkpt>
      <trkpt lat="43.40708" lon="3.69662">
        <ele>17.8</ele>
        <time>2025-06-17T09:14:47Z</time>
      </trkpt>
      <trkpt lat="43.40712" lon="3.69661">
        <ele>17.8</ele>
        <time>2025-06-17T09:14:48Z</time>
      </trkpt>
      <trkpt lat="43.40715" lon="3.69659">
        <ele>17.6</ele>
        <time>2025-06-17T09:14:49Z</time>
      </trkpt>
      <trkpt lat="43.40718" lon="3.69657">
        <ele>17.6</ele>
        <time>2025-06-17T09:14:50Z</time>
      </trkpt>
      <trkpt lat="43.40721" lon="3.69656">
        <ele>17.6</ele>
        <time>2025-06-17T09:14:51Z</time>
      </trkpt>
      <trkpt lat="43.40725" lon="3.69654">
        <ele>17.6</ele>
        <time>2025-06-17T09:14:52Z</time>
      </trkpt>
      <trkpt lat="43.40729" lon="3.69653">
        <ele>17.6</ele>
        <time>2025-06-17T09:14:53Z</time>
      </trkpt>
      <trkpt lat="43.40733" lon="3.69652">
        <ele>17.4</ele>
        <time>2025-06-17T09:14:54Z</time>
      </trkpt>
      <trkpt lat="43.40738" lon="3.6965">
        <ele>17.4</ele>
        <time>2025-06-17T09:14:55Z</time>
      </trkpt>
      <trkpt lat="43.40742" lon="3.69648">
        <ele>17.4</ele>
        <time>2025-06-17T09:14:56Z</time>
      </trkpt>
      <trkpt lat="43.40747" lon="3.69646">
        <ele>17.4</ele>
        <time>2025-06-17T09:14:57Z</time>
      </trkpt>
      <trkpt lat="43.40751" lon="3.69644">
        <ele>17.4</ele>
        <time>2025-06-17T09:14:58Z</time>
      </trkpt>
      <trkpt lat="43.40756" lon="3.69642">
        <ele>17.4</ele>
        <time>2025-06-17T09:14:59Z</time>
      </trkpt>
      <trkpt lat="43.4076" lon="3.69639">
        <ele>17.4</ele>
        <time>2025-06-17T09:15:00Z</time>
      </trkpt>
      <trkpt lat="43.40765" lon="3.69637">
        <ele>17.4</ele>
        <time>2025-06-17T09:15:01Z</time>
      </trkpt>
      <trkpt lat="43.4077" lon="3.69634">
        <ele>17.4</ele>
        <time>2025-06-17T09:15:02Z</time>
      </trkpt>
      <trkpt lat="43.40774" lon="3.69632">
        <ele>17.4</ele>
        <time>2025-06-17T09:15:03Z</time>
      </trkpt>
      <trkpt lat="43.40778" lon="3.69629">
        <ele>17.6</ele>
        <time>2025-06-17T09:15:04Z</time>
      </trkpt>
      <trkpt lat="43.40781" lon="3.69627">
        <ele>17.6</ele>
        <time>2025-06-17T09:15:05Z</time>
      </trkpt>
      <trkpt lat="43.40785" lon="3.69624">
        <ele>17.6</ele>
        <time>2025-06-17T09:15:06Z</time>
      </trkpt>
      <trkpt lat="43.40788" lon="3.69622">
        <ele>17.6</ele>
        <time>2025-06-17T09:15:07Z</time>
      </trkpt>
      <trkpt lat="43.4079" lon="3.6962">
        <ele>17.6</ele>
        <time>2025-06-17T09:15:08Z</time>
      </trkpt>
      <trkpt lat="43.40793" lon="3.69618">
        <ele>17.6</ele>
        <time>2025-06-17T09:15:09Z</time>
      </trkpt>
      <trkpt lat="43.40794" lon="3.69616">
        <ele>17.6</ele>
        <time>2025-06-17T09:15:10Z</time>
      </trkpt>
      <trkpt lat="43.40796" lon="3.69614">
        <ele>17.8</ele>
        <time>2025-06-17T09:15:11Z</time>
      </trkpt>
      <trkpt lat="43.40799" lon="3.69613">
        <ele>17.8</ele>
        <time>2025-06-17T09:15:12Z</time>
      </trkpt>
      <trkpt lat="43.40801" lon="3.69613">
        <ele>17.6</ele>
        <time>2025-06-17T09:15:13Z</time>
      </trkpt>
      <trkpt lat="43.40803" lon="3.69611">
        <ele>17.6</ele>
        <time>2025-06-17T09:15:14Z</time>
      </trkpt>
      <trkpt lat="43.40805" lon="3.6961">
        <ele>17.6</ele>
        <time>2025-06-17T09:15:15Z</time>
      </trkpt>
      <trkpt lat="43.40808" lon="3.69608">
        <ele>17.6</ele>
        <time>2025-06-17T09:15:16Z</time>
      </trkpt>
      <trkpt lat="43.40811" lon="3.69606">
        <ele>17.6</ele>
        <time>2025-06-17T09:15:17Z</time>
      </trkpt>
      <trkpt lat="43.40814" lon="3.69602">
        <ele>17.6</ele>
        <time>2025-06-17T09:15:18Z</time>
      </trkpt>
      <trkpt lat="43.40817" lon="3.69598">
        <ele>17.6</ele>
        <time>2025-06-17T09:15:19Z</time>
      </trkpt>
      <trkpt lat="43.40819" lon="3.69596">
        <ele>17.6</ele>
        <time>2025-06-17T09:15:20Z</time>
      </trkpt>
      <trkpt lat="43.40821" lon="3.69594">
        <ele>17.6</ele>
        <time>2025-06-17T09:15:21Z</time>
      </trkpt>
      <trkpt lat="43.40822" lon="3.69592">
        <ele>17.6</ele>
        <time>2025-06-17T09:15:22Z</time>
      </trkpt>
      <trkpt lat="43.40824" lon="3.6959">
        <ele>17.6</ele>
        <time>2025-06-17T09:15:23Z</time>
      </trkpt>
      <trkpt lat="43.40826" lon="3.69589">
        <ele>17.6</ele>
        <time>2025-06-17T09:15:24Z</time>
      </trkpt>
      <trkpt lat="43.40828" lon="3.69586">
        <ele>17.6</ele>
        <time>2025-06-17T09:15:25Z</time>
      </trkpt>
      <trkpt lat="43.40831" lon="3.69584">
        <ele>17.6</ele>
        <time>2025-06-17T09:15:26Z</time>
      </trkpt>
      <trkpt lat="43.40834" lon="3.69581">
        <ele>17.6</ele>
        <time>2025-06-17T09:15:27Z</time>
      </trkpt>
      <trkpt lat="43.40837" lon="3.6958">
        <ele>17.6</ele>
        <time>2025-06-17T09:15:28Z</time>
      </trkpt>
      <trkpt lat="43.40841" lon="3.69578">
        <ele>17.6</ele>
        <time>2025-06-17T09:15:29Z</time>
      </trkpt>
      <trkpt lat="43.40847" lon="3.69576">
        <ele>17.6</ele>
        <time>2025-06-17T09:15:30Z</time>
      </trkpt>
      <trkpt lat="43.40851" lon="3.69574">
        <ele>17.6</ele>
        <time>2025-06-17T09:15:31Z</time>
      </trkpt>
      <trkpt lat="43.40856" lon="3.69572">
        <ele>17.6</ele>
        <time>2025-06-17T09:15:32Z</time>
      </trkpt>
      <trkpt lat="43.4086" lon="3.6957">
        <ele>17.6</ele>
        <time>2025-06-17T09:15:33Z</time>
      </trkpt>
      <trkpt lat="43.40864" lon="3.69568">
        <ele>17.6</ele>
        <time>2025-06-17T09:15:34Z</time>
      </trkpt>
      <trkpt lat="43.40867" lon="3.69566">
        <ele>17.6</ele>
        <time>2025-06-17T09:15:35Z</time>
      </trkpt>
      <trkpt lat="43.4087" lon="3.69564">
        <ele>17.6</ele>
        <time>2025-06-17T09:15:36Z</time>
      </trkpt>
      <trkpt lat="43.40872" lon="3.69562">
        <ele>17.6</ele>
        <time>2025-06-17T09:15:37Z</time>
      </trkpt>
      <trkpt lat="43.40874" lon="3.6956">
        <ele>17.6</ele>
        <time>2025-06-17T09:15:38Z</time>
      </trkpt>
      <trkpt lat="43.40876" lon="3.69557">
        <ele>17.6</ele>
        <time>2025-06-17T09:15:39Z</time>
      </trkpt>
      <trkpt lat="43.40879" lon="3.69554">
        <ele>17.6</ele>
        <time>2025-06-17T09:15:40Z</time>
      </trkpt>
      <trkpt lat="43.40883" lon="3.69552">
        <ele>17.6</ele>
        <time>2025-06-17T09:15:41Z</time>
      </trkpt>
      <trkpt lat="43.40887" lon="3.69549">
        <ele>17.6</ele>
        <time>2025-06-17T09:15:42Z</time>
      </trkpt>
      <trkpt lat="43.40891" lon="3.69545">
        <ele>17.6</ele>
        <time>2025-06-17T09:15:43Z</time>
      </trkpt>
      <trkpt lat="43.40895" lon="3.69542">
        <ele>17.6</ele>
        <time>2025-06-17T09:15:44Z</time>
      </trkpt>
      <trkpt lat="43.409" lon="3.69538">
        <ele>17.4</ele>
        <time>2025-06-17T09:15:45Z</time>
      </trkpt>
      <trkpt lat="43.40905" lon="3.69535">
        <ele>17.4</ele>
        <time>2025-06-17T09:15:46Z</time>
      </trkpt>
      <trkpt lat="43.40909" lon="3.69532">
        <ele>17.4</ele>
        <time>2025-06-17T09:15:47Z</time>
      </trkpt>
      <trkpt lat="43.40914" lon="3.69528">
        <ele>17.4</ele>
        <time>2025-06-17T09:15:48Z</time>
      </trkpt>
      <trkpt lat="43.40918" lon="3.69525">
        <ele>17.4</ele>
        <time>2025-06-17T09:15:49Z</time>
      </trkpt>
      <trkpt lat="43.40923" lon="3.69521">
        <ele>17.4</ele>
        <time>2025-06-17T09:15:50Z</time>
      </trkpt>
      <trkpt lat="43.40927" lon="3.69518">
        <ele>17.4</ele>
        <time>2025-06-17T09:15:51Z</time>
      </trkpt>
      <trkpt lat="43.40932" lon="3.69514">
        <ele>17.4</ele>
        <time>2025-06-17T09:15:52Z</time>
      </trkpt>
      <trkpt lat="43.40937" lon="3.69511">
        <ele>17.4</ele>
        <time>2025-06-17T09:15:53Z</time>
      </trkpt>
      <trkpt lat="43.40941" lon="3.69507">
        <ele>17.4</ele>
        <time>2025-06-17T09:15:54Z</time>
      </trkpt>
      <trkpt lat="43.40946" lon="3.69504">
        <ele>17.2</ele>
        <time>2025-06-17T09:15:55Z</time>
      </trkpt>
      <trkpt lat="43.4095" lon="3.69501">
        <ele>17.4</ele>
        <time>2025-06-17T09:15:56Z</time>
      </trkpt>
      <trkpt lat="43.40955" lon="3.69498">
        <ele>17.4</ele>
        <time>2025-06-17T09:15:57Z</time>
      </trkpt>
      <trkpt lat="43.4096" lon="3.69497">
        <ele>17.4</ele>
        <time>2025-06-17T09:15:58Z</time>
      </trkpt>
      <trkpt lat="43.40965" lon="3.69494">
        <ele>17.4</ele>
        <time>2025-06-17T09:15:59Z</time>
      </trkpt>
      <trkpt lat="43.40969" lon="3.69491">
        <ele>17.4</ele>
        <time>2025-06-17T09:16:00Z</time>
      </trkpt>
      <trkpt lat="43.40974" lon="3.69488">
        <ele>17.4</ele>
        <time>2025-06-17T09:16:01Z</time>
      </trkpt>
      <trkpt lat="43.40978" lon="3.69485">
        <ele>17.4</ele>
        <time>2025-06-17T09:16:02Z</time>
      </trkpt>
      <trkpt lat="43.40982" lon="3.69482">
        <ele>17.4</ele>
        <time>2025-06-17T09:16:03Z</time>
      </trkpt>
      <trkpt lat="43.40987" lon="3.69479">
        <ele>17.4</ele>
        <time>2025-06-17T09:16:04Z</time>
      </trkpt>
      <trkpt lat="43.4099" lon="3.69476">
        <ele>17.4</ele>
        <time>2025-06-17T09:16:05Z</time>
      </trkpt>
      <trkpt lat="43.40994" lon="3.69473">
        <ele>17.4</ele>
        <time>2025-06-17T09:16:06Z</time>
      </trkpt>
      <trkpt lat="43.40998" lon="3.6947">
        <ele>17.4</ele>
        <time>2025-06-17T09:16:07Z</time>
      </trkpt>
      <trkpt lat="43.41002" lon="3.69466">
        <ele>17.2</ele>
        <time>2025-06-17T09:16:08Z</time>
      </trkpt>
      <trkpt lat="43.41006" lon="3.69463">
        <ele>17.2</ele>
        <time>2025-06-17T09:16:09Z</time>
      </trkpt>
      <trkpt lat="43.41011" lon="3.69461">
        <ele>17.2</ele>
        <time>2025-06-17T09:16:10Z</time>
      </trkpt>
      <trkpt lat="43.41016" lon="3.69459">
        <ele>17.2</ele>
        <time>2025-06-17T09:16:11Z</time>
      </trkpt>
      <trkpt lat="43.4102" lon="3.69459">
        <ele>17.2</ele>
        <time>2025-06-17T09:16:12Z</time>
      </trkpt>
      <trkpt lat="43.41024" lon="3.69461">
        <ele>17.2</ele>
        <time>2025-06-17T09:16:13Z</time>
      </trkpt>
      <trkpt lat="43.41029" lon="3.69464">
        <ele>17.4</ele>
        <time>2025-06-17T09:16:14Z</time>
      </trkpt>
      <trkpt lat="43.41033" lon="3.69466">
        <ele>17.4</ele>
        <time>2025-06-17T09:16:15Z</time>
      </trkpt>
      <trkpt lat="43.41036" lon="3.6947">
        <ele>17.4</ele>
        <time>2025-06-17T09:16:16Z</time>
      </trkpt>
      <trkpt lat="43.41038" lon="3.69474">
        <ele>17.4</ele>
        <time>2025-06-17T09:16:17Z</time>
      </trkpt>
      <trkpt lat="43.4104" lon="3.69479">
        <ele>17.4</ele>
        <time>2025-06-17T09:16:18Z</time>
      </trkpt>
      <trkpt lat="43.41041" lon="3.69486">
        <ele>17.4</ele>
        <time>2025-06-17T09:16:19Z</time>
      </trkpt>
      <trkpt lat="43.41042" lon="3.69492">
        <ele>17.4</ele>
        <time>2025-06-17T09:16:20Z</time>
      </trkpt>
      <trkpt lat="43.41044" lon="3.69499">
        <ele>17.4</ele>
        <time>2025-06-17T09:16:21Z</time>
      </trkpt>
      <trkpt lat="43.41045" lon="3.69506">
        <ele>17.4</ele>
        <time>2025-06-17T09:16:22Z</time>
      </trkpt>
      <trkpt lat="43.41047" lon="3.69513">
        <ele>17.4</ele>
        <time>2025-06-17T09:16:23Z</time>
      </trkpt>
      <trkpt lat="43.41048" lon="3.6952">
        <ele>17.4</ele>
        <time>2025-06-17T09:16:24Z</time>
      </trkpt>
      <trkpt lat="43.4105" lon="3.69526">
        <ele>17.4</ele>
        <time>2025-06-17T09:16:25Z</time>
      </trkpt>
      <trkpt lat="43.41052" lon="3.69533">
        <ele>17.4</ele>
        <time>2025-06-17T09:16:26Z</time>
      </trkpt>
      <trkpt lat="43.41054" lon="3.69541">
        <ele>17.6</ele>
        <time>2025-06-17T09:16:27Z</time>
      </trkpt>
      <trkpt lat="43.41056" lon="3.69548">
        <ele>17.4</ele>
        <time>2025-06-17T09:16:28Z</time>
      </trkpt>
      <trkpt lat="43.41057" lon="3.69555">
        <ele>17.4</ele>
        <time>2025-06-17T09:16:29Z</time>
      </trkpt>
      <trkpt lat="43.41058" lon="3.69562">
        <ele>17.4</ele>
        <time>2025-06-17T09:16:30Z</time>
      </trkpt>
      <trkpt lat="43.4106" lon="3.69569">
        <ele>17.4</ele>
        <time>2025-06-17T09:16:31Z</time>
      </trkpt>
      <trkpt lat="43.41061" lon="3.69576">
        <ele>17.4</ele>
        <time>2025-06-17T09:16:32Z</time>
      </trkpt>
      <trkpt lat="43.41062" lon="3.69583">
        <ele>17.4</ele>
        <time>2025-06-17T09:16:33Z</time>
      </trkpt>
      <trkpt lat="43.41063" lon="3.6959">
        <ele>17.2</ele>
        <time>2025-06-17T09:16:34Z</time>
      </trkpt>
      <trkpt lat="43.41064" lon="3.69597">
        <ele>17.2</ele>
        <time>2025-06-17T09:16:35Z</time>
      </trkpt>
      <trkpt lat="43.41065" lon="3.69604">
        <ele>17.2</ele>
        <time>2025-06-17T09:16:36Z</time>
      </trkpt>
      <trkpt lat="43.41066" lon="3.6961">
        <ele>17.2</ele>
        <time>2025-06-17T09:16:37Z</time>
      </trkpt>
      <trkpt lat="43.41067" lon="3.69617">
        <ele>17.2</ele>
        <time>2025-06-17T09:16:38Z</time>
      </trkpt>
      <trkpt lat="43.41069" lon="3.69624">
        <ele>17.2</ele>
        <time>2025-06-17T09:16:39Z</time>
      </trkpt>
      <trkpt lat="43.4107" lon="3.69632">
        <ele>17.2</ele>
        <time>2025-06-17T09:16:40Z</time>
      </trkpt>
      <trkpt lat="43.41071" lon="3.69639">
        <ele>17.2</ele>
        <time>2025-06-17T09:16:41Z</time>
      </trkpt>
      <trkpt lat="43.41072" lon="3.69646">
        <ele>17.2</ele>
        <time>2025-06-17T09:16:42Z</time>
      </trkpt>
      <trkpt lat="43.41073" lon="3.69653">
        <ele>17.2</ele>
        <time>2025-06-17T09:16:43Z</time>
      </trkpt>
      <trkpt lat="43.41074" lon="3.6966">
        <ele>17.2</ele>
        <time>2025-06-17T09:16:44Z</time>
      </trkpt>
      <trkpt lat="43.41075" lon="3.69667">
        <ele>17.4</ele>
        <time>2025-06-17T09:16:45Z</time>
      </trkpt>
      <trkpt lat="43.41076" lon="3.69674">
        <ele>17.4</ele>
        <time>2025-06-17T09:16:46Z</time>
      </trkpt>
      <trkpt lat="43.41077" lon="3.6968">
        <ele>17.4</ele>
        <time>2025-06-17T09:16:47Z</time>
      </trkpt>
      <trkpt lat="43.41077" lon="3.69684">
        <ele>17.6</ele>
        <time>2025-06-17T09:16:48Z</time>
      </trkpt>
      <trkpt lat="43.41078" lon="3.69687">
        <ele>17.8</ele>
        <time>2025-06-17T09:16:49Z</time>
      </trkpt>
      <trkpt lat="43.41084" lon="3.69691">
        <ele>18.2</ele>
        <time>2025-06-17T09:17:37Z</time>
      </trkpt>
      <trkpt lat="43.41084" lon="3.69693">
        <ele>18.2</ele>
        <time>2025-06-17T09:17:38Z</time>
      </trkpt>
      <trkpt lat="43.41085" lon="3.69696">
        <ele>18.2</ele>
        <time>2025-06-17T09:17:39Z</time>
      </trkpt>
      <trkpt lat="43.41085" lon="3.69699">
        <ele>18.2</ele>
        <time>2025-06-17T09:17:40Z</time>
      </trkpt>
      <trkpt lat="43.41086" lon="3.69701">
        <ele>18.2</ele>
        <time>2025-06-17T09:17:41Z</time>
      </trkpt>
      <trkpt lat="43.41086" lon="3.69704">
        <ele>18.4</ele>
        <time>2025-06-17T09:17:42Z</time>
      </trkpt>
      <trkpt lat="43.41087" lon="3.69707">
        <ele>18.4</ele>
        <time>2025-06-17T09:17:43Z</time>
      </trkpt>
      <trkpt lat="43.41087" lon="3.69709">
        <ele>18.4</ele>
        <time>2025-06-17T09:17:44Z</time>
      </trkpt>
      <trkpt lat="43.41088" lon="3.69711">
        <ele>18.4</ele>
        <time>2025-06-17T09:17:45Z</time>
      </trkpt>
      <trkpt lat="43.41088" lon="3.69713">
        <ele>18.6</ele>
        <time>2025-06-17T09:17:46Z</time>
      </trkpt>
      <trkpt lat="43.41088" lon="3.69715">
        <ele>18.6</ele>
        <time>2025-06-17T09:17:47Z</time>
      </trkpt>
      <trkpt lat="43.41088" lon="3.69717">
        <ele>18.6</ele>
        <time>2025-06-17T09:17:48Z</time>
      </trkpt>
      <trkpt lat="43.41089" lon="3.69719">
        <ele>18.8</ele>
        <time>2025-06-17T09:17:49Z</time>
      </trkpt>
      <trkpt lat="43.41091" lon="3.6972">
        <ele>18.8</ele>
        <time>2025-06-17T09:17:50Z</time>
      </trkpt>
      <trkpt lat="43.41093" lon="3.69721">
        <ele>18.8</ele>
        <time>2025-06-17T09:17:51Z</time>
      </trkpt>
      <trkpt lat="43.41096" lon="3.69721">
        <ele>18.8</ele>
        <time>2025-06-17T09:17:52Z</time>
      </trkpt>
      <trkpt lat="43.41098" lon="3.6972">
        <ele>18.8</ele>
        <time>2025-06-17T09:17:53Z</time>
      </trkpt>
      <trkpt lat="43.41101" lon="3.69718">
        <ele>18.8</ele>
        <time>2025-06-17T09:17:54Z</time>
      </trkpt>
      <trkpt lat="43.41106" lon="3.69716">
        <ele>18.8</ele>
        <time>2025-06-17T09:17:55Z</time>
      </trkpt>
      <trkpt lat="43.41111" lon="3.69715">
        <ele>19</ele>
        <time>2025-06-17T09:17:56Z</time>
      </trkpt>
      <trkpt lat="43.41116" lon="3.69714">
        <ele>19</ele>
        <time>2025-06-17T09:17:57Z</time>
      </trkpt>
      <trkpt lat="43.41121" lon="3.69713">
        <ele>19</ele>
        <time>2025-06-17T09:17:58Z</time>
      </trkpt>
      <trkpt lat="43.41127" lon="3.69711">
        <ele>19</ele>
        <time>2025-06-17T09:17:59Z</time>
      </trkpt>
      <trkpt lat="43.41132" lon="3.69709">
        <ele>19</ele>
        <time>2025-06-17T09:18:00Z</time>
      </trkpt>
      <trkpt lat="43.41137" lon="3.69708">
        <ele>19</ele>
        <time>2025-06-17T09:18:01Z</time>
      </trkpt>
      <trkpt lat="43.41143" lon="3.69706">
        <ele>19.2</ele>
        <time>2025-06-17T09:18:02Z</time>
      </trkpt>
      <trkpt lat="43.41148" lon="3.69704">
        <ele>19.4</ele>
        <time>2025-06-17T09:18:03Z</time>
      </trkpt>
      <trkpt lat="43.41153" lon="3.69702">
        <ele>19.4</ele>
        <time>2025-06-17T09:18:04Z</time>
      </trkpt>
      <trkpt lat="43.41158" lon="3.69701">
        <ele>19.6</ele>
        <time>2025-06-17T09:18:05Z</time>
      </trkpt>
      <trkpt lat="43.41162" lon="3.697">
        <ele>19.6</ele>
        <time>2025-06-17T09:18:06Z</time>
      </trkpt>
      <trkpt lat="43.41165" lon="3.69699">
        <ele>19.8</ele>
        <time>2025-06-17T09:18:07Z</time>
      </trkpt>
      <trkpt lat="43.41167" lon="3.69698">
        <ele>19.8</ele>
        <time>2025-06-17T09:18:08Z</time>
      </trkpt>
      <trkpt lat="43.41169" lon="3.69698">
        <ele>19.8</ele>
        <time>2025-06-17T09:18:09Z</time>
      </trkpt>
      <trkpt lat="43.41171" lon="3.69698">
        <ele>19.8</ele>
        <time>2025-06-17T09:18:10Z</time>
      </trkpt>
      <trkpt lat="43.41171" lon="3.69697">
        <ele>19.8</ele>
        <time>2025-06-17T09:18:11Z</time>
      </trkpt>
      <trkpt lat="43.41171" lon="3.69697">
        <ele>19.8</ele>
        <time>2025-06-17T09:18:12Z</time>
      </trkpt>
      <trkpt lat="43.41171" lon="3.69697">
        <ele>19.8</ele>
        <time>2025-06-17T09:18:13Z</time>
      </trkpt>
      <trkpt lat="43.41171" lon="3.69697">
        <ele>19.8</ele>
        <time>2025-06-17T09:18:14Z</time>
      </trkpt>
      <trkpt lat="43.41171" lon="3.69697">
        <ele>19.8</ele>
        <time>2025-06-17T09:18:15Z</time>
      </trkpt>
      <trkpt lat="43.41174" lon="3.69695">
        <ele>19.8</ele>
        <time>2025-06-17T09:18:28Z</time>
      </trkpt>
      <trkpt lat="43.41176" lon="3.69694">
        <ele>19.8</ele>
        <time>2025-06-17T09:18:29Z</time>
      </trkpt>
      <trkpt lat="43.4118" lon="3.69693">
        <ele>19.8</ele>
        <time>2025-06-17T09:18:30Z</time>
      </trkpt>
      <trkpt lat="43.41183" lon="3.69692">
        <ele>19.8</ele>
        <time>2025-06-17T09:18:31Z</time>
      </trkpt>
      <trkpt lat="43.41187" lon="3.6969">
        <ele>19.6</ele>
        <time>2025-06-17T09:18:32Z</time>
      </trkpt>
      <trkpt lat="43.41191" lon="3.69688">
        <ele>19.6</ele>
        <time>2025-06-17T09:18:33Z</time>
      </trkpt>
      <trkpt lat="43.41196" lon="3.69686">
        <ele>19.6</ele>
        <time>2025-06-17T09:18:34Z</time>
      </trkpt>
      <trkpt lat="43.412" lon="3.69685">
        <ele>19.6</ele>
        <time>2025-06-17T09:18:35Z</time>
      </trkpt>
      <trkpt lat="43.41204" lon="3.69682">
        <ele>19.6</ele>
        <time>2025-06-17T09:18:36Z</time>
      </trkpt>
      <trkpt lat="43.41208" lon="3.69679">
        <ele>19.6</ele>
        <time>2025-06-17T09:18:37Z</time>
      </trkpt>
      <trkpt lat="43.41211" lon="3.69675">
        <ele>19.6</ele>
        <time>2025-06-17T09:18:38Z</time>
      </trkpt>
      <trkpt lat="43.41213" lon="3.6967">
        <ele>19.6</ele>
        <time>2025-06-17T09:18:39Z</time>
      </trkpt>
      <trkpt lat="43.41214" lon="3.69664">
        <ele>19.4</ele>
        <time>2025-06-17T09:18:40Z</time>
      </trkpt>
      <trkpt lat="43.41214" lon="3.69657">
        <ele>19.4</ele>
        <time>2025-06-17T09:18:41Z</time>
      </trkpt>
      <trkpt lat="43.41213" lon="3.6965">
        <ele>19.4</ele>
        <time>2025-06-17T09:18:42Z</time>
      </trkpt>
      <trkpt lat="43.41212" lon="3.69643">
        <ele>19.4</ele>
        <time>2025-06-17T09:18:43Z</time>
      </trkpt>
      <trkpt lat="43.41211" lon="3.69636">
        <ele>19.4</ele>
        <time>2025-06-17T09:18:44Z</time>
      </trkpt>
      <trkpt lat="43.4121" lon="3.69629">
        <ele>19.4</ele>
        <time>2025-06-17T09:18:45Z</time>
      </trkpt>
      <trkpt lat="43.41209" lon="3.69622">
        <ele>19.4</ele>
        <time>2025-06-17T09:18:46Z</time>
      </trkpt>
      <trkpt lat="43.41207" lon="3.69616">
        <ele>19.2</ele>
        <time>2025-06-17T09:18:47Z</time>
      </trkpt>
      <trkpt lat="43.41206" lon="3.69609">
        <ele>19.2</ele>
        <time>2025-06-17T09:18:48Z</time>
      </trkpt>
      <trkpt lat="43.41204" lon="3.69602">
        <ele>19.2</ele>
        <time>2025-06-17T09:18:49Z</time>
      </trkpt>
      <trkpt lat="43.41203" lon="3.69595">
        <ele>19.4</ele>
        <time>2025-06-17T09:18:50Z</time>
      </trkpt>
      <trkpt lat="43.41202" lon="3.69588">
        <ele>19.4</ele>
        <time>2025-06-17T09:18:51Z</time>
      </trkpt>
      <trkpt lat="43.412" lon="3.69581">
        <ele>19.4</ele>
        <time>2025-06-17T09:18:52Z</time>
      </trkpt>
      <trkpt lat="43.41198" lon="3.69574">
        <ele>19.4</ele>
        <time>2025-06-17T09:18:53Z</time>
      </trkpt>
      <trkpt lat="43.41196" lon="3.69567">
        <ele>19.4</ele>
        <time>2025-06-17T09:18:54Z</time>
      </trkpt>
      <trkpt lat="43.41194" lon="3.69559">
        <ele>19.4</ele>
        <time>2025-06-17T09:18:55Z</time>
      </trkpt>
      <trkpt lat="43.41193" lon="3.69552">
        <ele>19.4</ele>
        <time>2025-06-17T09:18:56Z</time>
      </trkpt>
      <trkpt lat="43.41191" lon="3.69545">
        <ele>19.6</ele>
        <time>2025-06-17T09:18:57Z</time>
      </trkpt>
      <trkpt lat="43.4119" lon="3.69538">
        <ele>19.6</ele>
        <time>2025-06-17T09:18:58Z</time>
      </trkpt>
      <trkpt lat="43.41188" lon="3.69529">
        <ele>19.6</ele>
        <time>2025-06-17T09:18:59Z</time>
      </trkpt>
      <trkpt lat="43.41187" lon="3.69521">
        <ele>19.6</ele>
        <time>2025-06-17T09:19:00Z</time>
      </trkpt>
      <trkpt lat="43.41186" lon="3.69513">
        <ele>19.8</ele>
        <time>2025-06-17T09:19:01Z</time>
      </trkpt>
      <trkpt lat="43.41185" lon="3.69506">
        <ele>19.8</ele>
        <time>2025-06-17T09:19:02Z</time>
      </trkpt>
      <trkpt lat="43.41183" lon="3.69498">
        <ele>20</ele>
        <time>2025-06-17T09:19:03Z</time>
      </trkpt>
      <trkpt lat="43.41183" lon="3.6949">
        <ele>20</ele>
        <time>2025-06-17T09:19:04Z</time>
      </trkpt>
      <trkpt lat="43.41182" lon="3.69483">
        <ele>20.2</ele>
        <time>2025-06-17T09:19:05Z</time>
      </trkpt>
      <trkpt lat="43.41182" lon="3.69476">
        <ele>20.4</ele>
        <time>2025-06-17T09:19:06Z</time>
      </trkpt>
      <trkpt lat="43.41182" lon="3.6947">
        <ele>20.6</ele>
        <time>2025-06-17T09:19:07Z</time>
      </trkpt>
      <trkpt lat="43.41183" lon="3.69463">
        <ele>20.8</ele>
        <time>2025-06-17T09:19:08Z</time>
      </trkpt>
      <trkpt lat="43.41184" lon="3.69458">
        <ele>21.2</ele>
        <time>2025-06-17T09:19:09Z</time>
      </trkpt>
      <trkpt lat="43.41185" lon="3.69453">
        <ele>21.4</ele>
        <time>2025-06-17T09:19:10Z</time>
      </trkpt>
      <trkpt lat="43.41187" lon="3.69449">
        <ele>21.6</ele>
        <time>2025-06-17T09:19:11Z</time>
      </trkpt>
      <trkpt lat="43.41189" lon="3.69445">
        <ele>22</ele>
        <time>2025-06-17T09:19:12Z</time>
      </trkpt>
      <trkpt lat="43.4119" lon="3.69443">
        <ele>22.2</ele>
        <time>2025-06-17T09:19:13Z</time>
      </trkpt>
      <trkpt lat="43.41192" lon="3.69441">
        <ele>22.2</ele>
        <time>2025-06-17T09:19:14Z</time>
      </trkpt>
      <trkpt lat="43.41194" lon="3.69439">
        <ele>22.4</ele>
        <time>2025-06-17T09:19:15Z</time>
      </trkpt>
      <trkpt lat="43.41195" lon="3.69437">
        <ele>22.6</ele>
        <time>2025-06-17T09:19:16Z</time>
      </trkpt>
      <trkpt lat="43.41197" lon="3.69435">
        <ele>22.6</ele>
        <time>2025-06-17T09:19:17Z</time>
      </trkpt>
      <trkpt lat="43.41198" lon="3.69432">
        <ele>22.8</ele>
        <time>2025-06-17T09:19:18Z</time>
      </trkpt>
      <trkpt lat="43.41199" lon="3.69428">
        <ele>22.8</ele>
        <time>2025-06-17T09:19:19Z</time>
      </trkpt>
      <trkpt lat="43.412" lon="3.69424">
        <ele>22.8</ele>
        <time>2025-06-17T09:19:20Z</time>
      </trkpt>
      <trkpt lat="43.412" lon="3.6942">
        <ele>23</ele>
        <time>2025-06-17T09:19:21Z</time>
      </trkpt>
      <trkpt lat="43.41199" lon="3.69415">
        <ele>23</ele>
        <time>2025-06-17T09:19:22Z</time>
      </trkpt>
      <trkpt lat="43.41198" lon="3.69411">
        <ele>23</ele>
        <time>2025-06-17T09:19:23Z</time>
      </trkpt>
      <trkpt lat="43.41196" lon="3.69408">
        <ele>23</ele>
        <time>2025-06-17T09:19:24Z</time>
      </trkpt>
      <trkpt lat="43.41194" lon="3.69406">
        <ele>23</ele>
        <time>2025-06-17T09:19:25Z</time>
      </trkpt>
      <trkpt lat="43.41193" lon="3.69404">
        <ele>23.2</ele>
        <time>2025-06-17T09:19:26Z</time>
      </trkpt>
      <trkpt lat="43.41191" lon="3.69402">
        <ele>23.2</ele>
        <time>2025-06-17T09:19:27Z</time>
      </trkpt>
      <trkpt lat="43.41189" lon="3.69399">
        <ele>23.2</ele>
        <time>2025-06-17T09:19:28Z</time>
      </trkpt>
      <trkpt lat="43.41187" lon="3.69396">
        <ele>23.2</ele>
        <time>2025-06-17T09:19:29Z</time>
      </trkpt>
      <trkpt lat="43.41185" lon="3.69393">
        <ele>23.2</ele>
        <time>2025-06-17T09:19:30Z</time>
      </trkpt>
      <trkpt lat="43.41184" lon="3.69389">
        <ele>23.4</ele>
        <time>2025-06-17T09:19:31Z</time>
      </trkpt>
      <trkpt lat="43.41183" lon="3.69383">
        <ele>23.4</ele>
        <time>2025-06-17T09:19:32Z</time>
      </trkpt>
      <trkpt lat="43.41182" lon="3.69378">
        <ele>23.6</ele>
        <time>2025-06-17T09:19:33Z</time>
      </trkpt>
      <trkpt lat="43.41182" lon="3.69373">
        <ele>23.6</ele>
        <time>2025-06-17T09:19:34Z</time>
      </trkpt>
      <trkpt lat="43.41182" lon="3.69368">
        <ele>23.8</ele>
        <time>2025-06-17T09:19:35Z</time>
      </trkpt>
      <trkpt lat="43.41183" lon="3.69364">
        <ele>24</ele>
        <time>2025-06-17T09:19:36Z</time>
      </trkpt>
      <trkpt lat="43.41184" lon="3.69361">
        <ele>24</ele>
        <time>2025-06-17T09:19:37Z</time>
      </trkpt>
      <trkpt lat="43.41187" lon="3.69358">
        <ele>24.2</ele>
        <time>2025-06-17T09:19:38Z</time>
      </trkpt>
      <trkpt lat="43.4119" lon="3.69354">
        <ele>24.2</ele>
        <time>2025-06-17T09:19:39Z</time>
      </trkpt>
      <trkpt lat="43.41192" lon="3.69349">
        <ele>24.4</ele>
        <time>2025-06-17T09:19:40Z</time>
      </trkpt>
      <trkpt lat="43.41194" lon="3.69345">
        <ele>24.4</ele>
        <time>2025-06-17T09:19:41Z</time>
      </trkpt>
      <trkpt lat="43.41196" lon="3.6934">
        <ele>24.6</ele>
        <time>2025-06-17T09:19:42Z</time>
      </trkpt>
      <trkpt lat="43.41198" lon="3.69336">
        <ele>24.6</ele>
        <time>2025-06-17T09:19:43Z</time>
      </trkpt>
      <trkpt lat="43.41201" lon="3.69332">
        <ele>24.8</ele>
        <time>2025-06-17T09:19:44Z</time>
      </trkpt>
      <trkpt lat="43.41204" lon="3.69328">
        <ele>25</ele>
        <time>2025-06-17T09:19:45Z</time>
      </trkpt>
      <trkpt lat="43.41207" lon="3.69325">
        <ele>25</ele>
        <time>2025-06-17T09:19:46Z</time>
      </trkpt>
      <trkpt lat="43.4121" lon="3.69322">
        <ele>25</ele>
        <time>2025-06-17T09:19:47Z</time>
      </trkpt>
      <trkpt lat="43.41213" lon="3.69319">
        <ele>25.2</ele>
        <time>2025-06-17T09:19:48Z</time>
      </trkpt>
      <trkpt lat="43.41217" lon="3.69317">
        <ele>25.2</ele>
        <time>2025-06-17T09:19:49Z</time>
      </trkpt>
      <trkpt lat="43.41221" lon="3.69314">
        <ele>25.2</ele>
        <time>2025-06-17T09:19:50Z</time>
      </trkpt>
      <trkpt lat="43.41226" lon="3.69312">
        <ele>25.4</ele>
        <time>2025-06-17T09:19:51Z</time>
      </trkpt>
      <trkpt lat="43.4123" lon="3.69309">
        <ele>25.4</ele>
        <time>2025-06-17T09:19:52Z</time>
      </trkpt>
      <trkpt lat="43.41234" lon="3.69307">
        <ele>25.4</ele>
        <time>2025-06-17T09:19:53Z</time>
      </trkpt>
      <trkpt lat="43.41238" lon="3.69305">
        <ele>25.4</ele>
        <time>2025-06-17T09:19:54Z</time>
      </trkpt>
      <trkpt lat="43.41242" lon="3.69303">
        <ele>25.4</ele>
        <time>2025-06-17T09:19:55Z</time>
      </trkpt>
      <trkpt lat="43.41247" lon="3.69302">
        <ele>25.4</ele>
        <time>2025-06-17T09:19:56Z</time>
      </trkpt>
      <trkpt lat="43.41251" lon="3.693">
        <ele>25.4</ele>
        <time>2025-06-17T09:19:57Z</time>
      </trkpt>
      <trkpt lat="43.41256" lon="3.69298">
        <ele>25.4</ele>
        <time>2025-06-17T09:19:58Z</time>
      </trkpt>
      <trkpt lat="43.41261" lon="3.69296">
        <ele>25.4</ele>
        <time>2025-06-17T09:19:59Z</time>
      </trkpt>
      <trkpt lat="43.41267" lon="3.69295">
        <ele>25.4</ele>
        <time>2025-06-17T09:20:00Z</time>
      </trkpt>
      <trkpt lat="43.41271" lon="3.69294">
        <ele>25.4</ele>
        <time>2025-06-17T09:20:01Z</time>
      </trkpt>
      <trkpt lat="43.41277" lon="3.69294">
        <ele>25.2</ele>
        <time>2025-06-17T09:20:02Z</time>
      </trkpt>
      <trkpt lat="43.41282" lon="3.69294">
        <ele>25.2</ele>
        <time>2025-06-17T09:20:03Z</time>
      </trkpt>
      <trkpt lat="43.41288" lon="3.69295">
        <ele>25.2</ele>
        <time>2025-06-17T09:20:04Z</time>
      </trkpt>
      <trkpt lat="43.41293" lon="3.69296">
        <ele>25</ele>
        <time>2025-06-17T09:20:05Z</time>
      </trkpt>
      <trkpt lat="43.41299" lon="3.69299">
        <ele>24.8</ele>
        <time>2025-06-17T09:20:06Z</time>
      </trkpt>
      <trkpt lat="43.41305" lon="3.69303">
        <ele>24.6</ele>
        <time>2025-06-17T09:20:07Z</time>
      </trkpt>
      <trkpt lat="43.4131" lon="3.69308">
        <ele>24.2</ele>
        <time>2025-06-17T09:20:08Z</time>
      </trkpt>
      <trkpt lat="43.41315" lon="3.69313">
        <ele>24</ele>
        <time>2025-06-17T09:20:09Z</time>
      </trkpt>
      <trkpt lat="43.4132" lon="3.69321">
        <ele>23.6</ele>
        <time>2025-06-17T09:20:10Z</time>
      </trkpt>
      <trkpt lat="43.41324" lon="3.69329">
        <ele>23.4</ele>
        <time>2025-06-17T09:20:11Z</time>
      </trkpt>
      <trkpt lat="43.41327" lon="3.69338">
        <ele>23.2</ele>
        <time>2025-06-17T09:20:12Z</time>
      </trkpt>
      <trkpt lat="43.4133" lon="3.69347">
        <ele>22.8</ele>
        <time>2025-06-17T09:20:13Z</time>
      </trkpt>
      <trkpt lat="43.41332" lon="3.69356">
        <ele>22.6</ele>
        <time>2025-06-17T09:20:14Z</time>
      </trkpt>
      <trkpt lat="43.41334" lon="3.69363">
        <ele>22.2</ele>
        <time>2025-06-17T09:20:15Z</time>
      </trkpt>
      <trkpt lat="43.41335" lon="3.69371">
        <ele>22</ele>
        <time>2025-06-17T09:20:16Z</time>
      </trkpt>
      <trkpt lat="43.41337" lon="3.69378">
        <ele>21.6</ele>
        <time>2025-06-17T09:20:17Z</time>
      </trkpt>
      <trkpt lat="43.41339" lon="3.69387">
        <ele>21.2</ele>
        <time>2025-06-17T09:20:18Z</time>
      </trkpt>
      <trkpt lat="43.41341" lon="3.69396">
        <ele>21</ele>
        <time>2025-06-17T09:20:19Z</time>
      </trkpt>
      <trkpt lat="43.41342" lon="3.69405">
        <ele>20.6</ele>
        <time>2025-06-17T09:20:20Z</time>
      </trkpt>
      <trkpt lat="43.41345" lon="3.69414">
        <ele>20.2</ele>
        <time>2025-06-17T09:20:21Z</time>
      </trkpt>
      <trkpt lat="43.41347" lon="3.69425">
        <ele>19.8</ele>
        <time>2025-06-17T09:20:22Z</time>
      </trkpt>
      <trkpt lat="43.41349" lon="3.69435">
        <ele>19.6</ele>
        <time>2025-06-17T09:20:23Z</time>
      </trkpt>
      <trkpt lat="43.41351" lon="3.69445">
        <ele>19.2</ele>
        <time>2025-06-17T09:20:24Z</time>
      </trkpt>
      <trkpt lat="43.41353" lon="3.69455">
        <ele>18.8</ele>
        <time>2025-06-17T09:20:25Z</time>
      </trkpt>
      <trkpt lat="43.41356" lon="3.69465">
        <ele>18.4</ele>
        <time>2025-06-17T09:20:26Z</time>
      </trkpt>
      <trkpt lat="43.4136" lon="3.69475">
        <ele>18</ele>
        <time>2025-06-17T09:20:27Z</time>
      </trkpt>
      <trkpt lat="43.41363" lon="3.69485">
        <ele>17.8</ele>
        <time>2025-06-17T09:20:28Z</time>
      </trkpt>
      <trkpt lat="43.41365" lon="3.69495">
        <ele>17.6</ele>
        <time>2025-06-17T09:20:29Z</time>
      </trkpt>
      <trkpt lat="43.41368" lon="3.69504">
        <ele>17.4</ele>
        <time>2025-06-17T09:20:30Z</time>
      </trkpt>
      <trkpt lat="43.41369" lon="3.69513">
        <ele>17.2</ele>
        <time>2025-06-17T09:20:31Z</time>
      </trkpt>
      <trkpt lat="43.41372" lon="3.69522">
        <ele>17.2</ele>
        <time>2025-06-17T09:20:32Z</time>
      </trkpt>
      <trkpt lat="43.41374" lon="3.69531">
        <ele>17.2</ele>
        <time>2025-06-17T09:20:33Z</time>
      </trkpt>
      <trkpt lat="43.41375" lon="3.69539">
        <ele>17.2</ele>
        <time>2025-06-17T09:20:34Z</time>
      </trkpt>
      <trkpt lat="43.41377" lon="3.69548">
        <ele>17.2</ele>
        <time>2025-06-17T09:20:35Z</time>
      </trkpt>
      <trkpt lat="43.41378" lon="3.69557">
        <ele>17</ele>
        <time>2025-06-17T09:20:36Z</time>
      </trkpt>
      <trkpt lat="43.4138" lon="3.69566">
        <ele>17.2</ele>
        <time>2025-06-17T09:20:37Z</time>
      </trkpt>
      <trkpt lat="43.41382" lon="3.69575">
        <ele>17.2</ele>
        <time>2025-06-17T09:20:38Z</time>
      </trkpt>
      <trkpt lat="43.41384" lon="3.69584">
        <ele>17.2</ele>
        <time>2025-06-17T09:20:39Z</time>
      </trkpt>
      <trkpt lat="43.41385" lon="3.69593">
        <ele>17.2</ele>
        <time>2025-06-17T09:20:40Z</time>
      </trkpt>
      <trkpt lat="43.41387" lon="3.69601">
        <ele>17.2</ele>
        <time>2025-06-17T09:20:41Z</time>
      </trkpt>
      <trkpt lat="43.41388" lon="3.69611">
        <ele>17.2</ele>
        <time>2025-06-17T09:20:42Z</time>
      </trkpt>
      <trkpt lat="43.4139" lon="3.6962">
        <ele>17.2</ele>
        <time>2025-06-17T09:20:43Z</time>
      </trkpt>
      <trkpt lat="43.41391" lon="3.69628">
        <ele>17.2</ele>
        <time>2025-06-17T09:20:44Z</time>
      </trkpt>
      <trkpt lat="43.41393" lon="3.69637">
        <ele>17.2</ele>
        <time>2025-06-17T09:20:45Z</time>
      </trkpt>
      <trkpt lat="43.41395" lon="3.69646">
        <ele>17.2</ele>
        <time>2025-06-17T09:20:46Z</time>
      </trkpt>
      <trkpt lat="43.41397" lon="3.69654">
        <ele>17</ele>
        <time>2025-06-17T09:20:47Z</time>
      </trkpt>
      <trkpt lat="43.41399" lon="3.69662">
        <ele>17</ele>
        <time>2025-06-17T09:20:48Z</time>
      </trkpt>
      <trkpt lat="43.41401" lon="3.69671">
        <ele>17</ele>
        <time>2025-06-17T09:20:49Z</time>
      </trkpt>
      <trkpt lat="43.41403" lon="3.69679">
        <ele>17.2</ele>
        <time>2025-06-17T09:20:50Z</time>
      </trkpt>
      <trkpt lat="43.41405" lon="3.69688">
        <ele>17</ele>
        <time>2025-06-17T09:20:51Z</time>
      </trkpt>
      <trkpt lat="43.41407" lon="3.69696">
        <ele>17</ele>
        <time>2025-06-17T09:20:52Z</time>
      </trkpt>
      <trkpt lat="43.41408" lon="3.69704">
        <ele>17</ele>
        <time>2025-06-17T09:20:53Z</time>
      </trkpt>
      <trkpt lat="43.4141" lon="3.69713">
        <ele>17</ele>
        <time>2025-06-17T09:20:54Z</time>
      </trkpt>
      <trkpt lat="43.41411" lon="3.69721">
        <ele>17</ele>
        <time>2025-06-17T09:20:55Z</time>
      </trkpt>
      <trkpt lat="43.41413" lon="3.69729">
        <ele>17</ele>
        <time>2025-06-17T09:20:56Z</time>
      </trkpt>
      <trkpt lat="43.41415" lon="3.69737">
        <ele>17</ele>
        <time>2025-06-17T09:20:57Z</time>
      </trkpt>
      <trkpt lat="43.41417" lon="3.69745">
        <ele>17</ele>
        <time>2025-06-17T09:20:58Z</time>
      </trkpt>
      <trkpt lat="43.41419" lon="3.69754">
        <ele>17.2</ele>
        <time>2025-06-17T09:20:59Z</time>
      </trkpt>
      <trkpt lat="43.41421" lon="3.69763">
        <ele>17.2</ele>
        <time>2025-06-17T09:21:00Z</time>
      </trkpt>
      <trkpt lat="43.41423" lon="3.69772">
        <ele>17.2</ele>
        <time>2025-06-17T09:21:01Z</time>
      </trkpt>
      <trkpt lat="43.41425" lon="3.69782">
        <ele>17.2</ele>
        <time>2025-06-17T09:21:02Z</time>
      </trkpt>
      <trkpt lat="43.41426" lon="3.69791">
        <ele>17.2</ele>
        <time>2025-06-17T09:21:03Z</time>
      </trkpt>
      <trkpt lat="43.41427" lon="3.698">
        <ele>17.2</ele>
        <time>2025-06-17T09:21:04Z</time>
      </trkpt>
      <trkpt lat="43.41429" lon="3.69809">
        <ele>17.2</ele>
        <time>2025-06-17T09:21:05Z</time>
      </trkpt>
      <trkpt lat="43.41431" lon="3.69818">
        <ele>17.4</ele>
        <time>2025-06-17T09:21:06Z</time>
      </trkpt>
      <trkpt lat="43.41433" lon="3.69827">
        <ele>17.4</ele>
        <time>2025-06-17T09:21:07Z</time>
      </trkpt>
      <trkpt lat="43.41435" lon="3.69836">
        <ele>17.4</ele>
        <time>2025-06-17T09:21:08Z</time>
      </trkpt>
      <trkpt lat="43.41437" lon="3.69845">
        <ele>17.4</ele>
        <time>2025-06-17T09:21:09Z</time>
      </trkpt>
      <trkpt lat="43.41439" lon="3.69855">
        <ele>17.6</ele>
        <time>2025-06-17T09:21:10Z</time>
      </trkpt>
      <trkpt lat="43.41441" lon="3.69864">
        <ele>17.6</ele>
        <time>2025-06-17T09:21:11Z</time>
      </trkpt>
      <trkpt lat="43.41443" lon="3.69874">
        <ele>17.6</ele>
        <time>2025-06-17T09:21:12Z</time>
      </trkpt>
      <trkpt lat="43.41445" lon="3.69883">
        <ele>17.6</ele>
        <time>2025-06-17T09:21:13Z</time>
      </trkpt>
      <trkpt lat="43.41447" lon="3.69892">
        <ele>17.6</ele>
        <time>2025-06-17T09:21:14Z</time>
      </trkpt>
      <trkpt lat="43.41449" lon="3.69902">
        <ele>17.6</ele>
        <time>2025-06-17T09:21:15Z</time>
      </trkpt>
      <trkpt lat="43.41451" lon="3.69911">
        <ele>17.6</ele>
        <time>2025-06-17T09:21:16Z</time>
      </trkpt>
      <trkpt lat="43.41453" lon="3.6992">
        <ele>17.6</ele>
        <time>2025-06-17T09:21:17Z</time>
      </trkpt>
      <trkpt lat="43.41454" lon="3.69929">
        <ele>17.4</ele>
        <time>2025-06-17T09:21:18Z</time>
      </trkpt>
      <trkpt lat="43.41456" lon="3.69938">
        <ele>17.4</ele>
        <time>2025-06-17T09:21:19Z</time>
      </trkpt>
      <trkpt lat="43.41458" lon="3.69947">
        <ele>17.4</ele>
        <time>2025-06-17T09:21:20Z</time>
      </trkpt>
      <trkpt lat="43.4146" lon="3.69957">
        <ele>17.4</ele>
        <time>2025-06-17T09:21:21Z</time>
      </trkpt>
      <trkpt lat="43.41462" lon="3.69966">
        <ele>17.4</ele>
        <time>2025-06-17T09:21:22Z</time>
      </trkpt>
      <trkpt lat="43.41463" lon="3.69976">
        <ele>17.4</ele>
        <time>2025-06-17T09:21:23Z</time>
      </trkpt>
      <trkpt lat="43.41466" lon="3.69985">
        <ele>17.4</ele>
        <time>2025-06-17T09:21:24Z</time>
      </trkpt>
      <trkpt lat="43.41468" lon="3.69994">
        <ele>17.4</ele>
        <time>2025-06-17T09:21:25Z</time>
      </trkpt>
      <trkpt lat="43.41471" lon="3.70002">
        <ele>17.6</ele>
        <time>2025-06-17T09:21:26Z</time>
      </trkpt>
      <trkpt lat="43.41473" lon="3.7001">
        <ele>17.4</ele>
        <time>2025-06-17T09:21:27Z</time>
      </trkpt>
      <trkpt lat="43.41474" lon="3.70018">
        <ele>17.4</ele>
        <time>2025-06-17T09:21:28Z</time>
      </trkpt>
      <trkpt lat="43.41476" lon="3.70026">
        <ele>17.4</ele>
        <time>2025-06-17T09:21:29Z</time>
      </trkpt>
      <trkpt lat="43.41478" lon="3.70034">
        <ele>17.4</ele>
        <time>2025-06-17T09:21:30Z</time>
      </trkpt>
      <trkpt lat="43.41479" lon="3.70043">
        <ele>17.4</ele>
        <time>2025-06-17T09:21:31Z</time>
      </trkpt>
      <trkpt lat="43.41481" lon="3.70052">
        <ele>17.4</ele>
        <time>2025-06-17T09:21:32Z</time>
      </trkpt>
      <trkpt lat="43.41482" lon="3.7006">
        <ele>17.4</ele>
        <time>2025-06-17T09:21:33Z</time>
      </trkpt>
      <trkpt lat="43.41483" lon="3.70069">
        <ele>17.4</ele>
        <time>2025-06-17T09:21:34Z</time>
      </trkpt>
      <trkpt lat="43.41485" lon="3.70077">
        <ele>17.4</ele>
        <time>2025-06-17T09:21:35Z</time>
      </trkpt>
      <trkpt lat="43.41486" lon="3.70085">
        <ele>17.2</ele>
        <time>2025-06-17T09:21:36Z</time>
      </trkpt>
      <trkpt lat="43.41488" lon="3.70093">
        <ele>17.2</ele>
        <time>2025-06-17T09:21:37Z</time>
      </trkpt>
      <trkpt lat="43.4149" lon="3.70102">
        <ele>17.2</ele>
        <time>2025-06-17T09:21:38Z</time>
      </trkpt>
      <trkpt lat="43.41491" lon="3.7011">
        <ele>17.2</ele>
        <time>2025-06-17T09:21:39Z</time>
      </trkpt>
      <trkpt lat="43.41493" lon="3.70119">
        <ele>17.2</ele>
        <time>2025-06-17T09:21:40Z</time>
      </trkpt>
      <trkpt lat="43.41494" lon="3.70128">
        <ele>17.4</ele>
        <time>2025-06-17T09:21:41Z</time>
      </trkpt>
      <trkpt lat="43.41496" lon="3.70136">
        <ele>17.4</ele>
        <time>2025-06-17T09:21:42Z</time>
      </trkpt>
      <trkpt lat="43.41498" lon="3.70145">
        <ele>17.4</ele>
        <time>2025-06-17T09:21:43Z</time>
      </trkpt>
      <trkpt lat="43.41499" lon="3.70154">
        <ele>17.4</ele>
        <time>2025-06-17T09:21:44Z</time>
      </trkpt>
      <trkpt lat="43.41501" lon="3.70162">
        <ele>17.4</ele>
        <time>2025-06-17T09:21:45Z</time>
      </trkpt>
      <trkpt lat="43.41502" lon="3.7017">
        <ele>17.4</ele>
        <time>2025-06-17T09:21:46Z</time>
      </trkpt>
      <trkpt lat="43.41504" lon="3.7018">
        <ele>17.4</ele>
        <time>2025-06-17T09:21:47Z</time>
      </trkpt>
      <trkpt lat="43.41506" lon="3.70188">
        <ele>17.4</ele>
        <time>2025-06-17T09:21:48Z</time>
      </trkpt>
      <trkpt lat="43.41508" lon="3.70196">
        <ele>17.4</ele>
        <time>2025-06-17T09:21:49Z</time>
      </trkpt>
      <trkpt lat="43.4151" lon="3.70205">
        <ele>17.4</ele>
        <time>2025-06-17T09:21:50Z</time>
      </trkpt>
      <trkpt lat="43.41511" lon="3.70213">
        <ele>17.4</ele>
        <time>2025-06-17T09:21:51Z</time>
      </trkpt>
      <trkpt lat="43.41513" lon="3.70222">
        <ele>17.6</ele>
        <time>2025-06-17T09:21:52Z</time>
      </trkpt>
      <trkpt lat="43.41516" lon="3.7023">
        <ele>17.6</ele>
        <time>2025-06-17T09:21:53Z</time>
      </trkpt>
      <trkpt lat="43.41517" lon="3.70239">
        <ele>17.6</ele>
        <time>2025-06-17T09:21:54Z</time>
      </trkpt>
      <trkpt lat="43.41519" lon="3.70247">
        <ele>17.6</ele>
        <time>2025-06-17T09:21:55Z</time>
      </trkpt>
      <trkpt lat="43.41521" lon="3.70256">
        <ele>17.6</ele>
        <time>2025-06-17T09:21:56Z</time>
      </trkpt>
      <trkpt lat="43.41523" lon="3.70264">
        <ele>17.6</ele>
        <time>2025-06-17T09:21:57Z</time>
      </trkpt>
      <trkpt lat="43.41525" lon="3.70273">
        <ele>17.6</ele>
        <time>2025-06-17T09:21:58Z</time>
      </trkpt>
      <trkpt lat="43.41526" lon="3.70281">
        <ele>17.6</ele>
        <time>2025-06-17T09:21:59Z</time>
      </trkpt>
      <trkpt lat="43.41528" lon="3.7029">
        <ele>17.6</ele>
        <time>2025-06-17T09:22:00Z</time>
      </trkpt>
      <trkpt lat="43.41529" lon="3.70297">
        <ele>17.4</ele>
        <time>2025-06-17T09:22:01Z</time>
      </trkpt>
      <trkpt lat="43.41531" lon="3.70306">
        <ele>17.6</ele>
        <time>2025-06-17T09:22:02Z</time>
      </trkpt>
      <trkpt lat="43.41533" lon="3.70313">
        <ele>17.6</ele>
        <time>2025-06-17T09:22:03Z</time>
      </trkpt>
      <trkpt lat="43.41533" lon="3.70321">
        <ele>17.6</ele>
        <time>2025-06-17T09:22:04Z</time>
      </trkpt>
      <trkpt lat="43.41532" lon="3.70328">
        <ele>17.6</ele>
        <time>2025-06-17T09:22:05Z</time>
      </trkpt>
      <trkpt lat="43.41531" lon="3.70334">
        <ele>17.6</ele>
        <time>2025-06-17T09:22:06Z</time>
      </trkpt>
      <trkpt lat="43.41528" lon="3.70339">
        <ele>17.6</ele>
        <time>2025-06-17T09:22:07Z</time>
      </trkpt>
      <trkpt lat="43.41525" lon="3.70345">
        <ele>17.6</ele>
        <time>2025-06-17T09:22:08Z</time>
      </trkpt>
      <trkpt lat="43.41522" lon="3.70351">
        <ele>17.6</ele>
        <time>2025-06-17T09:22:09Z</time>
      </trkpt>
      <trkpt lat="43.41521" lon="3.70357">
        <ele>17.6</ele>
        <time>2025-06-17T09:22:10Z</time>
      </trkpt>
      <trkpt lat="43.4152" lon="3.70364">
        <ele>17.6</ele>
        <time>2025-06-17T09:22:11Z</time>
      </trkpt>
      <trkpt lat="43.4152" lon="3.70372">
        <ele>17.6</ele>
        <time>2025-06-17T09:22:12Z</time>
      </trkpt>
      <trkpt lat="43.4152" lon="3.7038">
        <ele>17.6</ele>
        <time>2025-06-17T09:22:13Z</time>
      </trkpt>
      <trkpt lat="43.41522" lon="3.70386">
        <ele>17.6</ele>
        <time>2025-06-17T09:22:14Z</time>
      </trkpt>
      <trkpt lat="43.41524" lon="3.70393">
        <ele>17.6</ele>
        <time>2025-06-17T09:22:15Z</time>
      </trkpt>
      <trkpt lat="43.41527" lon="3.704">
        <ele>17.6</ele>
        <time>2025-06-17T09:22:16Z</time>
      </trkpt>
      <trkpt lat="43.4153" lon="3.70407">
        <ele>17.6</ele>
        <time>2025-06-17T09:22:17Z</time>
      </trkpt>
      <trkpt lat="43.41533" lon="3.70414">
        <ele>17.6</ele>
        <time>2025-06-17T09:22:18Z</time>
      </trkpt>
      <trkpt lat="43.41535" lon="3.70422">
        <ele>17.6</ele>
        <time>2025-06-17T09:22:19Z</time>
      </trkpt>
      <trkpt lat="43.41537" lon="3.7043">
        <ele>17.6</ele>
        <time>2025-06-17T09:22:20Z</time>
      </trkpt>
      <trkpt lat="43.41539" lon="3.70437">
        <ele>17.6</ele>
        <time>2025-06-17T09:22:21Z</time>
      </trkpt>
      <trkpt lat="43.41541" lon="3.70446">
        <ele>17.6</ele>
        <time>2025-06-17T09:22:22Z</time>
      </trkpt>
      <trkpt lat="43.41544" lon="3.70454">
        <ele>17.6</ele>
        <time>2025-06-17T09:22:23Z</time>
      </trkpt>
      <trkpt lat="43.41546" lon="3.70462">
        <ele>17.6</ele>
        <time>2025-06-17T09:22:24Z</time>
      </trkpt>
      <trkpt lat="43.41548" lon="3.70469">
        <ele>17.8</ele>
        <time>2025-06-17T09:22:25Z</time>
      </trkpt>
      <trkpt lat="43.41551" lon="3.70477">
        <ele>17.8</ele>
        <time>2025-06-17T09:22:26Z</time>
      </trkpt>
      <trkpt lat="43.41553" lon="3.70485">
        <ele>17.8</ele>
        <time>2025-06-17T09:22:27Z</time>
      </trkpt>
      <trkpt lat="43.41556" lon="3.70493">
        <ele>17.8</ele>
        <time>2025-06-17T09:22:28Z</time>
      </trkpt>
      <trkpt lat="43.41558" lon="3.705">
        <ele>17.8</ele>
        <time>2025-06-17T09:22:29Z</time>
      </trkpt>
      <trkpt lat="43.41561" lon="3.70508">
        <ele>17.8</ele>
        <time>2025-06-17T09:22:30Z</time>
      </trkpt>
      <trkpt lat="43.41564" lon="3.70516">
        <ele>17.8</ele>
        <time>2025-06-17T09:22:31Z</time>
      </trkpt>
      <trkpt lat="43.41567" lon="3.70524">
        <ele>17.8</ele>
        <time>2025-06-17T09:22:32Z</time>
      </trkpt>
      <trkpt lat="43.4157" lon="3.70531">
        <ele>17.8</ele>
        <time>2025-06-17T09:22:33Z</time>
      </trkpt>
      <trkpt lat="43.41573" lon="3.70539">
        <ele>17.8</ele>
        <time>2025-06-17T09:22:34Z</time>
      </trkpt>
      <trkpt lat="43.41577" lon="3.70546">
        <ele>18</ele>
        <time>2025-06-17T09:22:35Z</time>
      </trkpt>
      <trkpt lat="43.4158" lon="3.70553">
        <ele>18</ele>
        <time>2025-06-17T09:22:36Z</time>
      </trkpt>
      <trkpt lat="43.41583" lon="3.7056">
        <ele>17.8</ele>
        <time>2025-06-17T09:22:37Z</time>
      </trkpt>
      <trkpt lat="43.41587" lon="3.70568">
        <ele>17.8</ele>
        <time>2025-06-17T09:22:38Z</time>
      </trkpt>
      <trkpt lat="43.4159" lon="3.70575">
        <ele>17.8</ele>
        <time>2025-06-17T09:22:39Z</time>
      </trkpt>
      <trkpt lat="43.41593" lon="3.70582">
        <ele>17.8</ele>
        <time>2025-06-17T09:22:40Z</time>
      </trkpt>
      <trkpt lat="43.41597" lon="3.70588">
        <ele>17.8</ele>
        <time>2025-06-17T09:22:41Z</time>
      </trkpt>
      <trkpt lat="43.416" lon="3.70595">
        <ele>17.8</ele>
        <time>2025-06-17T09:22:42Z</time>
      </trkpt>
      <trkpt lat="43.41602" lon="3.70602">
        <ele>17.8</ele>
        <time>2025-06-17T09:22:43Z</time>
      </trkpt>
      <trkpt lat="43.41605" lon="3.70609">
        <ele>17.8</ele>
        <time>2025-06-17T09:22:44Z</time>
      </trkpt>
      <trkpt lat="43.41607" lon="3.70615">
        <ele>18</ele>
        <time>2025-06-17T09:22:45Z</time>
      </trkpt>
      <trkpt lat="43.4161" lon="3.70621">
        <ele>18</ele>
        <time>2025-06-17T09:22:46Z</time>
      </trkpt>
      <trkpt lat="43.41612" lon="3.70626">
        <ele>18</ele>
        <time>2025-06-17T09:22:47Z</time>
      </trkpt>
      <trkpt lat="43.41613" lon="3.70631">
        <ele>18.2</ele>
        <time>2025-06-17T09:22:48Z</time>
      </trkpt>
      <trkpt lat="43.41614" lon="3.70634">
        <ele>18.2</ele>
        <time>2025-06-17T09:22:49Z</time>
      </trkpt>
      <trkpt lat="43.41614" lon="3.70636">
        <ele>18.2</ele>
        <time>2025-06-17T09:22:50Z</time>
      </trkpt>
      <trkpt lat="43.41615" lon="3.70638">
        <ele>18.2</ele>
        <time>2025-06-17T09:22:51Z</time>
      </trkpt>
      <trkpt lat="43.41616" lon="3.70639">
        <ele>18.2</ele>
        <time>2025-06-17T09:22:52Z</time>
      </trkpt>
      <trkpt lat="43.41616" lon="3.70641">
        <ele>18</ele>
        <time>2025-06-17T09:22:53Z</time>
      </trkpt>
      <trkpt lat="43.41617" lon="3.70644">
        <ele>18</ele>
        <time>2025-06-17T09:22:54Z</time>
      </trkpt>
      <trkpt lat="43.41618" lon="3.70646">
        <ele>18</ele>
        <time>2025-06-17T09:22:55Z</time>
      </trkpt>
      <trkpt lat="43.4162" lon="3.70648">
        <ele>18</ele>
        <time>2025-06-17T09:22:56Z</time>
      </trkpt>
      <trkpt lat="43.41623" lon="3.70648">
        <ele>18.2</ele>
        <time>2025-06-17T09:22:57Z</time>
      </trkpt>
      <trkpt lat="43.41626" lon="3.70648">
        <ele>18.2</ele>
        <time>2025-06-17T09:22:58Z</time>
      </trkpt>
      <trkpt lat="43.41629" lon="3.70649">
        <ele>18.2</ele>
        <time>2025-06-17T09:22:59Z</time>
      </trkpt>
      <trkpt lat="43.41632" lon="3.70652">
        <ele>18.2</ele>
        <time>2025-06-17T09:23:00Z</time>
      </trkpt>
      <trkpt lat="43.41636" lon="3.70657">
        <ele>18</ele>
        <time>2025-06-17T09:23:01Z</time>
      </trkpt>
      <trkpt lat="43.41639" lon="3.70662">
        <ele>18</ele>
        <time>2025-06-17T09:23:02Z</time>
      </trkpt>
      <trkpt lat="43.41642" lon="3.70669">
        <ele>18</ele>
        <time>2025-06-17T09:23:03Z</time>
      </trkpt>
      <trkpt lat="43.41646" lon="3.70675">
        <ele>18</ele>
        <time>2025-06-17T09:23:04Z</time>
      </trkpt>
      <trkpt lat="43.4165" lon="3.70682">
        <ele>18</ele>
        <time>2025-06-17T09:23:05Z</time>
      </trkpt>
      <trkpt lat="43.41654" lon="3.70689">
        <ele>18</ele>
        <time>2025-06-17T09:23:06Z</time>
      </trkpt>
      <trkpt lat="43.41658" lon="3.70695">
        <ele>18</ele>
        <time>2025-06-17T09:23:07Z</time>
      </trkpt>
      <trkpt lat="43.41663" lon="3.70702">
        <ele>17.8</ele>
        <time>2025-06-17T09:23:08Z</time>
      </trkpt>
      <trkpt lat="43.41667" lon="3.7071">
        <ele>17.8</ele>
        <time>2025-06-17T09:23:09Z</time>
      </trkpt>
      <trkpt lat="43.41671" lon="3.70717">
        <ele>17.8</ele>
        <time>2025-06-17T09:23:10Z</time>
      </trkpt>
      <trkpt lat="43.41675" lon="3.70725">
        <ele>17.8</ele>
        <time>2025-06-17T09:23:11Z</time>
      </trkpt>
      <trkpt lat="43.4168" lon="3.70732">
        <ele>17.8</ele>
        <time>2025-06-17T09:23:12Z</time>
      </trkpt>
      <trkpt lat="43.41685" lon="3.70739">
        <ele>17.8</ele>
        <time>2025-06-17T09:23:13Z</time>
      </trkpt>
      <trkpt lat="43.4169" lon="3.70746">
        <ele>17.8</ele>
        <time>2025-06-17T09:23:14Z</time>
      </trkpt>
      <trkpt lat="43.41695" lon="3.70753">
        <ele>17.8</ele>
        <time>2025-06-17T09:23:15Z</time>
      </trkpt>
      <trkpt lat="43.41701" lon="3.70759">
        <ele>17.8</ele>
        <time>2025-06-17T09:23:16Z</time>
      </trkpt>
      <trkpt lat="43.41706" lon="3.70765">
        <ele>17.8</ele>
        <time>2025-06-17T09:23:17Z</time>
      </trkpt>
      <trkpt lat="43.41712" lon="3.70771">
        <ele>17.6</ele>
        <time>2025-06-17T09:23:18Z</time>
      </trkpt>
      <trkpt lat="43.41718" lon="3.70777">
        <ele>17.8</ele>
        <time>2025-06-17T09:23:19Z</time>
      </trkpt>
      <trkpt lat="43.41723" lon="3.70783">
        <ele>17.8</ele>
        <time>2025-06-17T09:23:20Z</time>
      </trkpt>
      <trkpt lat="43.41729" lon="3.70789">
        <ele>17.8</ele>
        <time>2025-06-17T09:23:21Z</time>
      </trkpt>
      <trkpt lat="43.41735" lon="3.70796">
        <ele>17.8</ele>
        <time>2025-06-17T09:23:22Z</time>
      </trkpt>
      <trkpt lat="43.4174" lon="3.70802">
        <ele>17.8</ele>
        <time>2025-06-17T09:23:23Z</time>
      </trkpt>
      <trkpt lat="43.41746" lon="3.70807">
        <ele>17.8</ele>
        <time>2025-06-17T09:23:24Z</time>
      </trkpt>
      <trkpt lat="43.41752" lon="3.70813">
        <ele>18</ele>
        <time>2025-06-17T09:23:25Z</time>
      </trkpt>
      <trkpt lat="43.41758" lon="3.70818">
        <ele>18</ele>
        <time>2025-06-17T09:23:26Z</time>
      </trkpt>
      <trkpt lat="43.41764" lon="3.70823">
        <ele>18</ele>
        <time>2025-06-17T09:23:27Z</time>
      </trkpt>
      <trkpt lat="43.4177" lon="3.70828">
        <ele>17.8</ele>
        <time>2025-06-17T09:23:28Z</time>
      </trkpt>
      <trkpt lat="43.41776" lon="3.70833">
        <ele>17.8</ele>
        <time>2025-06-17T09:23:29Z</time>
      </trkpt>
      <trkpt lat="43.41783" lon="3.70838">
        <ele>17.8</ele>
        <time>2025-06-17T09:23:30Z</time>
      </trkpt>
      <trkpt lat="43.41789" lon="3.70842">
        <ele>18</ele>
        <time>2025-06-17T09:23:31Z</time>
      </trkpt>
      <trkpt lat="43.41796" lon="3.70846">
        <ele>18</ele>
        <time>2025-06-17T09:23:32Z</time>
      </trkpt>
      <trkpt lat="43.41803" lon="3.7085">
        <ele>18.2</ele>
        <time>2025-06-17T09:23:33Z</time>
      </trkpt>
      <trkpt lat="43.4181" lon="3.70853">
        <ele>18.2</ele>
        <time>2025-06-17T09:23:34Z</time>
      </trkpt>
      <trkpt lat="43.41816" lon="3.70857">
        <ele>18.2</ele>
        <time>2025-06-17T09:23:35Z</time>
      </trkpt>
      <trkpt lat="43.41823" lon="3.7086">
        <ele>18.2</ele>
        <time>2025-06-17T09:23:36Z</time>
      </trkpt>
      <trkpt lat="43.4183" lon="3.70864">
        <ele>18</ele>
        <time>2025-06-17T09:23:37Z</time>
      </trkpt>
      <trkpt lat="43.41837" lon="3.70867">
        <ele>18</ele>
        <time>2025-06-17T09:23:38Z</time>
      </trkpt>
      <trkpt lat="43.41845" lon="3.70871">
        <ele>18</ele>
        <time>2025-06-17T09:23:39Z</time>
      </trkpt>
      <trkpt lat="43.41851" lon="3.70875">
        <ele>17.8</ele>
        <time>2025-06-17T09:23:40Z</time>
      </trkpt>
      <trkpt lat="43.41858" lon="3.70878">
        <ele>17.8</ele>
        <time>2025-06-17T09:23:41Z</time>
      </trkpt>
      <trkpt lat="43.41865" lon="3.70882">
        <ele>18</ele>
        <time>2025-06-17T09:23:42Z</time>
      </trkpt>
      <trkpt lat="43.41872" lon="3.70885">
        <ele>18</ele>
        <time>2025-06-17T09:23:43Z</time>
      </trkpt>
      <trkpt lat="43.41879" lon="3.70888">
        <ele>18</ele>
        <time>2025-06-17T09:23:44Z</time>
      </trkpt>
      <trkpt lat="43.41886" lon="3.70891">
        <ele>18</ele>
        <time>2025-06-17T09:23:45Z</time>
      </trkpt>
      <trkpt lat="43.41893" lon="3.70894">
        <ele>18</ele>
        <time>2025-06-17T09:23:46Z</time>
      </trkpt>
      <trkpt lat="43.419" lon="3.70897">
        <ele>18.2</ele>
        <time>2025-06-17T09:23:47Z</time>
      </trkpt>
      <trkpt lat="43.41907" lon="3.709">
        <ele>18.2</ele>
        <time>2025-06-17T09:23:48Z</time>
      </trkpt>
      <trkpt lat="43.41913" lon="3.70902">
        <ele>18.2</ele>
        <time>2025-06-17T09:23:49Z</time>
      </trkpt>
      <trkpt lat="43.4192" lon="3.70905">
        <ele>18.2</ele>
        <time>2025-06-17T09:23:50Z</time>
      </trkpt>
      <trkpt lat="43.41928" lon="3.70907">
        <ele>18.2</ele>
        <time>2025-06-17T09:23:51Z</time>
      </trkpt>
      <trkpt lat="43.41935" lon="3.70909">
        <ele>18.2</ele>
        <time>2025-06-17T09:23:52Z</time>
      </trkpt>
      <trkpt lat="43.41942" lon="3.70911">
        <ele>18.4</ele>
        <time>2025-06-17T09:23:53Z</time>
      </trkpt>
      <trkpt lat="43.41949" lon="3.70913">
        <ele>18.4</ele>
        <time>2025-06-17T09:23:54Z</time>
      </trkpt>
      <trkpt lat="43.41956" lon="3.70915">
        <ele>18.4</ele>
        <time>2025-06-17T09:23:55Z</time>
      </trkpt>
      <trkpt lat="43.41963" lon="3.70918">
        <ele>18.4</ele>
        <time>2025-06-17T09:23:56Z</time>
      </trkpt>
      <trkpt lat="43.4197" lon="3.70919">
        <ele>18.4</ele>
        <time>2025-06-17T09:23:57Z</time>
      </trkpt>
      <trkpt lat="43.41977" lon="3.70921">
        <ele>18.4</ele>
        <time>2025-06-17T09:23:58Z</time>
      </trkpt>
      <trkpt lat="43.41984" lon="3.70922">
        <ele>18.6</ele>
        <time>2025-06-17T09:23:59Z</time>
      </trkpt>
      <trkpt lat="43.41991" lon="3.70924">
        <ele>18.6</ele>
        <time>2025-06-17T09:24:00Z</time>
      </trkpt>
      <trkpt lat="43.41998" lon="3.70925">
        <ele>18.4</ele>
        <time>2025-06-17T09:24:01Z</time>
      </trkpt>
      <trkpt lat="43.42006" lon="3.70927">
        <ele>18.4</ele>
        <time>2025-06-17T09:24:02Z</time>
      </trkpt>
      <trkpt lat="43.42013" lon="3.70928">
        <ele>18.4</ele>
        <time>2025-06-17T09:24:03Z</time>
      </trkpt>
      <trkpt lat="43.42021" lon="3.70929">
        <ele>18.4</ele>
        <time>2025-06-17T09:24:04Z</time>
      </trkpt>
      <trkpt lat="43.42028" lon="3.7093">
        <ele>18.4</ele>
        <time>2025-06-17T09:24:05Z</time>
      </trkpt>
      <trkpt lat="43.42035" lon="3.7093">
        <ele>18.4</ele>
        <time>2025-06-17T09:24:06Z</time>
      </trkpt>
      <trkpt lat="43.42043" lon="3.70931">
        <ele>18.4</ele>
        <time>2025-06-17T09:24:07Z</time>
      </trkpt>
      <trkpt lat="43.4205" lon="3.70932">
        <ele>18.6</ele>
        <time>2025-06-17T09:24:08Z</time>
      </trkpt>
      <trkpt lat="43.42057" lon="3.70932">
        <ele>18.6</ele>
        <time>2025-06-17T09:24:09Z</time>
      </trkpt>
      <trkpt lat="43.42065" lon="3.70933">
        <ele>18.6</ele>
        <time>2025-06-17T09:24:10Z</time>
      </trkpt>
      <trkpt lat="43.42072" lon="3.70933">
        <ele>18.6</ele>
        <time>2025-06-17T09:24:11Z</time>
      </trkpt>
      <trkpt lat="43.4208" lon="3.70933">
        <ele>18.4</ele>
        <time>2025-06-17T09:24:12Z</time>
      </trkpt>
      <trkpt lat="43.42087" lon="3.70933">
        <ele>18.4</ele>
        <time>2025-06-17T09:24:13Z</time>
      </trkpt>
      <trkpt lat="43.42094" lon="3.70933">
        <ele>18.6</ele>
        <time>2025-06-17T09:24:14Z</time>
      </trkpt>
      <trkpt lat="43.42102" lon="3.70932">
        <ele>18.6</ele>
        <time>2025-06-17T09:24:15Z</time>
      </trkpt>
      <trkpt lat="43.42109" lon="3.70932">
        <ele>18.6</ele>
        <time>2025-06-17T09:24:16Z</time>
      </trkpt>
      <trkpt lat="43.42116" lon="3.70932">
        <ele>18.6</ele>
        <time>2025-06-17T09:24:17Z</time>
      </trkpt>
      <trkpt lat="43.42123" lon="3.70931">
        <ele>18.6</ele>
        <time>2025-06-17T09:24:18Z</time>
      </trkpt>
      <trkpt lat="43.42131" lon="3.7093">
        <ele>18.6</ele>
        <time>2025-06-17T09:24:19Z</time>
      </trkpt>
      <trkpt lat="43.42138" lon="3.70929">
        <ele>18.8</ele>
        <time>2025-06-17T09:24:20Z</time>
      </trkpt>
      <trkpt lat="43.42145" lon="3.70927">
        <ele>18.8</ele>
        <time>2025-06-17T09:24:21Z</time>
      </trkpt>
      <trkpt lat="43.42151" lon="3.70925">
        <ele>18.8</ele>
        <time>2025-06-17T09:24:22Z</time>
      </trkpt>
      <trkpt lat="43.42158" lon="3.70924">
        <ele>19</ele>
        <time>2025-06-17T09:24:23Z</time>
      </trkpt>
      <trkpt lat="43.42165" lon="3.70922">
        <ele>19</ele>
        <time>2025-06-17T09:24:24Z</time>
      </trkpt>
      <trkpt lat="43.42172" lon="3.70919">
        <ele>19.2</ele>
        <time>2025-06-17T09:24:25Z</time>
      </trkpt>
      <trkpt lat="43.42179" lon="3.70917">
        <ele>19.4</ele>
        <time>2025-06-17T09:24:26Z</time>
      </trkpt>
      <trkpt lat="43.42185" lon="3.70914">
        <ele>19.4</ele>
        <time>2025-06-17T09:24:27Z</time>
      </trkpt>
      <trkpt lat="43.42191" lon="3.70911">
        <ele>19.6</ele>
        <time>2025-06-17T09:24:28Z</time>
      </trkpt>
      <trkpt lat="43.42198" lon="3.70908">
        <ele>19.8</ele>
        <time>2025-06-17T09:24:29Z</time>
      </trkpt>
      <trkpt lat="43.42205" lon="3.70905">
        <ele>20</ele>
        <time>2025-06-17T09:24:30Z</time>
      </trkpt>
      <trkpt lat="43.42211" lon="3.70902">
        <ele>20.4</ele>
        <time>2025-06-17T09:24:31Z</time>
      </trkpt>
      <trkpt lat="43.42218" lon="3.70899">
        <ele>20.4</ele>
        <time>2025-06-17T09:24:32Z</time>
      </trkpt>
      <trkpt lat="43.42224" lon="3.70896">
        <ele>20.6</ele>
        <time>2025-06-17T09:24:33Z</time>
      </trkpt>
      <trkpt lat="43.4223" lon="3.70894">
        <ele>21</ele>
        <time>2025-06-17T09:24:34Z</time>
      </trkpt>
      <trkpt lat="43.42237" lon="3.70891">
        <ele>21.2</ele>
        <time>2025-06-17T09:24:35Z</time>
      </trkpt>
      <trkpt lat="43.42243" lon="3.70889">
        <ele>21.4</ele>
        <time>2025-06-17T09:24:36Z</time>
      </trkpt>
      <trkpt lat="43.42249" lon="3.70886">
        <ele>21.6</ele>
        <time>2025-06-17T09:24:37Z</time>
      </trkpt>
      <trkpt lat="43.42255" lon="3.70883">
        <ele>21.8</ele>
        <time>2025-06-17T09:24:38Z</time>
      </trkpt>
      <trkpt lat="43.42261" lon="3.70881">
        <ele>22</ele>
        <time>2025-06-17T09:24:39Z</time>
      </trkpt>
      <trkpt lat="43.42267" lon="3.70879">
        <ele>22.2</ele>
        <time>2025-06-17T09:24:40Z</time>
      </trkpt>
      <trkpt lat="43.42273" lon="3.70876">
        <ele>22.4</ele>
        <time>2025-06-17T09:24:41Z</time>
      </trkpt>
      <trkpt lat="43.42278" lon="3.70874">
        <ele>22.6</ele>
        <time>2025-06-17T09:24:42Z</time>
      </trkpt>
      <trkpt lat="43.42284" lon="3.70871">
        <ele>22.8</ele>
        <time>2025-06-17T09:24:43Z</time>
      </trkpt>
      <trkpt lat="43.4229" lon="3.70869">
        <ele>22.8</ele>
        <time>2025-06-17T09:24:44Z</time>
      </trkpt>
      <trkpt lat="43.42296" lon="3.70866">
        <ele>23</ele>
        <time>2025-06-17T09:24:45Z</time>
      </trkpt>
      <trkpt lat="43.42302" lon="3.70863">
        <ele>23</ele>
        <time>2025-06-17T09:24:46Z</time>
      </trkpt>
      <trkpt lat="43.42307" lon="3.70861">
        <ele>23</ele>
        <time>2025-06-17T09:24:47Z</time>
      </trkpt>
      <trkpt lat="43.42313" lon="3.70859">
        <ele>23.2</ele>
        <time>2025-06-17T09:24:48Z</time>
      </trkpt>
      <trkpt lat="43.42319" lon="3.70856">
        <ele>23.2</ele>
        <time>2025-06-17T09:24:49Z</time>
      </trkpt>
      <trkpt lat="43.42325" lon="3.70854">
        <ele>23.2</ele>
        <time>2025-06-17T09:24:50Z</time>
      </trkpt>
      <trkpt lat="43.42331" lon="3.70851">
        <ele>23.2</ele>
        <time>2025-06-17T09:24:51Z</time>
      </trkpt>
      <trkpt lat="43.42337" lon="3.70849">
        <ele>23.2</ele>
        <time>2025-06-17T09:24:52Z</time>
      </trkpt>
      <trkpt lat="43.42343" lon="3.70847">
        <ele>23.2</ele>
        <time>2025-06-17T09:24:53Z</time>
      </trkpt>
      <trkpt lat="43.4235" lon="3.70844">
        <ele>23.2</ele>
        <time>2025-06-17T09:24:54Z</time>
      </trkpt>
      <trkpt lat="43.42356" lon="3.70843">
        <ele>23.2</ele>
        <time>2025-06-17T09:24:55Z</time>
      </trkpt>
      <trkpt lat="43.42362" lon="3.70842">
        <ele>23</ele>
        <time>2025-06-17T09:24:56Z</time>
      </trkpt>
      <trkpt lat="43.42369" lon="3.70842">
        <ele>23</ele>
        <time>2025-06-17T09:24:57Z</time>
      </trkpt>
      <trkpt lat="43.42375" lon="3.70841">
        <ele>23</ele>
        <time>2025-06-17T09:24:58Z</time>
      </trkpt>
      <trkpt lat="43.42382" lon="3.7084">
        <ele>22.8</ele>
        <time>2025-06-17T09:24:59Z</time>
      </trkpt>
      <trkpt lat="43.42388" lon="3.70838">
        <ele>22.6</ele>
        <time>2025-06-17T09:25:00Z</time>
      </trkpt>
      <trkpt lat="43.42394" lon="3.70837">
        <ele>22.6</ele>
        <time>2025-06-17T09:25:01Z</time>
      </trkpt>
      <trkpt lat="43.424" lon="3.70835">
        <ele>22.4</ele>
        <time>2025-06-17T09:25:02Z</time>
      </trkpt>
      <trkpt lat="43.42404" lon="3.70833">
        <ele>22.4</ele>
        <time>2025-06-17T09:25:03Z</time>
      </trkpt>
      <trkpt lat="43.42408" lon="3.70832">
        <ele>22.2</ele>
        <time>2025-06-17T09:25:04Z</time>
      </trkpt>
      <trkpt lat="43.42412" lon="3.70831">
        <ele>22.2</ele>
        <time>2025-06-17T09:25:05Z</time>
      </trkpt>
      <trkpt lat="43.42416" lon="3.70832">
        <ele>22</ele>
        <time>2025-06-17T09:25:06Z</time>
      </trkpt>
      <trkpt lat="43.42421" lon="3.70833">
        <ele>21.8</ele>
        <time>2025-06-17T09:25:07Z</time>
      </trkpt>
      <trkpt lat="43.42425" lon="3.70834">
        <ele>21.6</ele>
        <time>2025-06-17T09:25:08Z</time>
      </trkpt>
      <trkpt lat="43.4243" lon="3.70834">
        <ele>21.6</ele>
        <time>2025-06-17T09:25:09Z</time>
      </trkpt>
      <trkpt lat="43.42436" lon="3.70833">
        <ele>21.4</ele>
        <time>2025-06-17T09:25:10Z</time>
      </trkpt>
      <trkpt lat="43.42441" lon="3.70831">
        <ele>21.2</ele>
        <time>2025-06-17T09:25:11Z</time>
      </trkpt>
      <trkpt lat="43.42446" lon="3.70828">
        <ele>21.2</ele>
        <time>2025-06-17T09:25:12Z</time>
      </trkpt>
      <trkpt lat="43.42452" lon="3.70826">
        <ele>21</ele>
        <time>2025-06-17T09:25:13Z</time>
      </trkpt>
      <trkpt lat="43.42457" lon="3.70823">
        <ele>21</ele>
        <time>2025-06-17T09:25:14Z</time>
      </trkpt>
      <trkpt lat="43.42463" lon="3.70821">
        <ele>21</ele>
        <time>2025-06-17T09:25:15Z</time>
      </trkpt>
      <trkpt lat="43.42468" lon="3.70819">
        <ele>20.8</ele>
        <time>2025-06-17T09:25:16Z</time>
      </trkpt>
      <trkpt lat="43.42474" lon="3.70816">
        <ele>20.8</ele>
        <time>2025-06-17T09:25:17Z</time>
      </trkpt>
      <trkpt lat="43.4248" lon="3.70814">
        <ele>20.6</ele>
        <time>2025-06-17T09:25:18Z</time>
      </trkpt>
      <trkpt lat="43.42485" lon="3.70812">
        <ele>20.6</ele>
        <time>2025-06-17T09:25:19Z</time>
      </trkpt>
      <trkpt lat="43.4249" lon="3.7081">
        <ele>20.6</ele>
        <time>2025-06-17T09:25:20Z</time>
      </trkpt>
      <trkpt lat="43.42496" lon="3.70808">
        <ele>20.6</ele>
        <time>2025-06-17T09:25:21Z</time>
      </trkpt>
      <trkpt lat="43.42502" lon="3.70806">
        <ele>20.4</ele>
        <time>2025-06-17T09:25:22Z</time>
      </trkpt>
      <trkpt lat="43.42508" lon="3.70805">
        <ele>20.4</ele>
        <time>2025-06-17T09:25:23Z</time>
      </trkpt>
      <trkpt lat="43.42513" lon="3.70803">
        <ele>20.4</ele>
        <time>2025-06-17T09:25:24Z</time>
      </trkpt>
      <trkpt lat="43.42519" lon="3.70801">
        <ele>20.4</ele>
        <time>2025-06-17T09:25:25Z</time>
      </trkpt>
      <trkpt lat="43.42525" lon="3.70798">
        <ele>20.4</ele>
        <time>2025-06-17T09:25:26Z</time>
      </trkpt>
      <trkpt lat="43.42531" lon="3.70796">
        <ele>20.4</ele>
        <time>2025-06-17T09:25:27Z</time>
      </trkpt>
      <trkpt lat="43.42537" lon="3.70793">
        <ele>20.2</ele>
        <time>2025-06-17T09:25:28Z</time>
      </trkpt>
      <trkpt lat="43.42543" lon="3.70791">
        <ele>20.2</ele>
        <time>2025-06-17T09:25:29Z</time>
      </trkpt>
      <trkpt lat="43.42549" lon="3.70789">
        <ele>20.2</ele>
        <time>2025-06-17T09:25:30Z</time>
      </trkpt>
      <trkpt lat="43.42555" lon="3.70787">
        <ele>20.2</ele>
        <time>2025-06-17T09:25:31Z</time>
      </trkpt>
      <trkpt lat="43.42561" lon="3.70784">
        <ele>20</ele>
        <time>2025-06-17T09:25:32Z</time>
      </trkpt>
      <trkpt lat="43.42567" lon="3.70782">
        <ele>20</ele>
        <time>2025-06-17T09:25:33Z</time>
      </trkpt>
      <trkpt lat="43.42573" lon="3.70779">
        <ele>20</ele>
        <time>2025-06-17T09:25:34Z</time>
      </trkpt>
      <trkpt lat="43.42579" lon="3.70777">
        <ele>20</ele>
        <time>2025-06-17T09:25:35Z</time>
      </trkpt>
      <trkpt lat="43.42585" lon="3.70774">
        <ele>20</ele>
        <time>2025-06-17T09:25:36Z</time>
      </trkpt>
      <trkpt lat="43.42591" lon="3.70771">
        <ele>19.8</ele>
        <time>2025-06-17T09:25:37Z</time>
      </trkpt>
      <trkpt lat="43.42597" lon="3.70768">
        <ele>19.8</ele>
        <time>2025-06-17T09:25:38Z</time>
      </trkpt>
      <trkpt lat="43.42604" lon="3.70765">
        <ele>19.8</ele>
        <time>2025-06-17T09:25:39Z</time>
      </trkpt>
      <trkpt lat="43.4261" lon="3.70761">
        <ele>19.8</ele>
        <time>2025-06-17T09:25:40Z</time>
      </trkpt>
      <trkpt lat="43.42616" lon="3.70758">
        <ele>19.8</ele>
        <time>2025-06-17T09:25:41Z</time>
      </trkpt>
      <trkpt lat="43.42621" lon="3.70754">
        <ele>19.6</ele>
        <time>2025-06-17T09:25:42Z</time>
      </trkpt>
      <trkpt lat="43.42627" lon="3.70751">
        <ele>19.6</ele>
        <time>2025-06-17T09:25:43Z</time>
      </trkpt>
      <trkpt lat="43.42634" lon="3.70747">
        <ele>19.6</ele>
        <time>2025-06-17T09:25:44Z</time>
      </trkpt>
      <trkpt lat="43.4264" lon="3.70744">
        <ele>19.6</ele>
        <time>2025-06-17T09:25:45Z</time>
      </trkpt>
      <trkpt lat="43.42646" lon="3.7074">
        <ele>19.6</ele>
        <time>2025-06-17T09:25:46Z</time>
      </trkpt>
      <trkpt lat="43.42651" lon="3.70737">
        <ele>19.4</ele>
        <time>2025-06-17T09:25:47Z</time>
      </trkpt>
      <trkpt lat="43.42658" lon="3.70733">
        <ele>19.4</ele>
        <time>2025-06-17T09:25:48Z</time>
      </trkpt>
      <trkpt lat="43.42664" lon="3.7073">
        <ele>19.4</ele>
        <time>2025-06-17T09:25:49Z</time>
      </trkpt>
      <trkpt lat="43.4267" lon="3.70726">
        <ele>19.2</ele>
        <time>2025-06-17T09:25:50Z</time>
      </trkpt>
      <trkpt lat="43.42676" lon="3.70723">
        <ele>19.2</ele>
        <time>2025-06-17T09:25:51Z</time>
      </trkpt>
      <trkpt lat="43.42682" lon="3.70719">
        <ele>19.2</ele>
        <time>2025-06-17T09:25:52Z</time>
      </trkpt>
      <trkpt lat="43.42688" lon="3.70716">
        <ele>19.2</ele>
        <time>2025-06-17T09:25:53Z</time>
      </trkpt>
      <trkpt lat="43.42695" lon="3.70712">
        <ele>19.2</ele>
        <time>2025-06-17T09:25:54Z</time>
      </trkpt>
      <trkpt lat="43.42701" lon="3.70709">
        <ele>19.2</ele>
        <time>2025-06-17T09:25:55Z</time>
      </trkpt>
      <trkpt lat="43.42708" lon="3.70705">
        <ele>19.2</ele>
        <time>2025-06-17T09:25:56Z</time>
      </trkpt>
      <trkpt lat="43.42714" lon="3.70701">
        <ele>19.2</ele>
        <time>2025-06-17T09:25:57Z</time>
      </trkpt>
      <trkpt lat="43.42721" lon="3.70697">
        <ele>19.2</ele>
        <time>2025-06-17T09:25:58Z</time>
      </trkpt>
      <trkpt lat="43.42727" lon="3.70693">
        <ele>19.2</ele>
        <time>2025-06-17T09:25:59Z</time>
      </trkpt>
      <trkpt lat="43.42734" lon="3.7069">
        <ele>19</ele>
        <time>2025-06-17T09:26:00Z</time>
      </trkpt>
      <trkpt lat="43.4274" lon="3.70686">
        <ele>19</ele>
        <time>2025-06-17T09:26:01Z</time>
      </trkpt>
      <trkpt lat="43.42746" lon="3.70682">
        <ele>19</ele>
        <time>2025-06-17T09:26:02Z</time>
      </trkpt>
      <trkpt lat="43.42754" lon="3.70677">
        <ele>19</ele>
        <time>2025-06-17T09:26:03Z</time>
      </trkpt>
      <trkpt lat="43.4276" lon="3.70673">
        <ele>19</ele>
        <time>2025-06-17T09:26:04Z</time>
      </trkpt>
      <trkpt lat="43.42767" lon="3.7067">
        <ele>19</ele>
        <time>2025-06-17T09:26:05Z</time>
      </trkpt>
      <trkpt lat="43.42773" lon="3.70666">
        <ele>19</ele>
        <time>2025-06-17T09:26:06Z</time>
      </trkpt>
      <trkpt lat="43.4278" lon="3.70662">
        <ele>18.8</ele>
        <time>2025-06-17T09:26:07Z</time>
      </trkpt>
      <trkpt lat="43.42786" lon="3.70658">
        <ele>18.8</ele>
        <time>2025-06-17T09:26:08Z</time>
      </trkpt>
      <trkpt lat="43.42793" lon="3.70654">
        <ele>18.8</ele>
        <time>2025-06-17T09:26:09Z</time>
      </trkpt>
      <trkpt lat="43.42799" lon="3.7065">
        <ele>18.6</ele>
        <time>2025-06-17T09:26:10Z</time>
      </trkpt>
      <trkpt lat="43.42806" lon="3.70646">
        <ele>18.6</ele>
        <time>2025-06-17T09:26:11Z</time>
      </trkpt>
      <trkpt lat="43.42812" lon="3.70643">
        <ele>18.6</ele>
        <time>2025-06-17T09:26:12Z</time>
      </trkpt>
      <trkpt lat="43.42819" lon="3.70639">
        <ele>18.6</ele>
        <time>2025-06-17T09:26:13Z</time>
      </trkpt>
      <trkpt lat="43.42825" lon="3.70635">
        <ele>18.6</ele>
        <time>2025-06-17T09:26:14Z</time>
      </trkpt>
      <trkpt lat="43.42831" lon="3.70631">
        <ele>18.6</ele>
        <time>2025-06-17T09:26:15Z</time>
      </trkpt>
      <trkpt lat="43.42837" lon="3.70628">
        <ele>18.6</ele>
        <time>2025-06-17T09:26:16Z</time>
      </trkpt>
      <trkpt lat="43.42844" lon="3.70624">
        <ele>18.4</ele>
        <time>2025-06-17T09:26:17Z</time>
      </trkpt>
      <trkpt lat="43.4285" lon="3.70621">
        <ele>18.4</ele>
        <time>2025-06-17T09:26:18Z</time>
      </trkpt>
      <trkpt lat="43.42856" lon="3.70618">
        <ele>18.4</ele>
        <time>2025-06-17T09:26:19Z</time>
      </trkpt>
      <trkpt lat="43.42862" lon="3.70614">
        <ele>18.4</ele>
        <time>2025-06-17T09:26:20Z</time>
      </trkpt>
      <trkpt lat="43.42868" lon="3.70611">
        <ele>18.4</ele>
        <time>2025-06-17T09:26:21Z</time>
      </trkpt>
      <trkpt lat="43.42875" lon="3.70607">
        <ele>18.4</ele>
        <time>2025-06-17T09:26:22Z</time>
      </trkpt>
      <trkpt lat="43.42881" lon="3.70604">
        <ele>18.4</ele>
        <time>2025-06-17T09:26:23Z</time>
      </trkpt>
      <trkpt lat="43.42887" lon="3.706">
        <ele>18.6</ele>
        <time>2025-06-17T09:26:24Z</time>
      </trkpt>
      <trkpt lat="43.42893" lon="3.70596">
        <ele>18.6</ele>
        <time>2025-06-17T09:26:25Z</time>
      </trkpt>
      <trkpt lat="43.42899" lon="3.70593">
        <ele>18.6</ele>
        <time>2025-06-17T09:26:26Z</time>
      </trkpt>
      <trkpt lat="43.42904" lon="3.70589">
        <ele>18.6</ele>
        <time>2025-06-17T09:26:27Z</time>
      </trkpt>
      <trkpt lat="43.42911" lon="3.70586">
        <ele>18.8</ele>
        <time>2025-06-17T09:26:28Z</time>
      </trkpt>
      <trkpt lat="43.42917" lon="3.70582">
        <ele>18.8</ele>
        <time>2025-06-17T09:26:29Z</time>
      </trkpt>
      <trkpt lat="43.42922" lon="3.70578">
        <ele>18.8</ele>
        <time>2025-06-17T09:26:30Z</time>
      </trkpt>
      <trkpt lat="43.42928" lon="3.70575">
        <ele>18.8</ele>
        <time>2025-06-17T09:26:31Z</time>
      </trkpt>
      <trkpt lat="43.42935" lon="3.70571">
        <ele>18.8</ele>
        <time>2025-06-17T09:26:32Z</time>
      </trkpt>
      <trkpt lat="43.42941" lon="3.70568">
        <ele>18.8</ele>
        <time>2025-06-17T09:26:33Z</time>
      </trkpt>
      <trkpt lat="43.42946" lon="3.70565">
        <ele>18.8</ele>
        <time>2025-06-17T09:26:34Z</time>
      </trkpt>
      <trkpt lat="43.42953" lon="3.70561">
        <ele>18.8</ele>
        <time>2025-06-17T09:26:35Z</time>
      </trkpt>
      <trkpt lat="43.42958" lon="3.70557">
        <ele>18.8</ele>
        <time>2025-06-17T09:26:36Z</time>
      </trkpt>
      <trkpt lat="43.42965" lon="3.70554">
        <ele>18.8</ele>
        <time>2025-06-17T09:26:37Z</time>
      </trkpt>
      <trkpt lat="43.42971" lon="3.70551">
        <ele>19</ele>
        <time>2025-06-17T09:26:38Z</time>
      </trkpt>
      <trkpt lat="43.42977" lon="3.70548">
        <ele>19</ele>
        <time>2025-06-17T09:26:39Z</time>
      </trkpt>
      <trkpt lat="43.42983" lon="3.70544">
        <ele>19</ele>
        <time>2025-06-17T09:26:40Z</time>
      </trkpt>
      <trkpt lat="43.42988" lon="3.70541">
        <ele>19</ele>
        <time>2025-06-17T09:26:41Z</time>
      </trkpt>
      <trkpt lat="43.42994" lon="3.70537">
        <ele>19</ele>
        <time>2025-06-17T09:26:42Z</time>
      </trkpt>
      <trkpt lat="43.43" lon="3.70533">
        <ele>19</ele>
        <time>2025-06-17T09:26:43Z</time>
      </trkpt>
      <trkpt lat="43.43006" lon="3.7053">
        <ele>19</ele>
        <time>2025-06-17T09:26:44Z</time>
      </trkpt>
      <trkpt lat="43.43011" lon="3.70526">
        <ele>19</ele>
        <time>2025-06-17T09:26:45Z</time>
      </trkpt>
      <trkpt lat="43.43017" lon="3.70523">
        <ele>19</ele>
        <time>2025-06-17T09:26:46Z</time>
      </trkpt>
      <trkpt lat="43.43023" lon="3.70519">
        <ele>19</ele>
        <time>2025-06-17T09:26:47Z</time>
      </trkpt>
      <trkpt lat="43.4303" lon="3.70515">
        <ele>19</ele>
        <time>2025-06-17T09:26:48Z</time>
      </trkpt>
      <trkpt lat="43.43035" lon="3.70511">
        <ele>19</ele>
        <time>2025-06-17T09:26:49Z</time>
      </trkpt>
      <trkpt lat="43.43041" lon="3.70508">
        <ele>19</ele>
        <time>2025-06-17T09:26:50Z</time>
      </trkpt>
      <trkpt lat="43.43047" lon="3.70504">
        <ele>19</ele>
        <time>2025-06-17T09:26:51Z</time>
      </trkpt>
      <trkpt lat="43.43052" lon="3.705">
        <ele>19</ele>
        <time>2025-06-17T09:26:52Z</time>
      </trkpt>
      <trkpt lat="43.43058" lon="3.70495">
        <ele>19</ele>
        <time>2025-06-17T09:26:53Z</time>
      </trkpt>
      <trkpt lat="43.43064" lon="3.70491">
        <ele>19</ele>
        <time>2025-06-17T09:26:54Z</time>
      </trkpt>
      <trkpt lat="43.4307" lon="3.70487">
        <ele>18.8</ele>
        <time>2025-06-17T09:26:55Z</time>
      </trkpt>
      <trkpt lat="43.43076" lon="3.70482">
        <ele>18.8</ele>
        <time>2025-06-17T09:26:56Z</time>
      </trkpt>
      <trkpt lat="43.43081" lon="3.70477">
        <ele>18.8</ele>
        <time>2025-06-17T09:26:57Z</time>
      </trkpt>
      <trkpt lat="43.43087" lon="3.70472">
        <ele>18.8</ele>
        <time>2025-06-17T09:26:58Z</time>
      </trkpt>
      <trkpt lat="43.43092" lon="3.70467">
        <ele>18.8</ele>
        <time>2025-06-17T09:26:59Z</time>
      </trkpt>
      <trkpt lat="43.43098" lon="3.70463">
        <ele>18.8</ele>
        <time>2025-06-17T09:27:00Z</time>
      </trkpt>
      <trkpt lat="43.43103" lon="3.70458">
        <ele>18.8</ele>
        <time>2025-06-17T09:27:01Z</time>
      </trkpt>
      <trkpt lat="43.43109" lon="3.70452">
        <ele>18.8</ele>
        <time>2025-06-17T09:27:02Z</time>
      </trkpt>
      <trkpt lat="43.43114" lon="3.70447">
        <ele>18.8</ele>
        <time>2025-06-17T09:27:03Z</time>
      </trkpt>
      <trkpt lat="43.4312" lon="3.70441">
        <ele>18.8</ele>
        <time>2025-06-17T09:27:04Z</time>
      </trkpt>
      <trkpt lat="43.43125" lon="3.70435">
        <ele>18.6</ele>
        <time>2025-06-17T09:27:05Z</time>
      </trkpt>
      <trkpt lat="43.4313" lon="3.7043">
        <ele>18.6</ele>
        <time>2025-06-17T09:27:06Z</time>
      </trkpt>
      <trkpt lat="43.43136" lon="3.70425">
        <ele>18.6</ele>
        <time>2025-06-17T09:27:07Z</time>
      </trkpt>
      <trkpt lat="43.4314" lon="3.70419">
        <ele>18.6</ele>
        <time>2025-06-17T09:27:08Z</time>
      </trkpt>
      <trkpt lat="43.43145" lon="3.70414">
        <ele>18.6</ele>
        <time>2025-06-17T09:27:09Z</time>
      </trkpt>
      <trkpt lat="43.43151" lon="3.70409">
        <ele>18.6</ele>
        <time>2025-06-17T09:27:10Z</time>
      </trkpt>
      <trkpt lat="43.43156" lon="3.70404">
        <ele>18.6</ele>
        <time>2025-06-17T09:27:11Z</time>
      </trkpt>
      <trkpt lat="43.43161" lon="3.70399">
        <ele>18.6</ele>
        <time>2025-06-17T09:27:12Z</time>
      </trkpt>
      <trkpt lat="43.43166" lon="3.70393">
        <ele>18.6</ele>
        <time>2025-06-17T09:27:13Z</time>
      </trkpt>
      <trkpt lat="43.43171" lon="3.70388">
        <ele>18.6</ele>
        <time>2025-06-17T09:27:14Z</time>
      </trkpt>
      <trkpt lat="43.43176" lon="3.70383">
        <ele>18.6</ele>
        <time>2025-06-17T09:27:15Z</time>
      </trkpt>
      <trkpt lat="43.43181" lon="3.70378">
        <ele>18.6</ele>
        <time>2025-06-17T09:27:16Z</time>
      </trkpt>
      <trkpt lat="43.43186" lon="3.70373">
        <ele>18.6</ele>
        <time>2025-06-17T09:27:17Z</time>
      </trkpt>
      <trkpt lat="43.43191" lon="3.70368">
        <ele>18.6</ele>
        <time>2025-06-17T09:27:18Z</time>
      </trkpt>
      <trkpt lat="43.43197" lon="3.70363">
        <ele>18.6</ele>
        <time>2025-06-17T09:27:19Z</time>
      </trkpt>
      <trkpt lat="43.43201" lon="3.70358">
        <ele>18.6</ele>
        <time>2025-06-17T09:27:20Z</time>
      </trkpt>
      <trkpt lat="43.43206" lon="3.70353">
        <ele>18.6</ele>
        <time>2025-06-17T09:27:21Z</time>
      </trkpt>
      <trkpt lat="43.43212" lon="3.70348">
        <ele>18.6</ele>
        <time>2025-06-17T09:27:22Z</time>
      </trkpt>
      <trkpt lat="43.43217" lon="3.70344">
        <ele>18.6</ele>
        <time>2025-06-17T09:27:23Z</time>
      </trkpt>
      <trkpt lat="43.43222" lon="3.70339">
        <ele>18.6</ele>
        <time>2025-06-17T09:27:24Z</time>
      </trkpt>
      <trkpt lat="43.43227" lon="3.70335">
        <ele>18.6</ele>
        <time>2025-06-17T09:27:25Z</time>
      </trkpt>
      <trkpt lat="43.43233" lon="3.7033">
        <ele>18.6</ele>
        <time>2025-06-17T09:27:26Z</time>
      </trkpt>
      <trkpt lat="43.43239" lon="3.70325">
        <ele>18.6</ele>
        <time>2025-06-17T09:27:27Z</time>
      </trkpt>
      <trkpt lat="43.43244" lon="3.70321">
        <ele>18.6</ele>
        <time>2025-06-17T09:27:28Z</time>
      </trkpt>
      <trkpt lat="43.4325" lon="3.70317">
        <ele>18.6</ele>
        <time>2025-06-17T09:27:29Z</time>
      </trkpt>
      <trkpt lat="43.43255" lon="3.70313">
        <ele>18.6</ele>
        <time>2025-06-17T09:27:30Z</time>
      </trkpt>
      <trkpt lat="43.4326" lon="3.7031">
        <ele>18.6</ele>
        <time>2025-06-17T09:27:31Z</time>
      </trkpt>
      <trkpt lat="43.43266" lon="3.70305">
        <ele>18.6</ele>
        <time>2025-06-17T09:27:32Z</time>
      </trkpt>
      <trkpt lat="43.43271" lon="3.70302">
        <ele>18.6</ele>
        <time>2025-06-17T09:27:33Z</time>
      </trkpt>
      <trkpt lat="43.43277" lon="3.70298">
        <ele>18.6</ele>
        <time>2025-06-17T09:27:34Z</time>
      </trkpt>
      <trkpt lat="43.43283" lon="3.70295">
        <ele>18.6</ele>
        <time>2025-06-17T09:27:35Z</time>
      </trkpt>
      <trkpt lat="43.43288" lon="3.70292">
        <ele>18.6</ele>
        <time>2025-06-17T09:27:36Z</time>
      </trkpt>
      <trkpt lat="43.43294" lon="3.70289">
        <ele>18.6</ele>
        <time>2025-06-17T09:27:37Z</time>
      </trkpt>
      <trkpt lat="43.43299" lon="3.70285">
        <ele>18.6</ele>
        <time>2025-06-17T09:27:38Z</time>
      </trkpt>
      <trkpt lat="43.43305" lon="3.70282">
        <ele>18.6</ele>
        <time>2025-06-17T09:27:39Z</time>
      </trkpt>
      <trkpt lat="43.4331" lon="3.70279">
        <ele>18.6</ele>
        <time>2025-06-17T09:27:40Z</time>
      </trkpt>
      <trkpt lat="43.43315" lon="3.70276">
        <ele>18.6</ele>
        <time>2025-06-17T09:27:41Z</time>
      </trkpt>
      <trkpt lat="43.43321" lon="3.70273">
        <ele>18.6</ele>
        <time>2025-06-17T09:27:42Z</time>
      </trkpt>
      <trkpt lat="43.43326" lon="3.7027">
        <ele>18.6</ele>
        <time>2025-06-17T09:27:43Z</time>
      </trkpt>
      <trkpt lat="43.43331" lon="3.70268">
        <ele>18.6</ele>
        <time>2025-06-17T09:27:44Z</time>
      </trkpt>
      <trkpt lat="43.43336" lon="3.70266">
        <ele>18.6</ele>
        <time>2025-06-17T09:27:45Z</time>
      </trkpt>
      <trkpt lat="43.43341" lon="3.70264">
        <ele>18.6</ele>
        <time>2025-06-17T09:27:46Z</time>
      </trkpt>
      <trkpt lat="43.43346" lon="3.70262">
        <ele>18.8</ele>
        <time>2025-06-17T09:27:47Z</time>
      </trkpt>
      <trkpt lat="43.4335" lon="3.7026">
        <ele>18.8</ele>
        <time>2025-06-17T09:27:48Z</time>
      </trkpt>
      <trkpt lat="43.43355" lon="3.70258">
        <ele>18.8</ele>
        <time>2025-06-17T09:27:49Z</time>
      </trkpt>
      <trkpt lat="43.43359" lon="3.70255">
        <ele>18.8</ele>
        <time>2025-06-17T09:27:50Z</time>
      </trkpt>
      <trkpt lat="43.43363" lon="3.70252">
        <ele>18.8</ele>
        <time>2025-06-17T09:27:51Z</time>
      </trkpt>
      <trkpt lat="43.43368" lon="3.70251">
        <ele>18.8</ele>
        <time>2025-06-17T09:27:52Z</time>
      </trkpt>
      <trkpt lat="43.43373" lon="3.70249">
        <ele>18.6</ele>
        <time>2025-06-17T09:27:53Z</time>
      </trkpt>
      <trkpt lat="43.43378" lon="3.70247">
        <ele>18.6</ele>
        <time>2025-06-17T09:27:54Z</time>
      </trkpt>
      <trkpt lat="43.43383" lon="3.70244">
        <ele>18.6</ele>
        <time>2025-06-17T09:27:55Z</time>
      </trkpt>
      <trkpt lat="43.43388" lon="3.70242">
        <ele>18.6</ele>
        <time>2025-06-17T09:27:56Z</time>
      </trkpt>
      <trkpt lat="43.43393" lon="3.70239">
        <ele>18.6</ele>
        <time>2025-06-17T09:27:57Z</time>
      </trkpt>
      <trkpt lat="43.43399" lon="3.70236">
        <ele>18.6</ele>
        <time>2025-06-17T09:27:58Z</time>
      </trkpt>
      <trkpt lat="43.43404" lon="3.70233">
        <ele>18.6</ele>
        <time>2025-06-17T09:27:59Z</time>
      </trkpt>
      <trkpt lat="43.4341" lon="3.70231">
        <ele>18.6</ele>
        <time>2025-06-17T09:28:00Z</time>
      </trkpt>
      <trkpt lat="43.43415" lon="3.70228">
        <ele>18.6</ele>
        <time>2025-06-17T09:28:01Z</time>
      </trkpt>
      <trkpt lat="43.43421" lon="3.70226">
        <ele>18.6</ele>
        <time>2025-06-17T09:28:02Z</time>
      </trkpt>
      <trkpt lat="43.43427" lon="3.70223">
        <ele>18.6</ele>
        <time>2025-06-17T09:28:03Z</time>
      </trkpt>
      <trkpt lat="43.43432" lon="3.70221">
        <ele>18.6</ele>
        <time>2025-06-17T09:28:04Z</time>
      </trkpt>
      <trkpt lat="43.43438" lon="3.70218">
        <ele>18.6</ele>
        <time>2025-06-17T09:28:05Z</time>
      </trkpt>
      <trkpt lat="43.43443" lon="3.70215">
        <ele>18.6</ele>
        <time>2025-06-17T09:28:06Z</time>
      </trkpt>
      <trkpt lat="43.43449" lon="3.70212">
        <ele>18.6</ele>
        <time>2025-06-17T09:28:07Z</time>
      </trkpt>
      <trkpt lat="43.43454" lon="3.70209">
        <ele>18.6</ele>
        <time>2025-06-17T09:28:08Z</time>
      </trkpt>
      <trkpt lat="43.4346" lon="3.70206">
        <ele>18.6</ele>
        <time>2025-06-17T09:28:09Z</time>
      </trkpt>
      <trkpt lat="43.43465" lon="3.70204">
        <ele>18.6</ele>
        <time>2025-06-17T09:28:10Z</time>
      </trkpt>
      <trkpt lat="43.43471" lon="3.70201">
        <ele>18.6</ele>
        <time>2025-06-17T09:28:11Z</time>
      </trkpt>
      <trkpt lat="43.43477" lon="3.70198">
        <ele>18.6</ele>
        <time>2025-06-17T09:28:12Z</time>
      </trkpt>
      <trkpt lat="43.43483" lon="3.70195">
        <ele>18.6</ele>
        <time>2025-06-17T09:28:13Z</time>
      </trkpt>
      <trkpt lat="43.43488" lon="3.70192">
        <ele>18.6</ele>
        <time>2025-06-17T09:28:14Z</time>
      </trkpt>
      <trkpt lat="43.43494" lon="3.70189">
        <ele>18.6</ele>
        <time>2025-06-17T09:28:15Z</time>
      </trkpt>
      <trkpt lat="43.435" lon="3.70186">
        <ele>18.6</ele>
        <time>2025-06-17T09:28:16Z</time>
      </trkpt>
      <trkpt lat="43.43505" lon="3.70184">
        <ele>18.6</ele>
        <time>2025-06-17T09:28:17Z</time>
      </trkpt>
      <trkpt lat="43.43511" lon="3.70181">
        <ele>18.6</ele>
        <time>2025-06-17T09:28:18Z</time>
      </trkpt>
      <trkpt lat="43.43517" lon="3.70178">
        <ele>18.6</ele>
        <time>2025-06-17T09:28:19Z</time>
      </trkpt>
      <trkpt lat="43.43522" lon="3.70175">
        <ele>18.6</ele>
        <time>2025-06-17T09:28:20Z</time>
      </trkpt>
      <trkpt lat="43.43528" lon="3.70172">
        <ele>18.6</ele>
        <time>2025-06-17T09:28:21Z</time>
      </trkpt>
      <trkpt lat="43.43534" lon="3.70169">
        <ele>18.6</ele>
        <time>2025-06-17T09:28:22Z</time>
      </trkpt>
      <trkpt lat="43.4354" lon="3.70166">
        <ele>18.6</ele>
        <time>2025-06-17T09:28:23Z</time>
      </trkpt>
      <trkpt lat="43.43545" lon="3.70163">
        <ele>18.6</ele>
        <time>2025-06-17T09:28:24Z</time>
      </trkpt>
      <trkpt lat="43.43551" lon="3.70161">
        <ele>18.6</ele>
        <time>2025-06-17T09:28:25Z</time>
      </trkpt>
      <trkpt lat="43.43557" lon="3.70158">
        <ele>18.6</ele>
        <time>2025-06-17T09:28:26Z</time>
      </trkpt>
      <trkpt lat="43.43563" lon="3.70155">
        <ele>18.6</ele>
        <time>2025-06-17T09:28:27Z</time>
      </trkpt>
      <trkpt lat="43.43569" lon="3.70152">
        <ele>18.6</ele>
        <time>2025-06-17T09:28:28Z</time>
      </trkpt>
      <trkpt lat="43.43574" lon="3.7015">
        <ele>18.4</ele>
        <time>2025-06-17T09:28:29Z</time>
      </trkpt>
      <trkpt lat="43.43579" lon="3.70147">
        <ele>18.4</ele>
        <time>2025-06-17T09:28:30Z</time>
      </trkpt>
      <trkpt lat="43.43585" lon="3.70144">
        <ele>18.4</ele>
        <time>2025-06-17T09:28:31Z</time>
      </trkpt>
      <trkpt lat="43.43591" lon="3.70141">
        <ele>18.4</ele>
        <time>2025-06-17T09:28:32Z</time>
      </trkpt>
      <trkpt lat="43.43596" lon="3.70138">
        <ele>18.4</ele>
        <time>2025-06-17T09:28:33Z</time>
      </trkpt>
      <trkpt lat="43.43602" lon="3.70135">
        <ele>18.4</ele>
        <time>2025-06-17T09:28:34Z</time>
      </trkpt>
      <trkpt lat="43.43608" lon="3.70133">
        <ele>18.4</ele>
        <time>2025-06-17T09:28:35Z</time>
      </trkpt>
      <trkpt lat="43.43613" lon="3.7013">
        <ele>18.4</ele>
        <time>2025-06-17T09:28:36Z</time>
      </trkpt>
      <trkpt lat="43.43619" lon="3.70128">
        <ele>18.4</ele>
        <time>2025-06-17T09:28:37Z</time>
      </trkpt>
      <trkpt lat="43.43625" lon="3.70125">
        <ele>18.4</ele>
        <time>2025-06-17T09:28:38Z</time>
      </trkpt>
      <trkpt lat="43.4363" lon="3.70122">
        <ele>18.4</ele>
        <time>2025-06-17T09:28:39Z</time>
      </trkpt>
      <trkpt lat="43.43636" lon="3.70119">
        <ele>18.4</ele>
        <time>2025-06-17T09:28:40Z</time>
      </trkpt>
      <trkpt lat="43.43641" lon="3.70117">
        <ele>18.4</ele>
        <time>2025-06-17T09:28:41Z</time>
      </trkpt>
      <trkpt lat="43.43647" lon="3.70114">
        <ele>18.4</ele>
        <time>2025-06-17T09:28:42Z</time>
      </trkpt>
      <trkpt lat="43.43653" lon="3.70111">
        <ele>18.4</ele>
        <time>2025-06-17T09:28:43Z</time>
      </trkpt>
      <trkpt lat="43.43659" lon="3.70108">
        <ele>18.4</ele>
        <time>2025-06-17T09:28:44Z</time>
      </trkpt>
      <trkpt lat="43.43665" lon="3.70105">
        <ele>18.4</ele>
        <time>2025-06-17T09:28:45Z</time>
      </trkpt>
      <trkpt lat="43.4367" lon="3.70102">
        <ele>18.4</ele>
        <time>2025-06-17T09:28:46Z</time>
      </trkpt>
      <trkpt lat="43.43676" lon="3.70099">
        <ele>18.4</ele>
        <time>2025-06-17T09:28:47Z</time>
      </trkpt>
      <trkpt lat="43.43681" lon="3.70097">
        <ele>18.4</ele>
        <time>2025-06-17T09:28:48Z</time>
      </trkpt>
      <trkpt lat="43.43686" lon="3.70093">
        <ele>18.4</ele>
        <time>2025-06-17T09:28:49Z</time>
      </trkpt>
      <trkpt lat="43.43692" lon="3.7009">
        <ele>18.4</ele>
        <time>2025-06-17T09:28:50Z</time>
      </trkpt>
      <trkpt lat="43.43698" lon="3.70087">
        <ele>18.4</ele>
        <time>2025-06-17T09:28:51Z</time>
      </trkpt>
      <trkpt lat="43.43704" lon="3.70085">
        <ele>18.4</ele>
        <time>2025-06-17T09:28:52Z</time>
      </trkpt>
      <trkpt lat="43.4371" lon="3.70082">
        <ele>18.4</ele>
        <time>2025-06-17T09:28:53Z</time>
      </trkpt>
      <trkpt lat="43.43715" lon="3.7008">
        <ele>18.4</ele>
        <time>2025-06-17T09:28:54Z</time>
      </trkpt>
      <trkpt lat="43.43721" lon="3.70077">
        <ele>18.4</ele>
        <time>2025-06-17T09:28:55Z</time>
      </trkpt>
      <trkpt lat="43.43726" lon="3.70074">
        <ele>18.4</ele>
        <time>2025-06-17T09:28:56Z</time>
      </trkpt>
      <trkpt lat="43.43732" lon="3.70071">
        <ele>18.4</ele>
        <time>2025-06-17T09:28:57Z</time>
      </trkpt>
      <trkpt lat="43.43738" lon="3.70068">
        <ele>18.4</ele>
        <time>2025-06-17T09:28:58Z</time>
      </trkpt>
      <trkpt lat="43.43743" lon="3.70066">
        <ele>18.4</ele>
        <time>2025-06-17T09:28:59Z</time>
      </trkpt>
      <trkpt lat="43.43749" lon="3.70063">
        <ele>18.4</ele>
        <time>2025-06-17T09:29:00Z</time>
      </trkpt>
      <trkpt lat="43.43754" lon="3.70061">
        <ele>18.4</ele>
        <time>2025-06-17T09:29:01Z</time>
      </trkpt>
      <trkpt lat="43.4376" lon="3.70058">
        <ele>18.4</ele>
        <time>2025-06-17T09:29:02Z</time>
      </trkpt>
      <trkpt lat="43.43766" lon="3.70055">
        <ele>18.4</ele>
        <time>2025-06-17T09:29:03Z</time>
      </trkpt>
      <trkpt lat="43.43771" lon="3.70052">
        <ele>18.4</ele>
        <time>2025-06-17T09:29:04Z</time>
      </trkpt>
      <trkpt lat="43.43778" lon="3.70049">
        <ele>18.4</ele>
        <time>2025-06-17T09:29:05Z</time>
      </trkpt>
      <trkpt lat="43.43783" lon="3.70046">
        <ele>18.4</ele>
        <time>2025-06-17T09:29:06Z</time>
      </trkpt>
      <trkpt lat="43.43789" lon="3.70043">
        <ele>18.4</ele>
        <time>2025-06-17T09:29:07Z</time>
      </trkpt>
      <trkpt lat="43.43795" lon="3.7004">
        <ele>18.4</ele>
        <time>2025-06-17T09:29:08Z</time>
      </trkpt>
      <trkpt lat="43.438" lon="3.70037">
        <ele>18.4</ele>
        <time>2025-06-17T09:29:09Z</time>
      </trkpt>
      <trkpt lat="43.43806" lon="3.70034">
        <ele>18.2</ele>
        <time>2025-06-17T09:29:10Z</time>
      </trkpt>
      <trkpt lat="43.43812" lon="3.70031">
        <ele>18.4</ele>
        <time>2025-06-17T09:29:11Z</time>
      </trkpt>
      <trkpt lat="43.43818" lon="3.70029">
        <ele>18.2</ele>
        <time>2025-06-17T09:29:12Z</time>
      </trkpt>
      <trkpt lat="43.43823" lon="3.70026">
        <ele>18.4</ele>
        <time>2025-06-17T09:29:13Z</time>
      </trkpt>
      <trkpt lat="43.43829" lon="3.70023">
        <ele>18.4</ele>
        <time>2025-06-17T09:29:14Z</time>
      </trkpt>
      <trkpt lat="43.43835" lon="3.7002">
        <ele>18.4</ele>
        <time>2025-06-17T09:29:15Z</time>
      </trkpt>
      <trkpt lat="43.43841" lon="3.70018">
        <ele>18.4</ele>
        <time>2025-06-17T09:29:16Z</time>
      </trkpt>
      <trkpt lat="43.43847" lon="3.70015">
        <ele>18.4</ele>
        <time>2025-06-17T09:29:17Z</time>
      </trkpt>
      <trkpt lat="43.43853" lon="3.70012">
        <ele>18.4</ele>
        <time>2025-06-17T09:29:18Z</time>
      </trkpt>
      <trkpt lat="43.43858" lon="3.70009">
        <ele>18.4</ele>
        <time>2025-06-17T09:29:19Z</time>
      </trkpt>
      <trkpt lat="43.43864" lon="3.70006">
        <ele>18.4</ele>
        <time>2025-06-17T09:29:20Z</time>
      </trkpt>
      <trkpt lat="43.4387" lon="3.70003">
        <ele>18.4</ele>
        <time>2025-06-17T09:29:21Z</time>
      </trkpt>
      <trkpt lat="43.43876" lon="3.7">
        <ele>18.4</ele>
        <time>2025-06-17T09:29:22Z</time>
      </trkpt>
      <trkpt lat="43.43881" lon="3.69997">
        <ele>18.4</ele>
        <time>2025-06-17T09:29:23Z</time>
      </trkpt>
      <trkpt lat="43.43888" lon="3.69994">
        <ele>18.4</ele>
        <time>2025-06-17T09:29:24Z</time>
      </trkpt>
      <trkpt lat="43.43893" lon="3.69991">
        <ele>18.4</ele>
        <time>2025-06-17T09:29:25Z</time>
      </trkpt>
      <trkpt lat="43.43899" lon="3.69988">
        <ele>18.6</ele>
        <time>2025-06-17T09:29:26Z</time>
      </trkpt>
      <trkpt lat="43.43905" lon="3.69985">
        <ele>18.6</ele>
        <time>2025-06-17T09:29:27Z</time>
      </trkpt>
      <trkpt lat="43.4391" lon="3.69982">
        <ele>18.6</ele>
        <time>2025-06-17T09:29:28Z</time>
      </trkpt>
      <trkpt lat="43.43916" lon="3.69979">
        <ele>18.6</ele>
        <time>2025-06-17T09:29:29Z</time>
      </trkpt>
      <trkpt lat="43.43922" lon="3.69976">
        <ele>18.6</ele>
        <time>2025-06-17T09:29:30Z</time>
      </trkpt>
      <trkpt lat="43.43927" lon="3.69974">
        <ele>18.6</ele>
        <time>2025-06-17T09:29:31Z</time>
      </trkpt>
      <trkpt lat="43.43933" lon="3.69971">
        <ele>18.6</ele>
        <time>2025-06-17T09:29:32Z</time>
      </trkpt>
      <trkpt lat="43.43939" lon="3.69969">
        <ele>18.6</ele>
        <time>2025-06-17T09:29:33Z</time>
      </trkpt>
      <trkpt lat="43.43945" lon="3.69966">
        <ele>18.6</ele>
        <time>2025-06-17T09:29:34Z</time>
      </trkpt>
      <trkpt lat="43.4395" lon="3.69963">
        <ele>18.6</ele>
        <time>2025-06-17T09:29:35Z</time>
      </trkpt>
      <trkpt lat="43.43956" lon="3.6996">
        <ele>18.6</ele>
        <time>2025-06-17T09:29:36Z</time>
      </trkpt>
      <trkpt lat="43.43961" lon="3.69958">
        <ele>18.8</ele>
        <time>2025-06-17T09:29:37Z</time>
      </trkpt>
      <trkpt lat="43.43967" lon="3.69955">
        <ele>18.8</ele>
        <time>2025-06-17T09:29:38Z</time>
      </trkpt>
      <trkpt lat="43.43972" lon="3.69952">
        <ele>18.8</ele>
        <time>2025-06-17T09:29:39Z</time>
      </trkpt>
      <trkpt lat="43.43978" lon="3.69949">
        <ele>18.8</ele>
        <time>2025-06-17T09:29:40Z</time>
      </trkpt>
      <trkpt lat="43.43984" lon="3.69947">
        <ele>18.8</ele>
        <time>2025-06-17T09:29:41Z</time>
      </trkpt>
      <trkpt lat="43.4399" lon="3.69944">
        <ele>18.8</ele>
        <time>2025-06-17T09:29:42Z</time>
      </trkpt>
      <trkpt lat="43.43995" lon="3.69942">
        <ele>18.8</ele>
        <time>2025-06-17T09:29:43Z</time>
      </trkpt>
      <trkpt lat="43.44001" lon="3.69939">
        <ele>19</ele>
        <time>2025-06-17T09:29:44Z</time>
      </trkpt>
      <trkpt lat="43.44006" lon="3.69936">
        <ele>19</ele>
        <time>2025-06-17T09:29:45Z</time>
      </trkpt>
      <trkpt lat="43.44012" lon="3.69933">
        <ele>19</ele>
        <time>2025-06-17T09:29:46Z</time>
      </trkpt>
      <trkpt lat="43.44018" lon="3.6993">
        <ele>19.2</ele>
        <time>2025-06-17T09:29:47Z</time>
      </trkpt>
      <trkpt lat="43.44024" lon="3.69927">
        <ele>19.2</ele>
        <time>2025-06-17T09:29:48Z</time>
      </trkpt>
      <trkpt lat="43.44029" lon="3.69924">
        <ele>19.2</ele>
        <time>2025-06-17T09:29:49Z</time>
      </trkpt>
      <trkpt lat="43.44034" lon="3.69922">
        <ele>19.2</ele>
        <time>2025-06-17T09:29:50Z</time>
      </trkpt>
      <trkpt lat="43.4404" lon="3.69919">
        <ele>19.4</ele>
        <time>2025-06-17T09:29:51Z</time>
      </trkpt>
      <trkpt lat="43.44046" lon="3.69916">
        <ele>19.4</ele>
        <time>2025-06-17T09:29:52Z</time>
      </trkpt>
      <trkpt lat="43.44051" lon="3.69913">
        <ele>19.4</ele>
        <time>2025-06-17T09:29:53Z</time>
      </trkpt>
      <trkpt lat="43.44057" lon="3.69911">
        <ele>19.4</ele>
        <time>2025-06-17T09:29:54Z</time>
      </trkpt>
      <trkpt lat="43.44062" lon="3.69908">
        <ele>19.4</ele>
        <time>2025-06-17T09:29:55Z</time>
      </trkpt>
      <trkpt lat="43.44068" lon="3.69905">
        <ele>19.6</ele>
        <time>2025-06-17T09:29:56Z</time>
      </trkpt>
      <trkpt lat="43.44074" lon="3.69903">
        <ele>19.6</ele>
        <time>2025-06-17T09:29:57Z</time>
      </trkpt>
      <trkpt lat="43.44079" lon="3.699">
        <ele>19.6</ele>
        <time>2025-06-17T09:29:58Z</time>
      </trkpt>
      <trkpt lat="43.44084" lon="3.69897">
        <ele>19.6</ele>
        <time>2025-06-17T09:29:59Z</time>
      </trkpt>
      <trkpt lat="43.4409" lon="3.69894">
        <ele>19.6</ele>
        <time>2025-06-17T09:30:00Z</time>
      </trkpt>
      <trkpt lat="43.44095" lon="3.69891">
        <ele>19.6</ele>
        <time>2025-06-17T09:30:01Z</time>
      </trkpt>
      <trkpt lat="43.441" lon="3.69889">
        <ele>19.6</ele>
        <time>2025-06-17T09:30:02Z</time>
      </trkpt>
      <trkpt lat="43.44106" lon="3.69885">
        <ele>19.6</ele>
        <time>2025-06-17T09:30:03Z</time>
      </trkpt>
      <trkpt lat="43.44111" lon="3.69882">
        <ele>19.6</ele>
        <time>2025-06-17T09:30:04Z</time>
      </trkpt>
      <trkpt lat="43.44117" lon="3.69879">
        <ele>19.6</ele>
        <time>2025-06-17T09:30:05Z</time>
      </trkpt>
      <trkpt lat="43.44122" lon="3.69876">
        <ele>19.6</ele>
        <time>2025-06-17T09:30:06Z</time>
      </trkpt>
      <trkpt lat="43.44128" lon="3.69873">
        <ele>19.6</ele>
        <time>2025-06-17T09:30:07Z</time>
      </trkpt>
      <trkpt lat="43.44133" lon="3.69869">
        <ele>19.6</ele>
        <time>2025-06-17T09:30:08Z</time>
      </trkpt>
      <trkpt lat="43.44138" lon="3.69866">
        <ele>19.6</ele>
        <time>2025-06-17T09:30:09Z</time>
      </trkpt>
      <trkpt lat="43.44144" lon="3.69862">
        <ele>19.6</ele>
        <time>2025-06-17T09:30:10Z</time>
      </trkpt>
      <trkpt lat="43.44149" lon="3.69859">
        <ele>19.6</ele>
        <time>2025-06-17T09:30:11Z</time>
      </trkpt>
      <trkpt lat="43.44155" lon="3.69855">
        <ele>19.6</ele>
        <time>2025-06-17T09:30:12Z</time>
      </trkpt>
      <trkpt lat="43.44161" lon="3.69851">
        <ele>19.4</ele>
        <time>2025-06-17T09:30:13Z</time>
      </trkpt>
      <trkpt lat="43.44166" lon="3.69847">
        <ele>19.4</ele>
        <time>2025-06-17T09:30:14Z</time>
      </trkpt>
      <trkpt lat="43.44172" lon="3.69844">
        <ele>19.4</ele>
        <time>2025-06-17T09:30:15Z</time>
      </trkpt>
      <trkpt lat="43.44177" lon="3.6984">
        <ele>19.4</ele>
        <time>2025-06-17T09:30:16Z</time>
      </trkpt>
      <trkpt lat="43.44183" lon="3.69836">
        <ele>19.2</ele>
        <time>2025-06-17T09:30:17Z</time>
      </trkpt>
      <trkpt lat="43.44189" lon="3.69832">
        <ele>19.2</ele>
        <time>2025-06-17T09:30:18Z</time>
      </trkpt>
      <trkpt lat="43.44194" lon="3.69828">
        <ele>19.2</ele>
        <time>2025-06-17T09:30:19Z</time>
      </trkpt>
      <trkpt lat="43.442" lon="3.69824">
        <ele>19.2</ele>
        <time>2025-06-17T09:30:20Z</time>
      </trkpt>
      <trkpt lat="43.44205" lon="3.69821">
        <ele>19</ele>
        <time>2025-06-17T09:30:21Z</time>
      </trkpt>
      <trkpt lat="43.44211" lon="3.69816">
        <ele>19</ele>
        <time>2025-06-17T09:30:22Z</time>
      </trkpt>
      <trkpt lat="43.44217" lon="3.69812">
        <ele>19</ele>
        <time>2025-06-17T09:30:23Z</time>
      </trkpt>
      <trkpt lat="43.44223" lon="3.69808">
        <ele>19</ele>
        <time>2025-06-17T09:30:24Z</time>
      </trkpt>
      <trkpt lat="43.44228" lon="3.69804">
        <ele>19</ele>
        <time>2025-06-17T09:30:25Z</time>
      </trkpt>
      <trkpt lat="43.44233" lon="3.69799">
        <ele>18.8</ele>
        <time>2025-06-17T09:30:26Z</time>
      </trkpt>
      <trkpt lat="43.44239" lon="3.69795">
        <ele>18.8</ele>
        <time>2025-06-17T09:30:27Z</time>
      </trkpt>
      <trkpt lat="43.44244" lon="3.6979">
        <ele>18.8</ele>
        <time>2025-06-17T09:30:28Z</time>
      </trkpt>
      <trkpt lat="43.4425" lon="3.69785">
        <ele>18.8</ele>
        <time>2025-06-17T09:30:29Z</time>
      </trkpt>
      <trkpt lat="43.44255" lon="3.6978">
        <ele>18.6</ele>
        <time>2025-06-17T09:30:30Z</time>
      </trkpt>
      <trkpt lat="43.4426" lon="3.69776">
        <ele>18.6</ele>
        <time>2025-06-17T09:30:31Z</time>
      </trkpt>
      <trkpt lat="43.44265" lon="3.69771">
        <ele>18.6</ele>
        <time>2025-06-17T09:30:32Z</time>
      </trkpt>
      <trkpt lat="43.4427" lon="3.69766">
        <ele>18.6</ele>
        <time>2025-06-17T09:30:33Z</time>
      </trkpt>
      <trkpt lat="43.44275" lon="3.69762">
        <ele>18.6</ele>
        <time>2025-06-17T09:30:34Z</time>
      </trkpt>
      <trkpt lat="43.4428" lon="3.69757">
        <ele>18.6</ele>
        <time>2025-06-17T09:30:35Z</time>
      </trkpt>
      <trkpt lat="43.44284" lon="3.69753">
        <ele>18.6</ele>
        <time>2025-06-17T09:30:36Z</time>
      </trkpt>
      <trkpt lat="43.44289" lon="3.69748">
        <ele>18.6</ele>
        <time>2025-06-17T09:30:37Z</time>
      </trkpt>
      <trkpt lat="43.44293" lon="3.69744">
        <ele>18.6</ele>
        <time>2025-06-17T09:30:38Z</time>
      </trkpt>
      <trkpt lat="43.44298" lon="3.6974">
        <ele>18.6</ele>
        <time>2025-06-17T09:30:39Z</time>
      </trkpt>
      <trkpt lat="43.44302" lon="3.69736">
        <ele>18.4</ele>
        <time>2025-06-17T09:30:40Z</time>
      </trkpt>
      <trkpt lat="43.44306" lon="3.69733">
        <ele>18.4</ele>
        <time>2025-06-17T09:30:41Z</time>
      </trkpt>
      <trkpt lat="43.44311" lon="3.69729">
        <ele>18.4</ele>
        <time>2025-06-17T09:30:42Z</time>
      </trkpt>
      <trkpt lat="43.44316" lon="3.69725">
        <ele>18.4</ele>
        <time>2025-06-17T09:30:43Z</time>
      </trkpt>
      <trkpt lat="43.4432" lon="3.6972">
        <ele>18.4</ele>
        <time>2025-06-17T09:30:44Z</time>
      </trkpt>
      <trkpt lat="43.44323" lon="3.69716">
        <ele>18.4</ele>
        <time>2025-06-17T09:30:45Z</time>
      </trkpt>
      <trkpt lat="43.44328" lon="3.69712">
        <ele>18.4</ele>
        <time>2025-06-17T09:30:46Z</time>
      </trkpt>
      <trkpt lat="43.44332" lon="3.69708">
        <ele>18.4</ele>
        <time>2025-06-17T09:30:47Z</time>
      </trkpt>
      <trkpt lat="43.44336" lon="3.69705">
        <ele>18.2</ele>
        <time>2025-06-17T09:30:48Z</time>
      </trkpt>
      <trkpt lat="43.4434" lon="3.69701">
        <ele>18.4</ele>
        <time>2025-06-17T09:30:49Z</time>
      </trkpt>
      <trkpt lat="43.44344" lon="3.69697">
        <ele>18.4</ele>
        <time>2025-06-17T09:30:50Z</time>
      </trkpt>
      <trkpt lat="43.44347" lon="3.69693">
        <ele>18.4</ele>
        <time>2025-06-17T09:30:51Z</time>
      </trkpt>
      <trkpt lat="43.44351" lon="3.6969">
        <ele>18.4</ele>
        <time>2025-06-17T09:30:52Z</time>
      </trkpt>
      <trkpt lat="43.44356" lon="3.69686">
        <ele>18.4</ele>
        <time>2025-06-17T09:30:53Z</time>
      </trkpt>
      <trkpt lat="43.4436" lon="3.69682">
        <ele>18.4</ele>
        <time>2025-06-17T09:30:54Z</time>
      </trkpt>
      <trkpt lat="43.44364" lon="3.69677">
        <ele>18.4</ele>
        <time>2025-06-17T09:30:55Z</time>
      </trkpt>
      <trkpt lat="43.44369" lon="3.69674">
        <ele>18.4</ele>
        <time>2025-06-17T09:30:56Z</time>
      </trkpt>
      <trkpt lat="43.44374" lon="3.6967">
        <ele>18.4</ele>
        <time>2025-06-17T09:30:57Z</time>
      </trkpt>
      <trkpt lat="43.44378" lon="3.69665">
        <ele>18.4</ele>
        <time>2025-06-17T09:30:58Z</time>
      </trkpt>
      <trkpt lat="43.44383" lon="3.69661">
        <ele>18.4</ele>
        <time>2025-06-17T09:30:59Z</time>
      </trkpt>
      <trkpt lat="43.44388" lon="3.69657">
        <ele>18.4</ele>
        <time>2025-06-17T09:31:00Z</time>
      </trkpt>
      <trkpt lat="43.44393" lon="3.69653">
        <ele>18.4</ele>
        <time>2025-06-17T09:31:01Z</time>
      </trkpt>
      <trkpt lat="43.44398" lon="3.69649">
        <ele>18.4</ele>
        <time>2025-06-17T09:31:02Z</time>
      </trkpt>
      <trkpt lat="43.44402" lon="3.69644">
        <ele>18.4</ele>
        <time>2025-06-17T09:31:03Z</time>
      </trkpt>
      <trkpt lat="43.44407" lon="3.69639">
        <ele>18.4</ele>
        <time>2025-06-17T09:31:04Z</time>
      </trkpt>
      <trkpt lat="43.44411" lon="3.69635">
        <ele>18.4</ele>
        <time>2025-06-17T09:31:05Z</time>
      </trkpt>
      <trkpt lat="43.44416" lon="3.69631">
        <ele>18.4</ele>
        <time>2025-06-17T09:31:06Z</time>
      </trkpt>
      <trkpt lat="43.44421" lon="3.69626">
        <ele>18.6</ele>
        <time>2025-06-17T09:31:07Z</time>
      </trkpt>
      <trkpt lat="43.44426" lon="3.69622">
        <ele>18.6</ele>
        <time>2025-06-17T09:31:08Z</time>
      </trkpt>
      <trkpt lat="43.44431" lon="3.69618">
        <ele>18.6</ele>
        <time>2025-06-17T09:31:09Z</time>
      </trkpt>
      <trkpt lat="43.44435" lon="3.69613">
        <ele>18.6</ele>
        <time>2025-06-17T09:31:10Z</time>
      </trkpt>
      <trkpt lat="43.44439" lon="3.6961">
        <ele>18.6</ele>
        <time>2025-06-17T09:31:11Z</time>
      </trkpt>
      <trkpt lat="43.44445" lon="3.69605">
        <ele>18.6</ele>
        <time>2025-06-17T09:31:12Z</time>
      </trkpt>
      <trkpt lat="43.4445" lon="3.696">
        <ele>18.6</ele>
        <time>2025-06-17T09:31:13Z</time>
      </trkpt>
      <trkpt lat="43.44455" lon="3.69596">
        <ele>18.6</ele>
        <time>2025-06-17T09:31:14Z</time>
      </trkpt>
      <trkpt lat="43.44459" lon="3.69592">
        <ele>18.8</ele>
        <time>2025-06-17T09:31:15Z</time>
      </trkpt>
      <trkpt lat="43.44464" lon="3.69587">
        <ele>18.8</ele>
        <time>2025-06-17T09:31:16Z</time>
      </trkpt>
      <trkpt lat="43.44468" lon="3.69583">
        <ele>18.8</ele>
        <time>2025-06-17T09:31:17Z</time>
      </trkpt>
      <trkpt lat="43.44473" lon="3.69579">
        <ele>18.8</ele>
        <time>2025-06-17T09:31:18Z</time>
      </trkpt>
      <trkpt lat="43.44477" lon="3.69574">
        <ele>18.8</ele>
        <time>2025-06-17T09:31:19Z</time>
      </trkpt>
      <trkpt lat="43.44481" lon="3.6957">
        <ele>19</ele>
        <time>2025-06-17T09:31:20Z</time>
      </trkpt>
      <trkpt lat="43.44486" lon="3.69565">
        <ele>19</ele>
        <time>2025-06-17T09:31:21Z</time>
      </trkpt>
      <trkpt lat="43.44491" lon="3.69561">
        <ele>19</ele>
        <time>2025-06-17T09:31:22Z</time>
      </trkpt>
      <trkpt lat="43.44496" lon="3.69557">
        <ele>19</ele>
        <time>2025-06-17T09:31:23Z</time>
      </trkpt>
      <trkpt lat="43.44501" lon="3.69553">
        <ele>19.2</ele>
        <time>2025-06-17T09:31:24Z</time>
      </trkpt>
      <trkpt lat="43.44505" lon="3.69549">
        <ele>19.2</ele>
        <time>2025-06-17T09:31:25Z</time>
      </trkpt>
      <trkpt lat="43.4451" lon="3.69545">
        <ele>19.2</ele>
        <time>2025-06-17T09:31:26Z</time>
      </trkpt>
      <trkpt lat="43.44515" lon="3.6954">
        <ele>19.4</ele>
        <time>2025-06-17T09:31:27Z</time>
      </trkpt>
      <trkpt lat="43.4452" lon="3.69536">
        <ele>19.4</ele>
        <time>2025-06-17T09:31:28Z</time>
      </trkpt>
      <trkpt lat="43.44525" lon="3.69532">
        <ele>19.4</ele>
        <time>2025-06-17T09:31:29Z</time>
      </trkpt>
      <trkpt lat="43.4453" lon="3.69527">
        <ele>19.4</ele>
        <time>2025-06-17T09:31:30Z</time>
      </trkpt>
      <trkpt lat="43.44534" lon="3.69523">
        <ele>19.4</ele>
        <time>2025-06-17T09:31:31Z</time>
      </trkpt>
      <trkpt lat="43.44539" lon="3.69519">
        <ele>19.6</ele>
        <time>2025-06-17T09:31:32Z</time>
      </trkpt>
      <trkpt lat="43.44544" lon="3.69515">
        <ele>19.6</ele>
        <time>2025-06-17T09:31:33Z</time>
      </trkpt>
      <trkpt lat="43.4455" lon="3.69511">
        <ele>19.6</ele>
        <time>2025-06-17T09:31:34Z</time>
      </trkpt>
      <trkpt lat="43.44555" lon="3.69507">
        <ele>19.6</ele>
        <time>2025-06-17T09:31:35Z</time>
      </trkpt>
      <trkpt lat="43.4456" lon="3.69503">
        <ele>19.6</ele>
        <time>2025-06-17T09:31:36Z</time>
      </trkpt>
      <trkpt lat="43.44564" lon="3.69499">
        <ele>19.6</ele>
        <time>2025-06-17T09:31:37Z</time>
      </trkpt>
      <trkpt lat="43.44569" lon="3.69495">
        <ele>19.6</ele>
        <time>2025-06-17T09:31:38Z</time>
      </trkpt>
      <trkpt lat="43.44574" lon="3.69491">
        <ele>19.6</ele>
        <time>2025-06-17T09:31:39Z</time>
      </trkpt>
      <trkpt lat="43.44579" lon="3.69487">
        <ele>19.8</ele>
        <time>2025-06-17T09:31:40Z</time>
      </trkpt>
      <trkpt lat="43.44584" lon="3.69483">
        <ele>19.8</ele>
        <time>2025-06-17T09:31:41Z</time>
      </trkpt>
      <trkpt lat="43.44589" lon="3.69479">
        <ele>19.8</ele>
        <time>2025-06-17T09:31:42Z</time>
      </trkpt>
      <trkpt lat="43.44595" lon="3.69475">
        <ele>19.8</ele>
        <time>2025-06-17T09:31:43Z</time>
      </trkpt>
      <trkpt lat="43.446" lon="3.69472">
        <ele>19.8</ele>
        <time>2025-06-17T09:31:44Z</time>
      </trkpt>
      <trkpt lat="43.44605" lon="3.69468">
        <ele>19.8</ele>
        <time>2025-06-17T09:31:45Z</time>
      </trkpt>
      <trkpt lat="43.4461" lon="3.69464">
        <ele>19.8</ele>
        <time>2025-06-17T09:31:46Z</time>
      </trkpt>
      <trkpt lat="43.44614" lon="3.69461">
        <ele>19.8</ele>
        <time>2025-06-17T09:31:47Z</time>
      </trkpt>
      <trkpt lat="43.44618" lon="3.69459">
        <ele>19.8</ele>
        <time>2025-06-17T09:31:48Z</time>
      </trkpt>
      <trkpt lat="43.44621" lon="3.69457">
        <ele>20</ele>
        <time>2025-06-17T09:31:49Z</time>
      </trkpt>
      <trkpt lat="43.44623" lon="3.69456">
        <ele>20</ele>
        <time>2025-06-17T09:31:50Z</time>
      </trkpt>
      <trkpt lat="43.44625" lon="3.69456">
        <ele>20.2</ele>
        <time>2025-06-17T09:32:07Z</time>
      </trkpt>
      <trkpt lat="43.44627" lon="3.69453">
        <ele>20.2</ele>
        <time>2025-06-17T09:32:08Z</time>
      </trkpt>
      <trkpt lat="43.44629" lon="3.69452">
        <ele>20.2</ele>
        <time>2025-06-17T09:32:09Z</time>
      </trkpt>
      <trkpt lat="43.44631" lon="3.69451">
        <ele>20.2</ele>
        <time>2025-06-17T09:32:10Z</time>
      </trkpt>
      <trkpt lat="43.44633" lon="3.69449">
        <ele>20.2</ele>
        <time>2025-06-17T09:32:11Z</time>
      </trkpt>
      <trkpt lat="43.44636" lon="3.69447">
        <ele>20.2</ele>
        <time>2025-06-17T09:32:12Z</time>
      </trkpt>
      <trkpt lat="43.4464" lon="3.69446">
        <ele>20.2</ele>
        <time>2025-06-17T09:32:13Z</time>
      </trkpt>
      <trkpt lat="43.44644" lon="3.69444">
        <ele>20.2</ele>
        <time>2025-06-17T09:32:14Z</time>
      </trkpt>
      <trkpt lat="43.44648" lon="3.69441">
        <ele>20.2</ele>
        <time>2025-06-17T09:32:15Z</time>
      </trkpt>
      <trkpt lat="43.44651" lon="3.69439">
        <ele>20</ele>
        <time>2025-06-17T09:32:16Z</time>
      </trkpt>
      <trkpt lat="43.44655" lon="3.69436">
        <ele>20</ele>
        <time>2025-06-17T09:32:17Z</time>
      </trkpt>
      <trkpt lat="43.44659" lon="3.69433">
        <ele>20</ele>
        <time>2025-06-17T09:32:18Z</time>
      </trkpt>
      <trkpt lat="43.44662" lon="3.69431">
        <ele>20</ele>
        <time>2025-06-17T09:32:19Z</time>
      </trkpt>
      <trkpt lat="43.44666" lon="3.69428">
        <ele>20</ele>
        <time>2025-06-17T09:32:20Z</time>
      </trkpt>
      <trkpt lat="43.44669" lon="3.69426">
        <ele>20</ele>
        <time>2025-06-17T09:32:21Z</time>
      </trkpt>
      <trkpt lat="43.44673" lon="3.69423">
        <ele>20</ele>
        <time>2025-06-17T09:32:22Z</time>
      </trkpt>
      <trkpt lat="43.44677" lon="3.69422">
        <ele>20</ele>
        <time>2025-06-17T09:32:23Z</time>
      </trkpt>
      <trkpt lat="43.4468" lon="3.6942">
        <ele>20</ele>
        <time>2025-06-17T09:32:24Z</time>
      </trkpt>
      <trkpt lat="43.44683" lon="3.69419">
        <ele>20</ele>
        <time>2025-06-17T09:32:25Z</time>
      </trkpt>
      <trkpt lat="43.44686" lon="3.69417">
        <ele>20</ele>
        <time>2025-06-17T09:32:26Z</time>
      </trkpt>
      <trkpt lat="43.44687" lon="3.69415">
        <ele>20</ele>
        <time>2025-06-17T09:32:27Z</time>
      </trkpt>
      <trkpt lat="43.44688" lon="3.69412">
        <ele>20</ele>
        <time>2025-06-17T09:32:28Z</time>
      </trkpt>
      <trkpt lat="43.44686" lon="3.6941">
        <ele>20</ele>
        <time>2025-06-17T09:32:29Z</time>
      </trkpt>
      <trkpt lat="43.44685" lon="3.69409">
        <ele>20</ele>
        <time>2025-06-17T09:32:30Z</time>
      </trkpt>
      <trkpt lat="43.44683" lon="3.69407">
        <ele>20</ele>
        <time>2025-06-17T09:32:31Z</time>
      </trkpt>
      <trkpt lat="43.44682" lon="3.69405">
        <ele>20</ele>
        <time>2025-06-17T09:32:32Z</time>
      </trkpt>
      <trkpt lat="43.44681" lon="3.69401">
        <ele>20</ele>
        <time>2025-06-17T09:32:33Z</time>
      </trkpt>
      <trkpt lat="43.4468" lon="3.69398">
        <ele>20</ele>
        <time>2025-06-17T09:32:34Z</time>
      </trkpt>
      <trkpt lat="43.44679" lon="3.69395">
        <ele>20</ele>
        <time>2025-06-17T09:32:35Z</time>
      </trkpt>
      <trkpt lat="43.44679" lon="3.69392">
        <ele>19.8</ele>
        <time>2025-06-17T09:32:36Z</time>
      </trkpt>
      <trkpt lat="43.44679" lon="3.6939">
        <ele>19.8</ele>
        <time>2025-06-17T09:32:37Z</time>
      </trkpt>
      <trkpt lat="43.4468" lon="3.69389">
        <ele>19.8</ele>
        <time>2025-06-17T09:32:38Z</time>
      </trkpt>
      <trkpt lat="43.44681" lon="3.69388">
        <ele>19.8</ele>
        <time>2025-06-17T09:32:39Z</time>
      </trkpt>
      <trkpt lat="43.44682" lon="3.69388">
        <ele>19.8</ele>
        <time>2025-06-17T09:32:40Z</time>
      </trkpt>
      <trkpt lat="43.44682" lon="3.69388">
        <ele>19.8</ele>
        <time>2025-06-17T09:32:41Z</time>
      </trkpt>
      <trkpt lat="43.44682" lon="3.69388">
        <ele>19.8</ele>
        <time>2025-06-17T09:32:42Z</time>
      </trkpt>
      <trkpt lat="43.44682" lon="3.69388">
        <ele>19.8</ele>
        <time>2025-06-17T09:32:43Z</time>
      </trkpt>
      <trkpt lat="43.44677" lon="3.69402">
        <ele>20.2</ele>
        <time>2025-06-17T09:43:49Z</time>
      </trkpt>
      <trkpt lat="43.44679" lon="3.69404">
        <ele>20.2</ele>
        <time>2025-06-17T09:43:50Z</time>
      </trkpt>
      <trkpt lat="43.44681" lon="3.69405">
        <ele>20.2</ele>
        <time>2025-06-17T09:43:51Z</time>
      </trkpt>
      <trkpt lat="43.44683" lon="3.69405">
        <ele>20.2</ele>
        <time>2025-06-17T09:43:52Z</time>
      </trkpt>
      <trkpt lat="43.44685" lon="3.69405">
        <ele>20.2</ele>
        <time>2025-06-17T09:43:53Z</time>
      </trkpt>
      <trkpt lat="43.44687" lon="3.69406">
        <ele>20.2</ele>
        <time>2025-06-17T09:43:54Z</time>
      </trkpt>
      <trkpt lat="43.44689" lon="3.69407">
        <ele>20.2</ele>
        <time>2025-06-17T09:43:55Z</time>
      </trkpt>
      <trkpt lat="43.44692" lon="3.69407">
        <ele>20.2</ele>
        <time>2025-06-17T09:43:56Z</time>
      </trkpt>
      <trkpt lat="43.44696" lon="3.69405">
        <ele>20.2</ele>
        <time>2025-06-17T09:43:57Z</time>
      </trkpt>
      <trkpt lat="43.447" lon="3.69403">
        <ele>20.2</ele>
        <time>2025-06-17T09:43:58Z</time>
      </trkpt>
      <trkpt lat="43.44704" lon="3.69401">
        <ele>20</ele>
        <time>2025-06-17T09:43:59Z</time>
      </trkpt>
      <trkpt lat="43.44708" lon="3.694">
        <ele>20</ele>
        <time>2025-06-17T09:44:00Z</time>
      </trkpt>
      <trkpt lat="43.44713" lon="3.69397">
        <ele>20</ele>
        <time>2025-06-17T09:44:01Z</time>
      </trkpt>
      <trkpt lat="43.44717" lon="3.69395">
        <ele>20</ele>
        <time>2025-06-17T09:44:02Z</time>
      </trkpt>
      <trkpt lat="43.44721" lon="3.69392">
        <ele>20</ele>
        <time>2025-06-17T09:44:03Z</time>
      </trkpt>
      <trkpt lat="43.44724" lon="3.6939">
        <ele>20</ele>
        <time>2025-06-17T09:44:04Z</time>
      </trkpt>
      <trkpt lat="43.44728" lon="3.69387">
        <ele>20</ele>
        <time>2025-06-17T09:44:05Z</time>
      </trkpt>
      <trkpt lat="43.44733" lon="3.69384">
        <ele>20</ele>
        <time>2025-06-17T09:44:06Z</time>
      </trkpt>
      <trkpt lat="43.44737" lon="3.69381">
        <ele>20</ele>
        <time>2025-06-17T09:44:07Z</time>
      </trkpt>
      <trkpt lat="43.44741" lon="3.69378">
        <ele>20</ele>
        <time>2025-06-17T09:44:08Z</time>
      </trkpt>
      <trkpt lat="43.44746" lon="3.69375">
        <ele>20.2</ele>
        <time>2025-06-17T09:44:09Z</time>
      </trkpt>
      <trkpt lat="43.44749" lon="3.69373">
        <ele>20.2</ele>
        <time>2025-06-17T09:44:10Z</time>
      </trkpt>
      <trkpt lat="43.44754" lon="3.6937">
        <ele>20.2</ele>
        <time>2025-06-17T09:44:11Z</time>
      </trkpt>
      <trkpt lat="43.44758" lon="3.69367">
        <ele>20.2</ele>
        <time>2025-06-17T09:44:12Z</time>
      </trkpt>
      <trkpt lat="43.44762" lon="3.69365">
        <ele>20.2</ele>
        <time>2025-06-17T09:44:13Z</time>
      </trkpt>
      <trkpt lat="43.44768" lon="3.69363">
        <ele>20.2</ele>
        <time>2025-06-17T09:44:14Z</time>
      </trkpt>
      <trkpt lat="43.44773" lon="3.69361">
        <ele>20.2</ele>
        <time>2025-06-17T09:44:15Z</time>
      </trkpt>
      <trkpt lat="43.44777" lon="3.69359">
        <ele>20.2</ele>
        <time>2025-06-17T09:44:16Z</time>
      </trkpt>
      <trkpt lat="43.44782" lon="3.69356">
        <ele>20.2</ele>
        <time>2025-06-17T09:44:17Z</time>
      </trkpt>
      <trkpt lat="43.44787" lon="3.69354">
        <ele>20.2</ele>
        <time>2025-06-17T09:44:18Z</time>
      </trkpt>
      <trkpt lat="43.44792" lon="3.69351">
        <ele>20.2</ele>
        <time>2025-06-17T09:44:19Z</time>
      </trkpt>
      <trkpt lat="43.44797" lon="3.69348">
        <ele>20.2</ele>
        <time>2025-06-17T09:44:20Z</time>
      </trkpt>
      <trkpt lat="43.44802" lon="3.69345">
        <ele>20.2</ele>
        <time>2025-06-17T09:44:21Z</time>
      </trkpt>
      <trkpt lat="43.44807" lon="3.69342">
        <ele>20.2</ele>
        <time>2025-06-17T09:44:22Z</time>
      </trkpt>
      <trkpt lat="43.44812" lon="3.6934">
        <ele>20.2</ele>
        <time>2025-06-17T09:44:23Z</time>
      </trkpt>
      <trkpt lat="43.44817" lon="3.69337">
        <ele>20.2</ele>
        <time>2025-06-17T09:44:24Z</time>
      </trkpt>
      <trkpt lat="43.44822" lon="3.69334">
        <ele>20.2</ele>
        <time>2025-06-17T09:44:25Z</time>
      </trkpt>
      <trkpt lat="43.44827" lon="3.69332">
        <ele>20.2</ele>
        <time>2025-06-17T09:44:26Z</time>
      </trkpt>
      <trkpt lat="43.44833" lon="3.6933">
        <ele>20.2</ele>
        <time>2025-06-17T09:44:27Z</time>
      </trkpt>
      <trkpt lat="43.44838" lon="3.69327">
        <ele>20.2</ele>
        <time>2025-06-17T09:44:28Z</time>
      </trkpt>
      <trkpt lat="43.44844" lon="3.69325">
        <ele>20.2</ele>
        <time>2025-06-17T09:44:29Z</time>
      </trkpt>
      <trkpt lat="43.44849" lon="3.69322">
        <ele>20.2</ele>
        <time>2025-06-17T09:44:30Z</time>
      </trkpt>
      <trkpt lat="43.44854" lon="3.6932">
        <ele>20.2</ele>
        <time>2025-06-17T09:44:31Z</time>
      </trkpt>
      <trkpt lat="43.44859" lon="3.69317">
        <ele>20.2</ele>
        <time>2025-06-17T09:44:32Z</time>
      </trkpt>
      <trkpt lat="43.44865" lon="3.69314">
        <ele>20.4</ele>
        <time>2025-06-17T09:44:33Z</time>
      </trkpt>
      <trkpt lat="43.4487" lon="3.69311">
        <ele>20.4</ele>
        <time>2025-06-17T09:44:34Z</time>
      </trkpt>
      <trkpt lat="43.44876" lon="3.69308">
        <ele>20.4</ele>
        <time>2025-06-17T09:44:35Z</time>
      </trkpt>
      <trkpt lat="43.44881" lon="3.69304">
        <ele>20.2</ele>
        <time>2025-06-17T09:44:36Z</time>
      </trkpt>
      <trkpt lat="43.44886" lon="3.69301">
        <ele>20.4</ele>
        <time>2025-06-17T09:44:37Z</time>
      </trkpt>
      <trkpt lat="43.44892" lon="3.69298">
        <ele>20.4</ele>
        <time>2025-06-17T09:44:38Z</time>
      </trkpt>
      <trkpt lat="43.44897" lon="3.69295">
        <ele>20.4</ele>
        <time>2025-06-17T09:44:39Z</time>
      </trkpt>
      <trkpt lat="43.44902" lon="3.69291">
        <ele>20.4</ele>
        <time>2025-06-17T09:44:40Z</time>
      </trkpt>
      <trkpt lat="43.44907" lon="3.69288">
        <ele>20.4</ele>
        <time>2025-06-17T09:44:41Z</time>
      </trkpt>
      <trkpt lat="43.44913" lon="3.69284">
        <ele>20.4</ele>
        <time>2025-06-17T09:44:42Z</time>
      </trkpt>
      <trkpt lat="43.44918" lon="3.69281">
        <ele>20.4</ele>
        <time>2025-06-17T09:44:43Z</time>
      </trkpt>
      <trkpt lat="43.44923" lon="3.69278">
        <ele>20.4</ele>
        <time>2025-06-17T09:44:44Z</time>
      </trkpt>
      <trkpt lat="43.44928" lon="3.69274">
        <ele>20.4</ele>
        <time>2025-06-17T09:44:45Z</time>
      </trkpt>
      <trkpt lat="43.44933" lon="3.69271">
        <ele>20.4</ele>
        <time>2025-06-17T09:44:46Z</time>
      </trkpt>
      <trkpt lat="43.44938" lon="3.69268">
        <ele>20.4</ele>
        <time>2025-06-17T09:44:47Z</time>
      </trkpt>
      <trkpt lat="43.44943" lon="3.69264">
        <ele>20.4</ele>
        <time>2025-06-17T09:44:48Z</time>
      </trkpt>
      <trkpt lat="43.44948" lon="3.69261">
        <ele>20.4</ele>
        <time>2025-06-17T09:44:49Z</time>
      </trkpt>
      <trkpt lat="43.44953" lon="3.69258">
        <ele>20.4</ele>
        <time>2025-06-17T09:44:50Z</time>
      </trkpt>
      <trkpt lat="43.44958" lon="3.69255">
        <ele>20.6</ele>
        <time>2025-06-17T09:44:51Z</time>
      </trkpt>
      <trkpt lat="43.44962" lon="3.69252">
        <ele>20.6</ele>
        <time>2025-06-17T09:44:52Z</time>
      </trkpt>
      <trkpt lat="43.44968" lon="3.69248">
        <ele>20.6</ele>
        <time>2025-06-17T09:44:53Z</time>
      </trkpt>
      <trkpt lat="43.44973" lon="3.69245">
        <ele>20.6</ele>
        <time>2025-06-17T09:44:54Z</time>
      </trkpt>
      <trkpt lat="43.44978" lon="3.69243">
        <ele>20.6</ele>
        <time>2025-06-17T09:44:55Z</time>
      </trkpt>
      <trkpt lat="43.44984" lon="3.6924">
        <ele>20.6</ele>
        <time>2025-06-17T09:44:56Z</time>
      </trkpt>
      <trkpt lat="43.44989" lon="3.69237">
        <ele>20.6</ele>
        <time>2025-06-17T09:44:57Z</time>
      </trkpt>
      <trkpt lat="43.44994" lon="3.69233">
        <ele>20.6</ele>
        <time>2025-06-17T09:44:58Z</time>
      </trkpt>
      <trkpt lat="43.44999" lon="3.6923">
        <ele>20.6</ele>
        <time>2025-06-17T09:44:59Z</time>
      </trkpt>
      <trkpt lat="43.45004" lon="3.69226">
        <ele>20.6</ele>
        <time>2025-06-17T09:45:00Z</time>
      </trkpt>
      <trkpt lat="43.45009" lon="3.69223">
        <ele>20.6</ele>
        <time>2025-06-17T09:45:01Z</time>
      </trkpt>
      <trkpt lat="43.45014" lon="3.69219">
        <ele>20.6</ele>
        <time>2025-06-17T09:45:02Z</time>
      </trkpt>
      <trkpt lat="43.45018" lon="3.69215">
        <ele>20.6</ele>
        <time>2025-06-17T09:45:03Z</time>
      </trkpt>
      <trkpt lat="43.45023" lon="3.69212">
        <ele>20.8</ele>
        <time>2025-06-17T09:45:04Z</time>
      </trkpt>
      <trkpt lat="43.45027" lon="3.69209">
        <ele>20.8</ele>
        <time>2025-06-17T09:45:05Z</time>
      </trkpt>
      <trkpt lat="43.45031" lon="3.69206">
        <ele>20.8</ele>
        <time>2025-06-17T09:45:06Z</time>
      </trkpt>
      <trkpt lat="43.45036" lon="3.69204">
        <ele>21</ele>
        <time>2025-06-17T09:45:07Z</time>
      </trkpt>
      <trkpt lat="43.45041" lon="3.69201">
        <ele>21</ele>
        <time>2025-06-17T09:45:08Z</time>
      </trkpt>
      <trkpt lat="43.45046" lon="3.69199">
        <ele>21</ele>
        <time>2025-06-17T09:45:09Z</time>
      </trkpt>
      <trkpt lat="43.45051" lon="3.69196">
        <ele>21</ele>
        <time>2025-06-17T09:45:10Z</time>
      </trkpt>
      <trkpt lat="43.45056" lon="3.69193">
        <ele>21</ele>
        <time>2025-06-17T09:45:11Z</time>
      </trkpt>
      <trkpt lat="43.45061" lon="3.6919">
        <ele>21</ele>
        <time>2025-06-17T09:45:12Z</time>
      </trkpt>
      <trkpt lat="43.45067" lon="3.69187">
        <ele>21</ele>
        <time>2025-06-17T09:45:13Z</time>
      </trkpt>
      <trkpt lat="43.45073" lon="3.69185">
        <ele>21</ele>
        <time>2025-06-17T09:45:14Z</time>
      </trkpt>
      <trkpt lat="43.45078" lon="3.69182">
        <ele>21</ele>
        <time>2025-06-17T09:45:15Z</time>
      </trkpt>
      <trkpt lat="43.45083" lon="3.69179">
        <ele>21</ele>
        <time>2025-06-17T09:45:16Z</time>
      </trkpt>
      <trkpt lat="43.45089" lon="3.69176">
        <ele>21.2</ele>
        <time>2025-06-17T09:45:17Z</time>
      </trkpt>
      <trkpt lat="43.45094" lon="3.69174">
        <ele>21.2</ele>
        <time>2025-06-17T09:45:18Z</time>
      </trkpt>
      <trkpt lat="43.45098" lon="3.69171">
        <ele>21.2</ele>
        <time>2025-06-17T09:45:19Z</time>
      </trkpt>
      <trkpt lat="43.45104" lon="3.69168">
        <ele>21.2</ele>
        <time>2025-06-17T09:45:20Z</time>
      </trkpt>
      <trkpt lat="43.45108" lon="3.69165">
        <ele>21.2</ele>
        <time>2025-06-17T09:45:21Z</time>
      </trkpt>
      <trkpt lat="43.45112" lon="3.69162">
        <ele>21.4</ele>
        <time>2025-06-17T09:45:22Z</time>
      </trkpt>
      <trkpt lat="43.45117" lon="3.69158">
        <ele>21.4</ele>
        <time>2025-06-17T09:45:23Z</time>
      </trkpt>
      <trkpt lat="43.45123" lon="3.69155">
        <ele>21.4</ele>
        <time>2025-06-17T09:45:24Z</time>
      </trkpt>
      <trkpt lat="43.45129" lon="3.69152">
        <ele>21.6</ele>
        <time>2025-06-17T09:45:25Z</time>
      </trkpt>
      <trkpt lat="43.45134" lon="3.6915">
        <ele>21.6</ele>
        <time>2025-06-17T09:45:26Z</time>
      </trkpt>
      <trkpt lat="43.45139" lon="3.69147">
        <ele>21.6</ele>
        <time>2025-06-17T09:45:27Z</time>
      </trkpt>
      <trkpt lat="43.45144" lon="3.69144">
        <ele>21.6</ele>
        <time>2025-06-17T09:45:28Z</time>
      </trkpt>
      <trkpt lat="43.4515" lon="3.69141">
        <ele>21.8</ele>
        <time>2025-06-17T09:45:29Z</time>
      </trkpt>
      <trkpt lat="43.45155" lon="3.69138">
        <ele>21.8</ele>
        <time>2025-06-17T09:45:30Z</time>
      </trkpt>
      <trkpt lat="43.45161" lon="3.69135">
        <ele>21.8</ele>
        <time>2025-06-17T09:45:31Z</time>
      </trkpt>
      <trkpt lat="43.45167" lon="3.69133">
        <ele>21.8</ele>
        <time>2025-06-17T09:45:32Z</time>
      </trkpt>
      <trkpt lat="43.45172" lon="3.6913">
        <ele>21.8</ele>
        <time>2025-06-17T09:45:33Z</time>
      </trkpt>
      <trkpt lat="43.45177" lon="3.69127">
        <ele>21.8</ele>
        <time>2025-06-17T09:45:34Z</time>
      </trkpt>
      <trkpt lat="43.45182" lon="3.69124">
        <ele>22</ele>
        <time>2025-06-17T09:45:35Z</time>
      </trkpt>
      <trkpt lat="43.45187" lon="3.69121">
        <ele>22</ele>
        <time>2025-06-17T09:45:36Z</time>
      </trkpt>
      <trkpt lat="43.45193" lon="3.69119">
        <ele>22</ele>
        <time>2025-06-17T09:45:37Z</time>
      </trkpt>
      <trkpt lat="43.45198" lon="3.69117">
        <ele>22</ele>
        <time>2025-06-17T09:45:38Z</time>
      </trkpt>
      <trkpt lat="43.45204" lon="3.69115">
        <ele>22</ele>
        <time>2025-06-17T09:45:39Z</time>
      </trkpt>
      <trkpt lat="43.4521" lon="3.69112">
        <ele>22</ele>
        <time>2025-06-17T09:45:40Z</time>
      </trkpt>
      <trkpt lat="43.45215" lon="3.69111">
        <ele>22.2</ele>
        <time>2025-06-17T09:45:41Z</time>
      </trkpt>
      <trkpt lat="43.45222" lon="3.69108">
        <ele>22.2</ele>
        <time>2025-06-17T09:45:42Z</time>
      </trkpt>
      <trkpt lat="43.45227" lon="3.69107">
        <ele>22.2</ele>
        <time>2025-06-17T09:45:43Z</time>
      </trkpt>
      <trkpt lat="43.45232" lon="3.69105">
        <ele>22.2</ele>
        <time>2025-06-17T09:45:44Z</time>
      </trkpt>
      <trkpt lat="43.45236" lon="3.69103">
        <ele>22.2</ele>
        <time>2025-06-17T09:45:45Z</time>
      </trkpt>
      <trkpt lat="43.45243" lon="3.69101">
        <ele>22.2</ele>
        <time>2025-06-17T09:45:46Z</time>
      </trkpt>
      <trkpt lat="43.45248" lon="3.691">
        <ele>22.2</ele>
        <time>2025-06-17T09:45:47Z</time>
      </trkpt>
      <trkpt lat="43.45255" lon="3.69097">
        <ele>22.2</ele>
        <time>2025-06-17T09:45:48Z</time>
      </trkpt>
      <trkpt lat="43.4526" lon="3.69095">
        <ele>22.4</ele>
        <time>2025-06-17T09:45:49Z</time>
      </trkpt>
      <trkpt lat="43.45267" lon="3.69093">
        <ele>22.4</ele>
        <time>2025-06-17T09:45:50Z</time>
      </trkpt>
      <trkpt lat="43.45272" lon="3.69091">
        <ele>22.4</ele>
        <time>2025-06-17T09:45:51Z</time>
      </trkpt>
      <trkpt lat="43.45278" lon="3.69089">
        <ele>22.6</ele>
        <time>2025-06-17T09:45:52Z</time>
      </trkpt>
      <trkpt lat="43.45283" lon="3.69088">
        <ele>22.6</ele>
        <time>2025-06-17T09:45:53Z</time>
      </trkpt>
      <trkpt lat="43.45289" lon="3.69087">
        <ele>22.6</ele>
        <time>2025-06-17T09:45:54Z</time>
      </trkpt>
      <trkpt lat="43.45294" lon="3.69086">
        <ele>22.6</ele>
        <time>2025-06-17T09:45:55Z</time>
      </trkpt>
      <trkpt lat="43.453" lon="3.69084">
        <ele>22.8</ele>
        <time>2025-06-17T09:45:56Z</time>
      </trkpt>
      <trkpt lat="43.45305" lon="3.69083">
        <ele>22.8</ele>
        <time>2025-06-17T09:45:57Z</time>
      </trkpt>
      <trkpt lat="43.45311" lon="3.69081">
        <ele>22.8</ele>
        <time>2025-06-17T09:45:58Z</time>
      </trkpt>
      <trkpt lat="43.45315" lon="3.6908">
        <ele>22.8</ele>
        <time>2025-06-17T09:45:59Z</time>
      </trkpt>
      <trkpt lat="43.4532" lon="3.69079">
        <ele>22.8</ele>
        <time>2025-06-17T09:46:00Z</time>
      </trkpt>
      <trkpt lat="43.45324" lon="3.69078">
        <ele>22.8</ele>
        <time>2025-06-17T09:46:01Z</time>
      </trkpt>
      <trkpt lat="43.45329" lon="3.69076">
        <ele>23</ele>
        <time>2025-06-17T09:46:02Z</time>
      </trkpt>
      <trkpt lat="43.45333" lon="3.69074">
        <ele>23</ele>
        <time>2025-06-17T09:46:03Z</time>
      </trkpt>
      <trkpt lat="43.45338" lon="3.69072">
        <ele>23</ele>
        <time>2025-06-17T09:46:04Z</time>
      </trkpt>
      <trkpt lat="43.45344" lon="3.69067">
        <ele>23</ele>
        <time>2025-06-17T09:46:05Z</time>
      </trkpt>
      <trkpt lat="43.4535" lon="3.69066">
        <ele>23</ele>
        <time>2025-06-17T09:46:06Z</time>
      </trkpt>
      <trkpt lat="43.45354" lon="3.69064">
        <ele>23</ele>
        <time>2025-06-17T09:46:07Z</time>
      </trkpt>
      <trkpt lat="43.45361" lon="3.69062">
        <ele>23</ele>
        <time>2025-06-17T09:46:08Z</time>
      </trkpt>
      <trkpt lat="43.45367" lon="3.6906">
        <ele>23</ele>
        <time>2025-06-17T09:46:09Z</time>
      </trkpt>
      <trkpt lat="43.45375" lon="3.69056">
        <ele>23</ele>
        <time>2025-06-17T09:46:10Z</time>
      </trkpt>
      <trkpt lat="43.45383" lon="3.69053">
        <ele>23</ele>
        <time>2025-06-17T09:46:11Z</time>
      </trkpt>
      <trkpt lat="43.45389" lon="3.6905">
        <ele>23.2</ele>
        <time>2025-06-17T09:46:12Z</time>
      </trkpt>
      <trkpt lat="43.45395" lon="3.69047">
        <ele>23.2</ele>
        <time>2025-06-17T09:46:13Z</time>
      </trkpt>
      <trkpt lat="43.45401" lon="3.69044">
        <ele>23.2</ele>
        <time>2025-06-17T09:46:14Z</time>
      </trkpt>
      <trkpt lat="43.45407" lon="3.69042">
        <ele>23.2</ele>
        <time>2025-06-17T09:46:15Z</time>
      </trkpt>
      <trkpt lat="43.45413" lon="3.69039">
        <ele>23.4</ele>
        <time>2025-06-17T09:46:16Z</time>
      </trkpt>
      <trkpt lat="43.45419" lon="3.69037">
        <ele>23.4</ele>
        <time>2025-06-17T09:46:17Z</time>
      </trkpt>
      <trkpt lat="43.45425" lon="3.69035">
        <ele>23.4</ele>
        <time>2025-06-17T09:46:18Z</time>
      </trkpt>
      <trkpt lat="43.45431" lon="3.69033">
        <ele>23.4</ele>
        <time>2025-06-17T09:46:19Z</time>
      </trkpt>
      <trkpt lat="43.45437" lon="3.6903">
        <ele>23.4</ele>
        <time>2025-06-17T09:46:20Z</time>
      </trkpt>
      <trkpt lat="43.45443" lon="3.69028">
        <ele>23.2</ele>
        <time>2025-06-17T09:46:21Z</time>
      </trkpt>
      <trkpt lat="43.45448" lon="3.69026">
        <ele>23.2</ele>
        <time>2025-06-17T09:46:22Z</time>
      </trkpt>
      <trkpt lat="43.45455" lon="3.69024">
        <ele>23.2</ele>
        <time>2025-06-17T09:46:23Z</time>
      </trkpt>
      <trkpt lat="43.45461" lon="3.69022">
        <ele>23.4</ele>
        <time>2025-06-17T09:46:24Z</time>
      </trkpt>
      <trkpt lat="43.45467" lon="3.6902">
        <ele>23.4</ele>
        <time>2025-06-17T09:46:25Z</time>
      </trkpt>
      <trkpt lat="43.45473" lon="3.69018">
        <ele>23.4</ele>
        <time>2025-06-17T09:46:26Z</time>
      </trkpt>
      <trkpt lat="43.45479" lon="3.69015">
        <ele>23.4</ele>
        <time>2025-06-17T09:46:27Z</time>
      </trkpt>
      <trkpt lat="43.45486" lon="3.69013">
        <ele>23.4</ele>
        <time>2025-06-17T09:46:28Z</time>
      </trkpt>
      <trkpt lat="43.45491" lon="3.69011">
        <ele>23.4</ele>
        <time>2025-06-17T09:46:29Z</time>
      </trkpt>
      <trkpt lat="43.45498" lon="3.69009">
        <ele>23.6</ele>
        <time>2025-06-17T09:46:30Z</time>
      </trkpt>
      <trkpt lat="43.45502" lon="3.69007">
        <ele>23.6</ele>
        <time>2025-06-17T09:46:31Z</time>
      </trkpt>
      <trkpt lat="43.45509" lon="3.69004">
        <ele>23.6</ele>
        <time>2025-06-17T09:46:32Z</time>
      </trkpt>
      <trkpt lat="43.45515" lon="3.69002">
        <ele>23.6</ele>
        <time>2025-06-17T09:46:33Z</time>
      </trkpt>
      <trkpt lat="43.45522" lon="3.68999">
        <ele>23.8</ele>
        <time>2025-06-17T09:46:34Z</time>
      </trkpt>
      <trkpt lat="43.45527" lon="3.68997">
        <ele>23.8</ele>
        <time>2025-06-17T09:46:35Z</time>
      </trkpt>
      <trkpt lat="43.45534" lon="3.68995">
        <ele>23.8</ele>
        <time>2025-06-17T09:46:36Z</time>
      </trkpt>
      <trkpt lat="43.45539" lon="3.68993">
        <ele>23.8</ele>
        <time>2025-06-17T09:46:37Z</time>
      </trkpt>
      <trkpt lat="43.45545" lon="3.68992">
        <ele>23.8</ele>
        <time>2025-06-17T09:46:38Z</time>
      </trkpt>
      <trkpt lat="43.45551" lon="3.6899">
        <ele>23.8</ele>
        <time>2025-06-17T09:46:39Z</time>
      </trkpt>
      <trkpt lat="43.45557" lon="3.68988">
        <ele>23.8</ele>
        <time>2025-06-17T09:46:40Z</time>
      </trkpt>
      <trkpt lat="43.45563" lon="3.68986">
        <ele>23.8</ele>
        <time>2025-06-17T09:46:41Z</time>
      </trkpt>
      <trkpt lat="43.45568" lon="3.68984">
        <ele>24</ele>
        <time>2025-06-17T09:46:42Z</time>
      </trkpt>
      <trkpt lat="43.45574" lon="3.68982">
        <ele>24</ele>
        <time>2025-06-17T09:46:43Z</time>
      </trkpt>
      <trkpt lat="43.4558" lon="3.6898">
        <ele>24</ele>
        <time>2025-06-17T09:46:44Z</time>
      </trkpt>
      <trkpt lat="43.45585" lon="3.68978">
        <ele>24</ele>
        <time>2025-06-17T09:46:45Z</time>
      </trkpt>
      <trkpt lat="43.45591" lon="3.68977">
        <ele>24</ele>
        <time>2025-06-17T09:46:46Z</time>
      </trkpt>
      <trkpt lat="43.45596" lon="3.68975">
        <ele>24</ele>
        <time>2025-06-17T09:46:47Z</time>
      </trkpt>
      <trkpt lat="43.45602" lon="3.68973">
        <ele>24</ele>
        <time>2025-06-17T09:46:48Z</time>
      </trkpt>
      <trkpt lat="43.45607" lon="3.68971">
        <ele>24</ele>
        <time>2025-06-17T09:46:49Z</time>
      </trkpt>
      <trkpt lat="43.45613" lon="3.68969">
        <ele>24.2</ele>
        <time>2025-06-17T09:46:50Z</time>
      </trkpt>
      <trkpt lat="43.45618" lon="3.68967">
        <ele>24.2</ele>
        <time>2025-06-17T09:46:51Z</time>
      </trkpt>
      <trkpt lat="43.45624" lon="3.68965">
        <ele>24.2</ele>
        <time>2025-06-17T09:46:52Z</time>
      </trkpt>
      <trkpt lat="43.4563" lon="3.68963">
        <ele>24.2</ele>
        <time>2025-06-17T09:46:53Z</time>
      </trkpt>
      <trkpt lat="43.45635" lon="3.68961">
        <ele>24.2</ele>
        <time>2025-06-17T09:46:54Z</time>
      </trkpt>
      <trkpt lat="43.4564" lon="3.6896">
        <ele>24.2</ele>
        <time>2025-06-17T09:46:55Z</time>
      </trkpt>
      <trkpt lat="43.45646" lon="3.68958">
        <ele>24.2</ele>
        <time>2025-06-17T09:46:56Z</time>
      </trkpt>
      <trkpt lat="43.45651" lon="3.68956">
        <ele>24.2</ele>
        <time>2025-06-17T09:46:57Z</time>
      </trkpt>
      <trkpt lat="43.45658" lon="3.68954">
        <ele>24.4</ele>
        <time>2025-06-17T09:46:58Z</time>
      </trkpt>
      <trkpt lat="43.45664" lon="3.68952">
        <ele>24.4</ele>
        <time>2025-06-17T09:46:59Z</time>
      </trkpt>
      <trkpt lat="43.4567" lon="3.68949">
        <ele>24.4</ele>
        <time>2025-06-17T09:47:00Z</time>
      </trkpt>
      <trkpt lat="43.45675" lon="3.68947">
        <ele>24.4</ele>
        <time>2025-06-17T09:47:01Z</time>
      </trkpt>
      <trkpt lat="43.45681" lon="3.68944">
        <ele>24.4</ele>
        <time>2025-06-17T09:47:02Z</time>
      </trkpt>
      <trkpt lat="43.45687" lon="3.68942">
        <ele>24.4</ele>
        <time>2025-06-17T09:47:03Z</time>
      </trkpt>
      <trkpt lat="43.45693" lon="3.6894">
        <ele>24.4</ele>
        <time>2025-06-17T09:47:04Z</time>
      </trkpt>
      <trkpt lat="43.45699" lon="3.68939">
        <ele>24.6</ele>
        <time>2025-06-17T09:47:05Z</time>
      </trkpt>
      <trkpt lat="43.45705" lon="3.68937">
        <ele>24.6</ele>
        <time>2025-06-17T09:47:06Z</time>
      </trkpt>
      <trkpt lat="43.4571" lon="3.68934">
        <ele>24.6</ele>
        <time>2025-06-17T09:47:07Z</time>
      </trkpt>
      <trkpt lat="43.45716" lon="3.68932">
        <ele>24.6</ele>
        <time>2025-06-17T09:47:08Z</time>
      </trkpt>
      <trkpt lat="43.45721" lon="3.6893">
        <ele>24.6</ele>
        <time>2025-06-17T09:47:09Z</time>
      </trkpt>
      <trkpt lat="43.45727" lon="3.68928">
        <ele>24.6</ele>
        <time>2025-06-17T09:47:10Z</time>
      </trkpt>
      <trkpt lat="43.45733" lon="3.68926">
        <ele>24.6</ele>
        <time>2025-06-17T09:47:11Z</time>
      </trkpt>
      <trkpt lat="43.45739" lon="3.68924">
        <ele>24.6</ele>
        <time>2025-06-17T09:47:12Z</time>
      </trkpt>
      <trkpt lat="43.45745" lon="3.68922">
        <ele>24.6</ele>
        <time>2025-06-17T09:47:13Z</time>
      </trkpt>
      <trkpt lat="43.45751" lon="3.6892">
        <ele>24.8</ele>
        <time>2025-06-17T09:47:14Z</time>
      </trkpt>
      <trkpt lat="43.45757" lon="3.68917">
        <ele>24.8</ele>
        <time>2025-06-17T09:47:15Z</time>
      </trkpt>
      <trkpt lat="43.45762" lon="3.68915">
        <ele>24.8</ele>
        <time>2025-06-17T09:47:16Z</time>
      </trkpt>
      <trkpt lat="43.45768" lon="3.68913">
        <ele>25</ele>
        <time>2025-06-17T09:47:17Z</time>
      </trkpt>
      <trkpt lat="43.45774" lon="3.68911">
        <ele>25</ele>
        <time>2025-06-17T09:47:18Z</time>
      </trkpt>
      <trkpt lat="43.4578" lon="3.68908">
        <ele>25</ele>
        <time>2025-06-17T09:47:19Z</time>
      </trkpt>
      <trkpt lat="43.45786" lon="3.68906">
        <ele>25</ele>
        <time>2025-06-17T09:47:20Z</time>
      </trkpt>
      <trkpt lat="43.45791" lon="3.68904">
        <ele>25</ele>
        <time>2025-06-17T09:47:21Z</time>
      </trkpt>
      <trkpt lat="43.45798" lon="3.68901">
        <ele>25</ele>
        <time>2025-06-17T09:47:22Z</time>
      </trkpt>
      <trkpt lat="43.45803" lon="3.68899">
        <ele>25.2</ele>
        <time>2025-06-17T09:47:23Z</time>
      </trkpt>
      <trkpt lat="43.45809" lon="3.68897">
        <ele>25.2</ele>
        <time>2025-06-17T09:47:24Z</time>
      </trkpt>
      <trkpt lat="43.45815" lon="3.68895">
        <ele>25.2</ele>
        <time>2025-06-17T09:47:25Z</time>
      </trkpt>
      <trkpt lat="43.4582" lon="3.68893">
        <ele>25.2</ele>
        <time>2025-06-17T09:47:26Z</time>
      </trkpt>
      <trkpt lat="43.45826" lon="3.68891">
        <ele>25.2</ele>
        <time>2025-06-17T09:47:27Z</time>
      </trkpt>
      <trkpt lat="43.45831" lon="3.68889">
        <ele>25.2</ele>
        <time>2025-06-17T09:47:28Z</time>
      </trkpt>
      <trkpt lat="43.45836" lon="3.68888">
        <ele>25.2</ele>
        <time>2025-06-17T09:47:29Z</time>
      </trkpt>
      <trkpt lat="43.45842" lon="3.68885">
        <ele>25.4</ele>
        <time>2025-06-17T09:47:30Z</time>
      </trkpt>
      <trkpt lat="43.45847" lon="3.68883">
        <ele>25.4</ele>
        <time>2025-06-17T09:47:31Z</time>
      </trkpt>
      <trkpt lat="43.45852" lon="3.68881">
        <ele>25.4</ele>
        <time>2025-06-17T09:47:32Z</time>
      </trkpt>
      <trkpt lat="43.45858" lon="3.6888">
        <ele>25.4</ele>
        <time>2025-06-17T09:47:33Z</time>
      </trkpt>
      <trkpt lat="43.45863" lon="3.6888">
        <ele>25.6</ele>
        <time>2025-06-17T09:47:34Z</time>
      </trkpt>
      <trkpt lat="43.45869" lon="3.68878">
        <ele>25.6</ele>
        <time>2025-06-17T09:47:35Z</time>
      </trkpt>
      <trkpt lat="43.45874" lon="3.68876">
        <ele>25.6</ele>
        <time>2025-06-17T09:47:36Z</time>
      </trkpt>
      <trkpt lat="43.45879" lon="3.68873">
        <ele>25.6</ele>
        <time>2025-06-17T09:47:37Z</time>
      </trkpt>
      <trkpt lat="43.45885" lon="3.68871">
        <ele>25.8</ele>
        <time>2025-06-17T09:47:38Z</time>
      </trkpt>
      <trkpt lat="43.45891" lon="3.68869">
        <ele>25.8</ele>
        <time>2025-06-17T09:47:39Z</time>
      </trkpt>
      <trkpt lat="43.45897" lon="3.68867">
        <ele>25.6</ele>
        <time>2025-06-17T09:47:40Z</time>
      </trkpt>
      <trkpt lat="43.45902" lon="3.68865">
        <ele>25.6</ele>
        <time>2025-06-17T09:47:41Z</time>
      </trkpt>
      <trkpt lat="43.45908" lon="3.68863">
        <ele>25.6</ele>
        <time>2025-06-17T09:47:42Z</time>
      </trkpt>
      <trkpt lat="43.45914" lon="3.68861">
        <ele>25.8</ele>
        <time>2025-06-17T09:47:43Z</time>
      </trkpt>
      <trkpt lat="43.45919" lon="3.68859">
        <ele>25.8</ele>
        <time>2025-06-17T09:47:44Z</time>
      </trkpt>
      <trkpt lat="43.45924" lon="3.68857">
        <ele>26</ele>
        <time>2025-06-17T09:47:45Z</time>
      </trkpt>
      <trkpt lat="43.45929" lon="3.68855">
        <ele>26</ele>
        <time>2025-06-17T09:47:46Z</time>
      </trkpt>
      <trkpt lat="43.45934" lon="3.68853">
        <ele>26</ele>
        <time>2025-06-17T09:47:47Z</time>
      </trkpt>
      <trkpt lat="43.45938" lon="3.68851">
        <ele>26</ele>
        <time>2025-06-17T09:47:48Z</time>
      </trkpt>
      <trkpt lat="43.45941" lon="3.6885">
        <ele>26.2</ele>
        <time>2025-06-17T09:47:49Z</time>
      </trkpt>
      <trkpt lat="43.45943" lon="3.68849">
        <ele>26.2</ele>
        <time>2025-06-17T09:47:50Z</time>
      </trkpt>
      <trkpt lat="43.45944" lon="3.68849">
        <ele>26.2</ele>
        <time>2025-06-17T09:47:51Z</time>
      </trkpt>
      <trkpt lat="43.45947" lon="3.68849">
        <ele>26.4</ele>
        <time>2025-06-17T09:47:52Z</time>
      </trkpt>
      <trkpt lat="43.45949" lon="3.68849">
        <ele>26.4</ele>
        <time>2025-06-17T09:47:53Z</time>
      </trkpt>
      <trkpt lat="43.45952" lon="3.6885">
        <ele>26.4</ele>
        <time>2025-06-17T09:47:54Z</time>
      </trkpt>
      <trkpt lat="43.45955" lon="3.68851">
        <ele>26.4</ele>
        <time>2025-06-17T09:47:55Z</time>
      </trkpt>
      <trkpt lat="43.45959" lon="3.68852">
        <ele>26.6</ele>
        <time>2025-06-17T09:47:56Z</time>
      </trkpt>
      <trkpt lat="43.45962" lon="3.68852">
        <ele>26.6</ele>
        <time>2025-06-17T09:47:57Z</time>
      </trkpt>
      <trkpt lat="43.45964" lon="3.68851">
        <ele>26.8</ele>
        <time>2025-06-17T09:47:58Z</time>
      </trkpt>
      <trkpt lat="43.45966" lon="3.68849">
        <ele>27</ele>
        <time>2025-06-17T09:47:59Z</time>
      </trkpt>
      <trkpt lat="43.45969" lon="3.68846">
        <ele>27.2</ele>
        <time>2025-06-17T09:48:00Z</time>
      </trkpt>
      <trkpt lat="43.45972" lon="3.68844">
        <ele>27.2</ele>
        <time>2025-06-17T09:48:01Z</time>
      </trkpt>
      <trkpt lat="43.45975" lon="3.68842">
        <ele>27.4</ele>
        <time>2025-06-17T09:48:02Z</time>
      </trkpt>
      <trkpt lat="43.45978" lon="3.6884">
        <ele>27.4</ele>
        <time>2025-06-17T09:48:03Z</time>
      </trkpt>
      <trkpt lat="43.45983" lon="3.68839">
        <ele>27.6</ele>
        <time>2025-06-17T09:48:04Z</time>
      </trkpt>
      <trkpt lat="43.45986" lon="3.68838">
        <ele>27.6</ele>
        <time>2025-06-17T09:48:05Z</time>
      </trkpt>
      <trkpt lat="43.45991" lon="3.68837">
        <ele>27.8</ele>
        <time>2025-06-17T09:48:06Z</time>
      </trkpt>
      <trkpt lat="43.45995" lon="3.68836">
        <ele>27.8</ele>
        <time>2025-06-17T09:48:07Z</time>
      </trkpt>
      <trkpt lat="43.46" lon="3.68835">
        <ele>27.8</ele>
        <time>2025-06-17T09:48:08Z</time>
      </trkpt>
      <trkpt lat="43.46004" lon="3.68834">
        <ele>27.8</ele>
        <time>2025-06-17T09:48:09Z</time>
      </trkpt>
      <trkpt lat="43.46008" lon="3.68832">
        <ele>27.8</ele>
        <time>2025-06-17T09:48:10Z</time>
      </trkpt>
      <trkpt lat="43.46012" lon="3.68831">
        <ele>27.8</ele>
        <time>2025-06-17T09:48:11Z</time>
      </trkpt>
      <trkpt lat="43.46017" lon="3.68829">
        <ele>28</ele>
        <time>2025-06-17T09:48:12Z</time>
      </trkpt>
      <trkpt lat="43.46021" lon="3.68828">
        <ele>28</ele>
        <time>2025-06-17T09:48:13Z</time>
      </trkpt>
      <trkpt lat="43.46025" lon="3.68828">
        <ele>28</ele>
        <time>2025-06-17T09:48:14Z</time>
      </trkpt>
      <trkpt lat="43.4603" lon="3.68827">
        <ele>28.2</ele>
        <time>2025-06-17T09:48:15Z</time>
      </trkpt>
      <trkpt lat="43.46033" lon="3.68826">
        <ele>28.2</ele>
        <time>2025-06-17T09:48:16Z</time>
      </trkpt>
      <trkpt lat="43.46038" lon="3.68825">
        <ele>28.2</ele>
        <time>2025-06-17T09:48:17Z</time>
      </trkpt>
      <trkpt lat="43.46042" lon="3.68825">
        <ele>28.2</ele>
        <time>2025-06-17T09:48:18Z</time>
      </trkpt>
      <trkpt lat="43.46046" lon="3.68824">
        <ele>28.2</ele>
        <time>2025-06-17T09:48:19Z</time>
      </trkpt>
      <trkpt lat="43.46051" lon="3.68824">
        <ele>28.2</ele>
        <time>2025-06-17T09:48:20Z</time>
      </trkpt>
      <trkpt lat="43.46056" lon="3.68824">
        <ele>28.2</ele>
        <time>2025-06-17T09:48:21Z</time>
      </trkpt>
      <trkpt lat="43.4606" lon="3.68824">
        <ele>28.2</ele>
        <time>2025-06-17T09:48:22Z</time>
      </trkpt>
      <trkpt lat="43.46065" lon="3.68824">
        <ele>28.2</ele>
        <time>2025-06-17T09:48:23Z</time>
      </trkpt>
      <trkpt lat="43.4607" lon="3.68825">
        <ele>28.2</ele>
        <time>2025-06-17T09:48:24Z</time>
      </trkpt>
      <trkpt lat="43.46074" lon="3.68825">
        <ele>28.4</ele>
        <time>2025-06-17T09:48:25Z</time>
      </trkpt>
      <trkpt lat="43.46079" lon="3.68826">
        <ele>28.4</ele>
        <time>2025-06-17T09:48:26Z</time>
      </trkpt>
      <trkpt lat="43.46084" lon="3.68826">
        <ele>28.4</ele>
        <time>2025-06-17T09:48:27Z</time>
      </trkpt>
      <trkpt lat="43.46088" lon="3.68827">
        <ele>28.4</ele>
        <time>2025-06-17T09:48:28Z</time>
      </trkpt>
      <trkpt lat="43.46093" lon="3.68827">
        <ele>28.4</ele>
        <time>2025-06-17T09:48:29Z</time>
      </trkpt>
      <trkpt lat="43.46098" lon="3.68827">
        <ele>28.4</ele>
        <time>2025-06-17T09:48:30Z</time>
      </trkpt>
      <trkpt lat="43.46104" lon="3.68828">
        <ele>28.2</ele>
        <time>2025-06-17T09:48:31Z</time>
      </trkpt>
      <trkpt lat="43.46109" lon="3.68828">
        <ele>28.2</ele>
        <time>2025-06-17T09:48:32Z</time>
      </trkpt>
      <trkpt lat="43.46114" lon="3.68829">
        <ele>28.2</ele>
        <time>2025-06-17T09:48:33Z</time>
      </trkpt>
      <trkpt lat="43.46119" lon="3.68829">
        <ele>28</ele>
        <time>2025-06-17T09:48:34Z</time>
      </trkpt>
      <trkpt lat="43.46125" lon="3.6883">
        <ele>28</ele>
        <time>2025-06-17T09:48:35Z</time>
      </trkpt>
      <trkpt lat="43.4613" lon="3.6883">
        <ele>27.8</ele>
        <time>2025-06-17T09:48:36Z</time>
      </trkpt>
      <trkpt lat="43.46136" lon="3.68831">
        <ele>27.8</ele>
        <time>2025-06-17T09:48:37Z</time>
      </trkpt>
      <trkpt lat="43.46142" lon="3.68831">
        <ele>27.8</ele>
        <time>2025-06-17T09:48:38Z</time>
      </trkpt>
      <trkpt lat="43.46147" lon="3.68832">
        <ele>27.8</ele>
        <time>2025-06-17T09:48:39Z</time>
      </trkpt>
      <trkpt lat="43.46153" lon="3.68833">
        <ele>27.8</ele>
        <time>2025-06-17T09:48:40Z</time>
      </trkpt>
      <trkpt lat="43.46159" lon="3.68835">
        <ele>27.8</ele>
        <time>2025-06-17T09:48:41Z</time>
      </trkpt>
      <trkpt lat="43.46165" lon="3.68837">
        <ele>27.8</ele>
        <time>2025-06-17T09:48:42Z</time>
      </trkpt>
      <trkpt lat="43.4617" lon="3.68839">
        <ele>27.8</ele>
        <time>2025-06-17T09:48:43Z</time>
      </trkpt>
      <trkpt lat="43.46176" lon="3.68841">
        <ele>27.8</ele>
        <time>2025-06-17T09:48:44Z</time>
      </trkpt>
      <trkpt lat="43.46182" lon="3.68844">
        <ele>27.8</ele>
        <time>2025-06-17T09:48:45Z</time>
      </trkpt>
      <trkpt lat="43.46188" lon="3.68846">
        <ele>27.8</ele>
        <time>2025-06-17T09:48:46Z</time>
      </trkpt>
      <trkpt lat="43.46194" lon="3.68847">
        <ele>27.8</ele>
        <time>2025-06-17T09:48:47Z</time>
      </trkpt>
      <trkpt lat="43.462" lon="3.6885">
        <ele>27.8</ele>
        <time>2025-06-17T09:48:48Z</time>
      </trkpt>
      <trkpt lat="43.46205" lon="3.68852">
        <ele>27.8</ele>
        <time>2025-06-17T09:48:49Z</time>
      </trkpt>
      <trkpt lat="43.46211" lon="3.68854">
        <ele>27.6</ele>
        <time>2025-06-17T09:48:50Z</time>
      </trkpt>
      <trkpt lat="43.46216" lon="3.68856">
        <ele>27.6</ele>
        <time>2025-06-17T09:48:51Z</time>
      </trkpt>
      <trkpt lat="43.46223" lon="3.68859">
        <ele>27.4</ele>
        <time>2025-06-17T09:48:52Z</time>
      </trkpt>
      <trkpt lat="43.46229" lon="3.68862">
        <ele>27.4</ele>
        <time>2025-06-17T09:48:53Z</time>
      </trkpt>
      <trkpt lat="43.46234" lon="3.68864">
        <ele>27.6</ele>
        <time>2025-06-17T09:48:54Z</time>
      </trkpt>
      <trkpt lat="43.4624" lon="3.68867">
        <ele>27.4</ele>
        <time>2025-06-17T09:48:55Z</time>
      </trkpt>
      <trkpt lat="43.46245" lon="3.68869">
        <ele>27.4</ele>
        <time>2025-06-17T09:48:56Z</time>
      </trkpt>
      <trkpt lat="43.46251" lon="3.68872">
        <ele>27.4</ele>
        <time>2025-06-17T09:48:57Z</time>
      </trkpt>
      <trkpt lat="43.46257" lon="3.68874">
        <ele>27.4</ele>
        <time>2025-06-17T09:48:58Z</time>
      </trkpt>
      <trkpt lat="43.46262" lon="3.68877">
        <ele>27.6</ele>
        <time>2025-06-17T09:48:59Z</time>
      </trkpt>
      <trkpt lat="43.46268" lon="3.68879">
        <ele>27.6</ele>
        <time>2025-06-17T09:49:00Z</time>
      </trkpt>
      <trkpt lat="43.46274" lon="3.68882">
        <ele>27.6</ele>
        <time>2025-06-17T09:49:01Z</time>
      </trkpt>
      <trkpt lat="43.46279" lon="3.68885">
        <ele>27.8</ele>
        <time>2025-06-17T09:49:02Z</time>
      </trkpt>
      <trkpt lat="43.46286" lon="3.68888">
        <ele>27.8</ele>
        <time>2025-06-17T09:49:03Z</time>
      </trkpt>
      <trkpt lat="43.46291" lon="3.6889">
        <ele>27.8</ele>
        <time>2025-06-17T09:49:04Z</time>
      </trkpt>
      <trkpt lat="43.46298" lon="3.68892">
        <ele>27.8</ele>
        <time>2025-06-17T09:49:05Z</time>
      </trkpt>
      <trkpt lat="43.46303" lon="3.68894">
        <ele>28</ele>
        <time>2025-06-17T09:49:06Z</time>
      </trkpt>
      <trkpt lat="43.46309" lon="3.68896">
        <ele>28</ele>
        <time>2025-06-17T09:49:07Z</time>
      </trkpt>
      <trkpt lat="43.46315" lon="3.68898">
        <ele>28</ele>
        <time>2025-06-17T09:49:08Z</time>
      </trkpt>
      <trkpt lat="43.46321" lon="3.689">
        <ele>28</ele>
        <time>2025-06-17T09:49:09Z</time>
      </trkpt>
      <trkpt lat="43.46327" lon="3.68903">
        <ele>28</ele>
        <time>2025-06-17T09:49:10Z</time>
      </trkpt>
      <trkpt lat="43.46333" lon="3.68905">
        <ele>28</ele>
        <time>2025-06-17T09:49:11Z</time>
      </trkpt>
      <trkpt lat="43.46339" lon="3.68907">
        <ele>28</ele>
        <time>2025-06-17T09:49:12Z</time>
      </trkpt>
      <trkpt lat="43.46345" lon="3.68909">
        <ele>28</ele>
        <time>2025-06-17T09:49:13Z</time>
      </trkpt>
      <trkpt lat="43.46351" lon="3.68912">
        <ele>28</ele>
        <time>2025-06-17T09:49:14Z</time>
      </trkpt>
      <trkpt lat="43.46357" lon="3.68914">
        <ele>28</ele>
        <time>2025-06-17T09:49:15Z</time>
      </trkpt>
      <trkpt lat="43.46363" lon="3.68916">
        <ele>28</ele>
        <time>2025-06-17T09:49:16Z</time>
      </trkpt>
      <trkpt lat="43.46368" lon="3.68919">
        <ele>28</ele>
        <time>2025-06-17T09:49:17Z</time>
      </trkpt>
      <trkpt lat="43.46374" lon="3.68921">
        <ele>28</ele>
        <time>2025-06-17T09:49:18Z</time>
      </trkpt>
      <trkpt lat="43.4638" lon="3.68923">
        <ele>28</ele>
        <time>2025-06-17T09:49:19Z</time>
      </trkpt>
      <trkpt lat="43.46386" lon="3.68926">
        <ele>28.2</ele>
        <time>2025-06-17T09:49:20Z</time>
      </trkpt>
      <trkpt lat="43.46392" lon="3.68928">
        <ele>28.2</ele>
        <time>2025-06-17T09:49:21Z</time>
      </trkpt>
      <trkpt lat="43.46397" lon="3.6893">
        <ele>28.4</ele>
        <time>2025-06-17T09:49:22Z</time>
      </trkpt>
      <trkpt lat="43.46402" lon="3.68932">
        <ele>28.4</ele>
        <time>2025-06-17T09:49:23Z</time>
      </trkpt>
      <trkpt lat="43.46407" lon="3.68933">
        <ele>28.6</ele>
        <time>2025-06-17T09:49:24Z</time>
      </trkpt>
      <trkpt lat="43.46412" lon="3.68933">
        <ele>28.6</ele>
        <time>2025-06-17T09:49:25Z</time>
      </trkpt>
      <trkpt lat="43.46415" lon="3.68932">
        <ele>28.8</ele>
        <time>2025-06-17T09:49:26Z</time>
      </trkpt>
      <trkpt lat="43.46419" lon="3.6893">
        <ele>28.8</ele>
        <time>2025-06-17T09:49:27Z</time>
      </trkpt>
      <trkpt lat="43.46422" lon="3.6893">
        <ele>28.8</ele>
        <time>2025-06-17T09:49:28Z</time>
      </trkpt>
      <trkpt lat="43.46424" lon="3.68929">
        <ele>28.8</ele>
        <time>2025-06-17T09:49:29Z</time>
      </trkpt>
      <trkpt lat="43.46425" lon="3.68929">
        <ele>29</ele>
        <time>2025-06-17T09:49:30Z</time>
      </trkpt>
      <trkpt lat="43.46427" lon="3.68929">
        <ele>29</ele>
        <time>2025-06-17T09:49:31Z</time>
      </trkpt>
      <trkpt lat="43.4643" lon="3.68928">
        <ele>28.8</ele>
        <time>2025-06-17T09:49:32Z</time>
      </trkpt>
      <trkpt lat="43.46433" lon="3.68927">
        <ele>28.8</ele>
        <time>2025-06-17T09:49:33Z</time>
      </trkpt>
      <trkpt lat="43.46436" lon="3.68926">
        <ele>28.8</ele>
        <time>2025-06-17T09:49:34Z</time>
      </trkpt>
      <trkpt lat="43.4644" lon="3.68925">
        <ele>28.8</ele>
        <time>2025-06-17T09:49:35Z</time>
      </trkpt>
      <trkpt lat="43.46444" lon="3.68925">
        <ele>28.6</ele>
        <time>2025-06-17T09:49:36Z</time>
      </trkpt>
      <trkpt lat="43.46449" lon="3.68926">
        <ele>28.6</ele>
        <time>2025-06-17T09:49:37Z</time>
      </trkpt>
      <trkpt lat="43.46454" lon="3.68927">
        <ele>28.4</ele>
        <time>2025-06-17T09:49:38Z</time>
      </trkpt>
      <trkpt lat="43.46458" lon="3.6893">
        <ele>28.4</ele>
        <time>2025-06-17T09:49:39Z</time>
      </trkpt>
      <trkpt lat="43.46462" lon="3.68935">
        <ele>28.4</ele>
        <time>2025-06-17T09:49:40Z</time>
      </trkpt>
      <trkpt lat="43.46465" lon="3.6894">
        <ele>28.4</ele>
        <time>2025-06-17T09:49:41Z</time>
      </trkpt>
      <trkpt lat="43.46468" lon="3.68946">
        <ele>28.4</ele>
        <time>2025-06-17T09:49:42Z</time>
      </trkpt>
      <trkpt lat="43.4647" lon="3.68952">
        <ele>28.4</ele>
        <time>2025-06-17T09:49:43Z</time>
      </trkpt>
      <trkpt lat="43.46473" lon="3.68957">
        <ele>28.4</ele>
        <time>2025-06-17T09:49:44Z</time>
      </trkpt>
      <trkpt lat="43.46475" lon="3.68963">
        <ele>28.4</ele>
        <time>2025-06-17T09:49:45Z</time>
      </trkpt>
      <trkpt lat="43.46479" lon="3.68968">
        <ele>28.6</ele>
        <time>2025-06-17T09:49:46Z</time>
      </trkpt>
      <trkpt lat="43.46483" lon="3.68972">
        <ele>28.6</ele>
        <time>2025-06-17T09:49:47Z</time>
      </trkpt>
      <trkpt lat="43.46489" lon="3.68975">
        <ele>28.6</ele>
        <time>2025-06-17T09:49:48Z</time>
      </trkpt>
      <trkpt lat="43.46494" lon="3.68977">
        <ele>28.6</ele>
        <time>2025-06-17T09:49:49Z</time>
      </trkpt>
      <trkpt lat="43.465" lon="3.6898">
        <ele>28.4</ele>
        <time>2025-06-17T09:49:50Z</time>
      </trkpt>
      <trkpt lat="43.46506" lon="3.68981">
        <ele>28.4</ele>
        <time>2025-06-17T09:49:51Z</time>
      </trkpt>
      <trkpt lat="43.46512" lon="3.68982">
        <ele>28.2</ele>
        <time>2025-06-17T09:49:52Z</time>
      </trkpt>
      <trkpt lat="43.46519" lon="3.68981">
        <ele>28.2</ele>
        <time>2025-06-17T09:49:53Z</time>
      </trkpt>
      <trkpt lat="43.46523" lon="3.68981">
        <ele>28</ele>
        <time>2025-06-17T09:49:54Z</time>
      </trkpt>
      <trkpt lat="43.4653" lon="3.6898">
        <ele>28</ele>
        <time>2025-06-17T09:49:55Z</time>
      </trkpt>
      <trkpt lat="43.46535" lon="3.6898">
        <ele>28</ele>
        <time>2025-06-17T09:49:56Z</time>
      </trkpt>
      <trkpt lat="43.4654" lon="3.68981">
        <ele>28</ele>
        <time>2025-06-17T09:49:57Z</time>
      </trkpt>
      <trkpt lat="43.46545" lon="3.68983">
        <ele>28</ele>
        <time>2025-06-17T09:49:58Z</time>
      </trkpt>
      <trkpt lat="43.4655" lon="3.68986">
        <ele>28.2</ele>
        <time>2025-06-17T09:49:59Z</time>
      </trkpt>
      <trkpt lat="43.46555" lon="3.68989">
        <ele>28.2</ele>
        <time>2025-06-17T09:50:00Z</time>
      </trkpt>
      <trkpt lat="43.4656" lon="3.68991">
        <ele>28.4</ele>
        <time>2025-06-17T09:50:01Z</time>
      </trkpt>
      <trkpt lat="43.46565" lon="3.68994">
        <ele>28.4</ele>
        <time>2025-06-17T09:50:02Z</time>
      </trkpt>
      <trkpt lat="43.4657" lon="3.68997">
        <ele>28.4</ele>
        <time>2025-06-17T09:50:03Z</time>
      </trkpt>
      <trkpt lat="43.46575" lon="3.69">
        <ele>28.4</ele>
        <time>2025-06-17T09:50:04Z</time>
      </trkpt>
      <trkpt lat="43.46581" lon="3.69002">
        <ele>28.4</ele>
        <time>2025-06-17T09:50:05Z</time>
      </trkpt>
      <trkpt lat="43.46586" lon="3.69004">
        <ele>28.4</ele>
        <time>2025-06-17T09:50:06Z</time>
      </trkpt>
      <trkpt lat="43.46592" lon="3.69006">
        <ele>28.4</ele>
        <time>2025-06-17T09:50:07Z</time>
      </trkpt>
      <trkpt lat="43.46598" lon="3.69009">
        <ele>28.4</ele>
        <time>2025-06-17T09:50:08Z</time>
      </trkpt>
      <trkpt lat="43.46603" lon="3.69011">
        <ele>28.4</ele>
        <time>2025-06-17T09:50:09Z</time>
      </trkpt>
      <trkpt lat="43.46609" lon="3.69014">
        <ele>28.2</ele>
        <time>2025-06-17T09:50:10Z</time>
      </trkpt>
      <trkpt lat="43.46614" lon="3.69016">
        <ele>28.2</ele>
        <time>2025-06-17T09:50:11Z</time>
      </trkpt>
      <trkpt lat="43.4662" lon="3.69019">
        <ele>28.2</ele>
        <time>2025-06-17T09:50:12Z</time>
      </trkpt>
      <trkpt lat="43.46627" lon="3.6902">
        <ele>28</ele>
        <time>2025-06-17T09:50:13Z</time>
      </trkpt>
      <trkpt lat="43.46633" lon="3.69022">
        <ele>28</ele>
        <time>2025-06-17T09:50:14Z</time>
      </trkpt>
      <trkpt lat="43.4664" lon="3.69024">
        <ele>28</ele>
        <time>2025-06-17T09:50:15Z</time>
      </trkpt>
      <trkpt lat="43.46646" lon="3.69026">
        <ele>27.8</ele>
        <time>2025-06-17T09:50:16Z</time>
      </trkpt>
      <trkpt lat="43.46652" lon="3.69028">
        <ele>27.8</ele>
        <time>2025-06-17T09:50:17Z</time>
      </trkpt>
      <trkpt lat="43.46659" lon="3.6903">
        <ele>27.6</ele>
        <time>2025-06-17T09:50:18Z</time>
      </trkpt>
      <trkpt lat="43.46665" lon="3.69032">
        <ele>27.6</ele>
        <time>2025-06-17T09:50:19Z</time>
      </trkpt>
      <trkpt lat="43.46672" lon="3.69034">
        <ele>27.6</ele>
        <time>2025-06-17T09:50:20Z</time>
      </trkpt>
      <trkpt lat="43.46678" lon="3.69035">
        <ele>27.6</ele>
        <time>2025-06-17T09:50:21Z</time>
      </trkpt>
      <trkpt lat="43.46684" lon="3.69035">
        <ele>27.6</ele>
        <time>2025-06-17T09:50:22Z</time>
      </trkpt>
      <trkpt lat="43.4669" lon="3.69034">
        <ele>27.6</ele>
        <time>2025-06-17T09:50:23Z</time>
      </trkpt>
      <trkpt lat="43.46696" lon="3.69033">
        <ele>27.6</ele>
        <time>2025-06-17T09:50:24Z</time>
      </trkpt>
      <trkpt lat="43.46702" lon="3.6903">
        <ele>27.4</ele>
        <time>2025-06-17T09:50:25Z</time>
      </trkpt>
      <trkpt lat="43.46707" lon="3.69028">
        <ele>27.4</ele>
        <time>2025-06-17T09:50:26Z</time>
      </trkpt>
      <trkpt lat="43.46712" lon="3.69026">
        <ele>27.2</ele>
        <time>2025-06-17T09:50:27Z</time>
      </trkpt>
      <trkpt lat="43.46717" lon="3.69024">
        <ele>26.8</ele>
        <time>2025-06-17T09:50:28Z</time>
      </trkpt>
      <trkpt lat="43.46723" lon="3.69022">
        <ele>26.6</ele>
        <time>2025-06-17T09:50:29Z</time>
      </trkpt>
      <trkpt lat="43.46729" lon="3.69019">
        <ele>26.4</ele>
        <time>2025-06-17T09:50:30Z</time>
      </trkpt>
      <trkpt lat="43.46734" lon="3.69017">
        <ele>26</ele>
        <time>2025-06-17T09:50:31Z</time>
      </trkpt>
      <trkpt lat="43.4674" lon="3.69014">
        <ele>25.8</ele>
        <time>2025-06-17T09:50:32Z</time>
      </trkpt>
      <trkpt lat="43.46746" lon="3.69011">
        <ele>25.6</ele>
        <time>2025-06-17T09:50:33Z</time>
      </trkpt>
      <trkpt lat="43.46752" lon="3.69008">
        <ele>25.4</ele>
        <time>2025-06-17T09:50:34Z</time>
      </trkpt>
      <trkpt lat="43.46758" lon="3.69005">
        <ele>25.2</ele>
        <time>2025-06-17T09:50:35Z</time>
      </trkpt>
      <trkpt lat="43.46764" lon="3.69002">
        <ele>25</ele>
        <time>2025-06-17T09:50:36Z</time>
      </trkpt>
      <trkpt lat="43.46771" lon="3.68999">
        <ele>24.8</ele>
        <time>2025-06-17T09:50:37Z</time>
      </trkpt>
      <trkpt lat="43.46777" lon="3.68996">
        <ele>24.4</ele>
        <time>2025-06-17T09:50:38Z</time>
      </trkpt>
      <trkpt lat="43.46783" lon="3.68992">
        <ele>24.2</ele>
        <time>2025-06-17T09:50:39Z</time>
      </trkpt>
      <trkpt lat="43.46789" lon="3.68988">
        <ele>24</ele>
        <time>2025-06-17T09:50:40Z</time>
      </trkpt>
      <trkpt lat="43.46794" lon="3.68984">
        <ele>23.8</ele>
        <time>2025-06-17T09:50:41Z</time>
      </trkpt>
      <trkpt lat="43.46799" lon="3.68979">
        <ele>23.8</ele>
        <time>2025-06-17T09:50:42Z</time>
      </trkpt>
      <trkpt lat="43.46805" lon="3.68974">
        <ele>23.6</ele>
        <time>2025-06-17T09:50:43Z</time>
      </trkpt>
      <trkpt lat="43.46809" lon="3.6897">
        <ele>23.6</ele>
        <time>2025-06-17T09:50:44Z</time>
      </trkpt>
      <trkpt lat="43.46814" lon="3.68965">
        <ele>23.4</ele>
        <time>2025-06-17T09:50:45Z</time>
      </trkpt>
      <trkpt lat="43.4682" lon="3.6896">
        <ele>23.4</ele>
        <time>2025-06-17T09:50:46Z</time>
      </trkpt>
      <trkpt lat="43.46826" lon="3.68954">
        <ele>23.4</ele>
        <time>2025-06-17T09:50:47Z</time>
      </trkpt>
      <trkpt lat="43.46831" lon="3.68948">
        <ele>23.2</ele>
        <time>2025-06-17T09:50:48Z</time>
      </trkpt>
      <trkpt lat="43.46836" lon="3.68943">
        <ele>23.2</ele>
        <time>2025-06-17T09:50:49Z</time>
      </trkpt>
      <trkpt lat="43.46841" lon="3.68936">
        <ele>23</ele>
        <time>2025-06-17T09:50:50Z</time>
      </trkpt>
      <trkpt lat="43.46846" lon="3.6893">
        <ele>23</ele>
        <time>2025-06-17T09:50:51Z</time>
      </trkpt>
      <trkpt lat="43.46851" lon="3.68924">
        <ele>23</ele>
        <time>2025-06-17T09:50:52Z</time>
      </trkpt>
      <trkpt lat="43.46856" lon="3.68918">
        <ele>23</ele>
        <time>2025-06-17T09:50:53Z</time>
      </trkpt>
      <trkpt lat="43.4686" lon="3.68912">
        <ele>23</ele>
        <time>2025-06-17T09:50:54Z</time>
      </trkpt>
      <trkpt lat="43.46865" lon="3.68905">
        <ele>23</ele>
        <time>2025-06-17T09:50:55Z</time>
      </trkpt>
      <trkpt lat="43.46869" lon="3.68899">
        <ele>23.2</ele>
        <time>2025-06-17T09:50:56Z</time>
      </trkpt>
      <trkpt lat="43.46873" lon="3.68893">
        <ele>23.2</ele>
        <time>2025-06-17T09:50:57Z</time>
      </trkpt>
      <trkpt lat="43.46878" lon="3.68885">
        <ele>23.4</ele>
        <time>2025-06-17T09:50:58Z</time>
      </trkpt>
      <trkpt lat="43.46882" lon="3.68878">
        <ele>23.6</ele>
        <time>2025-06-17T09:50:59Z</time>
      </trkpt>
      <trkpt lat="43.46885" lon="3.68871">
        <ele>23.6</ele>
        <time>2025-06-17T09:51:00Z</time>
      </trkpt>
      <trkpt lat="43.46889" lon="3.68864">
        <ele>23.8</ele>
        <time>2025-06-17T09:51:01Z</time>
      </trkpt>
      <trkpt lat="43.46892" lon="3.68858">
        <ele>24</ele>
        <time>2025-06-17T09:51:02Z</time>
      </trkpt>
      <trkpt lat="43.46896" lon="3.68851">
        <ele>24</ele>
        <time>2025-06-17T09:51:03Z</time>
      </trkpt>
      <trkpt lat="43.46899" lon="3.68844">
        <ele>24.2</ele>
        <time>2025-06-17T09:51:04Z</time>
      </trkpt>
      <trkpt lat="43.46902" lon="3.68836">
        <ele>24.2</ele>
        <time>2025-06-17T09:51:05Z</time>
      </trkpt>
      <trkpt lat="43.46905" lon="3.68828">
        <ele>24.4</ele>
        <time>2025-06-17T09:51:06Z</time>
      </trkpt>
      <trkpt lat="43.46907" lon="3.68822">
        <ele>24.4</ele>
        <time>2025-06-17T09:51:07Z</time>
      </trkpt>
      <trkpt lat="43.4691" lon="3.68814">
        <ele>24.6</ele>
        <time>2025-06-17T09:51:08Z</time>
      </trkpt>
      <trkpt lat="43.46915" lon="3.68805">
        <ele>24.6</ele>
        <time>2025-06-17T09:51:09Z</time>
      </trkpt>
      <trkpt lat="43.46919" lon="3.68798">
        <ele>24.6</ele>
        <time>2025-06-17T09:51:10Z</time>
      </trkpt>
      <trkpt lat="43.46923" lon="3.6879">
        <ele>24.6</ele>
        <time>2025-06-17T09:51:11Z</time>
      </trkpt>
      <trkpt lat="43.46927" lon="3.68783">
        <ele>24.6</ele>
        <time>2025-06-17T09:51:12Z</time>
      </trkpt>
      <trkpt lat="43.46932" lon="3.68775">
        <ele>24.8</ele>
        <time>2025-06-17T09:51:13Z</time>
      </trkpt>
      <trkpt lat="43.46936" lon="3.68767">
        <ele>24.8</ele>
        <time>2025-06-17T09:51:14Z</time>
      </trkpt>
      <trkpt lat="43.4694" lon="3.68759">
        <ele>24.8</ele>
        <time>2025-06-17T09:51:15Z</time>
      </trkpt>
      <trkpt lat="43.46945" lon="3.68751">
        <ele>24.8</ele>
        <time>2025-06-17T09:51:16Z</time>
      </trkpt>
      <trkpt lat="43.46949" lon="3.68742">
        <ele>24.8</ele>
        <time>2025-06-17T09:51:17Z</time>
      </trkpt>
      <trkpt lat="43.46954" lon="3.68734">
        <ele>24.8</ele>
        <time>2025-06-17T09:51:18Z</time>
      </trkpt>
      <trkpt lat="43.46958" lon="3.68725">
        <ele>24.8</ele>
        <time>2025-06-17T09:51:19Z</time>
      </trkpt>
      <trkpt lat="43.46962" lon="3.68716">
        <ele>24.8</ele>
        <time>2025-06-17T09:51:20Z</time>
      </trkpt>
      <trkpt lat="43.46966" lon="3.68707">
        <ele>24.8</ele>
        <time>2025-06-17T09:51:21Z</time>
      </trkpt>
      <trkpt lat="43.46969" lon="3.68698">
        <ele>24.8</ele>
        <time>2025-06-17T09:51:22Z</time>
      </trkpt>
      <trkpt lat="43.46973" lon="3.68689">
        <ele>24.8</ele>
        <time>2025-06-17T09:51:23Z</time>
      </trkpt>
      <trkpt lat="43.46977" lon="3.6868">
        <ele>24.8</ele>
        <time>2025-06-17T09:51:24Z</time>
      </trkpt>
      <trkpt lat="43.4698" lon="3.68671">
        <ele>24.8</ele>
        <time>2025-06-17T09:51:25Z</time>
      </trkpt>
      <trkpt lat="43.46984" lon="3.68662">
        <ele>24.8</ele>
        <time>2025-06-17T09:51:26Z</time>
      </trkpt>
      <trkpt lat="43.46987" lon="3.68653">
        <ele>24.8</ele>
        <time>2025-06-17T09:51:27Z</time>
      </trkpt>
      <trkpt lat="43.4699" lon="3.68644">
        <ele>24.8</ele>
        <time>2025-06-17T09:51:28Z</time>
      </trkpt>
      <trkpt lat="43.46993" lon="3.68635">
        <ele>24.8</ele>
        <time>2025-06-17T09:51:29Z</time>
      </trkpt>
      <trkpt lat="43.46995" lon="3.68627">
        <ele>24.8</ele>
        <time>2025-06-17T09:51:30Z</time>
      </trkpt>
      <trkpt lat="43.46998" lon="3.68617">
        <ele>24.8</ele>
        <time>2025-06-17T09:51:31Z</time>
      </trkpt>
      <trkpt lat="43.47" lon="3.68608">
        <ele>24.8</ele>
        <time>2025-06-17T09:51:32Z</time>
      </trkpt>
      <trkpt lat="43.47002" lon="3.68598">
        <ele>24.8</ele>
        <time>2025-06-17T09:51:33Z</time>
      </trkpt>
      <trkpt lat="43.47004" lon="3.68589">
        <ele>24.8</ele>
        <time>2025-06-17T09:51:34Z</time>
      </trkpt>
      <trkpt lat="43.47006" lon="3.6858">
        <ele>24.8</ele>
        <time>2025-06-17T09:51:35Z</time>
      </trkpt>
      <trkpt lat="43.47007" lon="3.6857">
        <ele>24.8</ele>
        <time>2025-06-17T09:51:36Z</time>
      </trkpt>
      <trkpt lat="43.47008" lon="3.68562">
        <ele>24.8</ele>
        <time>2025-06-17T09:51:37Z</time>
      </trkpt>
      <trkpt lat="43.47009" lon="3.68552">
        <ele>24.8</ele>
        <time>2025-06-17T09:51:38Z</time>
      </trkpt>
      <trkpt lat="43.4701" lon="3.6854">
        <ele>24.6</ele>
        <time>2025-06-17T09:51:39Z</time>
      </trkpt>
      <trkpt lat="43.47012" lon="3.68531">
        <ele>24.6</ele>
        <time>2025-06-17T09:51:40Z</time>
      </trkpt>
      <trkpt lat="43.47012" lon="3.68521">
        <ele>24.4</ele>
        <time>2025-06-17T09:51:41Z</time>
      </trkpt>
      <trkpt lat="43.47014" lon="3.68511">
        <ele>24.4</ele>
        <time>2025-06-17T09:51:42Z</time>
      </trkpt>
      <trkpt lat="43.47014" lon="3.68501">
        <ele>24.4</ele>
        <time>2025-06-17T09:51:43Z</time>
      </trkpt>
      <trkpt lat="43.47015" lon="3.68491">
        <ele>24.4</ele>
        <time>2025-06-17T09:51:44Z</time>
      </trkpt>
      <trkpt lat="43.47017" lon="3.68481">
        <ele>24.4</ele>
        <time>2025-06-17T09:51:45Z</time>
      </trkpt>
      <trkpt lat="43.47018" lon="3.68471">
        <ele>24.4</ele>
        <time>2025-06-17T09:51:46Z</time>
      </trkpt>
      <trkpt lat="43.47018" lon="3.68461">
        <ele>24.4</ele>
        <time>2025-06-17T09:51:47Z</time>
      </trkpt>
      <trkpt lat="43.47019" lon="3.68451">
        <ele>24.2</ele>
        <time>2025-06-17T09:51:48Z</time>
      </trkpt>
      <trkpt lat="43.4702" lon="3.68441">
        <ele>24.2</ele>
        <time>2025-06-17T09:51:49Z</time>
      </trkpt>
      <trkpt lat="43.47021" lon="3.68431">
        <ele>24.2</ele>
        <time>2025-06-17T09:51:50Z</time>
      </trkpt>
      <trkpt lat="43.47022" lon="3.68421">
        <ele>24.2</ele>
        <time>2025-06-17T09:51:51Z</time>
      </trkpt>
      <trkpt lat="43.47023" lon="3.68411">
        <ele>24.2</ele>
        <time>2025-06-17T09:51:52Z</time>
      </trkpt>
      <trkpt lat="43.47024" lon="3.68401">
        <ele>24.2</ele>
        <time>2025-06-17T09:51:53Z</time>
      </trkpt>
      <trkpt lat="43.47025" lon="3.68391">
        <ele>24</ele>
        <time>2025-06-17T09:51:54Z</time>
      </trkpt>
      <trkpt lat="43.47025" lon="3.68382">
        <ele>24</ele>
        <time>2025-06-17T09:51:55Z</time>
      </trkpt>
      <trkpt lat="43.47026" lon="3.68372">
        <ele>24</ele>
        <time>2025-06-17T09:51:56Z</time>
      </trkpt>
      <trkpt lat="43.47026" lon="3.68364">
        <ele>24</ele>
        <time>2025-06-17T09:51:57Z</time>
      </trkpt>
      <trkpt lat="43.47026" lon="3.68357">
        <ele>24</ele>
        <time>2025-06-17T09:51:58Z</time>
      </trkpt>
      <trkpt lat="43.47026" lon="3.68351">
        <ele>24</ele>
        <time>2025-06-17T09:51:59Z</time>
      </trkpt>
      <trkpt lat="43.47026" lon="3.68345">
        <ele>23.8</ele>
        <time>2025-06-17T09:52:00Z</time>
      </trkpt>
      <trkpt lat="43.47027" lon="3.68339">
        <ele>23.8</ele>
        <time>2025-06-17T09:52:01Z</time>
      </trkpt>
      <trkpt lat="43.47026" lon="3.68332">
        <ele>23.8</ele>
        <time>2025-06-17T09:52:02Z</time>
      </trkpt>
      <trkpt lat="43.47026" lon="3.68327">
        <ele>23.8</ele>
        <time>2025-06-17T09:52:03Z</time>
      </trkpt>
      <trkpt lat="43.47026" lon="3.6832">
        <ele>23.8</ele>
        <time>2025-06-17T09:52:04Z</time>
      </trkpt>
      <trkpt lat="43.47026" lon="3.68316">
        <ele>24</ele>
        <time>2025-06-17T09:52:05Z</time>
      </trkpt>
      <trkpt lat="43.47026" lon="3.68312">
        <ele>24</ele>
        <time>2025-06-17T09:52:06Z</time>
      </trkpt>
      <trkpt lat="43.47026" lon="3.68309">
        <ele>24</ele>
        <time>2025-06-17T09:52:07Z</time>
      </trkpt>
      <trkpt lat="43.47026" lon="3.68306">
        <ele>24</ele>
        <time>2025-06-17T09:52:08Z</time>
      </trkpt>
      <trkpt lat="43.47027" lon="3.68303">
        <ele>24.2</ele>
        <time>2025-06-17T09:52:09Z</time>
      </trkpt>
      <trkpt lat="43.47027" lon="3.68299">
        <ele>24.2</ele>
        <time>2025-06-17T09:52:10Z</time>
      </trkpt>
      <trkpt lat="43.47027" lon="3.68295">
        <ele>24.2</ele>
        <time>2025-06-17T09:52:11Z</time>
      </trkpt>
      <trkpt lat="43.47026" lon="3.6829">
        <ele>24</ele>
        <time>2025-06-17T09:52:12Z</time>
      </trkpt>
      <trkpt lat="43.47025" lon="3.68284">
        <ele>24</ele>
        <time>2025-06-17T09:52:13Z</time>
      </trkpt>
      <trkpt lat="43.47024" lon="3.68277">
        <ele>24</ele>
        <time>2025-06-17T09:52:14Z</time>
      </trkpt>
      <trkpt lat="43.47023" lon="3.6827">
        <ele>23.8</ele>
        <time>2025-06-17T09:52:15Z</time>
      </trkpt>
      <trkpt lat="43.47022" lon="3.68263">
        <ele>23.6</ele>
        <time>2025-06-17T09:52:16Z</time>
      </trkpt>
      <trkpt lat="43.47021" lon="3.68254">
        <ele>23.4</ele>
        <time>2025-06-17T09:52:17Z</time>
      </trkpt>
      <trkpt lat="43.47019" lon="3.68246">
        <ele>23.2</ele>
        <time>2025-06-17T09:52:18Z</time>
      </trkpt>
      <trkpt lat="43.47018" lon="3.68238">
        <ele>23</ele>
        <time>2025-06-17T09:52:19Z</time>
      </trkpt>
      <trkpt lat="43.47016" lon="3.6823">
        <ele>23</ele>
        <time>2025-06-17T09:52:20Z</time>
      </trkpt>
      <trkpt lat="43.47014" lon="3.68221">
        <ele>22.8</ele>
        <time>2025-06-17T09:52:21Z</time>
      </trkpt>
      <trkpt lat="43.47012" lon="3.68212">
        <ele>22.8</ele>
        <time>2025-06-17T09:52:22Z</time>
      </trkpt>
      <trkpt lat="43.47011" lon="3.68204">
        <ele>22.6</ele>
        <time>2025-06-17T09:52:23Z</time>
      </trkpt>
      <trkpt lat="43.47008" lon="3.68195">
        <ele>22.6</ele>
        <time>2025-06-17T09:52:24Z</time>
      </trkpt>
      <trkpt lat="43.47006" lon="3.68189">
        <ele>22.6</ele>
        <time>2025-06-17T09:52:25Z</time>
      </trkpt>
      <trkpt lat="43.47003" lon="3.68179">
        <ele>22.6</ele>
        <time>2025-06-17T09:52:26Z</time>
      </trkpt>
      <trkpt lat="43.47" lon="3.6817">
        <ele>22.4</ele>
        <time>2025-06-17T09:52:27Z</time>
      </trkpt>
      <trkpt lat="43.46998" lon="3.68164">
        <ele>22.4</ele>
        <time>2025-06-17T09:52:28Z</time>
      </trkpt>
      <trkpt lat="43.46994" lon="3.68154">
        <ele>22.4</ele>
        <time>2025-06-17T09:52:29Z</time>
      </trkpt>
      <trkpt lat="43.4699" lon="3.68147">
        <ele>22.4</ele>
        <time>2025-06-17T09:52:30Z</time>
      </trkpt>
      <trkpt lat="43.46987" lon="3.68138">
        <ele>22.4</ele>
        <time>2025-06-17T09:52:31Z</time>
      </trkpt>
      <trkpt lat="43.46984" lon="3.6813">
        <ele>22.2</ele>
        <time>2025-06-17T09:52:32Z</time>
      </trkpt>
      <trkpt lat="43.4698" lon="3.68122">
        <ele>22.2</ele>
        <time>2025-06-17T09:52:33Z</time>
      </trkpt>
      <trkpt lat="43.46976" lon="3.68114">
        <ele>22.2</ele>
        <time>2025-06-17T09:52:34Z</time>
      </trkpt>
      <trkpt lat="43.46972" lon="3.68107">
        <ele>22</ele>
        <time>2025-06-17T09:52:35Z</time>
      </trkpt>
      <trkpt lat="43.46967" lon="3.681">
        <ele>22</ele>
        <time>2025-06-17T09:52:36Z</time>
      </trkpt>
      <trkpt lat="43.46963" lon="3.68093">
        <ele>22</ele>
        <time>2025-06-17T09:52:37Z</time>
      </trkpt>
      <trkpt lat="43.46959" lon="3.68086">
        <ele>21.8</ele>
        <time>2025-06-17T09:52:38Z</time>
      </trkpt>
      <trkpt lat="43.46954" lon="3.68079">
        <ele>21.8</ele>
        <time>2025-06-17T09:52:39Z</time>
      </trkpt>
      <trkpt lat="43.4695" lon="3.68073">
        <ele>21.8</ele>
        <time>2025-06-17T09:52:40Z</time>
      </trkpt>
      <trkpt lat="43.46944" lon="3.68066">
        <ele>21.6</ele>
        <time>2025-06-17T09:52:41Z</time>
      </trkpt>
      <trkpt lat="43.4694" lon="3.68059">
        <ele>21.6</ele>
        <time>2025-06-17T09:52:42Z</time>
      </trkpt>
      <trkpt lat="43.46934" lon="3.68053">
        <ele>21.6</ele>
        <time>2025-06-17T09:52:43Z</time>
      </trkpt>
      <trkpt lat="43.4693" lon="3.68047">
        <ele>21.6</ele>
        <time>2025-06-17T09:52:44Z</time>
      </trkpt>
      <trkpt lat="43.46925" lon="3.6804">
        <ele>21.4</ele>
        <time>2025-06-17T09:52:45Z</time>
      </trkpt>
      <trkpt lat="43.4692" lon="3.68034">
        <ele>21.4</ele>
        <time>2025-06-17T09:52:46Z</time>
      </trkpt>
      <trkpt lat="43.46915" lon="3.68027">
        <ele>21.4</ele>
        <time>2025-06-17T09:52:47Z</time>
      </trkpt>
      <trkpt lat="43.4691" lon="3.6802">
        <ele>21.6</ele>
        <time>2025-06-17T09:52:48Z</time>
      </trkpt>
      <trkpt lat="43.46906" lon="3.68014">
        <ele>21.6</ele>
        <time>2025-06-17T09:52:49Z</time>
      </trkpt>
      <trkpt lat="43.46901" lon="3.68007">
        <ele>21.6</ele>
        <time>2025-06-17T09:52:50Z</time>
      </trkpt>
      <trkpt lat="43.46896" lon="3.68001">
        <ele>21.6</ele>
        <time>2025-06-17T09:52:51Z</time>
      </trkpt>
      <trkpt lat="43.46891" lon="3.67994">
        <ele>21.6</ele>
        <time>2025-06-17T09:52:52Z</time>
      </trkpt>
      <trkpt lat="43.46886" lon="3.67989">
        <ele>21.6</ele>
        <time>2025-06-17T09:52:53Z</time>
      </trkpt>
      <trkpt lat="43.46881" lon="3.67982">
        <ele>21.4</ele>
        <time>2025-06-17T09:52:54Z</time>
      </trkpt>
      <trkpt lat="43.46876" lon="3.67974">
        <ele>21.4</ele>
        <time>2025-06-17T09:52:55Z</time>
      </trkpt>
      <trkpt lat="43.46871" lon="3.67967">
        <ele>21.2</ele>
        <time>2025-06-17T09:52:56Z</time>
      </trkpt>
      <trkpt lat="43.46865" lon="3.67961">
        <ele>21.2</ele>
        <time>2025-06-17T09:52:57Z</time>
      </trkpt>
      <trkpt lat="43.4686" lon="3.67955">
        <ele>21</ele>
        <time>2025-06-17T09:52:58Z</time>
      </trkpt>
      <trkpt lat="43.46855" lon="3.67948">
        <ele>21</ele>
        <time>2025-06-17T09:52:59Z</time>
      </trkpt>
      <trkpt lat="43.4685" lon="3.67942">
        <ele>21</ele>
        <time>2025-06-17T09:53:00Z</time>
      </trkpt>
      <trkpt lat="43.46845" lon="3.67935">
        <ele>20.8</ele>
        <time>2025-06-17T09:53:01Z</time>
      </trkpt>
      <trkpt lat="43.4684" lon="3.67929">
        <ele>20.8</ele>
        <time>2025-06-17T09:53:02Z</time>
      </trkpt>
      <trkpt lat="43.46835" lon="3.67923">
        <ele>20.8</ele>
        <time>2025-06-17T09:53:03Z</time>
      </trkpt>
      <trkpt lat="43.4683" lon="3.67917">
        <ele>20.8</ele>
        <time>2025-06-17T09:53:04Z</time>
      </trkpt>
      <trkpt lat="43.46824" lon="3.6791">
        <ele>20.6</ele>
        <time>2025-06-17T09:53:05Z</time>
      </trkpt>
      <trkpt lat="43.46819" lon="3.67904">
        <ele>20.4</ele>
        <time>2025-06-17T09:53:06Z</time>
      </trkpt>
      <trkpt lat="43.46814" lon="3.67898">
        <ele>20.4</ele>
        <time>2025-06-17T09:53:07Z</time>
      </trkpt>
      <trkpt lat="43.4681" lon="3.67892">
        <ele>20.2</ele>
        <time>2025-06-17T09:53:08Z</time>
      </trkpt>
      <trkpt lat="43.46804" lon="3.67885">
        <ele>20.2</ele>
        <time>2025-06-17T09:53:09Z</time>
      </trkpt>
      <trkpt lat="43.46799" lon="3.67879">
        <ele>20</ele>
        <time>2025-06-17T09:53:10Z</time>
      </trkpt>
      <trkpt lat="43.46795" lon="3.67872">
        <ele>20</ele>
        <time>2025-06-17T09:53:11Z</time>
      </trkpt>
      <trkpt lat="43.46789" lon="3.67865">
        <ele>20.2</ele>
        <time>2025-06-17T09:53:12Z</time>
      </trkpt>
      <trkpt lat="43.46784" lon="3.67859">
        <ele>20</ele>
        <time>2025-06-17T09:53:13Z</time>
      </trkpt>
      <trkpt lat="43.46779" lon="3.67852">
        <ele>20</ele>
        <time>2025-06-17T09:53:14Z</time>
      </trkpt>
      <trkpt lat="43.46773" lon="3.67845">
        <ele>20</ele>
        <time>2025-06-17T09:53:15Z</time>
      </trkpt>
      <trkpt lat="43.46768" lon="3.67838">
        <ele>20</ele>
        <time>2025-06-17T09:53:16Z</time>
      </trkpt>
      <trkpt lat="43.46763" lon="3.67832">
        <ele>19.8</ele>
        <time>2025-06-17T09:53:17Z</time>
      </trkpt>
      <trkpt lat="43.46758" lon="3.67826">
        <ele>19.8</ele>
        <time>2025-06-17T09:53:18Z</time>
      </trkpt>
      <trkpt lat="43.46754" lon="3.6782">
        <ele>19.8</ele>
        <time>2025-06-17T09:53:19Z</time>
      </trkpt>
      <trkpt lat="43.46748" lon="3.67812">
        <ele>19.8</ele>
        <time>2025-06-17T09:53:20Z</time>
      </trkpt>
      <trkpt lat="43.46743" lon="3.67805">
        <ele>19.8</ele>
        <time>2025-06-17T09:53:21Z</time>
      </trkpt>
      <trkpt lat="43.46737" lon="3.67797">
        <ele>19.6</ele>
        <time>2025-06-17T09:53:22Z</time>
      </trkpt>
      <trkpt lat="43.46732" lon="3.6779">
        <ele>19.6</ele>
        <time>2025-06-17T09:53:23Z</time>
      </trkpt>
      <trkpt lat="43.46727" lon="3.67782">
        <ele>19.6</ele>
        <time>2025-06-17T09:53:24Z</time>
      </trkpt>
      <trkpt lat="43.46722" lon="3.67775">
        <ele>19.4</ele>
        <time>2025-06-17T09:53:25Z</time>
      </trkpt>
      <trkpt lat="43.46716" lon="3.67768">
        <ele>19.4</ele>
        <time>2025-06-17T09:53:26Z</time>
      </trkpt>
      <trkpt lat="43.46711" lon="3.67762">
        <ele>19.4</ele>
        <time>2025-06-17T09:53:27Z</time>
      </trkpt>
      <trkpt lat="43.46705" lon="3.67755">
        <ele>19.4</ele>
        <time>2025-06-17T09:53:28Z</time>
      </trkpt>
      <trkpt lat="43.467" lon="3.67748">
        <ele>19.4</ele>
        <time>2025-06-17T09:53:29Z</time>
      </trkpt>
      <trkpt lat="43.46695" lon="3.67741">
        <ele>19.4</ele>
        <time>2025-06-17T09:53:30Z</time>
      </trkpt>
      <trkpt lat="43.4669" lon="3.67734">
        <ele>19.4</ele>
        <time>2025-06-17T09:53:31Z</time>
      </trkpt>
      <trkpt lat="43.46685" lon="3.67728">
        <ele>19.2</ele>
        <time>2025-06-17T09:53:32Z</time>
      </trkpt>
      <trkpt lat="43.4668" lon="3.67721">
        <ele>19.2</ele>
        <time>2025-06-17T09:53:33Z</time>
      </trkpt>
      <trkpt lat="43.46674" lon="3.67714">
        <ele>19.2</ele>
        <time>2025-06-17T09:53:34Z</time>
      </trkpt>
      <trkpt lat="43.46669" lon="3.67708">
        <ele>19.2</ele>
        <time>2025-06-17T09:53:35Z</time>
      </trkpt>
      <trkpt lat="43.46664" lon="3.67701">
        <ele>19.2</ele>
        <time>2025-06-17T09:53:36Z</time>
      </trkpt>
      <trkpt lat="43.46659" lon="3.67695">
        <ele>19.2</ele>
        <time>2025-06-17T09:53:37Z</time>
      </trkpt>
      <trkpt lat="43.46654" lon="3.67688">
        <ele>19.2</ele>
        <time>2025-06-17T09:53:38Z</time>
      </trkpt>
      <trkpt lat="43.46649" lon="3.67682">
        <ele>19.2</ele>
        <time>2025-06-17T09:53:39Z</time>
      </trkpt>
      <trkpt lat="43.46644" lon="3.67676">
        <ele>19.2</ele>
        <time>2025-06-17T09:53:40Z</time>
      </trkpt>
      <trkpt lat="43.46639" lon="3.67669">
        <ele>19.2</ele>
        <time>2025-06-17T09:53:41Z</time>
      </trkpt>
      <trkpt lat="43.46634" lon="3.67663">
        <ele>19</ele>
        <time>2025-06-17T09:53:42Z</time>
      </trkpt>
      <trkpt lat="43.4663" lon="3.67657">
        <ele>19</ele>
        <time>2025-06-17T09:53:43Z</time>
      </trkpt>
      <trkpt lat="43.46625" lon="3.6765">
        <ele>19</ele>
        <time>2025-06-17T09:53:44Z</time>
      </trkpt>
      <trkpt lat="43.46618" lon="3.67642">
        <ele>19</ele>
        <time>2025-06-17T09:53:45Z</time>
      </trkpt>
      <trkpt lat="43.46614" lon="3.67637">
        <ele>18.8</ele>
        <time>2025-06-17T09:53:46Z</time>
      </trkpt>
      <trkpt lat="43.46609" lon="3.67629">
        <ele>19</ele>
        <time>2025-06-17T09:53:47Z</time>
      </trkpt>
      <trkpt lat="43.46604" lon="3.67623">
        <ele>19</ele>
        <time>2025-06-17T09:53:48Z</time>
      </trkpt>
      <trkpt lat="43.46599" lon="3.67616">
        <ele>18.8</ele>
        <time>2025-06-17T09:53:49Z</time>
      </trkpt>
      <trkpt lat="43.46595" lon="3.67609">
        <ele>18.8</ele>
        <time>2025-06-17T09:53:50Z</time>
      </trkpt>
      <trkpt lat="43.4659" lon="3.67602">
        <ele>18.8</ele>
        <time>2025-06-17T09:53:51Z</time>
      </trkpt>
      <trkpt lat="43.46585" lon="3.67595">
        <ele>18.8</ele>
        <time>2025-06-17T09:53:52Z</time>
      </trkpt>
      <trkpt lat="43.46581" lon="3.67589">
        <ele>18.8</ele>
        <time>2025-06-17T09:53:53Z</time>
      </trkpt>
      <trkpt lat="43.46575" lon="3.67583">
        <ele>18.8</ele>
        <time>2025-06-17T09:53:54Z</time>
      </trkpt>
      <trkpt lat="43.4657" lon="3.67576">
        <ele>18.8</ele>
        <time>2025-06-17T09:53:55Z</time>
      </trkpt>
      <trkpt lat="43.46565" lon="3.6757">
        <ele>18.8</ele>
        <time>2025-06-17T09:53:56Z</time>
      </trkpt>
      <trkpt lat="43.46559" lon="3.67563">
        <ele>18.8</ele>
        <time>2025-06-17T09:53:57Z</time>
      </trkpt>
      <trkpt lat="43.46554" lon="3.67557">
        <ele>18.8</ele>
        <time>2025-06-17T09:53:58Z</time>
      </trkpt>
      <trkpt lat="43.46549" lon="3.6755">
        <ele>18.8</ele>
        <time>2025-06-17T09:53:59Z</time>
      </trkpt>
      <trkpt lat="43.46544" lon="3.67543">
        <ele>18.6</ele>
        <time>2025-06-17T09:54:00Z</time>
      </trkpt>
      <trkpt lat="43.46539" lon="3.67537">
        <ele>18.8</ele>
        <time>2025-06-17T09:54:01Z</time>
      </trkpt>
      <trkpt lat="43.46533" lon="3.6753">
        <ele>18.8</ele>
        <time>2025-06-17T09:54:02Z</time>
      </trkpt>
      <trkpt lat="43.46528" lon="3.67524">
        <ele>18.8</ele>
        <time>2025-06-17T09:54:03Z</time>
      </trkpt>
      <trkpt lat="43.46523" lon="3.67517">
        <ele>18.8</ele>
        <time>2025-06-17T09:54:04Z</time>
      </trkpt>
      <trkpt lat="43.46518" lon="3.6751">
        <ele>18.8</ele>
        <time>2025-06-17T09:54:05Z</time>
      </trkpt>
      <trkpt lat="43.46513" lon="3.67504">
        <ele>18.8</ele>
        <time>2025-06-17T09:54:06Z</time>
      </trkpt>
      <trkpt lat="43.46509" lon="3.67497">
        <ele>18.8</ele>
        <time>2025-06-17T09:54:07Z</time>
      </trkpt>
      <trkpt lat="43.46504" lon="3.67491">
        <ele>18.8</ele>
        <time>2025-06-17T09:54:08Z</time>
      </trkpt>
      <trkpt lat="43.465" lon="3.67485">
        <ele>18.8</ele>
        <time>2025-06-17T09:54:09Z</time>
      </trkpt>
      <trkpt lat="43.46495" lon="3.67478">
        <ele>18.8</ele>
        <time>2025-06-17T09:54:10Z</time>
      </trkpt>
      <trkpt lat="43.4649" lon="3.67473">
        <ele>19</ele>
        <time>2025-06-17T09:54:11Z</time>
      </trkpt>
      <trkpt lat="43.46485" lon="3.67466">
        <ele>19</ele>
        <time>2025-06-17T09:54:12Z</time>
      </trkpt>
      <trkpt lat="43.4648" lon="3.67459">
        <ele>19</ele>
        <time>2025-06-17T09:54:13Z</time>
      </trkpt>
      <trkpt lat="43.46475" lon="3.67452">
        <ele>19</ele>
        <time>2025-06-17T09:54:14Z</time>
      </trkpt>
      <trkpt lat="43.4647" lon="3.67446">
        <ele>19</ele>
        <time>2025-06-17T09:54:15Z</time>
      </trkpt>
      <trkpt lat="43.46465" lon="3.6744">
        <ele>19</ele>
        <time>2025-06-17T09:54:16Z</time>
      </trkpt>
      <trkpt lat="43.46459" lon="3.67434">
        <ele>19</ele>
        <time>2025-06-17T09:54:17Z</time>
      </trkpt>
      <trkpt lat="43.46455" lon="3.67428">
        <ele>19</ele>
        <time>2025-06-17T09:54:18Z</time>
      </trkpt>
      <trkpt lat="43.46449" lon="3.67422">
        <ele>18.8</ele>
        <time>2025-06-17T09:54:19Z</time>
      </trkpt>
      <trkpt lat="43.46445" lon="3.67416">
        <ele>18.8</ele>
        <time>2025-06-17T09:54:20Z</time>
      </trkpt>
      <trkpt lat="43.4644" lon="3.67409">
        <ele>18.8</ele>
        <time>2025-06-17T09:54:21Z</time>
      </trkpt>
      <trkpt lat="43.46435" lon="3.67403">
        <ele>18.8</ele>
        <time>2025-06-17T09:54:22Z</time>
      </trkpt>
      <trkpt lat="43.46431" lon="3.67397">
        <ele>18.8</ele>
        <time>2025-06-17T09:54:23Z</time>
      </trkpt>
      <trkpt lat="43.46426" lon="3.67391">
        <ele>18.8</ele>
        <time>2025-06-17T09:54:24Z</time>
      </trkpt>
      <trkpt lat="43.46421" lon="3.67386">
        <ele>18.8</ele>
        <time>2025-06-17T09:54:25Z</time>
      </trkpt>
      <trkpt lat="43.46417" lon="3.6738">
        <ele>18.6</ele>
        <time>2025-06-17T09:54:26Z</time>
      </trkpt>
      <trkpt lat="43.46412" lon="3.67375">
        <ele>18.6</ele>
        <time>2025-06-17T09:54:27Z</time>
      </trkpt>
      <trkpt lat="43.46409" lon="3.6737">
        <ele>18.6</ele>
        <time>2025-06-17T09:54:28Z</time>
      </trkpt>
      <trkpt lat="43.46404" lon="3.67365">
        <ele>18.6</ele>
        <time>2025-06-17T09:54:29Z</time>
      </trkpt>
      <trkpt lat="43.46401" lon="3.6736">
        <ele>18.6</ele>
        <time>2025-06-17T09:54:30Z</time>
      </trkpt>
      <trkpt lat="43.46397" lon="3.67355">
        <ele>18.6</ele>
        <time>2025-06-17T09:54:31Z</time>
      </trkpt>
      <trkpt lat="43.46393" lon="3.6735">
        <ele>18.8</ele>
        <time>2025-06-17T09:54:32Z</time>
      </trkpt>
      <trkpt lat="43.46389" lon="3.67345">
        <ele>18.8</ele>
        <time>2025-06-17T09:54:33Z</time>
      </trkpt>
      <trkpt lat="43.46385" lon="3.6734">
        <ele>18.8</ele>
        <time>2025-06-17T09:54:34Z</time>
      </trkpt>
      <trkpt lat="43.46381" lon="3.67335">
        <ele>18.8</ele>
        <time>2025-06-17T09:54:35Z</time>
      </trkpt>
      <trkpt lat="43.46377" lon="3.67329">
        <ele>18.8</ele>
        <time>2025-06-17T09:54:36Z</time>
      </trkpt>
      <trkpt lat="43.46373" lon="3.67324">
        <ele>18.8</ele>
        <time>2025-06-17T09:54:37Z</time>
      </trkpt>
      <trkpt lat="43.46368" lon="3.67319">
        <ele>18.8</ele>
        <time>2025-06-17T09:54:38Z</time>
      </trkpt>
      <trkpt lat="43.46364" lon="3.67313">
        <ele>18.6</ele>
        <time>2025-06-17T09:54:39Z</time>
      </trkpt>
      <trkpt lat="43.4636" lon="3.67307">
        <ele>18.6</ele>
        <time>2025-06-17T09:54:40Z</time>
      </trkpt>
      <trkpt lat="43.46355" lon="3.67301">
        <ele>18.6</ele>
        <time>2025-06-17T09:54:41Z</time>
      </trkpt>
      <trkpt lat="43.46351" lon="3.67295">
        <ele>18.6</ele>
        <time>2025-06-17T09:54:42Z</time>
      </trkpt>
      <trkpt lat="43.46347" lon="3.6729">
        <ele>18.6</ele>
        <time>2025-06-17T09:54:43Z</time>
      </trkpt>
      <trkpt lat="43.46342" lon="3.67284">
        <ele>18.6</ele>
        <time>2025-06-17T09:54:44Z</time>
      </trkpt>
      <trkpt lat="43.46338" lon="3.67279">
        <ele>18.6</ele>
        <time>2025-06-17T09:54:45Z</time>
      </trkpt>
      <trkpt lat="43.46333" lon="3.67273">
        <ele>18.6</ele>
        <time>2025-06-17T09:54:46Z</time>
      </trkpt>
      <trkpt lat="43.46328" lon="3.67267">
        <ele>18.6</ele>
        <time>2025-06-17T09:54:47Z</time>
      </trkpt>
      <trkpt lat="43.46324" lon="3.67261">
        <ele>18.4</ele>
        <time>2025-06-17T09:54:48Z</time>
      </trkpt>
      <trkpt lat="43.46319" lon="3.67255">
        <ele>18.4</ele>
        <time>2025-06-17T09:54:49Z</time>
      </trkpt>
      <trkpt lat="43.46315" lon="3.67249">
        <ele>18.4</ele>
        <time>2025-06-17T09:54:50Z</time>
      </trkpt>
      <trkpt lat="43.46311" lon="3.67244">
        <ele>18.4</ele>
        <time>2025-06-17T09:54:51Z</time>
      </trkpt>
      <trkpt lat="43.46306" lon="3.67238">
        <ele>18.4</ele>
        <time>2025-06-17T09:54:52Z</time>
      </trkpt>
      <trkpt lat="43.46301" lon="3.67232">
        <ele>18.4</ele>
        <time>2025-06-17T09:54:53Z</time>
      </trkpt>
      <trkpt lat="43.46296" lon="3.67226">
        <ele>18.4</ele>
        <time>2025-06-17T09:54:54Z</time>
      </trkpt>
      <trkpt lat="43.46292" lon="3.6722">
        <ele>18.6</ele>
        <time>2025-06-17T09:54:55Z</time>
      </trkpt>
      <trkpt lat="43.46288" lon="3.67215">
        <ele>18.6</ele>
        <time>2025-06-17T09:54:56Z</time>
      </trkpt>
      <trkpt lat="43.46283" lon="3.67209">
        <ele>18.6</ele>
        <time>2025-06-17T09:54:57Z</time>
      </trkpt>
      <trkpt lat="43.46279" lon="3.67203">
        <ele>18.6</ele>
        <time>2025-06-17T09:54:58Z</time>
      </trkpt>
      <trkpt lat="43.46274" lon="3.67197">
        <ele>18.6</ele>
        <time>2025-06-17T09:54:59Z</time>
      </trkpt>
      <trkpt lat="43.4627" lon="3.67191">
        <ele>18.6</ele>
        <time>2025-06-17T09:55:00Z</time>
      </trkpt>
      <trkpt lat="43.46266" lon="3.67186">
        <ele>18.6</ele>
        <time>2025-06-17T09:55:01Z</time>
      </trkpt>
      <trkpt lat="43.46262" lon="3.6718">
        <ele>18.6</ele>
        <time>2025-06-17T09:55:02Z</time>
      </trkpt>
      <trkpt lat="43.46258" lon="3.67175">
        <ele>18.6</ele>
        <time>2025-06-17T09:55:03Z</time>
      </trkpt>
      <trkpt lat="43.46254" lon="3.6717">
        <ele>18.6</ele>
        <time>2025-06-17T09:55:04Z</time>
      </trkpt>
      <trkpt lat="43.46248" lon="3.67163">
        <ele>18.6</ele>
        <time>2025-06-17T09:55:05Z</time>
      </trkpt>
      <trkpt lat="43.46244" lon="3.67157">
        <ele>18.6</ele>
        <time>2025-06-17T09:55:06Z</time>
      </trkpt>
      <trkpt lat="43.46239" lon="3.67151">
        <ele>18.6</ele>
        <time>2025-06-17T09:55:07Z</time>
      </trkpt>
      <trkpt lat="43.46235" lon="3.67145">
        <ele>18.8</ele>
        <time>2025-06-17T09:55:08Z</time>
      </trkpt>
      <trkpt lat="43.4623" lon="3.67139">
        <ele>18.8</ele>
        <time>2025-06-17T09:55:09Z</time>
      </trkpt>
      <trkpt lat="43.46226" lon="3.67133">
        <ele>18.8</ele>
        <time>2025-06-17T09:55:10Z</time>
      </trkpt>
      <trkpt lat="43.46222" lon="3.67127">
        <ele>18.8</ele>
        <time>2025-06-17T09:55:11Z</time>
      </trkpt>
      <trkpt lat="43.46217" lon="3.67121">
        <ele>18.8</ele>
        <time>2025-06-17T09:55:12Z</time>
      </trkpt>
      <trkpt lat="43.46213" lon="3.67115">
        <ele>18.8</ele>
        <time>2025-06-17T09:55:13Z</time>
      </trkpt>
      <trkpt lat="43.46208" lon="3.67109">
        <ele>18.8</ele>
        <time>2025-06-17T09:55:14Z</time>
      </trkpt>
      <trkpt lat="43.46204" lon="3.67103">
        <ele>18.8</ele>
        <time>2025-06-17T09:55:15Z</time>
      </trkpt>
      <trkpt lat="43.46199" lon="3.67098">
        <ele>18.8</ele>
        <time>2025-06-17T09:55:16Z</time>
      </trkpt>
      <trkpt lat="43.46194" lon="3.67092">
        <ele>18.8</ele>
        <time>2025-06-17T09:55:17Z</time>
      </trkpt>
      <trkpt lat="43.4619" lon="3.67087">
        <ele>18.8</ele>
        <time>2025-06-17T09:55:18Z</time>
      </trkpt>
      <trkpt lat="43.46185" lon="3.67081">
        <ele>18.8</ele>
        <time>2025-06-17T09:55:19Z</time>
      </trkpt>
      <trkpt lat="43.4618" lon="3.67074">
        <ele>18.8</ele>
        <time>2025-06-17T09:55:20Z</time>
      </trkpt>
      <trkpt lat="43.46176" lon="3.67069">
        <ele>19</ele>
        <time>2025-06-17T09:55:21Z</time>
      </trkpt>
      <trkpt lat="43.46172" lon="3.67062">
        <ele>19</ele>
        <time>2025-06-17T09:55:22Z</time>
      </trkpt>
      <trkpt lat="43.46167" lon="3.67056">
        <ele>19</ele>
        <time>2025-06-17T09:55:23Z</time>
      </trkpt>
      <trkpt lat="43.46162" lon="3.6705">
        <ele>18.8</ele>
        <time>2025-06-17T09:55:24Z</time>
      </trkpt>
      <trkpt lat="43.46158" lon="3.67045">
        <ele>18.8</ele>
        <time>2025-06-17T09:55:25Z</time>
      </trkpt>
      <trkpt lat="43.46154" lon="3.6704">
        <ele>18.8</ele>
        <time>2025-06-17T09:55:26Z</time>
      </trkpt>
      <trkpt lat="43.4615" lon="3.67034">
        <ele>19</ele>
        <time>2025-06-17T09:55:27Z</time>
      </trkpt>
      <trkpt lat="43.46148" lon="3.67031">
        <ele>19</ele>
        <time>2025-06-17T09:55:28Z</time>
      </trkpt>
      <trkpt lat="43.46144" lon="3.67026">
        <ele>19</ele>
        <time>2025-06-17T09:55:29Z</time>
      </trkpt>
      <trkpt lat="43.4614" lon="3.67022">
        <ele>19.2</ele>
        <time>2025-06-17T09:55:30Z</time>
      </trkpt>
      <trkpt lat="43.46137" lon="3.67018">
        <ele>19</ele>
        <time>2025-06-17T09:55:31Z</time>
      </trkpt>
      <trkpt lat="43.46133" lon="3.67013">
        <ele>19</ele>
        <time>2025-06-17T09:55:32Z</time>
      </trkpt>
      <trkpt lat="43.46129" lon="3.67008">
        <ele>19</ele>
        <time>2025-06-17T09:55:33Z</time>
      </trkpt>
      <trkpt lat="43.46125" lon="3.67003">
        <ele>18.8</ele>
        <time>2025-06-17T09:55:34Z</time>
      </trkpt>
      <trkpt lat="43.46121" lon="3.66998">
        <ele>18.8</ele>
        <time>2025-06-17T09:55:35Z</time>
      </trkpt>
      <trkpt lat="43.46116" lon="3.66992">
        <ele>18.8</ele>
        <time>2025-06-17T09:55:36Z</time>
      </trkpt>
      <trkpt lat="43.46112" lon="3.66987">
        <ele>18.6</ele>
        <time>2025-06-17T09:55:37Z</time>
      </trkpt>
      <trkpt lat="43.46108" lon="3.66982">
        <ele>18.6</ele>
        <time>2025-06-17T09:55:38Z</time>
      </trkpt>
      <trkpt lat="43.46105" lon="3.66977">
        <ele>18.8</ele>
        <time>2025-06-17T09:55:39Z</time>
      </trkpt>
      <trkpt lat="43.46102" lon="3.66973">
        <ele>18.8</ele>
        <time>2025-06-17T09:55:40Z</time>
      </trkpt>
      <trkpt lat="43.46099" lon="3.66969">
        <ele>18.8</ele>
        <time>2025-06-17T09:55:41Z</time>
      </trkpt>
      <trkpt lat="43.46097" lon="3.66967">
        <ele>18.8</ele>
        <time>2025-06-17T09:55:42Z</time>
      </trkpt>
      <trkpt lat="43.46096" lon="3.66965">
        <ele>18.8</ele>
        <time>2025-06-17T09:56:31Z</time>
      </trkpt>
      <trkpt lat="43.46093" lon="3.66963">
        <ele>18.8</ele>
        <time>2025-06-17T09:56:32Z</time>
      </trkpt>
      <trkpt lat="43.46092" lon="3.66961">
        <ele>18.8</ele>
        <time>2025-06-17T09:56:33Z</time>
      </trkpt>
      <trkpt lat="43.4609" lon="3.66959">
        <ele>19</ele>
        <time>2025-06-17T09:56:34Z</time>
      </trkpt>
      <trkpt lat="43.46088" lon="3.66956">
        <ele>19</ele>
        <time>2025-06-17T09:56:35Z</time>
      </trkpt>
      <trkpt lat="43.46086" lon="3.66953">
        <ele>19</ele>
        <time>2025-06-17T09:56:36Z</time>
      </trkpt>
      <trkpt lat="43.46083" lon="3.66949">
        <ele>19</ele>
        <time>2025-06-17T09:56:37Z</time>
      </trkpt>
      <trkpt lat="43.4608" lon="3.66946">
        <ele>19</ele>
        <time>2025-06-17T09:56:38Z</time>
      </trkpt>
      <trkpt lat="43.46078" lon="3.66942">
        <ele>19</ele>
        <time>2025-06-17T09:56:39Z</time>
      </trkpt>
      <trkpt lat="43.46074" lon="3.66938">
        <ele>19</ele>
        <time>2025-06-17T09:56:40Z</time>
      </trkpt>
      <trkpt lat="43.46072" lon="3.66935">
        <ele>19</ele>
        <time>2025-06-17T09:56:41Z</time>
      </trkpt>
      <trkpt lat="43.46068" lon="3.6693">
        <ele>19</ele>
        <time>2025-06-17T09:56:42Z</time>
      </trkpt>
      <trkpt lat="43.46065" lon="3.66927">
        <ele>19</ele>
        <time>2025-06-17T09:56:43Z</time>
      </trkpt>
      <trkpt lat="43.46061" lon="3.66921">
        <ele>18.8</ele>
        <time>2025-06-17T09:56:44Z</time>
      </trkpt>
      <trkpt lat="43.46058" lon="3.66917">
        <ele>18.8</ele>
        <time>2025-06-17T09:56:45Z</time>
      </trkpt>
      <trkpt lat="43.46054" lon="3.66912">
        <ele>18.8</ele>
        <time>2025-06-17T09:56:46Z</time>
      </trkpt>
      <trkpt lat="43.46051" lon="3.66907">
        <ele>18.8</ele>
        <time>2025-06-17T09:56:47Z</time>
      </trkpt>
      <trkpt lat="43.46047" lon="3.66902">
        <ele>18.8</ele>
        <time>2025-06-17T09:56:48Z</time>
      </trkpt>
      <trkpt lat="43.46043" lon="3.66897">
        <ele>18.8</ele>
        <time>2025-06-17T09:56:49Z</time>
      </trkpt>
      <trkpt lat="43.46038" lon="3.66892">
        <ele>18.8</ele>
        <time>2025-06-17T09:56:50Z</time>
      </trkpt>
      <trkpt lat="43.46035" lon="3.66887">
        <ele>18.8</ele>
        <time>2025-06-17T09:56:51Z</time>
      </trkpt>
      <trkpt lat="43.4603" lon="3.66882">
        <ele>18.8</ele>
        <time>2025-06-17T09:56:52Z</time>
      </trkpt>
      <trkpt lat="43.46026" lon="3.66877">
        <ele>18.8</ele>
        <time>2025-06-17T09:56:53Z</time>
      </trkpt>
      <trkpt lat="43.46022" lon="3.66872">
        <ele>18.8</ele>
        <time>2025-06-17T09:56:54Z</time>
      </trkpt>
      <trkpt lat="43.46017" lon="3.66867">
        <ele>18.6</ele>
        <time>2025-06-17T09:56:55Z</time>
      </trkpt>
      <trkpt lat="43.46013" lon="3.66863">
        <ele>18.8</ele>
        <time>2025-06-17T09:56:56Z</time>
      </trkpt>
      <trkpt lat="43.46008" lon="3.66857">
        <ele>18.8</ele>
        <time>2025-06-17T09:56:57Z</time>
      </trkpt>
      <trkpt lat="43.46003" lon="3.66853">
        <ele>18.8</ele>
        <time>2025-06-17T09:56:58Z</time>
      </trkpt>
      <trkpt lat="43.45999" lon="3.66848">
        <ele>18.6</ele>
        <time>2025-06-17T09:56:59Z</time>
      </trkpt>
      <trkpt lat="43.45994" lon="3.66843">
        <ele>18.8</ele>
        <time>2025-06-17T09:57:00Z</time>
      </trkpt>
      <trkpt lat="43.4599" lon="3.66839">
        <ele>18.8</ele>
        <time>2025-06-17T09:57:01Z</time>
      </trkpt>
      <trkpt lat="43.45986" lon="3.66834">
        <ele>18.8</ele>
        <time>2025-06-17T09:57:02Z</time>
      </trkpt>
      <trkpt lat="43.45981" lon="3.6683">
        <ele>18.8</ele>
        <time>2025-06-17T09:57:03Z</time>
      </trkpt>
      <trkpt lat="43.45976" lon="3.66825">
        <ele>18.8</ele>
        <time>2025-06-17T09:57:04Z</time>
      </trkpt>
      <trkpt lat="43.45972" lon="3.6682">
        <ele>18.8</ele>
        <time>2025-06-17T09:57:05Z</time>
      </trkpt>
      <trkpt lat="43.45967" lon="3.66815">
        <ele>18.8</ele>
        <time>2025-06-17T09:57:06Z</time>
      </trkpt>
      <trkpt lat="43.45964" lon="3.66812">
        <ele>18.8</ele>
        <time>2025-06-17T09:57:07Z</time>
      </trkpt>
      <trkpt lat="43.45958" lon="3.66806">
        <ele>18.8</ele>
        <time>2025-06-17T09:57:08Z</time>
      </trkpt>
      <trkpt lat="43.45953" lon="3.66802">
        <ele>18.8</ele>
        <time>2025-06-17T09:57:09Z</time>
      </trkpt>
      <trkpt lat="43.45949" lon="3.66798">
        <ele>18.8</ele>
        <time>2025-06-17T09:57:10Z</time>
      </trkpt>
      <trkpt lat="43.45944" lon="3.66793">
        <ele>18.8</ele>
        <time>2025-06-17T09:57:11Z</time>
      </trkpt>
      <trkpt lat="43.45939" lon="3.66789">
        <ele>18.8</ele>
        <time>2025-06-17T09:57:12Z</time>
      </trkpt>
      <trkpt lat="43.45934" lon="3.66785">
        <ele>18.8</ele>
        <time>2025-06-17T09:57:13Z</time>
      </trkpt>
      <trkpt lat="43.4593" lon="3.6678">
        <ele>18.8</ele>
        <time>2025-06-17T09:57:14Z</time>
      </trkpt>
      <trkpt lat="43.45925" lon="3.66776">
        <ele>18.8</ele>
        <time>2025-06-17T09:57:15Z</time>
      </trkpt>
      <trkpt lat="43.4592" lon="3.66772">
        <ele>18.8</ele>
        <time>2025-06-17T09:57:16Z</time>
      </trkpt>
      <trkpt lat="43.45916" lon="3.66767">
        <ele>18.8</ele>
        <time>2025-06-17T09:57:17Z</time>
      </trkpt>
      <trkpt lat="43.45911" lon="3.66763">
        <ele>18.8</ele>
        <time>2025-06-17T09:57:18Z</time>
      </trkpt>
      <trkpt lat="43.45906" lon="3.66759">
        <ele>18.8</ele>
        <time>2025-06-17T09:57:19Z</time>
      </trkpt>
      <trkpt lat="43.45901" lon="3.66755">
        <ele>18.8</ele>
        <time>2025-06-17T09:57:20Z</time>
      </trkpt>
      <trkpt lat="43.45896" lon="3.66751">
        <ele>18.8</ele>
        <time>2025-06-17T09:57:21Z</time>
      </trkpt>
      <trkpt lat="43.45891" lon="3.66748">
        <ele>18.8</ele>
        <time>2025-06-17T09:57:22Z</time>
      </trkpt>
      <trkpt lat="43.45886" lon="3.66744">
        <ele>18.8</ele>
        <time>2025-06-17T09:57:23Z</time>
      </trkpt>
      <trkpt lat="43.45881" lon="3.6674">
        <ele>18.8</ele>
        <time>2025-06-17T09:57:24Z</time>
      </trkpt>
      <trkpt lat="43.45876" lon="3.66737">
        <ele>18.8</ele>
        <time>2025-06-17T09:57:25Z</time>
      </trkpt>
      <trkpt lat="43.45871" lon="3.66733">
        <ele>19</ele>
        <time>2025-06-17T09:57:26Z</time>
      </trkpt>
      <trkpt lat="43.45866" lon="3.6673">
        <ele>19</ele>
        <time>2025-06-17T09:57:27Z</time>
      </trkpt>
      <trkpt lat="43.45861" lon="3.66726">
        <ele>19</ele>
        <time>2025-06-17T09:57:28Z</time>
      </trkpt>
      <trkpt lat="43.45855" lon="3.66723">
        <ele>19</ele>
        <time>2025-06-17T09:57:29Z</time>
      </trkpt>
      <trkpt lat="43.4585" lon="3.66719">
        <ele>19</ele>
        <time>2025-06-17T09:57:30Z</time>
      </trkpt>
      <trkpt lat="43.45845" lon="3.66716">
        <ele>19</ele>
        <time>2025-06-17T09:57:31Z</time>
      </trkpt>
      <trkpt lat="43.4584" lon="3.66712">
        <ele>19</ele>
        <time>2025-06-17T09:57:32Z</time>
      </trkpt>
      <trkpt lat="43.45835" lon="3.66709">
        <ele>19</ele>
        <time>2025-06-17T09:57:33Z</time>
      </trkpt>
      <trkpt lat="43.45831" lon="3.66706">
        <ele>19</ele>
        <time>2025-06-17T09:57:34Z</time>
      </trkpt>
      <trkpt lat="43.45825" lon="3.66702">
        <ele>19</ele>
        <time>2025-06-17T09:57:35Z</time>
      </trkpt>
      <trkpt lat="43.45821" lon="3.667">
        <ele>19.2</ele>
        <time>2025-06-17T09:57:36Z</time>
      </trkpt>
      <trkpt lat="43.45814" lon="3.66696">
        <ele>19.2</ele>
        <time>2025-06-17T09:57:37Z</time>
      </trkpt>
      <trkpt lat="43.45809" lon="3.66692">
        <ele>19.2</ele>
        <time>2025-06-17T09:57:38Z</time>
      </trkpt>
      <trkpt lat="43.45804" lon="3.66689">
        <ele>19.4</ele>
        <time>2025-06-17T09:57:39Z</time>
      </trkpt>
      <trkpt lat="43.45799" lon="3.66686">
        <ele>19.4</ele>
        <time>2025-06-17T09:57:40Z</time>
      </trkpt>
      <trkpt lat="43.45795" lon="3.66683">
        <ele>19.6</ele>
        <time>2025-06-17T09:57:41Z</time>
      </trkpt>
      <trkpt lat="43.4579" lon="3.6668">
        <ele>19.6</ele>
        <time>2025-06-17T09:57:42Z</time>
      </trkpt>
      <trkpt lat="43.45785" lon="3.66677">
        <ele>19.8</ele>
        <time>2025-06-17T09:57:43Z</time>
      </trkpt>
      <trkpt lat="43.45781" lon="3.66674">
        <ele>20</ele>
        <time>2025-06-17T09:57:44Z</time>
      </trkpt>
      <trkpt lat="43.45776" lon="3.66672">
        <ele>20.2</ele>
        <time>2025-06-17T09:57:45Z</time>
      </trkpt>
      <trkpt lat="43.45772" lon="3.66669">
        <ele>20.2</ele>
        <time>2025-06-17T09:57:46Z</time>
      </trkpt>
      <trkpt lat="43.45768" lon="3.66666">
        <ele>20.2</ele>
        <time>2025-06-17T09:57:47Z</time>
      </trkpt>
      <trkpt lat="43.45763" lon="3.66664">
        <ele>20.4</ele>
        <time>2025-06-17T09:57:48Z</time>
      </trkpt>
      <trkpt lat="43.45758" lon="3.66661">
        <ele>20.4</ele>
        <time>2025-06-17T09:57:49Z</time>
      </trkpt>
      <trkpt lat="43.45754" lon="3.66659">
        <ele>20.4</ele>
        <time>2025-06-17T09:57:50Z</time>
      </trkpt>
      <trkpt lat="43.4575" lon="3.66657">
        <ele>20.6</ele>
        <time>2025-06-17T09:57:51Z</time>
      </trkpt>
      <trkpt lat="43.45746" lon="3.66654">
        <ele>20.6</ele>
        <time>2025-06-17T09:57:52Z</time>
      </trkpt>
      <trkpt lat="43.45741" lon="3.66652">
        <ele>20.6</ele>
        <time>2025-06-17T09:57:53Z</time>
      </trkpt>
      <trkpt lat="43.45737" lon="3.66649">
        <ele>20.8</ele>
        <time>2025-06-17T09:57:54Z</time>
      </trkpt>
      <trkpt lat="43.45734" lon="3.66646">
        <ele>21</ele>
        <time>2025-06-17T09:57:55Z</time>
      </trkpt>
      <trkpt lat="43.45731" lon="3.66644">
        <ele>21</ele>
        <time>2025-06-17T09:57:56Z</time>
      </trkpt>
      <trkpt lat="43.45727" lon="3.66641">
        <ele>21.2</ele>
        <time>2025-06-17T09:57:57Z</time>
      </trkpt>
      <trkpt lat="43.45725" lon="3.6664">
        <ele>21.4</ele>
        <time>2025-06-17T09:57:58Z</time>
      </trkpt>
      <trkpt lat="43.45722" lon="3.66638">
        <ele>21.4</ele>
        <time>2025-06-17T09:57:59Z</time>
      </trkpt>
      <trkpt lat="43.45721" lon="3.66637">
        <ele>21.6</ele>
        <time>2025-06-17T09:58:00Z</time>
      </trkpt>
      <trkpt lat="43.45719" lon="3.66636">
        <ele>21.6</ele>
        <time>2025-06-17T09:58:01Z</time>
      </trkpt>
      <trkpt lat="43.45716" lon="3.66635">
        <ele>21.6</ele>
        <time>2025-06-17T09:58:02Z</time>
      </trkpt>
      <trkpt lat="43.45713" lon="3.66634">
        <ele>21.6</ele>
        <time>2025-06-17T09:58:03Z</time>
      </trkpt>
      <trkpt lat="43.4571" lon="3.66632">
        <ele>21.6</ele>
        <time>2025-06-17T09:58:04Z</time>
      </trkpt>
      <trkpt lat="43.45706" lon="3.66629">
        <ele>21.6</ele>
        <time>2025-06-17T09:58:05Z</time>
      </trkpt>
      <trkpt lat="43.45702" lon="3.66626">
        <ele>21.6</ele>
        <time>2025-06-17T09:58:06Z</time>
      </trkpt>
      <trkpt lat="43.45698" lon="3.66624">
        <ele>21.8</ele>
        <time>2025-06-17T09:58:07Z</time>
      </trkpt>
      <trkpt lat="43.45693" lon="3.66621">
        <ele>21.8</ele>
        <time>2025-06-17T09:58:08Z</time>
      </trkpt>
      <trkpt lat="43.45689" lon="3.66618">
        <ele>21.8</ele>
        <time>2025-06-17T09:58:09Z</time>
      </trkpt>
      <trkpt lat="43.45685" lon="3.66616">
        <ele>21.8</ele>
        <time>2025-06-17T09:58:10Z</time>
      </trkpt>
      <trkpt lat="43.4568" lon="3.66613">
        <ele>22</ele>
        <time>2025-06-17T09:58:11Z</time>
      </trkpt>
      <trkpt lat="43.45676" lon="3.6661">
        <ele>22.2</ele>
        <time>2025-06-17T09:58:12Z</time>
      </trkpt>
      <trkpt lat="43.45671" lon="3.66608">
        <ele>22.2</ele>
        <time>2025-06-17T09:58:13Z</time>
      </trkpt>
      <trkpt lat="43.45667" lon="3.66605">
        <ele>22.4</ele>
        <time>2025-06-17T09:58:14Z</time>
      </trkpt>
      <trkpt lat="43.45663" lon="3.66602">
        <ele>22.4</ele>
        <time>2025-06-17T09:58:15Z</time>
      </trkpt>
      <trkpt lat="43.45659" lon="3.66599">
        <ele>22.6</ele>
        <time>2025-06-17T09:58:16Z</time>
      </trkpt>
      <trkpt lat="43.45655" lon="3.66597">
        <ele>22.6</ele>
        <time>2025-06-17T09:58:17Z</time>
      </trkpt>
      <trkpt lat="43.4565" lon="3.66594">
        <ele>22.8</ele>
        <time>2025-06-17T09:58:18Z</time>
      </trkpt>
      <trkpt lat="43.45646" lon="3.66591">
        <ele>22.8</ele>
        <time>2025-06-17T09:58:19Z</time>
      </trkpt>
      <trkpt lat="43.45642" lon="3.66588">
        <ele>23</ele>
        <time>2025-06-17T09:58:20Z</time>
      </trkpt>
      <trkpt lat="43.45638" lon="3.66585">
        <ele>23.2</ele>
        <time>2025-06-17T09:58:21Z</time>
      </trkpt>
      <trkpt lat="43.45634" lon="3.66583">
        <ele>23.2</ele>
        <time>2025-06-17T09:58:22Z</time>
      </trkpt>
      <trkpt lat="43.45629" lon="3.66581">
        <ele>23.2</ele>
        <time>2025-06-17T09:58:23Z</time>
      </trkpt>
      <trkpt lat="43.45625" lon="3.66579">
        <ele>23.4</ele>
        <time>2025-06-17T09:58:24Z</time>
      </trkpt>
      <trkpt lat="43.45621" lon="3.66577">
        <ele>23.4</ele>
        <time>2025-06-17T09:58:25Z</time>
      </trkpt>
      <trkpt lat="43.45618" lon="3.66575">
        <ele>23.6</ele>
        <time>2025-06-17T09:58:26Z</time>
      </trkpt>
      <trkpt lat="43.45614" lon="3.66571">
        <ele>23.6</ele>
        <time>2025-06-17T09:58:27Z</time>
      </trkpt>
      <trkpt lat="43.4561" lon="3.66569">
        <ele>23.8</ele>
        <time>2025-06-17T09:58:28Z</time>
      </trkpt>
      <trkpt lat="43.45606" lon="3.66566">
        <ele>23.8</ele>
        <time>2025-06-17T09:58:29Z</time>
      </trkpt>
      <trkpt lat="43.45603" lon="3.66564">
        <ele>24</ele>
        <time>2025-06-17T09:58:30Z</time>
      </trkpt>
      <trkpt lat="43.45599" lon="3.66562">
        <ele>24</ele>
        <time>2025-06-17T09:58:31Z</time>
      </trkpt>
      <trkpt lat="43.45596" lon="3.66559">
        <ele>24.2</ele>
        <time>2025-06-17T09:58:32Z</time>
      </trkpt>
      <trkpt lat="43.45592" lon="3.66556">
        <ele>24.2</ele>
        <time>2025-06-17T09:58:33Z</time>
      </trkpt>
      <trkpt lat="43.45588" lon="3.66554">
        <ele>24.4</ele>
        <time>2025-06-17T09:58:34Z</time>
      </trkpt>
      <trkpt lat="43.45585" lon="3.66551">
        <ele>24.4</ele>
        <time>2025-06-17T09:58:35Z</time>
      </trkpt>
      <trkpt lat="43.45581" lon="3.66549">
        <ele>24.6</ele>
        <time>2025-06-17T09:58:36Z</time>
      </trkpt>
      <trkpt lat="43.45577" lon="3.66547">
        <ele>24.6</ele>
        <time>2025-06-17T09:58:37Z</time>
      </trkpt>
      <trkpt lat="43.45573" lon="3.66545">
        <ele>24.6</ele>
        <time>2025-06-17T09:58:38Z</time>
      </trkpt>
      <trkpt lat="43.4557" lon="3.66542">
        <ele>24.8</ele>
        <time>2025-06-17T09:58:39Z</time>
      </trkpt>
      <trkpt lat="43.45566" lon="3.6654">
        <ele>24.8</ele>
        <time>2025-06-17T09:58:40Z</time>
      </trkpt>
      <trkpt lat="43.45562" lon="3.66537">
        <ele>24.8</ele>
        <time>2025-06-17T09:58:41Z</time>
      </trkpt>
      <trkpt lat="43.45559" lon="3.66535">
        <ele>25</ele>
        <time>2025-06-17T09:58:42Z</time>
      </trkpt>
      <trkpt lat="43.45555" lon="3.66532">
        <ele>25</ele>
        <time>2025-06-17T09:58:43Z</time>
      </trkpt>
      <trkpt lat="43.45551" lon="3.6653">
        <ele>25.2</ele>
        <time>2025-06-17T09:58:44Z</time>
      </trkpt>
      <trkpt lat="43.45547" lon="3.66527">
        <ele>25.2</ele>
        <time>2025-06-17T09:58:45Z</time>
      </trkpt>
      <trkpt lat="43.45543" lon="3.66525">
        <ele>25.4</ele>
        <time>2025-06-17T09:58:46Z</time>
      </trkpt>
      <trkpt lat="43.45539" lon="3.66523">
        <ele>25.4</ele>
        <time>2025-06-17T09:58:47Z</time>
      </trkpt>
      <trkpt lat="43.45535" lon="3.66521">
        <ele>25.6</ele>
        <time>2025-06-17T09:58:48Z</time>
      </trkpt>
      <trkpt lat="43.45531" lon="3.66519">
        <ele>25.6</ele>
        <time>2025-06-17T09:58:49Z</time>
      </trkpt>
      <trkpt lat="43.45528" lon="3.66517">
        <ele>25.6</ele>
        <time>2025-06-17T09:58:50Z</time>
      </trkpt>
      <trkpt lat="43.45524" lon="3.66514">
        <ele>25.8</ele>
        <time>2025-06-17T09:58:51Z</time>
      </trkpt>
      <trkpt lat="43.4552" lon="3.66512">
        <ele>26</ele>
        <time>2025-06-17T09:58:52Z</time>
      </trkpt>
      <trkpt lat="43.45516" lon="3.66509">
        <ele>26</ele>
        <time>2025-06-17T09:58:53Z</time>
      </trkpt>
      <trkpt lat="43.45513" lon="3.66507">
        <ele>26</ele>
        <time>2025-06-17T09:58:54Z</time>
      </trkpt>
      <trkpt lat="43.45508" lon="3.66505">
        <ele>26.2</ele>
        <time>2025-06-17T09:58:55Z</time>
      </trkpt>
      <trkpt lat="43.45505" lon="3.66502">
        <ele>26.2</ele>
        <time>2025-06-17T09:58:56Z</time>
      </trkpt>
      <trkpt lat="43.45501" lon="3.665">
        <ele>26.2</ele>
        <time>2025-06-17T09:58:57Z</time>
      </trkpt>
      <trkpt lat="43.45497" lon="3.66497">
        <ele>26.4</ele>
        <time>2025-06-17T09:58:58Z</time>
      </trkpt>
      <trkpt lat="43.45493" lon="3.66495">
        <ele>26.4</ele>
        <time>2025-06-17T09:58:59Z</time>
      </trkpt>
      <trkpt lat="43.4549" lon="3.66493">
        <ele>26.6</ele>
        <time>2025-06-17T09:59:00Z</time>
      </trkpt>
      <trkpt lat="43.45486" lon="3.66491">
        <ele>26.6</ele>
        <time>2025-06-17T09:59:01Z</time>
      </trkpt>
      <trkpt lat="43.45482" lon="3.66489">
        <ele>26.8</ele>
        <time>2025-06-17T09:59:02Z</time>
      </trkpt>
      <trkpt lat="43.45479" lon="3.66486">
        <ele>26.8</ele>
        <time>2025-06-17T09:59:03Z</time>
      </trkpt>
      <trkpt lat="43.45476" lon="3.66484">
        <ele>27</ele>
        <time>2025-06-17T09:59:04Z</time>
      </trkpt>
      <trkpt lat="43.45472" lon="3.66481">
        <ele>27</ele>
        <time>2025-06-17T09:59:05Z</time>
      </trkpt>
      <trkpt lat="43.45468" lon="3.66479">
        <ele>27.2</ele>
        <time>2025-06-17T09:59:06Z</time>
      </trkpt>
      <trkpt lat="43.45464" lon="3.66477">
        <ele>27.2</ele>
        <time>2025-06-17T09:59:07Z</time>
      </trkpt>
      <trkpt lat="43.45461" lon="3.66475">
        <ele>27.4</ele>
        <time>2025-06-17T09:59:08Z</time>
      </trkpt>
      <trkpt lat="43.45457" lon="3.66472">
        <ele>27.4</ele>
        <time>2025-06-17T09:59:09Z</time>
      </trkpt>
      <trkpt lat="43.45453" lon="3.6647">
        <ele>27.6</ele>
        <time>2025-06-17T09:59:10Z</time>
      </trkpt>
      <trkpt lat="43.4545" lon="3.66467">
        <ele>27.6</ele>
        <time>2025-06-17T09:59:11Z</time>
      </trkpt>
      <trkpt lat="43.45446" lon="3.66465">
        <ele>27.6</ele>
        <time>2025-06-17T09:59:12Z</time>
      </trkpt>
      <trkpt lat="43.45442" lon="3.66462">
        <ele>27.8</ele>
        <time>2025-06-17T09:59:13Z</time>
      </trkpt>
      <trkpt lat="43.45438" lon="3.6646">
        <ele>27.8</ele>
        <time>2025-06-17T09:59:14Z</time>
      </trkpt>
      <trkpt lat="43.45434" lon="3.66458">
        <ele>27.8</ele>
        <time>2025-06-17T09:59:15Z</time>
      </trkpt>
      <trkpt lat="43.4543" lon="3.66455">
        <ele>28</ele>
        <time>2025-06-17T09:59:16Z</time>
      </trkpt>
      <trkpt lat="43.45427" lon="3.66453">
        <ele>28</ele>
        <time>2025-06-17T09:59:17Z</time>
      </trkpt>
      <trkpt lat="43.45422" lon="3.6645">
        <ele>28.2</ele>
        <time>2025-06-17T09:59:18Z</time>
      </trkpt>
      <trkpt lat="43.45419" lon="3.66448">
        <ele>28.2</ele>
        <time>2025-06-17T09:59:19Z</time>
      </trkpt>
      <trkpt lat="43.45414" lon="3.66445">
        <ele>28.4</ele>
        <time>2025-06-17T09:59:20Z</time>
      </trkpt>
      <trkpt lat="43.4541" lon="3.66443">
        <ele>28.4</ele>
        <time>2025-06-17T09:59:21Z</time>
      </trkpt>
      <trkpt lat="43.45406" lon="3.6644">
        <ele>28.6</ele>
        <time>2025-06-17T09:59:22Z</time>
      </trkpt>
      <trkpt lat="43.45402" lon="3.66438">
        <ele>28.6</ele>
        <time>2025-06-17T09:59:23Z</time>
      </trkpt>
      <trkpt lat="43.45398" lon="3.66435">
        <ele>28.8</ele>
        <time>2025-06-17T09:59:24Z</time>
      </trkpt>
      <trkpt lat="43.45395" lon="3.66433">
        <ele>29</ele>
        <time>2025-06-17T09:59:25Z</time>
      </trkpt>
      <trkpt lat="43.4539" lon="3.6643">
        <ele>29</ele>
        <time>2025-06-17T09:59:26Z</time>
      </trkpt>
      <trkpt lat="43.45387" lon="3.66428">
        <ele>29</ele>
        <time>2025-06-17T09:59:27Z</time>
      </trkpt>
      <trkpt lat="43.45383" lon="3.66425">
        <ele>29.2</ele>
        <time>2025-06-17T09:59:28Z</time>
      </trkpt>
      <trkpt lat="43.45379" lon="3.66423">
        <ele>29.2</ele>
        <time>2025-06-17T09:59:29Z</time>
      </trkpt>
      <trkpt lat="43.45375" lon="3.6642">
        <ele>29.2</ele>
        <time>2025-06-17T09:59:30Z</time>
      </trkpt>
      <trkpt lat="43.45372" lon="3.66418">
        <ele>29.2</ele>
        <time>2025-06-17T09:59:31Z</time>
      </trkpt>
      <trkpt lat="43.45368" lon="3.66415">
        <ele>29.4</ele>
        <time>2025-06-17T09:59:32Z</time>
      </trkpt>
      <trkpt lat="43.45364" lon="3.66413">
        <ele>29.4</ele>
        <time>2025-06-17T09:59:33Z</time>
      </trkpt>
      <trkpt lat="43.4536" lon="3.6641">
        <ele>29.6</ele>
        <time>2025-06-17T09:59:34Z</time>
      </trkpt>
      <trkpt lat="43.45357" lon="3.66407">
        <ele>29.6</ele>
        <time>2025-06-17T09:59:35Z</time>
      </trkpt>
      <trkpt lat="43.45353" lon="3.66404">
        <ele>29.6</ele>
        <time>2025-06-17T09:59:36Z</time>
      </trkpt>
      <trkpt lat="43.45349" lon="3.66401">
        <ele>29.8</ele>
        <time>2025-06-17T09:59:37Z</time>
      </trkpt>
      <trkpt lat="43.45345" lon="3.66397">
        <ele>29.8</ele>
        <time>2025-06-17T09:59:38Z</time>
      </trkpt>
      <trkpt lat="43.45342" lon="3.66394">
        <ele>30</ele>
        <time>2025-06-17T09:59:39Z</time>
      </trkpt>
      <trkpt lat="43.45338" lon="3.66391">
        <ele>30</ele>
        <time>2025-06-17T09:59:40Z</time>
      </trkpt>
      <trkpt lat="43.45335" lon="3.66388">
        <ele>30</ele>
        <time>2025-06-17T09:59:41Z</time>
      </trkpt>
      <trkpt lat="43.45331" lon="3.66384">
        <ele>30.2</ele>
        <time>2025-06-17T09:59:42Z</time>
      </trkpt>
      <trkpt lat="43.45328" lon="3.66382">
        <ele>30.4</ele>
        <time>2025-06-17T09:59:43Z</time>
      </trkpt>
      <trkpt lat="43.45324" lon="3.66377">
        <ele>30.4</ele>
        <time>2025-06-17T09:59:44Z</time>
      </trkpt>
      <trkpt lat="43.45321" lon="3.66374">
        <ele>30.6</ele>
        <time>2025-06-17T09:59:45Z</time>
      </trkpt>
      <trkpt lat="43.45318" lon="3.6637">
        <ele>30.6</ele>
        <time>2025-06-17T09:59:46Z</time>
      </trkpt>
      <trkpt lat="43.45314" lon="3.66366">
        <ele>30.8</ele>
        <time>2025-06-17T09:59:47Z</time>
      </trkpt>
      <trkpt lat="43.4531" lon="3.66362">
        <ele>30.8</ele>
        <time>2025-06-17T09:59:48Z</time>
      </trkpt>
      <trkpt lat="43.45307" lon="3.66358">
        <ele>30.8</ele>
        <time>2025-06-17T09:59:49Z</time>
      </trkpt>
      <trkpt lat="43.45304" lon="3.66354">
        <ele>30.8</ele>
        <time>2025-06-17T09:59:50Z</time>
      </trkpt>
      <trkpt lat="43.453" lon="3.66349">
        <ele>31</ele>
        <time>2025-06-17T09:59:51Z</time>
      </trkpt>
      <trkpt lat="43.45296" lon="3.66344">
        <ele>31</ele>
        <time>2025-06-17T09:59:52Z</time>
      </trkpt>
      <trkpt lat="43.45293" lon="3.66339">
        <ele>31</ele>
        <time>2025-06-17T09:59:53Z</time>
      </trkpt>
      <trkpt lat="43.4529" lon="3.66335">
        <ele>31</ele>
        <time>2025-06-17T09:59:54Z</time>
      </trkpt>
      <trkpt lat="43.45285" lon="3.66329">
        <ele>31</ele>
        <time>2025-06-17T09:59:55Z</time>
      </trkpt>
      <trkpt lat="43.45282" lon="3.66324">
        <ele>31</ele>
        <time>2025-06-17T09:59:56Z</time>
      </trkpt>
      <trkpt lat="43.45278" lon="3.66319">
        <ele>31</ele>
        <time>2025-06-17T09:59:57Z</time>
      </trkpt>
      <trkpt lat="43.45275" lon="3.66313">
        <ele>31</ele>
        <time>2025-06-17T09:59:58Z</time>
      </trkpt>
      <trkpt lat="43.45272" lon="3.66308">
        <ele>31.2</ele>
        <time>2025-06-17T09:59:59Z</time>
      </trkpt>
      <trkpt lat="43.45268" lon="3.66302">
        <ele>31</ele>
        <time>2025-06-17T10:00:00Z</time>
      </trkpt>
      <trkpt lat="43.45266" lon="3.66296">
        <ele>31</ele>
        <time>2025-06-17T10:00:01Z</time>
      </trkpt>
      <trkpt lat="43.45262" lon="3.6629">
        <ele>31</ele>
        <time>2025-06-17T10:00:02Z</time>
      </trkpt>
      <trkpt lat="43.45259" lon="3.66283">
        <ele>31</ele>
        <time>2025-06-17T10:00:03Z</time>
      </trkpt>
      <trkpt lat="43.45256" lon="3.66276">
        <ele>31</ele>
        <time>2025-06-17T10:00:04Z</time>
      </trkpt>
      <trkpt lat="43.45253" lon="3.66269">
        <ele>31.2</ele>
        <time>2025-06-17T10:00:05Z</time>
      </trkpt>
      <trkpt lat="43.4525" lon="3.66262">
        <ele>31.2</ele>
        <time>2025-06-17T10:00:06Z</time>
      </trkpt>
      <trkpt lat="43.45247" lon="3.66255">
        <ele>31.2</ele>
        <time>2025-06-17T10:00:07Z</time>
      </trkpt>
      <trkpt lat="43.45245" lon="3.66249">
        <ele>31.2</ele>
        <time>2025-06-17T10:00:08Z</time>
      </trkpt>
      <trkpt lat="43.45242" lon="3.66241">
        <ele>31.2</ele>
        <time>2025-06-17T10:00:09Z</time>
      </trkpt>
      <trkpt lat="43.4524" lon="3.66235">
        <ele>31.2</ele>
        <time>2025-06-17T10:00:10Z</time>
      </trkpt>
      <trkpt lat="43.45238" lon="3.66227">
        <ele>31.2</ele>
        <time>2025-06-17T10:00:11Z</time>
      </trkpt>
      <trkpt lat="43.45235" lon="3.66219">
        <ele>31.2</ele>
        <time>2025-06-17T10:00:12Z</time>
      </trkpt>
      <trkpt lat="43.45233" lon="3.66211">
        <ele>31.2</ele>
        <time>2025-06-17T10:00:13Z</time>
      </trkpt>
      <trkpt lat="43.45231" lon="3.66203">
        <ele>31.2</ele>
        <time>2025-06-17T10:00:14Z</time>
      </trkpt>
      <trkpt lat="43.4523" lon="3.66196">
        <ele>31.2</ele>
        <time>2025-06-17T10:00:15Z</time>
      </trkpt>
      <trkpt lat="43.45228" lon="3.66188">
        <ele>31.2</ele>
        <time>2025-06-17T10:00:16Z</time>
      </trkpt>
      <trkpt lat="43.45227" lon="3.66179">
        <ele>31.2</ele>
        <time>2025-06-17T10:00:17Z</time>
      </trkpt>
      <trkpt lat="43.45226" lon="3.66171">
        <ele>31.2</ele>
        <time>2025-06-17T10:00:18Z</time>
      </trkpt>
      <trkpt lat="43.45225" lon="3.66163">
        <ele>31</ele>
        <time>2025-06-17T10:00:19Z</time>
      </trkpt>
      <trkpt lat="43.45224" lon="3.66155">
        <ele>31</ele>
        <time>2025-06-17T10:00:20Z</time>
      </trkpt>
      <trkpt lat="43.45223" lon="3.66147">
        <ele>30.8</ele>
        <time>2025-06-17T10:00:21Z</time>
      </trkpt>
      <trkpt lat="43.45222" lon="3.66139">
        <ele>31</ele>
        <time>2025-06-17T10:00:22Z</time>
      </trkpt>
      <trkpt lat="43.45221" lon="3.66131">
        <ele>31</ele>
        <time>2025-06-17T10:00:23Z</time>
      </trkpt>
      <trkpt lat="43.4522" lon="3.66122">
        <ele>31</ele>
        <time>2025-06-17T10:00:24Z</time>
      </trkpt>
      <trkpt lat="43.4522" lon="3.66114">
        <ele>31</ele>
        <time>2025-06-17T10:00:25Z</time>
      </trkpt>
      <trkpt lat="43.45219" lon="3.66105">
        <ele>31</ele>
        <time>2025-06-17T10:00:26Z</time>
      </trkpt>
      <trkpt lat="43.45219" lon="3.66096">
        <ele>30.8</ele>
        <time>2025-06-17T10:00:27Z</time>
      </trkpt>
      <trkpt lat="43.45219" lon="3.66087">
        <ele>30.8</ele>
        <time>2025-06-17T10:00:28Z</time>
      </trkpt>
      <trkpt lat="43.45219" lon="3.66079">
        <ele>30.8</ele>
        <time>2025-06-17T10:00:29Z</time>
      </trkpt>
      <trkpt lat="43.45219" lon="3.66071">
        <ele>30.6</ele>
        <time>2025-06-17T10:00:30Z</time>
      </trkpt>
      <trkpt lat="43.45219" lon="3.66062">
        <ele>30.6</ele>
        <time>2025-06-17T10:00:31Z</time>
      </trkpt>
      <trkpt lat="43.45219" lon="3.66054">
        <ele>30.6</ele>
        <time>2025-06-17T10:00:32Z</time>
      </trkpt>
      <trkpt lat="43.45219" lon="3.66045">
        <ele>30.6</ele>
        <time>2025-06-17T10:00:33Z</time>
      </trkpt>
      <trkpt lat="43.45217" lon="3.66038">
        <ele>30.6</ele>
        <time>2025-06-17T10:00:34Z</time>
      </trkpt>
      <trkpt lat="43.45217" lon="3.66028">
        <ele>30.6</ele>
        <time>2025-06-17T10:00:35Z</time>
      </trkpt>
      <trkpt lat="43.45216" lon="3.66022">
        <ele>30.6</ele>
        <time>2025-06-17T10:00:36Z</time>
      </trkpt>
      <trkpt lat="43.45216" lon="3.66013">
        <ele>30.8</ele>
        <time>2025-06-17T10:00:37Z</time>
      </trkpt>
      <trkpt lat="43.45216" lon="3.66006">
        <ele>30.8</ele>
        <time>2025-06-17T10:00:38Z</time>
      </trkpt>
      <trkpt lat="43.45216" lon="3.66">
        <ele>31</ele>
        <time>2025-06-17T10:00:39Z</time>
      </trkpt>
      <trkpt lat="43.45215" lon="3.65994">
        <ele>31</ele>
        <time>2025-06-17T10:00:40Z</time>
      </trkpt>
      <trkpt lat="43.45215" lon="3.6599">
        <ele>31.2</ele>
        <time>2025-06-17T10:00:41Z</time>
      </trkpt>
      <trkpt lat="43.45215" lon="3.65986">
        <ele>31.2</ele>
        <time>2025-06-17T10:00:42Z</time>
      </trkpt>
      <trkpt lat="43.45214" lon="3.65983">
        <ele>31.2</ele>
        <time>2025-06-17T10:00:43Z</time>
      </trkpt>
      <trkpt lat="43.45214" lon="3.6598">
        <ele>31.4</ele>
        <time>2025-06-17T10:00:44Z</time>
      </trkpt>
      <trkpt lat="43.45214" lon="3.65977">
        <ele>31.4</ele>
        <time>2025-06-17T10:00:45Z</time>
      </trkpt>
      <trkpt lat="43.45214" lon="3.65973">
        <ele>31.4</ele>
        <time>2025-06-17T10:00:46Z</time>
      </trkpt>
      <trkpt lat="43.45213" lon="3.65969">
        <ele>31.4</ele>
        <time>2025-06-17T10:00:47Z</time>
      </trkpt>
      <trkpt lat="43.45213" lon="3.65964">
        <ele>31.4</ele>
        <time>2025-06-17T10:00:48Z</time>
      </trkpt>
      <trkpt lat="43.45213" lon="3.65959">
        <ele>31.4</ele>
        <time>2025-06-17T10:00:49Z</time>
      </trkpt>
      <trkpt lat="43.45214" lon="3.65953">
        <ele>31.4</ele>
        <time>2025-06-17T10:00:50Z</time>
      </trkpt>
      <trkpt lat="43.45214" lon="3.65946">
        <ele>31.4</ele>
        <time>2025-06-17T10:00:51Z</time>
      </trkpt>
      <trkpt lat="43.45214" lon="3.6594">
        <ele>31.2</ele>
        <time>2025-06-17T10:00:52Z</time>
      </trkpt>
      <trkpt lat="43.45213" lon="3.65934">
        <ele>31.2</ele>
        <time>2025-06-17T10:00:53Z</time>
      </trkpt>
      <trkpt lat="43.45213" lon="3.65927">
        <ele>31.2</ele>
        <time>2025-06-17T10:00:54Z</time>
      </trkpt>
      <trkpt lat="43.45213" lon="3.65919">
        <ele>31.2</ele>
        <time>2025-06-17T10:00:55Z</time>
      </trkpt>
      <trkpt lat="43.45213" lon="3.65913">
        <ele>31.2</ele>
        <time>2025-06-17T10:00:56Z</time>
      </trkpt>
      <trkpt lat="43.45214" lon="3.65906">
        <ele>31</ele>
        <time>2025-06-17T10:00:57Z</time>
      </trkpt>
      <trkpt lat="43.45214" lon="3.65899">
        <ele>31</ele>
        <time>2025-06-17T10:00:58Z</time>
      </trkpt>
      <trkpt lat="43.45214" lon="3.65891">
        <ele>31</ele>
        <time>2025-06-17T10:00:59Z</time>
      </trkpt>
      <trkpt lat="43.45214" lon="3.65884">
        <ele>31</ele>
        <time>2025-06-17T10:01:00Z</time>
      </trkpt>
      <trkpt lat="43.45214" lon="3.65876">
        <ele>31</ele>
        <time>2025-06-17T10:01:01Z</time>
      </trkpt>
      <trkpt lat="43.45214" lon="3.65869">
        <ele>31</ele>
        <time>2025-06-17T10:01:02Z</time>
      </trkpt>
      <trkpt lat="43.45213" lon="3.65861">
        <ele>31</ele>
        <time>2025-06-17T10:01:03Z</time>
      </trkpt>
      <trkpt lat="43.45213" lon="3.65851">
        <ele>31</ele>
        <time>2025-06-17T10:01:04Z</time>
      </trkpt>
      <trkpt lat="43.45213" lon="3.65843">
        <ele>31</ele>
        <time>2025-06-17T10:01:05Z</time>
      </trkpt>
      <trkpt lat="43.45213" lon="3.65834">
        <ele>31</ele>
        <time>2025-06-17T10:01:06Z</time>
      </trkpt>
      <trkpt lat="43.45212" lon="3.65826">
        <ele>31</ele>
        <time>2025-06-17T10:01:07Z</time>
      </trkpt>
      <trkpt lat="43.45212" lon="3.65816">
        <ele>31</ele>
        <time>2025-06-17T10:01:08Z</time>
      </trkpt>
      <trkpt lat="43.45211" lon="3.65808">
        <ele>31</ele>
        <time>2025-06-17T10:01:09Z</time>
      </trkpt>
      <trkpt lat="43.45211" lon="3.65799">
        <ele>31</ele>
        <time>2025-06-17T10:01:10Z</time>
      </trkpt>
      <trkpt lat="43.4521" lon="3.65792">
        <ele>31</ele>
        <time>2025-06-17T10:01:11Z</time>
      </trkpt>
      <trkpt lat="43.4521" lon="3.65782">
        <ele>30.8</ele>
        <time>2025-06-17T10:01:12Z</time>
      </trkpt>
      <trkpt lat="43.45209" lon="3.65772">
        <ele>30.8</ele>
        <time>2025-06-17T10:01:13Z</time>
      </trkpt>
      <trkpt lat="43.45209" lon="3.65763">
        <ele>30.8</ele>
        <time>2025-06-17T10:01:14Z</time>
      </trkpt>
      <trkpt lat="43.45209" lon="3.65754">
        <ele>30.8</ele>
        <time>2025-06-17T10:01:15Z</time>
      </trkpt>
      <trkpt lat="43.45209" lon="3.65746">
        <ele>30.8</ele>
        <time>2025-06-17T10:01:16Z</time>
      </trkpt>
      <trkpt lat="43.45208" lon="3.65736">
        <ele>30.8</ele>
        <time>2025-06-17T10:01:17Z</time>
      </trkpt>
      <trkpt lat="43.45208" lon="3.65728">
        <ele>30.8</ele>
        <time>2025-06-17T10:01:18Z</time>
      </trkpt>
      <trkpt lat="43.45208" lon="3.65719">
        <ele>30.8</ele>
        <time>2025-06-17T10:01:19Z</time>
      </trkpt>
      <trkpt lat="43.45207" lon="3.65711">
        <ele>30.8</ele>
        <time>2025-06-17T10:01:20Z</time>
      </trkpt>
      <trkpt lat="43.45207" lon="3.65702">
        <ele>30.8</ele>
        <time>2025-06-17T10:01:21Z</time>
      </trkpt>
      <trkpt lat="43.45207" lon="3.65694">
        <ele>30.8</ele>
        <time>2025-06-17T10:01:22Z</time>
      </trkpt>
      <trkpt lat="43.45207" lon="3.65684">
        <ele>30.8</ele>
        <time>2025-06-17T10:01:23Z</time>
      </trkpt>
      <trkpt lat="43.45206" lon="3.65676">
        <ele>30.8</ele>
        <time>2025-06-17T10:01:24Z</time>
      </trkpt>
      <trkpt lat="43.45206" lon="3.65668">
        <ele>30.8</ele>
        <time>2025-06-17T10:01:25Z</time>
      </trkpt>
      <trkpt lat="43.45206" lon="3.65659">
        <ele>30.8</ele>
        <time>2025-06-17T10:01:26Z</time>
      </trkpt>
      <trkpt lat="43.45206" lon="3.65651">
        <ele>30.8</ele>
        <time>2025-06-17T10:01:27Z</time>
      </trkpt>
      <trkpt lat="43.45205" lon="3.65642">
        <ele>30.8</ele>
        <time>2025-06-17T10:01:28Z</time>
      </trkpt>
      <trkpt lat="43.45205" lon="3.65633">
        <ele>30.8</ele>
        <time>2025-06-17T10:01:29Z</time>
      </trkpt>
      <trkpt lat="43.45205" lon="3.65624">
        <ele>31</ele>
        <time>2025-06-17T10:01:30Z</time>
      </trkpt>
      <trkpt lat="43.45204" lon="3.65615">
        <ele>31</ele>
        <time>2025-06-17T10:01:31Z</time>
      </trkpt>
      <trkpt lat="43.45204" lon="3.65606">
        <ele>31</ele>
        <time>2025-06-17T10:01:32Z</time>
      </trkpt>
      <trkpt lat="43.45204" lon="3.65598">
        <ele>31</ele>
        <time>2025-06-17T10:01:33Z</time>
      </trkpt>
      <trkpt lat="43.45203" lon="3.65589">
        <ele>31</ele>
        <time>2025-06-17T10:01:34Z</time>
      </trkpt>
      <trkpt lat="43.45203" lon="3.65581">
        <ele>31</ele>
        <time>2025-06-17T10:01:35Z</time>
      </trkpt>
      <trkpt lat="43.45203" lon="3.65572">
        <ele>31</ele>
        <time>2025-06-17T10:01:36Z</time>
      </trkpt>
      <trkpt lat="43.45203" lon="3.65564">
        <ele>31</ele>
        <time>2025-06-17T10:01:37Z</time>
      </trkpt>
      <trkpt lat="43.45202" lon="3.65556">
        <ele>31.2</ele>
        <time>2025-06-17T10:01:38Z</time>
      </trkpt>
      <trkpt lat="43.45201" lon="3.65548">
        <ele>31.2</ele>
        <time>2025-06-17T10:01:39Z</time>
      </trkpt>
      <trkpt lat="43.452" lon="3.65541">
        <ele>31.2</ele>
        <time>2025-06-17T10:01:40Z</time>
      </trkpt>
      <trkpt lat="43.45199" lon="3.65534">
        <ele>31.4</ele>
        <time>2025-06-17T10:01:41Z</time>
      </trkpt>
      <trkpt lat="43.45199" lon="3.65527">
        <ele>31.4</ele>
        <time>2025-06-17T10:01:42Z</time>
      </trkpt>
      <trkpt lat="43.45198" lon="3.65521">
        <ele>31.4</ele>
        <time>2025-06-17T10:01:43Z</time>
      </trkpt>
      <trkpt lat="43.45198" lon="3.65515">
        <ele>31.6</ele>
        <time>2025-06-17T10:01:44Z</time>
      </trkpt>
      <trkpt lat="43.45197" lon="3.6551">
        <ele>31.6</ele>
        <time>2025-06-17T10:01:45Z</time>
      </trkpt>
      <trkpt lat="43.45196" lon="3.65505">
        <ele>31.6</ele>
        <time>2025-06-17T10:01:46Z</time>
      </trkpt>
      <trkpt lat="43.45195" lon="3.65502">
        <ele>31.6</ele>
        <time>2025-06-17T10:01:47Z</time>
      </trkpt>
      <trkpt lat="43.45194" lon="3.65499">
        <ele>31.6</ele>
        <time>2025-06-17T10:01:48Z</time>
      </trkpt>
      <trkpt lat="43.45193" lon="3.65498">
        <ele>31.6</ele>
        <time>2025-06-17T10:01:49Z</time>
      </trkpt>
      <trkpt lat="43.45193" lon="3.65496">
        <ele>31.6</ele>
        <time>2025-06-17T10:01:50Z</time>
      </trkpt>
      <trkpt lat="43.45193" lon="3.65495">
        <ele>31.4</ele>
        <time>2025-06-17T10:02:02Z</time>
      </trkpt>
      <trkpt lat="43.45193" lon="3.65492">
        <ele>31.4</ele>
        <time>2025-06-17T10:02:03Z</time>
      </trkpt>
      <trkpt lat="43.45193" lon="3.65489">
        <ele>31.4</ele>
        <time>2025-06-17T10:02:04Z</time>
      </trkpt>
      <trkpt lat="43.45192" lon="3.65487">
        <ele>31.4</ele>
        <time>2025-06-17T10:02:05Z</time>
      </trkpt>
      <trkpt lat="43.45193" lon="3.65484">
        <ele>31.4</ele>
        <time>2025-06-17T10:02:06Z</time>
      </trkpt>
      <trkpt lat="43.45194" lon="3.65482">
        <ele>31.4</ele>
        <time>2025-06-17T10:02:07Z</time>
      </trkpt>
      <trkpt lat="43.45196" lon="3.65481">
        <ele>31.4</ele>
        <time>2025-06-17T10:02:08Z</time>
      </trkpt>
      <trkpt lat="43.45199" lon="3.6548">
        <ele>31.4</ele>
        <time>2025-06-17T10:02:09Z</time>
      </trkpt>
      <trkpt lat="43.45201" lon="3.65479">
        <ele>31.4</ele>
        <time>2025-06-17T10:02:10Z</time>
      </trkpt>
      <trkpt lat="43.45204" lon="3.65478">
        <ele>31.4</ele>
        <time>2025-06-17T10:02:11Z</time>
      </trkpt>
      <trkpt lat="43.45207" lon="3.65475">
        <ele>31.4</ele>
        <time>2025-06-17T10:02:12Z</time>
      </trkpt>
      <trkpt lat="43.4521" lon="3.65473">
        <ele>31.4</ele>
        <time>2025-06-17T10:02:13Z</time>
      </trkpt>
      <trkpt lat="43.45214" lon="3.6547">
        <ele>31.4</ele>
        <time>2025-06-17T10:02:14Z</time>
      </trkpt>
      <trkpt lat="43.45217" lon="3.65467">
        <ele>31.6</ele>
        <time>2025-06-17T10:02:15Z</time>
      </trkpt>
      <trkpt lat="43.45221" lon="3.65464">
        <ele>31.6</ele>
        <time>2025-06-17T10:02:16Z</time>
      </trkpt>
      <trkpt lat="43.45225" lon="3.65462">
        <ele>31.8</ele>
        <time>2025-06-17T10:02:17Z</time>
      </trkpt>
      <trkpt lat="43.45228" lon="3.6546">
        <ele>31.8</ele>
        <time>2025-06-17T10:02:18Z</time>
      </trkpt>
      <trkpt lat="43.45232" lon="3.65458">
        <ele>32</ele>
        <time>2025-06-17T10:02:19Z</time>
      </trkpt>
      <trkpt lat="43.45236" lon="3.65456">
        <ele>32</ele>
        <time>2025-06-17T10:02:20Z</time>
      </trkpt>
      <trkpt lat="43.45239" lon="3.65454">
        <ele>32.2</ele>
        <time>2025-06-17T10:02:21Z</time>
      </trkpt>
      <trkpt lat="43.45243" lon="3.65452">
        <ele>32.2</ele>
        <time>2025-06-17T10:02:22Z</time>
      </trkpt>
      <trkpt lat="43.45247" lon="3.6545">
        <ele>32.4</ele>
        <time>2025-06-17T10:02:23Z</time>
      </trkpt>
      <trkpt lat="43.45251" lon="3.65447">
        <ele>32.6</ele>
        <time>2025-06-17T10:02:24Z</time>
      </trkpt>
      <trkpt lat="43.45254" lon="3.65445">
        <ele>32.6</ele>
        <time>2025-06-17T10:02:25Z</time>
      </trkpt>
      <trkpt lat="43.45258" lon="3.65442">
        <ele>32.8</ele>
        <time>2025-06-17T10:02:26Z</time>
      </trkpt>
      <trkpt lat="43.45262" lon="3.6544">
        <ele>32.8</ele>
        <time>2025-06-17T10:02:27Z</time>
      </trkpt>
      <trkpt lat="43.45267" lon="3.65437">
        <ele>33</ele>
        <time>2025-06-17T10:02:28Z</time>
      </trkpt>
      <trkpt lat="43.4527" lon="3.65435">
        <ele>33.2</ele>
        <time>2025-06-17T10:02:29Z</time>
      </trkpt>
      <trkpt lat="43.45275" lon="3.65432">
        <ele>33.2</ele>
        <time>2025-06-17T10:02:30Z</time>
      </trkpt>
      <trkpt lat="43.45278" lon="3.6543">
        <ele>33.4</ele>
        <time>2025-06-17T10:02:31Z</time>
      </trkpt>
      <trkpt lat="43.45282" lon="3.65427">
        <ele>33.6</ele>
        <time>2025-06-17T10:02:32Z</time>
      </trkpt>
      <trkpt lat="43.45285" lon="3.65422">
        <ele>33.8</ele>
        <time>2025-06-17T10:02:33Z</time>
      </trkpt>
      <trkpt lat="43.45287" lon="3.65416">
        <ele>33.8</ele>
        <time>2025-06-17T10:02:34Z</time>
      </trkpt>
      <trkpt lat="43.45287" lon="3.6541">
        <ele>34</ele>
        <time>2025-06-17T10:02:35Z</time>
      </trkpt>
      <trkpt lat="43.45288" lon="3.65404">
        <ele>34.2</ele>
        <time>2025-06-17T10:02:36Z</time>
      </trkpt>
      <trkpt lat="43.45288" lon="3.65398">
        <ele>34.2</ele>
        <time>2025-06-17T10:02:37Z</time>
      </trkpt>
      <trkpt lat="43.45289" lon="3.65391">
        <ele>34.4</ele>
        <time>2025-06-17T10:02:38Z</time>
      </trkpt>
      <trkpt lat="43.4529" lon="3.65384">
        <ele>34.4</ele>
        <time>2025-06-17T10:02:39Z</time>
      </trkpt>
      <trkpt lat="43.45291" lon="3.65377">
        <ele>34.6</ele>
        <time>2025-06-17T10:02:40Z</time>
      </trkpt>
      <trkpt lat="43.45292" lon="3.65371">
        <ele>34.6</ele>
        <time>2025-06-17T10:02:41Z</time>
      </trkpt>
      <trkpt lat="43.45293" lon="3.65365">
        <ele>34.8</ele>
        <time>2025-06-17T10:02:42Z</time>
      </trkpt>
      <trkpt lat="43.45292" lon="3.65358">
        <ele>34.8</ele>
        <time>2025-06-17T10:02:43Z</time>
      </trkpt>
      <trkpt lat="43.4529" lon="3.65352">
        <ele>34.8</ele>
        <time>2025-06-17T10:02:44Z</time>
      </trkpt>
      <trkpt lat="43.45288" lon="3.65345">
        <ele>35</ele>
        <time>2025-06-17T10:02:45Z</time>
      </trkpt>
      <trkpt lat="43.45287" lon="3.65339">
        <ele>35</ele>
        <time>2025-06-17T10:02:46Z</time>
      </trkpt>
      <trkpt lat="43.45284" lon="3.65331">
        <ele>35</ele>
        <time>2025-06-17T10:02:47Z</time>
      </trkpt>
      <trkpt lat="43.45282" lon="3.65325">
        <ele>35</ele>
        <time>2025-06-17T10:02:48Z</time>
      </trkpt>
      <trkpt lat="43.45279" lon="3.65318">
        <ele>34.8</ele>
        <time>2025-06-17T10:02:49Z</time>
      </trkpt>
      <trkpt lat="43.45277" lon="3.65312">
        <ele>34.8</ele>
        <time>2025-06-17T10:02:50Z</time>
      </trkpt>
      <trkpt lat="43.45273" lon="3.65305">
        <ele>34.8</ele>
        <time>2025-06-17T10:02:51Z</time>
      </trkpt>
      <trkpt lat="43.4527" lon="3.65298">
        <ele>34.8</ele>
        <time>2025-06-17T10:02:52Z</time>
      </trkpt>
      <trkpt lat="43.45267" lon="3.65291">
        <ele>34.8</ele>
        <time>2025-06-17T10:02:53Z</time>
      </trkpt>
      <trkpt lat="43.45264" lon="3.65284">
        <ele>34.6</ele>
        <time>2025-06-17T10:02:54Z</time>
      </trkpt>
      <trkpt lat="43.45261" lon="3.65277">
        <ele>34.6</ele>
        <time>2025-06-17T10:02:55Z</time>
      </trkpt>
      <trkpt lat="43.45258" lon="3.65269">
        <ele>34.4</ele>
        <time>2025-06-17T10:02:56Z</time>
      </trkpt>
      <trkpt lat="43.45254" lon="3.65261">
        <ele>34.4</ele>
        <time>2025-06-17T10:02:57Z</time>
      </trkpt>
      <trkpt lat="43.45251" lon="3.65254">
        <ele>34.4</ele>
        <time>2025-06-17T10:02:58Z</time>
      </trkpt>
      <trkpt lat="43.45248" lon="3.65245">
        <ele>34.2</ele>
        <time>2025-06-17T10:02:59Z</time>
      </trkpt>
      <trkpt lat="43.45244" lon="3.65237">
        <ele>34.2</ele>
        <time>2025-06-17T10:03:00Z</time>
      </trkpt>
      <trkpt lat="43.45241" lon="3.6523">
        <ele>34</ele>
        <time>2025-06-17T10:03:01Z</time>
      </trkpt>
      <trkpt lat="43.45237" lon="3.65222">
        <ele>34</ele>
        <time>2025-06-17T10:03:02Z</time>
      </trkpt>
      <trkpt lat="43.45234" lon="3.65214">
        <ele>34</ele>
        <time>2025-06-17T10:03:03Z</time>
      </trkpt>
      <trkpt lat="43.4523" lon="3.65206">
        <ele>33.8</ele>
        <time>2025-06-17T10:03:04Z</time>
      </trkpt>
      <trkpt lat="43.45227" lon="3.65198">
        <ele>33.8</ele>
        <time>2025-06-17T10:03:05Z</time>
      </trkpt>
      <trkpt lat="43.45224" lon="3.6519">
        <ele>33.6</ele>
        <time>2025-06-17T10:03:06Z</time>
      </trkpt>
      <trkpt lat="43.45221" lon="3.65183">
        <ele>33.6</ele>
        <time>2025-06-17T10:03:07Z</time>
      </trkpt>
      <trkpt lat="43.45217" lon="3.65175">
        <ele>33.4</ele>
        <time>2025-06-17T10:03:08Z</time>
      </trkpt>
      <trkpt lat="43.45214" lon="3.65168">
        <ele>33.4</ele>
        <time>2025-06-17T10:03:09Z</time>
      </trkpt>
      <trkpt lat="43.4521" lon="3.65159">
        <ele>33.4</ele>
        <time>2025-06-17T10:03:10Z</time>
      </trkpt>
      <trkpt lat="43.45207" lon="3.65154">
        <ele>33.2</ele>
        <time>2025-06-17T10:03:11Z</time>
      </trkpt>
      <trkpt lat="43.45204" lon="3.65147">
        <ele>33.2</ele>
        <time>2025-06-17T10:03:12Z</time>
      </trkpt>
      <trkpt lat="43.452" lon="3.65136">
        <ele>33</ele>
        <time>2025-06-17T10:03:13Z</time>
      </trkpt>
      <trkpt lat="43.45196" lon="3.65129">
        <ele>33</ele>
        <time>2025-06-17T10:03:14Z</time>
      </trkpt>
      <trkpt lat="43.45192" lon="3.6512">
        <ele>32.8</ele>
        <time>2025-06-17T10:03:15Z</time>
      </trkpt>
      <trkpt lat="43.45189" lon="3.65113">
        <ele>32.8</ele>
        <time>2025-06-17T10:03:16Z</time>
      </trkpt>
      <trkpt lat="43.45186" lon="3.65105">
        <ele>32.6</ele>
        <time>2025-06-17T10:03:17Z</time>
      </trkpt>
      <trkpt lat="43.45182" lon="3.65097">
        <ele>32.4</ele>
        <time>2025-06-17T10:03:18Z</time>
      </trkpt>
      <trkpt lat="43.45179" lon="3.65089">
        <ele>32.4</ele>
        <time>2025-06-17T10:03:19Z</time>
      </trkpt>
      <trkpt lat="43.45176" lon="3.65081">
        <ele>32.4</ele>
        <time>2025-06-17T10:03:20Z</time>
      </trkpt>
      <trkpt lat="43.45172" lon="3.65074">
        <ele>32.2</ele>
        <time>2025-06-17T10:03:21Z</time>
      </trkpt>
      <trkpt lat="43.45169" lon="3.65067">
        <ele>32.2</ele>
        <time>2025-06-17T10:03:22Z</time>
      </trkpt>
      <trkpt lat="43.45165" lon="3.65058">
        <ele>32.2</ele>
        <time>2025-06-17T10:03:23Z</time>
      </trkpt>
      <trkpt lat="43.45161" lon="3.6505">
        <ele>32.2</ele>
        <time>2025-06-17T10:03:24Z</time>
      </trkpt>
      <trkpt lat="43.45157" lon="3.65044">
        <ele>32</ele>
        <time>2025-06-17T10:03:25Z</time>
      </trkpt>
      <trkpt lat="43.45153" lon="3.65036">
        <ele>32</ele>
        <time>2025-06-17T10:03:26Z</time>
      </trkpt>
      <trkpt lat="43.4515" lon="3.65029">
        <ele>32</ele>
        <time>2025-06-17T10:03:27Z</time>
      </trkpt>
      <trkpt lat="43.45146" lon="3.65023">
        <ele>32</ele>
        <time>2025-06-17T10:03:28Z</time>
      </trkpt>
      <trkpt lat="43.45141" lon="3.65018">
        <ele>32</ele>
        <time>2025-06-17T10:03:29Z</time>
      </trkpt>
      <trkpt lat="43.45136" lon="3.65013">
        <ele>31.8</ele>
        <time>2025-06-17T10:03:30Z</time>
      </trkpt>
      <trkpt lat="43.45131" lon="3.65006">
        <ele>31.6</ele>
        <time>2025-06-17T10:03:31Z</time>
      </trkpt>
      <trkpt lat="43.45127" lon="3.64998">
        <ele>31.4</ele>
        <time>2025-06-17T10:03:32Z</time>
      </trkpt>
      <trkpt lat="43.45123" lon="3.64991">
        <ele>31.2</ele>
        <time>2025-06-17T10:03:33Z</time>
      </trkpt>
      <trkpt lat="43.45119" lon="3.64984">
        <ele>31</ele>
        <time>2025-06-17T10:03:34Z</time>
      </trkpt>
      <trkpt lat="43.45115" lon="3.64975">
        <ele>30.8</ele>
        <time>2025-06-17T10:03:35Z</time>
      </trkpt>
      <trkpt lat="43.4511" lon="3.64964">
        <ele>30.4</ele>
        <time>2025-06-17T10:03:36Z</time>
      </trkpt>
      <trkpt lat="43.45106" lon="3.64955">
        <ele>30.2</ele>
        <time>2025-06-17T10:03:37Z</time>
      </trkpt>
      <trkpt lat="43.45103" lon="3.64948">
        <ele>30</ele>
        <time>2025-06-17T10:03:38Z</time>
      </trkpt>
      <trkpt lat="43.45098" lon="3.64938">
        <ele>29.8</ele>
        <time>2025-06-17T10:03:39Z</time>
      </trkpt>
      <trkpt lat="43.45094" lon="3.64928">
        <ele>29.8</ele>
        <time>2025-06-17T10:03:40Z</time>
      </trkpt>
      <trkpt lat="43.4509" lon="3.64919">
        <ele>29.6</ele>
        <time>2025-06-17T10:03:41Z</time>
      </trkpt>
      <trkpt lat="43.45086" lon="3.6491">
        <ele>29.4</ele>
        <time>2025-06-17T10:03:42Z</time>
      </trkpt>
      <trkpt lat="43.45082" lon="3.64901">
        <ele>29.2</ele>
        <time>2025-06-17T10:03:43Z</time>
      </trkpt>
      <trkpt lat="43.45078" lon="3.64892">
        <ele>29.2</ele>
        <time>2025-06-17T10:03:44Z</time>
      </trkpt>
      <trkpt lat="43.45074" lon="3.64883">
        <ele>29</ele>
        <time>2025-06-17T10:03:45Z</time>
      </trkpt>
      <trkpt lat="43.45069" lon="3.64874">
        <ele>29</ele>
        <time>2025-06-17T10:03:46Z</time>
      </trkpt>
      <trkpt lat="43.45066" lon="3.64866">
        <ele>29</ele>
        <time>2025-06-17T10:03:47Z</time>
      </trkpt>
      <trkpt lat="43.45061" lon="3.64857">
        <ele>28.8</ele>
        <time>2025-06-17T10:03:48Z</time>
      </trkpt>
      <trkpt lat="43.45057" lon="3.64849">
        <ele>28.6</ele>
        <time>2025-06-17T10:03:49Z</time>
      </trkpt>
      <trkpt lat="43.45052" lon="3.64839">
        <ele>28.4</ele>
        <time>2025-06-17T10:03:50Z</time>
      </trkpt>
      <trkpt lat="43.45048" lon="3.6483">
        <ele>28.4</ele>
        <time>2025-06-17T10:03:51Z</time>
      </trkpt>
      <trkpt lat="43.45044" lon="3.64821">
        <ele>28.4</ele>
        <time>2025-06-17T10:03:52Z</time>
      </trkpt>
      <trkpt lat="43.45041" lon="3.64813">
        <ele>28.4</ele>
        <time>2025-06-17T10:03:53Z</time>
      </trkpt>
      <trkpt lat="43.45036" lon="3.64804">
        <ele>28.4</ele>
        <time>2025-06-17T10:03:54Z</time>
      </trkpt>
      <trkpt lat="43.45032" lon="3.64795">
        <ele>28.4</ele>
        <time>2025-06-17T10:03:55Z</time>
      </trkpt>
      <trkpt lat="43.45028" lon="3.64787">
        <ele>28.4</ele>
        <time>2025-06-17T10:03:56Z</time>
      </trkpt>
      <trkpt lat="43.45024" lon="3.64779">
        <ele>28.4</ele>
        <time>2025-06-17T10:03:57Z</time>
      </trkpt>
      <trkpt lat="43.4502" lon="3.64771">
        <ele>28.4</ele>
        <time>2025-06-17T10:03:58Z</time>
      </trkpt>
      <trkpt lat="43.45016" lon="3.64762">
        <ele>28.6</ele>
        <time>2025-06-17T10:03:59Z</time>
      </trkpt>
      <trkpt lat="43.45012" lon="3.64754">
        <ele>28.6</ele>
        <time>2025-06-17T10:04:00Z</time>
      </trkpt>
      <trkpt lat="43.45009" lon="3.64748">
        <ele>28.4</ele>
        <time>2025-06-17T10:04:01Z</time>
      </trkpt>
      <trkpt lat="43.45004" lon="3.64738">
        <ele>28.4</ele>
        <time>2025-06-17T10:04:02Z</time>
      </trkpt>
      <trkpt lat="43.45001" lon="3.64731">
        <ele>28.4</ele>
        <time>2025-06-17T10:04:03Z</time>
      </trkpt>
      <trkpt lat="43.44997" lon="3.64722">
        <ele>28.4</ele>
        <time>2025-06-17T10:04:04Z</time>
      </trkpt>
      <trkpt lat="43.44993" lon="3.64713">
        <ele>28.4</ele>
        <time>2025-06-17T10:04:05Z</time>
      </trkpt>
      <trkpt lat="43.44989" lon="3.64705">
        <ele>28.4</ele>
        <time>2025-06-17T10:04:06Z</time>
      </trkpt>
      <trkpt lat="43.44985" lon="3.64696">
        <ele>28.4</ele>
        <time>2025-06-17T10:04:07Z</time>
      </trkpt>
      <trkpt lat="43.44981" lon="3.64688">
        <ele>28.4</ele>
        <time>2025-06-17T10:04:08Z</time>
      </trkpt>
      <trkpt lat="43.44977" lon="3.6468">
        <ele>28.4</ele>
        <time>2025-06-17T10:04:09Z</time>
      </trkpt>
      <trkpt lat="43.44973" lon="3.64671">
        <ele>28.2</ele>
        <time>2025-06-17T10:04:10Z</time>
      </trkpt>
      <trkpt lat="43.44969" lon="3.64662">
        <ele>28.2</ele>
        <time>2025-06-17T10:04:11Z</time>
      </trkpt>
      <trkpt lat="43.44965" lon="3.64655">
        <ele>28.2</ele>
        <time>2025-06-17T10:04:12Z</time>
      </trkpt>
      <trkpt lat="43.44961" lon="3.64646">
        <ele>28.2</ele>
        <time>2025-06-17T10:04:13Z</time>
      </trkpt>
      <trkpt lat="43.44957" lon="3.64638">
        <ele>28.2</ele>
        <time>2025-06-17T10:04:14Z</time>
      </trkpt>
      <trkpt lat="43.44953" lon="3.64629">
        <ele>28</ele>
        <time>2025-06-17T10:04:15Z</time>
      </trkpt>
      <trkpt lat="43.44949" lon="3.64621">
        <ele>28</ele>
        <time>2025-06-17T10:04:16Z</time>
      </trkpt>
      <trkpt lat="43.44945" lon="3.64613">
        <ele>28</ele>
        <time>2025-06-17T10:04:17Z</time>
      </trkpt>
      <trkpt lat="43.44941" lon="3.64605">
        <ele>28</ele>
        <time>2025-06-17T10:04:18Z</time>
      </trkpt>
      <trkpt lat="43.44937" lon="3.64597">
        <ele>28</ele>
        <time>2025-06-17T10:04:19Z</time>
      </trkpt>
      <trkpt lat="43.44933" lon="3.64589">
        <ele>28</ele>
        <time>2025-06-17T10:04:20Z</time>
      </trkpt>
      <trkpt lat="43.4493" lon="3.64581">
        <ele>28</ele>
        <time>2025-06-17T10:04:21Z</time>
      </trkpt>
      <trkpt lat="43.44927" lon="3.64573">
        <ele>28</ele>
        <time>2025-06-17T10:04:22Z</time>
      </trkpt>
      <trkpt lat="43.44923" lon="3.64566">
        <ele>28.2</ele>
        <time>2025-06-17T10:04:23Z</time>
      </trkpt>
      <trkpt lat="43.44918" lon="3.64561">
        <ele>28.2</ele>
        <time>2025-06-17T10:04:24Z</time>
      </trkpt>
      <trkpt lat="43.44913" lon="3.64558">
        <ele>28.4</ele>
        <time>2025-06-17T10:04:25Z</time>
      </trkpt>
      <trkpt lat="43.44907" lon="3.64555">
        <ele>28.4</ele>
        <time>2025-06-17T10:04:26Z</time>
      </trkpt>
      <trkpt lat="43.44904" lon="3.64553">
        <ele>28.6</ele>
        <time>2025-06-17T10:04:27Z</time>
      </trkpt>
      <trkpt lat="43.44901" lon="3.64551">
        <ele>28.6</ele>
        <time>2025-06-17T10:04:28Z</time>
      </trkpt>
      <trkpt lat="43.44899" lon="3.6455">
        <ele>28.8</ele>
        <time>2025-06-17T10:04:29Z</time>
      </trkpt>
      <trkpt lat="43.44898" lon="3.64549">
        <ele>28.8</ele>
        <time>2025-06-17T10:04:30Z</time>
      </trkpt>
      <trkpt lat="43.44896" lon="3.64547">
        <ele>29</ele>
        <time>2025-06-17T10:04:31Z</time>
      </trkpt>
      <trkpt lat="43.44894" lon="3.64545">
        <ele>29</ele>
        <time>2025-06-17T10:04:32Z</time>
      </trkpt>
      <trkpt lat="43.44892" lon="3.64542">
        <ele>29</ele>
        <time>2025-06-17T10:04:33Z</time>
      </trkpt>
      <trkpt lat="43.44889" lon="3.64539">
        <ele>29</ele>
        <time>2025-06-17T10:04:34Z</time>
      </trkpt>
      <trkpt lat="43.44887" lon="3.64536">
        <ele>29</ele>
        <time>2025-06-17T10:04:35Z</time>
      </trkpt>
      <trkpt lat="43.44885" lon="3.64532">
        <ele>29</ele>
        <time>2025-06-17T10:04:36Z</time>
      </trkpt>
      <trkpt lat="43.44884" lon="3.64526">
        <ele>29</ele>
        <time>2025-06-17T10:04:37Z</time>
      </trkpt>
      <trkpt lat="43.44884" lon="3.64521">
        <ele>29</ele>
        <time>2025-06-17T10:04:38Z</time>
      </trkpt>
      <trkpt lat="43.44884" lon="3.64514">
        <ele>29</ele>
        <time>2025-06-17T10:04:39Z</time>
      </trkpt>
      <trkpt lat="43.44884" lon="3.64507">
        <ele>29</ele>
        <time>2025-06-17T10:04:40Z</time>
      </trkpt>
      <trkpt lat="43.44884" lon="3.645">
        <ele>29</ele>
        <time>2025-06-17T10:04:41Z</time>
      </trkpt>
      <trkpt lat="43.44884" lon="3.64494">
        <ele>29.2</ele>
        <time>2025-06-17T10:04:42Z</time>
      </trkpt>
      <trkpt lat="43.44883" lon="3.64488">
        <ele>29.2</ele>
        <time>2025-06-17T10:04:43Z</time>
      </trkpt>
      <trkpt lat="43.4488" lon="3.64481">
        <ele>29.2</ele>
        <time>2025-06-17T10:04:44Z</time>
      </trkpt>
      <trkpt lat="43.44878" lon="3.64475">
        <ele>29.2</ele>
        <time>2025-06-17T10:04:45Z</time>
      </trkpt>
      <trkpt lat="43.44875" lon="3.64468">
        <ele>29</ele>
        <time>2025-06-17T10:04:46Z</time>
      </trkpt>
      <trkpt lat="43.44871" lon="3.64461">
        <ele>29</ele>
        <time>2025-06-17T10:04:47Z</time>
      </trkpt>
      <trkpt lat="43.44868" lon="3.64454">
        <ele>28.8</ele>
        <time>2025-06-17T10:04:48Z</time>
      </trkpt>
      <trkpt lat="43.44865" lon="3.64446">
        <ele>28.8</ele>
        <time>2025-06-17T10:04:49Z</time>
      </trkpt>
      <trkpt lat="43.44862" lon="3.6444">
        <ele>28.6</ele>
        <time>2025-06-17T10:04:50Z</time>
      </trkpt>
      <trkpt lat="43.44858" lon="3.64432">
        <ele>28.6</ele>
        <time>2025-06-17T10:04:51Z</time>
      </trkpt>
      <trkpt lat="43.44855" lon="3.64425">
        <ele>28.6</ele>
        <time>2025-06-17T10:04:52Z</time>
      </trkpt>
      <trkpt lat="43.44851" lon="3.64417">
        <ele>28.4</ele>
        <time>2025-06-17T10:04:53Z</time>
      </trkpt>
      <trkpt lat="43.44848" lon="3.6441">
        <ele>28.4</ele>
        <time>2025-06-17T10:04:54Z</time>
      </trkpt>
      <trkpt lat="43.44845" lon="3.64402">
        <ele>28.4</ele>
        <time>2025-06-17T10:04:55Z</time>
      </trkpt>
      <trkpt lat="43.44841" lon="3.64395">
        <ele>28.2</ele>
        <time>2025-06-17T10:04:56Z</time>
      </trkpt>
      <trkpt lat="43.44838" lon="3.64387">
        <ele>28.2</ele>
        <time>2025-06-17T10:04:57Z</time>
      </trkpt>
      <trkpt lat="43.44834" lon="3.64379">
        <ele>28.2</ele>
        <time>2025-06-17T10:04:58Z</time>
      </trkpt>
      <trkpt lat="43.4483" lon="3.64372">
        <ele>28.2</ele>
        <time>2025-06-17T10:04:59Z</time>
      </trkpt>
      <trkpt lat="43.44826" lon="3.64364">
        <ele>28.2</ele>
        <time>2025-06-17T10:05:00Z</time>
      </trkpt>
      <trkpt lat="43.44823" lon="3.64356">
        <ele>28.2</ele>
        <time>2025-06-17T10:05:01Z</time>
      </trkpt>
      <trkpt lat="43.4482" lon="3.64348">
        <ele>28.2</ele>
        <time>2025-06-17T10:05:02Z</time>
      </trkpt>
      <trkpt lat="43.44816" lon="3.6434">
        <ele>28.2</ele>
        <time>2025-06-17T10:05:03Z</time>
      </trkpt>
      <trkpt lat="43.44813" lon="3.64333">
        <ele>28.2</ele>
        <time>2025-06-17T10:05:04Z</time>
      </trkpt>
      <trkpt lat="43.44809" lon="3.64325">
        <ele>28.4</ele>
        <time>2025-06-17T10:05:05Z</time>
      </trkpt>
      <trkpt lat="43.44805" lon="3.64318">
        <ele>28.4</ele>
        <time>2025-06-17T10:05:06Z</time>
      </trkpt>
      <trkpt lat="43.44802" lon="3.64311">
        <ele>28.4</ele>
        <time>2025-06-17T10:05:07Z</time>
      </trkpt>
      <trkpt lat="43.44798" lon="3.64303">
        <ele>28.4</ele>
        <time>2025-06-17T10:05:08Z</time>
      </trkpt>
      <trkpt lat="43.44795" lon="3.64297">
        <ele>28.4</ele>
        <time>2025-06-17T10:05:09Z</time>
      </trkpt>
      <trkpt lat="43.44791" lon="3.6429">
        <ele>28.4</ele>
        <time>2025-06-17T10:05:10Z</time>
      </trkpt>
      <trkpt lat="43.44788" lon="3.64283">
        <ele>28.6</ele>
        <time>2025-06-17T10:05:11Z</time>
      </trkpt>
      <trkpt lat="43.44785" lon="3.64277">
        <ele>28.6</ele>
        <time>2025-06-17T10:05:12Z</time>
      </trkpt>
      <trkpt lat="43.44781" lon="3.6427">
        <ele>28.6</ele>
        <time>2025-06-17T10:05:13Z</time>
      </trkpt>
      <trkpt lat="43.44778" lon="3.64264">
        <ele>28.6</ele>
        <time>2025-06-17T10:05:14Z</time>
      </trkpt>
      <trkpt lat="43.44776" lon="3.64261">
        <ele>28.8</ele>
        <time>2025-06-17T10:05:15Z</time>
      </trkpt>
      <trkpt lat="43.44771" lon="3.64252">
        <ele>28.8</ele>
        <time>2025-06-17T10:05:16Z</time>
      </trkpt>
      <trkpt lat="43.44768" lon="3.64245">
        <ele>29</ele>
        <time>2025-06-17T10:05:17Z</time>
      </trkpt>
      <trkpt lat="43.44765" lon="3.64239">
        <ele>29</ele>
        <time>2025-06-17T10:05:18Z</time>
      </trkpt>
      <trkpt lat="43.44762" lon="3.64233">
        <ele>29</ele>
        <time>2025-06-17T10:05:19Z</time>
      </trkpt>
      <trkpt lat="43.44758" lon="3.64227">
        <ele>29.2</ele>
        <time>2025-06-17T10:05:20Z</time>
      </trkpt>
      <trkpt lat="43.44755" lon="3.64221">
        <ele>29.2</ele>
        <time>2025-06-17T10:05:21Z</time>
      </trkpt>
      <trkpt lat="43.44752" lon="3.64214">
        <ele>29.2</ele>
        <time>2025-06-17T10:05:22Z</time>
      </trkpt>
      <trkpt lat="43.44749" lon="3.64208">
        <ele>29.2</ele>
        <time>2025-06-17T10:05:23Z</time>
      </trkpt>
      <trkpt lat="43.44745" lon="3.64201">
        <ele>29.4</ele>
        <time>2025-06-17T10:05:24Z</time>
      </trkpt>
      <trkpt lat="43.44742" lon="3.64195">
        <ele>29.4</ele>
        <time>2025-06-17T10:05:25Z</time>
      </trkpt>
      <trkpt lat="43.44738" lon="3.64189">
        <ele>29.6</ele>
        <time>2025-06-17T10:05:26Z</time>
      </trkpt>
      <trkpt lat="43.44734" lon="3.64183">
        <ele>29.6</ele>
        <time>2025-06-17T10:05:27Z</time>
      </trkpt>
      <trkpt lat="43.44731" lon="3.64177">
        <ele>29.6</ele>
        <time>2025-06-17T10:05:28Z</time>
      </trkpt>
      <trkpt lat="43.44728" lon="3.64171">
        <ele>29.8</ele>
        <time>2025-06-17T10:05:29Z</time>
      </trkpt>
      <trkpt lat="43.44724" lon="3.64164">
        <ele>29.8</ele>
        <time>2025-06-17T10:05:30Z</time>
      </trkpt>
      <trkpt lat="43.44721" lon="3.64158">
        <ele>29.8</ele>
        <time>2025-06-17T10:05:31Z</time>
      </trkpt>
      <trkpt lat="43.44718" lon="3.64151">
        <ele>30</ele>
        <time>2025-06-17T10:05:32Z</time>
      </trkpt>
      <trkpt lat="43.44715" lon="3.64145">
        <ele>30</ele>
        <time>2025-06-17T10:05:33Z</time>
      </trkpt>
      <trkpt lat="43.44712" lon="3.64138">
        <ele>30</ele>
        <time>2025-06-17T10:05:34Z</time>
      </trkpt>
      <trkpt lat="43.44709" lon="3.64132">
        <ele>30.2</ele>
        <time>2025-06-17T10:05:35Z</time>
      </trkpt>
      <trkpt lat="43.44705" lon="3.64126">
        <ele>30.2</ele>
        <time>2025-06-17T10:05:36Z</time>
      </trkpt>
      <trkpt lat="43.44701" lon="3.6412">
        <ele>30.4</ele>
        <time>2025-06-17T10:05:37Z</time>
      </trkpt>
      <trkpt lat="43.44698" lon="3.64113">
        <ele>30.4</ele>
        <time>2025-06-17T10:05:38Z</time>
      </trkpt>
      <trkpt lat="43.44694" lon="3.64107">
        <ele>30.4</ele>
        <time>2025-06-17T10:05:39Z</time>
      </trkpt>
      <trkpt lat="43.44692" lon="3.64102">
        <ele>30.4</ele>
        <time>2025-06-17T10:05:40Z</time>
      </trkpt>
      <trkpt lat="43.44687" lon="3.64095">
        <ele>30.6</ele>
        <time>2025-06-17T10:05:41Z</time>
      </trkpt>
      <trkpt lat="43.44685" lon="3.6409">
        <ele>30.6</ele>
        <time>2025-06-17T10:05:42Z</time>
      </trkpt>
      <trkpt lat="43.4468" lon="3.64083">
        <ele>30.8</ele>
        <time>2025-06-17T10:05:43Z</time>
      </trkpt>
      <trkpt lat="43.44677" lon="3.64077">
        <ele>30.8</ele>
        <time>2025-06-17T10:05:44Z</time>
      </trkpt>
      <trkpt lat="43.44673" lon="3.64071">
        <ele>31</ele>
        <time>2025-06-17T10:05:45Z</time>
      </trkpt>
      <trkpt lat="43.44671" lon="3.64066">
        <ele>31</ele>
        <time>2025-06-17T10:05:46Z</time>
      </trkpt>
      <trkpt lat="43.44667" lon="3.6406">
        <ele>31.2</ele>
        <time>2025-06-17T10:05:47Z</time>
      </trkpt>
      <trkpt lat="43.44664" lon="3.64054">
        <ele>31.2</ele>
        <time>2025-06-17T10:05:48Z</time>
      </trkpt>
      <trkpt lat="43.44661" lon="3.64047">
        <ele>31.2</ele>
        <time>2025-06-17T10:05:49Z</time>
      </trkpt>
      <trkpt lat="43.44659" lon="3.6404">
        <ele>31.2</ele>
        <time>2025-06-17T10:05:50Z</time>
      </trkpt>
      <trkpt lat="43.44657" lon="3.64032">
        <ele>31.2</ele>
        <time>2025-06-17T10:05:51Z</time>
      </trkpt>
      <trkpt lat="43.44655" lon="3.64024">
        <ele>31.2</ele>
        <time>2025-06-17T10:05:52Z</time>
      </trkpt>
      <trkpt lat="43.44653" lon="3.64018">
        <ele>31.2</ele>
        <time>2025-06-17T10:05:53Z</time>
      </trkpt>
      <trkpt lat="43.4465" lon="3.64011">
        <ele>31</ele>
        <time>2025-06-17T10:05:54Z</time>
      </trkpt>
      <trkpt lat="43.44647" lon="3.64005">
        <ele>31</ele>
        <time>2025-06-17T10:05:55Z</time>
      </trkpt>
      <trkpt lat="43.44643" lon="3.63998">
        <ele>31.2</ele>
        <time>2025-06-17T10:05:56Z</time>
      </trkpt>
      <trkpt lat="43.4464" lon="3.63993">
        <ele>31.2</ele>
        <time>2025-06-17T10:05:57Z</time>
      </trkpt>
      <trkpt lat="43.44636" lon="3.63987">
        <ele>31.2</ele>
        <time>2025-06-17T10:05:58Z</time>
      </trkpt>
      <trkpt lat="43.44633" lon="3.63981">
        <ele>31.2</ele>
        <time>2025-06-17T10:05:59Z</time>
      </trkpt>
      <trkpt lat="43.4463" lon="3.63975">
        <ele>31.4</ele>
        <time>2025-06-17T10:06:00Z</time>
      </trkpt>
      <trkpt lat="43.44627" lon="3.63969">
        <ele>31.4</ele>
        <time>2025-06-17T10:06:01Z</time>
      </trkpt>
      <trkpt lat="43.44624" lon="3.63964">
        <ele>31.4</ele>
        <time>2025-06-17T10:06:02Z</time>
      </trkpt>
      <trkpt lat="43.44621" lon="3.63958">
        <ele>31.6</ele>
        <time>2025-06-17T10:06:03Z</time>
      </trkpt>
      <trkpt lat="43.44618" lon="3.63953">
        <ele>31.6</ele>
        <time>2025-06-17T10:06:04Z</time>
      </trkpt>
      <trkpt lat="43.44615" lon="3.63947">
        <ele>31.6</ele>
        <time>2025-06-17T10:06:05Z</time>
      </trkpt>
      <trkpt lat="43.44612" lon="3.63941">
        <ele>31.8</ele>
        <time>2025-06-17T10:06:06Z</time>
      </trkpt>
      <trkpt lat="43.4461" lon="3.63936">
        <ele>31.8</ele>
        <time>2025-06-17T10:06:07Z</time>
      </trkpt>
      <trkpt lat="43.44607" lon="3.6393">
        <ele>31.8</ele>
        <time>2025-06-17T10:06:08Z</time>
      </trkpt>
      <trkpt lat="43.44604" lon="3.63925">
        <ele>31.8</ele>
        <time>2025-06-17T10:06:09Z</time>
      </trkpt>
      <trkpt lat="43.44601" lon="3.6392">
        <ele>31.8</ele>
        <time>2025-06-17T10:06:10Z</time>
      </trkpt>
      <trkpt lat="43.44598" lon="3.63915">
        <ele>32</ele>
        <time>2025-06-17T10:06:11Z</time>
      </trkpt>
      <trkpt lat="43.44595" lon="3.6391">
        <ele>32</ele>
        <time>2025-06-17T10:06:12Z</time>
      </trkpt>
      <trkpt lat="43.44593" lon="3.63907">
        <ele>32</ele>
        <time>2025-06-17T10:06:13Z</time>
      </trkpt>
      <trkpt lat="43.44592" lon="3.63905">
        <ele>32</ele>
        <time>2025-06-17T10:06:14Z</time>
      </trkpt>
      <trkpt lat="43.44591" lon="3.63904">
        <ele>32.2</ele>
        <time>2025-06-17T10:06:33Z</time>
      </trkpt>
      <trkpt lat="43.4459" lon="3.63903">
        <ele>32.4</ele>
        <time>2025-06-17T10:06:34Z</time>
      </trkpt>
      <trkpt lat="43.44589" lon="3.639">
        <ele>32.4</ele>
        <time>2025-06-17T10:06:35Z</time>
      </trkpt>
      <trkpt lat="43.44588" lon="3.63898">
        <ele>32.4</ele>
        <time>2025-06-17T10:06:36Z</time>
      </trkpt>
      <trkpt lat="43.44586" lon="3.63894">
        <ele>32.4</ele>
        <time>2025-06-17T10:06:37Z</time>
      </trkpt>
      <trkpt lat="43.44584" lon="3.63891">
        <ele>32.4</ele>
        <time>2025-06-17T10:06:38Z</time>
      </trkpt>
      <trkpt lat="43.44582" lon="3.63887">
        <ele>32.4</ele>
        <time>2025-06-17T10:06:39Z</time>
      </trkpt>
      <trkpt lat="43.44579" lon="3.63882">
        <ele>32.4</ele>
        <time>2025-06-17T10:06:40Z</time>
      </trkpt>
      <trkpt lat="43.44577" lon="3.63877">
        <ele>32.4</ele>
        <time>2025-06-17T10:06:41Z</time>
      </trkpt>
      <trkpt lat="43.44574" lon="3.63872">
        <ele>32.4</ele>
        <time>2025-06-17T10:06:42Z</time>
      </trkpt>
      <trkpt lat="43.44572" lon="3.63866">
        <ele>32.4</ele>
        <time>2025-06-17T10:06:43Z</time>
      </trkpt>
      <trkpt lat="43.44569" lon="3.63861">
        <ele>32.4</ele>
        <time>2025-06-17T10:06:44Z</time>
      </trkpt>
      <trkpt lat="43.44566" lon="3.63857">
        <ele>32.4</ele>
        <time>2025-06-17T10:06:45Z</time>
      </trkpt>
      <trkpt lat="43.44563" lon="3.63851">
        <ele>32.6</ele>
        <time>2025-06-17T10:06:46Z</time>
      </trkpt>
      <trkpt lat="43.44559" lon="3.63846">
        <ele>32.6</ele>
        <time>2025-06-17T10:06:47Z</time>
      </trkpt>
      <trkpt lat="43.44556" lon="3.63841">
        <ele>32.6</ele>
        <time>2025-06-17T10:06:48Z</time>
      </trkpt>
      <trkpt lat="43.44554" lon="3.63837">
        <ele>32.8</ele>
        <time>2025-06-17T10:06:49Z</time>
      </trkpt>
      <trkpt lat="43.4455" lon="3.63832">
        <ele>32.8</ele>
        <time>2025-06-17T10:06:50Z</time>
      </trkpt>
      <trkpt lat="43.44547" lon="3.63827">
        <ele>32.8</ele>
        <time>2025-06-17T10:06:51Z</time>
      </trkpt>
      <trkpt lat="43.44544" lon="3.63823">
        <ele>32.8</ele>
        <time>2025-06-17T10:06:52Z</time>
      </trkpt>
      <trkpt lat="43.4454" lon="3.63818">
        <ele>32.8</ele>
        <time>2025-06-17T10:06:53Z</time>
      </trkpt>
      <trkpt lat="43.44537" lon="3.63813">
        <ele>32.8</ele>
        <time>2025-06-17T10:06:54Z</time>
      </trkpt>
      <trkpt lat="43.44534" lon="3.63808">
        <ele>32.8</ele>
        <time>2025-06-17T10:06:55Z</time>
      </trkpt>
      <trkpt lat="43.4453" lon="3.63803">
        <ele>33</ele>
        <time>2025-06-17T10:06:56Z</time>
      </trkpt>
      <trkpt lat="43.44528" lon="3.63798">
        <ele>33</ele>
        <time>2025-06-17T10:06:57Z</time>
      </trkpt>
      <trkpt lat="43.44525" lon="3.63793">
        <ele>33</ele>
        <time>2025-06-17T10:06:58Z</time>
      </trkpt>
      <trkpt lat="43.44522" lon="3.63788">
        <ele>32.8</ele>
        <time>2025-06-17T10:06:59Z</time>
      </trkpt>
      <trkpt lat="43.44519" lon="3.63781">
        <ele>32.8</ele>
        <time>2025-06-17T10:07:00Z</time>
      </trkpt>
      <trkpt lat="43.44515" lon="3.63775">
        <ele>32.8</ele>
        <time>2025-06-17T10:07:01Z</time>
      </trkpt>
      <trkpt lat="43.44512" lon="3.63769">
        <ele>32.8</ele>
        <time>2025-06-17T10:07:02Z</time>
      </trkpt>
      <trkpt lat="43.44508" lon="3.63763">
        <ele>32.8</ele>
        <time>2025-06-17T10:07:03Z</time>
      </trkpt>
      <trkpt lat="43.44505" lon="3.63758">
        <ele>32.8</ele>
        <time>2025-06-17T10:07:04Z</time>
      </trkpt>
      <trkpt lat="43.44502" lon="3.63753">
        <ele>32.8</ele>
        <time>2025-06-17T10:07:05Z</time>
      </trkpt>
      <trkpt lat="43.44499" lon="3.63747">
        <ele>32.8</ele>
        <time>2025-06-17T10:07:06Z</time>
      </trkpt>
      <trkpt lat="43.44496" lon="3.63742">
        <ele>32.8</ele>
        <time>2025-06-17T10:07:07Z</time>
      </trkpt>
      <trkpt lat="43.44493" lon="3.63737">
        <ele>33</ele>
        <time>2025-06-17T10:07:08Z</time>
      </trkpt>
      <trkpt lat="43.4449" lon="3.63732">
        <ele>33</ele>
        <time>2025-06-17T10:07:09Z</time>
      </trkpt>
      <trkpt lat="43.44487" lon="3.63727">
        <ele>33</ele>
        <time>2025-06-17T10:07:10Z</time>
      </trkpt>
      <trkpt lat="43.44485" lon="3.63722">
        <ele>33</ele>
        <time>2025-06-17T10:07:11Z</time>
      </trkpt>
      <trkpt lat="43.44482" lon="3.63717">
        <ele>33</ele>
        <time>2025-06-17T10:07:12Z</time>
      </trkpt>
      <trkpt lat="43.44479" lon="3.63712">
        <ele>33</ele>
        <time>2025-06-17T10:07:13Z</time>
      </trkpt>
      <trkpt lat="43.44477" lon="3.63707">
        <ele>33</ele>
        <time>2025-06-17T10:07:14Z</time>
      </trkpt>
      <trkpt lat="43.44474" lon="3.63702">
        <ele>33</ele>
        <time>2025-06-17T10:07:15Z</time>
      </trkpt>
      <trkpt lat="43.44471" lon="3.63697">
        <ele>33</ele>
        <time>2025-06-17T10:07:16Z</time>
      </trkpt>
      <trkpt lat="43.44469" lon="3.63692">
        <ele>33</ele>
        <time>2025-06-17T10:07:17Z</time>
      </trkpt>
      <trkpt lat="43.44466" lon="3.63687">
        <ele>33.2</ele>
        <time>2025-06-17T10:07:18Z</time>
      </trkpt>
      <trkpt lat="43.44464" lon="3.63683">
        <ele>33.2</ele>
        <time>2025-06-17T10:07:19Z</time>
      </trkpt>
      <trkpt lat="43.44461" lon="3.63678">
        <ele>33.2</ele>
        <time>2025-06-17T10:07:20Z</time>
      </trkpt>
      <trkpt lat="43.44459" lon="3.63673">
        <ele>33.2</ele>
        <time>2025-06-17T10:07:21Z</time>
      </trkpt>
      <trkpt lat="43.44457" lon="3.63667">
        <ele>33.2</ele>
        <time>2025-06-17T10:07:22Z</time>
      </trkpt>
      <trkpt lat="43.44455" lon="3.63662">
        <ele>33.4</ele>
        <time>2025-06-17T10:07:23Z</time>
      </trkpt>
      <trkpt lat="43.44453" lon="3.63657">
        <ele>33.4</ele>
        <time>2025-06-17T10:07:24Z</time>
      </trkpt>
      <trkpt lat="43.4445" lon="3.6365">
        <ele>33.6</ele>
        <time>2025-06-17T10:07:25Z</time>
      </trkpt>
      <trkpt lat="43.44448" lon="3.63644">
        <ele>33.8</ele>
        <time>2025-06-17T10:07:26Z</time>
      </trkpt>
      <trkpt lat="43.44446" lon="3.63638">
        <ele>33.8</ele>
        <time>2025-06-17T10:07:27Z</time>
      </trkpt>
      <trkpt lat="43.44444" lon="3.63632">
        <ele>33.8</ele>
        <time>2025-06-17T10:07:28Z</time>
      </trkpt>
      <trkpt lat="43.44441" lon="3.63626">
        <ele>34</ele>
        <time>2025-06-17T10:07:29Z</time>
      </trkpt>
      <trkpt lat="43.44439" lon="3.63621">
        <ele>34</ele>
        <time>2025-06-17T10:07:30Z</time>
      </trkpt>
      <trkpt lat="43.44435" lon="3.63614">
        <ele>34</ele>
        <time>2025-06-17T10:07:31Z</time>
      </trkpt>
      <trkpt lat="43.44432" lon="3.63608">
        <ele>34</ele>
        <time>2025-06-17T10:07:32Z</time>
      </trkpt>
      <trkpt lat="43.44429" lon="3.63602">
        <ele>34</ele>
        <time>2025-06-17T10:07:33Z</time>
      </trkpt>
      <trkpt lat="43.44426" lon="3.63596">
        <ele>34</ele>
        <time>2025-06-17T10:07:34Z</time>
      </trkpt>
      <trkpt lat="43.44422" lon="3.63589">
        <ele>34</ele>
        <time>2025-06-17T10:07:35Z</time>
      </trkpt>
      <trkpt lat="43.44419" lon="3.63582">
        <ele>34</ele>
        <time>2025-06-17T10:07:36Z</time>
      </trkpt>
      <trkpt lat="43.44416" lon="3.63575">
        <ele>34</ele>
        <time>2025-06-17T10:07:37Z</time>
      </trkpt>
      <trkpt lat="43.44415" lon="3.63568">
        <ele>34</ele>
        <time>2025-06-17T10:07:38Z</time>
      </trkpt>
      <trkpt lat="43.44412" lon="3.6356">
        <ele>34</ele>
        <time>2025-06-17T10:07:39Z</time>
      </trkpt>
      <trkpt lat="43.4441" lon="3.63552">
        <ele>34</ele>
        <time>2025-06-17T10:07:40Z</time>
      </trkpt>
      <trkpt lat="43.44408" lon="3.63545">
        <ele>34</ele>
        <time>2025-06-17T10:07:41Z</time>
      </trkpt>
      <trkpt lat="43.44406" lon="3.63537">
        <ele>34</ele>
        <time>2025-06-17T10:07:42Z</time>
      </trkpt>
      <trkpt lat="43.44404" lon="3.63529">
        <ele>34</ele>
        <time>2025-06-17T10:07:43Z</time>
      </trkpt>
      <trkpt lat="43.44402" lon="3.63521">
        <ele>34</ele>
        <time>2025-06-17T10:07:44Z</time>
      </trkpt>
      <trkpt lat="43.44401" lon="3.63513">
        <ele>34</ele>
        <time>2025-06-17T10:07:45Z</time>
      </trkpt>
      <trkpt lat="43.44398" lon="3.63505">
        <ele>34</ele>
        <time>2025-06-17T10:07:46Z</time>
      </trkpt>
      <trkpt lat="43.44397" lon="3.63497">
        <ele>34</ele>
        <time>2025-06-17T10:07:47Z</time>
      </trkpt>
      <trkpt lat="43.44395" lon="3.63488">
        <ele>34</ele>
        <time>2025-06-17T10:07:48Z</time>
      </trkpt>
      <trkpt lat="43.44392" lon="3.63481">
        <ele>34</ele>
        <time>2025-06-17T10:07:49Z</time>
      </trkpt>
      <trkpt lat="43.44391" lon="3.63475">
        <ele>33.8</ele>
        <time>2025-06-17T10:07:50Z</time>
      </trkpt>
      <trkpt lat="43.44388" lon="3.63464">
        <ele>33.8</ele>
        <time>2025-06-17T10:07:51Z</time>
      </trkpt>
      <trkpt lat="43.44387" lon="3.63456">
        <ele>33.6</ele>
        <time>2025-06-17T10:07:52Z</time>
      </trkpt>
      <trkpt lat="43.44386" lon="3.63447">
        <ele>33.6</ele>
        <time>2025-06-17T10:07:53Z</time>
      </trkpt>
      <trkpt lat="43.44385" lon="3.63439">
        <ele>33.6</ele>
        <time>2025-06-17T10:07:54Z</time>
      </trkpt>
      <trkpt lat="43.44385" lon="3.6343">
        <ele>33.6</ele>
        <time>2025-06-17T10:07:55Z</time>
      </trkpt>
      <trkpt lat="43.44385" lon="3.63422">
        <ele>33.6</ele>
        <time>2025-06-17T10:07:56Z</time>
      </trkpt>
      <trkpt lat="43.44385" lon="3.63414">
        <ele>33.4</ele>
        <time>2025-06-17T10:07:57Z</time>
      </trkpt>
      <trkpt lat="43.44385" lon="3.63407">
        <ele>33.4</ele>
        <time>2025-06-17T10:07:58Z</time>
      </trkpt>
      <trkpt lat="43.44385" lon="3.63399">
        <ele>33.6</ele>
        <time>2025-06-17T10:07:59Z</time>
      </trkpt>
      <trkpt lat="43.44386" lon="3.63391">
        <ele>33.6</ele>
        <time>2025-06-17T10:08:00Z</time>
      </trkpt>
      <trkpt lat="43.44386" lon="3.63384">
        <ele>33.6</ele>
        <time>2025-06-17T10:08:01Z</time>
      </trkpt>
      <trkpt lat="43.44386" lon="3.63378">
        <ele>33.6</ele>
        <time>2025-06-17T10:08:02Z</time>
      </trkpt>
      <trkpt lat="43.44386" lon="3.63372">
        <ele>33.6</ele>
        <time>2025-06-17T10:08:03Z</time>
      </trkpt>
      <trkpt lat="43.44385" lon="3.63367">
        <ele>33.6</ele>
        <time>2025-06-17T10:08:04Z</time>
      </trkpt>
      <trkpt lat="43.44383" lon="3.63363">
        <ele>33.6</ele>
        <time>2025-06-17T10:08:05Z</time>
      </trkpt>
      <trkpt lat="43.4438" lon="3.63359">
        <ele>33.4</ele>
        <time>2025-06-17T10:08:06Z</time>
      </trkpt>
      <trkpt lat="43.44378" lon="3.63355">
        <ele>33.2</ele>
        <time>2025-06-17T10:08:07Z</time>
      </trkpt>
      <trkpt lat="43.44375" lon="3.6335">
        <ele>33</ele>
        <time>2025-06-17T10:08:08Z</time>
      </trkpt>
      <trkpt lat="43.44373" lon="3.63344">
        <ele>32.8</ele>
        <time>2025-06-17T10:08:09Z</time>
      </trkpt>
      <trkpt lat="43.44371" lon="3.63337">
        <ele>32.8</ele>
        <time>2025-06-17T10:08:10Z</time>
      </trkpt>
      <trkpt lat="43.44367" lon="3.63331">
        <ele>32.6</ele>
        <time>2025-06-17T10:08:11Z</time>
      </trkpt>
      <trkpt lat="43.44363" lon="3.63325">
        <ele>32.2</ele>
        <time>2025-06-17T10:08:12Z</time>
      </trkpt>
      <trkpt lat="43.44358" lon="3.63319">
        <ele>32</ele>
        <time>2025-06-17T10:08:13Z</time>
      </trkpt>
      <trkpt lat="43.44353" lon="3.63313">
        <ele>31.8</ele>
        <time>2025-06-17T10:08:14Z</time>
      </trkpt>
      <trkpt lat="43.44348" lon="3.63306">
        <ele>31.4</ele>
        <time>2025-06-17T10:08:15Z</time>
      </trkpt>
      <trkpt lat="43.44342" lon="3.63299">
        <ele>31.2</ele>
        <time>2025-06-17T10:08:16Z</time>
      </trkpt>
      <trkpt lat="43.44337" lon="3.63293">
        <ele>30.8</ele>
        <time>2025-06-17T10:08:17Z</time>
      </trkpt>
      <trkpt lat="43.44332" lon="3.63289">
        <ele>30.6</ele>
        <time>2025-06-17T10:08:18Z</time>
      </trkpt>
      <trkpt lat="43.44326" lon="3.63285">
        <ele>30.2</ele>
        <time>2025-06-17T10:08:19Z</time>
      </trkpt>
      <trkpt lat="43.44322" lon="3.63283">
        <ele>30</ele>
        <time>2025-06-17T10:08:20Z</time>
      </trkpt>
      <trkpt lat="43.44318" lon="3.6328">
        <ele>29.8</ele>
        <time>2025-06-17T10:08:21Z</time>
      </trkpt>
      <trkpt lat="43.44316" lon="3.63276">
        <ele>29.4</ele>
        <time>2025-06-17T10:08:22Z</time>
      </trkpt>
      <trkpt lat="43.44316" lon="3.63272">
        <ele>29.2</ele>
        <time>2025-06-17T10:08:23Z</time>
      </trkpt>
      <trkpt lat="43.4432" lon="3.63267">
        <ele>29.2</ele>
        <time>2025-06-17T10:08:24Z</time>
      </trkpt>
      <trkpt lat="43.44324" lon="3.63264">
        <ele>29.2</ele>
        <time>2025-06-17T10:08:25Z</time>
      </trkpt>
      <trkpt lat="43.44329" lon="3.63261">
        <ele>29</ele>
        <time>2025-06-17T10:08:26Z</time>
      </trkpt>
      <trkpt lat="43.44332" lon="3.63258">
        <ele>29</ele>
        <time>2025-06-17T10:08:27Z</time>
      </trkpt>
      <trkpt lat="43.44337" lon="3.63252">
        <ele>28.8</ele>
        <time>2025-06-17T10:08:28Z</time>
      </trkpt>
      <trkpt lat="43.44341" lon="3.63247">
        <ele>28.6</ele>
        <time>2025-06-17T10:08:29Z</time>
      </trkpt>
      <trkpt lat="43.44347" lon="3.63242">
        <ele>28.2</ele>
        <time>2025-06-17T10:08:30Z</time>
      </trkpt>
      <trkpt lat="43.44352" lon="3.63236">
        <ele>27.8</ele>
        <time>2025-06-17T10:08:31Z</time>
      </trkpt>
      <trkpt lat="43.44359" lon="3.63228">
        <ele>27.2</ele>
        <time>2025-06-17T10:08:32Z</time>
      </trkpt>
      <trkpt lat="43.44365" lon="3.6322">
        <ele>27</ele>
        <time>2025-06-17T10:08:33Z</time>
      </trkpt>
      <trkpt lat="43.44371" lon="3.63213">
        <ele>26.6</ele>
        <time>2025-06-17T10:08:34Z</time>
      </trkpt>
      <trkpt lat="43.44377" lon="3.63206">
        <ele>26.4</ele>
        <time>2025-06-17T10:08:35Z</time>
      </trkpt>
      <trkpt lat="43.44383" lon="3.63199">
        <ele>26.4</ele>
        <time>2025-06-17T10:08:36Z</time>
      </trkpt>
      <trkpt lat="43.44388" lon="3.63193">
        <ele>26.4</ele>
        <time>2025-06-17T10:08:37Z</time>
      </trkpt>
      <trkpt lat="43.44394" lon="3.63187">
        <ele>26.8</ele>
        <time>2025-06-17T10:08:38Z</time>
      </trkpt>
      <trkpt lat="43.44399" lon="3.63182">
        <ele>27</ele>
        <time>2025-06-17T10:08:39Z</time>
      </trkpt>
      <trkpt lat="43.44404" lon="3.63177">
        <ele>27.4</ele>
        <time>2025-06-17T10:08:40Z</time>
      </trkpt>
      <trkpt lat="43.44407" lon="3.63174">
        <ele>27.8</ele>
        <time>2025-06-17T10:08:41Z</time>
      </trkpt>
      <trkpt lat="43.44411" lon="3.63169">
        <ele>28</ele>
        <time>2025-06-17T10:08:42Z</time>
      </trkpt>
      <trkpt lat="43.44414" lon="3.63165">
        <ele>28.4</ele>
        <time>2025-06-17T10:08:43Z</time>
      </trkpt>
      <trkpt lat="43.44418" lon="3.63161">
        <ele>28.8</ele>
        <time>2025-06-17T10:08:44Z</time>
      </trkpt>
      <trkpt lat="43.44421" lon="3.63158">
        <ele>29</ele>
        <time>2025-06-17T10:08:45Z</time>
      </trkpt>
      <trkpt lat="43.44424" lon="3.63154">
        <ele>29.4</ele>
        <time>2025-06-17T10:08:46Z</time>
      </trkpt>
      <trkpt lat="43.44426" lon="3.63151">
        <ele>29.8</ele>
        <time>2025-06-17T10:08:47Z</time>
      </trkpt>
      <trkpt lat="43.44429" lon="3.63148">
        <ele>30</ele>
        <time>2025-06-17T10:08:48Z</time>
      </trkpt>
      <trkpt lat="43.44432" lon="3.63144">
        <ele>30.4</ele>
        <time>2025-06-17T10:08:49Z</time>
      </trkpt>
      <trkpt lat="43.44434" lon="3.6314">
        <ele>30.6</ele>
        <time>2025-06-17T10:08:50Z</time>
      </trkpt>
      <trkpt lat="43.44437" lon="3.63136">
        <ele>30.8</ele>
        <time>2025-06-17T10:08:51Z</time>
      </trkpt>
      <trkpt lat="43.44439" lon="3.6313">
        <ele>31</ele>
        <time>2025-06-17T10:08:52Z</time>
      </trkpt>
      <trkpt lat="43.4444" lon="3.63124">
        <ele>31</ele>
        <time>2025-06-17T10:08:53Z</time>
      </trkpt>
      <trkpt lat="43.44442" lon="3.63118">
        <ele>31.2</ele>
        <time>2025-06-17T10:08:54Z</time>
      </trkpt>
      <trkpt lat="43.44442" lon="3.63112">
        <ele>31.2</ele>
        <time>2025-06-17T10:08:55Z</time>
      </trkpt>
      <trkpt lat="43.44443" lon="3.63105">
        <ele>31.2</ele>
        <time>2025-06-17T10:08:56Z</time>
      </trkpt>
      <trkpt lat="43.44444" lon="3.63098">
        <ele>31.2</ele>
        <time>2025-06-17T10:08:57Z</time>
      </trkpt>
      <trkpt lat="43.44445" lon="3.6309">
        <ele>31.2</ele>
        <time>2025-06-17T10:08:58Z</time>
      </trkpt>
      <trkpt lat="43.44445" lon="3.63083">
        <ele>31</ele>
        <time>2025-06-17T10:08:59Z</time>
      </trkpt>
      <trkpt lat="43.44446" lon="3.63074">
        <ele>31</ele>
        <time>2025-06-17T10:09:00Z</time>
      </trkpt>
      <trkpt lat="43.44447" lon="3.63067">
        <ele>31.2</ele>
        <time>2025-06-17T10:09:01Z</time>
      </trkpt>
      <trkpt lat="43.44448" lon="3.63059">
        <ele>31</ele>
        <time>2025-06-17T10:09:02Z</time>
      </trkpt>
      <trkpt lat="43.44448" lon="3.63051">
        <ele>31</ele>
        <time>2025-06-17T10:09:03Z</time>
      </trkpt>
      <trkpt lat="43.44449" lon="3.63043">
        <ele>31</ele>
        <time>2025-06-17T10:09:04Z</time>
      </trkpt>
      <trkpt lat="43.44449" lon="3.63036">
        <ele>30.8</ele>
        <time>2025-06-17T10:09:05Z</time>
      </trkpt>
      <trkpt lat="43.44449" lon="3.63028">
        <ele>30.8</ele>
        <time>2025-06-17T10:09:06Z</time>
      </trkpt>
      <trkpt lat="43.44449" lon="3.6302">
        <ele>30.8</ele>
        <time>2025-06-17T10:09:07Z</time>
      </trkpt>
      <trkpt lat="43.44449" lon="3.63013">
        <ele>30.8</ele>
        <time>2025-06-17T10:09:08Z</time>
      </trkpt>
      <trkpt lat="43.4445" lon="3.63007">
        <ele>30.8</ele>
        <time>2025-06-17T10:09:09Z</time>
      </trkpt>
      <trkpt lat="43.4445" lon="3.63">
        <ele>30.8</ele>
        <time>2025-06-17T10:09:10Z</time>
      </trkpt>
      <trkpt lat="43.44449" lon="3.62994">
        <ele>30.8</ele>
        <time>2025-06-17T10:09:11Z</time>
      </trkpt>
      <trkpt lat="43.44449" lon="3.62986">
        <ele>30.8</ele>
        <time>2025-06-17T10:09:12Z</time>
      </trkpt>
      <trkpt lat="43.44449" lon="3.62978">
        <ele>30.8</ele>
        <time>2025-06-17T10:09:13Z</time>
      </trkpt>
      <trkpt lat="43.44448" lon="3.62971">
        <ele>30.8</ele>
        <time>2025-06-17T10:09:14Z</time>
      </trkpt>
      <trkpt lat="43.44448" lon="3.62965">
        <ele>30.8</ele>
        <time>2025-06-17T10:09:15Z</time>
      </trkpt>
      <trkpt lat="43.44448" lon="3.62958">
        <ele>30.6</ele>
        <time>2025-06-17T10:09:16Z</time>
      </trkpt>
      <trkpt lat="43.44447" lon="3.62952">
        <ele>30.6</ele>
        <time>2025-06-17T10:09:17Z</time>
      </trkpt>
      <trkpt lat="43.44447" lon="3.62946">
        <ele>30.6</ele>
        <time>2025-06-17T10:09:18Z</time>
      </trkpt>
      <trkpt lat="43.44447" lon="3.6294">
        <ele>30.6</ele>
        <time>2025-06-17T10:09:19Z</time>
      </trkpt>
      <trkpt lat="43.44447" lon="3.62934">
        <ele>30.6</ele>
        <time>2025-06-17T10:09:20Z</time>
      </trkpt>
      <trkpt lat="43.44446" lon="3.62927">
        <ele>30.6</ele>
        <time>2025-06-17T10:09:21Z</time>
      </trkpt>
      <trkpt lat="43.44445" lon="3.62921">
        <ele>30.6</ele>
        <time>2025-06-17T10:09:22Z</time>
      </trkpt>
      <trkpt lat="43.44444" lon="3.62914">
        <ele>30.8</ele>
        <time>2025-06-17T10:09:23Z</time>
      </trkpt>
      <trkpt lat="43.44443" lon="3.62907">
        <ele>30.8</ele>
        <time>2025-06-17T10:09:24Z</time>
      </trkpt>
      <trkpt lat="43.44441" lon="3.629">
        <ele>30.8</ele>
        <time>2025-06-17T10:09:25Z</time>
      </trkpt>
      <trkpt lat="43.4444" lon="3.62893">
        <ele>31</ele>
        <time>2025-06-17T10:09:26Z</time>
      </trkpt>
      <trkpt lat="43.44439" lon="3.62886">
        <ele>31</ele>
        <time>2025-06-17T10:09:27Z</time>
      </trkpt>
      <trkpt lat="43.44437" lon="3.62878">
        <ele>31</ele>
        <time>2025-06-17T10:09:28Z</time>
      </trkpt>
      <trkpt lat="43.44435" lon="3.62871">
        <ele>31</ele>
        <time>2025-06-17T10:09:29Z</time>
      </trkpt>
      <trkpt lat="43.44433" lon="3.62863">
        <ele>31</ele>
        <time>2025-06-17T10:09:30Z</time>
      </trkpt>
      <trkpt lat="43.44432" lon="3.62856">
        <ele>31</ele>
        <time>2025-06-17T10:09:31Z</time>
      </trkpt>
      <trkpt lat="43.4443" lon="3.62848">
        <ele>31</ele>
        <time>2025-06-17T10:09:32Z</time>
      </trkpt>
      <trkpt lat="43.44427" lon="3.62841">
        <ele>31</ele>
        <time>2025-06-17T10:09:33Z</time>
      </trkpt>
      <trkpt lat="43.44426" lon="3.62834">
        <ele>31.2</ele>
        <time>2025-06-17T10:09:34Z</time>
      </trkpt>
      <trkpt lat="43.44424" lon="3.62828">
        <ele>31</ele>
        <time>2025-06-17T10:09:35Z</time>
      </trkpt>
      <trkpt lat="43.44421" lon="3.62819">
        <ele>31</ele>
        <time>2025-06-17T10:09:36Z</time>
      </trkpt>
      <trkpt lat="43.44419" lon="3.62812">
        <ele>31</ele>
        <time>2025-06-17T10:09:37Z</time>
      </trkpt>
      <trkpt lat="43.44416" lon="3.62805">
        <ele>31.2</ele>
        <time>2025-06-17T10:09:38Z</time>
      </trkpt>
      <trkpt lat="43.44414" lon="3.62798">
        <ele>31.2</ele>
        <time>2025-06-17T10:09:39Z</time>
      </trkpt>
      <trkpt lat="43.44411" lon="3.62791">
        <ele>31.2</ele>
        <time>2025-06-17T10:09:40Z</time>
      </trkpt>
      <trkpt lat="43.44409" lon="3.62784">
        <ele>31.2</ele>
        <time>2025-06-17T10:09:41Z</time>
      </trkpt>
      <trkpt lat="43.44406" lon="3.62777">
        <ele>31.2</ele>
        <time>2025-06-17T10:09:42Z</time>
      </trkpt>
      <trkpt lat="43.44403" lon="3.6277">
        <ele>31.4</ele>
        <time>2025-06-17T10:09:43Z</time>
      </trkpt>
      <trkpt lat="43.444" lon="3.62763">
        <ele>31.4</ele>
        <time>2025-06-17T10:09:44Z</time>
      </trkpt>
      <trkpt lat="43.44398" lon="3.62756">
        <ele>31.4</ele>
        <time>2025-06-17T10:09:45Z</time>
      </trkpt>
      <trkpt lat="43.44395" lon="3.6275">
        <ele>31.4</ele>
        <time>2025-06-17T10:09:46Z</time>
      </trkpt>
      <trkpt lat="43.44392" lon="3.62744">
        <ele>31.6</ele>
        <time>2025-06-17T10:09:47Z</time>
      </trkpt>
      <trkpt lat="43.44389" lon="3.62736">
        <ele>31.4</ele>
        <time>2025-06-17T10:09:48Z</time>
      </trkpt>
      <trkpt lat="43.44386" lon="3.62729">
        <ele>31.6</ele>
        <time>2025-06-17T10:09:49Z</time>
      </trkpt>
      <trkpt lat="43.44384" lon="3.62723">
        <ele>31.6</ele>
        <time>2025-06-17T10:09:50Z</time>
      </trkpt>
      <trkpt lat="43.44381" lon="3.62715">
        <ele>31.6</ele>
        <time>2025-06-17T10:09:51Z</time>
      </trkpt>
      <trkpt lat="43.44377" lon="3.62708">
        <ele>31.6</ele>
        <time>2025-06-17T10:09:52Z</time>
      </trkpt>
      <trkpt lat="43.44375" lon="3.62702">
        <ele>31.6</ele>
        <time>2025-06-17T10:09:53Z</time>
      </trkpt>
      <trkpt lat="43.44371" lon="3.62694">
        <ele>31.6</ele>
        <time>2025-06-17T10:09:54Z</time>
      </trkpt>
      <trkpt lat="43.44368" lon="3.62687">
        <ele>31.6</ele>
        <time>2025-06-17T10:09:55Z</time>
      </trkpt>
      <trkpt lat="43.44365" lon="3.6268">
        <ele>31.6</ele>
        <time>2025-06-17T10:09:56Z</time>
      </trkpt>
      <trkpt lat="43.44362" lon="3.62673">
        <ele>31.6</ele>
        <time>2025-06-17T10:09:57Z</time>
      </trkpt>
      <trkpt lat="43.4436" lon="3.62666">
        <ele>31.6</ele>
        <time>2025-06-17T10:09:58Z</time>
      </trkpt>
      <trkpt lat="43.44357" lon="3.62659">
        <ele>31.6</ele>
        <time>2025-06-17T10:09:59Z</time>
      </trkpt>
      <trkpt lat="43.44354" lon="3.62651">
        <ele>31.6</ele>
        <time>2025-06-17T10:10:00Z</time>
      </trkpt>
      <trkpt lat="43.44351" lon="3.62644">
        <ele>31.4</ele>
        <time>2025-06-17T10:10:01Z</time>
      </trkpt>
      <trkpt lat="43.44349" lon="3.62639">
        <ele>31.4</ele>
        <time>2025-06-17T10:10:02Z</time>
      </trkpt>
      <trkpt lat="43.44346" lon="3.62629">
        <ele>31.4</ele>
        <time>2025-06-17T10:10:03Z</time>
      </trkpt>
      <trkpt lat="43.44343" lon="3.62622">
        <ele>31.4</ele>
        <time>2025-06-17T10:10:04Z</time>
      </trkpt>
      <trkpt lat="43.4434" lon="3.62615">
        <ele>31.4</ele>
        <time>2025-06-17T10:10:05Z</time>
      </trkpt>
      <trkpt lat="43.44336" lon="3.62608">
        <ele>31.4</ele>
        <time>2025-06-17T10:10:06Z</time>
      </trkpt>
      <trkpt lat="43.44333" lon="3.626">
        <ele>31.4</ele>
        <time>2025-06-17T10:10:07Z</time>
      </trkpt>
      <trkpt lat="43.4433" lon="3.62593">
        <ele>31.4</ele>
        <time>2025-06-17T10:10:08Z</time>
      </trkpt>
      <trkpt lat="43.44327" lon="3.62586">
        <ele>31.4</ele>
        <time>2025-06-17T10:10:09Z</time>
      </trkpt>
      <trkpt lat="43.44324" lon="3.62579">
        <ele>31.4</ele>
        <time>2025-06-17T10:10:10Z</time>
      </trkpt>
      <trkpt lat="43.44322" lon="3.62572">
        <ele>31.4</ele>
        <time>2025-06-17T10:10:11Z</time>
      </trkpt>
      <trkpt lat="43.44319" lon="3.62565">
        <ele>31.4</ele>
        <time>2025-06-17T10:10:12Z</time>
      </trkpt>
      <trkpt lat="43.44316" lon="3.62558">
        <ele>31.4</ele>
        <time>2025-06-17T10:10:13Z</time>
      </trkpt>
      <trkpt lat="43.44313" lon="3.62551">
        <ele>31.4</ele>
        <time>2025-06-17T10:10:14Z</time>
      </trkpt>
      <trkpt lat="43.4431" lon="3.62543">
        <ele>31.4</ele>
        <time>2025-06-17T10:10:15Z</time>
      </trkpt>
      <trkpt lat="43.44307" lon="3.62536">
        <ele>31.4</ele>
        <time>2025-06-17T10:10:16Z</time>
      </trkpt>
      <trkpt lat="43.44305" lon="3.62529">
        <ele>31.4</ele>
        <time>2025-06-17T10:10:17Z</time>
      </trkpt>
      <trkpt lat="43.44302" lon="3.62522">
        <ele>31.4</ele>
        <time>2025-06-17T10:10:18Z</time>
      </trkpt>
      <trkpt lat="43.443" lon="3.62515">
        <ele>31.4</ele>
        <time>2025-06-17T10:10:19Z</time>
      </trkpt>
      <trkpt lat="43.44297" lon="3.62508">
        <ele>31.6</ele>
        <time>2025-06-17T10:10:20Z</time>
      </trkpt>
      <trkpt lat="43.44295" lon="3.625">
        <ele>31.6</ele>
        <time>2025-06-17T10:10:21Z</time>
      </trkpt>
      <trkpt lat="43.44292" lon="3.62493">
        <ele>31.6</ele>
        <time>2025-06-17T10:10:22Z</time>
      </trkpt>
      <trkpt lat="43.4429" lon="3.62485">
        <ele>31.6</ele>
        <time>2025-06-17T10:10:23Z</time>
      </trkpt>
      <trkpt lat="43.44288" lon="3.62478">
        <ele>31.6</ele>
        <time>2025-06-17T10:10:24Z</time>
      </trkpt>
      <trkpt lat="43.44287" lon="3.62471">
        <ele>31.6</ele>
        <time>2025-06-17T10:10:25Z</time>
      </trkpt>
      <trkpt lat="43.44284" lon="3.62461">
        <ele>31.6</ele>
        <time>2025-06-17T10:10:26Z</time>
      </trkpt>
      <trkpt lat="43.44283" lon="3.62453">
        <ele>31.6</ele>
        <time>2025-06-17T10:10:27Z</time>
      </trkpt>
      <trkpt lat="43.44281" lon="3.62445">
        <ele>31.6</ele>
        <time>2025-06-17T10:10:28Z</time>
      </trkpt>
      <trkpt lat="43.4428" lon="3.62436">
        <ele>31.6</ele>
        <time>2025-06-17T10:10:29Z</time>
      </trkpt>
      <trkpt lat="43.44279" lon="3.62428">
        <ele>31.6</ele>
        <time>2025-06-17T10:10:30Z</time>
      </trkpt>
      <trkpt lat="43.44278" lon="3.6242">
        <ele>31.4</ele>
        <time>2025-06-17T10:10:31Z</time>
      </trkpt>
      <trkpt lat="43.44276" lon="3.62411">
        <ele>31.4</ele>
        <time>2025-06-17T10:10:32Z</time>
      </trkpt>
      <trkpt lat="43.44275" lon="3.62403">
        <ele>31.4</ele>
        <time>2025-06-17T10:10:33Z</time>
      </trkpt>
      <trkpt lat="43.44274" lon="3.62394">
        <ele>31.4</ele>
        <time>2025-06-17T10:10:34Z</time>
      </trkpt>
      <trkpt lat="43.44274" lon="3.62386">
        <ele>31.6</ele>
        <time>2025-06-17T10:10:35Z</time>
      </trkpt>
      <trkpt lat="43.44273" lon="3.62377">
        <ele>31.6</ele>
        <time>2025-06-17T10:10:36Z</time>
      </trkpt>
      <trkpt lat="43.44273" lon="3.62369">
        <ele>31.6</ele>
        <time>2025-06-17T10:10:37Z</time>
      </trkpt>
      <trkpt lat="43.44272" lon="3.62361">
        <ele>31.4</ele>
        <time>2025-06-17T10:10:38Z</time>
      </trkpt>
      <trkpt lat="43.44272" lon="3.62352">
        <ele>31.6</ele>
        <time>2025-06-17T10:10:39Z</time>
      </trkpt>
      <trkpt lat="43.44272" lon="3.62343">
        <ele>31.6</ele>
        <time>2025-06-17T10:10:40Z</time>
      </trkpt>
      <trkpt lat="43.44272" lon="3.62335">
        <ele>31.6</ele>
        <time>2025-06-17T10:10:41Z</time>
      </trkpt>
      <trkpt lat="43.44273" lon="3.62326">
        <ele>31.6</ele>
        <time>2025-06-17T10:10:42Z</time>
      </trkpt>
      <trkpt lat="43.44273" lon="3.62317">
        <ele>31.4</ele>
        <time>2025-06-17T10:10:43Z</time>
      </trkpt>
      <trkpt lat="43.44273" lon="3.62308">
        <ele>31.4</ele>
        <time>2025-06-17T10:10:44Z</time>
      </trkpt>
      <trkpt lat="43.44274" lon="3.62299">
        <ele>31.4</ele>
        <time>2025-06-17T10:10:45Z</time>
      </trkpt>
      <trkpt lat="43.44275" lon="3.62289">
        <ele>31.2</ele>
        <time>2025-06-17T10:10:46Z</time>
      </trkpt>
      <trkpt lat="43.44277" lon="3.6228">
        <ele>31.2</ele>
        <time>2025-06-17T10:10:47Z</time>
      </trkpt>
      <trkpt lat="43.44278" lon="3.62271">
        <ele>31.2</ele>
        <time>2025-06-17T10:10:48Z</time>
      </trkpt>
      <trkpt lat="43.44279" lon="3.62262">
        <ele>31.2</ele>
        <time>2025-06-17T10:10:49Z</time>
      </trkpt>
      <trkpt lat="43.44281" lon="3.62254">
        <ele>31.4</ele>
        <time>2025-06-17T10:10:50Z</time>
      </trkpt>
      <trkpt lat="43.44283" lon="3.62243">
        <ele>31.2</ele>
        <time>2025-06-17T10:10:51Z</time>
      </trkpt>
      <trkpt lat="43.44285" lon="3.62234">
        <ele>31.2</ele>
        <time>2025-06-17T10:10:52Z</time>
      </trkpt>
      <trkpt lat="43.44287" lon="3.62224">
        <ele>31</ele>
        <time>2025-06-17T10:10:53Z</time>
      </trkpt>
      <trkpt lat="43.4429" lon="3.62215">
        <ele>30.8</ele>
        <time>2025-06-17T10:10:54Z</time>
      </trkpt>
      <trkpt lat="43.44292" lon="3.62206">
        <ele>30.8</ele>
        <time>2025-06-17T10:10:55Z</time>
      </trkpt>
      <trkpt lat="43.44295" lon="3.62196">
        <ele>30.6</ele>
        <time>2025-06-17T10:10:56Z</time>
      </trkpt>
      <trkpt lat="43.44298" lon="3.62186">
        <ele>30.6</ele>
        <time>2025-06-17T10:10:57Z</time>
      </trkpt>
      <trkpt lat="43.443" lon="3.62176">
        <ele>30.4</ele>
        <time>2025-06-17T10:10:58Z</time>
      </trkpt>
      <trkpt lat="43.44303" lon="3.62167">
        <ele>30.2</ele>
        <time>2025-06-17T10:10:59Z</time>
      </trkpt>
      <trkpt lat="43.44306" lon="3.62157">
        <ele>30.2</ele>
        <time>2025-06-17T10:11:00Z</time>
      </trkpt>
      <trkpt lat="43.44308" lon="3.62147">
        <ele>30.2</ele>
        <time>2025-06-17T10:11:01Z</time>
      </trkpt>
      <trkpt lat="43.44311" lon="3.62137">
        <ele>30</ele>
        <time>2025-06-17T10:11:02Z</time>
      </trkpt>
      <trkpt lat="43.44313" lon="3.62128">
        <ele>30</ele>
        <time>2025-06-17T10:11:03Z</time>
      </trkpt>
      <trkpt lat="43.44315" lon="3.62118">
        <ele>29.8</ele>
        <time>2025-06-17T10:11:04Z</time>
      </trkpt>
      <trkpt lat="43.44317" lon="3.62108">
        <ele>29.8</ele>
        <time>2025-06-17T10:11:05Z</time>
      </trkpt>
      <trkpt lat="43.44319" lon="3.62098">
        <ele>29.8</ele>
        <time>2025-06-17T10:11:06Z</time>
      </trkpt>
      <trkpt lat="43.4432" lon="3.62089">
        <ele>29.6</ele>
        <time>2025-06-17T10:11:07Z</time>
      </trkpt>
      <trkpt lat="43.44322" lon="3.62078">
        <ele>29.6</ele>
        <time>2025-06-17T10:11:08Z</time>
      </trkpt>
      <trkpt lat="43.44323" lon="3.62068">
        <ele>29.4</ele>
        <time>2025-06-17T10:11:09Z</time>
      </trkpt>
      <trkpt lat="43.44325" lon="3.62057">
        <ele>29.2</ele>
        <time>2025-06-17T10:11:10Z</time>
      </trkpt>
      <trkpt lat="43.44326" lon="3.62047">
        <ele>29</ele>
        <time>2025-06-17T10:11:11Z</time>
      </trkpt>
      <trkpt lat="43.44326" lon="3.62036">
        <ele>29</ele>
        <time>2025-06-17T10:11:12Z</time>
      </trkpt>
      <trkpt lat="43.44326" lon="3.62026">
        <ele>28.8</ele>
        <time>2025-06-17T10:11:13Z</time>
      </trkpt>
      <trkpt lat="43.44327" lon="3.62017">
        <ele>28.8</ele>
        <time>2025-06-17T10:11:14Z</time>
      </trkpt>
      <trkpt lat="43.44327" lon="3.62006">
        <ele>28.6</ele>
        <time>2025-06-17T10:11:15Z</time>
      </trkpt>
      <trkpt lat="43.44327" lon="3.61999">
        <ele>28.6</ele>
        <time>2025-06-17T10:11:16Z</time>
      </trkpt>
      <trkpt lat="43.44327" lon="3.61986">
        <ele>28.6</ele>
        <time>2025-06-17T10:11:17Z</time>
      </trkpt>
      <trkpt lat="43.44327" lon="3.61977">
        <ele>28.6</ele>
        <time>2025-06-17T10:11:18Z</time>
      </trkpt>
      <trkpt lat="43.44326" lon="3.61967">
        <ele>28.4</ele>
        <time>2025-06-17T10:11:19Z</time>
      </trkpt>
      <trkpt lat="43.44324" lon="3.61958">
        <ele>28.2</ele>
        <time>2025-06-17T10:11:20Z</time>
      </trkpt>
      <trkpt lat="43.44324" lon="3.61948">
        <ele>28.2</ele>
        <time>2025-06-17T10:11:21Z</time>
      </trkpt>
      <trkpt lat="43.44323" lon="3.61939">
        <ele>28</ele>
        <time>2025-06-17T10:11:22Z</time>
      </trkpt>
      <trkpt lat="43.44322" lon="3.61929">
        <ele>28</ele>
        <time>2025-06-17T10:11:23Z</time>
      </trkpt>
      <trkpt lat="43.44321" lon="3.6192">
        <ele>27.8</ele>
        <time>2025-06-17T10:11:24Z</time>
      </trkpt>
      <trkpt lat="43.4432" lon="3.6191">
        <ele>27.8</ele>
        <time>2025-06-17T10:11:25Z</time>
      </trkpt>
      <trkpt lat="43.44319" lon="3.61901">
        <ele>27.8</ele>
        <time>2025-06-17T10:11:26Z</time>
      </trkpt>
      <trkpt lat="43.44317" lon="3.61891">
        <ele>27.8</ele>
        <time>2025-06-17T10:11:27Z</time>
      </trkpt>
      <trkpt lat="43.44316" lon="3.61882">
        <ele>27.8</ele>
        <time>2025-06-17T10:11:28Z</time>
      </trkpt>
      <trkpt lat="43.44315" lon="3.61873">
        <ele>27.6</ele>
        <time>2025-06-17T10:11:29Z</time>
      </trkpt>
      <trkpt lat="43.44313" lon="3.61863">
        <ele>27.6</ele>
        <time>2025-06-17T10:11:30Z</time>
      </trkpt>
      <trkpt lat="43.44312" lon="3.61854">
        <ele>27.6</ele>
        <time>2025-06-17T10:11:31Z</time>
      </trkpt>
      <trkpt lat="43.44311" lon="3.61845">
        <ele>27.6</ele>
        <time>2025-06-17T10:11:32Z</time>
      </trkpt>
      <trkpt lat="43.4431" lon="3.61835">
        <ele>27.6</ele>
        <time>2025-06-17T10:11:33Z</time>
      </trkpt>
      <trkpt lat="43.44308" lon="3.61827">
        <ele>27.6</ele>
        <time>2025-06-17T10:11:34Z</time>
      </trkpt>
      <trkpt lat="43.44307" lon="3.61818">
        <ele>27.6</ele>
        <time>2025-06-17T10:11:35Z</time>
      </trkpt>
      <trkpt lat="43.44307" lon="3.61808">
        <ele>27.6</ele>
        <time>2025-06-17T10:11:36Z</time>
      </trkpt>
      <trkpt lat="43.44307" lon="3.61799">
        <ele>27.4</ele>
        <time>2025-06-17T10:11:37Z</time>
      </trkpt>
      <trkpt lat="43.44306" lon="3.6179">
        <ele>27.4</ele>
        <time>2025-06-17T10:11:38Z</time>
      </trkpt>
      <trkpt lat="43.44306" lon="3.61781">
        <ele>27.4</ele>
        <time>2025-06-17T10:11:39Z</time>
      </trkpt>
      <trkpt lat="43.44305" lon="3.61772">
        <ele>27.4</ele>
        <time>2025-06-17T10:11:40Z</time>
      </trkpt>
      <trkpt lat="43.44305" lon="3.61763">
        <ele>27.4</ele>
        <time>2025-06-17T10:11:41Z</time>
      </trkpt>
      <trkpt lat="43.44304" lon="3.61754">
        <ele>27.4</ele>
        <time>2025-06-17T10:11:42Z</time>
      </trkpt>
      <trkpt lat="43.44303" lon="3.61745">
        <ele>27.6</ele>
        <time>2025-06-17T10:11:43Z</time>
      </trkpt>
      <trkpt lat="43.44303" lon="3.61736">
        <ele>27.6</ele>
        <time>2025-06-17T10:11:44Z</time>
      </trkpt>
      <trkpt lat="43.44303" lon="3.61727">
        <ele>27.6</ele>
        <time>2025-06-17T10:11:45Z</time>
      </trkpt>
      <trkpt lat="43.44302" lon="3.61718">
        <ele>27.6</ele>
        <time>2025-06-17T10:11:46Z</time>
      </trkpt>
      <trkpt lat="43.44302" lon="3.6171">
        <ele>27.6</ele>
        <time>2025-06-17T10:11:47Z</time>
      </trkpt>
      <trkpt lat="43.44301" lon="3.61701">
        <ele>27.6</ele>
        <time>2025-06-17T10:11:48Z</time>
      </trkpt>
      <trkpt lat="43.443" lon="3.61693">
        <ele>27.6</ele>
        <time>2025-06-17T10:11:49Z</time>
      </trkpt>
      <trkpt lat="43.443" lon="3.61685">
        <ele>27.6</ele>
        <time>2025-06-17T10:11:50Z</time>
      </trkpt>
      <trkpt lat="43.44299" lon="3.61677">
        <ele>27.6</ele>
        <time>2025-06-17T10:11:51Z</time>
      </trkpt>
      <trkpt lat="43.44299" lon="3.61669">
        <ele>27.6</ele>
        <time>2025-06-17T10:11:52Z</time>
      </trkpt>
      <trkpt lat="43.44298" lon="3.61662">
        <ele>27.6</ele>
        <time>2025-06-17T10:11:53Z</time>
      </trkpt>
      <trkpt lat="43.44298" lon="3.61657">
        <ele>27.6</ele>
        <time>2025-06-17T10:11:54Z</time>
      </trkpt>
      <trkpt lat="43.44298" lon="3.61651">
        <ele>27.6</ele>
        <time>2025-06-17T10:11:55Z</time>
      </trkpt>
      <trkpt lat="43.44298" lon="3.61646">
        <ele>27.6</ele>
        <time>2025-06-17T10:11:56Z</time>
      </trkpt>
      <trkpt lat="43.44299" lon="3.61643">
        <ele>27.6</ele>
        <time>2025-06-17T10:11:57Z</time>
      </trkpt>
      <trkpt lat="43.44299" lon="3.6164">
        <ele>27.6</ele>
        <time>2025-06-17T10:11:58Z</time>
      </trkpt>
      <trkpt lat="43.44299" lon="3.61637">
        <ele>27.6</ele>
        <time>2025-06-17T10:11:59Z</time>
      </trkpt>
      <trkpt lat="43.44299" lon="3.61633">
        <ele>27.6</ele>
        <time>2025-06-17T10:12:00Z</time>
      </trkpt>
      <trkpt lat="43.44299" lon="3.6163">
        <ele>27.4</ele>
        <time>2025-06-17T10:12:01Z</time>
      </trkpt>
      <trkpt lat="43.44299" lon="3.61625">
        <ele>27.4</ele>
        <time>2025-06-17T10:12:02Z</time>
      </trkpt>
      <trkpt lat="43.44299" lon="3.6162">
        <ele>27.4</ele>
        <time>2025-06-17T10:12:03Z</time>
      </trkpt>
      <trkpt lat="43.44299" lon="3.61615">
        <ele>27.4</ele>
        <time>2025-06-17T10:12:04Z</time>
      </trkpt>
      <trkpt lat="43.44298" lon="3.61608">
        <ele>27.4</ele>
        <time>2025-06-17T10:12:05Z</time>
      </trkpt>
      <trkpt lat="43.44298" lon="3.61602">
        <ele>27.4</ele>
        <time>2025-06-17T10:12:06Z</time>
      </trkpt>
      <trkpt lat="43.44297" lon="3.61596">
        <ele>27.6</ele>
        <time>2025-06-17T10:12:07Z</time>
      </trkpt>
      <trkpt lat="43.44297" lon="3.6159">
        <ele>27.6</ele>
        <time>2025-06-17T10:12:08Z</time>
      </trkpt>
      <trkpt lat="43.44297" lon="3.61584">
        <ele>27.6</ele>
        <time>2025-06-17T10:12:09Z</time>
      </trkpt>
      <trkpt lat="43.44297" lon="3.61578">
        <ele>27.8</ele>
        <time>2025-06-17T10:12:10Z</time>
      </trkpt>
      <trkpt lat="43.44296" lon="3.61571">
        <ele>27.8</ele>
        <time>2025-06-17T10:12:11Z</time>
      </trkpt>
      <trkpt lat="43.44296" lon="3.61565">
        <ele>27.8</ele>
        <time>2025-06-17T10:12:12Z</time>
      </trkpt>
      <trkpt lat="43.44295" lon="3.61558">
        <ele>27.8</ele>
        <time>2025-06-17T10:12:13Z</time>
      </trkpt>
      <trkpt lat="43.44295" lon="3.61552">
        <ele>28</ele>
        <time>2025-06-17T10:12:14Z</time>
      </trkpt>
      <trkpt lat="43.44294" lon="3.61545">
        <ele>28</ele>
        <time>2025-06-17T10:12:15Z</time>
      </trkpt>
      <trkpt lat="43.44294" lon="3.61538">
        <ele>28</ele>
        <time>2025-06-17T10:12:16Z</time>
      </trkpt>
      <trkpt lat="43.44293" lon="3.61532">
        <ele>28.2</ele>
        <time>2025-06-17T10:12:17Z</time>
      </trkpt>
      <trkpt lat="43.44292" lon="3.61526">
        <ele>28.2</ele>
        <time>2025-06-17T10:12:18Z</time>
      </trkpt>
      <trkpt lat="43.44291" lon="3.61519">
        <ele>28.2</ele>
        <time>2025-06-17T10:12:19Z</time>
      </trkpt>
      <trkpt lat="43.4429" lon="3.61512">
        <ele>28.4</ele>
        <time>2025-06-17T10:12:20Z</time>
      </trkpt>
      <trkpt lat="43.4429" lon="3.61506">
        <ele>28.4</ele>
        <time>2025-06-17T10:12:21Z</time>
      </trkpt>
      <trkpt lat="43.44289" lon="3.615">
        <ele>28.6</ele>
        <time>2025-06-17T10:12:22Z</time>
      </trkpt>
      <trkpt lat="43.44289" lon="3.61493">
        <ele>28.8</ele>
        <time>2025-06-17T10:12:23Z</time>
      </trkpt>
      <trkpt lat="43.44288" lon="3.61487">
        <ele>28.8</ele>
        <time>2025-06-17T10:12:24Z</time>
      </trkpt>
      <trkpt lat="43.44287" lon="3.6148">
        <ele>29</ele>
        <time>2025-06-17T10:12:25Z</time>
      </trkpt>
      <trkpt lat="43.44287" lon="3.61474">
        <ele>29</ele>
        <time>2025-06-17T10:12:26Z</time>
      </trkpt>
      <trkpt lat="43.44287" lon="3.61467">
        <ele>29.2</ele>
        <time>2025-06-17T10:12:27Z</time>
      </trkpt>
      <trkpt lat="43.44286" lon="3.61461">
        <ele>29.2</ele>
        <time>2025-06-17T10:12:28Z</time>
      </trkpt>
      <trkpt lat="43.44286" lon="3.61454">
        <ele>29.2</ele>
        <time>2025-06-17T10:12:29Z</time>
      </trkpt>
      <trkpt lat="43.44285" lon="3.6145">
        <ele>29.2</ele>
        <time>2025-06-17T10:12:30Z</time>
      </trkpt>
      <trkpt lat="43.44285" lon="3.61442">
        <ele>29.4</ele>
        <time>2025-06-17T10:12:31Z</time>
      </trkpt>
      <trkpt lat="43.44284" lon="3.61436">
        <ele>29.4</ele>
        <time>2025-06-17T10:12:32Z</time>
      </trkpt>
      <trkpt lat="43.44284" lon="3.6143">
        <ele>29.4</ele>
        <time>2025-06-17T10:12:33Z</time>
      </trkpt>
      <trkpt lat="43.44283" lon="3.61424">
        <ele>29.6</ele>
        <time>2025-06-17T10:12:34Z</time>
      </trkpt>
      <trkpt lat="43.44283" lon="3.61417">
        <ele>29.8</ele>
        <time>2025-06-17T10:12:35Z</time>
      </trkpt>
      <trkpt lat="43.44283" lon="3.61411">
        <ele>29.8</ele>
        <time>2025-06-17T10:12:36Z</time>
      </trkpt>
      <trkpt lat="43.44282" lon="3.61405">
        <ele>30</ele>
        <time>2025-06-17T10:12:37Z</time>
      </trkpt>
      <trkpt lat="43.44282" lon="3.61398">
        <ele>30</ele>
        <time>2025-06-17T10:12:38Z</time>
      </trkpt>
      <trkpt lat="43.44281" lon="3.61393">
        <ele>30.2</ele>
        <time>2025-06-17T10:12:39Z</time>
      </trkpt>
      <trkpt lat="43.4428" lon="3.61388">
        <ele>30.2</ele>
        <time>2025-06-17T10:12:40Z</time>
      </trkpt>
      <trkpt lat="43.44279" lon="3.61381">
        <ele>30.4</ele>
        <time>2025-06-17T10:12:41Z</time>
      </trkpt>
      <trkpt lat="43.44279" lon="3.61375">
        <ele>30.4</ele>
        <time>2025-06-17T10:12:42Z</time>
      </trkpt>
      <trkpt lat="43.44279" lon="3.61368">
        <ele>30.4</ele>
        <time>2025-06-17T10:12:43Z</time>
      </trkpt>
      <trkpt lat="43.44279" lon="3.61363">
        <ele>30.6</ele>
        <time>2025-06-17T10:12:44Z</time>
      </trkpt>
      <trkpt lat="43.44278" lon="3.61355">
        <ele>30.6</ele>
        <time>2025-06-17T10:12:45Z</time>
      </trkpt>
      <trkpt lat="43.44277" lon="3.61349">
        <ele>30.8</ele>
        <time>2025-06-17T10:12:46Z</time>
      </trkpt>
      <trkpt lat="43.44277" lon="3.61343">
        <ele>30.8</ele>
        <time>2025-06-17T10:12:47Z</time>
      </trkpt>
      <trkpt lat="43.44276" lon="3.61338">
        <ele>31</ele>
        <time>2025-06-17T10:12:48Z</time>
      </trkpt>
      <trkpt lat="43.44276" lon="3.61332">
        <ele>31</ele>
        <time>2025-06-17T10:12:49Z</time>
      </trkpt>
      <trkpt lat="43.44276" lon="3.61325">
        <ele>31.2</ele>
        <time>2025-06-17T10:12:50Z</time>
      </trkpt>
      <trkpt lat="43.44276" lon="3.61319">
        <ele>31.2</ele>
        <time>2025-06-17T10:12:51Z</time>
      </trkpt>
      <trkpt lat="43.44275" lon="3.61313">
        <ele>31.4</ele>
        <time>2025-06-17T10:12:52Z</time>
      </trkpt>
      <trkpt lat="43.44275" lon="3.61307">
        <ele>31.4</ele>
        <time>2025-06-17T10:12:53Z</time>
      </trkpt>
      <trkpt lat="43.44274" lon="3.61301">
        <ele>31.6</ele>
        <time>2025-06-17T10:12:54Z</time>
      </trkpt>
      <trkpt lat="43.44273" lon="3.61295">
        <ele>31.8</ele>
        <time>2025-06-17T10:12:55Z</time>
      </trkpt>
      <trkpt lat="43.44273" lon="3.6129">
        <ele>31.8</ele>
        <time>2025-06-17T10:12:56Z</time>
      </trkpt>
      <trkpt lat="43.44272" lon="3.61282">
        <ele>32</ele>
        <time>2025-06-17T10:12:57Z</time>
      </trkpt>
      <trkpt lat="43.44271" lon="3.61276">
        <ele>32</ele>
        <time>2025-06-17T10:12:58Z</time>
      </trkpt>
      <trkpt lat="43.44271" lon="3.6127">
        <ele>32.2</ele>
        <time>2025-06-17T10:12:59Z</time>
      </trkpt>
      <trkpt lat="43.4427" lon="3.61264">
        <ele>32.2</ele>
        <time>2025-06-17T10:13:00Z</time>
      </trkpt>
      <trkpt lat="43.44269" lon="3.61257">
        <ele>32.4</ele>
        <time>2025-06-17T10:13:01Z</time>
      </trkpt>
      <trkpt lat="43.44268" lon="3.61251">
        <ele>32.4</ele>
        <time>2025-06-17T10:13:02Z</time>
      </trkpt>
      <trkpt lat="43.44267" lon="3.61245">
        <ele>32.6</ele>
        <time>2025-06-17T10:13:03Z</time>
      </trkpt>
      <trkpt lat="43.44265" lon="3.61239">
        <ele>32.6</ele>
        <time>2025-06-17T10:13:04Z</time>
      </trkpt>
      <trkpt lat="43.44264" lon="3.61232">
        <ele>32.8</ele>
        <time>2025-06-17T10:13:05Z</time>
      </trkpt>
      <trkpt lat="43.44262" lon="3.61227">
        <ele>32.8</ele>
        <time>2025-06-17T10:13:06Z</time>
      </trkpt>
      <trkpt lat="43.44261" lon="3.61221">
        <ele>32.8</ele>
        <time>2025-06-17T10:13:07Z</time>
      </trkpt>
      <trkpt lat="43.44259" lon="3.61215">
        <ele>33</ele>
        <time>2025-06-17T10:13:08Z</time>
      </trkpt>
      <trkpt lat="43.44258" lon="3.61209">
        <ele>33</ele>
        <time>2025-06-17T10:13:09Z</time>
      </trkpt>
      <trkpt lat="43.44256" lon="3.61202">
        <ele>33.2</ele>
        <time>2025-06-17T10:13:10Z</time>
      </trkpt>
      <trkpt lat="43.44254" lon="3.61197">
        <ele>33.2</ele>
        <time>2025-06-17T10:13:11Z</time>
      </trkpt>
      <trkpt lat="43.44252" lon="3.61192">
        <ele>33.4</ele>
        <time>2025-06-17T10:13:12Z</time>
      </trkpt>
      <trkpt lat="43.4425" lon="3.61186">
        <ele>33.4</ele>
        <time>2025-06-17T10:13:13Z</time>
      </trkpt>
      <trkpt lat="43.44248" lon="3.6118">
        <ele>33.6</ele>
        <time>2025-06-17T10:13:14Z</time>
      </trkpt>
      <trkpt lat="43.44246" lon="3.61174">
        <ele>33.6</ele>
        <time>2025-06-17T10:13:15Z</time>
      </trkpt>
      <trkpt lat="43.44244" lon="3.61169">
        <ele>33.6</ele>
        <time>2025-06-17T10:13:16Z</time>
      </trkpt>
      <trkpt lat="43.44241" lon="3.61163">
        <ele>33.8</ele>
        <time>2025-06-17T10:13:17Z</time>
      </trkpt>
      <trkpt lat="43.44239" lon="3.61158">
        <ele>33.8</ele>
        <time>2025-06-17T10:13:18Z</time>
      </trkpt>
      <trkpt lat="43.44237" lon="3.61152">
        <ele>34</ele>
        <time>2025-06-17T10:13:19Z</time>
      </trkpt>
      <trkpt lat="43.44235" lon="3.61147">
        <ele>34</ele>
        <time>2025-06-17T10:13:20Z</time>
      </trkpt>
      <trkpt lat="43.44234" lon="3.61142">
        <ele>34</ele>
        <time>2025-06-17T10:13:21Z</time>
      </trkpt>
      <trkpt lat="43.44232" lon="3.61136">
        <ele>34</ele>
        <time>2025-06-17T10:13:22Z</time>
      </trkpt>
      <trkpt lat="43.4423" lon="3.61131">
        <ele>34</ele>
        <time>2025-06-17T10:13:23Z</time>
      </trkpt>
      <trkpt lat="43.44227" lon="3.61125">
        <ele>34.2</ele>
        <time>2025-06-17T10:13:24Z</time>
      </trkpt>
      <trkpt lat="43.44224" lon="3.6112">
        <ele>34.2</ele>
        <time>2025-06-17T10:13:25Z</time>
      </trkpt>
      <trkpt lat="43.4422" lon="3.61114">
        <ele>34.2</ele>
        <time>2025-06-17T10:13:26Z</time>
      </trkpt>
      <trkpt lat="43.44217" lon="3.61109">
        <ele>34.2</ele>
        <time>2025-06-17T10:13:27Z</time>
      </trkpt>
      <trkpt lat="43.44214" lon="3.61103">
        <ele>34.2</ele>
        <time>2025-06-17T10:13:28Z</time>
      </trkpt>
      <trkpt lat="43.4421" lon="3.61098">
        <ele>34.2</ele>
        <time>2025-06-17T10:13:29Z</time>
      </trkpt>
      <trkpt lat="43.44206" lon="3.61092">
        <ele>34.2</ele>
        <time>2025-06-17T10:13:30Z</time>
      </trkpt>
      <trkpt lat="43.44203" lon="3.61087">
        <ele>34.2</ele>
        <time>2025-06-17T10:13:31Z</time>
      </trkpt>
      <trkpt lat="43.44199" lon="3.61082">
        <ele>34.2</ele>
        <time>2025-06-17T10:13:32Z</time>
      </trkpt>
      <trkpt lat="43.44195" lon="3.61076">
        <ele>34.2</ele>
        <time>2025-06-17T10:13:33Z</time>
      </trkpt>
      <trkpt lat="43.44191" lon="3.61071">
        <ele>34.2</ele>
        <time>2025-06-17T10:13:34Z</time>
      </trkpt>
      <trkpt lat="43.44186" lon="3.61066">
        <ele>34</ele>
        <time>2025-06-17T10:13:35Z</time>
      </trkpt>
      <trkpt lat="43.44182" lon="3.61061">
        <ele>34</ele>
        <time>2025-06-17T10:13:36Z</time>
      </trkpt>
      <trkpt lat="43.44177" lon="3.61056">
        <ele>34</ele>
        <time>2025-06-17T10:13:37Z</time>
      </trkpt>
      <trkpt lat="43.44172" lon="3.61051">
        <ele>34</ele>
        <time>2025-06-17T10:13:38Z</time>
      </trkpt>
      <trkpt lat="43.44167" lon="3.61046">
        <ele>33.8</ele>
        <time>2025-06-17T10:13:39Z</time>
      </trkpt>
      <trkpt lat="43.44162" lon="3.6104">
        <ele>33.8</ele>
        <time>2025-06-17T10:13:40Z</time>
      </trkpt>
      <trkpt lat="43.44157" lon="3.61035">
        <ele>33.6</ele>
        <time>2025-06-17T10:13:41Z</time>
      </trkpt>
      <trkpt lat="43.44151" lon="3.6103">
        <ele>33.6</ele>
        <time>2025-06-17T10:13:42Z</time>
      </trkpt>
      <trkpt lat="43.44146" lon="3.61025">
        <ele>33.4</ele>
        <time>2025-06-17T10:13:43Z</time>
      </trkpt>
      <trkpt lat="43.44139" lon="3.61021">
        <ele>33.4</ele>
        <time>2025-06-17T10:13:44Z</time>
      </trkpt>
      <trkpt lat="43.44133" lon="3.61016">
        <ele>33.2</ele>
        <time>2025-06-17T10:13:45Z</time>
      </trkpt>
      <trkpt lat="43.44126" lon="3.61012">
        <ele>33</ele>
        <time>2025-06-17T10:13:46Z</time>
      </trkpt>
      <trkpt lat="43.44121" lon="3.61009">
        <ele>32.8</ele>
        <time>2025-06-17T10:13:47Z</time>
      </trkpt>
      <trkpt lat="43.44114" lon="3.61004">
        <ele>32.6</ele>
        <time>2025-06-17T10:13:48Z</time>
      </trkpt>
      <trkpt lat="43.44106" lon="3.60999">
        <ele>32.4</ele>
        <time>2025-06-17T10:13:49Z</time>
      </trkpt>
      <trkpt lat="43.441" lon="3.60996">
        <ele>32.2</ele>
        <time>2025-06-17T10:13:50Z</time>
      </trkpt>
      <trkpt lat="43.44093" lon="3.60992">
        <ele>32</ele>
        <time>2025-06-17T10:13:51Z</time>
      </trkpt>
      <trkpt lat="43.44086" lon="3.60989">
        <ele>31.6</ele>
        <time>2025-06-17T10:13:52Z</time>
      </trkpt>
      <trkpt lat="43.44078" lon="3.60986">
        <ele>31.4</ele>
        <time>2025-06-17T10:13:53Z</time>
      </trkpt>
      <trkpt lat="43.4407" lon="3.60984">
        <ele>31.2</ele>
        <time>2025-06-17T10:13:54Z</time>
      </trkpt>
      <trkpt lat="43.44063" lon="3.60981">
        <ele>31</ele>
        <time>2025-06-17T10:13:55Z</time>
      </trkpt>
      <trkpt lat="43.44055" lon="3.60979">
        <ele>30.8</ele>
        <time>2025-06-17T10:13:56Z</time>
      </trkpt>
      <trkpt lat="43.44048" lon="3.60978">
        <ele>30.6</ele>
        <time>2025-06-17T10:13:57Z</time>
      </trkpt>
      <trkpt lat="43.4404" lon="3.60976">
        <ele>30.4</ele>
        <time>2025-06-17T10:13:58Z</time>
      </trkpt>
      <trkpt lat="43.44032" lon="3.60975">
        <ele>30.2</ele>
        <time>2025-06-17T10:13:59Z</time>
      </trkpt>
      <trkpt lat="43.44025" lon="3.60974">
        <ele>30</ele>
        <time>2025-06-17T10:14:00Z</time>
      </trkpt>
      <trkpt lat="43.44018" lon="3.60973">
        <ele>29.8</ele>
        <time>2025-06-17T10:14:01Z</time>
      </trkpt>
      <trkpt lat="43.44011" lon="3.60972">
        <ele>29.6</ele>
        <time>2025-06-17T10:14:02Z</time>
      </trkpt>
      <trkpt lat="43.44003" lon="3.60971">
        <ele>29.4</ele>
        <time>2025-06-17T10:14:03Z</time>
      </trkpt>
      <trkpt lat="43.43996" lon="3.6097">
        <ele>29.2</ele>
        <time>2025-06-17T10:14:04Z</time>
      </trkpt>
      <trkpt lat="43.43989" lon="3.60969">
        <ele>28.8</ele>
        <time>2025-06-17T10:14:05Z</time>
      </trkpt>
      <trkpt lat="43.43982" lon="3.60969">
        <ele>28.6</ele>
        <time>2025-06-17T10:14:06Z</time>
      </trkpt>
      <trkpt lat="43.43974" lon="3.60967">
        <ele>28.4</ele>
        <time>2025-06-17T10:14:07Z</time>
      </trkpt>
      <trkpt lat="43.43967" lon="3.60966">
        <ele>28.2</ele>
        <time>2025-06-17T10:14:08Z</time>
      </trkpt>
      <trkpt lat="43.4396" lon="3.60965">
        <ele>28</ele>
        <time>2025-06-17T10:14:09Z</time>
      </trkpt>
      <trkpt lat="43.43953" lon="3.60964">
        <ele>27.8</ele>
        <time>2025-06-17T10:14:10Z</time>
      </trkpt>
      <trkpt lat="43.43945" lon="3.60963">
        <ele>27.6</ele>
        <time>2025-06-17T10:14:11Z</time>
      </trkpt>
      <trkpt lat="43.43938" lon="3.60962">
        <ele>27.4</ele>
        <time>2025-06-17T10:14:12Z</time>
      </trkpt>
      <trkpt lat="43.43931" lon="3.60961">
        <ele>27.2</ele>
        <time>2025-06-17T10:14:13Z</time>
      </trkpt>
      <trkpt lat="43.43924" lon="3.6096">
        <ele>27</ele>
        <time>2025-06-17T10:14:14Z</time>
      </trkpt>
      <trkpt lat="43.43917" lon="3.60959">
        <ele>26.8</ele>
        <time>2025-06-17T10:14:15Z</time>
      </trkpt>
      <trkpt lat="43.4391" lon="3.60957">
        <ele>26.8</ele>
        <time>2025-06-17T10:14:16Z</time>
      </trkpt>
      <trkpt lat="43.43904" lon="3.60956">
        <ele>26.6</ele>
        <time>2025-06-17T10:14:17Z</time>
      </trkpt>
      <trkpt lat="43.43897" lon="3.60955">
        <ele>26.4</ele>
        <time>2025-06-17T10:14:18Z</time>
      </trkpt>
      <trkpt lat="43.4389" lon="3.60955">
        <ele>26.2</ele>
        <time>2025-06-17T10:14:19Z</time>
      </trkpt>
      <trkpt lat="43.43883" lon="3.60954">
        <ele>26</ele>
        <time>2025-06-17T10:14:20Z</time>
      </trkpt>
      <trkpt lat="43.43876" lon="3.60953">
        <ele>25.8</ele>
        <time>2025-06-17T10:14:21Z</time>
      </trkpt>
      <trkpt lat="43.4387" lon="3.60952">
        <ele>25.6</ele>
        <time>2025-06-17T10:14:22Z</time>
      </trkpt>
      <trkpt lat="43.43863" lon="3.60952">
        <ele>25.4</ele>
        <time>2025-06-17T10:14:23Z</time>
      </trkpt>
      <trkpt lat="43.43856" lon="3.60951">
        <ele>25</ele>
        <time>2025-06-17T10:14:24Z</time>
      </trkpt>
      <trkpt lat="43.4385" lon="3.6095">
        <ele>24.8</ele>
        <time>2025-06-17T10:14:25Z</time>
      </trkpt>
      <trkpt lat="43.43844" lon="3.60949">
        <ele>24.8</ele>
        <time>2025-06-17T10:14:26Z</time>
      </trkpt>
      <trkpt lat="43.43837" lon="3.60947">
        <ele>24.6</ele>
        <time>2025-06-17T10:14:27Z</time>
      </trkpt>
      <trkpt lat="43.4383" lon="3.60946">
        <ele>24.4</ele>
        <time>2025-06-17T10:14:28Z</time>
      </trkpt>
      <trkpt lat="43.43823" lon="3.60946">
        <ele>24.4</ele>
        <time>2025-06-17T10:14:29Z</time>
      </trkpt>
      <trkpt lat="43.43817" lon="3.60945">
        <ele>24.2</ele>
        <time>2025-06-17T10:14:30Z</time>
      </trkpt>
      <trkpt lat="43.43811" lon="3.60945">
        <ele>24</ele>
        <time>2025-06-17T10:14:31Z</time>
      </trkpt>
      <trkpt lat="43.43804" lon="3.60944">
        <ele>24</ele>
        <time>2025-06-17T10:14:32Z</time>
      </trkpt>
      <trkpt lat="43.43798" lon="3.60942">
        <ele>24</ele>
        <time>2025-06-17T10:14:33Z</time>
      </trkpt>
      <trkpt lat="43.43792" lon="3.60942">
        <ele>23.8</ele>
        <time>2025-06-17T10:14:34Z</time>
      </trkpt>
      <trkpt lat="43.43785" lon="3.60941">
        <ele>23.8</ele>
        <time>2025-06-17T10:14:35Z</time>
      </trkpt>
      <trkpt lat="43.43779" lon="3.6094">
        <ele>23.8</ele>
        <time>2025-06-17T10:14:36Z</time>
      </trkpt>
      <trkpt lat="43.43772" lon="3.60939">
        <ele>23.8</ele>
        <time>2025-06-17T10:14:37Z</time>
      </trkpt>
      <trkpt lat="43.43766" lon="3.60938">
        <ele>23.6</ele>
        <time>2025-06-17T10:14:38Z</time>
      </trkpt>
      <trkpt lat="43.43759" lon="3.60937">
        <ele>23.6</ele>
        <time>2025-06-17T10:14:39Z</time>
      </trkpt>
      <trkpt lat="43.43752" lon="3.60936">
        <ele>23.4</ele>
        <time>2025-06-17T10:14:40Z</time>
      </trkpt>
      <trkpt lat="43.43745" lon="3.60935">
        <ele>23.4</ele>
        <time>2025-06-17T10:14:41Z</time>
      </trkpt>
      <trkpt lat="43.43738" lon="3.60934">
        <ele>23.4</ele>
        <time>2025-06-17T10:14:42Z</time>
      </trkpt>
      <trkpt lat="43.43732" lon="3.60933">
        <ele>23.2</ele>
        <time>2025-06-17T10:14:43Z</time>
      </trkpt>
      <trkpt lat="43.43724" lon="3.60932">
        <ele>23.2</ele>
        <time>2025-06-17T10:14:44Z</time>
      </trkpt>
      <trkpt lat="43.43717" lon="3.60931">
        <ele>23.2</ele>
        <time>2025-06-17T10:14:45Z</time>
      </trkpt>
      <trkpt lat="43.4371" lon="3.6093">
        <ele>23</ele>
        <time>2025-06-17T10:14:46Z</time>
      </trkpt>
      <trkpt lat="43.43703" lon="3.6093">
        <ele>23</ele>
        <time>2025-06-17T10:14:47Z</time>
      </trkpt>
      <trkpt lat="43.43696" lon="3.60929">
        <ele>23</ele>
        <time>2025-06-17T10:14:48Z</time>
      </trkpt>
      <trkpt lat="43.43689" lon="3.60928">
        <ele>22.8</ele>
        <time>2025-06-17T10:14:49Z</time>
      </trkpt>
      <trkpt lat="43.43682" lon="3.60927">
        <ele>22.8</ele>
        <time>2025-06-17T10:14:50Z</time>
      </trkpt>
      <trkpt lat="43.43675" lon="3.60925">
        <ele>22.8</ele>
        <time>2025-06-17T10:14:51Z</time>
      </trkpt>
      <trkpt lat="43.43668" lon="3.60924">
        <ele>22.8</ele>
        <time>2025-06-17T10:14:52Z</time>
      </trkpt>
      <trkpt lat="43.43661" lon="3.60923">
        <ele>22.8</ele>
        <time>2025-06-17T10:14:53Z</time>
      </trkpt>
      <trkpt lat="43.43654" lon="3.6092">
        <ele>22.8</ele>
        <time>2025-06-17T10:14:54Z</time>
      </trkpt>
      <trkpt lat="43.43647" lon="3.60918">
        <ele>22.8</ele>
        <time>2025-06-17T10:14:55Z</time>
      </trkpt>
      <trkpt lat="43.4364" lon="3.60916">
        <ele>22.8</ele>
        <time>2025-06-17T10:14:56Z</time>
      </trkpt>
      <trkpt lat="43.43633" lon="3.60914">
        <ele>22.8</ele>
        <time>2025-06-17T10:14:57Z</time>
      </trkpt>
      <trkpt lat="43.43626" lon="3.60912">
        <ele>22.8</ele>
        <time>2025-06-17T10:14:58Z</time>
      </trkpt>
      <trkpt lat="43.43619" lon="3.60909">
        <ele>22.8</ele>
        <time>2025-06-17T10:14:59Z</time>
      </trkpt>
      <trkpt lat="43.43613" lon="3.60907">
        <ele>22.6</ele>
        <time>2025-06-17T10:15:00Z</time>
      </trkpt>
      <trkpt lat="43.43606" lon="3.60904">
        <ele>22.6</ele>
        <time>2025-06-17T10:15:01Z</time>
      </trkpt>
      <trkpt lat="43.43599" lon="3.60901">
        <ele>22.6</ele>
        <time>2025-06-17T10:15:02Z</time>
      </trkpt>
      <trkpt lat="43.43592" lon="3.60898">
        <ele>22.6</ele>
        <time>2025-06-17T10:15:03Z</time>
      </trkpt>
      <trkpt lat="43.43586" lon="3.60895">
        <ele>22.6</ele>
        <time>2025-06-17T10:15:04Z</time>
      </trkpt>
      <trkpt lat="43.43579" lon="3.60892">
        <ele>22.6</ele>
        <time>2025-06-17T10:15:05Z</time>
      </trkpt>
      <trkpt lat="43.43573" lon="3.60889">
        <ele>22.4</ele>
        <time>2025-06-17T10:15:06Z</time>
      </trkpt>
      <trkpt lat="43.43567" lon="3.60885">
        <ele>22.4</ele>
        <time>2025-06-17T10:15:07Z</time>
      </trkpt>
      <trkpt lat="43.43561" lon="3.60881">
        <ele>22.2</ele>
        <time>2025-06-17T10:15:08Z</time>
      </trkpt>
      <trkpt lat="43.43554" lon="3.60877">
        <ele>21.8</ele>
        <time>2025-06-17T10:15:09Z</time>
      </trkpt>
      <trkpt lat="43.43548" lon="3.60872">
        <ele>21.6</ele>
        <time>2025-06-17T10:15:10Z</time>
      </trkpt>
      <trkpt lat="43.43542" lon="3.60866">
        <ele>21.4</ele>
        <time>2025-06-17T10:15:11Z</time>
      </trkpt>
      <trkpt lat="43.43537" lon="3.60859">
        <ele>21</ele>
        <time>2025-06-17T10:15:12Z</time>
      </trkpt>
      <trkpt lat="43.4353" lon="3.60853">
        <ele>20.8</ele>
        <time>2025-06-17T10:15:13Z</time>
      </trkpt>
      <trkpt lat="43.43524" lon="3.60848">
        <ele>20.4</ele>
        <time>2025-06-17T10:15:14Z</time>
      </trkpt>
      <trkpt lat="43.43517" lon="3.60841">
        <ele>20</ele>
        <time>2025-06-17T10:15:15Z</time>
      </trkpt>
      <trkpt lat="43.43511" lon="3.60835">
        <ele>19.6</ele>
        <time>2025-06-17T10:15:16Z</time>
      </trkpt>
      <trkpt lat="43.43504" lon="3.60829">
        <ele>19.4</ele>
        <time>2025-06-17T10:15:17Z</time>
      </trkpt>
      <trkpt lat="43.43498" lon="3.60823">
        <ele>19.2</ele>
        <time>2025-06-17T10:15:18Z</time>
      </trkpt>
      <trkpt lat="43.43491" lon="3.60817">
        <ele>19.2</ele>
        <time>2025-06-17T10:15:19Z</time>
      </trkpt>
      <trkpt lat="43.43486" lon="3.60812">
        <ele>19</ele>
        <time>2025-06-17T10:15:20Z</time>
      </trkpt>
      <trkpt lat="43.4348" lon="3.60806">
        <ele>19</ele>
        <time>2025-06-17T10:15:21Z</time>
      </trkpt>
      <trkpt lat="43.43475" lon="3.608">
        <ele>19.2</ele>
        <time>2025-06-17T10:15:22Z</time>
      </trkpt>
      <trkpt lat="43.43472" lon="3.60795">
        <ele>19.4</ele>
        <time>2025-06-17T10:15:23Z</time>
      </trkpt>
      <trkpt lat="43.43468" lon="3.60789">
        <ele>19.8</ele>
        <time>2025-06-17T10:15:24Z</time>
      </trkpt>
      <trkpt lat="43.43466" lon="3.60783">
        <ele>20</ele>
        <time>2025-06-17T10:15:25Z</time>
      </trkpt>
      <trkpt lat="43.43463" lon="3.60777">
        <ele>20.2</ele>
        <time>2025-06-17T10:15:26Z</time>
      </trkpt>
      <trkpt lat="43.43459" lon="3.60771">
        <ele>20.2</ele>
        <time>2025-06-17T10:15:27Z</time>
      </trkpt>
      <trkpt lat="43.43455" lon="3.60765">
        <ele>20.2</ele>
        <time>2025-06-17T10:15:28Z</time>
      </trkpt>
      <trkpt lat="43.43451" lon="3.60759">
        <ele>20</ele>
        <time>2025-06-17T10:15:29Z</time>
      </trkpt>
      <trkpt lat="43.43446" lon="3.60753">
        <ele>19.8</ele>
        <time>2025-06-17T10:15:30Z</time>
      </trkpt>
      <trkpt lat="43.4344" lon="3.60746">
        <ele>19.4</ele>
        <time>2025-06-17T10:15:31Z</time>
      </trkpt>
      <trkpt lat="43.43435" lon="3.60739">
        <ele>19.2</ele>
        <time>2025-06-17T10:15:32Z</time>
      </trkpt>
      <trkpt lat="43.43429" lon="3.60732">
        <ele>19.2</ele>
        <time>2025-06-17T10:15:33Z</time>
      </trkpt>
      <trkpt lat="43.43425" lon="3.60726">
        <ele>19</ele>
        <time>2025-06-17T10:15:34Z</time>
      </trkpt>
      <trkpt lat="43.43419" lon="3.6072">
        <ele>19</ele>
        <time>2025-06-17T10:15:35Z</time>
      </trkpt>
      <trkpt lat="43.43415" lon="3.60715">
        <ele>19.2</ele>
        <time>2025-06-17T10:15:36Z</time>
      </trkpt>
      <trkpt lat="43.43411" lon="3.60711">
        <ele>19.4</ele>
        <time>2025-06-17T10:15:37Z</time>
      </trkpt>
      <trkpt lat="43.43408" lon="3.60706">
        <ele>19.6</ele>
        <time>2025-06-17T10:15:38Z</time>
      </trkpt>
      <trkpt lat="43.43405" lon="3.60701">
        <ele>19.8</ele>
        <time>2025-06-17T10:15:39Z</time>
      </trkpt>
      <trkpt lat="43.43402" lon="3.60697">
        <ele>20</ele>
        <time>2025-06-17T10:15:40Z</time>
      </trkpt>
      <trkpt lat="43.43399" lon="3.60694">
        <ele>20.2</ele>
        <time>2025-06-17T10:15:41Z</time>
      </trkpt>
      <trkpt lat="43.43396" lon="3.60691">
        <ele>20.4</ele>
        <time>2025-06-17T10:15:42Z</time>
      </trkpt>
      <trkpt lat="43.43393" lon="3.60687">
        <ele>20.6</ele>
        <time>2025-06-17T10:15:43Z</time>
      </trkpt>
      <trkpt lat="43.43391" lon="3.60684">
        <ele>21</ele>
        <time>2025-06-17T10:15:44Z</time>
      </trkpt>
      <trkpt lat="43.43389" lon="3.60681">
        <ele>21.2</ele>
        <time>2025-06-17T10:15:45Z</time>
      </trkpt>
      <trkpt lat="43.43387" lon="3.60678">
        <ele>21.4</ele>
        <time>2025-06-17T10:15:46Z</time>
      </trkpt>
      <trkpt lat="43.43385" lon="3.60674">
        <ele>21.6</ele>
        <time>2025-06-17T10:15:47Z</time>
      </trkpt>
      <trkpt lat="43.43383" lon="3.60671">
        <ele>21.8</ele>
        <time>2025-06-17T10:15:48Z</time>
      </trkpt>
      <trkpt lat="43.43381" lon="3.60668">
        <ele>22</ele>
        <time>2025-06-17T10:15:49Z</time>
      </trkpt>
      <trkpt lat="43.43379" lon="3.60665">
        <ele>22.2</ele>
        <time>2025-06-17T10:15:50Z</time>
      </trkpt>
      <trkpt lat="43.43376" lon="3.60662">
        <ele>22.4</ele>
        <time>2025-06-17T10:15:51Z</time>
      </trkpt>
      <trkpt lat="43.43374" lon="3.60659">
        <ele>22.6</ele>
        <time>2025-06-17T10:15:52Z</time>
      </trkpt>
      <trkpt lat="43.43372" lon="3.60655">
        <ele>22.6</ele>
        <time>2025-06-17T10:15:53Z</time>
      </trkpt>
      <trkpt lat="43.43369" lon="3.60652">
        <ele>22.8</ele>
        <time>2025-06-17T10:15:54Z</time>
      </trkpt>
      <trkpt lat="43.43367" lon="3.60649">
        <ele>22.8</ele>
        <time>2025-06-17T10:15:55Z</time>
      </trkpt>
      <trkpt lat="43.43364" lon="3.60645">
        <ele>23</ele>
        <time>2025-06-17T10:15:56Z</time>
      </trkpt>
      <trkpt lat="43.43361" lon="3.60641">
        <ele>23</ele>
        <time>2025-06-17T10:15:57Z</time>
      </trkpt>
      <trkpt lat="43.43358" lon="3.60637">
        <ele>23</ele>
        <time>2025-06-17T10:15:58Z</time>
      </trkpt>
      <trkpt lat="43.43355" lon="3.60633">
        <ele>23</ele>
        <time>2025-06-17T10:15:59Z</time>
      </trkpt>
      <trkpt lat="43.43351" lon="3.60629">
        <ele>23</ele>
        <time>2025-06-17T10:16:00Z</time>
      </trkpt>
      <trkpt lat="43.43348" lon="3.60625">
        <ele>23</ele>
        <time>2025-06-17T10:16:01Z</time>
      </trkpt>
      <trkpt lat="43.43344" lon="3.6062">
        <ele>23</ele>
        <time>2025-06-17T10:16:02Z</time>
      </trkpt>
      <trkpt lat="43.43341" lon="3.60616">
        <ele>23.2</ele>
        <time>2025-06-17T10:16:03Z</time>
      </trkpt>
      <trkpt lat="43.43338" lon="3.60611">
        <ele>23.2</ele>
        <time>2025-06-17T10:16:04Z</time>
      </trkpt>
      <trkpt lat="43.43334" lon="3.60607">
        <ele>23.2</ele>
        <time>2025-06-17T10:16:05Z</time>
      </trkpt>
      <trkpt lat="43.43331" lon="3.60602">
        <ele>23.2</ele>
        <time>2025-06-17T10:16:06Z</time>
      </trkpt>
      <trkpt lat="43.43327" lon="3.60597">
        <ele>23.2</ele>
        <time>2025-06-17T10:16:07Z</time>
      </trkpt>
      <trkpt lat="43.43324" lon="3.60592">
        <ele>23.4</ele>
        <time>2025-06-17T10:16:08Z</time>
      </trkpt>
      <trkpt lat="43.43321" lon="3.60588">
        <ele>23.4</ele>
        <time>2025-06-17T10:16:09Z</time>
      </trkpt>
      <trkpt lat="43.43318" lon="3.60583">
        <ele>23.4</ele>
        <time>2025-06-17T10:16:10Z</time>
      </trkpt>
      <trkpt lat="43.43314" lon="3.60578">
        <ele>23.4</ele>
        <time>2025-06-17T10:16:11Z</time>
      </trkpt>
      <trkpt lat="43.43311" lon="3.60574">
        <ele>23.6</ele>
        <time>2025-06-17T10:16:12Z</time>
      </trkpt>
      <trkpt lat="43.43307" lon="3.60569">
        <ele>23.6</ele>
        <time>2025-06-17T10:16:13Z</time>
      </trkpt>
      <trkpt lat="43.43304" lon="3.60564">
        <ele>23.6</ele>
        <time>2025-06-17T10:16:14Z</time>
      </trkpt>
      <trkpt lat="43.433" lon="3.6056">
        <ele>23.6</ele>
        <time>2025-06-17T10:16:15Z</time>
      </trkpt>
      <trkpt lat="43.43296" lon="3.60555">
        <ele>23.6</ele>
        <time>2025-06-17T10:16:16Z</time>
      </trkpt>
      <trkpt lat="43.43292" lon="3.60551">
        <ele>23.8</ele>
        <time>2025-06-17T10:16:17Z</time>
      </trkpt>
      <trkpt lat="43.43289" lon="3.60546">
        <ele>23.8</ele>
        <time>2025-06-17T10:16:18Z</time>
      </trkpt>
      <trkpt lat="43.43285" lon="3.60542">
        <ele>23.8</ele>
        <time>2025-06-17T10:16:19Z</time>
      </trkpt>
      <trkpt lat="43.43282" lon="3.60538">
        <ele>23.8</ele>
        <time>2025-06-17T10:16:20Z</time>
      </trkpt>
      <trkpt lat="43.43279" lon="3.60534">
        <ele>24</ele>
        <time>2025-06-17T10:16:21Z</time>
      </trkpt>
      <trkpt lat="43.43276" lon="3.60529">
        <ele>24</ele>
        <time>2025-06-17T10:16:22Z</time>
      </trkpt>
      <trkpt lat="43.43272" lon="3.60525">
        <ele>24</ele>
        <time>2025-06-17T10:16:23Z</time>
      </trkpt>
      <trkpt lat="43.43268" lon="3.6052">
        <ele>24</ele>
        <time>2025-06-17T10:16:24Z</time>
      </trkpt>
      <trkpt lat="43.43265" lon="3.60516">
        <ele>24</ele>
        <time>2025-06-17T10:16:25Z</time>
      </trkpt>
      <trkpt lat="43.43261" lon="3.60511">
        <ele>24.2</ele>
        <time>2025-06-17T10:16:26Z</time>
      </trkpt>
      <trkpt lat="43.43258" lon="3.60506">
        <ele>24.2</ele>
        <time>2025-06-17T10:16:27Z</time>
      </trkpt>
      <trkpt lat="43.43255" lon="3.60501">
        <ele>24.2</ele>
        <time>2025-06-17T10:16:28Z</time>
      </trkpt>
      <trkpt lat="43.43251" lon="3.60496">
        <ele>24.2</ele>
        <time>2025-06-17T10:16:29Z</time>
      </trkpt>
      <trkpt lat="43.43248" lon="3.60491">
        <ele>24.2</ele>
        <time>2025-06-17T10:16:30Z</time>
      </trkpt>
      <trkpt lat="43.43244" lon="3.60486">
        <ele>24.2</ele>
        <time>2025-06-17T10:16:31Z</time>
      </trkpt>
      <trkpt lat="43.4324" lon="3.60481">
        <ele>24.4</ele>
        <time>2025-06-17T10:16:32Z</time>
      </trkpt>
      <trkpt lat="43.43237" lon="3.60477">
        <ele>24.4</ele>
        <time>2025-06-17T10:16:33Z</time>
      </trkpt>
      <trkpt lat="43.43234" lon="3.60472">
        <ele>24.4</ele>
        <time>2025-06-17T10:16:34Z</time>
      </trkpt>
      <trkpt lat="43.4323" lon="3.60468">
        <ele>24.4</ele>
        <time>2025-06-17T10:16:35Z</time>
      </trkpt>
      <trkpt lat="43.43226" lon="3.60463">
        <ele>24.4</ele>
        <time>2025-06-17T10:16:36Z</time>
      </trkpt>
      <trkpt lat="43.43222" lon="3.60458">
        <ele>24.4</ele>
        <time>2025-06-17T10:16:37Z</time>
      </trkpt>
      <trkpt lat="43.43219" lon="3.60453">
        <ele>24.4</ele>
        <time>2025-06-17T10:16:38Z</time>
      </trkpt>
      <trkpt lat="43.43215" lon="3.60448">
        <ele>24.4</ele>
        <time>2025-06-17T10:16:39Z</time>
      </trkpt>
      <trkpt lat="43.43211" lon="3.60443">
        <ele>24.4</ele>
        <time>2025-06-17T10:16:40Z</time>
      </trkpt>
      <trkpt lat="43.43208" lon="3.60439">
        <ele>24.6</ele>
        <time>2025-06-17T10:16:41Z</time>
      </trkpt>
      <trkpt lat="43.43204" lon="3.60434">
        <ele>24.6</ele>
        <time>2025-06-17T10:16:42Z</time>
      </trkpt>
      <trkpt lat="43.432" lon="3.60429">
        <ele>24.6</ele>
        <time>2025-06-17T10:16:43Z</time>
      </trkpt>
      <trkpt lat="43.43197" lon="3.60424">
        <ele>24.6</ele>
        <time>2025-06-17T10:16:44Z</time>
      </trkpt>
      <trkpt lat="43.43194" lon="3.6042">
        <ele>24.6</ele>
        <time>2025-06-17T10:16:45Z</time>
      </trkpt>
      <trkpt lat="43.43191" lon="3.60415">
        <ele>24.6</ele>
        <time>2025-06-17T10:16:46Z</time>
      </trkpt>
      <trkpt lat="43.43188" lon="3.60411">
        <ele>24.8</ele>
        <time>2025-06-17T10:16:47Z</time>
      </trkpt>
      <trkpt lat="43.43185" lon="3.60407">
        <ele>24.6</ele>
        <time>2025-06-17T10:16:48Z</time>
      </trkpt>
      <trkpt lat="43.43182" lon="3.60404">
        <ele>24.8</ele>
        <time>2025-06-17T10:16:49Z</time>
      </trkpt>
      <trkpt lat="43.43178" lon="3.604">
        <ele>24.8</ele>
        <time>2025-06-17T10:16:50Z</time>
      </trkpt>
      <trkpt lat="43.43175" lon="3.60396">
        <ele>24.8</ele>
        <time>2025-06-17T10:16:51Z</time>
      </trkpt>
      <trkpt lat="43.43172" lon="3.60392">
        <ele>24.8</ele>
        <time>2025-06-17T10:16:52Z</time>
      </trkpt>
      <trkpt lat="43.43169" lon="3.60388">
        <ele>25</ele>
        <time>2025-06-17T10:16:53Z</time>
      </trkpt>
      <trkpt lat="43.43167" lon="3.60385">
        <ele>25</ele>
        <time>2025-06-17T10:16:54Z</time>
      </trkpt>
      <trkpt lat="43.43164" lon="3.60381">
        <ele>25</ele>
        <time>2025-06-17T10:16:55Z</time>
      </trkpt>
      <trkpt lat="43.43162" lon="3.60378">
        <ele>25</ele>
        <time>2025-06-17T10:16:56Z</time>
      </trkpt>
      <trkpt lat="43.43159" lon="3.60375">
        <ele>25</ele>
        <time>2025-06-17T10:16:57Z</time>
      </trkpt>
      <trkpt lat="43.43158" lon="3.60372">
        <ele>25.2</ele>
        <time>2025-06-17T10:16:58Z</time>
      </trkpt>
      <trkpt lat="43.43156" lon="3.60369">
        <ele>25.2</ele>
        <time>2025-06-17T10:16:59Z</time>
      </trkpt>
      <trkpt lat="43.43155" lon="3.60366">
        <ele>25.2</ele>
        <time>2025-06-17T10:17:00Z</time>
      </trkpt>
      <trkpt lat="43.43154" lon="3.60363">
        <ele>25.2</ele>
        <time>2025-06-17T10:17:01Z</time>
      </trkpt>
      <trkpt lat="43.43152" lon="3.60362">
        <ele>25.4</ele>
        <time>2025-06-17T10:17:02Z</time>
      </trkpt>
      <trkpt lat="43.43149" lon="3.60361">
        <ele>25.4</ele>
        <time>2025-06-17T10:17:03Z</time>
      </trkpt>
      <trkpt lat="43.43146" lon="3.60361">
        <ele>25.4</ele>
        <time>2025-06-17T10:17:04Z</time>
      </trkpt>
      <trkpt lat="43.43143" lon="3.60361">
        <ele>25.4</ele>
        <time>2025-06-17T10:17:05Z</time>
      </trkpt>
      <trkpt lat="43.43141" lon="3.6036">
        <ele>25.6</ele>
        <time>2025-06-17T10:17:06Z</time>
      </trkpt>
      <trkpt lat="43.43138" lon="3.60359">
        <ele>25.6</ele>
        <time>2025-06-17T10:17:07Z</time>
      </trkpt>
      <trkpt lat="43.43136" lon="3.60358">
        <ele>25.6</ele>
        <time>2025-06-17T10:17:08Z</time>
      </trkpt>
      <trkpt lat="43.43134" lon="3.60358">
        <ele>25.6</ele>
        <time>2025-06-17T10:17:09Z</time>
      </trkpt>
      <trkpt lat="43.43133" lon="3.60358">
        <ele>25.6</ele>
        <time>2025-06-17T10:17:10Z</time>
      </trkpt>
      <trkpt lat="43.43132" lon="3.60356">
        <ele>25.6</ele>
        <time>2025-06-17T10:17:11Z</time>
      </trkpt>
      <trkpt lat="43.4313" lon="3.60353">
        <ele>25.6</ele>
        <time>2025-06-17T10:17:12Z</time>
      </trkpt>
      <trkpt lat="43.4313" lon="3.60349">
        <ele>25.6</ele>
        <time>2025-06-17T10:17:13Z</time>
      </trkpt>
      <trkpt lat="43.4313" lon="3.60345">
        <ele>25.6</ele>
        <time>2025-06-17T10:17:14Z</time>
      </trkpt>
      <trkpt lat="43.4313" lon="3.6034">
        <ele>25.6</ele>
        <time>2025-06-17T10:17:15Z</time>
      </trkpt>
      <trkpt lat="43.43128" lon="3.60335">
        <ele>25.6</ele>
        <time>2025-06-17T10:17:16Z</time>
      </trkpt>
      <trkpt lat="43.43126" lon="3.60331">
        <ele>25.8</ele>
        <time>2025-06-17T10:17:17Z</time>
      </trkpt>
      <trkpt lat="43.43123" lon="3.60328">
        <ele>25.8</ele>
        <time>2025-06-17T10:17:18Z</time>
      </trkpt>
      <trkpt lat="43.4312" lon="3.60324">
        <ele>25.8</ele>
        <time>2025-06-17T10:17:19Z</time>
      </trkpt>
      <trkpt lat="43.43117" lon="3.60321">
        <ele>25.8</ele>
        <time>2025-06-17T10:17:20Z</time>
      </trkpt>
      <trkpt lat="43.43113" lon="3.60317">
        <ele>25.8</ele>
        <time>2025-06-17T10:17:21Z</time>
      </trkpt>
      <trkpt lat="43.4311" lon="3.60313">
        <ele>26</ele>
        <time>2025-06-17T10:17:22Z</time>
      </trkpt>
      <trkpt lat="43.43107" lon="3.60309">
        <ele>26</ele>
        <time>2025-06-17T10:17:23Z</time>
      </trkpt>
      <trkpt lat="43.43104" lon="3.60305">
        <ele>26</ele>
        <time>2025-06-17T10:17:24Z</time>
      </trkpt>
      <trkpt lat="43.43101" lon="3.60301">
        <ele>26.2</ele>
        <time>2025-06-17T10:17:25Z</time>
      </trkpt>
      <trkpt lat="43.43097" lon="3.60297">
        <ele>26.2</ele>
        <time>2025-06-17T10:17:26Z</time>
      </trkpt>
      <trkpt lat="43.43094" lon="3.60293">
        <ele>26.4</ele>
        <time>2025-06-17T10:17:27Z</time>
      </trkpt>
      <trkpt lat="43.43091" lon="3.60289">
        <ele>26.4</ele>
        <time>2025-06-17T10:17:28Z</time>
      </trkpt>
      <trkpt lat="43.43088" lon="3.60285">
        <ele>26.6</ele>
        <time>2025-06-17T10:17:29Z</time>
      </trkpt>
      <trkpt lat="43.43085" lon="3.60281">
        <ele>26.6</ele>
        <time>2025-06-17T10:17:30Z</time>
      </trkpt>
      <trkpt lat="43.43082" lon="3.60277">
        <ele>26.8</ele>
        <time>2025-06-17T10:17:31Z</time>
      </trkpt>
      <trkpt lat="43.43079" lon="3.60273">
        <ele>27</ele>
        <time>2025-06-17T10:17:32Z</time>
      </trkpt>
      <trkpt lat="43.43076" lon="3.60269">
        <ele>27</ele>
        <time>2025-06-17T10:17:33Z</time>
      </trkpt>
      <trkpt lat="43.43073" lon="3.60265">
        <ele>27.2</ele>
        <time>2025-06-17T10:17:34Z</time>
      </trkpt>
      <trkpt lat="43.4307" lon="3.60261">
        <ele>27.4</ele>
        <time>2025-06-17T10:17:35Z</time>
      </trkpt>
      <trkpt lat="43.43067" lon="3.60257">
        <ele>27.6</ele>
        <time>2025-06-17T10:17:36Z</time>
      </trkpt>
      <trkpt lat="43.43064" lon="3.60253">
        <ele>27.8</ele>
        <time>2025-06-17T10:17:37Z</time>
      </trkpt>
      <trkpt lat="43.43061" lon="3.60249">
        <ele>28</ele>
        <time>2025-06-17T10:17:38Z</time>
      </trkpt>
      <trkpt lat="43.43058" lon="3.60245">
        <ele>28</ele>
        <time>2025-06-17T10:17:39Z</time>
      </trkpt>
      <trkpt lat="43.43055" lon="3.60241">
        <ele>28.2</ele>
        <time>2025-06-17T10:17:40Z</time>
      </trkpt>
      <trkpt lat="43.43051" lon="3.60237">
        <ele>28.4</ele>
        <time>2025-06-17T10:17:41Z</time>
      </trkpt>
      <trkpt lat="43.43048" lon="3.60234">
        <ele>28.4</ele>
        <time>2025-06-17T10:17:42Z</time>
      </trkpt>
      <trkpt lat="43.43045" lon="3.60229">
        <ele>28.6</ele>
        <time>2025-06-17T10:17:43Z</time>
      </trkpt>
      <trkpt lat="43.43042" lon="3.60226">
        <ele>28.6</ele>
        <time>2025-06-17T10:17:44Z</time>
      </trkpt>
      <trkpt lat="43.43039" lon="3.60221">
        <ele>28.8</ele>
        <time>2025-06-17T10:17:45Z</time>
      </trkpt>
      <trkpt lat="43.43035" lon="3.60217">
        <ele>28.8</ele>
        <time>2025-06-17T10:17:46Z</time>
      </trkpt>
      <trkpt lat="43.43033" lon="3.60213">
        <ele>29</ele>
        <time>2025-06-17T10:17:47Z</time>
      </trkpt>
      <trkpt lat="43.4303" lon="3.60209">
        <ele>29.2</ele>
        <time>2025-06-17T10:17:48Z</time>
      </trkpt>
      <trkpt lat="43.43027" lon="3.60205">
        <ele>29.2</ele>
        <time>2025-06-17T10:17:49Z</time>
      </trkpt>
      <trkpt lat="43.43025" lon="3.60201">
        <ele>29.4</ele>
        <time>2025-06-17T10:17:50Z</time>
      </trkpt>
      <trkpt lat="43.43022" lon="3.60197">
        <ele>29.4</ele>
        <time>2025-06-17T10:17:51Z</time>
      </trkpt>
      <trkpt lat="43.43019" lon="3.60193">
        <ele>29.4</ele>
        <time>2025-06-17T10:17:52Z</time>
      </trkpt>
      <trkpt lat="43.43015" lon="3.6019">
        <ele>29.4</ele>
        <time>2025-06-17T10:17:53Z</time>
      </trkpt>
      <trkpt lat="43.43012" lon="3.60186">
        <ele>29.6</ele>
        <time>2025-06-17T10:17:54Z</time>
      </trkpt>
      <trkpt lat="43.4301" lon="3.60182">
        <ele>29.6</ele>
        <time>2025-06-17T10:17:55Z</time>
      </trkpt>
      <trkpt lat="43.43007" lon="3.60178">
        <ele>29.6</ele>
        <time>2025-06-17T10:17:56Z</time>
      </trkpt>
      <trkpt lat="43.43004" lon="3.60174">
        <ele>29.8</ele>
        <time>2025-06-17T10:17:57Z</time>
      </trkpt>
      <trkpt lat="43.43002" lon="3.60171">
        <ele>29.8</ele>
        <time>2025-06-17T10:17:58Z</time>
      </trkpt>
      <trkpt lat="43.42999" lon="3.60168">
        <ele>30</ele>
        <time>2025-06-17T10:17:59Z</time>
      </trkpt>
      <trkpt lat="43.42996" lon="3.60164">
        <ele>30</ele>
        <time>2025-06-17T10:18:00Z</time>
      </trkpt>
      <trkpt lat="43.42994" lon="3.60161">
        <ele>30.2</ele>
        <time>2025-06-17T10:18:01Z</time>
      </trkpt>
      <trkpt lat="43.42992" lon="3.60157">
        <ele>30.2</ele>
        <time>2025-06-17T10:18:02Z</time>
      </trkpt>
      <trkpt lat="43.4299" lon="3.60154">
        <ele>30.2</ele>
        <time>2025-06-17T10:18:03Z</time>
      </trkpt>
      <trkpt lat="43.42988" lon="3.60151">
        <ele>30.2</ele>
        <time>2025-06-17T10:18:04Z</time>
      </trkpt>
      <trkpt lat="43.42985" lon="3.60148">
        <ele>30.2</ele>
        <time>2025-06-17T10:18:05Z</time>
      </trkpt>
      <trkpt lat="43.42983" lon="3.60145">
        <ele>30.4</ele>
        <time>2025-06-17T10:18:06Z</time>
      </trkpt>
      <trkpt lat="43.42982" lon="3.60142">
        <ele>30.4</ele>
        <time>2025-06-17T10:18:07Z</time>
      </trkpt>
      <trkpt lat="43.42979" lon="3.60139">
        <ele>30.4</ele>
        <time>2025-06-17T10:18:08Z</time>
      </trkpt>
      <trkpt lat="43.42977" lon="3.60136">
        <ele>30.4</ele>
        <time>2025-06-17T10:18:09Z</time>
      </trkpt>
      <trkpt lat="43.42975" lon="3.60132">
        <ele>30.4</ele>
        <time>2025-06-17T10:18:10Z</time>
      </trkpt>
      <trkpt lat="43.42972" lon="3.60129">
        <ele>30.4</ele>
        <time>2025-06-17T10:18:11Z</time>
      </trkpt>
      <trkpt lat="43.42969" lon="3.60125">
        <ele>30.4</ele>
        <time>2025-06-17T10:18:12Z</time>
      </trkpt>
      <trkpt lat="43.42966" lon="3.60121">
        <ele>30.4</ele>
        <time>2025-06-17T10:18:13Z</time>
      </trkpt>
      <trkpt lat="43.42963" lon="3.60117">
        <ele>30.4</ele>
        <time>2025-06-17T10:18:14Z</time>
      </trkpt>
      <trkpt lat="43.4296" lon="3.60113">
        <ele>30.6</ele>
        <time>2025-06-17T10:18:15Z</time>
      </trkpt>
      <trkpt lat="43.42957" lon="3.6011">
        <ele>30.6</ele>
        <time>2025-06-17T10:18:16Z</time>
      </trkpt>
      <trkpt lat="43.42954" lon="3.60106">
        <ele>30.6</ele>
        <time>2025-06-17T10:18:17Z</time>
      </trkpt>
      <trkpt lat="43.42952" lon="3.60104">
        <ele>30.6</ele>
        <time>2025-06-17T10:18:18Z</time>
      </trkpt>
      <trkpt lat="43.4295" lon="3.60102">
        <ele>30.6</ele>
        <time>2025-06-17T10:18:19Z</time>
      </trkpt>
      <trkpt lat="43.42948" lon="3.60101">
        <ele>30.6</ele>
        <time>2025-06-17T10:18:20Z</time>
      </trkpt>
      <trkpt lat="43.42947" lon="3.601">
        <ele>30.6</ele>
        <time>2025-06-17T10:18:21Z</time>
      </trkpt>
      <trkpt lat="43.42945" lon="3.60098">
        <ele>30.8</ele>
        <time>2025-06-17T10:18:27Z</time>
      </trkpt>
      <trkpt lat="43.42943" lon="3.60097">
        <ele>30.8</ele>
        <time>2025-06-17T10:18:28Z</time>
      </trkpt>
      <trkpt lat="43.42942" lon="3.60096">
        <ele>30.8</ele>
        <time>2025-06-17T10:18:29Z</time>
      </trkpt>
      <trkpt lat="43.4294" lon="3.60095">
        <ele>30.8</ele>
        <time>2025-06-17T10:18:30Z</time>
      </trkpt>
      <trkpt lat="43.42938" lon="3.60093">
        <ele>30.8</ele>
        <time>2025-06-17T10:18:31Z</time>
      </trkpt>
      <trkpt lat="43.42937" lon="3.60091">
        <ele>30.8</ele>
        <time>2025-06-17T10:18:32Z</time>
      </trkpt>
      <trkpt lat="43.42937" lon="3.60088">
        <ele>30.8</ele>
        <time>2025-06-17T10:18:33Z</time>
      </trkpt>
      <trkpt lat="43.42937" lon="3.60086">
        <ele>30.8</ele>
        <time>2025-06-17T10:18:34Z</time>
      </trkpt>
      <trkpt lat="43.42936" lon="3.60083">
        <ele>30.8</ele>
        <time>2025-06-17T10:18:35Z</time>
      </trkpt>
      <trkpt lat="43.42935" lon="3.6008">
        <ele>30.8</ele>
        <time>2025-06-17T10:18:36Z</time>
      </trkpt>
      <trkpt lat="43.42933" lon="3.60076">
        <ele>30.6</ele>
        <time>2025-06-17T10:18:37Z</time>
      </trkpt>
      <trkpt lat="43.4293" lon="3.60073">
        <ele>30.6</ele>
        <time>2025-06-17T10:18:38Z</time>
      </trkpt>
      <trkpt lat="43.42927" lon="3.60068">
        <ele>30.4</ele>
        <time>2025-06-17T10:18:39Z</time>
      </trkpt>
      <trkpt lat="43.42924" lon="3.60064">
        <ele>30.4</ele>
        <time>2025-06-17T10:18:40Z</time>
      </trkpt>
      <trkpt lat="43.42921" lon="3.60059">
        <ele>30.2</ele>
        <time>2025-06-17T10:18:41Z</time>
      </trkpt>
      <trkpt lat="43.42917" lon="3.60055">
        <ele>30</ele>
        <time>2025-06-17T10:18:42Z</time>
      </trkpt>
      <trkpt lat="43.42914" lon="3.6005">
        <ele>29.8</ele>
        <time>2025-06-17T10:18:43Z</time>
      </trkpt>
      <trkpt lat="43.4291" lon="3.60044">
        <ele>29.8</ele>
        <time>2025-06-17T10:18:44Z</time>
      </trkpt>
      <trkpt lat="43.42906" lon="3.60039">
        <ele>29.6</ele>
        <time>2025-06-17T10:18:45Z</time>
      </trkpt>
      <trkpt lat="43.42901" lon="3.60034">
        <ele>29.4</ele>
        <time>2025-06-17T10:18:46Z</time>
      </trkpt>
      <trkpt lat="43.42897" lon="3.6003">
        <ele>29.2</ele>
        <time>2025-06-17T10:18:47Z</time>
      </trkpt>
      <trkpt lat="43.42892" lon="3.60025">
        <ele>29.2</ele>
        <time>2025-06-17T10:18:48Z</time>
      </trkpt>
      <trkpt lat="43.42888" lon="3.6002">
        <ele>29</ele>
        <time>2025-06-17T10:18:49Z</time>
      </trkpt>
      <trkpt lat="43.42884" lon="3.60015">
        <ele>29</ele>
        <time>2025-06-17T10:18:50Z</time>
      </trkpt>
      <trkpt lat="43.4288" lon="3.6001">
        <ele>28.8</ele>
        <time>2025-06-17T10:18:51Z</time>
      </trkpt>
      <trkpt lat="43.42876" lon="3.60005">
        <ele>28.8</ele>
        <time>2025-06-17T10:18:52Z</time>
      </trkpt>
      <trkpt lat="43.42873" lon="3.60001">
        <ele>28.6</ele>
        <time>2025-06-17T10:18:53Z</time>
      </trkpt>
      <trkpt lat="43.42868" lon="3.59997">
        <ele>28.6</ele>
        <time>2025-06-17T10:18:54Z</time>
      </trkpt>
      <trkpt lat="43.42863" lon="3.59994">
        <ele>28.4</ele>
        <time>2025-06-17T10:18:55Z</time>
      </trkpt>
      <trkpt lat="43.42858" lon="3.5999">
        <ele>28.4</ele>
        <time>2025-06-17T10:18:56Z</time>
      </trkpt>
      <trkpt lat="43.42853" lon="3.59986">
        <ele>28.2</ele>
        <time>2025-06-17T10:18:57Z</time>
      </trkpt>
      <trkpt lat="43.42848" lon="3.59983">
        <ele>28.2</ele>
        <time>2025-06-17T10:18:58Z</time>
      </trkpt>
      <trkpt lat="43.42843" lon="3.5998">
        <ele>28.2</ele>
        <time>2025-06-17T10:18:59Z</time>
      </trkpt>
      <trkpt lat="43.42837" lon="3.59977">
        <ele>28</ele>
        <time>2025-06-17T10:19:00Z</time>
      </trkpt>
      <trkpt lat="43.42832" lon="3.59974">
        <ele>28</ele>
        <time>2025-06-17T10:19:01Z</time>
      </trkpt>
      <trkpt lat="43.42826" lon="3.59971">
        <ele>27.8</ele>
        <time>2025-06-17T10:19:02Z</time>
      </trkpt>
      <trkpt lat="43.42819" lon="3.59968">
        <ele>27.8</ele>
        <time>2025-06-17T10:19:03Z</time>
      </trkpt>
      <trkpt lat="43.42813" lon="3.59965">
        <ele>27.4</ele>
        <time>2025-06-17T10:19:04Z</time>
      </trkpt>
      <trkpt lat="43.42807" lon="3.59963">
        <ele>27.4</ele>
        <time>2025-06-17T10:19:05Z</time>
      </trkpt>
      <trkpt lat="43.42801" lon="3.59962">
        <ele>27.2</ele>
        <time>2025-06-17T10:19:06Z</time>
      </trkpt>
      <trkpt lat="43.42795" lon="3.59961">
        <ele>27.2</ele>
        <time>2025-06-17T10:19:07Z</time>
      </trkpt>
      <trkpt lat="43.42788" lon="3.5996">
        <ele>27</ele>
        <time>2025-06-17T10:19:08Z</time>
      </trkpt>
      <trkpt lat="43.42782" lon="3.59959">
        <ele>27</ele>
        <time>2025-06-17T10:19:09Z</time>
      </trkpt>
      <trkpt lat="43.42776" lon="3.59958">
        <ele>26.8</ele>
        <time>2025-06-17T10:19:10Z</time>
      </trkpt>
      <trkpt lat="43.4277" lon="3.59958">
        <ele>26.6</ele>
        <time>2025-06-17T10:19:11Z</time>
      </trkpt>
      <trkpt lat="43.42763" lon="3.59958">
        <ele>26.4</ele>
        <time>2025-06-17T10:19:12Z</time>
      </trkpt>
      <trkpt lat="43.42757" lon="3.59958">
        <ele>26.2</ele>
        <time>2025-06-17T10:19:13Z</time>
      </trkpt>
      <trkpt lat="43.4275" lon="3.59958">
        <ele>26.2</ele>
        <time>2025-06-17T10:19:14Z</time>
      </trkpt>
      <trkpt lat="43.42744" lon="3.5996">
        <ele>26</ele>
        <time>2025-06-17T10:19:15Z</time>
      </trkpt>
      <trkpt lat="43.42738" lon="3.59962">
        <ele>26</ele>
        <time>2025-06-17T10:19:16Z</time>
      </trkpt>
      <trkpt lat="43.42732" lon="3.59964">
        <ele>26</ele>
        <time>2025-06-17T10:19:17Z</time>
      </trkpt>
      <trkpt lat="43.42726" lon="3.59966">
        <ele>26</ele>
        <time>2025-06-17T10:19:18Z</time>
      </trkpt>
      <trkpt lat="43.42719" lon="3.59968">
        <ele>25.8</ele>
        <time>2025-06-17T10:19:19Z</time>
      </trkpt>
      <trkpt lat="43.42713" lon="3.59971">
        <ele>25.8</ele>
        <time>2025-06-17T10:19:20Z</time>
      </trkpt>
      <trkpt lat="43.42706" lon="3.59973">
        <ele>25.6</ele>
        <time>2025-06-17T10:19:21Z</time>
      </trkpt>
      <trkpt lat="43.42699" lon="3.59976">
        <ele>25.6</ele>
        <time>2025-06-17T10:19:22Z</time>
      </trkpt>
      <trkpt lat="43.42693" lon="3.59978">
        <ele>25.6</ele>
        <time>2025-06-17T10:19:23Z</time>
      </trkpt>
      <trkpt lat="43.42687" lon="3.59979">
        <ele>25.4</ele>
        <time>2025-06-17T10:19:24Z</time>
      </trkpt>
      <trkpt lat="43.42681" lon="3.59982">
        <ele>25.6</ele>
        <time>2025-06-17T10:19:25Z</time>
      </trkpt>
      <trkpt lat="43.42675" lon="3.59984">
        <ele>25.6</ele>
        <time>2025-06-17T10:19:26Z</time>
      </trkpt>
      <trkpt lat="43.4267" lon="3.59986">
        <ele>25.6</ele>
        <time>2025-06-17T10:19:27Z</time>
      </trkpt>
      <trkpt lat="43.42665" lon="3.59988">
        <ele>25.6</ele>
        <time>2025-06-17T10:19:28Z</time>
      </trkpt>
      <trkpt lat="43.42661" lon="3.5999">
        <ele>25.6</ele>
        <time>2025-06-17T10:19:29Z</time>
      </trkpt>
      <trkpt lat="43.42659" lon="3.59991">
        <ele>25.8</ele>
        <time>2025-06-17T10:19:30Z</time>
      </trkpt>
      <trkpt lat="43.42657" lon="3.5999">
        <ele>25.8</ele>
        <time>2025-06-17T10:19:31Z</time>
      </trkpt>
      <trkpt lat="43.42654" lon="3.59988">
        <ele>25.8</ele>
        <time>2025-06-17T10:19:32Z</time>
      </trkpt>
      <trkpt lat="43.42652" lon="3.59985">
        <ele>26</ele>
        <time>2025-06-17T10:19:33Z</time>
      </trkpt>
      <trkpt lat="43.4265" lon="3.59982">
        <ele>26</ele>
        <time>2025-06-17T10:19:34Z</time>
      </trkpt>
      <trkpt lat="43.42647" lon="3.59981">
        <ele>26</ele>
        <time>2025-06-17T10:19:35Z</time>
      </trkpt>
      <trkpt lat="43.42644" lon="3.59979">
        <ele>26</ele>
        <time>2025-06-17T10:19:36Z</time>
      </trkpt>
      <trkpt lat="43.4264" lon="3.59976">
        <ele>26</ele>
        <time>2025-06-17T10:19:37Z</time>
      </trkpt>
      <trkpt lat="43.42638" lon="3.59972">
        <ele>26</ele>
        <time>2025-06-17T10:19:38Z</time>
      </trkpt>
      <trkpt lat="43.42636" lon="3.59968">
        <ele>26.2</ele>
        <time>2025-06-17T10:19:39Z</time>
      </trkpt>
      <trkpt lat="43.42636" lon="3.59962">
        <ele>26.2</ele>
        <time>2025-06-17T10:19:40Z</time>
      </trkpt>
      <trkpt lat="43.42634" lon="3.59957">
        <ele>26.4</ele>
        <time>2025-06-17T10:19:41Z</time>
      </trkpt>
      <trkpt lat="43.42633" lon="3.59952">
        <ele>26.6</ele>
        <time>2025-06-17T10:19:42Z</time>
      </trkpt>
      <trkpt lat="43.42633" lon="3.59948">
        <ele>26.8</ele>
        <time>2025-06-17T10:19:43Z</time>
      </trkpt>
      <trkpt lat="43.42632" lon="3.59944">
        <ele>27</ele>
        <time>2025-06-17T10:19:44Z</time>
      </trkpt>
      <trkpt lat="43.42631" lon="3.59939">
        <ele>27.2</ele>
        <time>2025-06-17T10:19:45Z</time>
      </trkpt>
      <trkpt lat="43.42631" lon="3.59935">
        <ele>27.4</ele>
        <time>2025-06-17T10:19:46Z</time>
      </trkpt>
      <trkpt lat="43.4263" lon="3.59931">
        <ele>27.4</ele>
        <time>2025-06-17T10:19:47Z</time>
      </trkpt>
      <trkpt lat="43.4263" lon="3.59926">
        <ele>27.6</ele>
        <time>2025-06-17T10:19:48Z</time>
      </trkpt>
      <trkpt lat="43.4263" lon="3.59921">
        <ele>27.8</ele>
        <time>2025-06-17T10:19:49Z</time>
      </trkpt>
      <trkpt lat="43.42629" lon="3.59916">
        <ele>28</ele>
        <time>2025-06-17T10:19:50Z</time>
      </trkpt>
      <trkpt lat="43.42628" lon="3.59912">
        <ele>28.2</ele>
        <time>2025-06-17T10:19:51Z</time>
      </trkpt>
      <trkpt lat="43.42628" lon="3.59907">
        <ele>28.4</ele>
        <time>2025-06-17T10:19:52Z</time>
      </trkpt>
      <trkpt lat="43.42627" lon="3.59903">
        <ele>28.6</ele>
        <time>2025-06-17T10:19:53Z</time>
      </trkpt>
      <trkpt lat="43.42626" lon="3.59899">
        <ele>28.8</ele>
        <time>2025-06-17T10:19:54Z</time>
      </trkpt>
      <trkpt lat="43.42625" lon="3.59895">
        <ele>29</ele>
        <time>2025-06-17T10:19:55Z</time>
      </trkpt>
      <trkpt lat="43.42625" lon="3.59891">
        <ele>29.2</ele>
        <time>2025-06-17T10:19:56Z</time>
      </trkpt>
      <trkpt lat="43.42624" lon="3.59887">
        <ele>29.4</ele>
        <time>2025-06-17T10:19:57Z</time>
      </trkpt>
      <trkpt lat="43.42623" lon="3.59883">
        <ele>29.6</ele>
        <time>2025-06-17T10:19:58Z</time>
      </trkpt>
      <trkpt lat="43.42622" lon="3.59879">
        <ele>29.8</ele>
        <time>2025-06-17T10:19:59Z</time>
      </trkpt>
      <trkpt lat="43.42621" lon="3.59875">
        <ele>30</ele>
        <time>2025-06-17T10:20:00Z</time>
      </trkpt>
      <trkpt lat="43.4262" lon="3.59871">
        <ele>30.2</ele>
        <time>2025-06-17T10:20:01Z</time>
      </trkpt>
      <trkpt lat="43.4262" lon="3.59867">
        <ele>30.4</ele>
        <time>2025-06-17T10:20:02Z</time>
      </trkpt>
      <trkpt lat="43.42619" lon="3.59863">
        <ele>30.6</ele>
        <time>2025-06-17T10:20:03Z</time>
      </trkpt>
      <trkpt lat="43.42619" lon="3.59859">
        <ele>30.8</ele>
        <time>2025-06-17T10:20:04Z</time>
      </trkpt>
      <trkpt lat="43.42619" lon="3.59855">
        <ele>31</ele>
        <time>2025-06-17T10:20:05Z</time>
      </trkpt>
      <trkpt lat="43.42619" lon="3.59851">
        <ele>31</ele>
        <time>2025-06-17T10:20:06Z</time>
      </trkpt>
      <trkpt lat="43.42619" lon="3.59847">
        <ele>31.2</ele>
        <time>2025-06-17T10:20:07Z</time>
      </trkpt>
      <trkpt lat="43.42618" lon="3.59843">
        <ele>31.4</ele>
        <time>2025-06-17T10:20:08Z</time>
      </trkpt>
      <trkpt lat="43.42617" lon="3.59838">
        <ele>31.6</ele>
        <time>2025-06-17T10:20:09Z</time>
      </trkpt>
      <trkpt lat="43.42616" lon="3.59834">
        <ele>31.8</ele>
        <time>2025-06-17T10:20:10Z</time>
      </trkpt>
      <trkpt lat="43.42616" lon="3.59829">
        <ele>31.8</ele>
        <time>2025-06-17T10:20:11Z</time>
      </trkpt>
      <trkpt lat="43.42615" lon="3.59825">
        <ele>32</ele>
        <time>2025-06-17T10:20:12Z</time>
      </trkpt>
      <trkpt lat="43.42615" lon="3.59821">
        <ele>32.2</ele>
        <time>2025-06-17T10:20:13Z</time>
      </trkpt>
      <trkpt lat="43.42615" lon="3.59816">
        <ele>32.2</ele>
        <time>2025-06-17T10:20:14Z</time>
      </trkpt>
      <trkpt lat="43.42614" lon="3.59812">
        <ele>32.2</ele>
        <time>2025-06-17T10:20:15Z</time>
      </trkpt>
      <trkpt lat="43.42613" lon="3.59807">
        <ele>32.4</ele>
        <time>2025-06-17T10:20:16Z</time>
      </trkpt>
      <trkpt lat="43.42613" lon="3.59804">
        <ele>32.4</ele>
        <time>2025-06-17T10:20:17Z</time>
      </trkpt>
      <trkpt lat="43.42611" lon="3.598">
        <ele>32.4</ele>
        <time>2025-06-17T10:20:18Z</time>
      </trkpt>
      <trkpt lat="43.4261" lon="3.59797">
        <ele>32.4</ele>
        <time>2025-06-17T10:20:19Z</time>
      </trkpt>
      <trkpt lat="43.42609" lon="3.59795">
        <ele>32.4</ele>
        <time>2025-06-17T10:20:20Z</time>
      </trkpt>
      <trkpt lat="43.42607" lon="3.59793">
        <ele>32.6</ele>
        <time>2025-06-17T10:20:21Z</time>
      </trkpt>
      <trkpt lat="43.42606" lon="3.59791">
        <ele>32.6</ele>
        <time>2025-06-17T10:20:22Z</time>
      </trkpt>
      <trkpt lat="43.42605" lon="3.59788">
        <ele>32.6</ele>
        <time>2025-06-17T10:20:23Z</time>
      </trkpt>
      <trkpt lat="43.42604" lon="3.59785">
        <ele>32.6</ele>
        <time>2025-06-17T10:20:24Z</time>
      </trkpt>
      <trkpt lat="43.42602" lon="3.59781">
        <ele>32.6</ele>
        <time>2025-06-17T10:20:25Z</time>
      </trkpt>
      <trkpt lat="43.42602" lon="3.59777">
        <ele>32.6</ele>
        <time>2025-06-17T10:20:26Z</time>
      </trkpt>
      <trkpt lat="43.426" lon="3.59774">
        <ele>32.8</ele>
        <time>2025-06-17T10:20:27Z</time>
      </trkpt>
      <trkpt lat="43.42598" lon="3.59773">
        <ele>32.8</ele>
        <time>2025-06-17T10:20:28Z</time>
      </trkpt>
      <trkpt lat="43.42595" lon="3.59774">
        <ele>32.8</ele>
        <time>2025-06-17T10:20:29Z</time>
      </trkpt>
      <trkpt lat="43.42592" lon="3.59776">
        <ele>32.8</ele>
        <time>2025-06-17T10:20:30Z</time>
      </trkpt>
      <trkpt lat="43.4259" lon="3.59779">
        <ele>32.8</ele>
        <time>2025-06-17T10:20:31Z</time>
      </trkpt>
      <trkpt lat="43.42587" lon="3.59781">
        <ele>32.8</ele>
        <time>2025-06-17T10:20:32Z</time>
      </trkpt>
      <trkpt lat="43.42583" lon="3.59783">
        <ele>32.8</ele>
        <time>2025-06-17T10:20:33Z</time>
      </trkpt>
      <trkpt lat="43.4258" lon="3.59784">
        <ele>32.8</ele>
        <time>2025-06-17T10:20:34Z</time>
      </trkpt>
      <trkpt lat="43.42577" lon="3.59786">
        <ele>32.8</ele>
        <time>2025-06-17T10:20:35Z</time>
      </trkpt>
      <trkpt lat="43.42573" lon="3.59787">
        <ele>32.8</ele>
        <time>2025-06-17T10:20:36Z</time>
      </trkpt>
      <trkpt lat="43.42569" lon="3.59788">
        <ele>33</ele>
        <time>2025-06-17T10:20:37Z</time>
      </trkpt>
      <trkpt lat="43.42565" lon="3.59789">
        <ele>33</ele>
        <time>2025-06-17T10:20:38Z</time>
      </trkpt>
      <trkpt lat="43.42561" lon="3.5979">
        <ele>33</ele>
        <time>2025-06-17T10:20:39Z</time>
      </trkpt>
      <trkpt lat="43.42556" lon="3.59791">
        <ele>33</ele>
        <time>2025-06-17T10:20:40Z</time>
      </trkpt>
      <trkpt lat="43.42552" lon="3.59792">
        <ele>33</ele>
        <time>2025-06-17T10:20:41Z</time>
      </trkpt>
      <trkpt lat="43.42548" lon="3.59793">
        <ele>33</ele>
        <time>2025-06-17T10:20:42Z</time>
      </trkpt>
      <trkpt lat="43.42543" lon="3.59795">
        <ele>33.2</ele>
        <time>2025-06-17T10:20:43Z</time>
      </trkpt>
      <trkpt lat="43.42538" lon="3.59797">
        <ele>33</ele>
        <time>2025-06-17T10:20:44Z</time>
      </trkpt>
      <trkpt lat="43.42533" lon="3.59798">
        <ele>33</ele>
        <time>2025-06-17T10:20:45Z</time>
      </trkpt>
      <trkpt lat="43.42527" lon="3.598">
        <ele>33</ele>
        <time>2025-06-17T10:20:46Z</time>
      </trkpt>
      <trkpt lat="43.42522" lon="3.59801">
        <ele>33</ele>
        <time>2025-06-17T10:20:47Z</time>
      </trkpt>
      <trkpt lat="43.42516" lon="3.59803">
        <ele>33</ele>
        <time>2025-06-17T10:20:48Z</time>
      </trkpt>
      <trkpt lat="43.42511" lon="3.59805">
        <ele>33</ele>
        <time>2025-06-17T10:20:49Z</time>
      </trkpt>
      <trkpt lat="43.42506" lon="3.59807">
        <ele>33</ele>
        <time>2025-06-17T10:20:50Z</time>
      </trkpt>
      <trkpt lat="43.425" lon="3.59808">
        <ele>33</ele>
        <time>2025-06-17T10:20:51Z</time>
      </trkpt>
      <trkpt lat="43.42495" lon="3.5981">
        <ele>33</ele>
        <time>2025-06-17T10:20:52Z</time>
      </trkpt>
      <trkpt lat="43.4249" lon="3.59812">
        <ele>33</ele>
        <time>2025-06-17T10:20:53Z</time>
      </trkpt>
      <trkpt lat="43.42484" lon="3.59814">
        <ele>32.8</ele>
        <time>2025-06-17T10:20:54Z</time>
      </trkpt>
      <trkpt lat="43.42479" lon="3.59816">
        <ele>32.8</ele>
        <time>2025-06-17T10:20:55Z</time>
      </trkpt>
      <trkpt lat="43.42474" lon="3.59818">
        <ele>32.8</ele>
        <time>2025-06-17T10:20:56Z</time>
      </trkpt>
      <trkpt lat="43.42468" lon="3.5982">
        <ele>32.8</ele>
        <time>2025-06-17T10:20:57Z</time>
      </trkpt>
      <trkpt lat="43.42463" lon="3.59822">
        <ele>32.8</ele>
        <time>2025-06-17T10:20:58Z</time>
      </trkpt>
      <trkpt lat="43.42458" lon="3.59823">
        <ele>32.8</ele>
        <time>2025-06-17T10:20:59Z</time>
      </trkpt>
      <trkpt lat="43.42453" lon="3.59825">
        <ele>32.8</ele>
        <time>2025-06-17T10:21:00Z</time>
      </trkpt>
      <trkpt lat="43.42448" lon="3.59827">
        <ele>32.6</ele>
        <time>2025-06-17T10:21:01Z</time>
      </trkpt>
      <trkpt lat="43.42442" lon="3.59828">
        <ele>32.6</ele>
        <time>2025-06-17T10:21:02Z</time>
      </trkpt>
      <trkpt lat="43.42437" lon="3.5983">
        <ele>32.6</ele>
        <time>2025-06-17T10:21:03Z</time>
      </trkpt>
      <trkpt lat="43.42431" lon="3.59832">
        <ele>32.6</ele>
        <time>2025-06-17T10:21:04Z</time>
      </trkpt>
      <trkpt lat="43.42426" lon="3.59834">
        <ele>32.6</ele>
        <time>2025-06-17T10:21:05Z</time>
      </trkpt>
      <trkpt lat="43.4242" lon="3.59836">
        <ele>32.6</ele>
        <time>2025-06-17T10:21:06Z</time>
      </trkpt>
      <trkpt lat="43.42414" lon="3.59838">
        <ele>32.4</ele>
        <time>2025-06-17T10:21:07Z</time>
      </trkpt>
      <trkpt lat="43.42409" lon="3.5984">
        <ele>32.4</ele>
        <time>2025-06-17T10:21:08Z</time>
      </trkpt>
      <trkpt lat="43.42404" lon="3.59841">
        <ele>32.4</ele>
        <time>2025-06-17T10:21:09Z</time>
      </trkpt>
      <trkpt lat="43.424" lon="3.59843">
        <ele>32.4</ele>
        <time>2025-06-17T10:21:10Z</time>
      </trkpt>
      <trkpt lat="43.42394" lon="3.59846">
        <ele>32.4</ele>
        <time>2025-06-17T10:21:11Z</time>
      </trkpt>
      <trkpt lat="43.42389" lon="3.59847">
        <ele>32.2</ele>
        <time>2025-06-17T10:21:12Z</time>
      </trkpt>
      <trkpt lat="43.42384" lon="3.59848">
        <ele>32.2</ele>
        <time>2025-06-17T10:21:13Z</time>
      </trkpt>
      <trkpt lat="43.42379" lon="3.59848">
        <ele>32.2</ele>
        <time>2025-06-17T10:21:14Z</time>
      </trkpt>
      <trkpt lat="43.42375" lon="3.59847">
        <ele>32.2</ele>
        <time>2025-06-17T10:21:15Z</time>
      </trkpt>
      <trkpt lat="43.4237" lon="3.59846">
        <ele>32</ele>
        <time>2025-06-17T10:21:16Z</time>
      </trkpt>
      <trkpt lat="43.42366" lon="3.59847">
        <ele>31.8</ele>
        <time>2025-06-17T10:21:17Z</time>
      </trkpt>
      <trkpt lat="43.42362" lon="3.59849">
        <ele>31.6</ele>
        <time>2025-06-17T10:21:18Z</time>
      </trkpt>
      <trkpt lat="43.42359" lon="3.59854">
        <ele>31.6</ele>
        <time>2025-06-17T10:21:19Z</time>
      </trkpt>
      <trkpt lat="43.42355" lon="3.59858">
        <ele>31.4</ele>
        <time>2025-06-17T10:21:20Z</time>
      </trkpt>
      <trkpt lat="43.42351" lon="3.59861">
        <ele>31.2</ele>
        <time>2025-06-17T10:21:21Z</time>
      </trkpt>
      <trkpt lat="43.42346" lon="3.59864">
        <ele>31.2</ele>
        <time>2025-06-17T10:21:22Z</time>
      </trkpt>
      <trkpt lat="43.42337" lon="3.59859">
        <ele>31</ele>
        <time>2025-06-17T10:21:23Z</time>
      </trkpt>
      <trkpt lat="43.42328" lon="3.59854">
        <ele>30.6</ele>
        <time>2025-06-17T10:21:24Z</time>
      </trkpt>
      <trkpt lat="43.42321" lon="3.59851">
        <ele>30.4</ele>
        <time>2025-06-17T10:21:25Z</time>
      </trkpt>
      <trkpt lat="43.42317" lon="3.59847">
        <ele>30.2</ele>
        <time>2025-06-17T10:21:26Z</time>
      </trkpt>
      <trkpt lat="43.42314" lon="3.5984">
        <ele>30</ele>
        <time>2025-06-17T10:21:27Z</time>
      </trkpt>
      <trkpt lat="43.42311" lon="3.59834">
        <ele>29.8</ele>
        <time>2025-06-17T10:21:28Z</time>
      </trkpt>
      <trkpt lat="43.42309" lon="3.59828">
        <ele>29.6</ele>
        <time>2025-06-17T10:21:29Z</time>
      </trkpt>
      <trkpt lat="43.42306" lon="3.59821">
        <ele>29.6</ele>
        <time>2025-06-17T10:21:30Z</time>
      </trkpt>
      <trkpt lat="43.42304" lon="3.59814">
        <ele>29.4</ele>
        <time>2025-06-17T10:21:31Z</time>
      </trkpt>
      <trkpt lat="43.423" lon="3.59808">
        <ele>29.2</ele>
        <time>2025-06-17T10:21:32Z</time>
      </trkpt>
      <trkpt lat="43.42297" lon="3.59801">
        <ele>29.2</ele>
        <time>2025-06-17T10:21:33Z</time>
      </trkpt>
      <trkpt lat="43.42293" lon="3.59794">
        <ele>29</ele>
        <time>2025-06-17T10:21:34Z</time>
      </trkpt>
      <trkpt lat="43.4229" lon="3.59787">
        <ele>29</ele>
        <time>2025-06-17T10:21:35Z</time>
      </trkpt>
      <trkpt lat="43.42287" lon="3.5978">
        <ele>28.8</ele>
        <time>2025-06-17T10:21:36Z</time>
      </trkpt>
      <trkpt lat="43.42283" lon="3.59773">
        <ele>28.6</ele>
        <time>2025-06-17T10:21:37Z</time>
      </trkpt>
      <trkpt lat="43.4228" lon="3.59766">
        <ele>28.4</ele>
        <time>2025-06-17T10:21:38Z</time>
      </trkpt>
      <trkpt lat="43.42277" lon="3.59759">
        <ele>28.2</ele>
        <time>2025-06-17T10:21:39Z</time>
      </trkpt>
      <trkpt lat="43.42273" lon="3.59752">
        <ele>28</ele>
        <time>2025-06-17T10:21:40Z</time>
      </trkpt>
      <trkpt lat="43.42269" lon="3.59746">
        <ele>28</ele>
        <time>2025-06-17T10:21:41Z</time>
      </trkpt>
      <trkpt lat="43.42265" lon="3.59739">
        <ele>27.8</ele>
        <time>2025-06-17T10:21:42Z</time>
      </trkpt>
      <trkpt lat="43.42261" lon="3.59732">
        <ele>27.8</ele>
        <time>2025-06-17T10:21:43Z</time>
      </trkpt>
      <trkpt lat="43.42258" lon="3.59724">
        <ele>27.6</ele>
        <time>2025-06-17T10:21:44Z</time>
      </trkpt>
      <trkpt lat="43.42254" lon="3.59716">
        <ele>27.4</ele>
        <time>2025-06-17T10:21:45Z</time>
      </trkpt>
      <trkpt lat="43.4225" lon="3.59709">
        <ele>27.4</ele>
        <time>2025-06-17T10:21:46Z</time>
      </trkpt>
      <trkpt lat="43.42246" lon="3.59701">
        <ele>27.4</ele>
        <time>2025-06-17T10:21:47Z</time>
      </trkpt>
      <trkpt lat="43.42242" lon="3.59695">
        <ele>27.2</ele>
        <time>2025-06-17T10:21:48Z</time>
      </trkpt>
      <trkpt lat="43.42239" lon="3.59688">
        <ele>27</ele>
        <time>2025-06-17T10:21:49Z</time>
      </trkpt>
      <trkpt lat="43.42236" lon="3.59681">
        <ele>27</ele>
        <time>2025-06-17T10:21:50Z</time>
      </trkpt>
      <trkpt lat="43.42232" lon="3.59675">
        <ele>26.8</ele>
        <time>2025-06-17T10:21:51Z</time>
      </trkpt>
      <trkpt lat="43.42228" lon="3.59668">
        <ele>26.8</ele>
        <time>2025-06-17T10:21:52Z</time>
      </trkpt>
      <trkpt lat="43.42224" lon="3.59661">
        <ele>26.6</ele>
        <time>2025-06-17T10:21:53Z</time>
      </trkpt>
      <trkpt lat="43.42219" lon="3.59654">
        <ele>26.4</ele>
        <time>2025-06-17T10:21:54Z</time>
      </trkpt>
      <trkpt lat="43.42213" lon="3.59648">
        <ele>26.2</ele>
        <time>2025-06-17T10:21:55Z</time>
      </trkpt>
      <trkpt lat="43.42208" lon="3.59641">
        <ele>26</ele>
        <time>2025-06-17T10:21:56Z</time>
      </trkpt>
      <trkpt lat="43.42203" lon="3.59635">
        <ele>26</ele>
        <time>2025-06-17T10:21:57Z</time>
      </trkpt>
      <trkpt lat="43.42197" lon="3.59628">
        <ele>25.8</ele>
        <time>2025-06-17T10:21:58Z</time>
      </trkpt>
      <trkpt lat="43.42191" lon="3.59621">
        <ele>25.6</ele>
        <time>2025-06-17T10:21:59Z</time>
      </trkpt>
      <trkpt lat="43.42185" lon="3.59615">
        <ele>25.4</ele>
        <time>2025-06-17T10:22:00Z</time>
      </trkpt>
      <trkpt lat="43.42179" lon="3.59608">
        <ele>25.4</ele>
        <time>2025-06-17T10:22:01Z</time>
      </trkpt>
      <trkpt lat="43.42173" lon="3.59603">
        <ele>25.4</ele>
        <time>2025-06-17T10:22:02Z</time>
      </trkpt>
      <trkpt lat="43.42167" lon="3.59597">
        <ele>25.4</ele>
        <time>2025-06-17T10:22:03Z</time>
      </trkpt>
      <trkpt lat="43.42161" lon="3.59591">
        <ele>25.4</ele>
        <time>2025-06-17T10:22:04Z</time>
      </trkpt>
      <trkpt lat="43.42155" lon="3.59586">
        <ele>25.4</ele>
        <time>2025-06-17T10:22:05Z</time>
      </trkpt>
      <trkpt lat="43.4215" lon="3.5958">
        <ele>25.2</ele>
        <time>2025-06-17T10:22:06Z</time>
      </trkpt>
      <trkpt lat="43.42144" lon="3.59575">
        <ele>25.2</ele>
        <time>2025-06-17T10:22:07Z</time>
      </trkpt>
      <trkpt lat="43.42138" lon="3.5957">
        <ele>25</ele>
        <time>2025-06-17T10:22:08Z</time>
      </trkpt>
      <trkpt lat="43.42133" lon="3.59566">
        <ele>25</ele>
        <time>2025-06-17T10:22:09Z</time>
      </trkpt>
      <trkpt lat="43.42128" lon="3.59561">
        <ele>24.8</ele>
        <time>2025-06-17T10:22:10Z</time>
      </trkpt>
      <trkpt lat="43.42124" lon="3.59557">
        <ele>24.8</ele>
        <time>2025-06-17T10:22:11Z</time>
      </trkpt>
      <trkpt lat="43.4212" lon="3.59553">
        <ele>24.6</ele>
        <time>2025-06-17T10:22:12Z</time>
      </trkpt>
      <trkpt lat="43.42115" lon="3.59548">
        <ele>24.6</ele>
        <time>2025-06-17T10:22:13Z</time>
      </trkpt>
      <trkpt lat="43.4211" lon="3.59543">
        <ele>24.4</ele>
        <time>2025-06-17T10:22:14Z</time>
      </trkpt>
      <trkpt lat="43.42105" lon="3.59537">
        <ele>24.2</ele>
        <time>2025-06-17T10:22:15Z</time>
      </trkpt>
      <trkpt lat="43.421" lon="3.59531">
        <ele>23.8</ele>
        <time>2025-06-17T10:22:16Z</time>
      </trkpt>
      <trkpt lat="43.42095" lon="3.59525">
        <ele>23.4</ele>
        <time>2025-06-17T10:22:17Z</time>
      </trkpt>
      <trkpt lat="43.4209" lon="3.59518">
        <ele>23</ele>
        <time>2025-06-17T10:22:18Z</time>
      </trkpt>
      <trkpt lat="43.42085" lon="3.59511">
        <ele>22.6</ele>
        <time>2025-06-17T10:22:19Z</time>
      </trkpt>
      <trkpt lat="43.4208" lon="3.59503">
        <ele>22.2</ele>
        <time>2025-06-17T10:22:20Z</time>
      </trkpt>
      <trkpt lat="43.42075" lon="3.59495">
        <ele>22</ele>
        <time>2025-06-17T10:22:21Z</time>
      </trkpt>
      <trkpt lat="43.42069" lon="3.59487">
        <ele>21.8</ele>
        <time>2025-06-17T10:22:22Z</time>
      </trkpt>
      <trkpt lat="43.42064" lon="3.59478">
        <ele>21.6</ele>
        <time>2025-06-17T10:22:23Z</time>
      </trkpt>
      <trkpt lat="43.42059" lon="3.5947">
        <ele>21.2</ele>
        <time>2025-06-17T10:22:24Z</time>
      </trkpt>
      <trkpt lat="43.42054" lon="3.59461">
        <ele>20.8</ele>
        <time>2025-06-17T10:22:25Z</time>
      </trkpt>
      <trkpt lat="43.4205" lon="3.59453">
        <ele>20.6</ele>
        <time>2025-06-17T10:22:26Z</time>
      </trkpt>
      <trkpt lat="43.42045" lon="3.59444">
        <ele>20.4</ele>
        <time>2025-06-17T10:22:27Z</time>
      </trkpt>
      <trkpt lat="43.42041" lon="3.59436">
        <ele>20.2</ele>
        <time>2025-06-17T10:22:28Z</time>
      </trkpt>
      <trkpt lat="43.42036" lon="3.59427">
        <ele>20</ele>
        <time>2025-06-17T10:22:29Z</time>
      </trkpt>
      <trkpt lat="43.42032" lon="3.59418">
        <ele>19.8</ele>
        <time>2025-06-17T10:22:30Z</time>
      </trkpt>
      <trkpt lat="43.42028" lon="3.5941">
        <ele>19.6</ele>
        <time>2025-06-17T10:22:31Z</time>
      </trkpt>
      <trkpt lat="43.42024" lon="3.59402">
        <ele>19.4</ele>
        <time>2025-06-17T10:22:32Z</time>
      </trkpt>
      <trkpt lat="43.42019" lon="3.59393">
        <ele>19.4</ele>
        <time>2025-06-17T10:22:33Z</time>
      </trkpt>
      <trkpt lat="43.42016" lon="3.59385">
        <ele>19.2</ele>
        <time>2025-06-17T10:22:34Z</time>
      </trkpt>
      <trkpt lat="43.42012" lon="3.59376">
        <ele>19.2</ele>
        <time>2025-06-17T10:22:35Z</time>
      </trkpt>
      <trkpt lat="43.42008" lon="3.59368">
        <ele>19</ele>
        <time>2025-06-17T10:22:36Z</time>
      </trkpt>
      <trkpt lat="43.42004" lon="3.5936">
        <ele>19</ele>
        <time>2025-06-17T10:22:37Z</time>
      </trkpt>
      <trkpt lat="43.42" lon="3.59351">
        <ele>19</ele>
        <time>2025-06-17T10:22:38Z</time>
      </trkpt>
      <trkpt lat="43.41996" lon="3.59343">
        <ele>18.8</ele>
        <time>2025-06-17T10:22:39Z</time>
      </trkpt>
      <trkpt lat="43.41993" lon="3.59335">
        <ele>18.8</ele>
        <time>2025-06-17T10:22:40Z</time>
      </trkpt>
      <trkpt lat="43.41989" lon="3.59327">
        <ele>18.8</ele>
        <time>2025-06-17T10:22:41Z</time>
      </trkpt>
      <trkpt lat="43.41985" lon="3.59318">
        <ele>18.8</ele>
        <time>2025-06-17T10:22:42Z</time>
      </trkpt>
      <trkpt lat="43.41982" lon="3.5931">
        <ele>18.6</ele>
        <time>2025-06-17T10:22:43Z</time>
      </trkpt>
      <trkpt lat="43.41978" lon="3.59301">
        <ele>18.6</ele>
        <time>2025-06-17T10:22:44Z</time>
      </trkpt>
      <trkpt lat="43.41975" lon="3.59292">
        <ele>18.4</ele>
        <time>2025-06-17T10:22:45Z</time>
      </trkpt>
      <trkpt lat="43.41972" lon="3.59283">
        <ele>18.4</ele>
        <time>2025-06-17T10:22:46Z</time>
      </trkpt>
      <trkpt lat="43.4197" lon="3.59274">
        <ele>18.4</ele>
        <time>2025-06-17T10:22:47Z</time>
      </trkpt>
      <trkpt lat="43.41968" lon="3.59264">
        <ele>18.6</ele>
        <time>2025-06-17T10:22:48Z</time>
      </trkpt>
      <trkpt lat="43.41965" lon="3.59255">
        <ele>18.6</ele>
        <time>2025-06-17T10:22:49Z</time>
      </trkpt>
      <trkpt lat="43.41963" lon="3.59246">
        <ele>18.6</ele>
        <time>2025-06-17T10:22:50Z</time>
      </trkpt>
      <trkpt lat="43.41961" lon="3.59237">
        <ele>18.6</ele>
        <time>2025-06-17T10:22:51Z</time>
      </trkpt>
      <trkpt lat="43.41959" lon="3.59227">
        <ele>18.6</ele>
        <time>2025-06-17T10:22:52Z</time>
      </trkpt>
      <trkpt lat="43.41957" lon="3.59218">
        <ele>18.6</ele>
        <time>2025-06-17T10:22:53Z</time>
      </trkpt>
      <trkpt lat="43.41954" lon="3.59209">
        <ele>18.6</ele>
        <time>2025-06-17T10:22:54Z</time>
      </trkpt>
      <trkpt lat="43.41952" lon="3.59199">
        <ele>18.4</ele>
        <time>2025-06-17T10:22:55Z</time>
      </trkpt>
      <trkpt lat="43.4195" lon="3.5919">
        <ele>18.4</ele>
        <time>2025-06-17T10:22:56Z</time>
      </trkpt>
      <trkpt lat="43.41949" lon="3.5918">
        <ele>18.4</ele>
        <time>2025-06-17T10:22:57Z</time>
      </trkpt>
      <trkpt lat="43.41947" lon="3.59171">
        <ele>18.4</ele>
        <time>2025-06-17T10:22:58Z</time>
      </trkpt>
      <trkpt lat="43.41944" lon="3.59163">
        <ele>18.4</ele>
        <time>2025-06-17T10:22:59Z</time>
      </trkpt>
      <trkpt lat="43.41942" lon="3.59154">
        <ele>18.2</ele>
        <time>2025-06-17T10:23:00Z</time>
      </trkpt>
      <trkpt lat="43.41941" lon="3.59146">
        <ele>18.2</ele>
        <time>2025-06-17T10:23:01Z</time>
      </trkpt>
      <trkpt lat="43.41938" lon="3.59137">
        <ele>18.4</ele>
        <time>2025-06-17T10:23:02Z</time>
      </trkpt>
      <trkpt lat="43.41936" lon="3.59129">
        <ele>18.4</ele>
        <time>2025-06-17T10:23:03Z</time>
      </trkpt>
      <trkpt lat="43.41934" lon="3.5912">
        <ele>18.4</ele>
        <time>2025-06-17T10:23:04Z</time>
      </trkpt>
      <trkpt lat="43.41931" lon="3.59111">
        <ele>18.4</ele>
        <time>2025-06-17T10:23:05Z</time>
      </trkpt>
      <trkpt lat="43.41929" lon="3.59103">
        <ele>18.6</ele>
        <time>2025-06-17T10:23:06Z</time>
      </trkpt>
      <trkpt lat="43.41927" lon="3.59094">
        <ele>18.6</ele>
        <time>2025-06-17T10:23:07Z</time>
      </trkpt>
      <trkpt lat="43.41924" lon="3.59086">
        <ele>18.6</ele>
        <time>2025-06-17T10:23:08Z</time>
      </trkpt>
      <trkpt lat="43.41923" lon="3.59077">
        <ele>18.6</ele>
        <time>2025-06-17T10:23:09Z</time>
      </trkpt>
      <trkpt lat="43.41921" lon="3.59069">
        <ele>18.6</ele>
        <time>2025-06-17T10:23:10Z</time>
      </trkpt>
      <trkpt lat="43.41918" lon="3.59061">
        <ele>18.4</ele>
        <time>2025-06-17T10:23:11Z</time>
      </trkpt>
      <trkpt lat="43.41916" lon="3.59053">
        <ele>18.4</ele>
        <time>2025-06-17T10:23:12Z</time>
      </trkpt>
      <trkpt lat="43.41914" lon="3.59044">
        <ele>18.2</ele>
        <time>2025-06-17T10:23:13Z</time>
      </trkpt>
      <trkpt lat="43.41912" lon="3.59037">
        <ele>18.4</ele>
        <time>2025-06-17T10:23:14Z</time>
      </trkpt>
      <trkpt lat="43.4191" lon="3.59029">
        <ele>18.4</ele>
        <time>2025-06-17T10:23:15Z</time>
      </trkpt>
      <trkpt lat="43.41909" lon="3.59022">
        <ele>18.4</ele>
        <time>2025-06-17T10:23:16Z</time>
      </trkpt>
      <trkpt lat="43.41908" lon="3.59015">
        <ele>18.4</ele>
        <time>2025-06-17T10:23:17Z</time>
      </trkpt>
      <trkpt lat="43.41906" lon="3.59008">
        <ele>18.4</ele>
        <time>2025-06-17T10:23:18Z</time>
      </trkpt>
      <trkpt lat="43.41904" lon="3.59">
        <ele>18.4</ele>
        <time>2025-06-17T10:23:19Z</time>
      </trkpt>
      <trkpt lat="43.41902" lon="3.58993">
        <ele>18.4</ele>
        <time>2025-06-17T10:23:20Z</time>
      </trkpt>
      <trkpt lat="43.419" lon="3.58985">
        <ele>18.4</ele>
        <time>2025-06-17T10:23:21Z</time>
      </trkpt>
      <trkpt lat="43.41898" lon="3.58977">
        <ele>18.2</ele>
        <time>2025-06-17T10:23:22Z</time>
      </trkpt>
      <trkpt lat="43.41896" lon="3.5897">
        <ele>18.2</ele>
        <time>2025-06-17T10:23:23Z</time>
      </trkpt>
      <trkpt lat="43.41894" lon="3.58962">
        <ele>18.2</ele>
        <time>2025-06-17T10:23:24Z</time>
      </trkpt>
      <trkpt lat="43.41892" lon="3.58955">
        <ele>18.2</ele>
        <time>2025-06-17T10:23:25Z</time>
      </trkpt>
      <trkpt lat="43.4189" lon="3.58947">
        <ele>18.2</ele>
        <time>2025-06-17T10:23:26Z</time>
      </trkpt>
      <trkpt lat="43.41888" lon="3.58939">
        <ele>18.2</ele>
        <time>2025-06-17T10:23:27Z</time>
      </trkpt>
      <trkpt lat="43.41886" lon="3.58931">
        <ele>18.2</ele>
        <time>2025-06-17T10:23:28Z</time>
      </trkpt>
      <trkpt lat="43.41884" lon="3.58923">
        <ele>18.2</ele>
        <time>2025-06-17T10:23:29Z</time>
      </trkpt>
      <trkpt lat="43.41882" lon="3.58915">
        <ele>18.2</ele>
        <time>2025-06-17T10:23:30Z</time>
      </trkpt>
      <trkpt lat="43.4188" lon="3.58907">
        <ele>18</ele>
        <time>2025-06-17T10:23:31Z</time>
      </trkpt>
      <trkpt lat="43.41878" lon="3.58899">
        <ele>18</ele>
        <time>2025-06-17T10:23:32Z</time>
      </trkpt>
      <trkpt lat="43.41876" lon="3.5889">
        <ele>18</ele>
        <time>2025-06-17T10:23:33Z</time>
      </trkpt>
      <trkpt lat="43.41875" lon="3.58882">
        <ele>18</ele>
        <time>2025-06-17T10:23:34Z</time>
      </trkpt>
      <trkpt lat="43.41873" lon="3.58874">
        <ele>18</ele>
        <time>2025-06-17T10:23:35Z</time>
      </trkpt>
      <trkpt lat="43.41873" lon="3.58865">
        <ele>18</ele>
        <time>2025-06-17T10:23:36Z</time>
      </trkpt>
      <trkpt lat="43.41872" lon="3.58857">
        <ele>18</ele>
        <time>2025-06-17T10:23:37Z</time>
      </trkpt>
      <trkpt lat="43.41872" lon="3.58848">
        <ele>18</ele>
        <time>2025-06-17T10:23:38Z</time>
      </trkpt>
      <trkpt lat="43.41871" lon="3.5884">
        <ele>18</ele>
        <time>2025-06-17T10:23:39Z</time>
      </trkpt>
      <trkpt lat="43.4187" lon="3.58831">
        <ele>18.2</ele>
        <time>2025-06-17T10:23:40Z</time>
      </trkpt>
      <trkpt lat="43.4187" lon="3.58823">
        <ele>18.2</ele>
        <time>2025-06-17T10:23:41Z</time>
      </trkpt>
      <trkpt lat="43.4187" lon="3.58815">
        <ele>18.2</ele>
        <time>2025-06-17T10:23:42Z</time>
      </trkpt>
      <trkpt lat="43.41869" lon="3.58807">
        <ele>18.2</ele>
        <time>2025-06-17T10:23:43Z</time>
      </trkpt>
      <trkpt lat="43.41869" lon="3.588">
        <ele>18.2</ele>
        <time>2025-06-17T10:23:44Z</time>
      </trkpt>
      <trkpt lat="43.41869" lon="3.58793">
        <ele>18.2</ele>
        <time>2025-06-17T10:23:45Z</time>
      </trkpt>
      <trkpt lat="43.41869" lon="3.58786">
        <ele>18.4</ele>
        <time>2025-06-17T10:23:46Z</time>
      </trkpt>
      <trkpt lat="43.41869" lon="3.5878">
        <ele>18.4</ele>
        <time>2025-06-17T10:23:47Z</time>
      </trkpt>
      <trkpt lat="43.41869" lon="3.58775">
        <ele>18.4</ele>
        <time>2025-06-17T10:23:48Z</time>
      </trkpt>
      <trkpt lat="43.4187" lon="3.58772">
        <ele>18.6</ele>
        <time>2025-06-17T10:23:49Z</time>
      </trkpt>
      <trkpt lat="43.4187" lon="3.5877">
        <ele>18.6</ele>
        <time>2025-06-17T10:23:50Z</time>
      </trkpt>
      <trkpt lat="43.4187" lon="3.58767">
        <ele>18.8</ele>
        <time>2025-06-17T10:23:51Z</time>
      </trkpt>
      <trkpt lat="43.4187" lon="3.58765">
        <ele>18.8</ele>
        <time>2025-06-17T10:23:52Z</time>
      </trkpt>
      <trkpt lat="43.4187" lon="3.58761">
        <ele>18.8</ele>
        <time>2025-06-17T10:23:53Z</time>
      </trkpt>
      <trkpt lat="43.41871" lon="3.58758">
        <ele>18.8</ele>
        <time>2025-06-17T10:23:54Z</time>
      </trkpt>
      <trkpt lat="43.41872" lon="3.58754">
        <ele>18.8</ele>
        <time>2025-06-17T10:23:55Z</time>
      </trkpt>
      <trkpt lat="43.41874" lon="3.5875">
        <ele>18.8</ele>
        <time>2025-06-17T10:23:56Z</time>
      </trkpt>
      <trkpt lat="43.41876" lon="3.58745">
        <ele>18.8</ele>
        <time>2025-06-17T10:23:57Z</time>
      </trkpt>
      <trkpt lat="43.41878" lon="3.5874">
        <ele>18.8</ele>
        <time>2025-06-17T10:23:58Z</time>
      </trkpt>
      <trkpt lat="43.4188" lon="3.58735">
        <ele>18.8</ele>
        <time>2025-06-17T10:23:59Z</time>
      </trkpt>
      <trkpt lat="43.41883" lon="3.5873">
        <ele>18.8</ele>
        <time>2025-06-17T10:24:00Z</time>
      </trkpt>
      <trkpt lat="43.41886" lon="3.58724">
        <ele>18.8</ele>
        <time>2025-06-17T10:24:01Z</time>
      </trkpt>
      <trkpt lat="43.41889" lon="3.58719">
        <ele>18.8</ele>
        <time>2025-06-17T10:24:02Z</time>
      </trkpt>
      <trkpt lat="43.41892" lon="3.58713">
        <ele>18.8</ele>
        <time>2025-06-17T10:24:03Z</time>
      </trkpt>
      <trkpt lat="43.41895" lon="3.58708">
        <ele>18.8</ele>
        <time>2025-06-17T10:24:04Z</time>
      </trkpt>
      <trkpt lat="43.41898" lon="3.58701">
        <ele>18.8</ele>
        <time>2025-06-17T10:24:05Z</time>
      </trkpt>
      <trkpt lat="43.41901" lon="3.58695">
        <ele>18.8</ele>
        <time>2025-06-17T10:24:06Z</time>
      </trkpt>
      <trkpt lat="43.41903" lon="3.58688">
        <ele>18.8</ele>
        <time>2025-06-17T10:24:07Z</time>
      </trkpt>
      <trkpt lat="43.41905" lon="3.58681">
        <ele>18.6</ele>
        <time>2025-06-17T10:24:08Z</time>
      </trkpt>
      <trkpt lat="43.41905" lon="3.58673">
        <ele>18.6</ele>
        <time>2025-06-17T10:24:09Z</time>
      </trkpt>
      <trkpt lat="43.41905" lon="3.58665">
        <ele>18.6</ele>
        <time>2025-06-17T10:24:10Z</time>
      </trkpt>
      <trkpt lat="43.41904" lon="3.58657">
        <ele>18.8</ele>
        <time>2025-06-17T10:24:11Z</time>
      </trkpt>
      <trkpt lat="43.41904" lon="3.5865">
        <ele>18.8</ele>
        <time>2025-06-17T10:24:12Z</time>
      </trkpt>
      <trkpt lat="43.41903" lon="3.58642">
        <ele>18.8</ele>
        <time>2025-06-17T10:24:13Z</time>
      </trkpt>
      <trkpt lat="43.41902" lon="3.58634">
        <ele>18.8</ele>
        <time>2025-06-17T10:24:14Z</time>
      </trkpt>
      <trkpt lat="43.41901" lon="3.58626">
        <ele>18.8</ele>
        <time>2025-06-17T10:24:15Z</time>
      </trkpt>
      <trkpt lat="43.41901" lon="3.58619">
        <ele>18.8</ele>
        <time>2025-06-17T10:24:16Z</time>
      </trkpt>
      <trkpt lat="43.419" lon="3.58611">
        <ele>18.8</ele>
        <time>2025-06-17T10:24:17Z</time>
      </trkpt>
      <trkpt lat="43.41899" lon="3.58603">
        <ele>18.8</ele>
        <time>2025-06-17T10:24:18Z</time>
      </trkpt>
      <trkpt lat="43.41899" lon="3.58596">
        <ele>18.8</ele>
        <time>2025-06-17T10:24:19Z</time>
      </trkpt>
      <trkpt lat="43.41898" lon="3.58588">
        <ele>18.6</ele>
        <time>2025-06-17T10:24:20Z</time>
      </trkpt>
      <trkpt lat="43.41897" lon="3.5858">
        <ele>18.6</ele>
        <time>2025-06-17T10:24:21Z</time>
      </trkpt>
      <trkpt lat="43.41896" lon="3.58573">
        <ele>18.6</ele>
        <time>2025-06-17T10:24:22Z</time>
      </trkpt>
      <trkpt lat="43.41895" lon="3.58565">
        <ele>18.6</ele>
        <time>2025-06-17T10:24:23Z</time>
      </trkpt>
      <trkpt lat="43.41894" lon="3.58557">
        <ele>18.6</ele>
        <time>2025-06-17T10:24:24Z</time>
      </trkpt>
      <trkpt lat="43.41893" lon="3.5855">
        <ele>18.6</ele>
        <time>2025-06-17T10:24:25Z</time>
      </trkpt>
      <trkpt lat="43.41893" lon="3.58542">
        <ele>18.6</ele>
        <time>2025-06-17T10:24:26Z</time>
      </trkpt>
      <trkpt lat="43.41891" lon="3.58534">
        <ele>18.8</ele>
        <time>2025-06-17T10:24:27Z</time>
      </trkpt>
      <trkpt lat="43.41891" lon="3.58526">
        <ele>18.8</ele>
        <time>2025-06-17T10:24:28Z</time>
      </trkpt>
      <trkpt lat="43.4189" lon="3.58518">
        <ele>18.8</ele>
        <time>2025-06-17T10:24:29Z</time>
      </trkpt>
      <trkpt lat="43.41889" lon="3.5851">
        <ele>18.8</ele>
        <time>2025-06-17T10:24:30Z</time>
      </trkpt>
      <trkpt lat="43.41888" lon="3.58502">
        <ele>18.8</ele>
        <time>2025-06-17T10:24:31Z</time>
      </trkpt>
      <trkpt lat="43.41888" lon="3.58494">
        <ele>18.8</ele>
        <time>2025-06-17T10:24:32Z</time>
      </trkpt>
      <trkpt lat="43.41887" lon="3.58487">
        <ele>18.8</ele>
        <time>2025-06-17T10:24:33Z</time>
      </trkpt>
      <trkpt lat="43.41887" lon="3.5848">
        <ele>18.8</ele>
        <time>2025-06-17T10:24:34Z</time>
      </trkpt>
      <trkpt lat="43.41886" lon="3.58472">
        <ele>18.8</ele>
        <time>2025-06-17T10:24:35Z</time>
      </trkpt>
      <trkpt lat="43.41886" lon="3.58465">
        <ele>18.8</ele>
        <time>2025-06-17T10:24:36Z</time>
      </trkpt>
      <trkpt lat="43.41885" lon="3.58458">
        <ele>18.8</ele>
        <time>2025-06-17T10:24:37Z</time>
      </trkpt>
      <trkpt lat="43.41884" lon="3.58451">
        <ele>18.8</ele>
        <time>2025-06-17T10:24:38Z</time>
      </trkpt>
      <trkpt lat="43.41883" lon="3.58443">
        <ele>19</ele>
        <time>2025-06-17T10:24:39Z</time>
      </trkpt>
      <trkpt lat="43.41881" lon="3.58436">
        <ele>19</ele>
        <time>2025-06-17T10:24:40Z</time>
      </trkpt>
      <trkpt lat="43.4188" lon="3.5843">
        <ele>19</ele>
        <time>2025-06-17T10:24:41Z</time>
      </trkpt>
      <trkpt lat="43.41878" lon="3.58423">
        <ele>19.2</ele>
        <time>2025-06-17T10:24:42Z</time>
      </trkpt>
      <trkpt lat="43.41876" lon="3.58417">
        <ele>19.2</ele>
        <time>2025-06-17T10:24:43Z</time>
      </trkpt>
      <trkpt lat="43.41873" lon="3.58412">
        <ele>19.4</ele>
        <time>2025-06-17T10:24:44Z</time>
      </trkpt>
      <trkpt lat="43.4187" lon="3.58407">
        <ele>19.6</ele>
        <time>2025-06-17T10:24:45Z</time>
      </trkpt>
      <trkpt lat="43.41866" lon="3.58403">
        <ele>19.8</ele>
        <time>2025-06-17T10:24:46Z</time>
      </trkpt>
      <trkpt lat="43.41864" lon="3.58399">
        <ele>20</ele>
        <time>2025-06-17T10:24:47Z</time>
      </trkpt>
      <trkpt lat="43.4186" lon="3.58395">
        <ele>20.2</ele>
        <time>2025-06-17T10:24:48Z</time>
      </trkpt>
      <trkpt lat="43.41857" lon="3.58392">
        <ele>20.4</ele>
        <time>2025-06-17T10:24:49Z</time>
      </trkpt>
      <trkpt lat="43.41854" lon="3.58388">
        <ele>20.6</ele>
        <time>2025-06-17T10:24:50Z</time>
      </trkpt>
      <trkpt lat="43.41852" lon="3.58385">
        <ele>20.8</ele>
        <time>2025-06-17T10:24:51Z</time>
      </trkpt>
      <trkpt lat="43.41849" lon="3.58382">
        <ele>21</ele>
        <time>2025-06-17T10:24:52Z</time>
      </trkpt>
      <trkpt lat="43.41845" lon="3.58379">
        <ele>21</ele>
        <time>2025-06-17T10:24:53Z</time>
      </trkpt>
      <trkpt lat="43.41842" lon="3.58375">
        <ele>21.2</ele>
        <time>2025-06-17T10:24:54Z</time>
      </trkpt>
      <trkpt lat="43.41839" lon="3.58371">
        <ele>21.2</ele>
        <time>2025-06-17T10:24:55Z</time>
      </trkpt>
      <trkpt lat="43.41836" lon="3.58367">
        <ele>21.2</ele>
        <time>2025-06-17T10:24:56Z</time>
      </trkpt>
      <trkpt lat="43.41833" lon="3.58364">
        <ele>21.2</ele>
        <time>2025-06-17T10:24:57Z</time>
      </trkpt>
      <trkpt lat="43.41829" lon="3.5836">
        <ele>21.2</ele>
        <time>2025-06-17T10:24:58Z</time>
      </trkpt>
      <trkpt lat="43.41826" lon="3.58357">
        <ele>21.2</ele>
        <time>2025-06-17T10:24:59Z</time>
      </trkpt>
      <trkpt lat="43.41822" lon="3.58354">
        <ele>21.4</ele>
        <time>2025-06-17T10:25:00Z</time>
      </trkpt>
      <trkpt lat="43.41818" lon="3.5835">
        <ele>21.4</ele>
        <time>2025-06-17T10:25:01Z</time>
      </trkpt>
      <trkpt lat="43.41814" lon="3.58346">
        <ele>21.4</ele>
        <time>2025-06-17T10:25:02Z</time>
      </trkpt>
      <trkpt lat="43.41811" lon="3.58342">
        <ele>21.6</ele>
        <time>2025-06-17T10:25:03Z</time>
      </trkpt>
      <trkpt lat="43.41807" lon="3.58338">
        <ele>21.6</ele>
        <time>2025-06-17T10:25:04Z</time>
      </trkpt>
      <trkpt lat="43.41804" lon="3.58335">
        <ele>21.6</ele>
        <time>2025-06-17T10:25:05Z</time>
      </trkpt>
      <trkpt lat="43.418" lon="3.58331">
        <ele>21.8</ele>
        <time>2025-06-17T10:25:06Z</time>
      </trkpt>
      <trkpt lat="43.41797" lon="3.58328">
        <ele>21.8</ele>
        <time>2025-06-17T10:25:07Z</time>
      </trkpt>
      <trkpt lat="43.41793" lon="3.58325">
        <ele>22</ele>
        <time>2025-06-17T10:25:08Z</time>
      </trkpt>
      <trkpt lat="43.41789" lon="3.58322">
        <ele>22</ele>
        <time>2025-06-17T10:25:09Z</time>
      </trkpt>
      <trkpt lat="43.41786" lon="3.58319">
        <ele>22.2</ele>
        <time>2025-06-17T10:25:10Z</time>
      </trkpt>
      <trkpt lat="43.41782" lon="3.58316">
        <ele>22.4</ele>
        <time>2025-06-17T10:25:11Z</time>
      </trkpt>
      <trkpt lat="43.41779" lon="3.58313">
        <ele>22.4</ele>
        <time>2025-06-17T10:25:12Z</time>
      </trkpt>
      <trkpt lat="43.41775" lon="3.5831">
        <ele>22.6</ele>
        <time>2025-06-17T10:25:13Z</time>
      </trkpt>
      <trkpt lat="43.41772" lon="3.58307">
        <ele>22.8</ele>
        <time>2025-06-17T10:25:14Z</time>
      </trkpt>
      <trkpt lat="43.41769" lon="3.58304">
        <ele>23</ele>
        <time>2025-06-17T10:25:15Z</time>
      </trkpt>
      <trkpt lat="43.41766" lon="3.58301">
        <ele>23</ele>
        <time>2025-06-17T10:25:16Z</time>
      </trkpt>
      <trkpt lat="43.41763" lon="3.58299">
        <ele>23.2</ele>
        <time>2025-06-17T10:25:17Z</time>
      </trkpt>
      <trkpt lat="43.41761" lon="3.58296">
        <ele>23.4</ele>
        <time>2025-06-17T10:25:18Z</time>
      </trkpt>
      <trkpt lat="43.41758" lon="3.58294">
        <ele>23.6</ele>
        <time>2025-06-17T10:25:19Z</time>
      </trkpt>
      <trkpt lat="43.41756" lon="3.58292">
        <ele>23.6</ele>
        <time>2025-06-17T10:25:20Z</time>
      </trkpt>
      <trkpt lat="43.41754" lon="3.58289">
        <ele>23.8</ele>
        <time>2025-06-17T10:25:21Z</time>
      </trkpt>
      <trkpt lat="43.41751" lon="3.58287">
        <ele>24</ele>
        <time>2025-06-17T10:25:22Z</time>
      </trkpt>
      <trkpt lat="43.41749" lon="3.58285">
        <ele>24.2</ele>
        <time>2025-06-17T10:25:23Z</time>
      </trkpt>
      <trkpt lat="43.41747" lon="3.58282">
        <ele>24.4</ele>
        <time>2025-06-17T10:25:24Z</time>
      </trkpt>
      <trkpt lat="43.41745" lon="3.58279">
        <ele>24.6</ele>
        <time>2025-06-17T10:25:25Z</time>
      </trkpt>
      <trkpt lat="43.41743" lon="3.58277">
        <ele>24.8</ele>
        <time>2025-06-17T10:25:26Z</time>
      </trkpt>
      <trkpt lat="43.41741" lon="3.58274">
        <ele>25</ele>
        <time>2025-06-17T10:25:27Z</time>
      </trkpt>
      <trkpt lat="43.4174" lon="3.58271">
        <ele>25.2</ele>
        <time>2025-06-17T10:25:28Z</time>
      </trkpt>
      <trkpt lat="43.41738" lon="3.58268">
        <ele>25.4</ele>
        <time>2025-06-17T10:25:29Z</time>
      </trkpt>
      <trkpt lat="43.41737" lon="3.58266">
        <ele>25.6</ele>
        <time>2025-06-17T10:25:30Z</time>
      </trkpt>
      <trkpt lat="43.41735" lon="3.58263">
        <ele>25.8</ele>
        <time>2025-06-17T10:25:31Z</time>
      </trkpt>
      <trkpt lat="43.41733" lon="3.5826">
        <ele>26</ele>
        <time>2025-06-17T10:25:32Z</time>
      </trkpt>
      <trkpt lat="43.41732" lon="3.58257">
        <ele>26</ele>
        <time>2025-06-17T10:25:33Z</time>
      </trkpt>
      <trkpt lat="43.4173" lon="3.58254">
        <ele>26.2</ele>
        <time>2025-06-17T10:25:34Z</time>
      </trkpt>
      <trkpt lat="43.41728" lon="3.58251">
        <ele>26.4</ele>
        <time>2025-06-17T10:25:35Z</time>
      </trkpt>
      <trkpt lat="43.41727" lon="3.58248">
        <ele>26.4</ele>
        <time>2025-06-17T10:25:36Z</time>
      </trkpt>
      <trkpt lat="43.41725" lon="3.58245">
        <ele>26.6</ele>
        <time>2025-06-17T10:25:37Z</time>
      </trkpt>
      <trkpt lat="43.41724" lon="3.58242">
        <ele>26.8</ele>
        <time>2025-06-17T10:25:38Z</time>
      </trkpt>
      <trkpt lat="43.41722" lon="3.58239">
        <ele>26.8</ele>
        <time>2025-06-17T10:25:39Z</time>
      </trkpt>
      <trkpt lat="43.41721" lon="3.58235">
        <ele>26.8</ele>
        <time>2025-06-17T10:25:40Z</time>
      </trkpt>
      <trkpt lat="43.41719" lon="3.58232">
        <ele>27</ele>
        <time>2025-06-17T10:25:41Z</time>
      </trkpt>
      <trkpt lat="43.41717" lon="3.58229">
        <ele>27</ele>
        <time>2025-06-17T10:25:42Z</time>
      </trkpt>
      <trkpt lat="43.41716" lon="3.58225">
        <ele>27</ele>
        <time>2025-06-17T10:25:43Z</time>
      </trkpt>
      <trkpt lat="43.41714" lon="3.58222">
        <ele>27.2</ele>
        <time>2025-06-17T10:25:44Z</time>
      </trkpt>
      <trkpt lat="43.41713" lon="3.58218">
        <ele>27.2</ele>
        <time>2025-06-17T10:25:45Z</time>
      </trkpt>
      <trkpt lat="43.41711" lon="3.58214">
        <ele>27.2</ele>
        <time>2025-06-17T10:25:46Z</time>
      </trkpt>
      <trkpt lat="43.4171" lon="3.58211">
        <ele>27.4</ele>
        <time>2025-06-17T10:25:47Z</time>
      </trkpt>
      <trkpt lat="43.41709" lon="3.58207">
        <ele>27.4</ele>
        <time>2025-06-17T10:25:48Z</time>
      </trkpt>
      <trkpt lat="43.41707" lon="3.58203">
        <ele>27.4</ele>
        <time>2025-06-17T10:25:49Z</time>
      </trkpt>
      <trkpt lat="43.41706" lon="3.58199">
        <ele>27.6</ele>
        <time>2025-06-17T10:25:50Z</time>
      </trkpt>
      <trkpt lat="43.41705" lon="3.58195">
        <ele>27.6</ele>
        <time>2025-06-17T10:25:51Z</time>
      </trkpt>
      <trkpt lat="43.41704" lon="3.58191">
        <ele>27.6</ele>
        <time>2025-06-17T10:25:52Z</time>
      </trkpt>
      <trkpt lat="43.41703" lon="3.58187">
        <ele>27.6</ele>
        <time>2025-06-17T10:25:53Z</time>
      </trkpt>
      <trkpt lat="43.41702" lon="3.58182">
        <ele>27.8</ele>
        <time>2025-06-17T10:25:54Z</time>
      </trkpt>
      <trkpt lat="43.41701" lon="3.58178">
        <ele>27.8</ele>
        <time>2025-06-17T10:25:55Z</time>
      </trkpt>
      <trkpt lat="43.417" lon="3.58174">
        <ele>27.8</ele>
        <time>2025-06-17T10:25:56Z</time>
      </trkpt>
      <trkpt lat="43.417" lon="3.58169">
        <ele>28</ele>
        <time>2025-06-17T10:25:57Z</time>
      </trkpt>
      <trkpt lat="43.41699" lon="3.58165">
        <ele>28</ele>
        <time>2025-06-17T10:25:58Z</time>
      </trkpt>
      <trkpt lat="43.41698" lon="3.5816">
        <ele>28</ele>
        <time>2025-06-17T10:25:59Z</time>
      </trkpt>
      <trkpt lat="43.41697" lon="3.58156">
        <ele>28</ele>
        <time>2025-06-17T10:26:00Z</time>
      </trkpt>
      <trkpt lat="43.41696" lon="3.58152">
        <ele>28</ele>
        <time>2025-06-17T10:26:01Z</time>
      </trkpt>
      <trkpt lat="43.41696" lon="3.58147">
        <ele>28</ele>
        <time>2025-06-17T10:26:02Z</time>
      </trkpt>
      <trkpt lat="43.41695" lon="3.58142">
        <ele>28.2</ele>
        <time>2025-06-17T10:26:03Z</time>
      </trkpt>
      <trkpt lat="43.41694" lon="3.58137">
        <ele>28.2</ele>
        <time>2025-06-17T10:26:04Z</time>
      </trkpt>
      <trkpt lat="43.41694" lon="3.58133">
        <ele>28.2</ele>
        <time>2025-06-17T10:26:05Z</time>
      </trkpt>
      <trkpt lat="43.41693" lon="3.58128">
        <ele>28.2</ele>
        <time>2025-06-17T10:26:06Z</time>
      </trkpt>
      <trkpt lat="43.41692" lon="3.58124">
        <ele>28.4</ele>
        <time>2025-06-17T10:26:07Z</time>
      </trkpt>
      <trkpt lat="43.41692" lon="3.58119">
        <ele>28.4</ele>
        <time>2025-06-17T10:26:08Z</time>
      </trkpt>
      <trkpt lat="43.41691" lon="3.58115">
        <ele>28.6</ele>
        <time>2025-06-17T10:26:09Z</time>
      </trkpt>
      <trkpt lat="43.4169" lon="3.5811">
        <ele>28.6</ele>
        <time>2025-06-17T10:26:10Z</time>
      </trkpt>
      <trkpt lat="43.4169" lon="3.58105">
        <ele>28.6</ele>
        <time>2025-06-17T10:26:11Z</time>
      </trkpt>
      <trkpt lat="43.41689" lon="3.581">
        <ele>28.8</ele>
        <time>2025-06-17T10:26:12Z</time>
      </trkpt>
      <trkpt lat="43.41688" lon="3.58096">
        <ele>28.8</ele>
        <time>2025-06-17T10:26:13Z</time>
      </trkpt>
      <trkpt lat="43.41687" lon="3.58091">
        <ele>28.8</ele>
        <time>2025-06-17T10:26:14Z</time>
      </trkpt>
      <trkpt lat="43.41686" lon="3.58086">
        <ele>28.8</ele>
        <time>2025-06-17T10:26:15Z</time>
      </trkpt>
      <trkpt lat="43.41685" lon="3.58081">
        <ele>29</ele>
        <time>2025-06-17T10:26:16Z</time>
      </trkpt>
      <trkpt lat="43.41684" lon="3.58076">
        <ele>29</ele>
        <time>2025-06-17T10:26:17Z</time>
      </trkpt>
      <trkpt lat="43.41683" lon="3.58071">
        <ele>29</ele>
        <time>2025-06-17T10:26:18Z</time>
      </trkpt>
      <trkpt lat="43.41682" lon="3.58066">
        <ele>29.2</ele>
        <time>2025-06-17T10:26:19Z</time>
      </trkpt>
      <trkpt lat="43.41682" lon="3.58061">
        <ele>29.2</ele>
        <time>2025-06-17T10:26:20Z</time>
      </trkpt>
      <trkpt lat="43.41681" lon="3.58055">
        <ele>29.2</ele>
        <time>2025-06-17T10:26:21Z</time>
      </trkpt>
      <trkpt lat="43.4168" lon="3.5805">
        <ele>29.4</ele>
        <time>2025-06-17T10:26:22Z</time>
      </trkpt>
      <trkpt lat="43.4168" lon="3.58045">
        <ele>29.4</ele>
        <time>2025-06-17T10:26:23Z</time>
      </trkpt>
      <trkpt lat="43.41679" lon="3.5804">
        <ele>29.4</ele>
        <time>2025-06-17T10:26:24Z</time>
      </trkpt>
      <trkpt lat="43.41679" lon="3.58035">
        <ele>29.6</ele>
        <time>2025-06-17T10:26:25Z</time>
      </trkpt>
      <trkpt lat="43.41678" lon="3.5803">
        <ele>29.6</ele>
        <time>2025-06-17T10:26:26Z</time>
      </trkpt>
      <trkpt lat="43.41677" lon="3.58025">
        <ele>29.8</ele>
        <time>2025-06-17T10:26:27Z</time>
      </trkpt>
      <trkpt lat="43.41677" lon="3.58019">
        <ele>29.8</ele>
        <time>2025-06-17T10:26:28Z</time>
      </trkpt>
      <trkpt lat="43.41676" lon="3.58014">
        <ele>30</ele>
        <time>2025-06-17T10:26:29Z</time>
      </trkpt>
      <trkpt lat="43.41676" lon="3.58009">
        <ele>30</ele>
        <time>2025-06-17T10:26:30Z</time>
      </trkpt>
      <trkpt lat="43.41676" lon="3.58004">
        <ele>30.2</ele>
        <time>2025-06-17T10:26:31Z</time>
      </trkpt>
      <trkpt lat="43.41675" lon="3.57999">
        <ele>30.2</ele>
        <time>2025-06-17T10:26:32Z</time>
      </trkpt>
      <trkpt lat="43.41674" lon="3.57994">
        <ele>30.4</ele>
        <time>2025-06-17T10:26:33Z</time>
      </trkpt>
      <trkpt lat="43.41674" lon="3.57988">
        <ele>30.4</ele>
        <time>2025-06-17T10:26:34Z</time>
      </trkpt>
      <trkpt lat="43.41674" lon="3.57983">
        <ele>30.6</ele>
        <time>2025-06-17T10:26:35Z</time>
      </trkpt>
      <trkpt lat="43.41674" lon="3.57978">
        <ele>30.6</ele>
        <time>2025-06-17T10:26:36Z</time>
      </trkpt>
      <trkpt lat="43.41673" lon="3.57973">
        <ele>30.8</ele>
        <time>2025-06-17T10:26:37Z</time>
      </trkpt>
      <trkpt lat="43.41672" lon="3.57968">
        <ele>30.8</ele>
        <time>2025-06-17T10:26:38Z</time>
      </trkpt>
      <trkpt lat="43.41672" lon="3.57962">
        <ele>31</ele>
        <time>2025-06-17T10:26:39Z</time>
      </trkpt>
      <trkpt lat="43.41671" lon="3.57957">
        <ele>31.2</ele>
        <time>2025-06-17T10:26:40Z</time>
      </trkpt>
      <trkpt lat="43.41671" lon="3.57952">
        <ele>31.2</ele>
        <time>2025-06-17T10:26:41Z</time>
      </trkpt>
      <trkpt lat="43.4167" lon="3.57947">
        <ele>31.4</ele>
        <time>2025-06-17T10:26:42Z</time>
      </trkpt>
      <trkpt lat="43.4167" lon="3.57941">
        <ele>31.4</ele>
        <time>2025-06-17T10:26:43Z</time>
      </trkpt>
      <trkpt lat="43.41669" lon="3.57936">
        <ele>31.4</ele>
        <time>2025-06-17T10:26:44Z</time>
      </trkpt>
      <trkpt lat="43.41668" lon="3.5793">
        <ele>31.6</ele>
        <time>2025-06-17T10:26:45Z</time>
      </trkpt>
      <trkpt lat="43.41668" lon="3.57925">
        <ele>31.6</ele>
        <time>2025-06-17T10:26:46Z</time>
      </trkpt>
      <trkpt lat="43.41667" lon="3.5792">
        <ele>31.6</ele>
        <time>2025-06-17T10:26:47Z</time>
      </trkpt>
      <trkpt lat="43.41666" lon="3.57914">
        <ele>31.8</ele>
        <time>2025-06-17T10:26:48Z</time>
      </trkpt>
      <trkpt lat="43.41665" lon="3.57909">
        <ele>31.8</ele>
        <time>2025-06-17T10:26:49Z</time>
      </trkpt>
      <trkpt lat="43.41664" lon="3.57904">
        <ele>31.8</ele>
        <time>2025-06-17T10:26:50Z</time>
      </trkpt>
      <trkpt lat="43.41664" lon="3.57899">
        <ele>31.8</ele>
        <time>2025-06-17T10:26:51Z</time>
      </trkpt>
      <trkpt lat="43.41663" lon="3.57895">
        <ele>32</ele>
        <time>2025-06-17T10:26:52Z</time>
      </trkpt>
      <trkpt lat="43.41663" lon="3.5789">
        <ele>32</ele>
        <time>2025-06-17T10:26:53Z</time>
      </trkpt>
      <trkpt lat="43.41662" lon="3.57887">
        <ele>32</ele>
        <time>2025-06-17T10:26:54Z</time>
      </trkpt>
      <trkpt lat="43.41661" lon="3.57883">
        <ele>32</ele>
        <time>2025-06-17T10:26:55Z</time>
      </trkpt>
      <trkpt lat="43.41661" lon="3.57879">
        <ele>32</ele>
        <time>2025-06-17T10:26:56Z</time>
      </trkpt>
      <trkpt lat="43.41661" lon="3.57875">
        <ele>32.2</ele>
        <time>2025-06-17T10:26:57Z</time>
      </trkpt>
      <trkpt lat="43.4166" lon="3.57871">
        <ele>32.2</ele>
        <time>2025-06-17T10:26:58Z</time>
      </trkpt>
      <trkpt lat="43.41659" lon="3.57866">
        <ele>32.2</ele>
        <time>2025-06-17T10:26:59Z</time>
      </trkpt>
      <trkpt lat="43.41658" lon="3.57861">
        <ele>32.4</ele>
        <time>2025-06-17T10:27:00Z</time>
      </trkpt>
      <trkpt lat="43.41656" lon="3.57857">
        <ele>32.4</ele>
        <time>2025-06-17T10:27:01Z</time>
      </trkpt>
      <trkpt lat="43.41655" lon="3.57851">
        <ele>32.4</ele>
        <time>2025-06-17T10:27:02Z</time>
      </trkpt>
      <trkpt lat="43.41654" lon="3.57846">
        <ele>32.4</ele>
        <time>2025-06-17T10:27:03Z</time>
      </trkpt>
      <trkpt lat="43.41652" lon="3.57841">
        <ele>32.6</ele>
        <time>2025-06-17T10:27:04Z</time>
      </trkpt>
      <trkpt lat="43.4165" lon="3.57836">
        <ele>32.6</ele>
        <time>2025-06-17T10:27:05Z</time>
      </trkpt>
      <trkpt lat="43.41649" lon="3.57831">
        <ele>32.6</ele>
        <time>2025-06-17T10:27:06Z</time>
      </trkpt>
      <trkpt lat="43.41647" lon="3.57825">
        <ele>32.6</ele>
        <time>2025-06-17T10:27:07Z</time>
      </trkpt>
      <trkpt lat="43.41646" lon="3.5782">
        <ele>32.6</ele>
        <time>2025-06-17T10:27:08Z</time>
      </trkpt>
      <trkpt lat="43.41644" lon="3.57815">
        <ele>32.6</ele>
        <time>2025-06-17T10:27:09Z</time>
      </trkpt>
      <trkpt lat="43.41642" lon="3.5781">
        <ele>32.6</ele>
        <time>2025-06-17T10:27:10Z</time>
      </trkpt>
      <trkpt lat="43.4164" lon="3.57804">
        <ele>32.6</ele>
        <time>2025-06-17T10:27:11Z</time>
      </trkpt>
      <trkpt lat="43.41638" lon="3.57799">
        <ele>32.6</ele>
        <time>2025-06-17T10:27:12Z</time>
      </trkpt>
      <trkpt lat="43.41636" lon="3.57794">
        <ele>32.6</ele>
        <time>2025-06-17T10:27:13Z</time>
      </trkpt>
      <trkpt lat="43.41634" lon="3.57788">
        <ele>32.8</ele>
        <time>2025-06-17T10:27:14Z</time>
      </trkpt>
      <trkpt lat="43.41632" lon="3.57782">
        <ele>32.8</ele>
        <time>2025-06-17T10:27:15Z</time>
      </trkpt>
      <trkpt lat="43.4163" lon="3.57777">
        <ele>32.8</ele>
        <time>2025-06-17T10:27:16Z</time>
      </trkpt>
      <trkpt lat="43.41627" lon="3.57772">
        <ele>32.8</ele>
        <time>2025-06-17T10:27:17Z</time>
      </trkpt>
      <trkpt lat="43.41625" lon="3.57766">
        <ele>32.8</ele>
        <time>2025-06-17T10:27:18Z</time>
      </trkpt>
      <trkpt lat="43.41622" lon="3.57761">
        <ele>33</ele>
        <time>2025-06-17T10:27:19Z</time>
      </trkpt>
      <trkpt lat="43.4162" lon="3.57756">
        <ele>33</ele>
        <time>2025-06-17T10:27:20Z</time>
      </trkpt>
      <trkpt lat="43.41618" lon="3.5775">
        <ele>33</ele>
        <time>2025-06-17T10:27:21Z</time>
      </trkpt>
      <trkpt lat="43.41615" lon="3.57745">
        <ele>33</ele>
        <time>2025-06-17T10:27:22Z</time>
      </trkpt>
      <trkpt lat="43.41612" lon="3.5774">
        <ele>33</ele>
        <time>2025-06-17T10:27:23Z</time>
      </trkpt>
      <trkpt lat="43.41609" lon="3.57736">
        <ele>33.2</ele>
        <time>2025-06-17T10:27:24Z</time>
      </trkpt>
      <trkpt lat="43.41606" lon="3.57731">
        <ele>33.2</ele>
        <time>2025-06-17T10:27:25Z</time>
      </trkpt>
      <trkpt lat="43.41603" lon="3.57726">
        <ele>33.2</ele>
        <time>2025-06-17T10:27:26Z</time>
      </trkpt>
      <trkpt lat="43.416" lon="3.57722">
        <ele>33.2</ele>
        <time>2025-06-17T10:27:27Z</time>
      </trkpt>
      <trkpt lat="43.41597" lon="3.57719">
        <ele>33.2</ele>
        <time>2025-06-17T10:27:28Z</time>
      </trkpt>
      <trkpt lat="43.41593" lon="3.57714">
        <ele>33.2</ele>
        <time>2025-06-17T10:27:29Z</time>
      </trkpt>
      <trkpt lat="43.4159" lon="3.5771">
        <ele>33.2</ele>
        <time>2025-06-17T10:27:30Z</time>
      </trkpt>
      <trkpt lat="43.41587" lon="3.57707">
        <ele>33.2</ele>
        <time>2025-06-17T10:27:31Z</time>
      </trkpt>
      <trkpt lat="43.41584" lon="3.57703">
        <ele>33.4</ele>
        <time>2025-06-17T10:27:32Z</time>
      </trkpt>
      <trkpt lat="43.4158" lon="3.57699">
        <ele>33.4</ele>
        <time>2025-06-17T10:27:33Z</time>
      </trkpt>
      <trkpt lat="43.41577" lon="3.57695">
        <ele>33.4</ele>
        <time>2025-06-17T10:27:34Z</time>
      </trkpt>
      <trkpt lat="43.41573" lon="3.57691">
        <ele>33.4</ele>
        <time>2025-06-17T10:27:35Z</time>
      </trkpt>
      <trkpt lat="43.4157" lon="3.57687">
        <ele>33.6</ele>
        <time>2025-06-17T10:27:36Z</time>
      </trkpt>
      <trkpt lat="43.41567" lon="3.57682">
        <ele>33.6</ele>
        <time>2025-06-17T10:27:37Z</time>
      </trkpt>
      <trkpt lat="43.41564" lon="3.57678">
        <ele>33.6</ele>
        <time>2025-06-17T10:27:38Z</time>
      </trkpt>
      <trkpt lat="43.41561" lon="3.57674">
        <ele>33.6</ele>
        <time>2025-06-17T10:27:39Z</time>
      </trkpt>
      <trkpt lat="43.41557" lon="3.5767">
        <ele>33.6</ele>
        <time>2025-06-17T10:27:40Z</time>
      </trkpt>
      <trkpt lat="43.41554" lon="3.57666">
        <ele>33.6</ele>
        <time>2025-06-17T10:27:41Z</time>
      </trkpt>
      <trkpt lat="43.4155" lon="3.57661">
        <ele>33.6</ele>
        <time>2025-06-17T10:27:42Z</time>
      </trkpt>
      <trkpt lat="43.41547" lon="3.57656">
        <ele>33.4</ele>
        <time>2025-06-17T10:27:43Z</time>
      </trkpt>
      <trkpt lat="43.41543" lon="3.57651">
        <ele>33.4</ele>
        <time>2025-06-17T10:27:44Z</time>
      </trkpt>
      <trkpt lat="43.41539" lon="3.57646">
        <ele>33.4</ele>
        <time>2025-06-17T10:27:45Z</time>
      </trkpt>
      <trkpt lat="43.41536" lon="3.57642">
        <ele>33.4</ele>
        <time>2025-06-17T10:27:46Z</time>
      </trkpt>
      <trkpt lat="43.41532" lon="3.57637">
        <ele>33.4</ele>
        <time>2025-06-17T10:27:47Z</time>
      </trkpt>
      <trkpt lat="43.41528" lon="3.57632">
        <ele>33.4</ele>
        <time>2025-06-17T10:27:48Z</time>
      </trkpt>
      <trkpt lat="43.41524" lon="3.57628">
        <ele>33.2</ele>
        <time>2025-06-17T10:27:49Z</time>
      </trkpt>
      <trkpt lat="43.41521" lon="3.57623">
        <ele>33.2</ele>
        <time>2025-06-17T10:27:50Z</time>
      </trkpt>
      <trkpt lat="43.41517" lon="3.57617">
        <ele>33.2</ele>
        <time>2025-06-17T10:27:51Z</time>
      </trkpt>
      <trkpt lat="43.41513" lon="3.57612">
        <ele>33</ele>
        <time>2025-06-17T10:27:52Z</time>
      </trkpt>
      <trkpt lat="43.41509" lon="3.57607">
        <ele>32.8</ele>
        <time>2025-06-17T10:27:53Z</time>
      </trkpt>
      <trkpt lat="43.41505" lon="3.57602">
        <ele>32.8</ele>
        <time>2025-06-17T10:27:54Z</time>
      </trkpt>
      <trkpt lat="43.41501" lon="3.57597">
        <ele>32.6</ele>
        <time>2025-06-17T10:27:55Z</time>
      </trkpt>
      <trkpt lat="43.41497" lon="3.57592">
        <ele>32.4</ele>
        <time>2025-06-17T10:27:56Z</time>
      </trkpt>
      <trkpt lat="43.41492" lon="3.57587">
        <ele>32.4</ele>
        <time>2025-06-17T10:27:57Z</time>
      </trkpt>
      <trkpt lat="43.41488" lon="3.57581">
        <ele>32.4</ele>
        <time>2025-06-17T10:27:58Z</time>
      </trkpt>
      <trkpt lat="43.41484" lon="3.57575">
        <ele>32.2</ele>
        <time>2025-06-17T10:27:59Z</time>
      </trkpt>
      <trkpt lat="43.4148" lon="3.5757">
        <ele>32</ele>
        <time>2025-06-17T10:28:00Z</time>
      </trkpt>
      <trkpt lat="43.41476" lon="3.57564">
        <ele>31.8</ele>
        <time>2025-06-17T10:28:01Z</time>
      </trkpt>
      <trkpt lat="43.41472" lon="3.57558">
        <ele>31.6</ele>
        <time>2025-06-17T10:28:02Z</time>
      </trkpt>
      <trkpt lat="43.41467" lon="3.57553">
        <ele>31.4</ele>
        <time>2025-06-17T10:28:03Z</time>
      </trkpt>
      <trkpt lat="43.41463" lon="3.57547">
        <ele>31.2</ele>
        <time>2025-06-17T10:28:04Z</time>
      </trkpt>
      <trkpt lat="43.41458" lon="3.57541">
        <ele>31</ele>
        <time>2025-06-17T10:28:05Z</time>
      </trkpt>
      <trkpt lat="43.41454" lon="3.57534">
        <ele>31</ele>
        <time>2025-06-17T10:28:06Z</time>
      </trkpt>
      <trkpt lat="43.41449" lon="3.57529">
        <ele>30.8</ele>
        <time>2025-06-17T10:28:07Z</time>
      </trkpt>
      <trkpt lat="43.41444" lon="3.57522">
        <ele>30.6</ele>
        <time>2025-06-17T10:28:08Z</time>
      </trkpt>
      <trkpt lat="43.41439" lon="3.57516">
        <ele>30.6</ele>
        <time>2025-06-17T10:28:09Z</time>
      </trkpt>
      <trkpt lat="43.41434" lon="3.5751">
        <ele>30.4</ele>
        <time>2025-06-17T10:28:10Z</time>
      </trkpt>
      <trkpt lat="43.4143" lon="3.57504">
        <ele>30.2</ele>
        <time>2025-06-17T10:28:11Z</time>
      </trkpt>
      <trkpt lat="43.41425" lon="3.57497">
        <ele>30.2</ele>
        <time>2025-06-17T10:28:12Z</time>
      </trkpt>
      <trkpt lat="43.4142" lon="3.57491">
        <ele>30</ele>
        <time>2025-06-17T10:28:13Z</time>
      </trkpt>
      <trkpt lat="43.41415" lon="3.57485">
        <ele>29.8</ele>
        <time>2025-06-17T10:28:14Z</time>
      </trkpt>
      <trkpt lat="43.4141" lon="3.57479">
        <ele>29.8</ele>
        <time>2025-06-17T10:28:15Z</time>
      </trkpt>
      <trkpt lat="43.41405" lon="3.57473">
        <ele>29.6</ele>
        <time>2025-06-17T10:28:16Z</time>
      </trkpt>
      <trkpt lat="43.414" lon="3.57467">
        <ele>29.4</ele>
        <time>2025-06-17T10:28:17Z</time>
      </trkpt>
      <trkpt lat="43.41395" lon="3.5746">
        <ele>29.2</ele>
        <time>2025-06-17T10:28:18Z</time>
      </trkpt>
      <trkpt lat="43.4139" lon="3.57453">
        <ele>29.2</ele>
        <time>2025-06-17T10:28:19Z</time>
      </trkpt>
      <trkpt lat="43.41385" lon="3.57447">
        <ele>29.2</ele>
        <time>2025-06-17T10:28:20Z</time>
      </trkpt>
      <trkpt lat="43.4138" lon="3.57441">
        <ele>29</ele>
        <time>2025-06-17T10:28:21Z</time>
      </trkpt>
      <trkpt lat="43.41374" lon="3.57436">
        <ele>29</ele>
        <time>2025-06-17T10:28:22Z</time>
      </trkpt>
      <trkpt lat="43.41369" lon="3.57431">
        <ele>28.8</ele>
        <time>2025-06-17T10:28:23Z</time>
      </trkpt>
      <trkpt lat="43.41363" lon="3.57426">
        <ele>28.8</ele>
        <time>2025-06-17T10:28:24Z</time>
      </trkpt>
      <trkpt lat="43.41358" lon="3.57421">
        <ele>28.6</ele>
        <time>2025-06-17T10:28:25Z</time>
      </trkpt>
      <trkpt lat="43.41352" lon="3.57416">
        <ele>28.6</ele>
        <time>2025-06-17T10:28:26Z</time>
      </trkpt>
      <trkpt lat="43.41346" lon="3.5741">
        <ele>28.6</ele>
        <time>2025-06-17T10:28:27Z</time>
      </trkpt>
      <trkpt lat="43.41341" lon="3.57405">
        <ele>28.4</ele>
        <time>2025-06-17T10:28:28Z</time>
      </trkpt>
      <trkpt lat="43.41335" lon="3.574">
        <ele>28.4</ele>
        <time>2025-06-17T10:28:29Z</time>
      </trkpt>
      <trkpt lat="43.41331" lon="3.57396">
        <ele>28.4</ele>
        <time>2025-06-17T10:28:30Z</time>
      </trkpt>
      <trkpt lat="43.41324" lon="3.5739">
        <ele>28.2</ele>
        <time>2025-06-17T10:28:31Z</time>
      </trkpt>
      <trkpt lat="43.41319" lon="3.57385">
        <ele>28.2</ele>
        <time>2025-06-17T10:28:32Z</time>
      </trkpt>
      <trkpt lat="43.41314" lon="3.5738">
        <ele>28.2</ele>
        <time>2025-06-17T10:28:33Z</time>
      </trkpt>
      <trkpt lat="43.41308" lon="3.57374">
        <ele>28</ele>
        <time>2025-06-17T10:28:34Z</time>
      </trkpt>
      <trkpt lat="43.41302" lon="3.57369">
        <ele>28</ele>
        <time>2025-06-17T10:28:35Z</time>
      </trkpt>
      <trkpt lat="43.41296" lon="3.57364">
        <ele>27.8</ele>
        <time>2025-06-17T10:28:36Z</time>
      </trkpt>
      <trkpt lat="43.41291" lon="3.57358">
        <ele>27.8</ele>
        <time>2025-06-17T10:28:37Z</time>
      </trkpt>
      <trkpt lat="43.41285" lon="3.57354">
        <ele>27.8</ele>
        <time>2025-06-17T10:28:38Z</time>
      </trkpt>
      <trkpt lat="43.41279" lon="3.57348">
        <ele>27.6</ele>
        <time>2025-06-17T10:28:39Z</time>
      </trkpt>
      <trkpt lat="43.41273" lon="3.57343">
        <ele>27.6</ele>
        <time>2025-06-17T10:28:40Z</time>
      </trkpt>
      <trkpt lat="43.41267" lon="3.57337">
        <ele>27.4</ele>
        <time>2025-06-17T10:28:41Z</time>
      </trkpt>
      <trkpt lat="43.41262" lon="3.57332">
        <ele>27.2</ele>
        <time>2025-06-17T10:28:42Z</time>
      </trkpt>
      <trkpt lat="43.41256" lon="3.57327">
        <ele>27.2</ele>
        <time>2025-06-17T10:28:43Z</time>
      </trkpt>
      <trkpt lat="43.4125" lon="3.57321">
        <ele>26.8</ele>
        <time>2025-06-17T10:28:44Z</time>
      </trkpt>
      <trkpt lat="43.41244" lon="3.57316">
        <ele>26.4</ele>
        <time>2025-06-17T10:28:45Z</time>
      </trkpt>
      <trkpt lat="43.41238" lon="3.57311">
        <ele>26.2</ele>
        <time>2025-06-17T10:28:46Z</time>
      </trkpt>
      <trkpt lat="43.41233" lon="3.57305">
        <ele>26</ele>
        <time>2025-06-17T10:28:47Z</time>
      </trkpt>
      <trkpt lat="43.41228" lon="3.57299">
        <ele>25.8</ele>
        <time>2025-06-17T10:28:48Z</time>
      </trkpt>
      <trkpt lat="43.41222" lon="3.57293">
        <ele>25.6</ele>
        <time>2025-06-17T10:28:49Z</time>
      </trkpt>
      <trkpt lat="43.41218" lon="3.57287">
        <ele>25.4</ele>
        <time>2025-06-17T10:28:50Z</time>
      </trkpt>
      <trkpt lat="43.41212" lon="3.5728">
        <ele>25.2</ele>
        <time>2025-06-17T10:28:51Z</time>
      </trkpt>
      <trkpt lat="43.41207" lon="3.57273">
        <ele>24.8</ele>
        <time>2025-06-17T10:28:52Z</time>
      </trkpt>
      <trkpt lat="43.41202" lon="3.57267">
        <ele>24.6</ele>
        <time>2025-06-17T10:28:53Z</time>
      </trkpt>
      <trkpt lat="43.41196" lon="3.5726">
        <ele>24.2</ele>
        <time>2025-06-17T10:28:54Z</time>
      </trkpt>
      <trkpt lat="43.41191" lon="3.57252">
        <ele>24</ele>
        <time>2025-06-17T10:28:55Z</time>
      </trkpt>
      <trkpt lat="43.41186" lon="3.57245">
        <ele>23.6</ele>
        <time>2025-06-17T10:28:56Z</time>
      </trkpt>
      <trkpt lat="43.4118" lon="3.57238">
        <ele>23.2</ele>
        <time>2025-06-17T10:28:57Z</time>
      </trkpt>
      <trkpt lat="43.41173" lon="3.57229">
        <ele>22.8</ele>
        <time>2025-06-17T10:28:58Z</time>
      </trkpt>
      <trkpt lat="43.41166" lon="3.57221">
        <ele>22.4</ele>
        <time>2025-06-17T10:28:59Z</time>
      </trkpt>
      <trkpt lat="43.4116" lon="3.57214">
        <ele>22</ele>
        <time>2025-06-17T10:29:00Z</time>
      </trkpt>
      <trkpt lat="43.41154" lon="3.57206">
        <ele>21.8</ele>
        <time>2025-06-17T10:29:01Z</time>
      </trkpt>
      <trkpt lat="43.41147" lon="3.57198">
        <ele>21.4</ele>
        <time>2025-06-17T10:29:02Z</time>
      </trkpt>
      <trkpt lat="43.41141" lon="3.57191">
        <ele>21.2</ele>
        <time>2025-06-17T10:29:03Z</time>
      </trkpt>
      <trkpt lat="43.41135" lon="3.57182">
        <ele>20.8</ele>
        <time>2025-06-17T10:29:04Z</time>
      </trkpt>
      <trkpt lat="43.41129" lon="3.57175">
        <ele>20.6</ele>
        <time>2025-06-17T10:29:05Z</time>
      </trkpt>
      <trkpt lat="43.41123" lon="3.57167">
        <ele>20.4</ele>
        <time>2025-06-17T10:29:06Z</time>
      </trkpt>
      <trkpt lat="43.41117" lon="3.57159">
        <ele>20.2</ele>
        <time>2025-06-17T10:29:07Z</time>
      </trkpt>
      <trkpt lat="43.41111" lon="3.57152">
        <ele>20</ele>
        <time>2025-06-17T10:29:08Z</time>
      </trkpt>
      <trkpt lat="43.41104" lon="3.57144">
        <ele>19.8</ele>
        <time>2025-06-17T10:29:09Z</time>
      </trkpt>
      <trkpt lat="43.41099" lon="3.57137">
        <ele>19.6</ele>
        <time>2025-06-17T10:29:10Z</time>
      </trkpt>
      <trkpt lat="43.41093" lon="3.5713">
        <ele>19.6</ele>
        <time>2025-06-17T10:29:11Z</time>
      </trkpt>
      <trkpt lat="43.41088" lon="3.57123">
        <ele>19.4</ele>
        <time>2025-06-17T10:29:12Z</time>
      </trkpt>
      <trkpt lat="43.41082" lon="3.57116">
        <ele>19.4</ele>
        <time>2025-06-17T10:29:13Z</time>
      </trkpt>
      <trkpt lat="43.41077" lon="3.5711">
        <ele>19.4</ele>
        <time>2025-06-17T10:29:14Z</time>
      </trkpt>
      <trkpt lat="43.41072" lon="3.57103">
        <ele>19.4</ele>
        <time>2025-06-17T10:29:15Z</time>
      </trkpt>
      <trkpt lat="43.41067" lon="3.57096">
        <ele>19.4</ele>
        <time>2025-06-17T10:29:16Z</time>
      </trkpt>
      <trkpt lat="43.41062" lon="3.57089">
        <ele>19.4</ele>
        <time>2025-06-17T10:29:17Z</time>
      </trkpt>
      <trkpt lat="43.41057" lon="3.57083">
        <ele>19.4</ele>
        <time>2025-06-17T10:29:18Z</time>
      </trkpt>
      <trkpt lat="43.41052" lon="3.57076">
        <ele>19.4</ele>
        <time>2025-06-17T10:29:19Z</time>
      </trkpt>
      <trkpt lat="43.41046" lon="3.5707">
        <ele>19.4</ele>
        <time>2025-06-17T10:29:20Z</time>
      </trkpt>
      <trkpt lat="43.41041" lon="3.57063">
        <ele>19.4</ele>
        <time>2025-06-17T10:29:21Z</time>
      </trkpt>
      <trkpt lat="43.41036" lon="3.57056">
        <ele>19.4</ele>
        <time>2025-06-17T10:29:22Z</time>
      </trkpt>
      <trkpt lat="43.41032" lon="3.5705">
        <ele>19.4</ele>
        <time>2025-06-17T10:29:23Z</time>
      </trkpt>
      <trkpt lat="43.41027" lon="3.57044">
        <ele>19.4</ele>
        <time>2025-06-17T10:29:24Z</time>
      </trkpt>
      <trkpt lat="43.41021" lon="3.57038">
        <ele>19.4</ele>
        <time>2025-06-17T10:29:25Z</time>
      </trkpt>
      <trkpt lat="43.41016" lon="3.57032">
        <ele>19.4</ele>
        <time>2025-06-17T10:29:26Z</time>
      </trkpt>
      <trkpt lat="43.41012" lon="3.57025">
        <ele>19.6</ele>
        <time>2025-06-17T10:29:27Z</time>
      </trkpt>
      <trkpt lat="43.41007" lon="3.57018">
        <ele>19.6</ele>
        <time>2025-06-17T10:29:28Z</time>
      </trkpt>
      <trkpt lat="43.41003" lon="3.57012">
        <ele>19.6</ele>
        <time>2025-06-17T10:29:29Z</time>
      </trkpt>
      <trkpt lat="43.40998" lon="3.57005">
        <ele>19.6</ele>
        <time>2025-06-17T10:29:30Z</time>
      </trkpt>
      <trkpt lat="43.40993" lon="3.56999">
        <ele>19.6</ele>
        <time>2025-06-17T10:29:31Z</time>
      </trkpt>
      <trkpt lat="43.40988" lon="3.56992">
        <ele>19.6</ele>
        <time>2025-06-17T10:29:32Z</time>
      </trkpt>
      <trkpt lat="43.40983" lon="3.56986">
        <ele>19.6</ele>
        <time>2025-06-17T10:29:33Z</time>
      </trkpt>
      <trkpt lat="43.40978" lon="3.56979">
        <ele>19.4</ele>
        <time>2025-06-17T10:29:34Z</time>
      </trkpt>
      <trkpt lat="43.40973" lon="3.56973">
        <ele>19.4</ele>
        <time>2025-06-17T10:29:35Z</time>
      </trkpt>
      <trkpt lat="43.40969" lon="3.56967">
        <ele>19.6</ele>
        <time>2025-06-17T10:29:36Z</time>
      </trkpt>
      <trkpt lat="43.40965" lon="3.56961">
        <ele>19.6</ele>
        <time>2025-06-17T10:29:37Z</time>
      </trkpt>
      <trkpt lat="43.40961" lon="3.56954">
        <ele>19.6</ele>
        <time>2025-06-17T10:29:38Z</time>
      </trkpt>
      <trkpt lat="43.40957" lon="3.56948">
        <ele>19.6</ele>
        <time>2025-06-17T10:29:39Z</time>
      </trkpt>
      <trkpt lat="43.40954" lon="3.56942">
        <ele>19.6</ele>
        <time>2025-06-17T10:29:40Z</time>
      </trkpt>
      <trkpt lat="43.40951" lon="3.56935">
        <ele>19.6</ele>
        <time>2025-06-17T10:29:41Z</time>
      </trkpt>
      <trkpt lat="43.40947" lon="3.56928">
        <ele>19.6</ele>
        <time>2025-06-17T10:29:42Z</time>
      </trkpt>
      <trkpt lat="43.40944" lon="3.56921">
        <ele>19.6</ele>
        <time>2025-06-17T10:29:43Z</time>
      </trkpt>
      <trkpt lat="43.40941" lon="3.56915">
        <ele>19.6</ele>
        <time>2025-06-17T10:29:44Z</time>
      </trkpt>
      <trkpt lat="43.40938" lon="3.56907">
        <ele>19.6</ele>
        <time>2025-06-17T10:29:45Z</time>
      </trkpt>
      <trkpt lat="43.40935" lon="3.569">
        <ele>19.6</ele>
        <time>2025-06-17T10:29:46Z</time>
      </trkpt>
      <trkpt lat="43.40931" lon="3.56892">
        <ele>19.6</ele>
        <time>2025-06-17T10:29:47Z</time>
      </trkpt>
      <trkpt lat="43.40929" lon="3.56886">
        <ele>19.4</ele>
        <time>2025-06-17T10:29:48Z</time>
      </trkpt>
      <trkpt lat="43.40925" lon="3.56878">
        <ele>19.6</ele>
        <time>2025-06-17T10:29:49Z</time>
      </trkpt>
      <trkpt lat="43.40922" lon="3.56871">
        <ele>19.6</ele>
        <time>2025-06-17T10:29:50Z</time>
      </trkpt>
      <trkpt lat="43.40919" lon="3.56864">
        <ele>19.6</ele>
        <time>2025-06-17T10:29:51Z</time>
      </trkpt>
      <trkpt lat="43.40916" lon="3.56857">
        <ele>19.6</ele>
        <time>2025-06-17T10:29:52Z</time>
      </trkpt>
      <trkpt lat="43.40913" lon="3.56849">
        <ele>19.4</ele>
        <time>2025-06-17T10:29:53Z</time>
      </trkpt>
      <trkpt lat="43.4091" lon="3.56842">
        <ele>19.4</ele>
        <time>2025-06-17T10:29:54Z</time>
      </trkpt>
      <trkpt lat="43.40907" lon="3.56835">
        <ele>19.4</ele>
        <time>2025-06-17T10:29:55Z</time>
      </trkpt>
      <trkpt lat="43.40904" lon="3.56828">
        <ele>19.4</ele>
        <time>2025-06-17T10:29:56Z</time>
      </trkpt>
      <trkpt lat="43.40901" lon="3.56821">
        <ele>19.4</ele>
        <time>2025-06-17T10:29:57Z</time>
      </trkpt>
      <trkpt lat="43.40897" lon="3.56813">
        <ele>19.4</ele>
        <time>2025-06-17T10:29:58Z</time>
      </trkpt>
      <trkpt lat="43.40894" lon="3.56806">
        <ele>19.4</ele>
        <time>2025-06-17T10:29:59Z</time>
      </trkpt>
      <trkpt lat="43.4089" lon="3.56798">
        <ele>19.4</ele>
        <time>2025-06-17T10:30:00Z</time>
      </trkpt>
      <trkpt lat="43.40888" lon="3.56791">
        <ele>19.4</ele>
        <time>2025-06-17T10:30:01Z</time>
      </trkpt>
      <trkpt lat="43.40884" lon="3.56784">
        <ele>19.4</ele>
        <time>2025-06-17T10:30:02Z</time>
      </trkpt>
      <trkpt lat="43.40881" lon="3.56777">
        <ele>19.4</ele>
        <time>2025-06-17T10:30:03Z</time>
      </trkpt>
      <trkpt lat="43.40878" lon="3.56769">
        <ele>19.4</ele>
        <time>2025-06-17T10:30:04Z</time>
      </trkpt>
      <trkpt lat="43.40875" lon="3.56762">
        <ele>19.4</ele>
        <time>2025-06-17T10:30:05Z</time>
      </trkpt>
      <trkpt lat="43.40872" lon="3.56755">
        <ele>19.4</ele>
        <time>2025-06-17T10:30:06Z</time>
      </trkpt>
      <trkpt lat="43.40869" lon="3.56748">
        <ele>19.4</ele>
        <time>2025-06-17T10:30:07Z</time>
      </trkpt>
      <trkpt lat="43.40866" lon="3.56742">
        <ele>19.4</ele>
        <time>2025-06-17T10:30:08Z</time>
      </trkpt>
      <trkpt lat="43.40863" lon="3.56735">
        <ele>19.4</ele>
        <time>2025-06-17T10:30:09Z</time>
      </trkpt>
      <trkpt lat="43.4086" lon="3.56729">
        <ele>19.4</ele>
        <time>2025-06-17T10:30:10Z</time>
      </trkpt>
      <trkpt lat="43.40857" lon="3.56723">
        <ele>19.6</ele>
        <time>2025-06-17T10:30:11Z</time>
      </trkpt>
      <trkpt lat="43.40855" lon="3.56717">
        <ele>19.6</ele>
        <time>2025-06-17T10:30:12Z</time>
      </trkpt>
      <trkpt lat="43.40853" lon="3.56712">
        <ele>19.6</ele>
        <time>2025-06-17T10:30:13Z</time>
      </trkpt>
      <trkpt lat="43.40851" lon="3.56707">
        <ele>19.8</ele>
        <time>2025-06-17T10:30:14Z</time>
      </trkpt>
      <trkpt lat="43.40848" lon="3.56702">
        <ele>19.8</ele>
        <time>2025-06-17T10:30:15Z</time>
      </trkpt>
      <trkpt lat="43.40847" lon="3.56698">
        <ele>19.8</ele>
        <time>2025-06-17T10:30:16Z</time>
      </trkpt>
      <trkpt lat="43.40845" lon="3.56693">
        <ele>19.8</ele>
        <time>2025-06-17T10:30:17Z</time>
      </trkpt>
      <trkpt lat="43.40843" lon="3.5669">
        <ele>19.8</ele>
        <time>2025-06-17T10:30:18Z</time>
      </trkpt>
      <trkpt lat="43.40841" lon="3.56686">
        <ele>19.8</ele>
        <time>2025-06-17T10:30:19Z</time>
      </trkpt>
      <trkpt lat="43.40839" lon="3.56682">
        <ele>19.8</ele>
        <time>2025-06-17T10:30:20Z</time>
      </trkpt>
      <trkpt lat="43.40837" lon="3.56679">
        <ele>19.8</ele>
        <time>2025-06-17T10:30:21Z</time>
      </trkpt>
      <trkpt lat="43.40834" lon="3.56675">
        <ele>19.8</ele>
        <time>2025-06-17T10:30:22Z</time>
      </trkpt>
      <trkpt lat="43.40832" lon="3.56672">
        <ele>19.8</ele>
        <time>2025-06-17T10:30:23Z</time>
      </trkpt>
      <trkpt lat="43.40829" lon="3.56669">
        <ele>19.8</ele>
        <time>2025-06-17T10:30:24Z</time>
      </trkpt>
      <trkpt lat="43.40827" lon="3.56666">
        <ele>20</ele>
        <time>2025-06-17T10:30:25Z</time>
      </trkpt>
      <trkpt lat="43.40824" lon="3.56663">
        <ele>20</ele>
        <time>2025-06-17T10:30:26Z</time>
      </trkpt>
      <trkpt lat="43.40822" lon="3.56659">
        <ele>20</ele>
        <time>2025-06-17T10:30:27Z</time>
      </trkpt>
      <trkpt lat="43.4082" lon="3.56656">
        <ele>20</ele>
        <time>2025-06-17T10:30:28Z</time>
      </trkpt>
      <trkpt lat="43.40818" lon="3.56652">
        <ele>20</ele>
        <time>2025-06-17T10:30:29Z</time>
      </trkpt>
      <trkpt lat="43.40814" lon="3.56648">
        <ele>20</ele>
        <time>2025-06-17T10:30:30Z</time>
      </trkpt>
      <trkpt lat="43.40811" lon="3.56645">
        <ele>20.2</ele>
        <time>2025-06-17T10:30:31Z</time>
      </trkpt>
      <trkpt lat="43.40808" lon="3.56641">
        <ele>20.2</ele>
        <time>2025-06-17T10:30:32Z</time>
      </trkpt>
      <trkpt lat="43.40805" lon="3.56637">
        <ele>20.2</ele>
        <time>2025-06-17T10:30:33Z</time>
      </trkpt>
      <trkpt lat="43.40801" lon="3.56633">
        <ele>20.2</ele>
        <time>2025-06-17T10:30:34Z</time>
      </trkpt>
      <trkpt lat="43.40798" lon="3.5663">
        <ele>20.4</ele>
        <time>2025-06-17T10:30:35Z</time>
      </trkpt>
      <trkpt lat="43.40796" lon="3.56626">
        <ele>20.4</ele>
        <time>2025-06-17T10:30:36Z</time>
      </trkpt>
      <trkpt lat="43.40794" lon="3.56624">
        <ele>20.4</ele>
        <time>2025-06-17T10:30:37Z</time>
      </trkpt>
      <trkpt lat="43.40791" lon="3.56615">
        <ele>20.8</ele>
        <time>2025-06-17T10:32:09Z</time>
      </trkpt>
      <trkpt lat="43.40791" lon="3.56613">
        <ele>21</ele>
        <time>2025-06-17T10:32:10Z</time>
      </trkpt>
      <trkpt lat="43.40791" lon="3.5661">
        <ele>21</ele>
        <time>2025-06-17T10:32:11Z</time>
      </trkpt>
      <trkpt lat="43.4079" lon="3.56607">
        <ele>21</ele>
        <time>2025-06-17T10:32:12Z</time>
      </trkpt>
      <trkpt lat="43.40789" lon="3.56603">
        <ele>21</ele>
        <time>2025-06-17T10:32:13Z</time>
      </trkpt>
      <trkpt lat="43.40788" lon="3.566">
        <ele>21</ele>
        <time>2025-06-17T10:32:14Z</time>
      </trkpt>
      <trkpt lat="43.40786" lon="3.56597">
        <ele>21</ele>
        <time>2025-06-17T10:32:15Z</time>
      </trkpt>
      <trkpt lat="43.40784" lon="3.56594">
        <ele>21</ele>
        <time>2025-06-17T10:32:16Z</time>
      </trkpt>
      <trkpt lat="43.40781" lon="3.56591">
        <ele>21</ele>
        <time>2025-06-17T10:32:17Z</time>
      </trkpt>
      <trkpt lat="43.40778" lon="3.56588">
        <ele>21.2</ele>
        <time>2025-06-17T10:32:18Z</time>
      </trkpt>
      <trkpt lat="43.40776" lon="3.56585">
        <ele>21.2</ele>
        <time>2025-06-17T10:32:19Z</time>
      </trkpt>
      <trkpt lat="43.40772" lon="3.56582">
        <ele>21.4</ele>
        <time>2025-06-17T10:32:20Z</time>
      </trkpt>
      <trkpt lat="43.40769" lon="3.56578">
        <ele>21.6</ele>
        <time>2025-06-17T10:32:21Z</time>
      </trkpt>
      <trkpt lat="43.40766" lon="3.56575">
        <ele>21.6</ele>
        <time>2025-06-17T10:32:22Z</time>
      </trkpt>
      <trkpt lat="43.40763" lon="3.56571">
        <ele>21.8</ele>
        <time>2025-06-17T10:32:23Z</time>
      </trkpt>
      <trkpt lat="43.4076" lon="3.56568">
        <ele>22</ele>
        <time>2025-06-17T10:32:24Z</time>
      </trkpt>
      <trkpt lat="43.40757" lon="3.56565">
        <ele>22</ele>
        <time>2025-06-17T10:32:25Z</time>
      </trkpt>
      <trkpt lat="43.40753" lon="3.56561">
        <ele>22.2</ele>
        <time>2025-06-17T10:32:26Z</time>
      </trkpt>
      <trkpt lat="43.4075" lon="3.56558">
        <ele>22.4</ele>
        <time>2025-06-17T10:32:27Z</time>
      </trkpt>
      <trkpt lat="43.40747" lon="3.56554">
        <ele>22.4</ele>
        <time>2025-06-17T10:32:28Z</time>
      </trkpt>
      <trkpt lat="43.40744" lon="3.5655">
        <ele>22.6</ele>
        <time>2025-06-17T10:32:29Z</time>
      </trkpt>
      <trkpt lat="43.40741" lon="3.56546">
        <ele>22.6</ele>
        <time>2025-06-17T10:32:30Z</time>
      </trkpt>
      <trkpt lat="43.40738" lon="3.56542">
        <ele>22.6</ele>
        <time>2025-06-17T10:32:31Z</time>
      </trkpt>
      <trkpt lat="43.40734" lon="3.56538">
        <ele>22.6</ele>
        <time>2025-06-17T10:32:32Z</time>
      </trkpt>
      <trkpt lat="43.4073" lon="3.56534">
        <ele>22.8</ele>
        <time>2025-06-17T10:32:33Z</time>
      </trkpt>
      <trkpt lat="43.40727" lon="3.5653">
        <ele>22.8</ele>
        <time>2025-06-17T10:32:34Z</time>
      </trkpt>
      <trkpt lat="43.40723" lon="3.56526">
        <ele>22.8</ele>
        <time>2025-06-17T10:32:35Z</time>
      </trkpt>
      <trkpt lat="43.4072" lon="3.56522">
        <ele>22.8</ele>
        <time>2025-06-17T10:32:36Z</time>
      </trkpt>
      <trkpt lat="43.40716" lon="3.56518">
        <ele>22.8</ele>
        <time>2025-06-17T10:32:37Z</time>
      </trkpt>
      <trkpt lat="43.40713" lon="3.56514">
        <ele>22.8</ele>
        <time>2025-06-17T10:32:38Z</time>
      </trkpt>
      <trkpt lat="43.4071" lon="3.5651">
        <ele>23</ele>
        <time>2025-06-17T10:32:39Z</time>
      </trkpt>
      <trkpt lat="43.40706" lon="3.56505">
        <ele>23</ele>
        <time>2025-06-17T10:32:40Z</time>
      </trkpt>
      <trkpt lat="43.40703" lon="3.56501">
        <ele>23</ele>
        <time>2025-06-17T10:32:41Z</time>
      </trkpt>
      <trkpt lat="43.407" lon="3.56497">
        <ele>23</ele>
        <time>2025-06-17T10:32:42Z</time>
      </trkpt>
      <trkpt lat="43.40696" lon="3.56493">
        <ele>23</ele>
        <time>2025-06-17T10:32:43Z</time>
      </trkpt>
      <trkpt lat="43.40693" lon="3.56489">
        <ele>23.2</ele>
        <time>2025-06-17T10:32:44Z</time>
      </trkpt>
      <trkpt lat="43.4069" lon="3.56485">
        <ele>23.2</ele>
        <time>2025-06-17T10:32:45Z</time>
      </trkpt>
      <trkpt lat="43.40686" lon="3.56481">
        <ele>23.2</ele>
        <time>2025-06-17T10:32:46Z</time>
      </trkpt>
      <trkpt lat="43.40683" lon="3.56477">
        <ele>23.4</ele>
        <time>2025-06-17T10:32:47Z</time>
      </trkpt>
      <trkpt lat="43.40679" lon="3.56473">
        <ele>23.4</ele>
        <time>2025-06-17T10:32:48Z</time>
      </trkpt>
      <trkpt lat="43.40677" lon="3.56469">
        <ele>23.6</ele>
        <time>2025-06-17T10:32:49Z</time>
      </trkpt>
      <trkpt lat="43.40673" lon="3.56464">
        <ele>23.6</ele>
        <time>2025-06-17T10:32:50Z</time>
      </trkpt>
      <trkpt lat="43.4067" lon="3.5646">
        <ele>23.6</ele>
        <time>2025-06-17T10:32:51Z</time>
      </trkpt>
      <trkpt lat="43.40666" lon="3.56456">
        <ele>23.6</ele>
        <time>2025-06-17T10:32:52Z</time>
      </trkpt>
      <trkpt lat="43.40663" lon="3.56452">
        <ele>23.8</ele>
        <time>2025-06-17T10:32:53Z</time>
      </trkpt>
      <trkpt lat="43.4066" lon="3.56448">
        <ele>23.8</ele>
        <time>2025-06-17T10:32:54Z</time>
      </trkpt>
      <trkpt lat="43.40656" lon="3.56444">
        <ele>23.8</ele>
        <time>2025-06-17T10:32:55Z</time>
      </trkpt>
      <trkpt lat="43.40654" lon="3.5644">
        <ele>23.8</ele>
        <time>2025-06-17T10:32:56Z</time>
      </trkpt>
      <trkpt lat="43.4065" lon="3.56435">
        <ele>23.8</ele>
        <time>2025-06-17T10:32:57Z</time>
      </trkpt>
      <trkpt lat="43.40648" lon="3.56431">
        <ele>23.8</ele>
        <time>2025-06-17T10:32:58Z</time>
      </trkpt>
      <trkpt lat="43.40644" lon="3.56426">
        <ele>23.8</ele>
        <time>2025-06-17T10:32:59Z</time>
      </trkpt>
      <trkpt lat="43.40641" lon="3.56422">
        <ele>23.8</ele>
        <time>2025-06-17T10:33:00Z</time>
      </trkpt>
      <trkpt lat="43.40638" lon="3.56418">
        <ele>24</ele>
        <time>2025-06-17T10:33:01Z</time>
      </trkpt>
      <trkpt lat="43.40635" lon="3.56413">
        <ele>24</ele>
        <time>2025-06-17T10:33:02Z</time>
      </trkpt>
      <trkpt lat="43.40631" lon="3.56409">
        <ele>24</ele>
        <time>2025-06-17T10:33:03Z</time>
      </trkpt>
      <trkpt lat="43.40629" lon="3.56406">
        <ele>24</ele>
        <time>2025-06-17T10:33:04Z</time>
      </trkpt>
      <trkpt lat="43.40625" lon="3.56401">
        <ele>24.2</ele>
        <time>2025-06-17T10:33:05Z</time>
      </trkpt>
      <trkpt lat="43.40622" lon="3.56398">
        <ele>24.2</ele>
        <time>2025-06-17T10:33:06Z</time>
      </trkpt>
      <trkpt lat="43.40618" lon="3.56394">
        <ele>24.2</ele>
        <time>2025-06-17T10:33:07Z</time>
      </trkpt>
      <trkpt lat="43.40616" lon="3.5639">
        <ele>24.2</ele>
        <time>2025-06-17T10:33:08Z</time>
      </trkpt>
      <trkpt lat="43.40613" lon="3.56386">
        <ele>24.2</ele>
        <time>2025-06-17T10:33:09Z</time>
      </trkpt>
      <trkpt lat="43.4061" lon="3.56382">
        <ele>24.2</ele>
        <time>2025-06-17T10:33:10Z</time>
      </trkpt>
      <trkpt lat="43.40607" lon="3.56378">
        <ele>24.2</ele>
        <time>2025-06-17T10:33:11Z</time>
      </trkpt>
      <trkpt lat="43.40604" lon="3.56374">
        <ele>24.2</ele>
        <time>2025-06-17T10:33:12Z</time>
      </trkpt>
      <trkpt lat="43.40601" lon="3.5637">
        <ele>24.2</ele>
        <time>2025-06-17T10:33:13Z</time>
      </trkpt>
      <trkpt lat="43.40598" lon="3.56367">
        <ele>24.2</ele>
        <time>2025-06-17T10:33:14Z</time>
      </trkpt>
      <trkpt lat="43.40594" lon="3.56363">
        <ele>24.4</ele>
        <time>2025-06-17T10:33:15Z</time>
      </trkpt>
      <trkpt lat="43.40591" lon="3.56359">
        <ele>24.4</ele>
        <time>2025-06-17T10:33:16Z</time>
      </trkpt>
      <trkpt lat="43.40588" lon="3.56356">
        <ele>24.4</ele>
        <time>2025-06-17T10:33:17Z</time>
      </trkpt>
      <trkpt lat="43.40585" lon="3.56352">
        <ele>24.4</ele>
        <time>2025-06-17T10:33:18Z</time>
      </trkpt>
      <trkpt lat="43.4058" lon="3.56348">
        <ele>24.4</ele>
        <time>2025-06-17T10:33:19Z</time>
      </trkpt>
      <trkpt lat="43.40577" lon="3.56345">
        <ele>24.4</ele>
        <time>2025-06-17T10:33:20Z</time>
      </trkpt>
      <trkpt lat="43.40574" lon="3.56341">
        <ele>24.4</ele>
        <time>2025-06-17T10:33:21Z</time>
      </trkpt>
      <trkpt lat="43.4057" lon="3.56337">
        <ele>24.4</ele>
        <time>2025-06-17T10:33:22Z</time>
      </trkpt>
      <trkpt lat="43.40567" lon="3.56333">
        <ele>24.4</ele>
        <time>2025-06-17T10:33:23Z</time>
      </trkpt>
      <trkpt lat="43.40564" lon="3.56329">
        <ele>24.4</ele>
        <time>2025-06-17T10:33:24Z</time>
      </trkpt>
      <trkpt lat="43.40561" lon="3.56325">
        <ele>24.4</ele>
        <time>2025-06-17T10:33:25Z</time>
      </trkpt>
      <trkpt lat="43.40557" lon="3.56321">
        <ele>24.4</ele>
        <time>2025-06-17T10:33:26Z</time>
      </trkpt>
      <trkpt lat="43.40554" lon="3.56317">
        <ele>24.4</ele>
        <time>2025-06-17T10:33:27Z</time>
      </trkpt>
      <trkpt lat="43.40551" lon="3.56313">
        <ele>24.4</ele>
        <time>2025-06-17T10:33:28Z</time>
      </trkpt>
      <trkpt lat="43.40547" lon="3.56308">
        <ele>24.4</ele>
        <time>2025-06-17T10:33:29Z</time>
      </trkpt>
      <trkpt lat="43.40544" lon="3.56304">
        <ele>24.4</ele>
        <time>2025-06-17T10:33:30Z</time>
      </trkpt>
      <trkpt lat="43.4054" lon="3.56299">
        <ele>24.4</ele>
        <time>2025-06-17T10:33:31Z</time>
      </trkpt>
      <trkpt lat="43.40536" lon="3.56295">
        <ele>24.4</ele>
        <time>2025-06-17T10:33:32Z</time>
      </trkpt>
      <trkpt lat="43.40532" lon="3.56291">
        <ele>24.6</ele>
        <time>2025-06-17T10:33:33Z</time>
      </trkpt>
      <trkpt lat="43.40529" lon="3.56286">
        <ele>24.6</ele>
        <time>2025-06-17T10:33:34Z</time>
      </trkpt>
      <trkpt lat="43.40525" lon="3.56282">
        <ele>24.6</ele>
        <time>2025-06-17T10:33:35Z</time>
      </trkpt>
      <trkpt lat="43.40521" lon="3.56278">
        <ele>24.6</ele>
        <time>2025-06-17T10:33:36Z</time>
      </trkpt>
      <trkpt lat="43.40517" lon="3.56274">
        <ele>24.6</ele>
        <time>2025-06-17T10:33:37Z</time>
      </trkpt>
      <trkpt lat="43.40512" lon="3.5627">
        <ele>24.6</ele>
        <time>2025-06-17T10:33:38Z</time>
      </trkpt>
      <trkpt lat="43.40508" lon="3.56265">
        <ele>24.6</ele>
        <time>2025-06-17T10:33:39Z</time>
      </trkpt>
      <trkpt lat="43.40504" lon="3.56261">
        <ele>24.8</ele>
        <time>2025-06-17T10:33:40Z</time>
      </trkpt>
      <trkpt lat="43.405" lon="3.56257">
        <ele>24.8</ele>
        <time>2025-06-17T10:33:41Z</time>
      </trkpt>
      <trkpt lat="43.40496" lon="3.56252">
        <ele>24.8</ele>
        <time>2025-06-17T10:33:42Z</time>
      </trkpt>
      <trkpt lat="43.40493" lon="3.56248">
        <ele>24.8</ele>
        <time>2025-06-17T10:33:43Z</time>
      </trkpt>
      <trkpt lat="43.40488" lon="3.56244">
        <ele>24.8</ele>
        <time>2025-06-17T10:33:44Z</time>
      </trkpt>
      <trkpt lat="43.40484" lon="3.5624">
        <ele>24.8</ele>
        <time>2025-06-17T10:33:45Z</time>
      </trkpt>
      <trkpt lat="43.4048" lon="3.56235">
        <ele>24.8</ele>
        <time>2025-06-17T10:33:46Z</time>
      </trkpt>
      <trkpt lat="43.40476" lon="3.56231">
        <ele>24.8</ele>
        <time>2025-06-17T10:33:47Z</time>
      </trkpt>
      <trkpt lat="43.40473" lon="3.56227">
        <ele>24.8</ele>
        <time>2025-06-17T10:33:48Z</time>
      </trkpt>
      <trkpt lat="43.40469" lon="3.56222">
        <ele>24.8</ele>
        <time>2025-06-17T10:33:49Z</time>
      </trkpt>
      <trkpt lat="43.40465" lon="3.56219">
        <ele>25</ele>
        <time>2025-06-17T10:33:50Z</time>
      </trkpt>
      <trkpt lat="43.40461" lon="3.56215">
        <ele>25</ele>
        <time>2025-06-17T10:33:51Z</time>
      </trkpt>
      <trkpt lat="43.40458" lon="3.56211">
        <ele>25.2</ele>
        <time>2025-06-17T10:33:52Z</time>
      </trkpt>
      <trkpt lat="43.40455" lon="3.56207">
        <ele>25.2</ele>
        <time>2025-06-17T10:33:53Z</time>
      </trkpt>
      <trkpt lat="43.40451" lon="3.56202">
        <ele>25.2</ele>
        <time>2025-06-17T10:33:54Z</time>
      </trkpt>
      <trkpt lat="43.40448" lon="3.56199">
        <ele>25.4</ele>
        <time>2025-06-17T10:33:55Z</time>
      </trkpt>
      <trkpt lat="43.40444" lon="3.56195">
        <ele>25.4</ele>
        <time>2025-06-17T10:33:56Z</time>
      </trkpt>
      <trkpt lat="43.4044" lon="3.5619">
        <ele>25.4</ele>
        <time>2025-06-17T10:33:57Z</time>
      </trkpt>
      <trkpt lat="43.40437" lon="3.56186">
        <ele>25.4</ele>
        <time>2025-06-17T10:33:58Z</time>
      </trkpt>
      <trkpt lat="43.40433" lon="3.56182">
        <ele>25.4</ele>
        <time>2025-06-17T10:33:59Z</time>
      </trkpt>
      <trkpt lat="43.4043" lon="3.56178">
        <ele>25.6</ele>
        <time>2025-06-17T10:34:00Z</time>
      </trkpt>
      <trkpt lat="43.40426" lon="3.56174">
        <ele>25.6</ele>
        <time>2025-06-17T10:34:01Z</time>
      </trkpt>
      <trkpt lat="43.40423" lon="3.5617">
        <ele>25.6</ele>
        <time>2025-06-17T10:34:02Z</time>
      </trkpt>
      <trkpt lat="43.40419" lon="3.56166">
        <ele>25.8</ele>
        <time>2025-06-17T10:34:03Z</time>
      </trkpt>
      <trkpt lat="43.40415" lon="3.56162">
        <ele>25.8</ele>
        <time>2025-06-17T10:34:04Z</time>
      </trkpt>
      <trkpt lat="43.40412" lon="3.56157">
        <ele>26</ele>
        <time>2025-06-17T10:34:05Z</time>
      </trkpt>
      <trkpt lat="43.40409" lon="3.56154">
        <ele>26</ele>
        <time>2025-06-17T10:34:06Z</time>
      </trkpt>
      <trkpt lat="43.40405" lon="3.56149">
        <ele>26</ele>
        <time>2025-06-17T10:34:07Z</time>
      </trkpt>
      <trkpt lat="43.40401" lon="3.56146">
        <ele>26.2</ele>
        <time>2025-06-17T10:34:08Z</time>
      </trkpt>
      <trkpt lat="43.40398" lon="3.56142">
        <ele>26.2</ele>
        <time>2025-06-17T10:34:09Z</time>
      </trkpt>
      <trkpt lat="43.40394" lon="3.56138">
        <ele>26.4</ele>
        <time>2025-06-17T10:34:10Z</time>
      </trkpt>
      <trkpt lat="43.40392" lon="3.56135">
        <ele>26.4</ele>
        <time>2025-06-17T10:34:11Z</time>
      </trkpt>
      <trkpt lat="43.40387" lon="3.5613">
        <ele>26.6</ele>
        <time>2025-06-17T10:34:12Z</time>
      </trkpt>
      <trkpt lat="43.40384" lon="3.56126">
        <ele>26.6</ele>
        <time>2025-06-17T10:34:13Z</time>
      </trkpt>
      <trkpt lat="43.4038" lon="3.56122">
        <ele>26.6</ele>
        <time>2025-06-17T10:34:14Z</time>
      </trkpt>
      <trkpt lat="43.40377" lon="3.56118">
        <ele>26.8</ele>
        <time>2025-06-17T10:34:15Z</time>
      </trkpt>
      <trkpt lat="43.40373" lon="3.56114">
        <ele>26.8</ele>
        <time>2025-06-17T10:34:16Z</time>
      </trkpt>
      <trkpt lat="43.4037" lon="3.56111">
        <ele>26.8</ele>
        <time>2025-06-17T10:34:17Z</time>
      </trkpt>
      <trkpt lat="43.40366" lon="3.56107">
        <ele>27</ele>
        <time>2025-06-17T10:34:18Z</time>
      </trkpt>
      <trkpt lat="43.40363" lon="3.56104">
        <ele>27</ele>
        <time>2025-06-17T10:34:19Z</time>
      </trkpt>
      <trkpt lat="43.4036" lon="3.561">
        <ele>27.2</ele>
        <time>2025-06-17T10:34:20Z</time>
      </trkpt>
      <trkpt lat="43.40357" lon="3.56097">
        <ele>27.4</ele>
        <time>2025-06-17T10:34:21Z</time>
      </trkpt>
      <trkpt lat="43.40353" lon="3.56093">
        <ele>27.4</ele>
        <time>2025-06-17T10:34:22Z</time>
      </trkpt>
      <trkpt lat="43.4035" lon="3.5609">
        <ele>27.6</ele>
        <time>2025-06-17T10:34:23Z</time>
      </trkpt>
      <trkpt lat="43.40346" lon="3.56086">
        <ele>27.6</ele>
        <time>2025-06-17T10:34:24Z</time>
      </trkpt>
      <trkpt lat="43.40343" lon="3.56083">
        <ele>27.8</ele>
        <time>2025-06-17T10:34:25Z</time>
      </trkpt>
      <trkpt lat="43.4034" lon="3.56079">
        <ele>27.8</ele>
        <time>2025-06-17T10:34:26Z</time>
      </trkpt>
      <trkpt lat="43.40337" lon="3.56076">
        <ele>28</ele>
        <time>2025-06-17T10:34:27Z</time>
      </trkpt>
      <trkpt lat="43.40334" lon="3.56073">
        <ele>28</ele>
        <time>2025-06-17T10:34:28Z</time>
      </trkpt>
      <trkpt lat="43.40331" lon="3.5607">
        <ele>28.2</ele>
        <time>2025-06-17T10:34:29Z</time>
      </trkpt>
      <trkpt lat="43.40329" lon="3.56066">
        <ele>28.4</ele>
        <time>2025-06-17T10:34:30Z</time>
      </trkpt>
      <trkpt lat="43.40327" lon="3.56064">
        <ele>28.4</ele>
        <time>2025-06-17T10:34:31Z</time>
      </trkpt>
      <trkpt lat="43.40323" lon="3.5606">
        <ele>28.6</ele>
        <time>2025-06-17T10:34:32Z</time>
      </trkpt>
      <trkpt lat="43.4032" lon="3.56057">
        <ele>28.6</ele>
        <time>2025-06-17T10:34:33Z</time>
      </trkpt>
      <trkpt lat="43.40317" lon="3.56054">
        <ele>28.8</ele>
        <time>2025-06-17T10:34:34Z</time>
      </trkpt>
      <trkpt lat="43.40314" lon="3.56051">
        <ele>28.8</ele>
        <time>2025-06-17T10:34:35Z</time>
      </trkpt>
      <trkpt lat="43.40311" lon="3.56047">
        <ele>29</ele>
        <time>2025-06-17T10:34:36Z</time>
      </trkpt>
      <trkpt lat="43.40308" lon="3.56044">
        <ele>29.2</ele>
        <time>2025-06-17T10:34:37Z</time>
      </trkpt>
      <trkpt lat="43.40305" lon="3.56041">
        <ele>29.2</ele>
        <time>2025-06-17T10:34:38Z</time>
      </trkpt>
      <trkpt lat="43.40302" lon="3.56037">
        <ele>29.4</ele>
        <time>2025-06-17T10:34:39Z</time>
      </trkpt>
      <trkpt lat="43.40299" lon="3.56034">
        <ele>29.6</ele>
        <time>2025-06-17T10:34:40Z</time>
      </trkpt>
      <trkpt lat="43.40297" lon="3.56031">
        <ele>29.6</ele>
        <time>2025-06-17T10:34:41Z</time>
      </trkpt>
      <trkpt lat="43.40294" lon="3.56027">
        <ele>29.8</ele>
        <time>2025-06-17T10:34:42Z</time>
      </trkpt>
      <trkpt lat="43.40291" lon="3.56024">
        <ele>30</ele>
        <time>2025-06-17T10:34:43Z</time>
      </trkpt>
      <trkpt lat="43.40288" lon="3.5602">
        <ele>30.2</ele>
        <time>2025-06-17T10:34:44Z</time>
      </trkpt>
      <trkpt lat="43.40285" lon="3.56017">
        <ele>30.4</ele>
        <time>2025-06-17T10:34:45Z</time>
      </trkpt>
      <trkpt lat="43.40281" lon="3.56014">
        <ele>30.4</ele>
        <time>2025-06-17T10:34:46Z</time>
      </trkpt>
      <trkpt lat="43.40278" lon="3.5601">
        <ele>30.6</ele>
        <time>2025-06-17T10:34:47Z</time>
      </trkpt>
      <trkpt lat="43.40275" lon="3.56007">
        <ele>30.8</ele>
        <time>2025-06-17T10:34:48Z</time>
      </trkpt>
      <trkpt lat="43.40273" lon="3.56003">
        <ele>30.8</ele>
        <time>2025-06-17T10:34:49Z</time>
      </trkpt>
      <trkpt lat="43.4027" lon="3.56">
        <ele>31</ele>
        <time>2025-06-17T10:34:50Z</time>
      </trkpt>
      <trkpt lat="43.40267" lon="3.55997">
        <ele>31.2</ele>
        <time>2025-06-17T10:34:51Z</time>
      </trkpt>
      <trkpt lat="43.40264" lon="3.55994">
        <ele>31.4</ele>
        <time>2025-06-17T10:34:52Z</time>
      </trkpt>
      <trkpt lat="43.40261" lon="3.55991">
        <ele>31.6</ele>
        <time>2025-06-17T10:34:53Z</time>
      </trkpt>
      <trkpt lat="43.40259" lon="3.55989">
        <ele>31.6</ele>
        <time>2025-06-17T10:34:54Z</time>
      </trkpt>
      <trkpt lat="43.40256" lon="3.55986">
        <ele>31.8</ele>
        <time>2025-06-17T10:34:55Z</time>
      </trkpt>
      <trkpt lat="43.40254" lon="3.55984">
        <ele>32</ele>
        <time>2025-06-17T10:34:56Z</time>
      </trkpt>
      <trkpt lat="43.40252" lon="3.55981">
        <ele>32.2</ele>
        <time>2025-06-17T10:34:57Z</time>
      </trkpt>
      <trkpt lat="43.4025" lon="3.55978">
        <ele>32.2</ele>
        <time>2025-06-17T10:34:58Z</time>
      </trkpt>
      <trkpt lat="43.40247" lon="3.55976">
        <ele>32.4</ele>
        <time>2025-06-17T10:34:59Z</time>
      </trkpt>
      <trkpt lat="43.40245" lon="3.55974">
        <ele>32.6</ele>
        <time>2025-06-17T10:35:00Z</time>
      </trkpt>
      <trkpt lat="43.40243" lon="3.55972">
        <ele>32.8</ele>
        <time>2025-06-17T10:35:01Z</time>
      </trkpt>
      <trkpt lat="43.4024" lon="3.55969">
        <ele>32.8</ele>
        <time>2025-06-17T10:35:02Z</time>
      </trkpt>
      <trkpt lat="43.40238" lon="3.55966">
        <ele>33</ele>
        <time>2025-06-17T10:35:03Z</time>
      </trkpt>
      <trkpt lat="43.40235" lon="3.55963">
        <ele>33.2</ele>
        <time>2025-06-17T10:35:04Z</time>
      </trkpt>
      <trkpt lat="43.40234" lon="3.55961">
        <ele>33.4</ele>
        <time>2025-06-17T10:35:05Z</time>
      </trkpt>
      <trkpt lat="43.40231" lon="3.55958">
        <ele>33.6</ele>
        <time>2025-06-17T10:35:06Z</time>
      </trkpt>
      <trkpt lat="43.40229" lon="3.55956">
        <ele>33.6</ele>
        <time>2025-06-17T10:35:07Z</time>
      </trkpt>
      <trkpt lat="43.40227" lon="3.55953">
        <ele>33.8</ele>
        <time>2025-06-17T10:35:08Z</time>
      </trkpt>
      <trkpt lat="43.40225" lon="3.5595">
        <ele>34</ele>
        <time>2025-06-17T10:35:09Z</time>
      </trkpt>
      <trkpt lat="43.40222" lon="3.55948">
        <ele>34</ele>
        <time>2025-06-17T10:35:10Z</time>
      </trkpt>
      <trkpt lat="43.4022" lon="3.55946">
        <ele>34.2</ele>
        <time>2025-06-17T10:35:11Z</time>
      </trkpt>
      <trkpt lat="43.40218" lon="3.55943">
        <ele>34.2</ele>
        <time>2025-06-17T10:35:12Z</time>
      </trkpt>
      <trkpt lat="43.40216" lon="3.55941">
        <ele>34.4</ele>
        <time>2025-06-17T10:35:13Z</time>
      </trkpt>
      <trkpt lat="43.40213" lon="3.55938">
        <ele>34.6</ele>
        <time>2025-06-17T10:35:14Z</time>
      </trkpt>
      <trkpt lat="43.40211" lon="3.55936">
        <ele>34.6</ele>
        <time>2025-06-17T10:35:15Z</time>
      </trkpt>
      <trkpt lat="43.4021" lon="3.55934">
        <ele>34.8</ele>
        <time>2025-06-17T10:35:16Z</time>
      </trkpt>
      <trkpt lat="43.40208" lon="3.55931">
        <ele>34.8</ele>
        <time>2025-06-17T10:35:17Z</time>
      </trkpt>
      <trkpt lat="43.40206" lon="3.55929">
        <ele>35</ele>
        <time>2025-06-17T10:35:18Z</time>
      </trkpt>
      <trkpt lat="43.40205" lon="3.55927">
        <ele>35</ele>
        <time>2025-06-17T10:35:19Z</time>
      </trkpt>
      <trkpt lat="43.40203" lon="3.55925">
        <ele>35.2</ele>
        <time>2025-06-17T10:35:20Z</time>
      </trkpt>
      <trkpt lat="43.40201" lon="3.55924">
        <ele>35.4</ele>
        <time>2025-06-17T10:35:21Z</time>
      </trkpt>
      <trkpt lat="43.40199" lon="3.55922">
        <ele>35.4</ele>
        <time>2025-06-17T10:35:22Z</time>
      </trkpt>
      <trkpt lat="43.40197" lon="3.5592">
        <ele>35.6</ele>
        <time>2025-06-17T10:35:23Z</time>
      </trkpt>
      <trkpt lat="43.40196" lon="3.55918">
        <ele>35.6</ele>
        <time>2025-06-17T10:35:24Z</time>
      </trkpt>
      <trkpt lat="43.40194" lon="3.55915">
        <ele>35.8</ele>
        <time>2025-06-17T10:35:25Z</time>
      </trkpt>
      <trkpt lat="43.40192" lon="3.55913">
        <ele>35.8</ele>
        <time>2025-06-17T10:35:26Z</time>
      </trkpt>
      <trkpt lat="43.4019" lon="3.55911">
        <ele>35.8</ele>
        <time>2025-06-17T10:35:27Z</time>
      </trkpt>
      <trkpt lat="43.40188" lon="3.55909">
        <ele>36</ele>
        <time>2025-06-17T10:35:28Z</time>
      </trkpt>
      <trkpt lat="43.40185" lon="3.55907">
        <ele>36</ele>
        <time>2025-06-17T10:35:29Z</time>
      </trkpt>
      <trkpt lat="43.40184" lon="3.55905">
        <ele>36</ele>
        <time>2025-06-17T10:35:30Z</time>
      </trkpt>
      <trkpt lat="43.40182" lon="3.55904">
        <ele>36.2</ele>
        <time>2025-06-17T10:35:31Z</time>
      </trkpt>
      <trkpt lat="43.4018" lon="3.55903">
        <ele>36.2</ele>
        <time>2025-06-17T10:35:32Z</time>
      </trkpt>
      <trkpt lat="43.40178" lon="3.55902">
        <ele>36.4</ele>
        <time>2025-06-17T10:35:33Z</time>
      </trkpt>
      <trkpt lat="43.40176" lon="3.55901">
        <ele>36.4</ele>
        <time>2025-06-17T10:35:34Z</time>
      </trkpt>
      <trkpt lat="43.40173" lon="3.559">
        <ele>36.4</ele>
        <time>2025-06-17T10:35:35Z</time>
      </trkpt>
      <trkpt lat="43.40171" lon="3.559">
        <ele>36.6</ele>
        <time>2025-06-17T10:35:36Z</time>
      </trkpt>
      <trkpt lat="43.40169" lon="3.55901">
        <ele>36.6</ele>
        <time>2025-06-17T10:35:37Z</time>
      </trkpt>
      <trkpt lat="43.40166" lon="3.55902">
        <ele>36.6</ele>
        <time>2025-06-17T10:35:38Z</time>
      </trkpt>
      <trkpt lat="43.40164" lon="3.55905">
        <ele>36.6</ele>
        <time>2025-06-17T10:35:39Z</time>
      </trkpt>
      <trkpt lat="43.40163" lon="3.55909">
        <ele>36.6</ele>
        <time>2025-06-17T10:35:40Z</time>
      </trkpt>
      <trkpt lat="43.40161" lon="3.55912">
        <ele>36.6</ele>
        <time>2025-06-17T10:35:41Z</time>
      </trkpt>
      <trkpt lat="43.40159" lon="3.55916">
        <ele>36.6</ele>
        <time>2025-06-17T10:35:42Z</time>
      </trkpt>
      <trkpt lat="43.40157" lon="3.5592">
        <ele>36.8</ele>
        <time>2025-06-17T10:35:43Z</time>
      </trkpt>
      <trkpt lat="43.40155" lon="3.55924">
        <ele>36.8</ele>
        <time>2025-06-17T10:35:44Z</time>
      </trkpt>
      <trkpt lat="43.40154" lon="3.55928">
        <ele>36.8</ele>
        <time>2025-06-17T10:35:45Z</time>
      </trkpt>
      <trkpt lat="43.40152" lon="3.55933">
        <ele>36.8</ele>
        <time>2025-06-17T10:35:46Z</time>
      </trkpt>
      <trkpt lat="43.4015" lon="3.55937">
        <ele>36.8</ele>
        <time>2025-06-17T10:35:47Z</time>
      </trkpt>
      <trkpt lat="43.40148" lon="3.55942">
        <ele>36.8</ele>
        <time>2025-06-17T10:35:48Z</time>
      </trkpt>
      <trkpt lat="43.40146" lon="3.55946">
        <ele>37</ele>
        <time>2025-06-17T10:35:49Z</time>
      </trkpt>
      <trkpt lat="43.40143" lon="3.55951">
        <ele>37</ele>
        <time>2025-06-17T10:35:50Z</time>
      </trkpt>
      <trkpt lat="43.40142" lon="3.55955">
        <ele>37</ele>
        <time>2025-06-17T10:35:51Z</time>
      </trkpt>
      <trkpt lat="43.4014" lon="3.5596">
        <ele>37</ele>
        <time>2025-06-17T10:35:52Z</time>
      </trkpt>
      <trkpt lat="43.40138" lon="3.55964">
        <ele>37</ele>
        <time>2025-06-17T10:35:53Z</time>
      </trkpt>
      <trkpt lat="43.40136" lon="3.55969">
        <ele>37</ele>
        <time>2025-06-17T10:35:54Z</time>
      </trkpt>
      <trkpt lat="43.40134" lon="3.55973">
        <ele>37.2</ele>
        <time>2025-06-17T10:35:55Z</time>
      </trkpt>
      <trkpt lat="43.40132" lon="3.55978">
        <ele>37.2</ele>
        <time>2025-06-17T10:35:56Z</time>
      </trkpt>
      <trkpt lat="43.4013" lon="3.55983">
        <ele>37.2</ele>
        <time>2025-06-17T10:35:57Z</time>
      </trkpt>
      <trkpt lat="43.40127" lon="3.55988">
        <ele>37.2</ele>
        <time>2025-06-17T10:35:58Z</time>
      </trkpt>
      <trkpt lat="43.40125" lon="3.55993">
        <ele>37.2</ele>
        <time>2025-06-17T10:35:59Z</time>
      </trkpt>
      <trkpt lat="43.40123" lon="3.55999">
        <ele>37.2</ele>
        <time>2025-06-17T10:36:00Z</time>
      </trkpt>
      <trkpt lat="43.40121" lon="3.56004">
        <ele>37.2</ele>
        <time>2025-06-17T10:36:01Z</time>
      </trkpt>
      <trkpt lat="43.40118" lon="3.5601">
        <ele>37.2</ele>
        <time>2025-06-17T10:36:02Z</time>
      </trkpt>
      <trkpt lat="43.40116" lon="3.56015">
        <ele>37</ele>
        <time>2025-06-17T10:36:03Z</time>
      </trkpt>
      <trkpt lat="43.40114" lon="3.56021">
        <ele>37</ele>
        <time>2025-06-17T10:36:04Z</time>
      </trkpt>
      <trkpt lat="43.40111" lon="3.56027">
        <ele>37</ele>
        <time>2025-06-17T10:36:05Z</time>
      </trkpt>
      <trkpt lat="43.40108" lon="3.56032">
        <ele>36.8</ele>
        <time>2025-06-17T10:36:06Z</time>
      </trkpt>
      <trkpt lat="43.40106" lon="3.56038">
        <ele>36.8</ele>
        <time>2025-06-17T10:36:07Z</time>
      </trkpt>
      <trkpt lat="43.40103" lon="3.56044">
        <ele>36.8</ele>
        <time>2025-06-17T10:36:08Z</time>
      </trkpt>
      <trkpt lat="43.40101" lon="3.56049">
        <ele>36.8</ele>
        <time>2025-06-17T10:36:09Z</time>
      </trkpt>
      <trkpt lat="43.40099" lon="3.56055">
        <ele>36.8</ele>
        <time>2025-06-17T10:36:10Z</time>
      </trkpt>
      <trkpt lat="43.40097" lon="3.5606">
        <ele>36.8</ele>
        <time>2025-06-17T10:36:11Z</time>
      </trkpt>
      <trkpt lat="43.40094" lon="3.56066">
        <ele>36.8</ele>
        <time>2025-06-17T10:36:12Z</time>
      </trkpt>
      <trkpt lat="43.40091" lon="3.56072">
        <ele>36.8</ele>
        <time>2025-06-17T10:36:13Z</time>
      </trkpt>
      <trkpt lat="43.40089" lon="3.56077">
        <ele>36.8</ele>
        <time>2025-06-17T10:36:14Z</time>
      </trkpt>
      <trkpt lat="43.40086" lon="3.56083">
        <ele>36.8</ele>
        <time>2025-06-17T10:36:15Z</time>
      </trkpt>
      <trkpt lat="43.40084" lon="3.56088">
        <ele>36.8</ele>
        <time>2025-06-17T10:36:16Z</time>
      </trkpt>
      <trkpt lat="43.40081" lon="3.56094">
        <ele>36.6</ele>
        <time>2025-06-17T10:36:17Z</time>
      </trkpt>
      <trkpt lat="43.40078" lon="3.561">
        <ele>36.6</ele>
        <time>2025-06-17T10:36:18Z</time>
      </trkpt>
      <trkpt lat="43.40075" lon="3.56105">
        <ele>36.6</ele>
        <time>2025-06-17T10:36:19Z</time>
      </trkpt>
      <trkpt lat="43.40073" lon="3.56111">
        <ele>36.6</ele>
        <time>2025-06-17T10:36:20Z</time>
      </trkpt>
      <trkpt lat="43.4007" lon="3.56116">
        <ele>36.6</ele>
        <time>2025-06-17T10:36:21Z</time>
      </trkpt>
      <trkpt lat="43.40068" lon="3.56122">
        <ele>36.6</ele>
        <time>2025-06-17T10:36:22Z</time>
      </trkpt>
      <trkpt lat="43.40065" lon="3.56128">
        <ele>36.6</ele>
        <time>2025-06-17T10:36:23Z</time>
      </trkpt>
      <trkpt lat="43.40062" lon="3.56134">
        <ele>36.6</ele>
        <time>2025-06-17T10:36:24Z</time>
      </trkpt>
      <trkpt lat="43.4006" lon="3.56139">
        <ele>36.6</ele>
        <time>2025-06-17T10:36:25Z</time>
      </trkpt>
      <trkpt lat="43.40057" lon="3.56145">
        <ele>36.6</ele>
        <time>2025-06-17T10:36:26Z</time>
      </trkpt>
      <trkpt lat="43.40055" lon="3.56151">
        <ele>36.6</ele>
        <time>2025-06-17T10:36:27Z</time>
      </trkpt>
      <trkpt lat="43.40053" lon="3.56157">
        <ele>36.8</ele>
        <time>2025-06-17T10:36:28Z</time>
      </trkpt>
      <trkpt lat="43.4005" lon="3.56163">
        <ele>36.8</ele>
        <time>2025-06-17T10:36:29Z</time>
      </trkpt>
      <trkpt lat="43.40048" lon="3.56169">
        <ele>36.8</ele>
        <time>2025-06-17T10:36:30Z</time>
      </trkpt>
      <trkpt lat="43.40046" lon="3.56174">
        <ele>36.8</ele>
        <time>2025-06-17T10:36:31Z</time>
      </trkpt>
      <trkpt lat="43.40043" lon="3.5618">
        <ele>36.8</ele>
        <time>2025-06-17T10:36:32Z</time>
      </trkpt>
      <trkpt lat="43.40041" lon="3.56186">
        <ele>36.8</ele>
        <time>2025-06-17T10:36:33Z</time>
      </trkpt>
      <trkpt lat="43.40038" lon="3.56192">
        <ele>36.8</ele>
        <time>2025-06-17T10:36:34Z</time>
      </trkpt>
      <trkpt lat="43.40036" lon="3.56197">
        <ele>36.8</ele>
        <time>2025-06-17T10:36:35Z</time>
      </trkpt>
      <trkpt lat="43.40033" lon="3.56203">
        <ele>36.8</ele>
        <time>2025-06-17T10:36:36Z</time>
      </trkpt>
      <trkpt lat="43.4003" lon="3.5621">
        <ele>36.8</ele>
        <time>2025-06-17T10:36:37Z</time>
      </trkpt>
      <trkpt lat="43.40027" lon="3.56216">
        <ele>36.8</ele>
        <time>2025-06-17T10:36:38Z</time>
      </trkpt>
      <trkpt lat="43.40025" lon="3.56222">
        <ele>36.8</ele>
        <time>2025-06-17T10:36:39Z</time>
      </trkpt>
      <trkpt lat="43.40023" lon="3.56227">
        <ele>36.8</ele>
        <time>2025-06-17T10:36:40Z</time>
      </trkpt>
      <trkpt lat="43.4002" lon="3.56234">
        <ele>36.8</ele>
        <time>2025-06-17T10:36:41Z</time>
      </trkpt>
      <trkpt lat="43.40017" lon="3.5624">
        <ele>36.8</ele>
        <time>2025-06-17T10:36:42Z</time>
      </trkpt>
      <trkpt lat="43.40014" lon="3.56246">
        <ele>36.8</ele>
        <time>2025-06-17T10:36:43Z</time>
      </trkpt>
      <trkpt lat="43.40012" lon="3.56251">
        <ele>36.8</ele>
        <time>2025-06-17T10:36:44Z</time>
      </trkpt>
      <trkpt lat="43.40009" lon="3.56257">
        <ele>36.8</ele>
        <time>2025-06-17T10:36:45Z</time>
      </trkpt>
      <trkpt lat="43.40007" lon="3.56262">
        <ele>36.8</ele>
        <time>2025-06-17T10:36:46Z</time>
      </trkpt>
      <trkpt lat="43.40003" lon="3.56268">
        <ele>36.6</ele>
        <time>2025-06-17T10:36:47Z</time>
      </trkpt>
      <trkpt lat="43.4" lon="3.56274">
        <ele>36.6</ele>
        <time>2025-06-17T10:36:48Z</time>
      </trkpt>
      <trkpt lat="43.39998" lon="3.56279">
        <ele>36.6</ele>
        <time>2025-06-17T10:36:49Z</time>
      </trkpt>
      <trkpt lat="43.39995" lon="3.56285">
        <ele>36.6</ele>
        <time>2025-06-17T10:36:50Z</time>
      </trkpt>
      <trkpt lat="43.39992" lon="3.56291">
        <ele>36.6</ele>
        <time>2025-06-17T10:36:51Z</time>
      </trkpt>
      <trkpt lat="43.39989" lon="3.56297">
        <ele>36.6</ele>
        <time>2025-06-17T10:36:52Z</time>
      </trkpt>
      <trkpt lat="43.39986" lon="3.56302">
        <ele>36.6</ele>
        <time>2025-06-17T10:36:53Z</time>
      </trkpt>
      <trkpt lat="43.39983" lon="3.56307">
        <ele>36.6</ele>
        <time>2025-06-17T10:36:54Z</time>
      </trkpt>
      <trkpt lat="43.3998" lon="3.56312">
        <ele>36.6</ele>
        <time>2025-06-17T10:36:55Z</time>
      </trkpt>
      <trkpt lat="43.39977" lon="3.56319">
        <ele>36.6</ele>
        <time>2025-06-17T10:36:56Z</time>
      </trkpt>
      <trkpt lat="43.39974" lon="3.56324">
        <ele>36.6</ele>
        <time>2025-06-17T10:36:57Z</time>
      </trkpt>
      <trkpt lat="43.39972" lon="3.5633">
        <ele>36.6</ele>
        <time>2025-06-17T10:36:58Z</time>
      </trkpt>
      <trkpt lat="43.39969" lon="3.56336">
        <ele>36.6</ele>
        <time>2025-06-17T10:36:59Z</time>
      </trkpt>
      <trkpt lat="43.39966" lon="3.56341">
        <ele>36.6</ele>
        <time>2025-06-17T10:37:00Z</time>
      </trkpt>
      <trkpt lat="43.39963" lon="3.56346">
        <ele>36.6</ele>
        <time>2025-06-17T10:37:01Z</time>
      </trkpt>
      <trkpt lat="43.3996" lon="3.56352">
        <ele>36.6</ele>
        <time>2025-06-17T10:37:02Z</time>
      </trkpt>
      <trkpt lat="43.39958" lon="3.56357">
        <ele>36.6</ele>
        <time>2025-06-17T10:37:03Z</time>
      </trkpt>
      <trkpt lat="43.39955" lon="3.56362">
        <ele>36.8</ele>
        <time>2025-06-17T10:37:04Z</time>
      </trkpt>
      <trkpt lat="43.39953" lon="3.56367">
        <ele>36.8</ele>
        <time>2025-06-17T10:37:05Z</time>
      </trkpt>
      <trkpt lat="43.3995" lon="3.56372">
        <ele>37</ele>
        <time>2025-06-17T10:37:06Z</time>
      </trkpt>
      <trkpt lat="43.39947" lon="3.56377">
        <ele>37</ele>
        <time>2025-06-17T10:37:07Z</time>
      </trkpt>
      <trkpt lat="43.39944" lon="3.56381">
        <ele>37.2</ele>
        <time>2025-06-17T10:37:08Z</time>
      </trkpt>
      <trkpt lat="43.39942" lon="3.56384">
        <ele>37.2</ele>
        <time>2025-06-17T10:37:09Z</time>
      </trkpt>
      <trkpt lat="43.39939" lon="3.56388">
        <ele>37.4</ele>
        <time>2025-06-17T10:37:10Z</time>
      </trkpt>
      <trkpt lat="43.39936" lon="3.56389">
        <ele>37.4</ele>
        <time>2025-06-17T10:37:11Z</time>
      </trkpt>
      <trkpt lat="43.39934" lon="3.5639">
        <ele>37.6</ele>
        <time>2025-06-17T10:37:12Z</time>
      </trkpt>
      <trkpt lat="43.39931" lon="3.56389">
        <ele>37.8</ele>
        <time>2025-06-17T10:37:13Z</time>
      </trkpt>
      <trkpt lat="43.39928" lon="3.56387">
        <ele>37.8</ele>
        <time>2025-06-17T10:37:14Z</time>
      </trkpt>
      <trkpt lat="43.39925" lon="3.56385">
        <ele>37.8</ele>
        <time>2025-06-17T10:37:15Z</time>
      </trkpt>
      <trkpt lat="43.39922" lon="3.56382">
        <ele>37.8</ele>
        <time>2025-06-17T10:37:16Z</time>
      </trkpt>
      <trkpt lat="43.39919" lon="3.5638">
        <ele>37.6</ele>
        <time>2025-06-17T10:37:17Z</time>
      </trkpt>
      <trkpt lat="43.39916" lon="3.56377">
        <ele>37.6</ele>
        <time>2025-06-17T10:37:18Z</time>
      </trkpt>
      <trkpt lat="43.39911" lon="3.56374">
        <ele>37.4</ele>
        <time>2025-06-17T10:37:19Z</time>
      </trkpt>
      <trkpt lat="43.39907" lon="3.56372">
        <ele>37.2</ele>
        <time>2025-06-17T10:37:20Z</time>
      </trkpt>
      <trkpt lat="43.39903" lon="3.56368">
        <ele>37</ele>
        <time>2025-06-17T10:37:21Z</time>
      </trkpt>
      <trkpt lat="43.39898" lon="3.56364">
        <ele>36.8</ele>
        <time>2025-06-17T10:37:22Z</time>
      </trkpt>
      <trkpt lat="43.39893" lon="3.5636">
        <ele>36.4</ele>
        <time>2025-06-17T10:37:23Z</time>
      </trkpt>
      <trkpt lat="43.39888" lon="3.56355">
        <ele>35.8</ele>
        <time>2025-06-17T10:37:24Z</time>
      </trkpt>
      <trkpt lat="43.39882" lon="3.56351">
        <ele>35.4</ele>
        <time>2025-06-17T10:37:25Z</time>
      </trkpt>
      <trkpt lat="43.39877" lon="3.56347">
        <ele>35</ele>
        <time>2025-06-17T10:37:26Z</time>
      </trkpt>
      <trkpt lat="43.39872" lon="3.56343">
        <ele>34.4</ele>
        <time>2025-06-17T10:37:27Z</time>
      </trkpt>
      <trkpt lat="43.39868" lon="3.56338">
        <ele>34</ele>
        <time>2025-06-17T10:37:28Z</time>
      </trkpt>
      <trkpt lat="43.39864" lon="3.56333">
        <ele>33.6</ele>
        <time>2025-06-17T10:37:29Z</time>
      </trkpt>
      <trkpt lat="43.39861" lon="3.56329">
        <ele>33</ele>
        <time>2025-06-17T10:37:30Z</time>
      </trkpt>
      <trkpt lat="43.39859" lon="3.56325">
        <ele>32.6</ele>
        <time>2025-06-17T10:37:31Z</time>
      </trkpt>
      <trkpt lat="43.39855" lon="3.56324">
        <ele>32.2</ele>
        <time>2025-06-17T10:37:32Z</time>
      </trkpt>
      <trkpt lat="43.39853" lon="3.56323">
        <ele>31.8</ele>
        <time>2025-06-17T10:37:33Z</time>
      </trkpt>
      <trkpt lat="43.3985" lon="3.56325">
        <ele>31.4</ele>
        <time>2025-06-17T10:37:34Z</time>
      </trkpt>
      <trkpt lat="43.39848" lon="3.56328">
        <ele>31.2</ele>
        <time>2025-06-17T10:37:35Z</time>
      </trkpt>
      <trkpt lat="43.39846" lon="3.56333">
        <ele>31</ele>
        <time>2025-06-17T10:37:36Z</time>
      </trkpt>
      <trkpt lat="43.39844" lon="3.56337">
        <ele>30.8</ele>
        <time>2025-06-17T10:37:37Z</time>
      </trkpt>
      <trkpt lat="43.39841" lon="3.56342">
        <ele>30.6</ele>
        <time>2025-06-17T10:37:38Z</time>
      </trkpt>
      <trkpt lat="43.39839" lon="3.56346">
        <ele>30.4</ele>
        <time>2025-06-17T10:37:39Z</time>
      </trkpt>
      <trkpt lat="43.39836" lon="3.56351">
        <ele>30.4</ele>
        <time>2025-06-17T10:37:40Z</time>
      </trkpt>
      <trkpt lat="43.39834" lon="3.56355">
        <ele>30.4</ele>
        <time>2025-06-17T10:37:41Z</time>
      </trkpt>
      <trkpt lat="43.39832" lon="3.5636">
        <ele>30.4</ele>
        <time>2025-06-17T10:37:42Z</time>
      </trkpt>
      <trkpt lat="43.3983" lon="3.56364">
        <ele>30.4</ele>
        <time>2025-06-17T10:37:43Z</time>
      </trkpt>
      <trkpt lat="43.39827" lon="3.56369">
        <ele>30.4</ele>
        <time>2025-06-17T10:37:44Z</time>
      </trkpt>
      <trkpt lat="43.39825" lon="3.56374">
        <ele>30.4</ele>
        <time>2025-06-17T10:37:45Z</time>
      </trkpt>
      <trkpt lat="43.39823" lon="3.56379">
        <ele>30.4</ele>
        <time>2025-06-17T10:37:46Z</time>
      </trkpt>
      <trkpt lat="43.39821" lon="3.56384">
        <ele>30.6</ele>
        <time>2025-06-17T10:37:47Z</time>
      </trkpt>
      <trkpt lat="43.39818" lon="3.5639">
        <ele>30.6</ele>
        <time>2025-06-17T10:37:48Z</time>
      </trkpt>
      <trkpt lat="43.39816" lon="3.56395">
        <ele>30.6</ele>
        <time>2025-06-17T10:37:49Z</time>
      </trkpt>
      <trkpt lat="43.39813" lon="3.564">
        <ele>30.6</ele>
        <time>2025-06-17T10:37:50Z</time>
      </trkpt>
      <trkpt lat="43.39811" lon="3.56405">
        <ele>30.6</ele>
        <time>2025-06-17T10:37:51Z</time>
      </trkpt>
      <trkpt lat="43.39808" lon="3.5641">
        <ele>30.6</ele>
        <time>2025-06-17T10:37:52Z</time>
      </trkpt>
      <trkpt lat="43.39805" lon="3.56416">
        <ele>30.6</ele>
        <time>2025-06-17T10:37:53Z</time>
      </trkpt>
      <trkpt lat="43.39803" lon="3.56421">
        <ele>30.4</ele>
        <time>2025-06-17T10:37:54Z</time>
      </trkpt>
      <trkpt lat="43.398" lon="3.56426">
        <ele>30.4</ele>
        <time>2025-06-17T10:37:55Z</time>
      </trkpt>
      <trkpt lat="43.39798" lon="3.56431">
        <ele>30.4</ele>
        <time>2025-06-17T10:37:56Z</time>
      </trkpt>
      <trkpt lat="43.39795" lon="3.56437">
        <ele>30.4</ele>
        <time>2025-06-17T10:37:57Z</time>
      </trkpt>
      <trkpt lat="43.39792" lon="3.56442">
        <ele>30.4</ele>
        <time>2025-06-17T10:37:58Z</time>
      </trkpt>
      <trkpt lat="43.39789" lon="3.56447">
        <ele>30.4</ele>
        <time>2025-06-17T10:37:59Z</time>
      </trkpt>
      <trkpt lat="43.39787" lon="3.56452">
        <ele>30.2</ele>
        <time>2025-06-17T10:38:00Z</time>
      </trkpt>
      <trkpt lat="43.39784" lon="3.56456">
        <ele>30.2</ele>
        <time>2025-06-17T10:38:01Z</time>
      </trkpt>
      <trkpt lat="43.39782" lon="3.56461">
        <ele>30.2</ele>
        <time>2025-06-17T10:38:02Z</time>
      </trkpt>
      <trkpt lat="43.39779" lon="3.56466">
        <ele>30.2</ele>
        <time>2025-06-17T10:38:03Z</time>
      </trkpt>
      <trkpt lat="43.39776" lon="3.56471">
        <ele>30</ele>
        <time>2025-06-17T10:38:04Z</time>
      </trkpt>
      <trkpt lat="43.39774" lon="3.56475">
        <ele>30</ele>
        <time>2025-06-17T10:38:05Z</time>
      </trkpt>
      <trkpt lat="43.39772" lon="3.56481">
        <ele>29.8</ele>
        <time>2025-06-17T10:38:06Z</time>
      </trkpt>
      <trkpt lat="43.39769" lon="3.56487">
        <ele>29.6</ele>
        <time>2025-06-17T10:38:07Z</time>
      </trkpt>
      <trkpt lat="43.39766" lon="3.56492">
        <ele>29.6</ele>
        <time>2025-06-17T10:38:08Z</time>
      </trkpt>
      <trkpt lat="43.39764" lon="3.56498">
        <ele>29.4</ele>
        <time>2025-06-17T10:38:09Z</time>
      </trkpt>
      <trkpt lat="43.39761" lon="3.56505">
        <ele>29.4</ele>
        <time>2025-06-17T10:38:10Z</time>
      </trkpt>
      <trkpt lat="43.39758" lon="3.5651">
        <ele>29.2</ele>
        <time>2025-06-17T10:38:11Z</time>
      </trkpt>
      <trkpt lat="43.39756" lon="3.56516">
        <ele>29</ele>
        <time>2025-06-17T10:38:12Z</time>
      </trkpt>
      <trkpt lat="43.39753" lon="3.56522">
        <ele>28.8</ele>
        <time>2025-06-17T10:38:13Z</time>
      </trkpt>
      <trkpt lat="43.39749" lon="3.56528">
        <ele>28.4</ele>
        <time>2025-06-17T10:38:14Z</time>
      </trkpt>
      <trkpt lat="43.39745" lon="3.56534">
        <ele>28.2</ele>
        <time>2025-06-17T10:38:15Z</time>
      </trkpt>
      <trkpt lat="43.39742" lon="3.5654">
        <ele>27.8</ele>
        <time>2025-06-17T10:38:16Z</time>
      </trkpt>
      <trkpt lat="43.39738" lon="3.56545">
        <ele>27.4</ele>
        <time>2025-06-17T10:38:17Z</time>
      </trkpt>
      <trkpt lat="43.39734" lon="3.56551">
        <ele>27</ele>
        <time>2025-06-17T10:38:18Z</time>
      </trkpt>
      <trkpt lat="43.39731" lon="3.56555">
        <ele>26.8</ele>
        <time>2025-06-17T10:38:19Z</time>
      </trkpt>
      <trkpt lat="43.39727" lon="3.56559">
        <ele>26.4</ele>
        <time>2025-06-17T10:38:20Z</time>
      </trkpt>
      <trkpt lat="43.39724" lon="3.56562">
        <ele>26.2</ele>
        <time>2025-06-17T10:38:21Z</time>
      </trkpt>
      <trkpt lat="43.3972" lon="3.56565">
        <ele>25.8</ele>
        <time>2025-06-17T10:38:22Z</time>
      </trkpt>
      <trkpt lat="43.39717" lon="3.56567">
        <ele>25.4</ele>
        <time>2025-06-17T10:38:23Z</time>
      </trkpt>
      <trkpt lat="43.39714" lon="3.5657">
        <ele>25</ele>
        <time>2025-06-17T10:38:24Z</time>
      </trkpt>
      <trkpt lat="43.39712" lon="3.56572">
        <ele>24.6</ele>
        <time>2025-06-17T10:38:25Z</time>
      </trkpt>
      <trkpt lat="43.39709" lon="3.56575">
        <ele>24</ele>
        <time>2025-06-17T10:38:26Z</time>
      </trkpt>
      <trkpt lat="43.39707" lon="3.56578">
        <ele>23.4</ele>
        <time>2025-06-17T10:38:27Z</time>
      </trkpt>
      <trkpt lat="43.39704" lon="3.56582">
        <ele>22.8</ele>
        <time>2025-06-17T10:38:28Z</time>
      </trkpt>
      <trkpt lat="43.39701" lon="3.56585">
        <ele>22.2</ele>
        <time>2025-06-17T10:38:29Z</time>
      </trkpt>
      <trkpt lat="43.39697" lon="3.56587">
        <ele>21.8</ele>
        <time>2025-06-17T10:38:30Z</time>
      </trkpt>
      <trkpt lat="43.39694" lon="3.56587">
        <ele>21.4</ele>
        <time>2025-06-17T10:38:31Z</time>
      </trkpt>
      <trkpt lat="43.39689" lon="3.56585">
        <ele>21</ele>
        <time>2025-06-17T10:38:32Z</time>
      </trkpt>
      <trkpt lat="43.39685" lon="3.56582">
        <ele>20.8</ele>
        <time>2025-06-17T10:38:33Z</time>
      </trkpt>
      <trkpt lat="43.39682" lon="3.56579">
        <ele>20.6</ele>
        <time>2025-06-17T10:38:34Z</time>
      </trkpt>
      <trkpt lat="43.39679" lon="3.56575">
        <ele>20.6</ele>
        <time>2025-06-17T10:38:35Z</time>
      </trkpt>
      <trkpt lat="43.39676" lon="3.56571">
        <ele>20.4</ele>
        <time>2025-06-17T10:38:36Z</time>
      </trkpt>
      <trkpt lat="43.39673" lon="3.56567">
        <ele>20.2</ele>
        <time>2025-06-17T10:38:37Z</time>
      </trkpt>
      <trkpt lat="43.39669" lon="3.56563">
        <ele>20.2</ele>
        <time>2025-06-17T10:38:38Z</time>
      </trkpt>
      <trkpt lat="43.39665" lon="3.56558">
        <ele>20.2</ele>
        <time>2025-06-17T10:38:39Z</time>
      </trkpt>
      <trkpt lat="43.39661" lon="3.56554">
        <ele>20.2</ele>
        <time>2025-06-17T10:38:40Z</time>
      </trkpt>
      <trkpt lat="43.39658" lon="3.5655">
        <ele>20</ele>
        <time>2025-06-17T10:38:41Z</time>
      </trkpt>
      <trkpt lat="43.39653" lon="3.56545">
        <ele>20</ele>
        <time>2025-06-17T10:38:42Z</time>
      </trkpt>
      <trkpt lat="43.3965" lon="3.56541">
        <ele>20</ele>
        <time>2025-06-17T10:38:43Z</time>
      </trkpt>
      <trkpt lat="43.39646" lon="3.56537">
        <ele>20</ele>
        <time>2025-06-17T10:38:44Z</time>
      </trkpt>
      <trkpt lat="43.39642" lon="3.56533">
        <ele>20</ele>
        <time>2025-06-17T10:38:45Z</time>
      </trkpt>
      <trkpt lat="43.39639" lon="3.56528">
        <ele>20</ele>
        <time>2025-06-17T10:38:46Z</time>
      </trkpt>
      <trkpt lat="43.39635" lon="3.56524">
        <ele>20</ele>
        <time>2025-06-17T10:38:47Z</time>
      </trkpt>
      <trkpt lat="43.39631" lon="3.5652">
        <ele>20</ele>
        <time>2025-06-17T10:38:48Z</time>
      </trkpt>
      <trkpt lat="43.39628" lon="3.56516">
        <ele>20</ele>
        <time>2025-06-17T10:38:49Z</time>
      </trkpt>
      <trkpt lat="43.39624" lon="3.56512">
        <ele>20</ele>
        <time>2025-06-17T10:38:50Z</time>
      </trkpt>
      <trkpt lat="43.39621" lon="3.56508">
        <ele>20</ele>
        <time>2025-06-17T10:38:51Z</time>
      </trkpt>
      <trkpt lat="43.39617" lon="3.56503">
        <ele>19.8</ele>
        <time>2025-06-17T10:38:52Z</time>
      </trkpt>
      <trkpt lat="43.39613" lon="3.56499">
        <ele>19.8</ele>
        <time>2025-06-17T10:38:53Z</time>
      </trkpt>
      <trkpt lat="43.3961" lon="3.56494">
        <ele>19.8</ele>
        <time>2025-06-17T10:38:54Z</time>
      </trkpt>
      <trkpt lat="43.39606" lon="3.5649">
        <ele>19.8</ele>
        <time>2025-06-17T10:38:55Z</time>
      </trkpt>
      <trkpt lat="43.39602" lon="3.56486">
        <ele>19.8</ele>
        <time>2025-06-17T10:38:56Z</time>
      </trkpt>
      <trkpt lat="43.39598" lon="3.56481">
        <ele>19.8</ele>
        <time>2025-06-17T10:38:57Z</time>
      </trkpt>
      <trkpt lat="43.39594" lon="3.56477">
        <ele>19.8</ele>
        <time>2025-06-17T10:38:58Z</time>
      </trkpt>
      <trkpt lat="43.3959" lon="3.56473">
        <ele>19.8</ele>
        <time>2025-06-17T10:38:59Z</time>
      </trkpt>
      <trkpt lat="43.39586" lon="3.56468">
        <ele>19.8</ele>
        <time>2025-06-17T10:39:00Z</time>
      </trkpt>
      <trkpt lat="43.39582" lon="3.56464">
        <ele>19.8</ele>
        <time>2025-06-17T10:39:01Z</time>
      </trkpt>
      <trkpt lat="43.39578" lon="3.5646">
        <ele>19.8</ele>
        <time>2025-06-17T10:39:02Z</time>
      </trkpt>
      <trkpt lat="43.39574" lon="3.56456">
        <ele>19.8</ele>
        <time>2025-06-17T10:39:03Z</time>
      </trkpt>
      <trkpt lat="43.3957" lon="3.56452">
        <ele>19.8</ele>
        <time>2025-06-17T10:39:04Z</time>
      </trkpt>
      <trkpt lat="43.39567" lon="3.56448">
        <ele>19.8</ele>
        <time>2025-06-17T10:39:05Z</time>
      </trkpt>
      <trkpt lat="43.39563" lon="3.56445">
        <ele>19.8</ele>
        <time>2025-06-17T10:39:06Z</time>
      </trkpt>
      <trkpt lat="43.3956" lon="3.56441">
        <ele>19.8</ele>
        <time>2025-06-17T10:39:07Z</time>
      </trkpt>
      <trkpt lat="43.39556" lon="3.56437">
        <ele>19.8</ele>
        <time>2025-06-17T10:39:08Z</time>
      </trkpt>
      <trkpt lat="43.39552" lon="3.56433">
        <ele>19.8</ele>
        <time>2025-06-17T10:39:09Z</time>
      </trkpt>
      <trkpt lat="43.39549" lon="3.56429">
        <ele>19.6</ele>
        <time>2025-06-17T10:39:10Z</time>
      </trkpt>
      <trkpt lat="43.39545" lon="3.56425">
        <ele>19.6</ele>
        <time>2025-06-17T10:39:11Z</time>
      </trkpt>
      <trkpt lat="43.39541" lon="3.56421">
        <ele>19.6</ele>
        <time>2025-06-17T10:39:12Z</time>
      </trkpt>
      <trkpt lat="43.39537" lon="3.56416">
        <ele>19.6</ele>
        <time>2025-06-17T10:39:13Z</time>
      </trkpt>
      <trkpt lat="43.39533" lon="3.56413">
        <ele>19.6</ele>
        <time>2025-06-17T10:39:14Z</time>
      </trkpt>
      <trkpt lat="43.39529" lon="3.56409">
        <ele>19.6</ele>
        <time>2025-06-17T10:39:15Z</time>
      </trkpt>
      <trkpt lat="43.39525" lon="3.56406">
        <ele>19.6</ele>
        <time>2025-06-17T10:39:16Z</time>
      </trkpt>
      <trkpt lat="43.39521" lon="3.56403">
        <ele>19.6</ele>
        <time>2025-06-17T10:39:17Z</time>
      </trkpt>
      <trkpt lat="43.39518" lon="3.56399">
        <ele>19.6</ele>
        <time>2025-06-17T10:39:18Z</time>
      </trkpt>
      <trkpt lat="43.39514" lon="3.56395">
        <ele>19.6</ele>
        <time>2025-06-17T10:39:19Z</time>
      </trkpt>
      <trkpt lat="43.39512" lon="3.56391">
        <ele>19.6</ele>
        <time>2025-06-17T10:39:20Z</time>
      </trkpt>
      <trkpt lat="43.3951" lon="3.56386">
        <ele>19.6</ele>
        <time>2025-06-17T10:39:21Z</time>
      </trkpt>
      <trkpt lat="43.3951" lon="3.56381">
        <ele>19.6</ele>
        <time>2025-06-17T10:39:22Z</time>
      </trkpt>
      <trkpt lat="43.39511" lon="3.56376">
        <ele>19.6</ele>
        <time>2025-06-17T10:39:23Z</time>
      </trkpt>
      <trkpt lat="43.39512" lon="3.5637">
        <ele>19.6</ele>
        <time>2025-06-17T10:39:24Z</time>
      </trkpt>
      <trkpt lat="43.39515" lon="3.56365">
        <ele>19.6</ele>
        <time>2025-06-17T10:39:25Z</time>
      </trkpt>
      <trkpt lat="43.39517" lon="3.5636">
        <ele>19.6</ele>
        <time>2025-06-17T10:39:26Z</time>
      </trkpt>
      <trkpt lat="43.3952" lon="3.56356">
        <ele>19.6</ele>
        <time>2025-06-17T10:39:27Z</time>
      </trkpt>
      <trkpt lat="43.39523" lon="3.56352">
        <ele>19.6</ele>
        <time>2025-06-17T10:39:28Z</time>
      </trkpt>
      <trkpt lat="43.39526" lon="3.56347">
        <ele>19.6</ele>
        <time>2025-06-17T10:39:29Z</time>
      </trkpt>
      <trkpt lat="43.39529" lon="3.56343">
        <ele>19.6</ele>
        <time>2025-06-17T10:39:30Z</time>
      </trkpt>
      <trkpt lat="43.39532" lon="3.56338">
        <ele>19.6</ele>
        <time>2025-06-17T10:39:31Z</time>
      </trkpt>
      <trkpt lat="43.39535" lon="3.56334">
        <ele>19.6</ele>
        <time>2025-06-17T10:39:32Z</time>
      </trkpt>
      <trkpt lat="43.39537" lon="3.56329">
        <ele>19.6</ele>
        <time>2025-06-17T10:39:33Z</time>
      </trkpt>
      <trkpt lat="43.3954" lon="3.56325">
        <ele>19.4</ele>
        <time>2025-06-17T10:39:34Z</time>
      </trkpt>
      <trkpt lat="43.39543" lon="3.56321">
        <ele>19.4</ele>
        <time>2025-06-17T10:39:35Z</time>
      </trkpt>
      <trkpt lat="43.39546" lon="3.56317">
        <ele>19.4</ele>
        <time>2025-06-17T10:39:36Z</time>
      </trkpt>
      <trkpt lat="43.39549" lon="3.56313">
        <ele>19.4</ele>
        <time>2025-06-17T10:39:37Z</time>
      </trkpt>
      <trkpt lat="43.39552" lon="3.56309">
        <ele>19.4</ele>
        <time>2025-06-17T10:39:38Z</time>
      </trkpt>
      <trkpt lat="43.39555" lon="3.56305">
        <ele>19.4</ele>
        <time>2025-06-17T10:39:39Z</time>
      </trkpt>
      <trkpt lat="43.39558" lon="3.56301">
        <ele>19.4</ele>
        <time>2025-06-17T10:39:40Z</time>
      </trkpt>
      <trkpt lat="43.3956" lon="3.56298">
        <ele>19.2</ele>
        <time>2025-06-17T10:39:41Z</time>
      </trkpt>
      <trkpt lat="43.39564" lon="3.56294">
        <ele>19.2</ele>
        <time>2025-06-17T10:39:42Z</time>
      </trkpt>
      <trkpt lat="43.39566" lon="3.5629">
        <ele>19.2</ele>
        <time>2025-06-17T10:39:43Z</time>
      </trkpt>
      <trkpt lat="43.39568" lon="3.56286">
        <ele>19.2</ele>
        <time>2025-06-17T10:39:44Z</time>
      </trkpt>
      <trkpt lat="43.39568" lon="3.56282">
        <ele>19.2</ele>
        <time>2025-06-17T10:39:45Z</time>
      </trkpt>
      <trkpt lat="43.39567" lon="3.56278">
        <ele>19.2</ele>
        <time>2025-06-17T10:39:46Z</time>
      </trkpt>
      <trkpt lat="43.39565" lon="3.56275">
        <ele>19.2</ele>
        <time>2025-06-17T10:39:47Z</time>
      </trkpt>
      <trkpt lat="43.39562" lon="3.56272">
        <ele>19.2</ele>
        <time>2025-06-17T10:39:48Z</time>
      </trkpt>
      <trkpt lat="43.39558" lon="3.5627">
        <ele>19.2</ele>
        <time>2025-06-17T10:39:49Z</time>
      </trkpt>
      <trkpt lat="43.39555" lon="3.56266">
        <ele>19.2</ele>
        <time>2025-06-17T10:39:50Z</time>
      </trkpt>
      <trkpt lat="43.39551" lon="3.56263">
        <ele>19</ele>
        <time>2025-06-17T10:39:51Z</time>
      </trkpt>
      <trkpt lat="43.39547" lon="3.56261">
        <ele>19</ele>
        <time>2025-06-17T10:39:52Z</time>
      </trkpt>
      <trkpt lat="43.39544" lon="3.56258">
        <ele>19.2</ele>
        <time>2025-06-17T10:39:53Z</time>
      </trkpt>
      <trkpt lat="43.39539" lon="3.56254">
        <ele>19</ele>
        <time>2025-06-17T10:39:54Z</time>
      </trkpt>
      <trkpt lat="43.39535" lon="3.56251">
        <ele>19.2</ele>
        <time>2025-06-17T10:39:55Z</time>
      </trkpt>
      <trkpt lat="43.39531" lon="3.56248">
        <ele>19.2</ele>
        <time>2025-06-17T10:39:56Z</time>
      </trkpt>
      <trkpt lat="43.39527" lon="3.56244">
        <ele>19</ele>
        <time>2025-06-17T10:39:57Z</time>
      </trkpt>
      <trkpt lat="43.39522" lon="3.56241">
        <ele>19</ele>
        <time>2025-06-17T10:39:58Z</time>
      </trkpt>
      <trkpt lat="43.39518" lon="3.56237">
        <ele>19</ele>
        <time>2025-06-17T10:39:59Z</time>
      </trkpt>
      <trkpt lat="43.39514" lon="3.56233">
        <ele>19</ele>
        <time>2025-06-17T10:40:00Z</time>
      </trkpt>
      <trkpt lat="43.3951" lon="3.56229">
        <ele>19</ele>
        <time>2025-06-17T10:40:01Z</time>
      </trkpt>
      <trkpt lat="43.39505" lon="3.56225">
        <ele>19</ele>
        <time>2025-06-17T10:40:02Z</time>
      </trkpt>
      <trkpt lat="43.39501" lon="3.56222">
        <ele>19</ele>
        <time>2025-06-17T10:40:03Z</time>
      </trkpt>
      <trkpt lat="43.39497" lon="3.56218">
        <ele>19</ele>
        <time>2025-06-17T10:40:04Z</time>
      </trkpt>
      <trkpt lat="43.39492" lon="3.56215">
        <ele>19</ele>
        <time>2025-06-17T10:40:05Z</time>
      </trkpt>
      <trkpt lat="43.39488" lon="3.56211">
        <ele>19</ele>
        <time>2025-06-17T10:40:06Z</time>
      </trkpt>
      <trkpt lat="43.39484" lon="3.56209">
        <ele>19</ele>
        <time>2025-06-17T10:40:07Z</time>
      </trkpt>
      <trkpt lat="43.39479" lon="3.56206">
        <ele>19</ele>
        <time>2025-06-17T10:40:08Z</time>
      </trkpt>
      <trkpt lat="43.39475" lon="3.56202">
        <ele>19</ele>
        <time>2025-06-17T10:40:09Z</time>
      </trkpt>
      <trkpt lat="43.39471" lon="3.56199">
        <ele>19</ele>
        <time>2025-06-17T10:40:10Z</time>
      </trkpt>
      <trkpt lat="43.39466" lon="3.56195">
        <ele>19</ele>
        <time>2025-06-17T10:40:11Z</time>
      </trkpt>
      <trkpt lat="43.39461" lon="3.56192">
        <ele>19</ele>
        <time>2025-06-17T10:40:12Z</time>
      </trkpt>
      <trkpt lat="43.39457" lon="3.56188">
        <ele>19</ele>
        <time>2025-06-17T10:40:13Z</time>
      </trkpt>
      <trkpt lat="43.39453" lon="3.56184">
        <ele>19</ele>
        <time>2025-06-17T10:40:14Z</time>
      </trkpt>
      <trkpt lat="43.39448" lon="3.56181">
        <ele>19</ele>
        <time>2025-06-17T10:40:15Z</time>
      </trkpt>
      <trkpt lat="43.39444" lon="3.56178">
        <ele>19</ele>
        <time>2025-06-17T10:40:16Z</time>
      </trkpt>
      <trkpt lat="43.3944" lon="3.56175">
        <ele>19</ele>
        <time>2025-06-17T10:40:17Z</time>
      </trkpt>
      <trkpt lat="43.39436" lon="3.56172">
        <ele>19</ele>
        <time>2025-06-17T10:40:18Z</time>
      </trkpt>
      <trkpt lat="43.39433" lon="3.56168">
        <ele>19</ele>
        <time>2025-06-17T10:40:19Z</time>
      </trkpt>
      <trkpt lat="43.3943" lon="3.56165">
        <ele>19</ele>
        <time>2025-06-17T10:40:20Z</time>
      </trkpt>
      <trkpt lat="43.39426" lon="3.56161">
        <ele>19</ele>
        <time>2025-06-17T10:40:21Z</time>
      </trkpt>
      <trkpt lat="43.39423" lon="3.56158">
        <ele>19</ele>
        <time>2025-06-17T10:40:22Z</time>
      </trkpt>
      <trkpt lat="43.39419" lon="3.56153">
        <ele>19</ele>
        <time>2025-06-17T10:40:23Z</time>
      </trkpt>
      <trkpt lat="43.39415" lon="3.5615">
        <ele>19</ele>
        <time>2025-06-17T10:40:24Z</time>
      </trkpt>
      <trkpt lat="43.39412" lon="3.56145">
        <ele>19</ele>
        <time>2025-06-17T10:40:25Z</time>
      </trkpt>
      <trkpt lat="43.39408" lon="3.56142">
        <ele>19</ele>
        <time>2025-06-17T10:40:26Z</time>
      </trkpt>
      <trkpt lat="43.39404" lon="3.56137">
        <ele>19</ele>
        <time>2025-06-17T10:40:27Z</time>
      </trkpt>
      <trkpt lat="43.39401" lon="3.56134">
        <ele>19</ele>
        <time>2025-06-17T10:40:28Z</time>
      </trkpt>
      <trkpt lat="43.39397" lon="3.5613">
        <ele>19</ele>
        <time>2025-06-17T10:40:29Z</time>
      </trkpt>
      <trkpt lat="43.39394" lon="3.56126">
        <ele>18.8</ele>
        <time>2025-06-17T10:40:30Z</time>
      </trkpt>
      <trkpt lat="43.3939" lon="3.56122">
        <ele>18.8</ele>
        <time>2025-06-17T10:40:31Z</time>
      </trkpt>
      <trkpt lat="43.39387" lon="3.56118">
        <ele>18.8</ele>
        <time>2025-06-17T10:40:32Z</time>
      </trkpt>
      <trkpt lat="43.39383" lon="3.56113">
        <ele>18.8</ele>
        <time>2025-06-17T10:40:33Z</time>
      </trkpt>
      <trkpt lat="43.39379" lon="3.56109">
        <ele>18.8</ele>
        <time>2025-06-17T10:40:34Z</time>
      </trkpt>
      <trkpt lat="43.39376" lon="3.56105">
        <ele>19</ele>
        <time>2025-06-17T10:40:35Z</time>
      </trkpt>
      <trkpt lat="43.39372" lon="3.561">
        <ele>18.8</ele>
        <time>2025-06-17T10:40:36Z</time>
      </trkpt>
      <trkpt lat="43.39369" lon="3.56097">
        <ele>18.8</ele>
        <time>2025-06-17T10:40:37Z</time>
      </trkpt>
      <trkpt lat="43.39364" lon="3.56093">
        <ele>18.8</ele>
        <time>2025-06-17T10:40:38Z</time>
      </trkpt>
      <trkpt lat="43.3936" lon="3.56089">
        <ele>18.8</ele>
        <time>2025-06-17T10:40:39Z</time>
      </trkpt>
      <trkpt lat="43.39357" lon="3.56085">
        <ele>18.8</ele>
        <time>2025-06-17T10:40:40Z</time>
      </trkpt>
      <trkpt lat="43.39353" lon="3.5608">
        <ele>18.8</ele>
        <time>2025-06-17T10:40:41Z</time>
      </trkpt>
      <trkpt lat="43.3935" lon="3.56076">
        <ele>18.8</ele>
        <time>2025-06-17T10:40:42Z</time>
      </trkpt>
      <trkpt lat="43.39345" lon="3.56072">
        <ele>18.8</ele>
        <time>2025-06-17T10:40:43Z</time>
      </trkpt>
      <trkpt lat="43.39341" lon="3.56068">
        <ele>18.8</ele>
        <time>2025-06-17T10:40:44Z</time>
      </trkpt>
      <trkpt lat="43.39337" lon="3.56064">
        <ele>18.8</ele>
        <time>2025-06-17T10:40:45Z</time>
      </trkpt>
      <trkpt lat="43.39334" lon="3.5606">
        <ele>18.8</ele>
        <time>2025-06-17T10:40:46Z</time>
      </trkpt>
      <trkpt lat="43.3933" lon="3.56056">
        <ele>18.8</ele>
        <time>2025-06-17T10:40:47Z</time>
      </trkpt>
      <trkpt lat="43.39326" lon="3.56052">
        <ele>18.8</ele>
        <time>2025-06-17T10:40:48Z</time>
      </trkpt>
      <trkpt lat="43.39322" lon="3.56047">
        <ele>18.8</ele>
        <time>2025-06-17T10:40:49Z</time>
      </trkpt>
      <trkpt lat="43.39318" lon="3.56043">
        <ele>18.8</ele>
        <time>2025-06-17T10:40:50Z</time>
      </trkpt>
      <trkpt lat="43.39315" lon="3.56039">
        <ele>18.8</ele>
        <time>2025-06-17T10:40:51Z</time>
      </trkpt>
      <trkpt lat="43.39312" lon="3.56035">
        <ele>18.8</ele>
        <time>2025-06-17T10:40:52Z</time>
      </trkpt>
      <trkpt lat="43.39308" lon="3.56031">
        <ele>18.8</ele>
        <time>2025-06-17T10:40:53Z</time>
      </trkpt>
      <trkpt lat="43.39305" lon="3.56027">
        <ele>18.8</ele>
        <time>2025-06-17T10:40:54Z</time>
      </trkpt>
      <trkpt lat="43.39301" lon="3.56022">
        <ele>18.8</ele>
        <time>2025-06-17T10:40:55Z</time>
      </trkpt>
      <trkpt lat="43.39297" lon="3.56018">
        <ele>18.8</ele>
        <time>2025-06-17T10:40:56Z</time>
      </trkpt>
      <trkpt lat="43.39294" lon="3.56014">
        <ele>18.8</ele>
        <time>2025-06-17T10:40:57Z</time>
      </trkpt>
      <trkpt lat="43.3929" lon="3.5601">
        <ele>18.8</ele>
        <time>2025-06-17T10:40:58Z</time>
      </trkpt>
      <trkpt lat="43.39287" lon="3.56005">
        <ele>18.8</ele>
        <time>2025-06-17T10:40:59Z</time>
      </trkpt>
      <trkpt lat="43.39283" lon="3.56001">
        <ele>18.6</ele>
        <time>2025-06-17T10:41:00Z</time>
      </trkpt>
      <trkpt lat="43.3928" lon="3.55996">
        <ele>18.6</ele>
        <time>2025-06-17T10:41:01Z</time>
      </trkpt>
      <trkpt lat="43.39278" lon="3.55991">
        <ele>18.6</ele>
        <time>2025-06-17T10:41:02Z</time>
      </trkpt>
      <trkpt lat="43.39276" lon="3.55985">
        <ele>18.6</ele>
        <time>2025-06-17T10:41:03Z</time>
      </trkpt>
      <trkpt lat="43.39275" lon="3.5598">
        <ele>18.8</ele>
        <time>2025-06-17T10:41:04Z</time>
      </trkpt>
      <trkpt lat="43.39276" lon="3.55975">
        <ele>18.8</ele>
        <time>2025-06-17T10:41:05Z</time>
      </trkpt>
      <trkpt lat="43.39277" lon="3.55968">
        <ele>18.8</ele>
        <time>2025-06-17T10:41:06Z</time>
      </trkpt>
      <trkpt lat="43.39278" lon="3.55962">
        <ele>18.8</ele>
        <time>2025-06-17T10:41:07Z</time>
      </trkpt>
      <trkpt lat="43.39278" lon="3.55955">
        <ele>18.8</ele>
        <time>2025-06-17T10:41:08Z</time>
      </trkpt>
      <trkpt lat="43.39279" lon="3.55949">
        <ele>18.8</ele>
        <time>2025-06-17T10:41:09Z</time>
      </trkpt>
      <trkpt lat="43.3928" lon="3.55942">
        <ele>18.8</ele>
        <time>2025-06-17T10:41:10Z</time>
      </trkpt>
      <trkpt lat="43.39281" lon="3.55936">
        <ele>18.8</ele>
        <time>2025-06-17T10:41:11Z</time>
      </trkpt>
      <trkpt lat="43.39282" lon="3.5593">
        <ele>18.8</ele>
        <time>2025-06-17T10:41:12Z</time>
      </trkpt>
      <trkpt lat="43.39283" lon="3.55922">
        <ele>18.8</ele>
        <time>2025-06-17T10:41:13Z</time>
      </trkpt>
      <trkpt lat="43.39284" lon="3.55916">
        <ele>18.8</ele>
        <time>2025-06-17T10:41:14Z</time>
      </trkpt>
      <trkpt lat="43.39285" lon="3.55909">
        <ele>19</ele>
        <time>2025-06-17T10:41:15Z</time>
      </trkpt>
      <trkpt lat="43.39285" lon="3.55903">
        <ele>19</ele>
        <time>2025-06-17T10:41:16Z</time>
      </trkpt>
      <trkpt lat="43.39286" lon="3.55896">
        <ele>18.8</ele>
        <time>2025-06-17T10:41:17Z</time>
      </trkpt>
      <trkpt lat="43.39287" lon="3.55889">
        <ele>18.8</ele>
        <time>2025-06-17T10:41:18Z</time>
      </trkpt>
      <trkpt lat="43.39288" lon="3.55883">
        <ele>19</ele>
        <time>2025-06-17T10:41:19Z</time>
      </trkpt>
      <trkpt lat="43.3929" lon="3.55877">
        <ele>19</ele>
        <time>2025-06-17T10:41:20Z</time>
      </trkpt>
      <trkpt lat="43.39291" lon="3.55871">
        <ele>19</ele>
        <time>2025-06-17T10:41:21Z</time>
      </trkpt>
      <trkpt lat="43.39292" lon="3.55865">
        <ele>19</ele>
        <time>2025-06-17T10:41:22Z</time>
      </trkpt>
      <trkpt lat="43.39293" lon="3.55858">
        <ele>19</ele>
        <time>2025-06-17T10:41:23Z</time>
      </trkpt>
      <trkpt lat="43.39293" lon="3.55852">
        <ele>19</ele>
        <time>2025-06-17T10:41:24Z</time>
      </trkpt>
      <trkpt lat="43.39294" lon="3.55846">
        <ele>19</ele>
        <time>2025-06-17T10:41:25Z</time>
      </trkpt>
      <trkpt lat="43.39294" lon="3.5584">
        <ele>19</ele>
        <time>2025-06-17T10:41:26Z</time>
      </trkpt>
      <trkpt lat="43.39295" lon="3.55833">
        <ele>19</ele>
        <time>2025-06-17T10:41:27Z</time>
      </trkpt>
      <trkpt lat="43.39295" lon="3.55827">
        <ele>19.2</ele>
        <time>2025-06-17T10:41:28Z</time>
      </trkpt>
      <trkpt lat="43.39296" lon="3.55821">
        <ele>19.2</ele>
        <time>2025-06-17T10:41:29Z</time>
      </trkpt>
      <trkpt lat="43.39296" lon="3.55816">
        <ele>19.2</ele>
        <time>2025-06-17T10:41:30Z</time>
      </trkpt>
      <trkpt lat="43.39297" lon="3.55811">
        <ele>19.4</ele>
        <time>2025-06-17T10:41:31Z</time>
      </trkpt>
      <trkpt lat="43.39297" lon="3.55805">
        <ele>19.4</ele>
        <time>2025-06-17T10:41:32Z</time>
      </trkpt>
      <trkpt lat="43.39297" lon="3.55799">
        <ele>19.4</ele>
        <time>2025-06-17T10:41:33Z</time>
      </trkpt>
      <trkpt lat="43.39297" lon="3.55794">
        <ele>19.6</ele>
        <time>2025-06-17T10:41:34Z</time>
      </trkpt>
      <trkpt lat="43.39297" lon="3.55788">
        <ele>19.6</ele>
        <time>2025-06-17T10:41:35Z</time>
      </trkpt>
      <trkpt lat="43.39297" lon="3.55782">
        <ele>19.8</ele>
        <time>2025-06-17T10:41:36Z</time>
      </trkpt>
      <trkpt lat="43.39297" lon="3.55777">
        <ele>19.8</ele>
        <time>2025-06-17T10:41:37Z</time>
      </trkpt>
      <trkpt lat="43.39297" lon="3.55771">
        <ele>19.8</ele>
        <time>2025-06-17T10:41:38Z</time>
      </trkpt>
      <trkpt lat="43.39296" lon="3.55766">
        <ele>20</ele>
        <time>2025-06-17T10:41:39Z</time>
      </trkpt>
      <trkpt lat="43.39296" lon="3.55761">
        <ele>20</ele>
        <time>2025-06-17T10:41:40Z</time>
      </trkpt>
      <trkpt lat="43.39294" lon="3.55756">
        <ele>20.2</ele>
        <time>2025-06-17T10:41:41Z</time>
      </trkpt>
      <trkpt lat="43.39293" lon="3.55751">
        <ele>20.2</ele>
        <time>2025-06-17T10:41:42Z</time>
      </trkpt>
      <trkpt lat="43.39291" lon="3.55747">
        <ele>20.4</ele>
        <time>2025-06-17T10:41:43Z</time>
      </trkpt>
      <trkpt lat="43.39289" lon="3.55743">
        <ele>20.4</ele>
        <time>2025-06-17T10:41:44Z</time>
      </trkpt>
      <trkpt lat="43.39287" lon="3.55739">
        <ele>20.6</ele>
        <time>2025-06-17T10:41:45Z</time>
      </trkpt>
      <trkpt lat="43.39285" lon="3.55735">
        <ele>20.6</ele>
        <time>2025-06-17T10:41:46Z</time>
      </trkpt>
      <trkpt lat="43.39283" lon="3.55732">
        <ele>20.8</ele>
        <time>2025-06-17T10:41:47Z</time>
      </trkpt>
      <trkpt lat="43.3928" lon="3.55728">
        <ele>20.8</ele>
        <time>2025-06-17T10:41:48Z</time>
      </trkpt>
      <trkpt lat="43.39277" lon="3.55724">
        <ele>21</ele>
        <time>2025-06-17T10:41:49Z</time>
      </trkpt>
      <trkpt lat="43.39275" lon="3.5572">
        <ele>21</ele>
        <time>2025-06-17T10:41:50Z</time>
      </trkpt>
      <trkpt lat="43.39273" lon="3.55717">
        <ele>21.2</ele>
        <time>2025-06-17T10:41:51Z</time>
      </trkpt>
      <trkpt lat="43.39271" lon="3.55713">
        <ele>21.2</ele>
        <time>2025-06-17T10:41:52Z</time>
      </trkpt>
      <trkpt lat="43.39269" lon="3.55709">
        <ele>21.4</ele>
        <time>2025-06-17T10:41:53Z</time>
      </trkpt>
      <trkpt lat="43.39267" lon="3.55706">
        <ele>21.6</ele>
        <time>2025-06-17T10:41:54Z</time>
      </trkpt>
      <trkpt lat="43.39266" lon="3.55703">
        <ele>21.6</ele>
        <time>2025-06-17T10:41:55Z</time>
      </trkpt>
      <trkpt lat="43.39263" lon="3.55699">
        <ele>21.8</ele>
        <time>2025-06-17T10:41:56Z</time>
      </trkpt>
      <trkpt lat="43.39261" lon="3.55697">
        <ele>22</ele>
        <time>2025-06-17T10:41:57Z</time>
      </trkpt>
      <trkpt lat="43.39259" lon="3.55695">
        <ele>22</ele>
        <time>2025-06-17T10:41:58Z</time>
      </trkpt>
      <trkpt lat="43.39258" lon="3.55693">
        <ele>22.2</ele>
        <time>2025-06-17T10:41:59Z</time>
      </trkpt>
      <trkpt lat="43.39257" lon="3.55691">
        <ele>22.4</ele>
        <time>2025-06-17T10:42:00Z</time>
      </trkpt>
      <trkpt lat="43.39255" lon="3.55689">
        <ele>22.4</ele>
        <time>2025-06-17T10:42:01Z</time>
      </trkpt>
      <trkpt lat="43.39255" lon="3.55687">
        <ele>22.6</ele>
        <time>2025-06-17T10:42:02Z</time>
      </trkpt>
      <trkpt lat="43.39254" lon="3.55685">
        <ele>22.8</ele>
        <time>2025-06-17T10:42:03Z</time>
      </trkpt>
      <trkpt lat="43.39252" lon="3.55684">
        <ele>22.8</ele>
        <time>2025-06-17T10:42:04Z</time>
      </trkpt>
      <trkpt lat="43.39251" lon="3.55682">
        <ele>23</ele>
        <time>2025-06-17T10:42:05Z</time>
      </trkpt>
      <trkpt lat="43.39249" lon="3.55681">
        <ele>23.2</ele>
        <time>2025-06-17T10:42:06Z</time>
      </trkpt>
      <trkpt lat="43.39248" lon="3.5568">
        <ele>23.2</ele>
        <time>2025-06-17T10:42:07Z</time>
      </trkpt>
      <trkpt lat="43.39247" lon="3.55679">
        <ele>23.4</ele>
        <time>2025-06-17T10:42:08Z</time>
      </trkpt>
      <trkpt lat="43.39246" lon="3.55677">
        <ele>23.4</ele>
        <time>2025-06-17T10:42:09Z</time>
      </trkpt>
      <trkpt lat="43.39242" lon="3.55671">
        <ele>23.8</ele>
        <time>2025-06-17T10:43:01Z</time>
      </trkpt>
      <trkpt lat="43.39241" lon="3.55669">
        <ele>23.8</ele>
        <time>2025-06-17T10:43:02Z</time>
      </trkpt>
      <trkpt lat="43.39239" lon="3.55667">
        <ele>23.8</ele>
        <time>2025-06-17T10:43:03Z</time>
      </trkpt>
      <trkpt lat="43.39237" lon="3.55664">
        <ele>24</ele>
        <time>2025-06-17T10:43:04Z</time>
      </trkpt>
      <trkpt lat="43.39235" lon="3.55662">
        <ele>24</ele>
        <time>2025-06-17T10:43:05Z</time>
      </trkpt>
      <trkpt lat="43.39232" lon="3.55659">
        <ele>24</ele>
        <time>2025-06-17T10:43:06Z</time>
      </trkpt>
      <trkpt lat="43.3923" lon="3.55657">
        <ele>24.2</ele>
        <time>2025-06-17T10:43:07Z</time>
      </trkpt>
      <trkpt lat="43.39227" lon="3.55655">
        <ele>24.4</ele>
        <time>2025-06-17T10:43:08Z</time>
      </trkpt>
      <trkpt lat="43.39225" lon="3.55652">
        <ele>24.4</ele>
        <time>2025-06-17T10:43:09Z</time>
      </trkpt>
      <trkpt lat="43.39222" lon="3.55649">
        <ele>24.6</ele>
        <time>2025-06-17T10:43:10Z</time>
      </trkpt>
      <trkpt lat="43.39219" lon="3.55647">
        <ele>24.8</ele>
        <time>2025-06-17T10:43:11Z</time>
      </trkpt>
      <trkpt lat="43.39217" lon="3.55644">
        <ele>25</ele>
        <time>2025-06-17T10:43:12Z</time>
      </trkpt>
      <trkpt lat="43.39214" lon="3.55642">
        <ele>25.2</ele>
        <time>2025-06-17T10:43:13Z</time>
      </trkpt>
      <trkpt lat="43.39211" lon="3.55639">
        <ele>25.4</ele>
        <time>2025-06-17T10:43:14Z</time>
      </trkpt>
      <trkpt lat="43.39209" lon="3.55636">
        <ele>25.6</ele>
        <time>2025-06-17T10:43:15Z</time>
      </trkpt>
      <trkpt lat="43.39207" lon="3.55633">
        <ele>25.6</ele>
        <time>2025-06-17T10:43:16Z</time>
      </trkpt>
      <trkpt lat="43.39204" lon="3.55631">
        <ele>25.8</ele>
        <time>2025-06-17T10:43:17Z</time>
      </trkpt>
      <trkpt lat="43.39201" lon="3.55628">
        <ele>26</ele>
        <time>2025-06-17T10:43:18Z</time>
      </trkpt>
      <trkpt lat="43.39199" lon="3.55626">
        <ele>26</ele>
        <time>2025-06-17T10:43:19Z</time>
      </trkpt>
      <trkpt lat="43.39197" lon="3.55623">
        <ele>26.2</ele>
        <time>2025-06-17T10:43:20Z</time>
      </trkpt>
      <trkpt lat="43.39194" lon="3.5562">
        <ele>26.4</ele>
        <time>2025-06-17T10:43:21Z</time>
      </trkpt>
      <trkpt lat="43.39192" lon="3.55618">
        <ele>26.4</ele>
        <time>2025-06-17T10:43:22Z</time>
      </trkpt>
      <trkpt lat="43.39189" lon="3.55615">
        <ele>26.6</ele>
        <time>2025-06-17T10:43:23Z</time>
      </trkpt>
      <trkpt lat="43.39187" lon="3.55612">
        <ele>26.8</ele>
        <time>2025-06-17T10:43:24Z</time>
      </trkpt>
      <trkpt lat="43.39184" lon="3.5561">
        <ele>26.8</ele>
        <time>2025-06-17T10:43:25Z</time>
      </trkpt>
      <trkpt lat="43.39182" lon="3.55607">
        <ele>27</ele>
        <time>2025-06-17T10:43:26Z</time>
      </trkpt>
      <trkpt lat="43.39179" lon="3.55604">
        <ele>27</ele>
        <time>2025-06-17T10:43:27Z</time>
      </trkpt>
      <trkpt lat="43.39177" lon="3.55601">
        <ele>27.2</ele>
        <time>2025-06-17T10:43:28Z</time>
      </trkpt>
      <trkpt lat="43.39174" lon="3.55599">
        <ele>27.2</ele>
        <time>2025-06-17T10:43:29Z</time>
      </trkpt>
      <trkpt lat="43.39171" lon="3.55596">
        <ele>27.4</ele>
        <time>2025-06-17T10:43:30Z</time>
      </trkpt>
      <trkpt lat="43.39169" lon="3.55594">
        <ele>27.4</ele>
        <time>2025-06-17T10:43:31Z</time>
      </trkpt>
      <trkpt lat="43.39166" lon="3.55591">
        <ele>27.6</ele>
        <time>2025-06-17T10:43:32Z</time>
      </trkpt>
      <trkpt lat="43.39164" lon="3.55588">
        <ele>27.6</ele>
        <time>2025-06-17T10:43:33Z</time>
      </trkpt>
      <trkpt lat="43.39161" lon="3.55585">
        <ele>27.6</ele>
        <time>2025-06-17T10:43:34Z</time>
      </trkpt>
      <trkpt lat="43.39159" lon="3.55583">
        <ele>27.8</ele>
        <time>2025-06-17T10:43:35Z</time>
      </trkpt>
      <trkpt lat="43.39156" lon="3.5558">
        <ele>27.8</ele>
        <time>2025-06-17T10:43:36Z</time>
      </trkpt>
      <trkpt lat="43.39154" lon="3.55577">
        <ele>27.8</ele>
        <time>2025-06-17T10:43:37Z</time>
      </trkpt>
      <trkpt lat="43.39151" lon="3.55575">
        <ele>28</ele>
        <time>2025-06-17T10:43:38Z</time>
      </trkpt>
      <trkpt lat="43.39149" lon="3.55573">
        <ele>28</ele>
        <time>2025-06-17T10:43:39Z</time>
      </trkpt>
      <trkpt lat="43.39147" lon="3.5557">
        <ele>28</ele>
        <time>2025-06-17T10:43:40Z</time>
      </trkpt>
      <trkpt lat="43.39145" lon="3.55568">
        <ele>28.2</ele>
        <time>2025-06-17T10:43:41Z</time>
      </trkpt>
      <trkpt lat="43.39142" lon="3.55565">
        <ele>28.2</ele>
        <time>2025-06-17T10:43:42Z</time>
      </trkpt>
      <trkpt lat="43.39139" lon="3.55562">
        <ele>28.4</ele>
        <time>2025-06-17T10:43:43Z</time>
      </trkpt>
      <trkpt lat="43.39137" lon="3.5556">
        <ele>28.4</ele>
        <time>2025-06-17T10:43:44Z</time>
      </trkpt>
      <trkpt lat="43.39135" lon="3.55557">
        <ele>28.6</ele>
        <time>2025-06-17T10:43:45Z</time>
      </trkpt>
      <trkpt lat="43.39132" lon="3.55555">
        <ele>28.8</ele>
        <time>2025-06-17T10:43:46Z</time>
      </trkpt>
      <trkpt lat="43.3913" lon="3.55552">
        <ele>28.8</ele>
        <time>2025-06-17T10:43:47Z</time>
      </trkpt>
      <trkpt lat="43.39127" lon="3.55549">
        <ele>29</ele>
        <time>2025-06-17T10:43:48Z</time>
      </trkpt>
      <trkpt lat="43.39125" lon="3.55547">
        <ele>29</ele>
        <time>2025-06-17T10:43:49Z</time>
      </trkpt>
      <trkpt lat="43.39123" lon="3.55544">
        <ele>29</ele>
        <time>2025-06-17T10:43:50Z</time>
      </trkpt>
      <trkpt lat="43.39121" lon="3.55541">
        <ele>29</ele>
        <time>2025-06-17T10:43:51Z</time>
      </trkpt>
      <trkpt lat="43.39118" lon="3.55538">
        <ele>29.2</ele>
        <time>2025-06-17T10:43:52Z</time>
      </trkpt>
      <trkpt lat="43.39116" lon="3.55535">
        <ele>29.2</ele>
        <time>2025-06-17T10:43:53Z</time>
      </trkpt>
      <trkpt lat="43.39113" lon="3.55532">
        <ele>29.2</ele>
        <time>2025-06-17T10:43:54Z</time>
      </trkpt>
      <trkpt lat="43.3911" lon="3.55529">
        <ele>29.4</ele>
        <time>2025-06-17T10:43:55Z</time>
      </trkpt>
      <trkpt lat="43.39108" lon="3.55526">
        <ele>29.4</ele>
        <time>2025-06-17T10:43:56Z</time>
      </trkpt>
      <trkpt lat="43.39105" lon="3.55524">
        <ele>29.4</ele>
        <time>2025-06-17T10:43:57Z</time>
      </trkpt>
      <trkpt lat="43.39103" lon="3.55521">
        <ele>29.6</ele>
        <time>2025-06-17T10:43:58Z</time>
      </trkpt>
      <trkpt lat="43.39101" lon="3.55518">
        <ele>29.6</ele>
        <time>2025-06-17T10:43:59Z</time>
      </trkpt>
      <trkpt lat="43.39098" lon="3.55515">
        <ele>29.8</ele>
        <time>2025-06-17T10:44:00Z</time>
      </trkpt>
      <trkpt lat="43.39095" lon="3.55512">
        <ele>29.8</ele>
        <time>2025-06-17T10:44:01Z</time>
      </trkpt>
      <trkpt lat="43.39092" lon="3.55509">
        <ele>29.8</ele>
        <time>2025-06-17T10:44:02Z</time>
      </trkpt>
      <trkpt lat="43.3909" lon="3.55507">
        <ele>29.8</ele>
        <time>2025-06-17T10:44:03Z</time>
      </trkpt>
      <trkpt lat="43.39087" lon="3.55504">
        <ele>29.8</ele>
        <time>2025-06-17T10:44:04Z</time>
      </trkpt>
      <trkpt lat="43.39084" lon="3.55501">
        <ele>30</ele>
        <time>2025-06-17T10:44:05Z</time>
      </trkpt>
      <trkpt lat="43.39081" lon="3.55497">
        <ele>30</ele>
        <time>2025-06-17T10:44:06Z</time>
      </trkpt>
      <trkpt lat="43.39079" lon="3.55494">
        <ele>30</ele>
        <time>2025-06-17T10:44:07Z</time>
      </trkpt>
      <trkpt lat="43.39075" lon="3.5549">
        <ele>30</ele>
        <time>2025-06-17T10:44:08Z</time>
      </trkpt>
      <trkpt lat="43.39073" lon="3.55486">
        <ele>30</ele>
        <time>2025-06-17T10:44:09Z</time>
      </trkpt>
      <trkpt lat="43.3907" lon="3.55481">
        <ele>30</ele>
        <time>2025-06-17T10:44:10Z</time>
      </trkpt>
      <trkpt lat="43.39067" lon="3.55477">
        <ele>29.8</ele>
        <time>2025-06-17T10:44:11Z</time>
      </trkpt>
      <trkpt lat="43.39063" lon="3.55473">
        <ele>29.8</ele>
        <time>2025-06-17T10:44:12Z</time>
      </trkpt>
      <trkpt lat="43.3906" lon="3.55469">
        <ele>29.8</ele>
        <time>2025-06-17T10:44:13Z</time>
      </trkpt>
      <trkpt lat="43.39056" lon="3.55465">
        <ele>29.6</ele>
        <time>2025-06-17T10:44:14Z</time>
      </trkpt>
      <trkpt lat="43.39053" lon="3.5546">
        <ele>29.6</ele>
        <time>2025-06-17T10:44:15Z</time>
      </trkpt>
      <trkpt lat="43.39049" lon="3.55456">
        <ele>29.6</ele>
        <time>2025-06-17T10:44:16Z</time>
      </trkpt>
      <trkpt lat="43.39046" lon="3.55451">
        <ele>29.4</ele>
        <time>2025-06-17T10:44:17Z</time>
      </trkpt>
      <trkpt lat="43.39043" lon="3.55446">
        <ele>29.4</ele>
        <time>2025-06-17T10:44:18Z</time>
      </trkpt>
      <trkpt lat="43.3904" lon="3.5544">
        <ele>29.4</ele>
        <time>2025-06-17T10:44:19Z</time>
      </trkpt>
      <trkpt lat="43.39036" lon="3.55434">
        <ele>29.4</ele>
        <time>2025-06-17T10:44:20Z</time>
      </trkpt>
      <trkpt lat="43.39033" lon="3.55428">
        <ele>29.2</ele>
        <time>2025-06-17T10:44:21Z</time>
      </trkpt>
      <trkpt lat="43.3903" lon="3.55423">
        <ele>29.2</ele>
        <time>2025-06-17T10:44:22Z</time>
      </trkpt>
      <trkpt lat="43.39027" lon="3.55417">
        <ele>29.2</ele>
        <time>2025-06-17T10:44:23Z</time>
      </trkpt>
      <trkpt lat="43.39023" lon="3.55411">
        <ele>29.2</ele>
        <time>2025-06-17T10:44:24Z</time>
      </trkpt>
      <trkpt lat="43.3902" lon="3.55405">
        <ele>29</ele>
        <time>2025-06-17T10:44:25Z</time>
      </trkpt>
      <trkpt lat="43.39016" lon="3.55399">
        <ele>28.8</ele>
        <time>2025-06-17T10:44:26Z</time>
      </trkpt>
      <trkpt lat="43.39012" lon="3.55393">
        <ele>28.8</ele>
        <time>2025-06-17T10:44:27Z</time>
      </trkpt>
      <trkpt lat="43.39009" lon="3.55388">
        <ele>28.6</ele>
        <time>2025-06-17T10:44:28Z</time>
      </trkpt>
      <trkpt lat="43.39005" lon="3.55382">
        <ele>28.6</ele>
        <time>2025-06-17T10:44:29Z</time>
      </trkpt>
      <trkpt lat="43.39001" lon="3.55376">
        <ele>28.6</ele>
        <time>2025-06-17T10:44:30Z</time>
      </trkpt>
      <trkpt lat="43.38997" lon="3.5537">
        <ele>28.4</ele>
        <time>2025-06-17T10:44:31Z</time>
      </trkpt>
      <trkpt lat="43.38994" lon="3.55365">
        <ele>28.4</ele>
        <time>2025-06-17T10:44:32Z</time>
      </trkpt>
      <trkpt lat="43.3899" lon="3.55359">
        <ele>28.2</ele>
        <time>2025-06-17T10:44:33Z</time>
      </trkpt>
      <trkpt lat="43.38985" lon="3.55353">
        <ele>28.2</ele>
        <time>2025-06-17T10:44:34Z</time>
      </trkpt>
      <trkpt lat="43.38981" lon="3.55348">
        <ele>28.2</ele>
        <time>2025-06-17T10:44:35Z</time>
      </trkpt>
      <trkpt lat="43.38976" lon="3.55342">
        <ele>28</ele>
        <time>2025-06-17T10:44:36Z</time>
      </trkpt>
      <trkpt lat="43.38973" lon="3.55338">
        <ele>28</ele>
        <time>2025-06-17T10:44:37Z</time>
      </trkpt>
      <trkpt lat="43.38968" lon="3.55332">
        <ele>28</ele>
        <time>2025-06-17T10:44:38Z</time>
      </trkpt>
      <trkpt lat="43.38963" lon="3.55326">
        <ele>28</ele>
        <time>2025-06-17T10:44:39Z</time>
      </trkpt>
      <trkpt lat="43.38959" lon="3.55321">
        <ele>28</ele>
        <time>2025-06-17T10:44:40Z</time>
      </trkpt>
      <trkpt lat="43.38954" lon="3.55317">
        <ele>27.8</ele>
        <time>2025-06-17T10:44:41Z</time>
      </trkpt>
      <trkpt lat="43.38949" lon="3.55312">
        <ele>27.8</ele>
        <time>2025-06-17T10:44:42Z</time>
      </trkpt>
      <trkpt lat="43.38943" lon="3.55307">
        <ele>27.8</ele>
        <time>2025-06-17T10:44:43Z</time>
      </trkpt>
      <trkpt lat="43.38938" lon="3.55302">
        <ele>27.8</ele>
        <time>2025-06-17T10:44:44Z</time>
      </trkpt>
      <trkpt lat="43.38934" lon="3.55298">
        <ele>28</ele>
        <time>2025-06-17T10:44:45Z</time>
      </trkpt>
      <trkpt lat="43.38929" lon="3.55293">
        <ele>28</ele>
        <time>2025-06-17T10:44:46Z</time>
      </trkpt>
      <trkpt lat="43.38924" lon="3.55288">
        <ele>28</ele>
        <time>2025-06-17T10:44:47Z</time>
      </trkpt>
      <trkpt lat="43.38919" lon="3.55283">
        <ele>28.2</ele>
        <time>2025-06-17T10:44:48Z</time>
      </trkpt>
      <trkpt lat="43.38914" lon="3.55279">
        <ele>28.2</ele>
        <time>2025-06-17T10:44:49Z</time>
      </trkpt>
      <trkpt lat="43.38909" lon="3.55274">
        <ele>28.2</ele>
        <time>2025-06-17T10:44:50Z</time>
      </trkpt>
      <trkpt lat="43.38904" lon="3.5527">
        <ele>28.4</ele>
        <time>2025-06-17T10:44:51Z</time>
      </trkpt>
      <trkpt lat="43.389" lon="3.55266">
        <ele>28.4</ele>
        <time>2025-06-17T10:44:52Z</time>
      </trkpt>
      <trkpt lat="43.38895" lon="3.55261">
        <ele>28.4</ele>
        <time>2025-06-17T10:44:53Z</time>
      </trkpt>
      <trkpt lat="43.3889" lon="3.55256">
        <ele>28.6</ele>
        <time>2025-06-17T10:44:54Z</time>
      </trkpt>
      <trkpt lat="43.38885" lon="3.55251">
        <ele>28.6</ele>
        <time>2025-06-17T10:44:55Z</time>
      </trkpt>
      <trkpt lat="43.3888" lon="3.55247">
        <ele>28.6</ele>
        <time>2025-06-17T10:44:56Z</time>
      </trkpt>
      <trkpt lat="43.38876" lon="3.55242">
        <ele>28.8</ele>
        <time>2025-06-17T10:44:57Z</time>
      </trkpt>
      <trkpt lat="43.38872" lon="3.55237">
        <ele>28.8</ele>
        <time>2025-06-17T10:44:58Z</time>
      </trkpt>
      <trkpt lat="43.38867" lon="3.55233">
        <ele>28.8</ele>
        <time>2025-06-17T10:44:59Z</time>
      </trkpt>
      <trkpt lat="43.38862" lon="3.55228">
        <ele>29</ele>
        <time>2025-06-17T10:45:00Z</time>
      </trkpt>
      <trkpt lat="43.38857" lon="3.55224">
        <ele>29</ele>
        <time>2025-06-17T10:45:01Z</time>
      </trkpt>
      <trkpt lat="43.38853" lon="3.55221">
        <ele>29.2</ele>
        <time>2025-06-17T10:45:02Z</time>
      </trkpt>
      <trkpt lat="43.38849" lon="3.55217">
        <ele>29.2</ele>
        <time>2025-06-17T10:45:03Z</time>
      </trkpt>
      <trkpt lat="43.38845" lon="3.55213">
        <ele>29.4</ele>
        <time>2025-06-17T10:45:04Z</time>
      </trkpt>
      <trkpt lat="43.3884" lon="3.55209">
        <ele>29.4</ele>
        <time>2025-06-17T10:45:05Z</time>
      </trkpt>
      <trkpt lat="43.38836" lon="3.55206">
        <ele>29.4</ele>
        <time>2025-06-17T10:45:06Z</time>
      </trkpt>
      <trkpt lat="43.38831" lon="3.55201">
        <ele>29.4</ele>
        <time>2025-06-17T10:45:07Z</time>
      </trkpt>
      <trkpt lat="43.38826" lon="3.55197">
        <ele>29.2</ele>
        <time>2025-06-17T10:45:08Z</time>
      </trkpt>
      <trkpt lat="43.38822" lon="3.55192">
        <ele>29.2</ele>
        <time>2025-06-17T10:45:09Z</time>
      </trkpt>
      <trkpt lat="43.38817" lon="3.55187">
        <ele>29</ele>
        <time>2025-06-17T10:45:10Z</time>
      </trkpt>
      <trkpt lat="43.38812" lon="3.55182">
        <ele>28.8</ele>
        <time>2025-06-17T10:45:11Z</time>
      </trkpt>
      <trkpt lat="43.38807" lon="3.55176">
        <ele>28.6</ele>
        <time>2025-06-17T10:45:12Z</time>
      </trkpt>
      <trkpt lat="43.38803" lon="3.55171">
        <ele>28.4</ele>
        <time>2025-06-17T10:45:13Z</time>
      </trkpt>
      <trkpt lat="43.38798" lon="3.55164">
        <ele>28</ele>
        <time>2025-06-17T10:45:14Z</time>
      </trkpt>
      <trkpt lat="43.38792" lon="3.55158">
        <ele>27.6</ele>
        <time>2025-06-17T10:45:15Z</time>
      </trkpt>
      <trkpt lat="43.38787" lon="3.55151">
        <ele>27</ele>
        <time>2025-06-17T10:45:16Z</time>
      </trkpt>
      <trkpt lat="43.38782" lon="3.55143">
        <ele>26.6</ele>
        <time>2025-06-17T10:45:17Z</time>
      </trkpt>
      <trkpt lat="43.38776" lon="3.55135">
        <ele>26</ele>
        <time>2025-06-17T10:45:18Z</time>
      </trkpt>
      <trkpt lat="43.38771" lon="3.55126">
        <ele>25.6</ele>
        <time>2025-06-17T10:45:19Z</time>
      </trkpt>
      <trkpt lat="43.38765" lon="3.55116">
        <ele>25</ele>
        <time>2025-06-17T10:45:20Z</time>
      </trkpt>
      <trkpt lat="43.3876" lon="3.55107">
        <ele>24.4</ele>
        <time>2025-06-17T10:45:21Z</time>
      </trkpt>
      <trkpt lat="43.38756" lon="3.55095">
        <ele>23.8</ele>
        <time>2025-06-17T10:45:22Z</time>
      </trkpt>
      <trkpt lat="43.38752" lon="3.55083">
        <ele>23.4</ele>
        <time>2025-06-17T10:45:23Z</time>
      </trkpt>
      <trkpt lat="43.38749" lon="3.5507">
        <ele>22.8</ele>
        <time>2025-06-17T10:45:24Z</time>
      </trkpt>
      <trkpt lat="43.38746" lon="3.55058">
        <ele>22.4</ele>
        <time>2025-06-17T10:45:25Z</time>
      </trkpt>
      <trkpt lat="43.38743" lon="3.55046">
        <ele>22</ele>
        <time>2025-06-17T10:45:26Z</time>
      </trkpt>
      <trkpt lat="43.3874" lon="3.55034">
        <ele>21.8</ele>
        <time>2025-06-17T10:45:27Z</time>
      </trkpt>
      <trkpt lat="43.38736" lon="3.55023">
        <ele>21.4</ele>
        <time>2025-06-17T10:45:28Z</time>
      </trkpt>
      <trkpt lat="43.38733" lon="3.55011">
        <ele>21</ele>
        <time>2025-06-17T10:45:29Z</time>
      </trkpt>
      <trkpt lat="43.3873" lon="3.55001">
        <ele>20.8</ele>
        <time>2025-06-17T10:45:30Z</time>
      </trkpt>
      <trkpt lat="43.38727" lon="3.54993">
        <ele>20.4</ele>
        <time>2025-06-17T10:45:31Z</time>
      </trkpt>
      <trkpt lat="43.38723" lon="3.5498">
        <ele>20.2</ele>
        <time>2025-06-17T10:45:32Z</time>
      </trkpt>
      <trkpt lat="43.38721" lon="3.54969">
        <ele>20</ele>
        <time>2025-06-17T10:45:33Z</time>
      </trkpt>
      <trkpt lat="43.38718" lon="3.54959">
        <ele>19.8</ele>
        <time>2025-06-17T10:45:34Z</time>
      </trkpt>
      <trkpt lat="43.38715" lon="3.54949">
        <ele>19.6</ele>
        <time>2025-06-17T10:45:35Z</time>
      </trkpt>
      <trkpt lat="43.38713" lon="3.5494">
        <ele>19.4</ele>
        <time>2025-06-17T10:45:36Z</time>
      </trkpt>
      <trkpt lat="43.3871" lon="3.5493">
        <ele>19.4</ele>
        <time>2025-06-17T10:45:37Z</time>
      </trkpt>
      <trkpt lat="43.38708" lon="3.54921">
        <ele>19.2</ele>
        <time>2025-06-17T10:45:38Z</time>
      </trkpt>
      <trkpt lat="43.38706" lon="3.54913">
        <ele>19</ele>
        <time>2025-06-17T10:45:39Z</time>
      </trkpt>
      <trkpt lat="43.38704" lon="3.54905">
        <ele>19</ele>
        <time>2025-06-17T10:45:40Z</time>
      </trkpt>
      <trkpt lat="43.38702" lon="3.54895">
        <ele>19</ele>
        <time>2025-06-17T10:45:41Z</time>
      </trkpt>
      <trkpt lat="43.387" lon="3.54886">
        <ele>19</ele>
        <time>2025-06-17T10:45:42Z</time>
      </trkpt>
      <trkpt lat="43.38698" lon="3.54878">
        <ele>19</ele>
        <time>2025-06-17T10:45:43Z</time>
      </trkpt>
      <trkpt lat="43.38697" lon="3.54869">
        <ele>19</ele>
        <time>2025-06-17T10:45:44Z</time>
      </trkpt>
      <trkpt lat="43.38697" lon="3.5486">
        <ele>19</ele>
        <time>2025-06-17T10:45:45Z</time>
      </trkpt>
      <trkpt lat="43.38698" lon="3.54852">
        <ele>19</ele>
        <time>2025-06-17T10:45:46Z</time>
      </trkpt>
      <trkpt lat="43.38701" lon="3.54844">
        <ele>19</ele>
        <time>2025-06-17T10:45:47Z</time>
      </trkpt>
      <trkpt lat="43.38703" lon="3.54836">
        <ele>19</ele>
        <time>2025-06-17T10:45:48Z</time>
      </trkpt>
      <trkpt lat="43.38706" lon="3.54829">
        <ele>19</ele>
        <time>2025-06-17T10:45:49Z</time>
      </trkpt>
      <trkpt lat="43.38709" lon="3.54822">
        <ele>19</ele>
        <time>2025-06-17T10:45:50Z</time>
      </trkpt>
      <trkpt lat="43.38711" lon="3.54814">
        <ele>19</ele>
        <time>2025-06-17T10:45:51Z</time>
      </trkpt>
      <trkpt lat="43.38712" lon="3.54807">
        <ele>19</ele>
        <time>2025-06-17T10:45:52Z</time>
      </trkpt>
      <trkpt lat="43.38712" lon="3.54799">
        <ele>19.2</ele>
        <time>2025-06-17T10:45:53Z</time>
      </trkpt>
      <trkpt lat="43.3871" lon="3.54791">
        <ele>19</ele>
        <time>2025-06-17T10:45:54Z</time>
      </trkpt>
      <trkpt lat="43.38709" lon="3.54784">
        <ele>19</ele>
        <time>2025-06-17T10:45:55Z</time>
      </trkpt>
      <trkpt lat="43.38707" lon="3.54776">
        <ele>19</ele>
        <time>2025-06-17T10:45:56Z</time>
      </trkpt>
      <trkpt lat="43.38706" lon="3.54768">
        <ele>19</ele>
        <time>2025-06-17T10:45:57Z</time>
      </trkpt>
      <trkpt lat="43.38705" lon="3.5476">
        <ele>19</ele>
        <time>2025-06-17T10:45:58Z</time>
      </trkpt>
      <trkpt lat="43.38704" lon="3.54752">
        <ele>18.8</ele>
        <time>2025-06-17T10:45:59Z</time>
      </trkpt>
      <trkpt lat="43.38703" lon="3.54745">
        <ele>18.8</ele>
        <time>2025-06-17T10:46:00Z</time>
      </trkpt>
      <trkpt lat="43.38701" lon="3.54737">
        <ele>18.8</ele>
        <time>2025-06-17T10:46:01Z</time>
      </trkpt>
      <trkpt lat="43.387" lon="3.5473">
        <ele>18.8</ele>
        <time>2025-06-17T10:46:02Z</time>
      </trkpt>
      <trkpt lat="43.38698" lon="3.54722">
        <ele>18.8</ele>
        <time>2025-06-17T10:46:03Z</time>
      </trkpt>
      <trkpt lat="43.38697" lon="3.54715">
        <ele>18.8</ele>
        <time>2025-06-17T10:46:04Z</time>
      </trkpt>
      <trkpt lat="43.38695" lon="3.54708">
        <ele>18.8</ele>
        <time>2025-06-17T10:46:05Z</time>
      </trkpt>
      <trkpt lat="43.38694" lon="3.54701">
        <ele>19</ele>
        <time>2025-06-17T10:46:06Z</time>
      </trkpt>
      <trkpt lat="43.38693" lon="3.54693">
        <ele>19</ele>
        <time>2025-06-17T10:46:07Z</time>
      </trkpt>
      <trkpt lat="43.38692" lon="3.54686">
        <ele>19</ele>
        <time>2025-06-17T10:46:08Z</time>
      </trkpt>
      <trkpt lat="43.38691" lon="3.54679">
        <ele>19.2</ele>
        <time>2025-06-17T10:46:09Z</time>
      </trkpt>
      <trkpt lat="43.3869" lon="3.54672">
        <ele>19.2</ele>
        <time>2025-06-17T10:46:10Z</time>
      </trkpt>
      <trkpt lat="43.38689" lon="3.54665">
        <ele>19.4</ele>
        <time>2025-06-17T10:46:11Z</time>
      </trkpt>
      <trkpt lat="43.38687" lon="3.54658">
        <ele>19.4</ele>
        <time>2025-06-17T10:46:12Z</time>
      </trkpt>
      <trkpt lat="43.38686" lon="3.54651">
        <ele>19.6</ele>
        <time>2025-06-17T10:46:13Z</time>
      </trkpt>
      <trkpt lat="43.38685" lon="3.54643">
        <ele>19.6</ele>
        <time>2025-06-17T10:46:14Z</time>
      </trkpt>
      <trkpt lat="43.38684" lon="3.54636">
        <ele>19.8</ele>
        <time>2025-06-17T10:46:15Z</time>
      </trkpt>
      <trkpt lat="43.38683" lon="3.5463">
        <ele>20</ele>
        <time>2025-06-17T10:46:16Z</time>
      </trkpt>
      <trkpt lat="43.38682" lon="3.54623">
        <ele>20</ele>
        <time>2025-06-17T10:46:17Z</time>
      </trkpt>
      <trkpt lat="43.3868" lon="3.54617">
        <ele>20.2</ele>
        <time>2025-06-17T10:46:18Z</time>
      </trkpt>
      <trkpt lat="43.38679" lon="3.5461">
        <ele>20.4</ele>
        <time>2025-06-17T10:46:19Z</time>
      </trkpt>
      <trkpt lat="43.38678" lon="3.54604">
        <ele>20.4</ele>
        <time>2025-06-17T10:46:20Z</time>
      </trkpt>
      <trkpt lat="43.38677" lon="3.54598">
        <ele>20.6</ele>
        <time>2025-06-17T10:46:21Z</time>
      </trkpt>
      <trkpt lat="43.38675" lon="3.5459">
        <ele>20.8</ele>
        <time>2025-06-17T10:46:22Z</time>
      </trkpt>
      <trkpt lat="43.38673" lon="3.54584">
        <ele>21</ele>
        <time>2025-06-17T10:46:23Z</time>
      </trkpt>
      <trkpt lat="43.38672" lon="3.54578">
        <ele>21.2</ele>
        <time>2025-06-17T10:46:24Z</time>
      </trkpt>
      <trkpt lat="43.38671" lon="3.54571">
        <ele>21.2</ele>
        <time>2025-06-17T10:46:25Z</time>
      </trkpt>
      <trkpt lat="43.3867" lon="3.54565">
        <ele>21.4</ele>
        <time>2025-06-17T10:46:26Z</time>
      </trkpt>
      <trkpt lat="43.38669" lon="3.54559">
        <ele>21.6</ele>
        <time>2025-06-17T10:46:27Z</time>
      </trkpt>
      <trkpt lat="43.38668" lon="3.54553">
        <ele>21.8</ele>
        <time>2025-06-17T10:46:28Z</time>
      </trkpt>
      <trkpt lat="43.38667" lon="3.54546">
        <ele>22</ele>
        <time>2025-06-17T10:46:29Z</time>
      </trkpt>
      <trkpt lat="43.38666" lon="3.5454">
        <ele>22</ele>
        <time>2025-06-17T10:46:30Z</time>
      </trkpt>
      <trkpt lat="43.38665" lon="3.54534">
        <ele>22.2</ele>
        <time>2025-06-17T10:46:31Z</time>
      </trkpt>
      <trkpt lat="43.38663" lon="3.54528">
        <ele>22.4</ele>
        <time>2025-06-17T10:46:32Z</time>
      </trkpt>
      <trkpt lat="43.38662" lon="3.54522">
        <ele>22.6</ele>
        <time>2025-06-17T10:46:33Z</time>
      </trkpt>
      <trkpt lat="43.38661" lon="3.54516">
        <ele>22.8</ele>
        <time>2025-06-17T10:46:34Z</time>
      </trkpt>
      <trkpt lat="43.3866" lon="3.5451">
        <ele>23</ele>
        <time>2025-06-17T10:46:35Z</time>
      </trkpt>
      <trkpt lat="43.38659" lon="3.54504">
        <ele>23.2</ele>
        <time>2025-06-17T10:46:36Z</time>
      </trkpt>
      <trkpt lat="43.38658" lon="3.54498">
        <ele>23.4</ele>
        <time>2025-06-17T10:46:37Z</time>
      </trkpt>
      <trkpt lat="43.38656" lon="3.54492">
        <ele>23.4</ele>
        <time>2025-06-17T10:46:38Z</time>
      </trkpt>
      <trkpt lat="43.38655" lon="3.54486">
        <ele>23.6</ele>
        <time>2025-06-17T10:46:39Z</time>
      </trkpt>
      <trkpt lat="43.38654" lon="3.54481">
        <ele>23.8</ele>
        <time>2025-06-17T10:46:40Z</time>
      </trkpt>
      <trkpt lat="43.38652" lon="3.54475">
        <ele>24</ele>
        <time>2025-06-17T10:46:41Z</time>
      </trkpt>
      <trkpt lat="43.38651" lon="3.5447">
        <ele>24.2</ele>
        <time>2025-06-17T10:46:42Z</time>
      </trkpt>
      <trkpt lat="43.3865" lon="3.54464">
        <ele>24.2</ele>
        <time>2025-06-17T10:46:43Z</time>
      </trkpt>
      <trkpt lat="43.38649" lon="3.5446">
        <ele>24.4</ele>
        <time>2025-06-17T10:46:44Z</time>
      </trkpt>
      <trkpt lat="43.38647" lon="3.54455">
        <ele>24.6</ele>
        <time>2025-06-17T10:46:45Z</time>
      </trkpt>
      <trkpt lat="43.38646" lon="3.5445">
        <ele>24.6</ele>
        <time>2025-06-17T10:46:46Z</time>
      </trkpt>
      <trkpt lat="43.38644" lon="3.54445">
        <ele>24.8</ele>
        <time>2025-06-17T10:46:47Z</time>
      </trkpt>
      <trkpt lat="43.38643" lon="3.5444">
        <ele>25</ele>
        <time>2025-06-17T10:46:48Z</time>
      </trkpt>
      <trkpt lat="43.3864" lon="3.54435">
        <ele>25</ele>
        <time>2025-06-17T10:46:49Z</time>
      </trkpt>
      <trkpt lat="43.38639" lon="3.5443">
        <ele>25.2</ele>
        <time>2025-06-17T10:46:50Z</time>
      </trkpt>
      <trkpt lat="43.38637" lon="3.54425">
        <ele>25.2</ele>
        <time>2025-06-17T10:46:51Z</time>
      </trkpt>
      <trkpt lat="43.38635" lon="3.54421">
        <ele>25</ele>
        <time>2025-06-17T10:46:52Z</time>
      </trkpt>
      <trkpt lat="43.38632" lon="3.54416">
        <ele>25</ele>
        <time>2025-06-17T10:46:53Z</time>
      </trkpt>
      <trkpt lat="43.38629" lon="3.54411">
        <ele>24.8</ele>
        <time>2025-06-17T10:46:54Z</time>
      </trkpt>
      <trkpt lat="43.38626" lon="3.54405">
        <ele>24.8</ele>
        <time>2025-06-17T10:46:55Z</time>
      </trkpt>
      <trkpt lat="43.38623" lon="3.544">
        <ele>24.6</ele>
        <time>2025-06-17T10:46:56Z</time>
      </trkpt>
      <trkpt lat="43.3862" lon="3.54394">
        <ele>24.4</ele>
        <time>2025-06-17T10:46:57Z</time>
      </trkpt>
      <trkpt lat="43.38617" lon="3.54389">
        <ele>24.2</ele>
        <time>2025-06-17T10:46:58Z</time>
      </trkpt>
      <trkpt lat="43.38614" lon="3.54384">
        <ele>24</ele>
        <time>2025-06-17T10:46:59Z</time>
      </trkpt>
      <trkpt lat="43.38611" lon="3.54378">
        <ele>24</ele>
        <time>2025-06-17T10:47:00Z</time>
      </trkpt>
      <trkpt lat="43.38607" lon="3.54373">
        <ele>23.8</ele>
        <time>2025-06-17T10:47:01Z</time>
      </trkpt>
      <trkpt lat="43.38604" lon="3.54367">
        <ele>23.6</ele>
        <time>2025-06-17T10:47:02Z</time>
      </trkpt>
      <trkpt lat="43.38601" lon="3.54361">
        <ele>23.4</ele>
        <time>2025-06-17T10:47:03Z</time>
      </trkpt>
      <trkpt lat="43.38598" lon="3.54355">
        <ele>23.4</ele>
        <time>2025-06-17T10:47:04Z</time>
      </trkpt>
      <trkpt lat="43.38595" lon="3.5435">
        <ele>23.2</ele>
        <time>2025-06-17T10:47:05Z</time>
      </trkpt>
      <trkpt lat="43.38591" lon="3.54344">
        <ele>23</ele>
        <time>2025-06-17T10:47:06Z</time>
      </trkpt>
      <trkpt lat="43.38588" lon="3.54337">
        <ele>22.8</ele>
        <time>2025-06-17T10:47:07Z</time>
      </trkpt>
      <trkpt lat="43.38584" lon="3.54331">
        <ele>22.6</ele>
        <time>2025-06-17T10:47:08Z</time>
      </trkpt>
      <trkpt lat="43.38581" lon="3.54325">
        <ele>22.6</ele>
        <time>2025-06-17T10:47:09Z</time>
      </trkpt>
      <trkpt lat="43.38578" lon="3.54319">
        <ele>22.4</ele>
        <time>2025-06-17T10:47:10Z</time>
      </trkpt>
      <trkpt lat="43.38574" lon="3.54312">
        <ele>22.2</ele>
        <time>2025-06-17T10:47:11Z</time>
      </trkpt>
      <trkpt lat="43.3857" lon="3.54305">
        <ele>22.2</ele>
        <time>2025-06-17T10:47:12Z</time>
      </trkpt>
      <trkpt lat="43.38567" lon="3.54299">
        <ele>22</ele>
        <time>2025-06-17T10:47:13Z</time>
      </trkpt>
      <trkpt lat="43.38563" lon="3.54292">
        <ele>22</ele>
        <time>2025-06-17T10:47:14Z</time>
      </trkpt>
      <trkpt lat="43.3856" lon="3.54286">
        <ele>22</ele>
        <time>2025-06-17T10:47:15Z</time>
      </trkpt>
      <trkpt lat="43.38556" lon="3.54279">
        <ele>21.8</ele>
        <time>2025-06-17T10:47:16Z</time>
      </trkpt>
      <trkpt lat="43.38552" lon="3.54272">
        <ele>21.8</ele>
        <time>2025-06-17T10:47:17Z</time>
      </trkpt>
      <trkpt lat="43.38548" lon="3.54266">
        <ele>21.8</ele>
        <time>2025-06-17T10:47:18Z</time>
      </trkpt>
      <trkpt lat="43.38545" lon="3.54259">
        <ele>21.8</ele>
        <time>2025-06-17T10:47:19Z</time>
      </trkpt>
      <trkpt lat="43.38541" lon="3.54253">
        <ele>21.8</ele>
        <time>2025-06-17T10:47:20Z</time>
      </trkpt>
      <trkpt lat="43.38537" lon="3.54247">
        <ele>21.6</ele>
        <time>2025-06-17T10:47:21Z</time>
      </trkpt>
      <trkpt lat="43.38534" lon="3.5424">
        <ele>21.6</ele>
        <time>2025-06-17T10:47:22Z</time>
      </trkpt>
      <trkpt lat="43.3853" lon="3.54234">
        <ele>21.6</ele>
        <time>2025-06-17T10:47:23Z</time>
      </trkpt>
      <trkpt lat="43.38527" lon="3.54228">
        <ele>21.4</ele>
        <time>2025-06-17T10:47:24Z</time>
      </trkpt>
      <trkpt lat="43.38524" lon="3.54221">
        <ele>21.4</ele>
        <time>2025-06-17T10:47:25Z</time>
      </trkpt>
      <trkpt lat="43.3852" lon="3.54215">
        <ele>21.4</ele>
        <time>2025-06-17T10:47:26Z</time>
      </trkpt>
      <trkpt lat="43.38517" lon="3.54208">
        <ele>21.2</ele>
        <time>2025-06-17T10:47:27Z</time>
      </trkpt>
      <trkpt lat="43.38513" lon="3.54202">
        <ele>21.2</ele>
        <time>2025-06-17T10:47:28Z</time>
      </trkpt>
      <trkpt lat="43.3851" lon="3.54195">
        <ele>21</ele>
        <time>2025-06-17T10:47:29Z</time>
      </trkpt>
      <trkpt lat="43.38507" lon="3.54188">
        <ele>21</ele>
        <time>2025-06-17T10:47:30Z</time>
      </trkpt>
      <trkpt lat="43.38503" lon="3.54181">
        <ele>20.8</ele>
        <time>2025-06-17T10:47:31Z</time>
      </trkpt>
      <trkpt lat="43.385" lon="3.54175">
        <ele>20.8</ele>
        <time>2025-06-17T10:47:32Z</time>
      </trkpt>
      <trkpt lat="43.38497" lon="3.54168">
        <ele>20.8</ele>
        <time>2025-06-17T10:47:33Z</time>
      </trkpt>
      <trkpt lat="43.38494" lon="3.54161">
        <ele>20.6</ele>
        <time>2025-06-17T10:47:34Z</time>
      </trkpt>
      <trkpt lat="43.38491" lon="3.54154">
        <ele>20.6</ele>
        <time>2025-06-17T10:47:35Z</time>
      </trkpt>
      <trkpt lat="43.38488" lon="3.54147">
        <ele>20.6</ele>
        <time>2025-06-17T10:47:36Z</time>
      </trkpt>
      <trkpt lat="43.38485" lon="3.5414">
        <ele>20.4</ele>
        <time>2025-06-17T10:47:37Z</time>
      </trkpt>
      <trkpt lat="43.38482" lon="3.54133">
        <ele>20.4</ele>
        <time>2025-06-17T10:47:38Z</time>
      </trkpt>
      <trkpt lat="43.38479" lon="3.54127">
        <ele>20.4</ele>
        <time>2025-06-17T10:47:39Z</time>
      </trkpt>
      <trkpt lat="43.38476" lon="3.5412">
        <ele>20.2</ele>
        <time>2025-06-17T10:47:40Z</time>
      </trkpt>
      <trkpt lat="43.38472" lon="3.54112">
        <ele>20</ele>
        <time>2025-06-17T10:47:41Z</time>
      </trkpt>
      <trkpt lat="43.38469" lon="3.54105">
        <ele>20</ele>
        <time>2025-06-17T10:47:42Z</time>
      </trkpt>
      <trkpt lat="43.38465" lon="3.54096">
        <ele>19.8</ele>
        <time>2025-06-17T10:47:43Z</time>
      </trkpt>
      <trkpt lat="43.38461" lon="3.54088">
        <ele>19.8</ele>
        <time>2025-06-17T10:47:44Z</time>
      </trkpt>
      <trkpt lat="43.38458" lon="3.5408">
        <ele>19.6</ele>
        <time>2025-06-17T10:47:45Z</time>
      </trkpt>
      <trkpt lat="43.38455" lon="3.54073">
        <ele>19.6</ele>
        <time>2025-06-17T10:47:46Z</time>
      </trkpt>
      <trkpt lat="43.38451" lon="3.54065">
        <ele>19.4</ele>
        <time>2025-06-17T10:47:47Z</time>
      </trkpt>
      <trkpt lat="43.38448" lon="3.54059">
        <ele>19.4</ele>
        <time>2025-06-17T10:47:48Z</time>
      </trkpt>
      <trkpt lat="43.38444" lon="3.54052">
        <ele>19.4</ele>
        <time>2025-06-17T10:47:49Z</time>
      </trkpt>
      <trkpt lat="43.38441" lon="3.54046">
        <ele>19.4</ele>
        <time>2025-06-17T10:47:50Z</time>
      </trkpt>
      <trkpt lat="43.38438" lon="3.54038">
        <ele>19.4</ele>
        <time>2025-06-17T10:47:51Z</time>
      </trkpt>
      <trkpt lat="43.38436" lon="3.5403">
        <ele>19.4</ele>
        <time>2025-06-17T10:47:52Z</time>
      </trkpt>
      <trkpt lat="43.38434" lon="3.54023">
        <ele>19.4</ele>
        <time>2025-06-17T10:47:53Z</time>
      </trkpt>
      <trkpt lat="43.38433" lon="3.54016">
        <ele>19.4</ele>
        <time>2025-06-17T10:47:54Z</time>
      </trkpt>
      <trkpt lat="43.38431" lon="3.5401">
        <ele>19.4</ele>
        <time>2025-06-17T10:47:55Z</time>
      </trkpt>
      <trkpt lat="43.38429" lon="3.54003">
        <ele>19.4</ele>
        <time>2025-06-17T10:47:56Z</time>
      </trkpt>
      <trkpt lat="43.38428" lon="3.53996">
        <ele>19.4</ele>
        <time>2025-06-17T10:47:57Z</time>
      </trkpt>
      <trkpt lat="43.38427" lon="3.53989">
        <ele>19.4</ele>
        <time>2025-06-17T10:47:58Z</time>
      </trkpt>
      <trkpt lat="43.38427" lon="3.53981">
        <ele>19.2</ele>
        <time>2025-06-17T10:47:59Z</time>
      </trkpt>
      <trkpt lat="43.38427" lon="3.53974">
        <ele>19.2</ele>
        <time>2025-06-17T10:48:00Z</time>
      </trkpt>
      <trkpt lat="43.38426" lon="3.53967">
        <ele>19.2</ele>
        <time>2025-06-17T10:48:01Z</time>
      </trkpt>
      <trkpt lat="43.38426" lon="3.5396">
        <ele>19.2</ele>
        <time>2025-06-17T10:48:02Z</time>
      </trkpt>
      <trkpt lat="43.38427" lon="3.53954">
        <ele>19.2</ele>
        <time>2025-06-17T10:48:03Z</time>
      </trkpt>
      <trkpt lat="43.38428" lon="3.53948">
        <ele>19.2</ele>
        <time>2025-06-17T10:48:04Z</time>
      </trkpt>
      <trkpt lat="43.3843" lon="3.53942">
        <ele>19.2</ele>
        <time>2025-06-17T10:48:05Z</time>
      </trkpt>
      <trkpt lat="43.38433" lon="3.53936">
        <ele>19.2</ele>
        <time>2025-06-17T10:48:06Z</time>
      </trkpt>
      <trkpt lat="43.38436" lon="3.53929">
        <ele>19.2</ele>
        <time>2025-06-17T10:48:07Z</time>
      </trkpt>
      <trkpt lat="43.38438" lon="3.53923">
        <ele>19.2</ele>
        <time>2025-06-17T10:48:08Z</time>
      </trkpt>
      <trkpt lat="43.3844" lon="3.53916">
        <ele>19.4</ele>
        <time>2025-06-17T10:48:09Z</time>
      </trkpt>
      <trkpt lat="43.38439" lon="3.53908">
        <ele>19.4</ele>
        <time>2025-06-17T10:48:10Z</time>
      </trkpt>
      <trkpt lat="43.38438" lon="3.53902">
        <ele>19.4</ele>
        <time>2025-06-17T10:48:11Z</time>
      </trkpt>
      <trkpt lat="43.38435" lon="3.53896">
        <ele>19.6</ele>
        <time>2025-06-17T10:48:12Z</time>
      </trkpt>
      <trkpt lat="43.38432" lon="3.5389">
        <ele>19.6</ele>
        <time>2025-06-17T10:48:13Z</time>
      </trkpt>
      <trkpt lat="43.38428" lon="3.53884">
        <ele>19.6</ele>
        <time>2025-06-17T10:48:14Z</time>
      </trkpt>
      <trkpt lat="43.38425" lon="3.53879">
        <ele>19.6</ele>
        <time>2025-06-17T10:48:15Z</time>
      </trkpt>
      <trkpt lat="43.38421" lon="3.53874">
        <ele>19.6</ele>
        <time>2025-06-17T10:48:16Z</time>
      </trkpt>
      <trkpt lat="43.38418" lon="3.53868">
        <ele>19.6</ele>
        <time>2025-06-17T10:48:17Z</time>
      </trkpt>
      <trkpt lat="43.38414" lon="3.53863">
        <ele>19.6</ele>
        <time>2025-06-17T10:48:18Z</time>
      </trkpt>
      <trkpt lat="43.38411" lon="3.53858">
        <ele>19.6</ele>
        <time>2025-06-17T10:48:19Z</time>
      </trkpt>
      <trkpt lat="43.38407" lon="3.53852">
        <ele>19.4</ele>
        <time>2025-06-17T10:48:20Z</time>
      </trkpt>
      <trkpt lat="43.38404" lon="3.53846">
        <ele>19.6</ele>
        <time>2025-06-17T10:48:21Z</time>
      </trkpt>
      <trkpt lat="43.384" lon="3.5384">
        <ele>19.6</ele>
        <time>2025-06-17T10:48:22Z</time>
      </trkpt>
      <trkpt lat="43.38397" lon="3.53835">
        <ele>19.4</ele>
        <time>2025-06-17T10:48:23Z</time>
      </trkpt>
      <trkpt lat="43.38393" lon="3.53829">
        <ele>19.4</ele>
        <time>2025-06-17T10:48:24Z</time>
      </trkpt>
      <trkpt lat="43.38389" lon="3.53824">
        <ele>19.4</ele>
        <time>2025-06-17T10:48:25Z</time>
      </trkpt>
      <trkpt lat="43.38385" lon="3.53819">
        <ele>19.4</ele>
        <time>2025-06-17T10:48:26Z</time>
      </trkpt>
      <trkpt lat="43.38381" lon="3.53814">
        <ele>19.4</ele>
        <time>2025-06-17T10:48:27Z</time>
      </trkpt>
      <trkpt lat="43.38377" lon="3.53808">
        <ele>19.4</ele>
        <time>2025-06-17T10:48:28Z</time>
      </trkpt>
      <trkpt lat="43.38374" lon="3.53802">
        <ele>19.4</ele>
        <time>2025-06-17T10:48:29Z</time>
      </trkpt>
      <trkpt lat="43.3837" lon="3.53796">
        <ele>19.4</ele>
        <time>2025-06-17T10:48:30Z</time>
      </trkpt>
      <trkpt lat="43.38366" lon="3.53791">
        <ele>19.4</ele>
        <time>2025-06-17T10:48:31Z</time>
      </trkpt>
      <trkpt lat="43.38363" lon="3.53785">
        <ele>19.4</ele>
        <time>2025-06-17T10:48:32Z</time>
      </trkpt>
      <trkpt lat="43.38359" lon="3.5378">
        <ele>19.4</ele>
        <time>2025-06-17T10:48:33Z</time>
      </trkpt>
      <trkpt lat="43.38356" lon="3.53775">
        <ele>19.4</ele>
        <time>2025-06-17T10:48:34Z</time>
      </trkpt>
      <trkpt lat="43.38351" lon="3.53769">
        <ele>19.4</ele>
        <time>2025-06-17T10:48:35Z</time>
      </trkpt>
      <trkpt lat="43.38347" lon="3.53765">
        <ele>19.6</ele>
        <time>2025-06-17T10:48:36Z</time>
      </trkpt>
      <trkpt lat="43.38343" lon="3.5376">
        <ele>19.6</ele>
        <time>2025-06-17T10:48:37Z</time>
      </trkpt>
      <trkpt lat="43.38339" lon="3.53756">
        <ele>19.6</ele>
        <time>2025-06-17T10:48:38Z</time>
      </trkpt>
      <trkpt lat="43.38334" lon="3.53751">
        <ele>19.6</ele>
        <time>2025-06-17T10:48:39Z</time>
      </trkpt>
      <trkpt lat="43.38329" lon="3.53747">
        <ele>19.6</ele>
        <time>2025-06-17T10:48:40Z</time>
      </trkpt>
      <trkpt lat="43.38325" lon="3.53743">
        <ele>19.6</ele>
        <time>2025-06-17T10:48:41Z</time>
      </trkpt>
      <trkpt lat="43.3832" lon="3.53739">
        <ele>19.6</ele>
        <time>2025-06-17T10:48:42Z</time>
      </trkpt>
      <trkpt lat="43.38316" lon="3.53735">
        <ele>19.6</ele>
        <time>2025-06-17T10:48:43Z</time>
      </trkpt>
      <trkpt lat="43.38311" lon="3.53731">
        <ele>19.6</ele>
        <time>2025-06-17T10:48:44Z</time>
      </trkpt>
      <trkpt lat="43.38307" lon="3.53727">
        <ele>19.6</ele>
        <time>2025-06-17T10:48:45Z</time>
      </trkpt>
      <trkpt lat="43.38303" lon="3.53722">
        <ele>19.6</ele>
        <time>2025-06-17T10:48:46Z</time>
      </trkpt>
      <trkpt lat="43.38299" lon="3.53717">
        <ele>19.6</ele>
        <time>2025-06-17T10:48:47Z</time>
      </trkpt>
      <trkpt lat="43.38294" lon="3.53712">
        <ele>19.6</ele>
        <time>2025-06-17T10:48:48Z</time>
      </trkpt>
      <trkpt lat="43.3829" lon="3.53708">
        <ele>19.6</ele>
        <time>2025-06-17T10:48:49Z</time>
      </trkpt>
      <trkpt lat="43.38286" lon="3.53705">
        <ele>19.6</ele>
        <time>2025-06-17T10:48:50Z</time>
      </trkpt>
      <trkpt lat="43.38282" lon="3.53701">
        <ele>19.8</ele>
        <time>2025-06-17T10:48:51Z</time>
      </trkpt>
      <trkpt lat="43.38278" lon="3.53697">
        <ele>19.8</ele>
        <time>2025-06-17T10:48:52Z</time>
      </trkpt>
      <trkpt lat="43.38275" lon="3.53693">
        <ele>19.8</ele>
        <time>2025-06-17T10:48:53Z</time>
      </trkpt>
      <trkpt lat="43.38271" lon="3.5369">
        <ele>19.8</ele>
        <time>2025-06-17T10:48:54Z</time>
      </trkpt>
      <trkpt lat="43.38268" lon="3.53686">
        <ele>20</ele>
        <time>2025-06-17T10:48:55Z</time>
      </trkpt>
      <trkpt lat="43.38264" lon="3.53682">
        <ele>20</ele>
        <time>2025-06-17T10:48:56Z</time>
      </trkpt>
      <trkpt lat="43.3826" lon="3.53679">
        <ele>20</ele>
        <time>2025-06-17T10:48:57Z</time>
      </trkpt>
      <trkpt lat="43.38257" lon="3.53675">
        <ele>20.2</ele>
        <time>2025-06-17T10:48:58Z</time>
      </trkpt>
      <trkpt lat="43.38254" lon="3.53672">
        <ele>20.2</ele>
        <time>2025-06-17T10:48:59Z</time>
      </trkpt>
      <trkpt lat="43.3825" lon="3.53668">
        <ele>20.2</ele>
        <time>2025-06-17T10:49:00Z</time>
      </trkpt>
      <trkpt lat="43.38248" lon="3.53665">
        <ele>20.4</ele>
        <time>2025-06-17T10:49:01Z</time>
      </trkpt>
      <trkpt lat="43.38244" lon="3.53662">
        <ele>20.4</ele>
        <time>2025-06-17T10:49:02Z</time>
      </trkpt>
      <trkpt lat="43.38242" lon="3.53659">
        <ele>20.4</ele>
        <time>2025-06-17T10:49:03Z</time>
      </trkpt>
      <trkpt lat="43.38239" lon="3.53656">
        <ele>20.6</ele>
        <time>2025-06-17T10:49:04Z</time>
      </trkpt>
      <trkpt lat="43.38237" lon="3.53653">
        <ele>20.6</ele>
        <time>2025-06-17T10:49:05Z</time>
      </trkpt>
      <trkpt lat="43.38234" lon="3.53651">
        <ele>20.8</ele>
        <time>2025-06-17T10:49:06Z</time>
      </trkpt>
      <trkpt lat="43.38232" lon="3.53649">
        <ele>20.8</ele>
        <time>2025-06-17T10:49:07Z</time>
      </trkpt>
      <trkpt lat="43.38231" lon="3.53647">
        <ele>21</ele>
        <time>2025-06-17T10:49:08Z</time>
      </trkpt>
      <trkpt lat="43.38221" lon="3.5364">
        <ele>21.2</ele>
        <time>2025-06-17T10:49:24Z</time>
      </trkpt>
      <trkpt lat="43.3822" lon="3.53639">
        <ele>21.2</ele>
        <time>2025-06-17T10:49:25Z</time>
      </trkpt>
      <trkpt lat="43.38218" lon="3.53638">
        <ele>21.2</ele>
        <time>2025-06-17T10:49:26Z</time>
      </trkpt>
      <trkpt lat="43.38217" lon="3.53637">
        <ele>21.2</ele>
        <time>2025-06-17T10:49:27Z</time>
      </trkpt>
      <trkpt lat="43.38216" lon="3.53636">
        <ele>21.2</ele>
        <time>2025-06-17T10:49:28Z</time>
      </trkpt>
      <trkpt lat="43.38215" lon="3.53635">
        <ele>21.2</ele>
        <time>2025-06-17T10:49:29Z</time>
      </trkpt>
      <trkpt lat="43.38214" lon="3.53635">
        <ele>21.2</ele>
        <time>2025-06-17T10:49:30Z</time>
      </trkpt>
      <trkpt lat="43.38213" lon="3.53634">
        <ele>21.2</ele>
        <time>2025-06-17T10:49:31Z</time>
      </trkpt>
      <trkpt lat="43.38212" lon="3.53633">
        <ele>21.2</ele>
        <time>2025-06-17T10:49:32Z</time>
      </trkpt>
      <trkpt lat="43.38211" lon="3.53632">
        <ele>21.4</ele>
        <time>2025-06-17T10:49:33Z</time>
      </trkpt>
      <trkpt lat="43.38209" lon="3.53631">
        <ele>21.4</ele>
        <time>2025-06-17T10:49:34Z</time>
      </trkpt>
      <trkpt lat="43.38209" lon="3.5363">
        <ele>21.4</ele>
        <time>2025-06-17T10:49:35Z</time>
      </trkpt>
      <trkpt lat="43.38208" lon="3.53629">
        <ele>21.4</ele>
        <time>2025-06-17T10:49:36Z</time>
      </trkpt>
      <trkpt lat="43.38206" lon="3.53628">
        <ele>21.4</ele>
        <time>2025-06-17T10:49:37Z</time>
      </trkpt>
      <trkpt lat="43.38206" lon="3.53627">
        <ele>21.6</ele>
        <time>2025-06-17T10:49:38Z</time>
      </trkpt>
      <trkpt lat="43.38205" lon="3.53627">
        <ele>21.6</ele>
        <time>2025-06-17T10:49:39Z</time>
      </trkpt>
      <trkpt lat="43.38204" lon="3.53626">
        <ele>21.6</ele>
        <time>2025-06-17T10:49:40Z</time>
      </trkpt>
      <trkpt lat="43.38204" lon="3.53625">
        <ele>21.6</ele>
        <time>2025-06-17T10:49:41Z</time>
      </trkpt>
      <trkpt lat="43.38203" lon="3.53625">
        <ele>21.6</ele>
        <time>2025-06-17T10:49:42Z</time>
      </trkpt>
      <trkpt lat="43.38203" lon="3.53625">
        <ele>21.8</ele>
        <time>2025-06-17T10:49:43Z</time>
      </trkpt>
      <trkpt lat="43.38203" lon="3.53625">
        <ele>21.8</ele>
        <time>2025-06-17T10:49:44Z</time>
      </trkpt>
      <trkpt lat="43.38203" lon="3.53625">
        <ele>21.8</ele>
        <time>2025-06-17T10:49:45Z</time>
      </trkpt>
      <trkpt lat="43.382" lon="3.53623">
        <ele>22.2</ele>
        <time>2025-06-17T10:49:53Z</time>
      </trkpt>
      <trkpt lat="43.38199" lon="3.53622">
        <ele>22.2</ele>
        <time>2025-06-17T10:49:54Z</time>
      </trkpt>
      <trkpt lat="43.38198" lon="3.53621">
        <ele>22.2</ele>
        <time>2025-06-17T10:49:55Z</time>
      </trkpt>
      <trkpt lat="43.38197" lon="3.5362">
        <ele>22.2</ele>
        <time>2025-06-17T10:49:56Z</time>
      </trkpt>
      <trkpt lat="43.38196" lon="3.53619">
        <ele>22.2</ele>
        <time>2025-06-17T10:49:57Z</time>
      </trkpt>
      <trkpt lat="43.38196" lon="3.53618">
        <ele>22.2</ele>
        <time>2025-06-17T10:49:58Z</time>
      </trkpt>
      <trkpt lat="43.38195" lon="3.53617">
        <ele>22.4</ele>
        <time>2025-06-17T10:49:59Z</time>
      </trkpt>
      <trkpt lat="43.38194" lon="3.53616">
        <ele>22.4</ele>
        <time>2025-06-17T10:50:00Z</time>
      </trkpt>
      <trkpt lat="43.38193" lon="3.53616">
        <ele>22.4</ele>
        <time>2025-06-17T10:50:01Z</time>
      </trkpt>
      <trkpt lat="43.38192" lon="3.53615">
        <ele>22.4</ele>
        <time>2025-06-17T10:50:02Z</time>
      </trkpt>
      <trkpt lat="43.38191" lon="3.53614">
        <ele>22.4</ele>
        <time>2025-06-17T10:50:03Z</time>
      </trkpt>
      <trkpt lat="43.3819" lon="3.53613">
        <ele>22.4</ele>
        <time>2025-06-17T10:50:04Z</time>
      </trkpt>
      <trkpt lat="43.38189" lon="3.53612">
        <ele>22.4</ele>
        <time>2025-06-17T10:50:05Z</time>
      </trkpt>
      <trkpt lat="43.38188" lon="3.53611">
        <ele>22.4</ele>
        <time>2025-06-17T10:50:06Z</time>
      </trkpt>
      <trkpt lat="43.38187" lon="3.53611">
        <ele>22.6</ele>
        <time>2025-06-17T10:50:07Z</time>
      </trkpt>
      <trkpt lat="43.38186" lon="3.5361">
        <ele>22.6</ele>
        <time>2025-06-17T10:50:08Z</time>
      </trkpt>
      <trkpt lat="43.38185" lon="3.53609">
        <ele>22.6</ele>
        <time>2025-06-17T10:50:09Z</time>
      </trkpt>
      <trkpt lat="43.38184" lon="3.53608">
        <ele>22.6</ele>
        <time>2025-06-17T10:50:10Z</time>
      </trkpt>
      <trkpt lat="43.38184" lon="3.53608">
        <ele>22.6</ele>
        <time>2025-06-17T10:50:11Z</time>
      </trkpt>
      <trkpt lat="43.38183" lon="3.53607">
        <ele>22.8</ele>
        <time>2025-06-17T10:50:12Z</time>
      </trkpt>
      <trkpt lat="43.38182" lon="3.53606">
        <ele>22.8</ele>
        <time>2025-06-17T10:50:13Z</time>
      </trkpt>
      <trkpt lat="43.38181" lon="3.53605">
        <ele>22.8</ele>
        <time>2025-06-17T10:50:14Z</time>
      </trkpt>
      <trkpt lat="43.3818" lon="3.53605">
        <ele>22.8</ele>
        <time>2025-06-17T10:50:15Z</time>
      </trkpt>
      <trkpt lat="43.38179" lon="3.53605">
        <ele>22.8</ele>
        <time>2025-06-17T10:50:16Z</time>
      </trkpt>
      <trkpt lat="43.38178" lon="3.53604">
        <ele>22.8</ele>
        <time>2025-06-17T10:50:17Z</time>
      </trkpt>
      <trkpt lat="43.38177" lon="3.53603">
        <ele>22.8</ele>
        <time>2025-06-17T10:50:18Z</time>
      </trkpt>
      <trkpt lat="43.38176" lon="3.53603">
        <ele>23</ele>
        <time>2025-06-17T10:50:19Z</time>
      </trkpt>
      <trkpt lat="43.38175" lon="3.53602">
        <ele>23</ele>
        <time>2025-06-17T10:50:20Z</time>
      </trkpt>
      <trkpt lat="43.38175" lon="3.53601">
        <ele>23</ele>
        <time>2025-06-17T10:50:21Z</time>
      </trkpt>
      <trkpt lat="43.38174" lon="3.53601">
        <ele>23</ele>
        <time>2025-06-17T10:50:22Z</time>
      </trkpt>
      <trkpt lat="43.38174" lon="3.53601">
        <ele>23</ele>
        <time>2025-06-17T10:50:23Z</time>
      </trkpt>
      <trkpt lat="43.38174" lon="3.53601">
        <ele>22.8</ele>
        <time>2025-06-17T10:50:24Z</time>
      </trkpt>
      <trkpt lat="43.38174" lon="3.53601">
        <ele>22.8</ele>
        <time>2025-06-17T10:50:25Z</time>
      </trkpt>
      <trkpt lat="43.38174" lon="3.53601">
        <ele>22.8</ele>
        <time>2025-06-17T10:50:26Z</time>
      </trkpt>
      <trkpt lat="43.38172" lon="3.53599">
        <ele>22.8</ele>
        <time>2025-06-17T10:50:27Z</time>
      </trkpt>
      <trkpt lat="43.38172" lon="3.53599">
        <ele>22.8</ele>
        <time>2025-06-17T10:50:28Z</time>
      </trkpt>
      <trkpt lat="43.38172" lon="3.53599">
        <ele>22.8</ele>
        <time>2025-06-17T10:50:29Z</time>
      </trkpt>
      <trkpt lat="43.38171" lon="3.53598">
        <ele>22.8</ele>
        <time>2025-06-17T10:50:30Z</time>
      </trkpt>
      <trkpt lat="43.38171" lon="3.53598">
        <ele>22.8</ele>
        <time>2025-06-17T10:50:31Z</time>
      </trkpt>
      <trkpt lat="43.38169" lon="3.53598">
        <ele>22.8</ele>
        <time>2025-06-17T10:50:32Z</time>
      </trkpt>
      <trkpt lat="43.38168" lon="3.53597">
        <ele>22.8</ele>
        <time>2025-06-17T10:50:33Z</time>
      </trkpt>
      <trkpt lat="43.38168" lon="3.53597">
        <ele>22.8</ele>
        <time>2025-06-17T10:50:34Z</time>
      </trkpt>
      <trkpt lat="43.38167" lon="3.53596">
        <ele>22.8</ele>
        <time>2025-06-17T10:50:35Z</time>
      </trkpt>
      <trkpt lat="43.38166" lon="3.53595">
        <ele>22.8</ele>
        <time>2025-06-17T10:50:36Z</time>
      </trkpt>
      <trkpt lat="43.38165" lon="3.53595">
        <ele>22.8</ele>
        <time>2025-06-17T10:50:37Z</time>
      </trkpt>
      <trkpt lat="43.38164" lon="3.53594">
        <ele>22.8</ele>
        <time>2025-06-17T10:50:38Z</time>
      </trkpt>
      <trkpt lat="43.38163" lon="3.53594">
        <ele>22.8</ele>
        <time>2025-06-17T10:50:39Z</time>
      </trkpt>
      <trkpt lat="43.38162" lon="3.53593">
        <ele>22.8</ele>
        <time>2025-06-17T10:50:40Z</time>
      </trkpt>
      <trkpt lat="43.38161" lon="3.53593">
        <ele>23</ele>
        <time>2025-06-17T10:50:41Z</time>
      </trkpt>
      <trkpt lat="43.3816" lon="3.53592">
        <ele>23</ele>
        <time>2025-06-17T10:50:42Z</time>
      </trkpt>
      <trkpt lat="43.38159" lon="3.53591">
        <ele>23</ele>
        <time>2025-06-17T10:50:43Z</time>
      </trkpt>
      <trkpt lat="43.38158" lon="3.53591">
        <ele>23</ele>
        <time>2025-06-17T10:50:44Z</time>
      </trkpt>
      <trkpt lat="43.38158" lon="3.5359">
        <ele>23.2</ele>
        <time>2025-06-17T10:50:45Z</time>
      </trkpt>
      <trkpt lat="43.38156" lon="3.5359">
        <ele>23.2</ele>
        <time>2025-06-17T10:50:46Z</time>
      </trkpt>
      <trkpt lat="43.38156" lon="3.5359">
        <ele>23.2</ele>
        <time>2025-06-17T10:50:47Z</time>
      </trkpt>
      <trkpt lat="43.38155" lon="3.53589">
        <ele>23.2</ele>
        <time>2025-06-17T10:50:48Z</time>
      </trkpt>
      <trkpt lat="43.38154" lon="3.53588">
        <ele>23.4</ele>
        <time>2025-06-17T10:50:49Z</time>
      </trkpt>
      <trkpt lat="43.38153" lon="3.53588">
        <ele>23.4</ele>
        <time>2025-06-17T10:50:50Z</time>
      </trkpt>
      <trkpt lat="43.38152" lon="3.53587">
        <ele>23.4</ele>
        <time>2025-06-17T10:50:51Z</time>
      </trkpt>
      <trkpt lat="43.38151" lon="3.53587">
        <ele>23.4</ele>
        <time>2025-06-17T10:50:52Z</time>
      </trkpt>
      <trkpt lat="43.3815" lon="3.53587">
        <ele>23.6</ele>
        <time>2025-06-17T10:50:53Z</time>
      </trkpt>
      <trkpt lat="43.38149" lon="3.53586">
        <ele>23.6</ele>
        <time>2025-06-17T10:50:54Z</time>
      </trkpt>
      <trkpt lat="43.38148" lon="3.53585">
        <ele>23.6</ele>
        <time>2025-06-17T10:50:55Z</time>
      </trkpt>
      <trkpt lat="43.38147" lon="3.53584">
        <ele>23.8</ele>
        <time>2025-06-17T10:50:56Z</time>
      </trkpt>
      <trkpt lat="43.38146" lon="3.53583">
        <ele>23.8</ele>
        <time>2025-06-17T10:50:57Z</time>
      </trkpt>
      <trkpt lat="43.38145" lon="3.53583">
        <ele>23.8</ele>
        <time>2025-06-17T10:50:58Z</time>
      </trkpt>
      <trkpt lat="43.38145" lon="3.53582">
        <ele>23.8</ele>
        <time>2025-06-17T10:50:59Z</time>
      </trkpt>
      <trkpt lat="43.38144" lon="3.53582">
        <ele>23.8</ele>
        <time>2025-06-17T10:51:00Z</time>
      </trkpt>
      <trkpt lat="43.38143" lon="3.53581">
        <ele>24</ele>
        <time>2025-06-17T10:51:01Z</time>
      </trkpt>
      <trkpt lat="43.38142" lon="3.5358">
        <ele>24</ele>
        <time>2025-06-17T10:51:02Z</time>
      </trkpt>
      <trkpt lat="43.38141" lon="3.5358">
        <ele>24</ele>
        <time>2025-06-17T10:51:03Z</time>
      </trkpt>
      <trkpt lat="43.3814" lon="3.53579">
        <ele>24</ele>
        <time>2025-06-17T10:51:04Z</time>
      </trkpt>
      <trkpt lat="43.38139" lon="3.53578">
        <ele>24</ele>
        <time>2025-06-17T10:51:05Z</time>
      </trkpt>
      <trkpt lat="43.38138" lon="3.53578">
        <ele>24</ele>
        <time>2025-06-17T10:51:06Z</time>
      </trkpt>
      <trkpt lat="43.38138" lon="3.53577">
        <ele>24</ele>
        <time>2025-06-17T10:51:07Z</time>
      </trkpt>
      <trkpt lat="43.38137" lon="3.53577">
        <ele>24</ele>
        <time>2025-06-17T10:51:08Z</time>
      </trkpt>
      <trkpt lat="43.38137" lon="3.53577">
        <ele>24.2</ele>
        <time>2025-06-17T10:51:09Z</time>
      </trkpt>
      <trkpt lat="43.38137" lon="3.53577">
        <ele>24.2</ele>
        <time>2025-06-17T10:51:10Z</time>
      </trkpt>
      <trkpt lat="43.38136" lon="3.53577">
        <ele>24.2</ele>
        <time>2025-06-17T10:51:27Z</time>
      </trkpt>
      <trkpt lat="43.38134" lon="3.53575">
        <ele>24.2</ele>
        <time>2025-06-17T10:51:28Z</time>
      </trkpt>
      <trkpt lat="43.38132" lon="3.53574">
        <ele>24.2</ele>
        <time>2025-06-17T10:51:29Z</time>
      </trkpt>
      <trkpt lat="43.38131" lon="3.53573">
        <ele>24.2</ele>
        <time>2025-06-17T10:51:30Z</time>
      </trkpt>
      <trkpt lat="43.38129" lon="3.53572">
        <ele>24.2</ele>
        <time>2025-06-17T10:51:31Z</time>
      </trkpt>
      <trkpt lat="43.38127" lon="3.53571">
        <ele>24.2</ele>
        <time>2025-06-17T10:51:32Z</time>
      </trkpt>
      <trkpt lat="43.38125" lon="3.53569">
        <ele>24.2</ele>
        <time>2025-06-17T10:51:33Z</time>
      </trkpt>
      <trkpt lat="43.38122" lon="3.53567">
        <ele>24.2</ele>
        <time>2025-06-17T10:51:34Z</time>
      </trkpt>
      <trkpt lat="43.38121" lon="3.53565">
        <ele>24.2</ele>
        <time>2025-06-17T10:51:35Z</time>
      </trkpt>
      <trkpt lat="43.38119" lon="3.53561">
        <ele>24.4</ele>
        <time>2025-06-17T10:51:36Z</time>
      </trkpt>
      <trkpt lat="43.38117" lon="3.53558">
        <ele>24.4</ele>
        <time>2025-06-17T10:51:37Z</time>
      </trkpt>
      <trkpt lat="43.38116" lon="3.53554">
        <ele>24.4</ele>
        <time>2025-06-17T10:51:38Z</time>
      </trkpt>
      <trkpt lat="43.38115" lon="3.53551">
        <ele>24.4</ele>
        <time>2025-06-17T10:51:39Z</time>
      </trkpt>
      <trkpt lat="43.38114" lon="3.53547">
        <ele>24.6</ele>
        <time>2025-06-17T10:51:40Z</time>
      </trkpt>
      <trkpt lat="43.38113" lon="3.53545">
        <ele>24.6</ele>
        <time>2025-06-17T10:51:41Z</time>
      </trkpt>
      <trkpt lat="43.38112" lon="3.53542">
        <ele>24.6</ele>
        <time>2025-06-17T10:51:42Z</time>
      </trkpt>
      <trkpt lat="43.38112" lon="3.53539">
        <ele>24.8</ele>
        <time>2025-06-17T10:51:43Z</time>
      </trkpt>
      <trkpt lat="43.38111" lon="3.53537">
        <ele>25</ele>
        <time>2025-06-17T10:51:44Z</time>
      </trkpt>
      <trkpt lat="43.38111" lon="3.53535">
        <ele>25.2</ele>
        <time>2025-06-17T10:51:45Z</time>
      </trkpt>
      <trkpt lat="43.38111" lon="3.53532">
        <ele>25.2</ele>
        <time>2025-06-17T10:51:46Z</time>
      </trkpt>
      <trkpt lat="43.3811" lon="3.53529">
        <ele>25.4</ele>
        <time>2025-06-17T10:51:47Z</time>
      </trkpt>
      <trkpt lat="43.38108" lon="3.53527">
        <ele>25.4</ele>
        <time>2025-06-17T10:51:48Z</time>
      </trkpt>
      <trkpt lat="43.38105" lon="3.53526">
        <ele>25.6</ele>
        <time>2025-06-17T10:51:49Z</time>
      </trkpt>
      <trkpt lat="43.38102" lon="3.53524">
        <ele>25.6</ele>
        <time>2025-06-17T10:51:50Z</time>
      </trkpt>
      <trkpt lat="43.38099" lon="3.53523">
        <ele>25.6</ele>
        <time>2025-06-17T10:51:51Z</time>
      </trkpt>
      <trkpt lat="43.38095" lon="3.53522">
        <ele>25.8</ele>
        <time>2025-06-17T10:51:52Z</time>
      </trkpt>
      <trkpt lat="43.38091" lon="3.53521">
        <ele>25.8</ele>
        <time>2025-06-17T10:51:53Z</time>
      </trkpt>
      <trkpt lat="43.38086" lon="3.5352">
        <ele>25.8</ele>
        <time>2025-06-17T10:51:54Z</time>
      </trkpt>
      <trkpt lat="43.38083" lon="3.53519">
        <ele>26</ele>
        <time>2025-06-17T10:51:55Z</time>
      </trkpt>
      <trkpt lat="43.38078" lon="3.53518">
        <ele>26</ele>
        <time>2025-06-17T10:51:56Z</time>
      </trkpt>
      <trkpt lat="43.38074" lon="3.53517">
        <ele>26</ele>
        <time>2025-06-17T10:51:57Z</time>
      </trkpt>
      <trkpt lat="43.3807" lon="3.53516">
        <ele>26.2</ele>
        <time>2025-06-17T10:51:58Z</time>
      </trkpt>
      <trkpt lat="43.38065" lon="3.53515">
        <ele>26.2</ele>
        <time>2025-06-17T10:51:59Z</time>
      </trkpt>
      <trkpt lat="43.38061" lon="3.53514">
        <ele>26.2</ele>
        <time>2025-06-17T10:52:00Z</time>
      </trkpt>
      <trkpt lat="43.38057" lon="3.53512">
        <ele>26.4</ele>
        <time>2025-06-17T10:52:01Z</time>
      </trkpt>
      <trkpt lat="43.38052" lon="3.53511">
        <ele>26.4</ele>
        <time>2025-06-17T10:52:02Z</time>
      </trkpt>
      <trkpt lat="43.38048" lon="3.5351">
        <ele>26.4</ele>
        <time>2025-06-17T10:52:03Z</time>
      </trkpt>
      <trkpt lat="43.38044" lon="3.53509">
        <ele>26.4</ele>
        <time>2025-06-17T10:52:04Z</time>
      </trkpt>
      <trkpt lat="43.3804" lon="3.53509">
        <ele>26.6</ele>
        <time>2025-06-17T10:52:05Z</time>
      </trkpt>
      <trkpt lat="43.38035" lon="3.53508">
        <ele>26.6</ele>
        <time>2025-06-17T10:52:06Z</time>
      </trkpt>
      <trkpt lat="43.38031" lon="3.53506">
        <ele>26.6</ele>
        <time>2025-06-17T10:52:07Z</time>
      </trkpt>
      <trkpt lat="43.38026" lon="3.53505">
        <ele>26.6</ele>
        <time>2025-06-17T10:52:08Z</time>
      </trkpt>
      <trkpt lat="43.38022" lon="3.53505">
        <ele>26.6</ele>
        <time>2025-06-17T10:52:09Z</time>
      </trkpt>
      <trkpt lat="43.38018" lon="3.53503">
        <ele>26.8</ele>
        <time>2025-06-17T10:52:10Z</time>
      </trkpt>
      <trkpt lat="43.38014" lon="3.53502">
        <ele>26.8</ele>
        <time>2025-06-17T10:52:11Z</time>
      </trkpt>
      <trkpt lat="43.3801" lon="3.53501">
        <ele>26.8</ele>
        <time>2025-06-17T10:52:12Z</time>
      </trkpt>
      <trkpt lat="43.38006" lon="3.53501">
        <ele>27</ele>
        <time>2025-06-17T10:52:13Z</time>
      </trkpt>
      <trkpt lat="43.38001" lon="3.53499">
        <ele>27</ele>
        <time>2025-06-17T10:52:14Z</time>
      </trkpt>
      <trkpt lat="43.37997" lon="3.53498">
        <ele>27</ele>
        <time>2025-06-17T10:52:15Z</time>
      </trkpt>
      <trkpt lat="43.37993" lon="3.53497">
        <ele>27</ele>
        <time>2025-06-17T10:52:16Z</time>
      </trkpt>
      <trkpt lat="43.37989" lon="3.53496">
        <ele>27.2</ele>
        <time>2025-06-17T10:52:17Z</time>
      </trkpt>
      <trkpt lat="43.37985" lon="3.53495">
        <ele>27.2</ele>
        <time>2025-06-17T10:52:18Z</time>
      </trkpt>
      <trkpt lat="43.37981" lon="3.53494">
        <ele>27.4</ele>
        <time>2025-06-17T10:52:19Z</time>
      </trkpt>
      <trkpt lat="43.37977" lon="3.53492">
        <ele>27.4</ele>
        <time>2025-06-17T10:52:20Z</time>
      </trkpt>
      <trkpt lat="43.37973" lon="3.53492">
        <ele>27.6</ele>
        <time>2025-06-17T10:52:21Z</time>
      </trkpt>
      <trkpt lat="43.37968" lon="3.5349">
        <ele>27.6</ele>
        <time>2025-06-17T10:52:22Z</time>
      </trkpt>
      <trkpt lat="43.37964" lon="3.53489">
        <ele>27.8</ele>
        <time>2025-06-17T10:52:23Z</time>
      </trkpt>
      <trkpt lat="43.3796" lon="3.53488">
        <ele>27.8</ele>
        <time>2025-06-17T10:52:24Z</time>
      </trkpt>
      <trkpt lat="43.37956" lon="3.53487">
        <ele>27.8</ele>
        <time>2025-06-17T10:52:25Z</time>
      </trkpt>
      <trkpt lat="43.37952" lon="3.53485">
        <ele>28</ele>
        <time>2025-06-17T10:52:26Z</time>
      </trkpt>
      <trkpt lat="43.37948" lon="3.53485">
        <ele>28</ele>
        <time>2025-06-17T10:52:27Z</time>
      </trkpt>
      <trkpt lat="43.37944" lon="3.53484">
        <ele>28</ele>
        <time>2025-06-17T10:52:28Z</time>
      </trkpt>
      <trkpt lat="43.3794" lon="3.53483">
        <ele>28.2</ele>
        <time>2025-06-17T10:52:29Z</time>
      </trkpt>
      <trkpt lat="43.37936" lon="3.53482">
        <ele>28.2</ele>
        <time>2025-06-17T10:52:30Z</time>
      </trkpt>
      <trkpt lat="43.37932" lon="3.53481">
        <ele>28.4</ele>
        <time>2025-06-17T10:52:31Z</time>
      </trkpt>
      <trkpt lat="43.37928" lon="3.5348">
        <ele>28.4</ele>
        <time>2025-06-17T10:52:32Z</time>
      </trkpt>
      <trkpt lat="43.37924" lon="3.53479">
        <ele>28.6</ele>
        <time>2025-06-17T10:52:33Z</time>
      </trkpt>
      <trkpt lat="43.3792" lon="3.53478">
        <ele>28.6</ele>
        <time>2025-06-17T10:52:34Z</time>
      </trkpt>
      <trkpt lat="43.37916" lon="3.53477">
        <ele>28.8</ele>
        <time>2025-06-17T10:52:35Z</time>
      </trkpt>
      <trkpt lat="43.37912" lon="3.53476">
        <ele>28.8</ele>
        <time>2025-06-17T10:52:36Z</time>
      </trkpt>
      <trkpt lat="43.37909" lon="3.53475">
        <ele>28.8</ele>
        <time>2025-06-17T10:52:37Z</time>
      </trkpt>
      <trkpt lat="43.37905" lon="3.53474">
        <ele>29</ele>
        <time>2025-06-17T10:52:38Z</time>
      </trkpt>
      <trkpt lat="43.37901" lon="3.53473">
        <ele>29</ele>
        <time>2025-06-17T10:52:39Z</time>
      </trkpt>
      <trkpt lat="43.37897" lon="3.53472">
        <ele>29</ele>
        <time>2025-06-17T10:52:40Z</time>
      </trkpt>
      <trkpt lat="43.37893" lon="3.53471">
        <ele>29.2</ele>
        <time>2025-06-17T10:52:41Z</time>
      </trkpt>
      <trkpt lat="43.37889" lon="3.5347">
        <ele>29.2</ele>
        <time>2025-06-17T10:52:42Z</time>
      </trkpt>
      <trkpt lat="43.37885" lon="3.5347">
        <ele>29.4</ele>
        <time>2025-06-17T10:52:43Z</time>
      </trkpt>
      <trkpt lat="43.37881" lon="3.53469">
        <ele>29.4</ele>
        <time>2025-06-17T10:52:44Z</time>
      </trkpt>
      <trkpt lat="43.37878" lon="3.53468">
        <ele>29.6</ele>
        <time>2025-06-17T10:52:45Z</time>
      </trkpt>
      <trkpt lat="43.37874" lon="3.53467">
        <ele>29.6</ele>
        <time>2025-06-17T10:52:46Z</time>
      </trkpt>
      <trkpt lat="43.3787" lon="3.53466">
        <ele>29.8</ele>
        <time>2025-06-17T10:52:47Z</time>
      </trkpt>
      <trkpt lat="43.37866" lon="3.53465">
        <ele>29.8</ele>
        <time>2025-06-17T10:52:48Z</time>
      </trkpt>
      <trkpt lat="43.37862" lon="3.53464">
        <ele>30</ele>
        <time>2025-06-17T10:52:49Z</time>
      </trkpt>
      <trkpt lat="43.37858" lon="3.53463">
        <ele>30</ele>
        <time>2025-06-17T10:52:50Z</time>
      </trkpt>
      <trkpt lat="43.37855" lon="3.53462">
        <ele>30.2</ele>
        <time>2025-06-17T10:52:51Z</time>
      </trkpt>
      <trkpt lat="43.3785" lon="3.53461">
        <ele>30.2</ele>
        <time>2025-06-17T10:52:52Z</time>
      </trkpt>
      <trkpt lat="43.37847" lon="3.5346">
        <ele>30.2</ele>
        <time>2025-06-17T10:52:53Z</time>
      </trkpt>
      <trkpt lat="43.37843" lon="3.53459">
        <ele>30.4</ele>
        <time>2025-06-17T10:52:54Z</time>
      </trkpt>
      <trkpt lat="43.37839" lon="3.53459">
        <ele>30.4</ele>
        <time>2025-06-17T10:52:55Z</time>
      </trkpt>
      <trkpt lat="43.37835" lon="3.53458">
        <ele>30.6</ele>
        <time>2025-06-17T10:52:56Z</time>
      </trkpt>
      <trkpt lat="43.37831" lon="3.53457">
        <ele>30.6</ele>
        <time>2025-06-17T10:52:57Z</time>
      </trkpt>
      <trkpt lat="43.37827" lon="3.53456">
        <ele>30.8</ele>
        <time>2025-06-17T10:52:58Z</time>
      </trkpt>
      <trkpt lat="43.37823" lon="3.53455">
        <ele>30.8</ele>
        <time>2025-06-17T10:52:59Z</time>
      </trkpt>
      <trkpt lat="43.37819" lon="3.53454">
        <ele>31</ele>
        <time>2025-06-17T10:53:00Z</time>
      </trkpt>
      <trkpt lat="43.37816" lon="3.53453">
        <ele>31</ele>
        <time>2025-06-17T10:53:01Z</time>
      </trkpt>
      <trkpt lat="43.37812" lon="3.53452">
        <ele>31.2</ele>
        <time>2025-06-17T10:53:02Z</time>
      </trkpt>
      <trkpt lat="43.37808" lon="3.53452">
        <ele>31.2</ele>
        <time>2025-06-17T10:53:03Z</time>
      </trkpt>
      <trkpt lat="43.37804" lon="3.53451">
        <ele>31.4</ele>
        <time>2025-06-17T10:53:04Z</time>
      </trkpt>
      <trkpt lat="43.378" lon="3.5345">
        <ele>31.4</ele>
        <time>2025-06-17T10:53:05Z</time>
      </trkpt>
      <trkpt lat="43.37797" lon="3.53449">
        <ele>31.4</ele>
        <time>2025-06-17T10:53:06Z</time>
      </trkpt>
      <trkpt lat="43.37793" lon="3.53448">
        <ele>31.6</ele>
        <time>2025-06-17T10:53:07Z</time>
      </trkpt>
      <trkpt lat="43.37789" lon="3.53447">
        <ele>31.6</ele>
        <time>2025-06-17T10:53:08Z</time>
      </trkpt>
      <trkpt lat="43.37786" lon="3.53446">
        <ele>31.8</ele>
        <time>2025-06-17T10:53:09Z</time>
      </trkpt>
      <trkpt lat="43.37782" lon="3.53445">
        <ele>31.8</ele>
        <time>2025-06-17T10:53:10Z</time>
      </trkpt>
      <trkpt lat="43.37778" lon="3.53444">
        <ele>31.8</ele>
        <time>2025-06-17T10:53:11Z</time>
      </trkpt>
      <trkpt lat="43.37774" lon="3.53444">
        <ele>32</ele>
        <time>2025-06-17T10:53:12Z</time>
      </trkpt>
      <trkpt lat="43.37771" lon="3.53443">
        <ele>32</ele>
        <time>2025-06-17T10:53:13Z</time>
      </trkpt>
      <trkpt lat="43.37767" lon="3.53442">
        <ele>32.2</ele>
        <time>2025-06-17T10:53:14Z</time>
      </trkpt>
      <trkpt lat="43.37764" lon="3.53441">
        <ele>32.2</ele>
        <time>2025-06-17T10:53:15Z</time>
      </trkpt>
      <trkpt lat="43.37759" lon="3.53439">
        <ele>32.2</ele>
        <time>2025-06-17T10:53:16Z</time>
      </trkpt>
      <trkpt lat="43.37756" lon="3.53439">
        <ele>32.2</ele>
        <time>2025-06-17T10:53:17Z</time>
      </trkpt>
      <trkpt lat="43.37752" lon="3.53438">
        <ele>32.4</ele>
        <time>2025-06-17T10:53:18Z</time>
      </trkpt>
      <trkpt lat="43.37748" lon="3.53437">
        <ele>32.4</ele>
        <time>2025-06-17T10:53:19Z</time>
      </trkpt>
      <trkpt lat="43.37744" lon="3.53436">
        <ele>32.6</ele>
        <time>2025-06-17T10:53:20Z</time>
      </trkpt>
      <trkpt lat="43.3774" lon="3.53435">
        <ele>32.6</ele>
        <time>2025-06-17T10:53:21Z</time>
      </trkpt>
      <trkpt lat="43.37736" lon="3.53433">
        <ele>32.6</ele>
        <time>2025-06-17T10:53:22Z</time>
      </trkpt>
      <trkpt lat="43.37732" lon="3.53432">
        <ele>32.8</ele>
        <time>2025-06-17T10:53:23Z</time>
      </trkpt>
      <trkpt lat="43.37728" lon="3.53431">
        <ele>32.8</ele>
        <time>2025-06-17T10:53:24Z</time>
      </trkpt>
      <trkpt lat="43.37725" lon="3.5343">
        <ele>33</ele>
        <time>2025-06-17T10:53:25Z</time>
      </trkpt>
      <trkpt lat="43.3772" lon="3.53429">
        <ele>33</ele>
        <time>2025-06-17T10:53:26Z</time>
      </trkpt>
      <trkpt lat="43.37717" lon="3.53428">
        <ele>33</ele>
        <time>2025-06-17T10:53:27Z</time>
      </trkpt>
      <trkpt lat="43.37713" lon="3.53427">
        <ele>33.2</ele>
        <time>2025-06-17T10:53:28Z</time>
      </trkpt>
      <trkpt lat="43.37709" lon="3.53426">
        <ele>33.2</ele>
        <time>2025-06-17T10:53:29Z</time>
      </trkpt>
      <trkpt lat="43.37705" lon="3.53425">
        <ele>33.4</ele>
        <time>2025-06-17T10:53:30Z</time>
      </trkpt>
      <trkpt lat="43.37701" lon="3.53424">
        <ele>33.4</ele>
        <time>2025-06-17T10:53:31Z</time>
      </trkpt>
      <trkpt lat="43.37697" lon="3.53423">
        <ele>33.4</ele>
        <time>2025-06-17T10:53:32Z</time>
      </trkpt>
      <trkpt lat="43.37693" lon="3.53422">
        <ele>33.6</ele>
        <time>2025-06-17T10:53:33Z</time>
      </trkpt>
      <trkpt lat="43.37689" lon="3.53421">
        <ele>33.6</ele>
        <time>2025-06-17T10:53:34Z</time>
      </trkpt>
      <trkpt lat="43.37685" lon="3.5342">
        <ele>33.8</ele>
        <time>2025-06-17T10:53:35Z</time>
      </trkpt>
      <trkpt lat="43.37681" lon="3.53419">
        <ele>33.8</ele>
        <time>2025-06-17T10:53:36Z</time>
      </trkpt>
      <trkpt lat="43.37677" lon="3.53418">
        <ele>33.8</ele>
        <time>2025-06-17T10:53:37Z</time>
      </trkpt>
      <trkpt lat="43.37673" lon="3.53417">
        <ele>33.8</ele>
        <time>2025-06-17T10:53:38Z</time>
      </trkpt>
      <trkpt lat="43.37669" lon="3.53416">
        <ele>33.8</ele>
        <time>2025-06-17T10:53:39Z</time>
      </trkpt>
      <trkpt lat="43.37665" lon="3.53415">
        <ele>34</ele>
        <time>2025-06-17T10:53:40Z</time>
      </trkpt>
      <trkpt lat="43.37661" lon="3.53414">
        <ele>34</ele>
        <time>2025-06-17T10:53:41Z</time>
      </trkpt>
      <trkpt lat="43.37657" lon="3.53413">
        <ele>34</ele>
        <time>2025-06-17T10:53:42Z</time>
      </trkpt>
      <trkpt lat="43.37654" lon="3.53412">
        <ele>34</ele>
        <time>2025-06-17T10:53:43Z</time>
      </trkpt>
      <trkpt lat="43.37648" lon="3.53411">
        <ele>34.2</ele>
        <time>2025-06-17T10:53:44Z</time>
      </trkpt>
      <trkpt lat="43.37644" lon="3.5341">
        <ele>34.2</ele>
        <time>2025-06-17T10:53:45Z</time>
      </trkpt>
      <trkpt lat="43.3764" lon="3.53409">
        <ele>34.4</ele>
        <time>2025-06-17T10:53:46Z</time>
      </trkpt>
      <trkpt lat="43.37636" lon="3.53408">
        <ele>34.4</ele>
        <time>2025-06-17T10:53:47Z</time>
      </trkpt>
      <trkpt lat="43.37632" lon="3.53407">
        <ele>34.4</ele>
        <time>2025-06-17T10:53:48Z</time>
      </trkpt>
      <trkpt lat="43.37628" lon="3.53406">
        <ele>34.4</ele>
        <time>2025-06-17T10:53:49Z</time>
      </trkpt>
      <trkpt lat="43.37623" lon="3.53405">
        <ele>34.6</ele>
        <time>2025-06-17T10:53:50Z</time>
      </trkpt>
      <trkpt lat="43.37619" lon="3.53404">
        <ele>34.6</ele>
        <time>2025-06-17T10:53:51Z</time>
      </trkpt>
      <trkpt lat="43.37615" lon="3.53403">
        <ele>34.6</ele>
        <time>2025-06-17T10:53:52Z</time>
      </trkpt>
      <trkpt lat="43.37611" lon="3.53402">
        <ele>34.8</ele>
        <time>2025-06-17T10:53:53Z</time>
      </trkpt>
      <trkpt lat="43.37607" lon="3.53401">
        <ele>34.8</ele>
        <time>2025-06-17T10:53:54Z</time>
      </trkpt>
      <trkpt lat="43.37602" lon="3.534">
        <ele>34.8</ele>
        <time>2025-06-17T10:53:55Z</time>
      </trkpt>
      <trkpt lat="43.37598" lon="3.53399">
        <ele>35</ele>
        <time>2025-06-17T10:53:56Z</time>
      </trkpt>
      <trkpt lat="43.37594" lon="3.53398">
        <ele>35</ele>
        <time>2025-06-17T10:53:57Z</time>
      </trkpt>
      <trkpt lat="43.3759" lon="3.53397">
        <ele>35.2</ele>
        <time>2025-06-17T10:53:58Z</time>
      </trkpt>
      <trkpt lat="43.37586" lon="3.53396">
        <ele>35.2</ele>
        <time>2025-06-17T10:53:59Z</time>
      </trkpt>
      <trkpt lat="43.37582" lon="3.53395">
        <ele>35.4</ele>
        <time>2025-06-17T10:54:00Z</time>
      </trkpt>
      <trkpt lat="43.37578" lon="3.53394">
        <ele>35.4</ele>
        <time>2025-06-17T10:54:01Z</time>
      </trkpt>
      <trkpt lat="43.37575" lon="3.53393">
        <ele>35.4</ele>
        <time>2025-06-17T10:54:02Z</time>
      </trkpt>
      <trkpt lat="43.3757" lon="3.53392">
        <ele>35.6</ele>
        <time>2025-06-17T10:54:03Z</time>
      </trkpt>
      <trkpt lat="43.37566" lon="3.53391">
        <ele>35.6</ele>
        <time>2025-06-17T10:54:04Z</time>
      </trkpt>
      <trkpt lat="43.37562" lon="3.5339">
        <ele>35.6</ele>
        <time>2025-06-17T10:54:05Z</time>
      </trkpt>
      <trkpt lat="43.37559" lon="3.53389">
        <ele>35.6</ele>
        <time>2025-06-17T10:54:06Z</time>
      </trkpt>
      <trkpt lat="43.37554" lon="3.53387">
        <ele>35.8</ele>
        <time>2025-06-17T10:54:07Z</time>
      </trkpt>
      <trkpt lat="43.37551" lon="3.53387">
        <ele>35.8</ele>
        <time>2025-06-17T10:54:08Z</time>
      </trkpt>
      <trkpt lat="43.37545" lon="3.53386">
        <ele>35.8</ele>
        <time>2025-06-17T10:54:09Z</time>
      </trkpt>
      <trkpt lat="43.37542" lon="3.53385">
        <ele>36</ele>
        <time>2025-06-17T10:54:10Z</time>
      </trkpt>
      <trkpt lat="43.37537" lon="3.53383">
        <ele>36</ele>
        <time>2025-06-17T10:54:11Z</time>
      </trkpt>
      <trkpt lat="43.37533" lon="3.53382">
        <ele>36</ele>
        <time>2025-06-17T10:54:12Z</time>
      </trkpt>
      <trkpt lat="43.37528" lon="3.53381">
        <ele>36</ele>
        <time>2025-06-17T10:54:13Z</time>
      </trkpt>
      <trkpt lat="43.37524" lon="3.5338">
        <ele>36</ele>
        <time>2025-06-17T10:54:14Z</time>
      </trkpt>
      <trkpt lat="43.37519" lon="3.53379">
        <ele>36</ele>
        <time>2025-06-17T10:54:15Z</time>
      </trkpt>
      <trkpt lat="43.37515" lon="3.53378">
        <ele>36.2</ele>
        <time>2025-06-17T10:54:16Z</time>
      </trkpt>
      <trkpt lat="43.3751" lon="3.53377">
        <ele>36.2</ele>
        <time>2025-06-17T10:54:17Z</time>
      </trkpt>
      <trkpt lat="43.37506" lon="3.53376">
        <ele>36.2</ele>
        <time>2025-06-17T10:54:18Z</time>
      </trkpt>
      <trkpt lat="43.37502" lon="3.53375">
        <ele>36.2</ele>
        <time>2025-06-17T10:54:19Z</time>
      </trkpt>
      <trkpt lat="43.37497" lon="3.53374">
        <ele>36.2</ele>
        <time>2025-06-17T10:54:20Z</time>
      </trkpt>
      <trkpt lat="43.37493" lon="3.53373">
        <ele>36.2</ele>
        <time>2025-06-17T10:54:21Z</time>
      </trkpt>
      <trkpt lat="43.37488" lon="3.53371">
        <ele>36.4</ele>
        <time>2025-06-17T10:54:22Z</time>
      </trkpt>
      <trkpt lat="43.37485" lon="3.53371">
        <ele>36.4</ele>
        <time>2025-06-17T10:54:23Z</time>
      </trkpt>
      <trkpt lat="43.3748" lon="3.53369">
        <ele>36.4</ele>
        <time>2025-06-17T10:54:24Z</time>
      </trkpt>
      <trkpt lat="43.37475" lon="3.53368">
        <ele>36.4</ele>
        <time>2025-06-17T10:54:25Z</time>
      </trkpt>
      <trkpt lat="43.37471" lon="3.53367">
        <ele>36.4</ele>
        <time>2025-06-17T10:54:26Z</time>
      </trkpt>
      <trkpt lat="43.37466" lon="3.53366">
        <ele>36.2</ele>
        <time>2025-06-17T10:54:27Z</time>
      </trkpt>
      <trkpt lat="43.37462" lon="3.53365">
        <ele>36.4</ele>
        <time>2025-06-17T10:54:28Z</time>
      </trkpt>
      <trkpt lat="43.37456" lon="3.53364">
        <ele>36.2</ele>
        <time>2025-06-17T10:54:29Z</time>
      </trkpt>
      <trkpt lat="43.37452" lon="3.53363">
        <ele>36.2</ele>
        <time>2025-06-17T10:54:30Z</time>
      </trkpt>
      <trkpt lat="43.37446" lon="3.53362">
        <ele>36.2</ele>
        <time>2025-06-17T10:54:31Z</time>
      </trkpt>
      <trkpt lat="43.37441" lon="3.5336">
        <ele>36</ele>
        <time>2025-06-17T10:54:32Z</time>
      </trkpt>
      <trkpt lat="43.37435" lon="3.53359">
        <ele>36</ele>
        <time>2025-06-17T10:54:33Z</time>
      </trkpt>
      <trkpt lat="43.37429" lon="3.53357">
        <ele>35.8</ele>
        <time>2025-06-17T10:54:34Z</time>
      </trkpt>
      <trkpt lat="43.37423" lon="3.53356">
        <ele>35.6</ele>
        <time>2025-06-17T10:54:35Z</time>
      </trkpt>
      <trkpt lat="43.37417" lon="3.53354">
        <ele>35.6</ele>
        <time>2025-06-17T10:54:36Z</time>
      </trkpt>
      <trkpt lat="43.37411" lon="3.53352">
        <ele>35.4</ele>
        <time>2025-06-17T10:54:37Z</time>
      </trkpt>
      <trkpt lat="43.37404" lon="3.53351">
        <ele>35.2</ele>
        <time>2025-06-17T10:54:38Z</time>
      </trkpt>
      <trkpt lat="43.37398" lon="3.53349">
        <ele>35.2</ele>
        <time>2025-06-17T10:54:39Z</time>
      </trkpt>
      <trkpt lat="43.37392" lon="3.53348">
        <ele>35</ele>
        <time>2025-06-17T10:54:40Z</time>
      </trkpt>
      <trkpt lat="43.37386" lon="3.53346">
        <ele>34.8</ele>
        <time>2025-06-17T10:54:41Z</time>
      </trkpt>
      <trkpt lat="43.37379" lon="3.53345">
        <ele>34.8</ele>
        <time>2025-06-17T10:54:42Z</time>
      </trkpt>
      <trkpt lat="43.37373" lon="3.53343">
        <ele>34.6</ele>
        <time>2025-06-17T10:54:43Z</time>
      </trkpt>
      <trkpt lat="43.37366" lon="3.53342">
        <ele>34.4</ele>
        <time>2025-06-17T10:54:44Z</time>
      </trkpt>
      <trkpt lat="43.3736" lon="3.5334">
        <ele>34.2</ele>
        <time>2025-06-17T10:54:45Z</time>
      </trkpt>
      <trkpt lat="43.37353" lon="3.53339">
        <ele>34.2</ele>
        <time>2025-06-17T10:54:46Z</time>
      </trkpt>
      <trkpt lat="43.37346" lon="3.53338">
        <ele>34</ele>
        <time>2025-06-17T10:54:47Z</time>
      </trkpt>
      <trkpt lat="43.37341" lon="3.53336">
        <ele>34</ele>
        <time>2025-06-17T10:54:48Z</time>
      </trkpt>
      <trkpt lat="43.37334" lon="3.53334">
        <ele>33.8</ele>
        <time>2025-06-17T10:54:49Z</time>
      </trkpt>
      <trkpt lat="43.37327" lon="3.53333">
        <ele>33.6</ele>
        <time>2025-06-17T10:54:50Z</time>
      </trkpt>
      <trkpt lat="43.3732" lon="3.53331">
        <ele>33.6</ele>
        <time>2025-06-17T10:54:51Z</time>
      </trkpt>
      <trkpt lat="43.37314" lon="3.53329">
        <ele>33.4</ele>
        <time>2025-06-17T10:54:52Z</time>
      </trkpt>
      <trkpt lat="43.37307" lon="3.53327">
        <ele>33.2</ele>
        <time>2025-06-17T10:54:53Z</time>
      </trkpt>
      <trkpt lat="43.373" lon="3.53325">
        <ele>33</ele>
        <time>2025-06-17T10:54:54Z</time>
      </trkpt>
      <trkpt lat="43.37293" lon="3.53323">
        <ele>32.8</ele>
        <time>2025-06-17T10:54:55Z</time>
      </trkpt>
      <trkpt lat="43.37286" lon="3.5332">
        <ele>32.4</ele>
        <time>2025-06-17T10:54:56Z</time>
      </trkpt>
      <trkpt lat="43.37278" lon="3.53318">
        <ele>32.2</ele>
        <time>2025-06-17T10:54:57Z</time>
      </trkpt>
      <trkpt lat="43.37273" lon="3.53316">
        <ele>32</ele>
        <time>2025-06-17T10:54:58Z</time>
      </trkpt>
      <trkpt lat="43.37264" lon="3.53313">
        <ele>31.6</ele>
        <time>2025-06-17T10:54:59Z</time>
      </trkpt>
      <trkpt lat="43.37258" lon="3.53311">
        <ele>31.4</ele>
        <time>2025-06-17T10:55:00Z</time>
      </trkpt>
      <trkpt lat="43.37249" lon="3.53308">
        <ele>31.2</ele>
        <time>2025-06-17T10:55:01Z</time>
      </trkpt>
      <trkpt lat="43.37241" lon="3.53306">
        <ele>30.8</ele>
        <time>2025-06-17T10:55:02Z</time>
      </trkpt>
      <trkpt lat="43.37233" lon="3.53303">
        <ele>30.4</ele>
        <time>2025-06-17T10:55:03Z</time>
      </trkpt>
      <trkpt lat="43.37226" lon="3.533">
        <ele>30.2</ele>
        <time>2025-06-17T10:55:04Z</time>
      </trkpt>
      <trkpt lat="43.37217" lon="3.53297">
        <ele>29.8</ele>
        <time>2025-06-17T10:55:05Z</time>
      </trkpt>
      <trkpt lat="43.3721" lon="3.53294">
        <ele>29.4</ele>
        <time>2025-06-17T10:55:06Z</time>
      </trkpt>
      <trkpt lat="43.37201" lon="3.53291">
        <ele>29.2</ele>
        <time>2025-06-17T10:55:07Z</time>
      </trkpt>
      <trkpt lat="43.37193" lon="3.53288">
        <ele>28.8</ele>
        <time>2025-06-17T10:55:08Z</time>
      </trkpt>
      <trkpt lat="43.37184" lon="3.53285">
        <ele>28.4</ele>
        <time>2025-06-17T10:55:09Z</time>
      </trkpt>
      <trkpt lat="43.37175" lon="3.53282">
        <ele>28</ele>
        <time>2025-06-17T10:55:10Z</time>
      </trkpt>
      <trkpt lat="43.37166" lon="3.53278">
        <ele>27.6</ele>
        <time>2025-06-17T10:55:11Z</time>
      </trkpt>
      <trkpt lat="43.37158" lon="3.53275">
        <ele>27.2</ele>
        <time>2025-06-17T10:55:12Z</time>
      </trkpt>
      <trkpt lat="43.37149" lon="3.53272">
        <ele>27</ele>
        <time>2025-06-17T10:55:13Z</time>
      </trkpt>
      <trkpt lat="43.3714" lon="3.53268">
        <ele>26.6</ele>
        <time>2025-06-17T10:55:14Z</time>
      </trkpt>
      <trkpt lat="43.37131" lon="3.53265">
        <ele>26.2</ele>
        <time>2025-06-17T10:55:15Z</time>
      </trkpt>
      <trkpt lat="43.37122" lon="3.53262">
        <ele>25.8</ele>
        <time>2025-06-17T10:55:16Z</time>
      </trkpt>
      <trkpt lat="43.37113" lon="3.53258">
        <ele>25.6</ele>
        <time>2025-06-17T10:55:17Z</time>
      </trkpt>
      <trkpt lat="43.37104" lon="3.53255">
        <ele>25.2</ele>
        <time>2025-06-17T10:55:18Z</time>
      </trkpt>
      <trkpt lat="43.37094" lon="3.53252">
        <ele>24.8</ele>
        <time>2025-06-17T10:55:19Z</time>
      </trkpt>
      <trkpt lat="43.37085" lon="3.53248">
        <ele>24.4</ele>
        <time>2025-06-17T10:55:20Z</time>
      </trkpt>
      <trkpt lat="43.37076" lon="3.53245">
        <ele>24.2</ele>
        <time>2025-06-17T10:55:21Z</time>
      </trkpt>
      <trkpt lat="43.37068" lon="3.53242">
        <ele>24</ele>
        <time>2025-06-17T10:55:22Z</time>
      </trkpt>
      <trkpt lat="43.37058" lon="3.53239">
        <ele>23.6</ele>
        <time>2025-06-17T10:55:23Z</time>
      </trkpt>
      <trkpt lat="43.37051" lon="3.53236">
        <ele>23.4</ele>
        <time>2025-06-17T10:55:24Z</time>
      </trkpt>
      <trkpt lat="43.37041" lon="3.53232">
        <ele>23</ele>
        <time>2025-06-17T10:55:25Z</time>
      </trkpt>
      <trkpt lat="43.37034" lon="3.53229">
        <ele>22.8</ele>
        <time>2025-06-17T10:55:26Z</time>
      </trkpt>
      <trkpt lat="43.37025" lon="3.53226">
        <ele>22.6</ele>
        <time>2025-06-17T10:55:27Z</time>
      </trkpt>
      <trkpt lat="43.37017" lon="3.53224">
        <ele>22.4</ele>
        <time>2025-06-17T10:55:28Z</time>
      </trkpt>
      <trkpt lat="43.37009" lon="3.53221">
        <ele>22.2</ele>
        <time>2025-06-17T10:55:29Z</time>
      </trkpt>
      <trkpt lat="43.37" lon="3.53218">
        <ele>22.2</ele>
        <time>2025-06-17T10:55:30Z</time>
      </trkpt>
      <trkpt lat="43.36992" lon="3.53215">
        <ele>22</ele>
        <time>2025-06-17T10:55:31Z</time>
      </trkpt>
      <trkpt lat="43.36985" lon="3.53212">
        <ele>21.8</ele>
        <time>2025-06-17T10:55:32Z</time>
      </trkpt>
      <trkpt lat="43.36976" lon="3.53209">
        <ele>21.8</ele>
        <time>2025-06-17T10:55:33Z</time>
      </trkpt>
      <trkpt lat="43.36968" lon="3.53205">
        <ele>21.8</ele>
        <time>2025-06-17T10:55:34Z</time>
      </trkpt>
      <trkpt lat="43.3696" lon="3.53203">
        <ele>21.6</ele>
        <time>2025-06-17T10:55:35Z</time>
      </trkpt>
      <trkpt lat="43.36953" lon="3.532">
        <ele>21.6</ele>
        <time>2025-06-17T10:55:36Z</time>
      </trkpt>
      <trkpt lat="43.36945" lon="3.53197">
        <ele>21.6</ele>
        <time>2025-06-17T10:55:37Z</time>
      </trkpt>
      <trkpt lat="43.36938" lon="3.53195">
        <ele>21.4</ele>
        <time>2025-06-17T10:55:38Z</time>
      </trkpt>
      <trkpt lat="43.36931" lon="3.53192">
        <ele>21.4</ele>
        <time>2025-06-17T10:55:39Z</time>
      </trkpt>
      <trkpt lat="43.36923" lon="3.53189">
        <ele>21.2</ele>
        <time>2025-06-17T10:55:40Z</time>
      </trkpt>
      <trkpt lat="43.36916" lon="3.53186">
        <ele>21.2</ele>
        <time>2025-06-17T10:55:41Z</time>
      </trkpt>
      <trkpt lat="43.36909" lon="3.53184">
        <ele>21.2</ele>
        <time>2025-06-17T10:55:42Z</time>
      </trkpt>
      <trkpt lat="43.36902" lon="3.53181">
        <ele>21.2</ele>
        <time>2025-06-17T10:55:43Z</time>
      </trkpt>
      <trkpt lat="43.36895" lon="3.53178">
        <ele>21.2</ele>
        <time>2025-06-17T10:55:44Z</time>
      </trkpt>
      <trkpt lat="43.36887" lon="3.53176">
        <ele>21</ele>
        <time>2025-06-17T10:55:45Z</time>
      </trkpt>
      <trkpt lat="43.3688" lon="3.53173">
        <ele>21</ele>
        <time>2025-06-17T10:55:46Z</time>
      </trkpt>
      <trkpt lat="43.36873" lon="3.53171">
        <ele>21.2</ele>
        <time>2025-06-17T10:55:47Z</time>
      </trkpt>
      <trkpt lat="43.36866" lon="3.53168">
        <ele>21.2</ele>
        <time>2025-06-17T10:55:48Z</time>
      </trkpt>
      <trkpt lat="43.36858" lon="3.53165">
        <ele>21.2</ele>
        <time>2025-06-17T10:55:49Z</time>
      </trkpt>
      <trkpt lat="43.36851" lon="3.53162">
        <ele>21.2</ele>
        <time>2025-06-17T10:55:50Z</time>
      </trkpt>
      <trkpt lat="43.36844" lon="3.5316">
        <ele>21.2</ele>
        <time>2025-06-17T10:55:51Z</time>
      </trkpt>
      <trkpt lat="43.36837" lon="3.53158">
        <ele>21.2</ele>
        <time>2025-06-17T10:55:52Z</time>
      </trkpt>
      <trkpt lat="43.36831" lon="3.53155">
        <ele>21.2</ele>
        <time>2025-06-17T10:55:53Z</time>
      </trkpt>
      <trkpt lat="43.36823" lon="3.53152">
        <ele>21.2</ele>
        <time>2025-06-17T10:55:54Z</time>
      </trkpt>
      <trkpt lat="43.36816" lon="3.5315">
        <ele>21</ele>
        <time>2025-06-17T10:55:55Z</time>
      </trkpt>
      <trkpt lat="43.36809" lon="3.53147">
        <ele>21</ele>
        <time>2025-06-17T10:55:56Z</time>
      </trkpt>
      <trkpt lat="43.36802" lon="3.53145">
        <ele>21</ele>
        <time>2025-06-17T10:55:57Z</time>
      </trkpt>
      <trkpt lat="43.36794" lon="3.53142">
        <ele>21</ele>
        <time>2025-06-17T10:55:58Z</time>
      </trkpt>
      <trkpt lat="43.36787" lon="3.53139">
        <ele>20.8</ele>
        <time>2025-06-17T10:55:59Z</time>
      </trkpt>
      <trkpt lat="43.3678" lon="3.53136">
        <ele>20.8</ele>
        <time>2025-06-17T10:56:00Z</time>
      </trkpt>
      <trkpt lat="43.36773" lon="3.53134">
        <ele>20.8</ele>
        <time>2025-06-17T10:56:01Z</time>
      </trkpt>
      <trkpt lat="43.36767" lon="3.53132">
        <ele>20.8</ele>
        <time>2025-06-17T10:56:02Z</time>
      </trkpt>
      <trkpt lat="43.3676" lon="3.53129">
        <ele>20.8</ele>
        <time>2025-06-17T10:56:03Z</time>
      </trkpt>
      <trkpt lat="43.36753" lon="3.53126">
        <ele>20.8</ele>
        <time>2025-06-17T10:56:04Z</time>
      </trkpt>
      <trkpt lat="43.36746" lon="3.53124">
        <ele>20.8</ele>
        <time>2025-06-17T10:56:05Z</time>
      </trkpt>
      <trkpt lat="43.3674" lon="3.53121">
        <ele>20.8</ele>
        <time>2025-06-17T10:56:06Z</time>
      </trkpt>
      <trkpt lat="43.36733" lon="3.53119">
        <ele>20.8</ele>
        <time>2025-06-17T10:56:07Z</time>
      </trkpt>
      <trkpt lat="43.36726" lon="3.53116">
        <ele>20.8</ele>
        <time>2025-06-17T10:56:08Z</time>
      </trkpt>
      <trkpt lat="43.3672" lon="3.53114">
        <ele>20.8</ele>
        <time>2025-06-17T10:56:09Z</time>
      </trkpt>
      <trkpt lat="43.36713" lon="3.53111">
        <ele>20.6</ele>
        <time>2025-06-17T10:56:10Z</time>
      </trkpt>
      <trkpt lat="43.36707" lon="3.53109">
        <ele>20.6</ele>
        <time>2025-06-17T10:56:11Z</time>
      </trkpt>
      <trkpt lat="43.36701" lon="3.53107">
        <ele>20.6</ele>
        <time>2025-06-17T10:56:12Z</time>
      </trkpt>
      <trkpt lat="43.36695" lon="3.53105">
        <ele>20.8</ele>
        <time>2025-06-17T10:56:13Z</time>
      </trkpt>
      <trkpt lat="43.36687" lon="3.53102">
        <ele>20.8</ele>
        <time>2025-06-17T10:56:14Z</time>
      </trkpt>
      <trkpt lat="43.36681" lon="3.53099">
        <ele>20.8</ele>
        <time>2025-06-17T10:56:15Z</time>
      </trkpt>
      <trkpt lat="43.36674" lon="3.53097">
        <ele>20.8</ele>
        <time>2025-06-17T10:56:16Z</time>
      </trkpt>
      <trkpt lat="43.36668" lon="3.53095">
        <ele>20.8</ele>
        <time>2025-06-17T10:56:17Z</time>
      </trkpt>
      <trkpt lat="43.36662" lon="3.53093">
        <ele>20.8</ele>
        <time>2025-06-17T10:56:18Z</time>
      </trkpt>
      <trkpt lat="43.36656" lon="3.5309">
        <ele>20.8</ele>
        <time>2025-06-17T10:56:19Z</time>
      </trkpt>
      <trkpt lat="43.36649" lon="3.53088">
        <ele>20.8</ele>
        <time>2025-06-17T10:56:20Z</time>
      </trkpt>
      <trkpt lat="43.36644" lon="3.53086">
        <ele>20.8</ele>
        <time>2025-06-17T10:56:21Z</time>
      </trkpt>
      <trkpt lat="43.36638" lon="3.53083">
        <ele>20.8</ele>
        <time>2025-06-17T10:56:22Z</time>
      </trkpt>
      <trkpt lat="43.36631" lon="3.53081">
        <ele>20.8</ele>
        <time>2025-06-17T10:56:23Z</time>
      </trkpt>
      <trkpt lat="43.36625" lon="3.53079">
        <ele>20.8</ele>
        <time>2025-06-17T10:56:24Z</time>
      </trkpt>
      <trkpt lat="43.36619" lon="3.53077">
        <ele>20.8</ele>
        <time>2025-06-17T10:56:25Z</time>
      </trkpt>
      <trkpt lat="43.36613" lon="3.53074">
        <ele>20.6</ele>
        <time>2025-06-17T10:56:26Z</time>
      </trkpt>
      <trkpt lat="43.36608" lon="3.53072">
        <ele>20.6</ele>
        <time>2025-06-17T10:56:27Z</time>
      </trkpt>
      <trkpt lat="43.36602" lon="3.53069">
        <ele>20.6</ele>
        <time>2025-06-17T10:56:28Z</time>
      </trkpt>
      <trkpt lat="43.36596" lon="3.53067">
        <ele>20.4</ele>
        <time>2025-06-17T10:56:29Z</time>
      </trkpt>
      <trkpt lat="43.3659" lon="3.53065">
        <ele>20.4</ele>
        <time>2025-06-17T10:56:30Z</time>
      </trkpt>
      <trkpt lat="43.36585" lon="3.53063">
        <ele>20.4</ele>
        <time>2025-06-17T10:56:31Z</time>
      </trkpt>
      <trkpt lat="43.36579" lon="3.53061">
        <ele>20.4</ele>
        <time>2025-06-17T10:56:32Z</time>
      </trkpt>
      <trkpt lat="43.36574" lon="3.53059">
        <ele>20.4</ele>
        <time>2025-06-17T10:56:33Z</time>
      </trkpt>
      <trkpt lat="43.36569" lon="3.53057">
        <ele>20.4</ele>
        <time>2025-06-17T10:56:34Z</time>
      </trkpt>
      <trkpt lat="43.36563" lon="3.53055">
        <ele>20.4</ele>
        <time>2025-06-17T10:56:35Z</time>
      </trkpt>
      <trkpt lat="43.36558" lon="3.53053">
        <ele>20.4</ele>
        <time>2025-06-17T10:56:36Z</time>
      </trkpt>
      <trkpt lat="43.36552" lon="3.53051">
        <ele>20.4</ele>
        <time>2025-06-17T10:56:37Z</time>
      </trkpt>
      <trkpt lat="43.36547" lon="3.53049">
        <ele>20.4</ele>
        <time>2025-06-17T10:56:38Z</time>
      </trkpt>
      <trkpt lat="43.36542" lon="3.53047">
        <ele>20.4</ele>
        <time>2025-06-17T10:56:39Z</time>
      </trkpt>
      <trkpt lat="43.36538" lon="3.53046">
        <ele>20.4</ele>
        <time>2025-06-17T10:56:40Z</time>
      </trkpt>
      <trkpt lat="43.36532" lon="3.53045">
        <ele>20.6</ele>
        <time>2025-06-17T10:56:41Z</time>
      </trkpt>
      <trkpt lat="43.36527" lon="3.53044">
        <ele>20.6</ele>
        <time>2025-06-17T10:56:42Z</time>
      </trkpt>
      <trkpt lat="43.36522" lon="3.53043">
        <ele>20.6</ele>
        <time>2025-06-17T10:56:43Z</time>
      </trkpt>
      <trkpt lat="43.36517" lon="3.53042">
        <ele>20.6</ele>
        <time>2025-06-17T10:56:44Z</time>
      </trkpt>
      <trkpt lat="43.36512" lon="3.53041">
        <ele>20.6</ele>
        <time>2025-06-17T10:56:45Z</time>
      </trkpt>
      <trkpt lat="43.36507" lon="3.5304">
        <ele>20.6</ele>
        <time>2025-06-17T10:56:46Z</time>
      </trkpt>
      <trkpt lat="43.36502" lon="3.53039">
        <ele>20.6</ele>
        <time>2025-06-17T10:56:47Z</time>
      </trkpt>
      <trkpt lat="43.36497" lon="3.53039">
        <ele>20.6</ele>
        <time>2025-06-17T10:56:48Z</time>
      </trkpt>
      <trkpt lat="43.36492" lon="3.53039">
        <ele>20.6</ele>
        <time>2025-06-17T10:56:49Z</time>
      </trkpt>
      <trkpt lat="43.36487" lon="3.53039">
        <ele>20.6</ele>
        <time>2025-06-17T10:56:50Z</time>
      </trkpt>
      <trkpt lat="43.36482" lon="3.53039">
        <ele>20.6</ele>
        <time>2025-06-17T10:56:51Z</time>
      </trkpt>
      <trkpt lat="43.36477" lon="3.53039">
        <ele>20.6</ele>
        <time>2025-06-17T10:56:52Z</time>
      </trkpt>
      <trkpt lat="43.36471" lon="3.53039">
        <ele>20.6</ele>
        <time>2025-06-17T10:56:53Z</time>
      </trkpt>
      <trkpt lat="43.36466" lon="3.5304">
        <ele>20.6</ele>
        <time>2025-06-17T10:56:54Z</time>
      </trkpt>
      <trkpt lat="43.3646" lon="3.5304">
        <ele>20.6</ele>
        <time>2025-06-17T10:56:55Z</time>
      </trkpt>
      <trkpt lat="43.36455" lon="3.53041">
        <ele>20.6</ele>
        <time>2025-06-17T10:56:56Z</time>
      </trkpt>
      <trkpt lat="43.36449" lon="3.53041">
        <ele>20.6</ele>
        <time>2025-06-17T10:56:57Z</time>
      </trkpt>
      <trkpt lat="43.36444" lon="3.53041">
        <ele>20.6</ele>
        <time>2025-06-17T10:56:58Z</time>
      </trkpt>
      <trkpt lat="43.36439" lon="3.53041">
        <ele>20.6</ele>
        <time>2025-06-17T10:56:59Z</time>
      </trkpt>
      <trkpt lat="43.36434" lon="3.53042">
        <ele>20.6</ele>
        <time>2025-06-17T10:57:00Z</time>
      </trkpt>
      <trkpt lat="43.36429" lon="3.53042">
        <ele>20.6</ele>
        <time>2025-06-17T10:57:01Z</time>
      </trkpt>
      <trkpt lat="43.36424" lon="3.53043">
        <ele>20.8</ele>
        <time>2025-06-17T10:57:02Z</time>
      </trkpt>
      <trkpt lat="43.36418" lon="3.53043">
        <ele>20.8</ele>
        <time>2025-06-17T10:57:03Z</time>
      </trkpt>
      <trkpt lat="43.36415" lon="3.53043">
        <ele>20.8</ele>
        <time>2025-06-17T10:57:04Z</time>
      </trkpt>
      <trkpt lat="43.36409" lon="3.53044">
        <ele>20.8</ele>
        <time>2025-06-17T10:57:05Z</time>
      </trkpt>
      <trkpt lat="43.36403" lon="3.53044">
        <ele>21</ele>
        <time>2025-06-17T10:57:06Z</time>
      </trkpt>
      <trkpt lat="43.36398" lon="3.53044">
        <ele>21</ele>
        <time>2025-06-17T10:57:07Z</time>
      </trkpt>
      <trkpt lat="43.36393" lon="3.53044">
        <ele>21</ele>
        <time>2025-06-17T10:57:08Z</time>
      </trkpt>
      <trkpt lat="43.36388" lon="3.53045">
        <ele>21</ele>
        <time>2025-06-17T10:57:09Z</time>
      </trkpt>
      <trkpt lat="43.36382" lon="3.53045">
        <ele>21</ele>
        <time>2025-06-17T10:57:10Z</time>
      </trkpt>
      <trkpt lat="43.36377" lon="3.53046">
        <ele>21</ele>
        <time>2025-06-17T10:57:11Z</time>
      </trkpt>
      <trkpt lat="43.36373" lon="3.53046">
        <ele>21</ele>
        <time>2025-06-17T10:57:12Z</time>
      </trkpt>
      <trkpt lat="43.36367" lon="3.53046">
        <ele>21.2</ele>
        <time>2025-06-17T10:57:13Z</time>
      </trkpt>
      <trkpt lat="43.36362" lon="3.53046">
        <ele>21.2</ele>
        <time>2025-06-17T10:57:14Z</time>
      </trkpt>
      <trkpt lat="43.36357" lon="3.53046">
        <ele>21.2</ele>
        <time>2025-06-17T10:57:15Z</time>
      </trkpt>
      <trkpt lat="43.36352" lon="3.53047">
        <ele>21.2</ele>
        <time>2025-06-17T10:57:16Z</time>
      </trkpt>
      <trkpt lat="43.36347" lon="3.53047">
        <ele>21.2</ele>
        <time>2025-06-17T10:57:17Z</time>
      </trkpt>
      <trkpt lat="43.36341" lon="3.53047">
        <ele>21.2</ele>
        <time>2025-06-17T10:57:18Z</time>
      </trkpt>
      <trkpt lat="43.36336" lon="3.53047">
        <ele>21.4</ele>
        <time>2025-06-17T10:57:19Z</time>
      </trkpt>
      <trkpt lat="43.36331" lon="3.53048">
        <ele>21.4</ele>
        <time>2025-06-17T10:57:20Z</time>
      </trkpt>
      <trkpt lat="43.36326" lon="3.53048">
        <ele>21.6</ele>
        <time>2025-06-17T10:57:21Z</time>
      </trkpt>
      <trkpt lat="43.36321" lon="3.53048">
        <ele>21.6</ele>
        <time>2025-06-17T10:57:22Z</time>
      </trkpt>
      <trkpt lat="43.36316" lon="3.53049">
        <ele>21.6</ele>
        <time>2025-06-17T10:57:23Z</time>
      </trkpt>
      <trkpt lat="43.36311" lon="3.53049">
        <ele>22</ele>
        <time>2025-06-17T10:57:24Z</time>
      </trkpt>
      <trkpt lat="43.36306" lon="3.53049">
        <ele>22.4</ele>
        <time>2025-06-17T10:57:25Z</time>
      </trkpt>
      <trkpt lat="43.36301" lon="3.53049">
        <ele>22.4</ele>
        <time>2025-06-17T10:57:26Z</time>
      </trkpt>
      <trkpt lat="43.36297" lon="3.5305">
        <ele>22.6</ele>
        <time>2025-06-17T10:57:27Z</time>
      </trkpt>
      <trkpt lat="43.36292" lon="3.5305">
        <ele>22.6</ele>
        <time>2025-06-17T10:57:28Z</time>
      </trkpt>
      <trkpt lat="43.36287" lon="3.5305">
        <ele>22.8</ele>
        <time>2025-06-17T10:57:29Z</time>
      </trkpt>
      <trkpt lat="43.36283" lon="3.53051">
        <ele>22.8</ele>
        <time>2025-06-17T10:57:30Z</time>
      </trkpt>
      <trkpt lat="43.3628" lon="3.53051">
        <ele>23</ele>
        <time>2025-06-17T10:57:31Z</time>
      </trkpt>
      <trkpt lat="43.36275" lon="3.53051">
        <ele>23</ele>
        <time>2025-06-17T10:57:32Z</time>
      </trkpt>
      <trkpt lat="43.36271" lon="3.53051">
        <ele>23.2</ele>
        <time>2025-06-17T10:57:33Z</time>
      </trkpt>
      <trkpt lat="43.36267" lon="3.53051">
        <ele>23.4</ele>
        <time>2025-06-17T10:57:34Z</time>
      </trkpt>
      <trkpt lat="43.36264" lon="3.53051">
        <ele>23.6</ele>
        <time>2025-06-17T10:57:35Z</time>
      </trkpt>
      <trkpt lat="43.3626" lon="3.53051">
        <ele>23.8</ele>
        <time>2025-06-17T10:57:36Z</time>
      </trkpt>
      <trkpt lat="43.36256" lon="3.53052">
        <ele>23.8</ele>
        <time>2025-06-17T10:57:37Z</time>
      </trkpt>
      <trkpt lat="43.36252" lon="3.53052">
        <ele>24</ele>
        <time>2025-06-17T10:57:38Z</time>
      </trkpt>
      <trkpt lat="43.36249" lon="3.53052">
        <ele>24.2</ele>
        <time>2025-06-17T10:57:39Z</time>
      </trkpt>
      <trkpt lat="43.36245" lon="3.53052">
        <ele>24.4</ele>
        <time>2025-06-17T10:57:40Z</time>
      </trkpt>
      <trkpt lat="43.36242" lon="3.53052">
        <ele>24.6</ele>
        <time>2025-06-17T10:57:41Z</time>
      </trkpt>
      <trkpt lat="43.36238" lon="3.53052">
        <ele>24.6</ele>
        <time>2025-06-17T10:57:42Z</time>
      </trkpt>
      <trkpt lat="43.36234" lon="3.53053">
        <ele>24.8</ele>
        <time>2025-06-17T10:57:43Z</time>
      </trkpt>
      <trkpt lat="43.36231" lon="3.53053">
        <ele>25</ele>
        <time>2025-06-17T10:57:44Z</time>
      </trkpt>
      <trkpt lat="43.36227" lon="3.53053">
        <ele>25.2</ele>
        <time>2025-06-17T10:57:45Z</time>
      </trkpt>
      <trkpt lat="43.36223" lon="3.53053">
        <ele>25.4</ele>
        <time>2025-06-17T10:57:46Z</time>
      </trkpt>
      <trkpt lat="43.3622" lon="3.53053">
        <ele>25.4</ele>
        <time>2025-06-17T10:57:47Z</time>
      </trkpt>
      <trkpt lat="43.36217" lon="3.53054">
        <ele>25.6</ele>
        <time>2025-06-17T10:57:48Z</time>
      </trkpt>
      <trkpt lat="43.36213" lon="3.53054">
        <ele>25.6</ele>
        <time>2025-06-17T10:57:49Z</time>
      </trkpt>
      <trkpt lat="43.36209" lon="3.53054">
        <ele>25.8</ele>
        <time>2025-06-17T10:57:50Z</time>
      </trkpt>
      <trkpt lat="43.36206" lon="3.53054">
        <ele>26</ele>
        <time>2025-06-17T10:57:51Z</time>
      </trkpt>
      <trkpt lat="43.36203" lon="3.53055">
        <ele>26</ele>
        <time>2025-06-17T10:57:52Z</time>
      </trkpt>
      <trkpt lat="43.36199" lon="3.53055">
        <ele>26.2</ele>
        <time>2025-06-17T10:57:53Z</time>
      </trkpt>
      <trkpt lat="43.36196" lon="3.53055">
        <ele>26.4</ele>
        <time>2025-06-17T10:57:54Z</time>
      </trkpt>
      <trkpt lat="43.36193" lon="3.53055">
        <ele>26.6</ele>
        <time>2025-06-17T10:57:55Z</time>
      </trkpt>
      <trkpt lat="43.3619" lon="3.53055">
        <ele>26.6</ele>
        <time>2025-06-17T10:57:56Z</time>
      </trkpt>
      <trkpt lat="43.36187" lon="3.53056">
        <ele>26.8</ele>
        <time>2025-06-17T10:57:57Z</time>
      </trkpt>
      <trkpt lat="43.36184" lon="3.53056">
        <ele>27</ele>
        <time>2025-06-17T10:57:58Z</time>
      </trkpt>
      <trkpt lat="43.36181" lon="3.53056">
        <ele>27.2</ele>
        <time>2025-06-17T10:57:59Z</time>
      </trkpt>
      <trkpt lat="43.36178" lon="3.53056">
        <ele>27.4</ele>
        <time>2025-06-17T10:58:00Z</time>
      </trkpt>
      <trkpt lat="43.36175" lon="3.53056">
        <ele>27.4</ele>
        <time>2025-06-17T10:58:01Z</time>
      </trkpt>
      <trkpt lat="43.36172" lon="3.53056">
        <ele>27.6</ele>
        <time>2025-06-17T10:58:02Z</time>
      </trkpt>
      <trkpt lat="43.36169" lon="3.53056">
        <ele>27.8</ele>
        <time>2025-06-17T10:58:03Z</time>
      </trkpt>
      <trkpt lat="43.36167" lon="3.53056">
        <ele>28</ele>
        <time>2025-06-17T10:58:04Z</time>
      </trkpt>
      <trkpt lat="43.36164" lon="3.53056">
        <ele>28.2</ele>
        <time>2025-06-17T10:58:05Z</time>
      </trkpt>
      <trkpt lat="43.36161" lon="3.53056">
        <ele>28.2</ele>
        <time>2025-06-17T10:58:06Z</time>
      </trkpt>
      <trkpt lat="43.36158" lon="3.53056">
        <ele>28.4</ele>
        <time>2025-06-17T10:58:07Z</time>
      </trkpt>
      <trkpt lat="43.36155" lon="3.53056">
        <ele>28.6</ele>
        <time>2025-06-17T10:58:08Z</time>
      </trkpt>
      <trkpt lat="43.36153" lon="3.53056">
        <ele>28.6</ele>
        <time>2025-06-17T10:58:09Z</time>
      </trkpt>
      <trkpt lat="43.3615" lon="3.53056">
        <ele>28.6</ele>
        <time>2025-06-17T10:58:10Z</time>
      </trkpt>
      <trkpt lat="43.36147" lon="3.53056">
        <ele>28.8</ele>
        <time>2025-06-17T10:58:11Z</time>
      </trkpt>
      <trkpt lat="43.36144" lon="3.53056">
        <ele>29</ele>
        <time>2025-06-17T10:58:12Z</time>
      </trkpt>
      <trkpt lat="43.36141" lon="3.53056">
        <ele>29.2</ele>
        <time>2025-06-17T10:58:13Z</time>
      </trkpt>
      <trkpt lat="43.36138" lon="3.53057">
        <ele>29.2</ele>
        <time>2025-06-17T10:58:14Z</time>
      </trkpt>
      <trkpt lat="43.36136" lon="3.53057">
        <ele>29.4</ele>
        <time>2025-06-17T10:58:15Z</time>
      </trkpt>
      <trkpt lat="43.36133" lon="3.53057">
        <ele>29.6</ele>
        <time>2025-06-17T10:58:16Z</time>
      </trkpt>
      <trkpt lat="43.3613" lon="3.53057">
        <ele>29.8</ele>
        <time>2025-06-17T10:58:17Z</time>
      </trkpt>
      <trkpt lat="43.36127" lon="3.53057">
        <ele>29.8</ele>
        <time>2025-06-17T10:58:18Z</time>
      </trkpt>
      <trkpt lat="43.36124" lon="3.53057">
        <ele>30</ele>
        <time>2025-06-17T10:58:19Z</time>
      </trkpt>
      <trkpt lat="43.36121" lon="3.53057">
        <ele>30</ele>
        <time>2025-06-17T10:58:20Z</time>
      </trkpt>
      <trkpt lat="43.36117" lon="3.53057">
        <ele>30.2</ele>
        <time>2025-06-17T10:58:21Z</time>
      </trkpt>
      <trkpt lat="43.36114" lon="3.53057">
        <ele>30.2</ele>
        <time>2025-06-17T10:58:22Z</time>
      </trkpt>
      <trkpt lat="43.36111" lon="3.53057">
        <ele>30.2</ele>
        <time>2025-06-17T10:58:23Z</time>
      </trkpt>
      <trkpt lat="43.36107" lon="3.53057">
        <ele>30.2</ele>
        <time>2025-06-17T10:58:24Z</time>
      </trkpt>
      <trkpt lat="43.36104" lon="3.53056">
        <ele>30.4</ele>
        <time>2025-06-17T10:58:25Z</time>
      </trkpt>
      <trkpt lat="43.361" lon="3.53056">
        <ele>30.4</ele>
        <time>2025-06-17T10:58:26Z</time>
      </trkpt>
      <trkpt lat="43.36096" lon="3.53056">
        <ele>30.4</ele>
        <time>2025-06-17T10:58:27Z</time>
      </trkpt>
      <trkpt lat="43.36092" lon="3.53056">
        <ele>30.4</ele>
        <time>2025-06-17T10:58:28Z</time>
      </trkpt>
      <trkpt lat="43.36088" lon="3.53055">
        <ele>30.4</ele>
        <time>2025-06-17T10:58:29Z</time>
      </trkpt>
      <trkpt lat="43.36084" lon="3.53055">
        <ele>30.4</ele>
        <time>2025-06-17T10:58:30Z</time>
      </trkpt>
      <trkpt lat="43.36079" lon="3.53055">
        <ele>30.4</ele>
        <time>2025-06-17T10:58:31Z</time>
      </trkpt>
      <trkpt lat="43.36075" lon="3.53054">
        <ele>30.4</ele>
        <time>2025-06-17T10:58:32Z</time>
      </trkpt>
      <trkpt lat="43.36071" lon="3.53053">
        <ele>30.4</ele>
        <time>2025-06-17T10:58:33Z</time>
      </trkpt>
      <trkpt lat="43.36066" lon="3.53051">
        <ele>30.4</ele>
        <time>2025-06-17T10:58:34Z</time>
      </trkpt>
      <trkpt lat="43.36062" lon="3.5305">
        <ele>30.4</ele>
        <time>2025-06-17T10:58:35Z</time>
      </trkpt>
      <trkpt lat="43.36057" lon="3.53049">
        <ele>30.4</ele>
        <time>2025-06-17T10:58:36Z</time>
      </trkpt>
      <trkpt lat="43.36052" lon="3.53048">
        <ele>30.4</ele>
        <time>2025-06-17T10:58:37Z</time>
      </trkpt>
      <trkpt lat="43.36047" lon="3.53047">
        <ele>30.4</ele>
        <time>2025-06-17T10:58:38Z</time>
      </trkpt>
      <trkpt lat="43.36042" lon="3.53046">
        <ele>30.4</ele>
        <time>2025-06-17T10:58:39Z</time>
      </trkpt>
      <trkpt lat="43.36037" lon="3.53045">
        <ele>30.4</ele>
        <time>2025-06-17T10:58:40Z</time>
      </trkpt>
      <trkpt lat="43.36032" lon="3.53044">
        <ele>30.4</ele>
        <time>2025-06-17T10:58:41Z</time>
      </trkpt>
      <trkpt lat="43.36027" lon="3.53042">
        <ele>30.4</ele>
        <time>2025-06-17T10:58:42Z</time>
      </trkpt>
      <trkpt lat="43.36021" lon="3.53041">
        <ele>30.2</ele>
        <time>2025-06-17T10:58:43Z</time>
      </trkpt>
      <trkpt lat="43.36016" lon="3.53041">
        <ele>30.2</ele>
        <time>2025-06-17T10:58:44Z</time>
      </trkpt>
      <trkpt lat="43.36011" lon="3.5304">
        <ele>30.2</ele>
        <time>2025-06-17T10:58:45Z</time>
      </trkpt>
      <trkpt lat="43.36006" lon="3.53038">
        <ele>30.2</ele>
        <time>2025-06-17T10:58:46Z</time>
      </trkpt>
      <trkpt lat="43.36" lon="3.53037">
        <ele>30.2</ele>
        <time>2025-06-17T10:58:47Z</time>
      </trkpt>
      <trkpt lat="43.35995" lon="3.53036">
        <ele>30.2</ele>
        <time>2025-06-17T10:58:48Z</time>
      </trkpt>
      <trkpt lat="43.35989" lon="3.53035">
        <ele>30.2</ele>
        <time>2025-06-17T10:58:49Z</time>
      </trkpt>
      <trkpt lat="43.35984" lon="3.53034">
        <ele>30</ele>
        <time>2025-06-17T10:58:50Z</time>
      </trkpt>
      <trkpt lat="43.35978" lon="3.53033">
        <ele>30</ele>
        <time>2025-06-17T10:58:51Z</time>
      </trkpt>
      <trkpt lat="43.35972" lon="3.53032">
        <ele>29.8</ele>
        <time>2025-06-17T10:58:52Z</time>
      </trkpt>
      <trkpt lat="43.35966" lon="3.53031">
        <ele>29.6</ele>
        <time>2025-06-17T10:58:53Z</time>
      </trkpt>
      <trkpt lat="43.3596" lon="3.5303">
        <ele>29.4</ele>
        <time>2025-06-17T10:58:54Z</time>
      </trkpt>
      <trkpt lat="43.35953" lon="3.53029">
        <ele>29.2</ele>
        <time>2025-06-17T10:58:55Z</time>
      </trkpt>
      <trkpt lat="43.35946" lon="3.53028">
        <ele>29</ele>
        <time>2025-06-17T10:58:56Z</time>
      </trkpt>
      <trkpt lat="43.3594" lon="3.53027">
        <ele>28.8</ele>
        <time>2025-06-17T10:58:57Z</time>
      </trkpt>
      <trkpt lat="43.35933" lon="3.53025">
        <ele>28.6</ele>
        <time>2025-06-17T10:58:58Z</time>
      </trkpt>
      <trkpt lat="43.35926" lon="3.53022">
        <ele>28.4</ele>
        <time>2025-06-17T10:58:59Z</time>
      </trkpt>
      <trkpt lat="43.3592" lon="3.53019">
        <ele>28.2</ele>
        <time>2025-06-17T10:59:00Z</time>
      </trkpt>
      <trkpt lat="43.35914" lon="3.53016">
        <ele>28</ele>
        <time>2025-06-17T10:59:01Z</time>
      </trkpt>
      <trkpt lat="43.35907" lon="3.53012">
        <ele>28</ele>
        <time>2025-06-17T10:59:02Z</time>
      </trkpt>
      <trkpt lat="43.35901" lon="3.53008">
        <ele>27.8</ele>
        <time>2025-06-17T10:59:03Z</time>
      </trkpt>
      <trkpt lat="43.35894" lon="3.53004">
        <ele>27.4</ele>
        <time>2025-06-17T10:59:04Z</time>
      </trkpt>
      <trkpt lat="43.35887" lon="3.53">
        <ele>27</ele>
        <time>2025-06-17T10:59:05Z</time>
      </trkpt>
      <trkpt lat="43.3588" lon="3.52996">
        <ele>26.8</ele>
        <time>2025-06-17T10:59:06Z</time>
      </trkpt>
      <trkpt lat="43.35873" lon="3.52991">
        <ele>26.4</ele>
        <time>2025-06-17T10:59:07Z</time>
      </trkpt>
      <trkpt lat="43.35866" lon="3.52986">
        <ele>26.2</ele>
        <time>2025-06-17T10:59:08Z</time>
      </trkpt>
      <trkpt lat="43.35859" lon="3.52982">
        <ele>25.8</ele>
        <time>2025-06-17T10:59:09Z</time>
      </trkpt>
      <trkpt lat="43.35851" lon="3.52977">
        <ele>25.6</ele>
        <time>2025-06-17T10:59:10Z</time>
      </trkpt>
      <trkpt lat="43.35844" lon="3.52974">
        <ele>25.2</ele>
        <time>2025-06-17T10:59:11Z</time>
      </trkpt>
      <trkpt lat="43.35836" lon="3.5297">
        <ele>24.8</ele>
        <time>2025-06-17T10:59:12Z</time>
      </trkpt>
      <trkpt lat="43.35828" lon="3.52966">
        <ele>24.6</ele>
        <time>2025-06-17T10:59:13Z</time>
      </trkpt>
      <trkpt lat="43.3582" lon="3.52962">
        <ele>24.2</ele>
        <time>2025-06-17T10:59:14Z</time>
      </trkpt>
      <trkpt lat="43.35813" lon="3.52957">
        <ele>24</ele>
        <time>2025-06-17T10:59:15Z</time>
      </trkpt>
      <trkpt lat="43.35806" lon="3.52954">
        <ele>23.8</ele>
        <time>2025-06-17T10:59:16Z</time>
      </trkpt>
      <trkpt lat="43.358" lon="3.52952">
        <ele>23.6</ele>
        <time>2025-06-17T10:59:17Z</time>
      </trkpt>
      <trkpt lat="43.35793" lon="3.52951">
        <ele>23.4</ele>
        <time>2025-06-17T10:59:18Z</time>
      </trkpt>
      <trkpt lat="43.35786" lon="3.5295">
        <ele>23.2</ele>
        <time>2025-06-17T10:59:19Z</time>
      </trkpt>
      <trkpt lat="43.35781" lon="3.5295">
        <ele>23.2</ele>
        <time>2025-06-17T10:59:20Z</time>
      </trkpt>
      <trkpt lat="43.35775" lon="3.52953">
        <ele>23.2</ele>
        <time>2025-06-17T10:59:21Z</time>
      </trkpt>
      <trkpt lat="43.35771" lon="3.52957">
        <ele>23.2</ele>
        <time>2025-06-17T10:59:22Z</time>
      </trkpt>
      <trkpt lat="43.35768" lon="3.52962">
        <ele>23</ele>
        <time>2025-06-17T10:59:23Z</time>
      </trkpt>
      <trkpt lat="43.35765" lon="3.52968">
        <ele>23</ele>
        <time>2025-06-17T10:59:24Z</time>
      </trkpt>
      <trkpt lat="43.35762" lon="3.52975">
        <ele>23</ele>
        <time>2025-06-17T10:59:25Z</time>
      </trkpt>
      <trkpt lat="43.35759" lon="3.52982">
        <ele>22.8</ele>
        <time>2025-06-17T10:59:26Z</time>
      </trkpt>
      <trkpt lat="43.35756" lon="3.5299">
        <ele>22.8</ele>
        <time>2025-06-17T10:59:27Z</time>
      </trkpt>
      <trkpt lat="43.35752" lon="3.52997">
        <ele>22.8</ele>
        <time>2025-06-17T10:59:28Z</time>
      </trkpt>
      <trkpt lat="43.3575" lon="3.53004">
        <ele>22.8</ele>
        <time>2025-06-17T10:59:29Z</time>
      </trkpt>
      <trkpt lat="43.35747" lon="3.53012">
        <ele>22.6</ele>
        <time>2025-06-17T10:59:30Z</time>
      </trkpt>
      <trkpt lat="43.35744" lon="3.5302">
        <ele>22.6</ele>
        <time>2025-06-17T10:59:31Z</time>
      </trkpt>
      <trkpt lat="43.35741" lon="3.53027">
        <ele>22.6</ele>
        <time>2025-06-17T10:59:32Z</time>
      </trkpt>
      <trkpt lat="43.35738" lon="3.53033">
        <ele>22.6</ele>
        <time>2025-06-17T10:59:33Z</time>
      </trkpt>
      <trkpt lat="43.35733" lon="3.53039">
        <ele>22.4</ele>
        <time>2025-06-17T10:59:34Z</time>
      </trkpt>
      <trkpt lat="43.35728" lon="3.53043">
        <ele>22.4</ele>
        <time>2025-06-17T10:59:35Z</time>
      </trkpt>
      <trkpt lat="43.35723" lon="3.53045">
        <ele>22.2</ele>
        <time>2025-06-17T10:59:36Z</time>
      </trkpt>
      <trkpt lat="43.35717" lon="3.53045">
        <ele>22.2</ele>
        <time>2025-06-17T10:59:37Z</time>
      </trkpt>
      <trkpt lat="43.35712" lon="3.53043">
        <ele>22</ele>
        <time>2025-06-17T10:59:38Z</time>
      </trkpt>
      <trkpt lat="43.35706" lon="3.53041">
        <ele>21.8</ele>
        <time>2025-06-17T10:59:39Z</time>
      </trkpt>
      <trkpt lat="43.357" lon="3.53038">
        <ele>21.8</ele>
        <time>2025-06-17T10:59:40Z</time>
      </trkpt>
      <trkpt lat="43.35694" lon="3.53036">
        <ele>21.6</ele>
        <time>2025-06-17T10:59:41Z</time>
      </trkpt>
      <trkpt lat="43.35687" lon="3.53034">
        <ele>21.6</ele>
        <time>2025-06-17T10:59:42Z</time>
      </trkpt>
      <trkpt lat="43.35681" lon="3.53031">
        <ele>21.6</ele>
        <time>2025-06-17T10:59:43Z</time>
      </trkpt>
      <trkpt lat="43.35675" lon="3.53029">
        <ele>21.4</ele>
        <time>2025-06-17T10:59:44Z</time>
      </trkpt>
      <trkpt lat="43.3567" lon="3.53027">
        <ele>21.4</ele>
        <time>2025-06-17T10:59:45Z</time>
      </trkpt>
      <trkpt lat="43.35662" lon="3.53024">
        <ele>21.2</ele>
        <time>2025-06-17T10:59:46Z</time>
      </trkpt>
      <trkpt lat="43.35656" lon="3.53022">
        <ele>21.2</ele>
        <time>2025-06-17T10:59:47Z</time>
      </trkpt>
      <trkpt lat="43.35649" lon="3.5302">
        <ele>21</ele>
        <time>2025-06-17T10:59:48Z</time>
      </trkpt>
      <trkpt lat="43.35642" lon="3.53018">
        <ele>21</ele>
        <time>2025-06-17T10:59:49Z</time>
      </trkpt>
      <trkpt lat="43.35636" lon="3.53016">
        <ele>20.8</ele>
        <time>2025-06-17T10:59:50Z</time>
      </trkpt>
      <trkpt lat="43.3563" lon="3.53014">
        <ele>20.8</ele>
        <time>2025-06-17T10:59:51Z</time>
      </trkpt>
      <trkpt lat="43.35624" lon="3.53011">
        <ele>20.6</ele>
        <time>2025-06-17T10:59:52Z</time>
      </trkpt>
      <trkpt lat="43.35617" lon="3.53009">
        <ele>20.6</ele>
        <time>2025-06-17T10:59:53Z</time>
      </trkpt>
      <trkpt lat="43.35611" lon="3.53006">
        <ele>20.4</ele>
        <time>2025-06-17T10:59:54Z</time>
      </trkpt>
      <trkpt lat="43.35605" lon="3.53004">
        <ele>20.4</ele>
        <time>2025-06-17T10:59:55Z</time>
      </trkpt>
      <trkpt lat="43.35599" lon="3.53002">
        <ele>20.4</ele>
        <time>2025-06-17T10:59:56Z</time>
      </trkpt>
      <trkpt lat="43.35592" lon="3.52999">
        <ele>20.2</ele>
        <time>2025-06-17T10:59:57Z</time>
      </trkpt>
      <trkpt lat="43.35586" lon="3.52997">
        <ele>20</ele>
        <time>2025-06-17T10:59:58Z</time>
      </trkpt>
      <trkpt lat="43.35579" lon="3.52994">
        <ele>20</ele>
        <time>2025-06-17T10:59:59Z</time>
      </trkpt>
      <trkpt lat="43.35572" lon="3.52992">
        <ele>20</ele>
        <time>2025-06-17T11:00:00Z</time>
      </trkpt>
      <trkpt lat="43.35566" lon="3.52991">
        <ele>20</ele>
        <time>2025-06-17T11:00:01Z</time>
      </trkpt>
      <trkpt lat="43.3556" lon="3.52989">
        <ele>19.8</ele>
        <time>2025-06-17T11:00:02Z</time>
      </trkpt>
      <trkpt lat="43.35554" lon="3.52987">
        <ele>19.8</ele>
        <time>2025-06-17T11:00:03Z</time>
      </trkpt>
      <trkpt lat="43.35548" lon="3.52985">
        <ele>19.8</ele>
        <time>2025-06-17T11:00:04Z</time>
      </trkpt>
      <trkpt lat="43.35542" lon="3.52983">
        <ele>19.8</ele>
        <time>2025-06-17T11:00:05Z</time>
      </trkpt>
      <trkpt lat="43.35536" lon="3.5298">
        <ele>19.6</ele>
        <time>2025-06-17T11:00:06Z</time>
      </trkpt>
      <trkpt lat="43.3553" lon="3.52978">
        <ele>19.6</ele>
        <time>2025-06-17T11:00:07Z</time>
      </trkpt>
      <trkpt lat="43.35524" lon="3.52976">
        <ele>19.6</ele>
        <time>2025-06-17T11:00:08Z</time>
      </trkpt>
      <trkpt lat="43.35518" lon="3.52973">
        <ele>19.6</ele>
        <time>2025-06-17T11:00:09Z</time>
      </trkpt>
      <trkpt lat="43.35512" lon="3.52971">
        <ele>19.6</ele>
        <time>2025-06-17T11:00:10Z</time>
      </trkpt>
      <trkpt lat="43.35506" lon="3.52968">
        <ele>19.6</ele>
        <time>2025-06-17T11:00:11Z</time>
      </trkpt>
      <trkpt lat="43.35499" lon="3.52965">
        <ele>19.6</ele>
        <time>2025-06-17T11:00:12Z</time>
      </trkpt>
      <trkpt lat="43.35493" lon="3.52962">
        <ele>19.6</ele>
        <time>2025-06-17T11:00:13Z</time>
      </trkpt>
      <trkpt lat="43.35487" lon="3.52958">
        <ele>19.4</ele>
        <time>2025-06-17T11:00:14Z</time>
      </trkpt>
      <trkpt lat="43.35481" lon="3.52954">
        <ele>19.4</ele>
        <time>2025-06-17T11:00:15Z</time>
      </trkpt>
      <trkpt lat="43.35476" lon="3.52949">
        <ele>19.4</ele>
        <time>2025-06-17T11:00:16Z</time>
      </trkpt>
      <trkpt lat="43.35471" lon="3.52945">
        <ele>19.4</ele>
        <time>2025-06-17T11:00:17Z</time>
      </trkpt>
      <trkpt lat="43.35467" lon="3.52942">
        <ele>19.6</ele>
        <time>2025-06-17T11:00:18Z</time>
      </trkpt>
      <trkpt lat="43.35462" lon="3.5294">
        <ele>19.6</ele>
        <time>2025-06-17T11:00:19Z</time>
      </trkpt>
      <trkpt lat="43.35457" lon="3.5294">
        <ele>19.6</ele>
        <time>2025-06-17T11:00:20Z</time>
      </trkpt>
      <trkpt lat="43.35453" lon="3.52941">
        <ele>19.6</ele>
        <time>2025-06-17T11:00:21Z</time>
      </trkpt>
      <trkpt lat="43.35449" lon="3.52945">
        <ele>19.6</ele>
        <time>2025-06-17T11:00:22Z</time>
      </trkpt>
      <trkpt lat="43.35446" lon="3.52951">
        <ele>19.6</ele>
        <time>2025-06-17T11:00:23Z</time>
      </trkpt>
      <trkpt lat="43.35443" lon="3.52957">
        <ele>19.6</ele>
        <time>2025-06-17T11:00:24Z</time>
      </trkpt>
      <trkpt lat="43.35441" lon="3.52964">
        <ele>19.6</ele>
        <time>2025-06-17T11:00:25Z</time>
      </trkpt>
      <trkpt lat="43.35439" lon="3.52971">
        <ele>19.6</ele>
        <time>2025-06-17T11:00:26Z</time>
      </trkpt>
      <trkpt lat="43.35437" lon="3.52978">
        <ele>19.6</ele>
        <time>2025-06-17T11:00:27Z</time>
      </trkpt>
      <trkpt lat="43.35435" lon="3.52985">
        <ele>19.6</ele>
        <time>2025-06-17T11:00:28Z</time>
      </trkpt>
      <trkpt lat="43.35433" lon="3.52992">
        <ele>19.6</ele>
        <time>2025-06-17T11:00:29Z</time>
      </trkpt>
      <trkpt lat="43.35431" lon="3.52999">
        <ele>19.6</ele>
        <time>2025-06-17T11:00:30Z</time>
      </trkpt>
      <trkpt lat="43.35428" lon="3.53006">
        <ele>19.6</ele>
        <time>2025-06-17T11:00:31Z</time>
      </trkpt>
      <trkpt lat="43.35426" lon="3.53013">
        <ele>19.6</ele>
        <time>2025-06-17T11:00:32Z</time>
      </trkpt>
      <trkpt lat="43.35425" lon="3.53019">
        <ele>19.4</ele>
        <time>2025-06-17T11:00:33Z</time>
      </trkpt>
      <trkpt lat="43.35423" lon="3.53024">
        <ele>19.4</ele>
        <time>2025-06-17T11:00:34Z</time>
      </trkpt>
      <trkpt lat="43.35421" lon="3.5303">
        <ele>19.4</ele>
        <time>2025-06-17T11:00:35Z</time>
      </trkpt>
      <trkpt lat="43.35419" lon="3.53036">
        <ele>19.2</ele>
        <time>2025-06-17T11:00:36Z</time>
      </trkpt>
      <trkpt lat="43.35417" lon="3.53041">
        <ele>19.2</ele>
        <time>2025-06-17T11:00:37Z</time>
      </trkpt>
      <trkpt lat="43.35415" lon="3.53047">
        <ele>19.2</ele>
        <time>2025-06-17T11:00:38Z</time>
      </trkpt>
      <trkpt lat="43.35412" lon="3.53053">
        <ele>19.2</ele>
        <time>2025-06-17T11:00:39Z</time>
      </trkpt>
      <trkpt lat="43.35409" lon="3.53058">
        <ele>19.2</ele>
        <time>2025-06-17T11:00:40Z</time>
      </trkpt>
      <trkpt lat="43.35406" lon="3.53062">
        <ele>19</ele>
        <time>2025-06-17T11:00:41Z</time>
      </trkpt>
      <trkpt lat="43.35402" lon="3.53064">
        <ele>19.2</ele>
        <time>2025-06-17T11:00:42Z</time>
      </trkpt>
      <trkpt lat="43.35398" lon="3.53064">
        <ele>19.2</ele>
        <time>2025-06-17T11:00:43Z</time>
      </trkpt>
      <trkpt lat="43.35394" lon="3.53062">
        <ele>19.4</ele>
        <time>2025-06-17T11:00:44Z</time>
      </trkpt>
      <trkpt lat="43.35389" lon="3.5306">
        <ele>19.4</ele>
        <time>2025-06-17T11:00:45Z</time>
      </trkpt>
      <trkpt lat="43.35384" lon="3.53058">
        <ele>19.4</ele>
        <time>2025-06-17T11:00:46Z</time>
      </trkpt>
      <trkpt lat="43.3538" lon="3.53055">
        <ele>19.4</ele>
        <time>2025-06-17T11:00:47Z</time>
      </trkpt>
      <trkpt lat="43.35376" lon="3.53053">
        <ele>19.6</ele>
        <time>2025-06-17T11:00:48Z</time>
      </trkpt>
      <trkpt lat="43.35372" lon="3.53053">
        <ele>19.6</ele>
        <time>2025-06-17T11:00:49Z</time>
      </trkpt>
      <trkpt lat="43.35368" lon="3.53053">
        <ele>19.4</ele>
        <time>2025-06-17T11:00:50Z</time>
      </trkpt>
      <trkpt lat="43.35365" lon="3.53056">
        <ele>19.4</ele>
        <time>2025-06-17T11:00:51Z</time>
      </trkpt>
      <trkpt lat="43.3536" lon="3.53059">
        <ele>19.4</ele>
        <time>2025-06-17T11:00:52Z</time>
      </trkpt>
      <trkpt lat="43.35355" lon="3.53062">
        <ele>19.4</ele>
        <time>2025-06-17T11:00:53Z</time>
      </trkpt>
      <trkpt lat="43.3535" lon="3.53066">
        <ele>19.4</ele>
        <time>2025-06-17T11:00:54Z</time>
      </trkpt>
      <trkpt lat="43.35346" lon="3.5307">
        <ele>19.4</ele>
        <time>2025-06-17T11:00:55Z</time>
      </trkpt>
      <trkpt lat="43.35341" lon="3.53075">
        <ele>19.4</ele>
        <time>2025-06-17T11:00:56Z</time>
      </trkpt>
      <trkpt lat="43.35336" lon="3.53079">
        <ele>19.4</ele>
        <time>2025-06-17T11:00:57Z</time>
      </trkpt>
      <trkpt lat="43.35332" lon="3.53083">
        <ele>19.2</ele>
        <time>2025-06-17T11:00:58Z</time>
      </trkpt>
      <trkpt lat="43.35326" lon="3.53087">
        <ele>19.2</ele>
        <time>2025-06-17T11:00:59Z</time>
      </trkpt>
      <trkpt lat="43.35321" lon="3.53091">
        <ele>19.2</ele>
        <time>2025-06-17T11:01:00Z</time>
      </trkpt>
      <trkpt lat="43.35316" lon="3.53095">
        <ele>19.4</ele>
        <time>2025-06-17T11:01:01Z</time>
      </trkpt>
      <trkpt lat="43.35311" lon="3.53097">
        <ele>19.4</ele>
        <time>2025-06-17T11:01:02Z</time>
      </trkpt>
      <trkpt lat="43.35305" lon="3.53098">
        <ele>19.4</ele>
        <time>2025-06-17T11:01:03Z</time>
      </trkpt>
      <trkpt lat="43.353" lon="3.53098">
        <ele>19.4</ele>
        <time>2025-06-17T11:01:04Z</time>
      </trkpt>
      <trkpt lat="43.35295" lon="3.53097">
        <ele>19.4</ele>
        <time>2025-06-17T11:01:05Z</time>
      </trkpt>
      <trkpt lat="43.35289" lon="3.53096">
        <ele>19.4</ele>
        <time>2025-06-17T11:01:06Z</time>
      </trkpt>
      <trkpt lat="43.35283" lon="3.53094">
        <ele>19.4</ele>
        <time>2025-06-17T11:01:07Z</time>
      </trkpt>
      <trkpt lat="43.35278" lon="3.53092">
        <ele>19.2</ele>
        <time>2025-06-17T11:01:08Z</time>
      </trkpt>
      <trkpt lat="43.35273" lon="3.5309">
        <ele>19.2</ele>
        <time>2025-06-17T11:01:09Z</time>
      </trkpt>
      <trkpt lat="43.35268" lon="3.53089">
        <ele>19.4</ele>
        <time>2025-06-17T11:01:10Z</time>
      </trkpt>
      <trkpt lat="43.35263" lon="3.53087">
        <ele>19.4</ele>
        <time>2025-06-17T11:01:11Z</time>
      </trkpt>
      <trkpt lat="43.35258" lon="3.53085">
        <ele>19.4</ele>
        <time>2025-06-17T11:01:12Z</time>
      </trkpt>
      <trkpt lat="43.35253" lon="3.53085">
        <ele>19.4</ele>
        <time>2025-06-17T11:01:13Z</time>
      </trkpt>
      <trkpt lat="43.35248" lon="3.53083">
        <ele>19.4</ele>
        <time>2025-06-17T11:01:14Z</time>
      </trkpt>
      <trkpt lat="43.35243" lon="3.53082">
        <ele>19.4</ele>
        <time>2025-06-17T11:01:15Z</time>
      </trkpt>
      <trkpt lat="43.35237" lon="3.53081">
        <ele>19.4</ele>
        <time>2025-06-17T11:01:16Z</time>
      </trkpt>
      <trkpt lat="43.35233" lon="3.53079">
        <ele>19.4</ele>
        <time>2025-06-17T11:01:17Z</time>
      </trkpt>
      <trkpt lat="43.35228" lon="3.53076">
        <ele>19.4</ele>
        <time>2025-06-17T11:01:18Z</time>
      </trkpt>
      <trkpt lat="43.35223" lon="3.53074">
        <ele>19.6</ele>
        <time>2025-06-17T11:01:19Z</time>
      </trkpt>
      <trkpt lat="43.35219" lon="3.53072">
        <ele>19.6</ele>
        <time>2025-06-17T11:01:20Z</time>
      </trkpt>
      <trkpt lat="43.35215" lon="3.53074">
        <ele>19.6</ele>
        <time>2025-06-17T11:01:21Z</time>
      </trkpt>
      <trkpt lat="43.35211" lon="3.53077">
        <ele>19.6</ele>
        <time>2025-06-17T11:01:22Z</time>
      </trkpt>
      <trkpt lat="43.35208" lon="3.53082">
        <ele>19.6</ele>
        <time>2025-06-17T11:01:23Z</time>
      </trkpt>
      <trkpt lat="43.35206" lon="3.53088">
        <ele>19.8</ele>
        <time>2025-06-17T11:01:24Z</time>
      </trkpt>
      <trkpt lat="43.35204" lon="3.53094">
        <ele>19.8</ele>
        <time>2025-06-17T11:01:25Z</time>
      </trkpt>
      <trkpt lat="43.35202" lon="3.531">
        <ele>19.8</ele>
        <time>2025-06-17T11:01:26Z</time>
      </trkpt>
      <trkpt lat="43.352" lon="3.53106">
        <ele>19.8</ele>
        <time>2025-06-17T11:01:27Z</time>
      </trkpt>
      <trkpt lat="43.35199" lon="3.53113">
        <ele>19.8</ele>
        <time>2025-06-17T11:01:28Z</time>
      </trkpt>
      <trkpt lat="43.35198" lon="3.5312">
        <ele>19.8</ele>
        <time>2025-06-17T11:01:29Z</time>
      </trkpt>
      <trkpt lat="43.35196" lon="3.53127">
        <ele>19.8</ele>
        <time>2025-06-17T11:01:30Z</time>
      </trkpt>
      <trkpt lat="43.35194" lon="3.53134">
        <ele>19.8</ele>
        <time>2025-06-17T11:01:31Z</time>
      </trkpt>
      <trkpt lat="43.35192" lon="3.5314">
        <ele>19.8</ele>
        <time>2025-06-17T11:01:32Z</time>
      </trkpt>
      <trkpt lat="43.35191" lon="3.53146">
        <ele>19.8</ele>
        <time>2025-06-17T11:01:33Z</time>
      </trkpt>
      <trkpt lat="43.3519" lon="3.5315">
        <ele>19.8</ele>
        <time>2025-06-17T11:01:34Z</time>
      </trkpt>
      <trkpt lat="43.35189" lon="3.53154">
        <ele>19.6</ele>
        <time>2025-06-17T11:01:35Z</time>
      </trkpt>
      <trkpt lat="43.35188" lon="3.53156">
        <ele>19.6</ele>
        <time>2025-06-17T11:01:36Z</time>
      </trkpt>
      <trkpt lat="43.35187" lon="3.53158">
        <ele>19.6</ele>
        <time>2025-06-17T11:01:37Z</time>
      </trkpt>
      <trkpt lat="43.35186" lon="3.53161">
        <ele>19.6</ele>
        <time>2025-06-17T11:01:38Z</time>
      </trkpt>
      <trkpt lat="43.35186" lon="3.53163">
        <ele>19.6</ele>
        <time>2025-06-17T11:01:39Z</time>
      </trkpt>
      <trkpt lat="43.35184" lon="3.53165">
        <ele>19.6</ele>
        <time>2025-06-17T11:01:40Z</time>
      </trkpt>
      <trkpt lat="43.35182" lon="3.53166">
        <ele>19.6</ele>
        <time>2025-06-17T11:01:41Z</time>
      </trkpt>
      <trkpt lat="43.35179" lon="3.53165">
        <ele>19.6</ele>
        <time>2025-06-17T11:01:42Z</time>
      </trkpt>
      <trkpt lat="43.35177" lon="3.53163">
        <ele>19.4</ele>
        <time>2025-06-17T11:01:43Z</time>
      </trkpt>
      <trkpt lat="43.35173" lon="3.53161">
        <ele>19.4</ele>
        <time>2025-06-17T11:01:44Z</time>
      </trkpt>
      <trkpt lat="43.35169" lon="3.53159">
        <ele>19.4</ele>
        <time>2025-06-17T11:01:45Z</time>
      </trkpt>
      <trkpt lat="43.35165" lon="3.53157">
        <ele>19.4</ele>
        <time>2025-06-17T11:01:46Z</time>
      </trkpt>
      <trkpt lat="43.35161" lon="3.53155">
        <ele>19.4</ele>
        <time>2025-06-17T11:01:47Z</time>
      </trkpt>
      <trkpt lat="43.35157" lon="3.53152">
        <ele>19.4</ele>
        <time>2025-06-17T11:01:48Z</time>
      </trkpt>
      <trkpt lat="43.35152" lon="3.5315">
        <ele>19.4</ele>
        <time>2025-06-17T11:01:49Z</time>
      </trkpt>
      <trkpt lat="43.35148" lon="3.53147">
        <ele>19.4</ele>
        <time>2025-06-17T11:01:50Z</time>
      </trkpt>
      <trkpt lat="43.35143" lon="3.53145">
        <ele>19.4</ele>
        <time>2025-06-17T11:01:51Z</time>
      </trkpt>
      <trkpt lat="43.35139" lon="3.53142">
        <ele>19.2</ele>
        <time>2025-06-17T11:01:52Z</time>
      </trkpt>
      <trkpt lat="43.35135" lon="3.53139">
        <ele>19.2</ele>
        <time>2025-06-17T11:01:53Z</time>
      </trkpt>
      <trkpt lat="43.3513" lon="3.53136">
        <ele>19.2</ele>
        <time>2025-06-17T11:01:54Z</time>
      </trkpt>
      <trkpt lat="43.35125" lon="3.53134">
        <ele>19.2</ele>
        <time>2025-06-17T11:01:55Z</time>
      </trkpt>
      <trkpt lat="43.3512" lon="3.53132">
        <ele>19.2</ele>
        <time>2025-06-17T11:01:56Z</time>
      </trkpt>
      <trkpt lat="43.35114" lon="3.53129">
        <ele>19.2</ele>
        <time>2025-06-17T11:01:57Z</time>
      </trkpt>
      <trkpt lat="43.35109" lon="3.53126">
        <ele>19</ele>
        <time>2025-06-17T11:01:58Z</time>
      </trkpt>
      <trkpt lat="43.35104" lon="3.53124">
        <ele>19</ele>
        <time>2025-06-17T11:01:59Z</time>
      </trkpt>
      <trkpt lat="43.35099" lon="3.53121">
        <ele>19</ele>
        <time>2025-06-17T11:02:00Z</time>
      </trkpt>
      <trkpt lat="43.35094" lon="3.53118">
        <ele>19</ele>
        <time>2025-06-17T11:02:01Z</time>
      </trkpt>
      <trkpt lat="43.35088" lon="3.53116">
        <ele>19</ele>
        <time>2025-06-17T11:02:02Z</time>
      </trkpt>
      <trkpt lat="43.35083" lon="3.53113">
        <ele>19</ele>
        <time>2025-06-17T11:02:03Z</time>
      </trkpt>
      <trkpt lat="43.35078" lon="3.53111">
        <ele>19</ele>
        <time>2025-06-17T11:02:04Z</time>
      </trkpt>
      <trkpt lat="43.35074" lon="3.53109">
        <ele>19</ele>
        <time>2025-06-17T11:02:05Z</time>
      </trkpt>
      <trkpt lat="43.35069" lon="3.53107">
        <ele>19</ele>
        <time>2025-06-17T11:02:06Z</time>
      </trkpt>
      <trkpt lat="43.35065" lon="3.53105">
        <ele>19.2</ele>
        <time>2025-06-17T11:02:07Z</time>
      </trkpt>
      <trkpt lat="43.3506" lon="3.53104">
        <ele>19.2</ele>
        <time>2025-06-17T11:02:08Z</time>
      </trkpt>
      <trkpt lat="43.35055" lon="3.53103">
        <ele>19.2</ele>
        <time>2025-06-17T11:02:09Z</time>
      </trkpt>
      <trkpt lat="43.35049" lon="3.53102">
        <ele>19.2</ele>
        <time>2025-06-17T11:02:10Z</time>
      </trkpt>
      <trkpt lat="43.35044" lon="3.53102">
        <ele>19.2</ele>
        <time>2025-06-17T11:02:11Z</time>
      </trkpt>
      <trkpt lat="43.35039" lon="3.53101">
        <ele>19.2</ele>
        <time>2025-06-17T11:02:12Z</time>
      </trkpt>
      <trkpt lat="43.35033" lon="3.53101">
        <ele>19.2</ele>
        <time>2025-06-17T11:02:13Z</time>
      </trkpt>
      <trkpt lat="43.35027" lon="3.531">
        <ele>19.2</ele>
        <time>2025-06-17T11:02:14Z</time>
      </trkpt>
      <trkpt lat="43.35022" lon="3.531">
        <ele>19.4</ele>
        <time>2025-06-17T11:02:15Z</time>
      </trkpt>
      <trkpt lat="43.35017" lon="3.531">
        <ele>19.4</ele>
        <time>2025-06-17T11:02:16Z</time>
      </trkpt>
      <trkpt lat="43.35011" lon="3.53099">
        <ele>19.4</ele>
        <time>2025-06-17T11:02:17Z</time>
      </trkpt>
      <trkpt lat="43.35006" lon="3.53099">
        <ele>19.4</ele>
        <time>2025-06-17T11:02:18Z</time>
      </trkpt>
      <trkpt lat="43.35" lon="3.53099">
        <ele>19.4</ele>
        <time>2025-06-17T11:02:19Z</time>
      </trkpt>
      <trkpt lat="43.34995" lon="3.53099">
        <ele>19.4</ele>
        <time>2025-06-17T11:02:20Z</time>
      </trkpt>
      <trkpt lat="43.34989" lon="3.53098">
        <ele>19.6</ele>
        <time>2025-06-17T11:02:21Z</time>
      </trkpt>
      <trkpt lat="43.34984" lon="3.53098">
        <ele>19.6</ele>
        <time>2025-06-17T11:02:22Z</time>
      </trkpt>
      <trkpt lat="43.34978" lon="3.53098">
        <ele>19.8</ele>
        <time>2025-06-17T11:02:23Z</time>
      </trkpt>
      <trkpt lat="43.34972" lon="3.53098">
        <ele>19.8</ele>
        <time>2025-06-17T11:02:24Z</time>
      </trkpt>
      <trkpt lat="43.34967" lon="3.53098">
        <ele>20</ele>
        <time>2025-06-17T11:02:25Z</time>
      </trkpt>
      <trkpt lat="43.34961" lon="3.53098">
        <ele>20</ele>
        <time>2025-06-17T11:02:26Z</time>
      </trkpt>
      <trkpt lat="43.34955" lon="3.53097">
        <ele>20</ele>
        <time>2025-06-17T11:02:27Z</time>
      </trkpt>
      <trkpt lat="43.3495" lon="3.53097">
        <ele>20</ele>
        <time>2025-06-17T11:02:28Z</time>
      </trkpt>
      <trkpt lat="43.34944" lon="3.53097">
        <ele>20.2</ele>
        <time>2025-06-17T11:02:29Z</time>
      </trkpt>
      <trkpt lat="43.34939" lon="3.53097">
        <ele>20.2</ele>
        <time>2025-06-17T11:02:30Z</time>
      </trkpt>
      <trkpt lat="43.34933" lon="3.53096">
        <ele>20.2</ele>
        <time>2025-06-17T11:02:31Z</time>
      </trkpt>
      <trkpt lat="43.34928" lon="3.53096">
        <ele>20.2</ele>
        <time>2025-06-17T11:02:32Z</time>
      </trkpt>
      <trkpt lat="43.34923" lon="3.53096">
        <ele>20.2</ele>
        <time>2025-06-17T11:02:33Z</time>
      </trkpt>
      <trkpt lat="43.34917" lon="3.53096">
        <ele>20.2</ele>
        <time>2025-06-17T11:02:34Z</time>
      </trkpt>
      <trkpt lat="43.34912" lon="3.53095">
        <ele>20.4</ele>
        <time>2025-06-17T11:02:35Z</time>
      </trkpt>
      <trkpt lat="43.34907" lon="3.53095">
        <ele>20.4</ele>
        <time>2025-06-17T11:02:36Z</time>
      </trkpt>
      <trkpt lat="43.34902" lon="3.53095">
        <ele>20.4</ele>
        <time>2025-06-17T11:02:37Z</time>
      </trkpt>
      <trkpt lat="43.34896" lon="3.53095">
        <ele>20.4</ele>
        <time>2025-06-17T11:02:38Z</time>
      </trkpt>
      <trkpt lat="43.34891" lon="3.53095">
        <ele>20.4</ele>
        <time>2025-06-17T11:02:39Z</time>
      </trkpt>
      <trkpt lat="43.34886" lon="3.53095">
        <ele>20.4</ele>
        <time>2025-06-17T11:02:40Z</time>
      </trkpt>
      <trkpt lat="43.3488" lon="3.53095">
        <ele>20.4</ele>
        <time>2025-06-17T11:02:41Z</time>
      </trkpt>
      <trkpt lat="43.34875" lon="3.53095">
        <ele>20.4</ele>
        <time>2025-06-17T11:02:42Z</time>
      </trkpt>
      <trkpt lat="43.3487" lon="3.53095">
        <ele>20.4</ele>
        <time>2025-06-17T11:02:43Z</time>
      </trkpt>
      <trkpt lat="43.34864" lon="3.53095">
        <ele>20.4</ele>
        <time>2025-06-17T11:02:44Z</time>
      </trkpt>
      <trkpt lat="43.34859" lon="3.53096">
        <ele>20.4</ele>
        <time>2025-06-17T11:02:45Z</time>
      </trkpt>
      <trkpt lat="43.34853" lon="3.53096">
        <ele>20.4</ele>
        <time>2025-06-17T11:02:46Z</time>
      </trkpt>
      <trkpt lat="43.34848" lon="3.53096">
        <ele>20.4</ele>
        <time>2025-06-17T11:02:47Z</time>
      </trkpt>
      <trkpt lat="43.34843" lon="3.53097">
        <ele>20.4</ele>
        <time>2025-06-17T11:02:48Z</time>
      </trkpt>
      <trkpt lat="43.34838" lon="3.53097">
        <ele>20.2</ele>
        <time>2025-06-17T11:02:49Z</time>
      </trkpt>
      <trkpt lat="43.34833" lon="3.53098">
        <ele>20.2</ele>
        <time>2025-06-17T11:02:50Z</time>
      </trkpt>
      <trkpt lat="43.34828" lon="3.53099">
        <ele>20.2</ele>
        <time>2025-06-17T11:02:51Z</time>
      </trkpt>
      <trkpt lat="43.34823" lon="3.531">
        <ele>20.2</ele>
        <time>2025-06-17T11:02:52Z</time>
      </trkpt>
      <trkpt lat="43.34818" lon="3.53101">
        <ele>20.2</ele>
        <time>2025-06-17T11:02:53Z</time>
      </trkpt>
      <trkpt lat="43.34813" lon="3.53102">
        <ele>20.2</ele>
        <time>2025-06-17T11:02:54Z</time>
      </trkpt>
      <trkpt lat="43.34808" lon="3.53103">
        <ele>20.2</ele>
        <time>2025-06-17T11:02:55Z</time>
      </trkpt>
      <trkpt lat="43.34803" lon="3.53103">
        <ele>20</ele>
        <time>2025-06-17T11:02:56Z</time>
      </trkpt>
      <trkpt lat="43.34798" lon="3.53104">
        <ele>20</ele>
        <time>2025-06-17T11:02:57Z</time>
      </trkpt>
      <trkpt lat="43.34793" lon="3.53105">
        <ele>20</ele>
        <time>2025-06-17T11:02:58Z</time>
      </trkpt>
      <trkpt lat="43.34788" lon="3.53106">
        <ele>19.8</ele>
        <time>2025-06-17T11:02:59Z</time>
      </trkpt>
      <trkpt lat="43.34784" lon="3.53107">
        <ele>19.8</ele>
        <time>2025-06-17T11:03:00Z</time>
      </trkpt>
      <trkpt lat="43.34779" lon="3.53108">
        <ele>19.8</ele>
        <time>2025-06-17T11:03:01Z</time>
      </trkpt>
      <trkpt lat="43.34775" lon="3.53109">
        <ele>19.8</ele>
        <time>2025-06-17T11:03:02Z</time>
      </trkpt>
      <trkpt lat="43.3477" lon="3.5311">
        <ele>19.8</ele>
        <time>2025-06-17T11:03:03Z</time>
      </trkpt>
      <trkpt lat="43.34766" lon="3.53111">
        <ele>19.8</ele>
        <time>2025-06-17T11:03:04Z</time>
      </trkpt>
      <trkpt lat="43.34761" lon="3.53112">
        <ele>19.8</ele>
        <time>2025-06-17T11:03:05Z</time>
      </trkpt>
      <trkpt lat="43.34756" lon="3.53112">
        <ele>19.8</ele>
        <time>2025-06-17T11:03:06Z</time>
      </trkpt>
      <trkpt lat="43.3475" lon="3.53113">
        <ele>19.6</ele>
        <time>2025-06-17T11:03:07Z</time>
      </trkpt>
      <trkpt lat="43.34745" lon="3.53114">
        <ele>19.6</ele>
        <time>2025-06-17T11:03:08Z</time>
      </trkpt>
      <trkpt lat="43.3474" lon="3.53115">
        <ele>19.6</ele>
        <time>2025-06-17T11:03:09Z</time>
      </trkpt>
      <trkpt lat="43.34734" lon="3.53116">
        <ele>19.6</ele>
        <time>2025-06-17T11:03:10Z</time>
      </trkpt>
      <trkpt lat="43.34729" lon="3.53118">
        <ele>19.6</ele>
        <time>2025-06-17T11:03:11Z</time>
      </trkpt>
      <trkpt lat="43.34723" lon="3.53118">
        <ele>19.4</ele>
        <time>2025-06-17T11:03:12Z</time>
      </trkpt>
      <trkpt lat="43.34717" lon="3.53119">
        <ele>19.4</ele>
        <time>2025-06-17T11:03:13Z</time>
      </trkpt>
      <trkpt lat="43.34712" lon="3.5312">
        <ele>19.4</ele>
        <time>2025-06-17T11:03:14Z</time>
      </trkpt>
      <trkpt lat="43.34706" lon="3.53121">
        <ele>19.4</ele>
        <time>2025-06-17T11:03:15Z</time>
      </trkpt>
      <trkpt lat="43.347" lon="3.53121">
        <ele>19.2</ele>
        <time>2025-06-17T11:03:16Z</time>
      </trkpt>
      <trkpt lat="43.34694" lon="3.53122">
        <ele>19.2</ele>
        <time>2025-06-17T11:03:17Z</time>
      </trkpt>
      <trkpt lat="43.34689" lon="3.53124">
        <ele>19.2</ele>
        <time>2025-06-17T11:03:18Z</time>
      </trkpt>
      <trkpt lat="43.34683" lon="3.53124">
        <ele>19.2</ele>
        <time>2025-06-17T11:03:19Z</time>
      </trkpt>
      <trkpt lat="43.34677" lon="3.53125">
        <ele>19.2</ele>
        <time>2025-06-17T11:03:20Z</time>
      </trkpt>
      <trkpt lat="43.34672" lon="3.53126">
        <ele>19</ele>
        <time>2025-06-17T11:03:21Z</time>
      </trkpt>
      <trkpt lat="43.34666" lon="3.53127">
        <ele>19</ele>
        <time>2025-06-17T11:03:22Z</time>
      </trkpt>
      <trkpt lat="43.3466" lon="3.53128">
        <ele>19</ele>
        <time>2025-06-17T11:03:23Z</time>
      </trkpt>
      <trkpt lat="43.34655" lon="3.53129">
        <ele>19</ele>
        <time>2025-06-17T11:03:24Z</time>
      </trkpt>
      <trkpt lat="43.34649" lon="3.5313">
        <ele>19</ele>
        <time>2025-06-17T11:03:25Z</time>
      </trkpt>
      <trkpt lat="43.34643" lon="3.53131">
        <ele>19</ele>
        <time>2025-06-17T11:03:26Z</time>
      </trkpt>
      <trkpt lat="43.34637" lon="3.53132">
        <ele>19</ele>
        <time>2025-06-17T11:03:27Z</time>
      </trkpt>
      <trkpt lat="43.34632" lon="3.53133">
        <ele>19</ele>
        <time>2025-06-17T11:03:28Z</time>
      </trkpt>
      <trkpt lat="43.34626" lon="3.53133">
        <ele>19.2</ele>
        <time>2025-06-17T11:03:29Z</time>
      </trkpt>
      <trkpt lat="43.3462" lon="3.53134">
        <ele>19.2</ele>
        <time>2025-06-17T11:03:30Z</time>
      </trkpt>
      <trkpt lat="43.34614" lon="3.53135">
        <ele>19.2</ele>
        <time>2025-06-17T11:03:31Z</time>
      </trkpt>
      <trkpt lat="43.34609" lon="3.53136">
        <ele>19.2</ele>
        <time>2025-06-17T11:03:32Z</time>
      </trkpt>
      <trkpt lat="43.34603" lon="3.53137">
        <ele>19.2</ele>
        <time>2025-06-17T11:03:33Z</time>
      </trkpt>
      <trkpt lat="43.34597" lon="3.53138">
        <ele>19</ele>
        <time>2025-06-17T11:03:34Z</time>
      </trkpt>
      <trkpt lat="43.34591" lon="3.53139">
        <ele>19</ele>
        <time>2025-06-17T11:03:35Z</time>
      </trkpt>
      <trkpt lat="43.34585" lon="3.5314">
        <ele>19</ele>
        <time>2025-06-17T11:03:36Z</time>
      </trkpt>
      <trkpt lat="43.3458" lon="3.53141">
        <ele>19</ele>
        <time>2025-06-17T11:03:37Z</time>
      </trkpt>
      <trkpt lat="43.34574" lon="3.53142">
        <ele>19</ele>
        <time>2025-06-17T11:03:38Z</time>
      </trkpt>
      <trkpt lat="43.34568" lon="3.53143">
        <ele>19</ele>
        <time>2025-06-17T11:03:39Z</time>
      </trkpt>
      <trkpt lat="43.34562" lon="3.53144">
        <ele>19</ele>
        <time>2025-06-17T11:03:40Z</time>
      </trkpt>
      <trkpt lat="43.34556" lon="3.53145">
        <ele>18.8</ele>
        <time>2025-06-17T11:03:41Z</time>
      </trkpt>
      <trkpt lat="43.3455" lon="3.53146">
        <ele>18.8</ele>
        <time>2025-06-17T11:03:42Z</time>
      </trkpt>
      <trkpt lat="43.34545" lon="3.53146">
        <ele>18.8</ele>
        <time>2025-06-17T11:03:43Z</time>
      </trkpt>
      <trkpt lat="43.34539" lon="3.53147">
        <ele>18.8</ele>
        <time>2025-06-17T11:03:44Z</time>
      </trkpt>
      <trkpt lat="43.34533" lon="3.53149">
        <ele>18.8</ele>
        <time>2025-06-17T11:03:45Z</time>
      </trkpt>
      <trkpt lat="43.34528" lon="3.5315">
        <ele>18.8</ele>
        <time>2025-06-17T11:03:46Z</time>
      </trkpt>
      <trkpt lat="43.34522" lon="3.5315">
        <ele>18.8</ele>
        <time>2025-06-17T11:03:47Z</time>
      </trkpt>
      <trkpt lat="43.34517" lon="3.53151">
        <ele>18.8</ele>
        <time>2025-06-17T11:03:48Z</time>
      </trkpt>
      <trkpt lat="43.34511" lon="3.53152">
        <ele>18.8</ele>
        <time>2025-06-17T11:03:49Z</time>
      </trkpt>
      <trkpt lat="43.34506" lon="3.53153">
        <ele>18.8</ele>
        <time>2025-06-17T11:03:50Z</time>
      </trkpt>
      <trkpt lat="43.345" lon="3.53154">
        <ele>18.8</ele>
        <time>2025-06-17T11:03:51Z</time>
      </trkpt>
      <trkpt lat="43.34495" lon="3.53155">
        <ele>18.8</ele>
        <time>2025-06-17T11:03:52Z</time>
      </trkpt>
      <trkpt lat="43.34489" lon="3.53156">
        <ele>18.8</ele>
        <time>2025-06-17T11:03:53Z</time>
      </trkpt>
      <trkpt lat="43.34484" lon="3.53157">
        <ele>18.8</ele>
        <time>2025-06-17T11:03:54Z</time>
      </trkpt>
      <trkpt lat="43.34478" lon="3.53158">
        <ele>18.8</ele>
        <time>2025-06-17T11:03:55Z</time>
      </trkpt>
      <trkpt lat="43.34472" lon="3.53159">
        <ele>18.8</ele>
        <time>2025-06-17T11:03:56Z</time>
      </trkpt>
      <trkpt lat="43.34467" lon="3.5316">
        <ele>19</ele>
        <time>2025-06-17T11:03:57Z</time>
      </trkpt>
      <trkpt lat="43.34461" lon="3.53162">
        <ele>19</ele>
        <time>2025-06-17T11:03:58Z</time>
      </trkpt>
      <trkpt lat="43.34455" lon="3.53163">
        <ele>19</ele>
        <time>2025-06-17T11:03:59Z</time>
      </trkpt>
      <trkpt lat="43.3445" lon="3.53165">
        <ele>19</ele>
        <time>2025-06-17T11:04:00Z</time>
      </trkpt>
      <trkpt lat="43.34445" lon="3.53167">
        <ele>19</ele>
        <time>2025-06-17T11:04:01Z</time>
      </trkpt>
      <trkpt lat="43.34439" lon="3.53169">
        <ele>19</ele>
        <time>2025-06-17T11:04:02Z</time>
      </trkpt>
      <trkpt lat="43.34434" lon="3.53171">
        <ele>19</ele>
        <time>2025-06-17T11:04:03Z</time>
      </trkpt>
      <trkpt lat="43.3443" lon="3.53173">
        <ele>19.2</ele>
        <time>2025-06-17T11:04:04Z</time>
      </trkpt>
      <trkpt lat="43.34425" lon="3.53176">
        <ele>19.2</ele>
        <time>2025-06-17T11:04:05Z</time>
      </trkpt>
      <trkpt lat="43.34419" lon="3.53178">
        <ele>19</ele>
        <time>2025-06-17T11:04:06Z</time>
      </trkpt>
      <trkpt lat="43.34414" lon="3.53181">
        <ele>19.2</ele>
        <time>2025-06-17T11:04:07Z</time>
      </trkpt>
      <trkpt lat="43.34409" lon="3.53183">
        <ele>19.2</ele>
        <time>2025-06-17T11:04:08Z</time>
      </trkpt>
      <trkpt lat="43.34403" lon="3.53186">
        <ele>19.2</ele>
        <time>2025-06-17T11:04:09Z</time>
      </trkpt>
      <trkpt lat="43.34398" lon="3.53188">
        <ele>19.2</ele>
        <time>2025-06-17T11:04:10Z</time>
      </trkpt>
      <trkpt lat="43.34393" lon="3.53191">
        <ele>19.2</ele>
        <time>2025-06-17T11:04:11Z</time>
      </trkpt>
      <trkpt lat="43.34388" lon="3.53193">
        <ele>19.2</ele>
        <time>2025-06-17T11:04:12Z</time>
      </trkpt>
      <trkpt lat="43.34383" lon="3.53196">
        <ele>19.2</ele>
        <time>2025-06-17T11:04:13Z</time>
      </trkpt>
      <trkpt lat="43.34378" lon="3.53198">
        <ele>19.2</ele>
        <time>2025-06-17T11:04:14Z</time>
      </trkpt>
      <trkpt lat="43.34372" lon="3.53201">
        <ele>19.2</ele>
        <time>2025-06-17T11:04:15Z</time>
      </trkpt>
      <trkpt lat="43.34367" lon="3.53203">
        <ele>19.2</ele>
        <time>2025-06-17T11:04:16Z</time>
      </trkpt>
      <trkpt lat="43.34361" lon="3.53206">
        <ele>19.2</ele>
        <time>2025-06-17T11:04:17Z</time>
      </trkpt>
      <trkpt lat="43.34356" lon="3.53209">
        <ele>19.2</ele>
        <time>2025-06-17T11:04:18Z</time>
      </trkpt>
      <trkpt lat="43.34351" lon="3.53211">
        <ele>19.2</ele>
        <time>2025-06-17T11:04:19Z</time>
      </trkpt>
      <trkpt lat="43.34345" lon="3.53214">
        <ele>19.2</ele>
        <time>2025-06-17T11:04:20Z</time>
      </trkpt>
      <trkpt lat="43.3434" lon="3.53217">
        <ele>19.2</ele>
        <time>2025-06-17T11:04:21Z</time>
      </trkpt>
      <trkpt lat="43.34335" lon="3.5322">
        <ele>19.2</ele>
        <time>2025-06-17T11:04:22Z</time>
      </trkpt>
      <trkpt lat="43.34329" lon="3.53222">
        <ele>19.2</ele>
        <time>2025-06-17T11:04:23Z</time>
      </trkpt>
      <trkpt lat="43.34324" lon="3.53225">
        <ele>19.2</ele>
        <time>2025-06-17T11:04:24Z</time>
      </trkpt>
      <trkpt lat="43.34319" lon="3.53228">
        <ele>19.2</ele>
        <time>2025-06-17T11:04:25Z</time>
      </trkpt>
      <trkpt lat="43.34314" lon="3.53231">
        <ele>19.2</ele>
        <time>2025-06-17T11:04:26Z</time>
      </trkpt>
      <trkpt lat="43.34308" lon="3.53234">
        <ele>19.2</ele>
        <time>2025-06-17T11:04:27Z</time>
      </trkpt>
      <trkpt lat="43.34303" lon="3.53236">
        <ele>19.2</ele>
        <time>2025-06-17T11:04:28Z</time>
      </trkpt>
      <trkpt lat="43.34298" lon="3.53239">
        <ele>19.2</ele>
        <time>2025-06-17T11:04:29Z</time>
      </trkpt>
      <trkpt lat="43.34294" lon="3.53242">
        <ele>19.2</ele>
        <time>2025-06-17T11:04:30Z</time>
      </trkpt>
      <trkpt lat="43.34289" lon="3.53245">
        <ele>19.2</ele>
        <time>2025-06-17T11:04:31Z</time>
      </trkpt>
      <trkpt lat="43.34283" lon="3.53248">
        <ele>19.2</ele>
        <time>2025-06-17T11:04:32Z</time>
      </trkpt>
      <trkpt lat="43.34279" lon="3.53251">
        <ele>19.2</ele>
        <time>2025-06-17T11:04:33Z</time>
      </trkpt>
      <trkpt lat="43.34274" lon="3.53254">
        <ele>19.2</ele>
        <time>2025-06-17T11:04:34Z</time>
      </trkpt>
      <trkpt lat="43.34269" lon="3.53257">
        <ele>19.2</ele>
        <time>2025-06-17T11:04:35Z</time>
      </trkpt>
      <trkpt lat="43.34265" lon="3.5326">
        <ele>19.2</ele>
        <time>2025-06-17T11:04:36Z</time>
      </trkpt>
      <trkpt lat="43.3426" lon="3.53263">
        <ele>19.2</ele>
        <time>2025-06-17T11:04:37Z</time>
      </trkpt>
      <trkpt lat="43.34255" lon="3.53266">
        <ele>19.2</ele>
        <time>2025-06-17T11:04:38Z</time>
      </trkpt>
      <trkpt lat="43.3425" lon="3.53269">
        <ele>19.2</ele>
        <time>2025-06-17T11:04:39Z</time>
      </trkpt>
      <trkpt lat="43.34245" lon="3.53273">
        <ele>19.2</ele>
        <time>2025-06-17T11:04:40Z</time>
      </trkpt>
      <trkpt lat="43.3424" lon="3.53276">
        <ele>19.2</ele>
        <time>2025-06-17T11:04:41Z</time>
      </trkpt>
      <trkpt lat="43.34235" lon="3.53278">
        <ele>19.2</ele>
        <time>2025-06-17T11:04:42Z</time>
      </trkpt>
      <trkpt lat="43.3423" lon="3.53281">
        <ele>19.2</ele>
        <time>2025-06-17T11:04:43Z</time>
      </trkpt>
      <trkpt lat="43.34225" lon="3.53284">
        <ele>19.2</ele>
        <time>2025-06-17T11:04:44Z</time>
      </trkpt>
      <trkpt lat="43.3422" lon="3.53286">
        <ele>19.2</ele>
        <time>2025-06-17T11:04:45Z</time>
      </trkpt>
      <trkpt lat="43.34214" lon="3.53288">
        <ele>19.2</ele>
        <time>2025-06-17T11:04:46Z</time>
      </trkpt>
      <trkpt lat="43.34209" lon="3.5329">
        <ele>19.2</ele>
        <time>2025-06-17T11:04:47Z</time>
      </trkpt>
      <trkpt lat="43.34204" lon="3.53292">
        <ele>19.2</ele>
        <time>2025-06-17T11:04:48Z</time>
      </trkpt>
      <trkpt lat="43.34199" lon="3.53292">
        <ele>19.2</ele>
        <time>2025-06-17T11:04:49Z</time>
      </trkpt>
      <trkpt lat="43.34193" lon="3.53293">
        <ele>19</ele>
        <time>2025-06-17T11:04:50Z</time>
      </trkpt>
      <trkpt lat="43.34188" lon="3.53296">
        <ele>19</ele>
        <time>2025-06-17T11:04:51Z</time>
      </trkpt>
      <trkpt lat="43.34182" lon="3.53298">
        <ele>19</ele>
        <time>2025-06-17T11:04:52Z</time>
      </trkpt>
      <trkpt lat="43.34177" lon="3.533">
        <ele>19</ele>
        <time>2025-06-17T11:04:53Z</time>
      </trkpt>
      <trkpt lat="43.34172" lon="3.53302">
        <ele>19</ele>
        <time>2025-06-17T11:04:54Z</time>
      </trkpt>
      <trkpt lat="43.34167" lon="3.53303">
        <ele>19</ele>
        <time>2025-06-17T11:04:55Z</time>
      </trkpt>
      <trkpt lat="43.34162" lon="3.53304">
        <ele>19</ele>
        <time>2025-06-17T11:04:56Z</time>
      </trkpt>
      <trkpt lat="43.34157" lon="3.53305">
        <ele>18.8</ele>
        <time>2025-06-17T11:04:57Z</time>
      </trkpt>
      <trkpt lat="43.34151" lon="3.53306">
        <ele>18.8</ele>
        <time>2025-06-17T11:04:58Z</time>
      </trkpt>
      <trkpt lat="43.34146" lon="3.53307">
        <ele>18.8</ele>
        <time>2025-06-17T11:04:59Z</time>
      </trkpt>
      <trkpt lat="43.3414" lon="3.53307">
        <ele>18.8</ele>
        <time>2025-06-17T11:05:00Z</time>
      </trkpt>
      <trkpt lat="43.34135" lon="3.53307">
        <ele>18.8</ele>
        <time>2025-06-17T11:05:01Z</time>
      </trkpt>
      <trkpt lat="43.3413" lon="3.53308">
        <ele>18.8</ele>
        <time>2025-06-17T11:05:02Z</time>
      </trkpt>
      <trkpt lat="43.34124" lon="3.53309">
        <ele>19</ele>
        <time>2025-06-17T11:05:03Z</time>
      </trkpt>
      <trkpt lat="43.34119" lon="3.5331">
        <ele>19</ele>
        <time>2025-06-17T11:05:04Z</time>
      </trkpt>
      <trkpt lat="43.34114" lon="3.53311">
        <ele>19</ele>
        <time>2025-06-17T11:05:05Z</time>
      </trkpt>
      <trkpt lat="43.34109" lon="3.53312">
        <ele>19</ele>
        <time>2025-06-17T11:05:06Z</time>
      </trkpt>
      <trkpt lat="43.34104" lon="3.53312">
        <ele>19</ele>
        <time>2025-06-17T11:05:07Z</time>
      </trkpt>
      <trkpt lat="43.34099" lon="3.53312">
        <ele>19</ele>
        <time>2025-06-17T11:05:08Z</time>
      </trkpt>
      <trkpt lat="43.34094" lon="3.53312">
        <ele>19.2</ele>
        <time>2025-06-17T11:05:09Z</time>
      </trkpt>
      <trkpt lat="43.34088" lon="3.53311">
        <ele>19.2</ele>
        <time>2025-06-17T11:05:10Z</time>
      </trkpt>
      <trkpt lat="43.34083" lon="3.5331">
        <ele>19.2</ele>
        <time>2025-06-17T11:05:11Z</time>
      </trkpt>
      <trkpt lat="43.34077" lon="3.5331">
        <ele>19.2</ele>
        <time>2025-06-17T11:05:12Z</time>
      </trkpt>
      <trkpt lat="43.34072" lon="3.53309">
        <ele>19.2</ele>
        <time>2025-06-17T11:05:13Z</time>
      </trkpt>
      <trkpt lat="43.34066" lon="3.53309">
        <ele>19.2</ele>
        <time>2025-06-17T11:05:14Z</time>
      </trkpt>
      <trkpt lat="43.34061" lon="3.53308">
        <ele>19.4</ele>
        <time>2025-06-17T11:05:15Z</time>
      </trkpt>
      <trkpt lat="43.34055" lon="3.53308">
        <ele>19.4</ele>
        <time>2025-06-17T11:05:16Z</time>
      </trkpt>
      <trkpt lat="43.3405" lon="3.53307">
        <ele>19.2</ele>
        <time>2025-06-17T11:05:17Z</time>
      </trkpt>
      <trkpt lat="43.34044" lon="3.53307">
        <ele>19.4</ele>
        <time>2025-06-17T11:05:18Z</time>
      </trkpt>
      <trkpt lat="43.34039" lon="3.53307">
        <ele>19.4</ele>
        <time>2025-06-17T11:05:19Z</time>
      </trkpt>
      <trkpt lat="43.34034" lon="3.53306">
        <ele>19.4</ele>
        <time>2025-06-17T11:05:20Z</time>
      </trkpt>
      <trkpt lat="43.34028" lon="3.53306">
        <ele>19.4</ele>
        <time>2025-06-17T11:05:21Z</time>
      </trkpt>
      <trkpt lat="43.34023" lon="3.53306">
        <ele>19.4</ele>
        <time>2025-06-17T11:05:22Z</time>
      </trkpt>
      <trkpt lat="43.34018" lon="3.53306">
        <ele>19.6</ele>
        <time>2025-06-17T11:05:23Z</time>
      </trkpt>
      <trkpt lat="43.34013" lon="3.53306">
        <ele>19.6</ele>
        <time>2025-06-17T11:05:24Z</time>
      </trkpt>
      <trkpt lat="43.34008" lon="3.53306">
        <ele>19.6</ele>
        <time>2025-06-17T11:05:25Z</time>
      </trkpt>
      <trkpt lat="43.34003" lon="3.53306">
        <ele>19.6</ele>
        <time>2025-06-17T11:05:26Z</time>
      </trkpt>
      <trkpt lat="43.33998" lon="3.53306">
        <ele>19.4</ele>
        <time>2025-06-17T11:05:27Z</time>
      </trkpt>
      <trkpt lat="43.33994" lon="3.53306">
        <ele>19.4</ele>
        <time>2025-06-17T11:05:28Z</time>
      </trkpt>
      <trkpt lat="43.33989" lon="3.53306">
        <ele>19.6</ele>
        <time>2025-06-17T11:05:29Z</time>
      </trkpt>
      <trkpt lat="43.33985" lon="3.53307">
        <ele>19.6</ele>
        <time>2025-06-17T11:05:30Z</time>
      </trkpt>
      <trkpt lat="43.33981" lon="3.53308">
        <ele>19.6</ele>
        <time>2025-06-17T11:05:31Z</time>
      </trkpt>
      <trkpt lat="43.33976" lon="3.53309">
        <ele>19.6</ele>
        <time>2025-06-17T11:05:32Z</time>
      </trkpt>
      <trkpt lat="43.33971" lon="3.5331">
        <ele>19.6</ele>
        <time>2025-06-17T11:05:33Z</time>
      </trkpt>
      <trkpt lat="43.33966" lon="3.53311">
        <ele>19.6</ele>
        <time>2025-06-17T11:05:34Z</time>
      </trkpt>
      <trkpt lat="43.33961" lon="3.53313">
        <ele>19.6</ele>
        <time>2025-06-17T11:05:35Z</time>
      </trkpt>
      <trkpt lat="43.33957" lon="3.53314">
        <ele>19.6</ele>
        <time>2025-06-17T11:05:36Z</time>
      </trkpt>
      <trkpt lat="43.33952" lon="3.53315">
        <ele>19.6</ele>
        <time>2025-06-17T11:05:37Z</time>
      </trkpt>
      <trkpt lat="43.33947" lon="3.53316">
        <ele>19.6</ele>
        <time>2025-06-17T11:05:38Z</time>
      </trkpt>
      <trkpt lat="43.33942" lon="3.53317">
        <ele>19.6</ele>
        <time>2025-06-17T11:05:39Z</time>
      </trkpt>
      <trkpt lat="43.33937" lon="3.53319">
        <ele>19.6</ele>
        <time>2025-06-17T11:05:40Z</time>
      </trkpt>
      <trkpt lat="43.33932" lon="3.5332">
        <ele>19.6</ele>
        <time>2025-06-17T11:05:41Z</time>
      </trkpt>
      <trkpt lat="43.33927" lon="3.53322">
        <ele>19.6</ele>
        <time>2025-06-17T11:05:42Z</time>
      </trkpt>
      <trkpt lat="43.33922" lon="3.53323">
        <ele>19.6</ele>
        <time>2025-06-17T11:05:43Z</time>
      </trkpt>
      <trkpt lat="43.33917" lon="3.53324">
        <ele>19.6</ele>
        <time>2025-06-17T11:05:44Z</time>
      </trkpt>
      <trkpt lat="43.33912" lon="3.53326">
        <ele>19.8</ele>
        <time>2025-06-17T11:05:45Z</time>
      </trkpt>
      <trkpt lat="43.33907" lon="3.53327">
        <ele>19.6</ele>
        <time>2025-06-17T11:05:46Z</time>
      </trkpt>
      <trkpt lat="43.33902" lon="3.53328">
        <ele>19.6</ele>
        <time>2025-06-17T11:05:47Z</time>
      </trkpt>
      <trkpt lat="43.33897" lon="3.53329">
        <ele>19.6</ele>
        <time>2025-06-17T11:05:48Z</time>
      </trkpt>
      <trkpt lat="43.33892" lon="3.53331">
        <ele>19.6</ele>
        <time>2025-06-17T11:05:49Z</time>
      </trkpt>
      <trkpt lat="43.33887" lon="3.53332">
        <ele>19.6</ele>
        <time>2025-06-17T11:05:50Z</time>
      </trkpt>
      <trkpt lat="43.33882" lon="3.53333">
        <ele>19.6</ele>
        <time>2025-06-17T11:05:51Z</time>
      </trkpt>
      <trkpt lat="43.33877" lon="3.53334">
        <ele>19.6</ele>
        <time>2025-06-17T11:05:52Z</time>
      </trkpt>
      <trkpt lat="43.33872" lon="3.53335">
        <ele>19.6</ele>
        <time>2025-06-17T11:05:53Z</time>
      </trkpt>
      <trkpt lat="43.33867" lon="3.53335">
        <ele>19.8</ele>
        <time>2025-06-17T11:05:54Z</time>
      </trkpt>
      <trkpt lat="43.33862" lon="3.53336">
        <ele>19.8</ele>
        <time>2025-06-17T11:05:55Z</time>
      </trkpt>
      <trkpt lat="43.33858" lon="3.53336">
        <ele>19.8</ele>
        <time>2025-06-17T11:05:56Z</time>
      </trkpt>
      <trkpt lat="43.33854" lon="3.53337">
        <ele>20</ele>
        <time>2025-06-17T11:05:57Z</time>
      </trkpt>
      <trkpt lat="43.33849" lon="3.53336">
        <ele>20</ele>
        <time>2025-06-17T11:05:58Z</time>
      </trkpt>
      <trkpt lat="43.33845" lon="3.53336">
        <ele>20</ele>
        <time>2025-06-17T11:05:59Z</time>
      </trkpt>
      <trkpt lat="43.33841" lon="3.53336">
        <ele>20</ele>
        <time>2025-06-17T11:06:00Z</time>
      </trkpt>
      <trkpt lat="43.33836" lon="3.53336">
        <ele>20</ele>
        <time>2025-06-17T11:06:01Z</time>
      </trkpt>
      <trkpt lat="43.33831" lon="3.53335">
        <ele>20</ele>
        <time>2025-06-17T11:06:02Z</time>
      </trkpt>
      <trkpt lat="43.33827" lon="3.53335">
        <ele>20.2</ele>
        <time>2025-06-17T11:06:03Z</time>
      </trkpt>
      <trkpt lat="43.33822" lon="3.53335">
        <ele>20.2</ele>
        <time>2025-06-17T11:06:04Z</time>
      </trkpt>
      <trkpt lat="43.33818" lon="3.53335">
        <ele>20.2</ele>
        <time>2025-06-17T11:06:05Z</time>
      </trkpt>
      <trkpt lat="43.33813" lon="3.53335">
        <ele>20</ele>
        <time>2025-06-17T11:06:06Z</time>
      </trkpt>
      <trkpt lat="43.33808" lon="3.53335">
        <ele>20</ele>
        <time>2025-06-17T11:06:07Z</time>
      </trkpt>
      <trkpt lat="43.33803" lon="3.53335">
        <ele>20.2</ele>
        <time>2025-06-17T11:06:08Z</time>
      </trkpt>
      <trkpt lat="43.33798" lon="3.53335">
        <ele>20.2</ele>
        <time>2025-06-17T11:06:09Z</time>
      </trkpt>
      <trkpt lat="43.33793" lon="3.53334">
        <ele>20.2</ele>
        <time>2025-06-17T11:06:10Z</time>
      </trkpt>
      <trkpt lat="43.33788" lon="3.53334">
        <ele>20.2</ele>
        <time>2025-06-17T11:06:11Z</time>
      </trkpt>
      <trkpt lat="43.33783" lon="3.53334">
        <ele>20.2</ele>
        <time>2025-06-17T11:06:12Z</time>
      </trkpt>
      <trkpt lat="43.33778" lon="3.53333">
        <ele>20.2</ele>
        <time>2025-06-17T11:06:13Z</time>
      </trkpt>
      <trkpt lat="43.33773" lon="3.53333">
        <ele>20.2</ele>
        <time>2025-06-17T11:06:14Z</time>
      </trkpt>
      <trkpt lat="43.33768" lon="3.53333">
        <ele>20.2</ele>
        <time>2025-06-17T11:06:15Z</time>
      </trkpt>
      <trkpt lat="43.33763" lon="3.53333">
        <ele>20.2</ele>
        <time>2025-06-17T11:06:16Z</time>
      </trkpt>
      <trkpt lat="43.33758" lon="3.53333">
        <ele>20.2</ele>
        <time>2025-06-17T11:06:17Z</time>
      </trkpt>
      <trkpt lat="43.33753" lon="3.53332">
        <ele>20.2</ele>
        <time>2025-06-17T11:06:18Z</time>
      </trkpt>
      <trkpt lat="43.33749" lon="3.53331">
        <ele>20.2</ele>
        <time>2025-06-17T11:06:19Z</time>
      </trkpt>
      <trkpt lat="43.33744" lon="3.5333">
        <ele>20</ele>
        <time>2025-06-17T11:06:20Z</time>
      </trkpt>
      <trkpt lat="43.3374" lon="3.53328">
        <ele>20</ele>
        <time>2025-06-17T11:06:21Z</time>
      </trkpt>
      <trkpt lat="43.33736" lon="3.53326">
        <ele>20</ele>
        <time>2025-06-17T11:06:22Z</time>
      </trkpt>
      <trkpt lat="43.33732" lon="3.53323">
        <ele>20</ele>
        <time>2025-06-17T11:06:23Z</time>
      </trkpt>
      <trkpt lat="43.33728" lon="3.5332">
        <ele>20</ele>
        <time>2025-06-17T11:06:24Z</time>
      </trkpt>
      <trkpt lat="43.33725" lon="3.53317">
        <ele>20</ele>
        <time>2025-06-17T11:06:25Z</time>
      </trkpt>
      <trkpt lat="43.33721" lon="3.53315">
        <ele>20</ele>
        <time>2025-06-17T11:06:26Z</time>
      </trkpt>
      <trkpt lat="43.33717" lon="3.53312">
        <ele>20</ele>
        <time>2025-06-17T11:06:27Z</time>
      </trkpt>
      <trkpt lat="43.33712" lon="3.5331">
        <ele>20</ele>
        <time>2025-06-17T11:06:28Z</time>
      </trkpt>
      <trkpt lat="43.33708" lon="3.53307">
        <ele>19.8</ele>
        <time>2025-06-17T11:06:29Z</time>
      </trkpt>
      <trkpt lat="43.33704" lon="3.53303">
        <ele>19.8</ele>
        <time>2025-06-17T11:06:30Z</time>
      </trkpt>
      <trkpt lat="43.337" lon="3.533">
        <ele>19.8</ele>
        <time>2025-06-17T11:06:31Z</time>
      </trkpt>
      <trkpt lat="43.33695" lon="3.53296">
        <ele>19.8</ele>
        <time>2025-06-17T11:06:32Z</time>
      </trkpt>
      <trkpt lat="43.33691" lon="3.53291">
        <ele>19.6</ele>
        <time>2025-06-17T11:06:33Z</time>
      </trkpt>
      <trkpt lat="43.33687" lon="3.53286">
        <ele>19.6</ele>
        <time>2025-06-17T11:06:34Z</time>
      </trkpt>
      <trkpt lat="43.33683" lon="3.53281">
        <ele>19.6</ele>
        <time>2025-06-17T11:06:35Z</time>
      </trkpt>
      <trkpt lat="43.33679" lon="3.53275">
        <ele>19.6</ele>
        <time>2025-06-17T11:06:36Z</time>
      </trkpt>
      <trkpt lat="43.33675" lon="3.53269">
        <ele>19.6</ele>
        <time>2025-06-17T11:06:37Z</time>
      </trkpt>
      <trkpt lat="43.33672" lon="3.53263">
        <ele>19.6</ele>
        <time>2025-06-17T11:06:38Z</time>
      </trkpt>
      <trkpt lat="43.33668" lon="3.53258">
        <ele>19.6</ele>
        <time>2025-06-17T11:06:39Z</time>
      </trkpt>
      <trkpt lat="43.33665" lon="3.53252">
        <ele>19.4</ele>
        <time>2025-06-17T11:06:40Z</time>
      </trkpt>
      <trkpt lat="43.33661" lon="3.53245">
        <ele>19.4</ele>
        <time>2025-06-17T11:06:41Z</time>
      </trkpt>
      <trkpt lat="43.33658" lon="3.53239">
        <ele>19.4</ele>
        <time>2025-06-17T11:06:42Z</time>
      </trkpt>
      <trkpt lat="43.33655" lon="3.53233">
        <ele>19.4</ele>
        <time>2025-06-17T11:06:43Z</time>
      </trkpt>
      <trkpt lat="43.33651" lon="3.53228">
        <ele>19.2</ele>
        <time>2025-06-17T11:06:44Z</time>
      </trkpt>
      <trkpt lat="43.33647" lon="3.53222">
        <ele>19.2</ele>
        <time>2025-06-17T11:06:45Z</time>
      </trkpt>
      <trkpt lat="43.33643" lon="3.53217">
        <ele>19.2</ele>
        <time>2025-06-17T11:06:46Z</time>
      </trkpt>
      <trkpt lat="43.33638" lon="3.53212">
        <ele>19.2</ele>
        <time>2025-06-17T11:06:47Z</time>
      </trkpt>
      <trkpt lat="43.33634" lon="3.53208">
        <ele>19.2</ele>
        <time>2025-06-17T11:06:48Z</time>
      </trkpt>
      <trkpt lat="43.3363" lon="3.53204">
        <ele>19.2</ele>
        <time>2025-06-17T11:06:49Z</time>
      </trkpt>
      <trkpt lat="43.33625" lon="3.532">
        <ele>19.2</ele>
        <time>2025-06-17T11:06:50Z</time>
      </trkpt>
      <trkpt lat="43.3362" lon="3.53196">
        <ele>19.2</ele>
        <time>2025-06-17T11:06:51Z</time>
      </trkpt>
      <trkpt lat="43.33616" lon="3.53192">
        <ele>19.2</ele>
        <time>2025-06-17T11:06:52Z</time>
      </trkpt>
      <trkpt lat="43.33611" lon="3.53187">
        <ele>19.2</ele>
        <time>2025-06-17T11:06:53Z</time>
      </trkpt>
      <trkpt lat="43.33606" lon="3.53183">
        <ele>19.2</ele>
        <time>2025-06-17T11:06:54Z</time>
      </trkpt>
      <trkpt lat="43.33602" lon="3.53179">
        <ele>19.2</ele>
        <time>2025-06-17T11:06:55Z</time>
      </trkpt>
      <trkpt lat="43.33598" lon="3.53175">
        <ele>19.2</ele>
        <time>2025-06-17T11:06:56Z</time>
      </trkpt>
      <trkpt lat="43.33593" lon="3.5317">
        <ele>19.4</ele>
        <time>2025-06-17T11:06:57Z</time>
      </trkpt>
      <trkpt lat="43.33589" lon="3.53166">
        <ele>19.4</ele>
        <time>2025-06-17T11:06:58Z</time>
      </trkpt>
      <trkpt lat="43.33584" lon="3.53162">
        <ele>19.2</ele>
        <time>2025-06-17T11:06:59Z</time>
      </trkpt>
      <trkpt lat="43.3358" lon="3.53158">
        <ele>19.2</ele>
        <time>2025-06-17T11:07:00Z</time>
      </trkpt>
      <trkpt lat="43.33575" lon="3.53153">
        <ele>19.2</ele>
        <time>2025-06-17T11:07:01Z</time>
      </trkpt>
      <trkpt lat="43.33572" lon="3.53149">
        <ele>19.2</ele>
        <time>2025-06-17T11:07:02Z</time>
      </trkpt>
      <trkpt lat="43.33568" lon="3.53145">
        <ele>19.2</ele>
        <time>2025-06-17T11:07:03Z</time>
      </trkpt>
      <trkpt lat="43.33564" lon="3.53141">
        <ele>19.2</ele>
        <time>2025-06-17T11:07:04Z</time>
      </trkpt>
      <trkpt lat="43.3356" lon="3.53137">
        <ele>19.2</ele>
        <time>2025-06-17T11:07:05Z</time>
      </trkpt>
      <trkpt lat="43.33556" lon="3.53133">
        <ele>19.2</ele>
        <time>2025-06-17T11:07:06Z</time>
      </trkpt>
      <trkpt lat="43.33553" lon="3.53129">
        <ele>19.2</ele>
        <time>2025-06-17T11:07:07Z</time>
      </trkpt>
      <trkpt lat="43.3355" lon="3.53124">
        <ele>19.2</ele>
        <time>2025-06-17T11:07:08Z</time>
      </trkpt>
      <trkpt lat="43.33546" lon="3.53119">
        <ele>19.2</ele>
        <time>2025-06-17T11:07:09Z</time>
      </trkpt>
      <trkpt lat="43.33542" lon="3.53116">
        <ele>19.2</ele>
        <time>2025-06-17T11:07:10Z</time>
      </trkpt>
      <trkpt lat="43.33538" lon="3.53114">
        <ele>19.2</ele>
        <time>2025-06-17T11:07:11Z</time>
      </trkpt>
      <trkpt lat="43.33534" lon="3.53114">
        <ele>19.2</ele>
        <time>2025-06-17T11:07:12Z</time>
      </trkpt>
      <trkpt lat="43.33531" lon="3.53115">
        <ele>19.2</ele>
        <time>2025-06-17T11:07:13Z</time>
      </trkpt>
      <trkpt lat="43.33527" lon="3.53119">
        <ele>19</ele>
        <time>2025-06-17T11:07:14Z</time>
      </trkpt>
      <trkpt lat="43.33524" lon="3.53122">
        <ele>19</ele>
        <time>2025-06-17T11:07:15Z</time>
      </trkpt>
      <trkpt lat="43.33519" lon="3.53125">
        <ele>19</ele>
        <time>2025-06-17T11:07:16Z</time>
      </trkpt>
      <trkpt lat="43.33515" lon="3.53127">
        <ele>18.8</ele>
        <time>2025-06-17T11:07:17Z</time>
      </trkpt>
      <trkpt lat="43.3351" lon="3.53128">
        <ele>18.8</ele>
        <time>2025-06-17T11:07:18Z</time>
      </trkpt>
      <trkpt lat="43.33506" lon="3.5313">
        <ele>18.8</ele>
        <time>2025-06-17T11:07:19Z</time>
      </trkpt>
      <trkpt lat="43.335" lon="3.53131">
        <ele>18.8</ele>
        <time>2025-06-17T11:07:20Z</time>
      </trkpt>
      <trkpt lat="43.33496" lon="3.53132">
        <ele>18.8</ele>
        <time>2025-06-17T11:07:21Z</time>
      </trkpt>
      <trkpt lat="43.33491" lon="3.53134">
        <ele>18.6</ele>
        <time>2025-06-17T11:07:22Z</time>
      </trkpt>
      <trkpt lat="43.33487" lon="3.53138">
        <ele>18.6</ele>
        <time>2025-06-17T11:07:23Z</time>
      </trkpt>
      <trkpt lat="43.33483" lon="3.53143">
        <ele>18.6</ele>
        <time>2025-06-17T11:07:24Z</time>
      </trkpt>
      <trkpt lat="43.33479" lon="3.53147">
        <ele>18.6</ele>
        <time>2025-06-17T11:07:25Z</time>
      </trkpt>
      <trkpt lat="43.33475" lon="3.53152">
        <ele>18.6</ele>
        <time>2025-06-17T11:07:26Z</time>
      </trkpt>
      <trkpt lat="43.3347" lon="3.53155">
        <ele>18.6</ele>
        <time>2025-06-17T11:07:27Z</time>
      </trkpt>
      <trkpt lat="43.33465" lon="3.53157">
        <ele>18.6</ele>
        <time>2025-06-17T11:07:28Z</time>
      </trkpt>
      <trkpt lat="43.3346" lon="3.53159">
        <ele>18.6</ele>
        <time>2025-06-17T11:07:29Z</time>
      </trkpt>
      <trkpt lat="43.33455" lon="3.53161">
        <ele>18.6</ele>
        <time>2025-06-17T11:07:30Z</time>
      </trkpt>
      <trkpt lat="43.3345" lon="3.53163">
        <ele>18.6</ele>
        <time>2025-06-17T11:07:31Z</time>
      </trkpt>
      <trkpt lat="43.33445" lon="3.53164">
        <ele>18.6</ele>
        <time>2025-06-17T11:07:32Z</time>
      </trkpt>
      <trkpt lat="43.3344" lon="3.53166">
        <ele>18.8</ele>
        <time>2025-06-17T11:07:33Z</time>
      </trkpt>
      <trkpt lat="43.33435" lon="3.53167">
        <ele>18.8</ele>
        <time>2025-06-17T11:07:34Z</time>
      </trkpt>
      <trkpt lat="43.3343" lon="3.53168">
        <ele>18.8</ele>
        <time>2025-06-17T11:07:35Z</time>
      </trkpt>
      <trkpt lat="43.33425" lon="3.53169">
        <ele>19</ele>
        <time>2025-06-17T11:07:36Z</time>
      </trkpt>
      <trkpt lat="43.3342" lon="3.5317">
        <ele>19</ele>
        <time>2025-06-17T11:07:37Z</time>
      </trkpt>
      <trkpt lat="43.33416" lon="3.53171">
        <ele>19</ele>
        <time>2025-06-17T11:07:38Z</time>
      </trkpt>
      <trkpt lat="43.33411" lon="3.53171">
        <ele>19</ele>
        <time>2025-06-17T11:07:39Z</time>
      </trkpt>
      <trkpt lat="43.33407" lon="3.53172">
        <ele>19</ele>
        <time>2025-06-17T11:07:40Z</time>
      </trkpt>
      <trkpt lat="43.33402" lon="3.53173">
        <ele>19</ele>
        <time>2025-06-17T11:07:41Z</time>
      </trkpt>
      <trkpt lat="43.33398" lon="3.53174">
        <ele>19</ele>
        <time>2025-06-17T11:07:42Z</time>
      </trkpt>
      <trkpt lat="43.33394" lon="3.53174">
        <ele>19</ele>
        <time>2025-06-17T11:07:43Z</time>
      </trkpt>
      <trkpt lat="43.3339" lon="3.53175">
        <ele>19.2</ele>
        <time>2025-06-17T11:07:44Z</time>
      </trkpt>
      <trkpt lat="43.33387" lon="3.53175">
        <ele>19.2</ele>
        <time>2025-06-17T11:07:45Z</time>
      </trkpt>
      <trkpt lat="43.33383" lon="3.53175">
        <ele>19.4</ele>
        <time>2025-06-17T11:07:46Z</time>
      </trkpt>
      <trkpt lat="43.33379" lon="3.53175">
        <ele>19.4</ele>
        <time>2025-06-17T11:07:47Z</time>
      </trkpt>
      <trkpt lat="43.33375" lon="3.53175">
        <ele>19.6</ele>
        <time>2025-06-17T11:07:48Z</time>
      </trkpt>
      <trkpt lat="43.33372" lon="3.53175">
        <ele>19.6</ele>
        <time>2025-06-17T11:07:49Z</time>
      </trkpt>
      <trkpt lat="43.33368" lon="3.53175">
        <ele>19.8</ele>
        <time>2025-06-17T11:07:50Z</time>
      </trkpt>
      <trkpt lat="43.33364" lon="3.53175">
        <ele>19.8</ele>
        <time>2025-06-17T11:07:51Z</time>
      </trkpt>
      <trkpt lat="43.33361" lon="3.53175">
        <ele>20</ele>
        <time>2025-06-17T11:07:52Z</time>
      </trkpt>
      <trkpt lat="43.33357" lon="3.53175">
        <ele>20</ele>
        <time>2025-06-17T11:07:53Z</time>
      </trkpt>
      <trkpt lat="43.33353" lon="3.53174">
        <ele>20</ele>
        <time>2025-06-17T11:07:54Z</time>
      </trkpt>
      <trkpt lat="43.3335" lon="3.53174">
        <ele>20</ele>
        <time>2025-06-17T11:07:55Z</time>
      </trkpt>
      <trkpt lat="43.33346" lon="3.53173">
        <ele>20</ele>
        <time>2025-06-17T11:07:56Z</time>
      </trkpt>
      <trkpt lat="43.33342" lon="3.53173">
        <ele>20</ele>
        <time>2025-06-17T11:07:57Z</time>
      </trkpt>
      <trkpt lat="43.33338" lon="3.53173">
        <ele>20</ele>
        <time>2025-06-17T11:07:58Z</time>
      </trkpt>
      <trkpt lat="43.33334" lon="3.53173">
        <ele>20</ele>
        <time>2025-06-17T11:07:59Z</time>
      </trkpt>
      <trkpt lat="43.33329" lon="3.53172">
        <ele>20</ele>
        <time>2025-06-17T11:08:00Z</time>
      </trkpt>
      <trkpt lat="43.33325" lon="3.53172">
        <ele>19.8</ele>
        <time>2025-06-17T11:08:01Z</time>
      </trkpt>
      <trkpt lat="43.33321" lon="3.53172">
        <ele>19.8</ele>
        <time>2025-06-17T11:08:02Z</time>
      </trkpt>
      <trkpt lat="43.33316" lon="3.53171">
        <ele>19.8</ele>
        <time>2025-06-17T11:08:03Z</time>
      </trkpt>
      <trkpt lat="43.33311" lon="3.5317">
        <ele>19.6</ele>
        <time>2025-06-17T11:08:04Z</time>
      </trkpt>
      <trkpt lat="43.33306" lon="3.53169">
        <ele>19.6</ele>
        <time>2025-06-17T11:08:05Z</time>
      </trkpt>
      <trkpt lat="43.33302" lon="3.53167">
        <ele>19.4</ele>
        <time>2025-06-17T11:08:06Z</time>
      </trkpt>
      <trkpt lat="43.33296" lon="3.53165">
        <ele>19.2</ele>
        <time>2025-06-17T11:08:07Z</time>
      </trkpt>
      <trkpt lat="43.3329" lon="3.53165">
        <ele>19.2</ele>
        <time>2025-06-17T11:08:08Z</time>
      </trkpt>
      <trkpt lat="43.33285" lon="3.53165">
        <ele>19</ele>
        <time>2025-06-17T11:08:09Z</time>
      </trkpt>
      <trkpt lat="43.33279" lon="3.53165">
        <ele>18.8</ele>
        <time>2025-06-17T11:08:10Z</time>
      </trkpt>
      <trkpt lat="43.33274" lon="3.53165">
        <ele>18.8</ele>
        <time>2025-06-17T11:08:11Z</time>
      </trkpt>
      <trkpt lat="43.33269" lon="3.53166">
        <ele>18.8</ele>
        <time>2025-06-17T11:08:12Z</time>
      </trkpt>
      <trkpt lat="43.33263" lon="3.53167">
        <ele>18.6</ele>
        <time>2025-06-17T11:08:13Z</time>
      </trkpt>
      <trkpt lat="43.33258" lon="3.53168">
        <ele>18.6</ele>
        <time>2025-06-17T11:08:14Z</time>
      </trkpt>
      <trkpt lat="43.33253" lon="3.53168">
        <ele>18.6</ele>
        <time>2025-06-17T11:08:15Z</time>
      </trkpt>
      <trkpt lat="43.33247" lon="3.53169">
        <ele>18.6</ele>
        <time>2025-06-17T11:08:16Z</time>
      </trkpt>
      <trkpt lat="43.33242" lon="3.5317">
        <ele>18.6</ele>
        <time>2025-06-17T11:08:17Z</time>
      </trkpt>
      <trkpt lat="43.33237" lon="3.53171">
        <ele>18.4</ele>
        <time>2025-06-17T11:08:18Z</time>
      </trkpt>
      <trkpt lat="43.33232" lon="3.53173">
        <ele>18.4</ele>
        <time>2025-06-17T11:08:19Z</time>
      </trkpt>
      <trkpt lat="43.33227" lon="3.53174">
        <ele>18.4</ele>
        <time>2025-06-17T11:08:20Z</time>
      </trkpt>
      <trkpt lat="43.33221" lon="3.53175">
        <ele>18.4</ele>
        <time>2025-06-17T11:08:21Z</time>
      </trkpt>
      <trkpt lat="43.33216" lon="3.53177">
        <ele>18.2</ele>
        <time>2025-06-17T11:08:22Z</time>
      </trkpt>
      <trkpt lat="43.33211" lon="3.53179">
        <ele>18.2</ele>
        <time>2025-06-17T11:08:23Z</time>
      </trkpt>
      <trkpt lat="43.33207" lon="3.5318">
        <ele>18.2</ele>
        <time>2025-06-17T11:08:24Z</time>
      </trkpt>
      <trkpt lat="43.33202" lon="3.53182">
        <ele>18.2</ele>
        <time>2025-06-17T11:08:25Z</time>
      </trkpt>
      <trkpt lat="43.33197" lon="3.53183">
        <ele>18.2</ele>
        <time>2025-06-17T11:08:26Z</time>
      </trkpt>
      <trkpt lat="43.33192" lon="3.53185">
        <ele>18.4</ele>
        <time>2025-06-17T11:08:27Z</time>
      </trkpt>
      <trkpt lat="43.33187" lon="3.53187">
        <ele>18.4</ele>
        <time>2025-06-17T11:08:28Z</time>
      </trkpt>
      <trkpt lat="43.33182" lon="3.53188">
        <ele>18.4</ele>
        <time>2025-06-17T11:08:29Z</time>
      </trkpt>
      <trkpt lat="43.33177" lon="3.53189">
        <ele>18.6</ele>
        <time>2025-06-17T11:08:30Z</time>
      </trkpt>
      <trkpt lat="43.33172" lon="3.53191">
        <ele>18.6</ele>
        <time>2025-06-17T11:08:31Z</time>
      </trkpt>
      <trkpt lat="43.33167" lon="3.53192">
        <ele>18.6</ele>
        <time>2025-06-17T11:08:32Z</time>
      </trkpt>
      <trkpt lat="43.33162" lon="3.53193">
        <ele>18.6</ele>
        <time>2025-06-17T11:08:33Z</time>
      </trkpt>
      <trkpt lat="43.33157" lon="3.53194">
        <ele>18.6</ele>
        <time>2025-06-17T11:08:34Z</time>
      </trkpt>
      <trkpt lat="43.33152" lon="3.53196">
        <ele>18.6</ele>
        <time>2025-06-17T11:08:35Z</time>
      </trkpt>
      <trkpt lat="43.33147" lon="3.53197">
        <ele>18.8</ele>
        <time>2025-06-17T11:08:36Z</time>
      </trkpt>
      <trkpt lat="43.33142" lon="3.53199">
        <ele>18.8</ele>
        <time>2025-06-17T11:08:37Z</time>
      </trkpt>
      <trkpt lat="43.33137" lon="3.532">
        <ele>18.8</ele>
        <time>2025-06-17T11:08:38Z</time>
      </trkpt>
      <trkpt lat="43.33132" lon="3.53202">
        <ele>18.8</ele>
        <time>2025-06-17T11:08:39Z</time>
      </trkpt>
      <trkpt lat="43.33126" lon="3.53203">
        <ele>18.8</ele>
        <time>2025-06-17T11:08:40Z</time>
      </trkpt>
      <trkpt lat="43.33121" lon="3.53204">
        <ele>18.8</ele>
        <time>2025-06-17T11:08:41Z</time>
      </trkpt>
      <trkpt lat="43.33116" lon="3.53204">
        <ele>18.8</ele>
        <time>2025-06-17T11:08:42Z</time>
      </trkpt>
      <trkpt lat="43.33111" lon="3.53205">
        <ele>18.8</ele>
        <time>2025-06-17T11:08:43Z</time>
      </trkpt>
      <trkpt lat="43.33105" lon="3.53206">
        <ele>18.8</ele>
        <time>2025-06-17T11:08:44Z</time>
      </trkpt>
      <trkpt lat="43.33101" lon="3.53206">
        <ele>18.8</ele>
        <time>2025-06-17T11:08:45Z</time>
      </trkpt>
      <trkpt lat="43.33096" lon="3.53206">
        <ele>18.6</ele>
        <time>2025-06-17T11:08:46Z</time>
      </trkpt>
      <trkpt lat="43.33091" lon="3.53206">
        <ele>18.8</ele>
        <time>2025-06-17T11:08:47Z</time>
      </trkpt>
      <trkpt lat="43.33087" lon="3.53207">
        <ele>18.8</ele>
        <time>2025-06-17T11:08:48Z</time>
      </trkpt>
      <trkpt lat="43.33082" lon="3.53207">
        <ele>18.8</ele>
        <time>2025-06-17T11:08:49Z</time>
      </trkpt>
      <trkpt lat="43.33077" lon="3.53207">
        <ele>18.8</ele>
        <time>2025-06-17T11:08:50Z</time>
      </trkpt>
      <trkpt lat="43.33072" lon="3.53208">
        <ele>18.8</ele>
        <time>2025-06-17T11:08:51Z</time>
      </trkpt>
      <trkpt lat="43.33068" lon="3.53208">
        <ele>18.8</ele>
        <time>2025-06-17T11:08:52Z</time>
      </trkpt>
      <trkpt lat="43.33063" lon="3.53209">
        <ele>18.8</ele>
        <time>2025-06-17T11:08:53Z</time>
      </trkpt>
      <trkpt lat="43.33058" lon="3.53209">
        <ele>18.8</ele>
        <time>2025-06-17T11:08:54Z</time>
      </trkpt>
      <trkpt lat="43.33053" lon="3.5321">
        <ele>18.8</ele>
        <time>2025-06-17T11:08:55Z</time>
      </trkpt>
      <trkpt lat="43.33048" lon="3.5321">
        <ele>18.6</ele>
        <time>2025-06-17T11:08:56Z</time>
      </trkpt>
      <trkpt lat="43.33044" lon="3.53211">
        <ele>18.6</ele>
        <time>2025-06-17T11:08:57Z</time>
      </trkpt>
      <trkpt lat="43.33039" lon="3.53211">
        <ele>18.6</ele>
        <time>2025-06-17T11:08:58Z</time>
      </trkpt>
      <trkpt lat="43.33034" lon="3.53211">
        <ele>18.6</ele>
        <time>2025-06-17T11:08:59Z</time>
      </trkpt>
      <trkpt lat="43.33029" lon="3.53211">
        <ele>18.6</ele>
        <time>2025-06-17T11:09:00Z</time>
      </trkpt>
      <trkpt lat="43.33024" lon="3.53211">
        <ele>18.6</ele>
        <time>2025-06-17T11:09:01Z</time>
      </trkpt>
      <trkpt lat="43.3302" lon="3.53212">
        <ele>18.6</ele>
        <time>2025-06-17T11:09:02Z</time>
      </trkpt>
      <trkpt lat="43.33015" lon="3.53212">
        <ele>18.6</ele>
        <time>2025-06-17T11:09:03Z</time>
      </trkpt>
      <trkpt lat="43.3301" lon="3.53212">
        <ele>18.6</ele>
        <time>2025-06-17T11:09:04Z</time>
      </trkpt>
      <trkpt lat="43.33005" lon="3.53212">
        <ele>18.6</ele>
        <time>2025-06-17T11:09:05Z</time>
      </trkpt>
      <trkpt lat="43.33" lon="3.53213">
        <ele>18.6</ele>
        <time>2025-06-17T11:09:06Z</time>
      </trkpt>
      <trkpt lat="43.32996" lon="3.53213">
        <ele>18.4</ele>
        <time>2025-06-17T11:09:07Z</time>
      </trkpt>
      <trkpt lat="43.3299" lon="3.53213">
        <ele>18.4</ele>
        <time>2025-06-17T11:09:08Z</time>
      </trkpt>
      <trkpt lat="43.32986" lon="3.53213">
        <ele>18.4</ele>
        <time>2025-06-17T11:09:09Z</time>
      </trkpt>
      <trkpt lat="43.32981" lon="3.53212">
        <ele>18.4</ele>
        <time>2025-06-17T11:09:10Z</time>
      </trkpt>
      <trkpt lat="43.32976" lon="3.53212">
        <ele>18.4</ele>
        <time>2025-06-17T11:09:11Z</time>
      </trkpt>
      <trkpt lat="43.32971" lon="3.53212">
        <ele>18.4</ele>
        <time>2025-06-17T11:09:12Z</time>
      </trkpt>
      <trkpt lat="43.32966" lon="3.53212">
        <ele>18.4</ele>
        <time>2025-06-17T11:09:13Z</time>
      </trkpt>
      <trkpt lat="43.32961" lon="3.53211">
        <ele>18.4</ele>
        <time>2025-06-17T11:09:14Z</time>
      </trkpt>
      <trkpt lat="43.32956" lon="3.53211">
        <ele>18.4</ele>
        <time>2025-06-17T11:09:15Z</time>
      </trkpt>
      <trkpt lat="43.32951" lon="3.53211">
        <ele>18.4</ele>
        <time>2025-06-17T11:09:16Z</time>
      </trkpt>
      <trkpt lat="43.32946" lon="3.5321">
        <ele>18.6</ele>
        <time>2025-06-17T11:09:17Z</time>
      </trkpt>
      <trkpt lat="43.32941" lon="3.53209">
        <ele>18.6</ele>
        <time>2025-06-17T11:09:18Z</time>
      </trkpt>
      <trkpt lat="43.32936" lon="3.53209">
        <ele>18.6</ele>
        <time>2025-06-17T11:09:19Z</time>
      </trkpt>
      <trkpt lat="43.32932" lon="3.53209">
        <ele>18.6</ele>
        <time>2025-06-17T11:09:20Z</time>
      </trkpt>
      <trkpt lat="43.32927" lon="3.53209">
        <ele>18.6</ele>
        <time>2025-06-17T11:09:21Z</time>
      </trkpt>
      <trkpt lat="43.32922" lon="3.53209">
        <ele>18.6</ele>
        <time>2025-06-17T11:09:22Z</time>
      </trkpt>
      <trkpt lat="43.32918" lon="3.53209">
        <ele>18.6</ele>
        <time>2025-06-17T11:09:23Z</time>
      </trkpt>
      <trkpt lat="43.32912" lon="3.53208">
        <ele>18.6</ele>
        <time>2025-06-17T11:09:24Z</time>
      </trkpt>
      <trkpt lat="43.32908" lon="3.53208">
        <ele>18.4</ele>
        <time>2025-06-17T11:09:25Z</time>
      </trkpt>
      <trkpt lat="43.32903" lon="3.53207">
        <ele>18.4</ele>
        <time>2025-06-17T11:09:26Z</time>
      </trkpt>
      <trkpt lat="43.32898" lon="3.53206">
        <ele>18.4</ele>
        <time>2025-06-17T11:09:27Z</time>
      </trkpt>
      <trkpt lat="43.32893" lon="3.53204">
        <ele>18.4</ele>
        <time>2025-06-17T11:09:28Z</time>
      </trkpt>
      <trkpt lat="43.32889" lon="3.53202">
        <ele>18.4</ele>
        <time>2025-06-17T11:09:29Z</time>
      </trkpt>
      <trkpt lat="43.32884" lon="3.53201">
        <ele>18.4</ele>
        <time>2025-06-17T11:09:30Z</time>
      </trkpt>
      <trkpt lat="43.3288" lon="3.53198">
        <ele>18.4</ele>
        <time>2025-06-17T11:09:31Z</time>
      </trkpt>
      <trkpt lat="43.32875" lon="3.53196">
        <ele>18.4</ele>
        <time>2025-06-17T11:09:32Z</time>
      </trkpt>
      <trkpt lat="43.32871" lon="3.53194">
        <ele>18.4</ele>
        <time>2025-06-17T11:09:33Z</time>
      </trkpt>
      <trkpt lat="43.32866" lon="3.53191">
        <ele>18.4</ele>
        <time>2025-06-17T11:09:34Z</time>
      </trkpt>
      <trkpt lat="43.32862" lon="3.53189">
        <ele>18.4</ele>
        <time>2025-06-17T11:09:35Z</time>
      </trkpt>
      <trkpt lat="43.32857" lon="3.53187">
        <ele>18.4</ele>
        <time>2025-06-17T11:09:36Z</time>
      </trkpt>
      <trkpt lat="43.32853" lon="3.53184">
        <ele>18.4</ele>
        <time>2025-06-17T11:09:37Z</time>
      </trkpt>
      <trkpt lat="43.32848" lon="3.53182">
        <ele>18.4</ele>
        <time>2025-06-17T11:09:38Z</time>
      </trkpt>
      <trkpt lat="43.32844" lon="3.5318">
        <ele>18.4</ele>
        <time>2025-06-17T11:09:39Z</time>
      </trkpt>
      <trkpt lat="43.32839" lon="3.53178">
        <ele>18.2</ele>
        <time>2025-06-17T11:09:40Z</time>
      </trkpt>
      <trkpt lat="43.32835" lon="3.53176">
        <ele>18.2</ele>
        <time>2025-06-17T11:09:41Z</time>
      </trkpt>
      <trkpt lat="43.32831" lon="3.53173">
        <ele>18.2</ele>
        <time>2025-06-17T11:09:42Z</time>
      </trkpt>
      <trkpt lat="43.32828" lon="3.53171">
        <ele>18.2</ele>
        <time>2025-06-17T11:09:43Z</time>
      </trkpt>
      <trkpt lat="43.32824" lon="3.53169">
        <ele>18</ele>
        <time>2025-06-17T11:09:44Z</time>
      </trkpt>
      <trkpt lat="43.32821" lon="3.53167">
        <ele>18</ele>
        <time>2025-06-17T11:09:45Z</time>
      </trkpt>
      <trkpt lat="43.32818" lon="3.53165">
        <ele>18</ele>
        <time>2025-06-17T11:09:46Z</time>
      </trkpt>
      <trkpt lat="43.32815" lon="3.53164">
        <ele>18</ele>
        <time>2025-06-17T11:09:47Z</time>
      </trkpt>
      <trkpt lat="43.32812" lon="3.53162">
        <ele>18.2</ele>
        <time>2025-06-17T11:09:48Z</time>
      </trkpt>
      <trkpt lat="43.32809" lon="3.5316">
        <ele>18.2</ele>
        <time>2025-06-17T11:09:49Z</time>
      </trkpt>
      <trkpt lat="43.32806" lon="3.53158">
        <ele>18.2</ele>
        <time>2025-06-17T11:09:50Z</time>
      </trkpt>
      <trkpt lat="43.32803" lon="3.53157">
        <ele>18.2</ele>
        <time>2025-06-17T11:09:51Z</time>
      </trkpt>
      <trkpt lat="43.32799" lon="3.53155">
        <ele>18.2</ele>
        <time>2025-06-17T11:09:52Z</time>
      </trkpt>
      <trkpt lat="43.32795" lon="3.53153">
        <ele>18.2</ele>
        <time>2025-06-17T11:09:53Z</time>
      </trkpt>
      <trkpt lat="43.32792" lon="3.53151">
        <ele>18.2</ele>
        <time>2025-06-17T11:09:54Z</time>
      </trkpt>
      <trkpt lat="43.32789" lon="3.53149">
        <ele>18.2</ele>
        <time>2025-06-17T11:09:55Z</time>
      </trkpt>
      <trkpt lat="43.32785" lon="3.53148">
        <ele>18.4</ele>
        <time>2025-06-17T11:09:56Z</time>
      </trkpt>
      <trkpt lat="43.32782" lon="3.53146">
        <ele>18.4</ele>
        <time>2025-06-17T11:09:57Z</time>
      </trkpt>
      <trkpt lat="43.32778" lon="3.53145">
        <ele>18.4</ele>
        <time>2025-06-17T11:09:58Z</time>
      </trkpt>
      <trkpt lat="43.32774" lon="3.53143">
        <ele>18.4</ele>
        <time>2025-06-17T11:09:59Z</time>
      </trkpt>
      <trkpt lat="43.32771" lon="3.53141">
        <ele>18.4</ele>
        <time>2025-06-17T11:10:00Z</time>
      </trkpt>
      <trkpt lat="43.32768" lon="3.5314">
        <ele>18.4</ele>
        <time>2025-06-17T11:10:01Z</time>
      </trkpt>
      <trkpt lat="43.32764" lon="3.53138">
        <ele>18.4</ele>
        <time>2025-06-17T11:10:02Z</time>
      </trkpt>
      <trkpt lat="43.32761" lon="3.53137">
        <ele>18.4</ele>
        <time>2025-06-17T11:10:03Z</time>
      </trkpt>
      <trkpt lat="43.32758" lon="3.53135">
        <ele>18.6</ele>
        <time>2025-06-17T11:10:04Z</time>
      </trkpt>
      <trkpt lat="43.32755" lon="3.53134">
        <ele>18.6</ele>
        <time>2025-06-17T11:10:05Z</time>
      </trkpt>
      <trkpt lat="43.32752" lon="3.53132">
        <ele>18.6</ele>
        <time>2025-06-17T11:10:06Z</time>
      </trkpt>
      <trkpt lat="43.32749" lon="3.53131">
        <ele>18.4</ele>
        <time>2025-06-17T11:10:07Z</time>
      </trkpt>
      <trkpt lat="43.32746" lon="3.5313">
        <ele>18.4</ele>
        <time>2025-06-17T11:10:08Z</time>
      </trkpt>
      <trkpt lat="43.32745" lon="3.53129">
        <ele>18.6</ele>
        <time>2025-06-17T11:10:09Z</time>
      </trkpt>
      <trkpt lat="43.3274" lon="3.53127">
        <ele>18.8</ele>
        <time>2025-06-17T11:11:40Z</time>
      </trkpt>
      <trkpt lat="43.32738" lon="3.53126">
        <ele>18.8</ele>
        <time>2025-06-17T11:11:41Z</time>
      </trkpt>
      <trkpt lat="43.32736" lon="3.53124">
        <ele>18.8</ele>
        <time>2025-06-17T11:11:42Z</time>
      </trkpt>
      <trkpt lat="43.32734" lon="3.53123">
        <ele>18.8</ele>
        <time>2025-06-17T11:11:43Z</time>
      </trkpt>
      <trkpt lat="43.32731" lon="3.53122">
        <ele>18.8</ele>
        <time>2025-06-17T11:11:44Z</time>
      </trkpt>
      <trkpt lat="43.32727" lon="3.5312">
        <ele>18.8</ele>
        <time>2025-06-17T11:11:45Z</time>
      </trkpt>
      <trkpt lat="43.32724" lon="3.53119">
        <ele>18.8</ele>
        <time>2025-06-17T11:11:46Z</time>
      </trkpt>
      <trkpt lat="43.3272" lon="3.53117">
        <ele>18.8</ele>
        <time>2025-06-17T11:11:47Z</time>
      </trkpt>
      <trkpt lat="43.32716" lon="3.53115">
        <ele>19</ele>
        <time>2025-06-17T11:11:48Z</time>
      </trkpt>
      <trkpt lat="43.32712" lon="3.53114">
        <ele>19</ele>
        <time>2025-06-17T11:11:49Z</time>
      </trkpt>
      <trkpt lat="43.32708" lon="3.53112">
        <ele>19</ele>
        <time>2025-06-17T11:11:50Z</time>
      </trkpt>
      <trkpt lat="43.32703" lon="3.53111">
        <ele>19</ele>
        <time>2025-06-17T11:11:51Z</time>
      </trkpt>
      <trkpt lat="43.32699" lon="3.5311">
        <ele>19.2</ele>
        <time>2025-06-17T11:11:52Z</time>
      </trkpt>
      <trkpt lat="43.32695" lon="3.53109">
        <ele>19.2</ele>
        <time>2025-06-17T11:11:53Z</time>
      </trkpt>
      <trkpt lat="43.32691" lon="3.53107">
        <ele>19.2</ele>
        <time>2025-06-17T11:11:54Z</time>
      </trkpt>
      <trkpt lat="43.32686" lon="3.53106">
        <ele>19.2</ele>
        <time>2025-06-17T11:11:55Z</time>
      </trkpt>
      <trkpt lat="43.32682" lon="3.53105">
        <ele>19.2</ele>
        <time>2025-06-17T11:11:56Z</time>
      </trkpt>
      <trkpt lat="43.32678" lon="3.53104">
        <ele>19</ele>
        <time>2025-06-17T11:11:57Z</time>
      </trkpt>
      <trkpt lat="43.32673" lon="3.53102">
        <ele>19</ele>
        <time>2025-06-17T11:11:58Z</time>
      </trkpt>
      <trkpt lat="43.32669" lon="3.53101">
        <ele>19</ele>
        <time>2025-06-17T11:11:59Z</time>
      </trkpt>
      <trkpt lat="43.32665" lon="3.531">
        <ele>19</ele>
        <time>2025-06-17T11:12:00Z</time>
      </trkpt>
      <trkpt lat="43.32661" lon="3.53099">
        <ele>19</ele>
        <time>2025-06-17T11:12:01Z</time>
      </trkpt>
      <trkpt lat="43.32657" lon="3.53098">
        <ele>19</ele>
        <time>2025-06-17T11:12:02Z</time>
      </trkpt>
      <trkpt lat="43.32652" lon="3.53097">
        <ele>18.8</ele>
        <time>2025-06-17T11:12:03Z</time>
      </trkpt>
      <trkpt lat="43.32647" lon="3.53096">
        <ele>18.8</ele>
        <time>2025-06-17T11:12:04Z</time>
      </trkpt>
      <trkpt lat="43.32643" lon="3.53095">
        <ele>18.8</ele>
        <time>2025-06-17T11:12:05Z</time>
      </trkpt>
      <trkpt lat="43.32638" lon="3.53095">
        <ele>18.8</ele>
        <time>2025-06-17T11:12:06Z</time>
      </trkpt>
      <trkpt lat="43.32633" lon="3.53094">
        <ele>18.6</ele>
        <time>2025-06-17T11:12:07Z</time>
      </trkpt>
      <trkpt lat="43.32628" lon="3.53094">
        <ele>18.6</ele>
        <time>2025-06-17T11:12:08Z</time>
      </trkpt>
      <trkpt lat="43.32623" lon="3.53094">
        <ele>18.6</ele>
        <time>2025-06-17T11:12:09Z</time>
      </trkpt>
      <trkpt lat="43.32619" lon="3.53094">
        <ele>18.6</ele>
        <time>2025-06-17T11:12:10Z</time>
      </trkpt>
      <trkpt lat="43.32614" lon="3.53094">
        <ele>18.6</ele>
        <time>2025-06-17T11:12:11Z</time>
      </trkpt>
      <trkpt lat="43.32609" lon="3.53095">
        <ele>18.6</ele>
        <time>2025-06-17T11:12:12Z</time>
      </trkpt>
      <trkpt lat="43.32604" lon="3.53095">
        <ele>18.6</ele>
        <time>2025-06-17T11:12:13Z</time>
      </trkpt>
      <trkpt lat="43.32599" lon="3.53096">
        <ele>18.6</ele>
        <time>2025-06-17T11:12:14Z</time>
      </trkpt>
      <trkpt lat="43.32594" lon="3.53096">
        <ele>18.6</ele>
        <time>2025-06-17T11:12:15Z</time>
      </trkpt>
      <trkpt lat="43.32589" lon="3.53097">
        <ele>18.6</ele>
        <time>2025-06-17T11:12:16Z</time>
      </trkpt>
      <trkpt lat="43.32584" lon="3.53098">
        <ele>18.6</ele>
        <time>2025-06-17T11:12:17Z</time>
      </trkpt>
      <trkpt lat="43.3258" lon="3.53098">
        <ele>18.6</ele>
        <time>2025-06-17T11:12:18Z</time>
      </trkpt>
      <trkpt lat="43.32575" lon="3.53099">
        <ele>18.6</ele>
        <time>2025-06-17T11:12:19Z</time>
      </trkpt>
      <trkpt lat="43.3257" lon="3.531">
        <ele>18.6</ele>
        <time>2025-06-17T11:12:20Z</time>
      </trkpt>
      <trkpt lat="43.32566" lon="3.531">
        <ele>18.6</ele>
        <time>2025-06-17T11:12:21Z</time>
      </trkpt>
      <trkpt lat="43.32562" lon="3.53101">
        <ele>18.6</ele>
        <time>2025-06-17T11:12:22Z</time>
      </trkpt>
      <trkpt lat="43.32557" lon="3.53101">
        <ele>18.6</ele>
        <time>2025-06-17T11:12:23Z</time>
      </trkpt>
      <trkpt lat="43.32553" lon="3.53102">
        <ele>18.6</ele>
        <time>2025-06-17T11:12:24Z</time>
      </trkpt>
      <trkpt lat="43.32548" lon="3.53102">
        <ele>18.8</ele>
        <time>2025-06-17T11:12:25Z</time>
      </trkpt>
      <trkpt lat="43.32544" lon="3.53103">
        <ele>18.8</ele>
        <time>2025-06-17T11:12:26Z</time>
      </trkpt>
      <trkpt lat="43.32539" lon="3.53103">
        <ele>18.8</ele>
        <time>2025-06-17T11:12:27Z</time>
      </trkpt>
      <trkpt lat="43.32535" lon="3.53104">
        <ele>18.6</ele>
        <time>2025-06-17T11:12:28Z</time>
      </trkpt>
      <trkpt lat="43.3253" lon="3.53104">
        <ele>18.6</ele>
        <time>2025-06-17T11:12:29Z</time>
      </trkpt>
      <trkpt lat="43.32525" lon="3.53105">
        <ele>18.6</ele>
        <time>2025-06-17T11:12:30Z</time>
      </trkpt>
      <trkpt lat="43.3252" lon="3.53106">
        <ele>18.6</ele>
        <time>2025-06-17T11:12:31Z</time>
      </trkpt>
      <trkpt lat="43.32516" lon="3.53106">
        <ele>18.4</ele>
        <time>2025-06-17T11:12:32Z</time>
      </trkpt>
      <trkpt lat="43.32511" lon="3.53107">
        <ele>18.4</ele>
        <time>2025-06-17T11:12:33Z</time>
      </trkpt>
      <trkpt lat="43.32507" lon="3.53107">
        <ele>18.4</ele>
        <time>2025-06-17T11:12:34Z</time>
      </trkpt>
      <trkpt lat="43.32502" lon="3.53108">
        <ele>18.6</ele>
        <time>2025-06-17T11:12:35Z</time>
      </trkpt>
      <trkpt lat="43.32497" lon="3.53109">
        <ele>18.6</ele>
        <time>2025-06-17T11:12:36Z</time>
      </trkpt>
      <trkpt lat="43.32493" lon="3.5311">
        <ele>18.4</ele>
        <time>2025-06-17T11:12:37Z</time>
      </trkpt>
      <trkpt lat="43.32488" lon="3.53111">
        <ele>18.4</ele>
        <time>2025-06-17T11:12:38Z</time>
      </trkpt>
      <trkpt lat="43.32483" lon="3.53112">
        <ele>18.4</ele>
        <time>2025-06-17T11:12:39Z</time>
      </trkpt>
      <trkpt lat="43.32479" lon="3.53113">
        <ele>18.4</ele>
        <time>2025-06-17T11:12:40Z</time>
      </trkpt>
      <trkpt lat="43.32475" lon="3.53114">
        <ele>18.4</ele>
        <time>2025-06-17T11:12:41Z</time>
      </trkpt>
      <trkpt lat="43.3247" lon="3.53115">
        <ele>18.4</ele>
        <time>2025-06-17T11:12:42Z</time>
      </trkpt>
      <trkpt lat="43.32466" lon="3.53116">
        <ele>18.4</ele>
        <time>2025-06-17T11:12:43Z</time>
      </trkpt>
      <trkpt lat="43.32462" lon="3.53117">
        <ele>18.4</ele>
        <time>2025-06-17T11:12:44Z</time>
      </trkpt>
      <trkpt lat="43.32457" lon="3.53117">
        <ele>18.6</ele>
        <time>2025-06-17T11:12:45Z</time>
      </trkpt>
      <trkpt lat="43.32452" lon="3.53117">
        <ele>18.4</ele>
        <time>2025-06-17T11:12:46Z</time>
      </trkpt>
      <trkpt lat="43.32448" lon="3.53117">
        <ele>18.6</ele>
        <time>2025-06-17T11:12:47Z</time>
      </trkpt>
      <trkpt lat="43.32444" lon="3.53117">
        <ele>18.6</ele>
        <time>2025-06-17T11:12:48Z</time>
      </trkpt>
      <trkpt lat="43.32439" lon="3.53117">
        <ele>18.6</ele>
        <time>2025-06-17T11:12:49Z</time>
      </trkpt>
      <trkpt lat="43.32435" lon="3.53116">
        <ele>18.6</ele>
        <time>2025-06-17T11:12:50Z</time>
      </trkpt>
      <trkpt lat="43.3243" lon="3.53116">
        <ele>18.8</ele>
        <time>2025-06-17T11:12:51Z</time>
      </trkpt>
      <trkpt lat="43.32426" lon="3.53116">
        <ele>18.8</ele>
        <time>2025-06-17T11:12:52Z</time>
      </trkpt>
      <trkpt lat="43.32421" lon="3.53116">
        <ele>18.8</ele>
        <time>2025-06-17T11:12:53Z</time>
      </trkpt>
      <trkpt lat="43.32417" lon="3.53116">
        <ele>18.8</ele>
        <time>2025-06-17T11:12:54Z</time>
      </trkpt>
      <trkpt lat="43.32412" lon="3.53117">
        <ele>18.8</ele>
        <time>2025-06-17T11:12:55Z</time>
      </trkpt>
      <trkpt lat="43.32407" lon="3.53117">
        <ele>18.8</ele>
        <time>2025-06-17T11:12:56Z</time>
      </trkpt>
      <trkpt lat="43.32402" lon="3.53117">
        <ele>19</ele>
        <time>2025-06-17T11:12:57Z</time>
      </trkpt>
      <trkpt lat="43.32398" lon="3.53117">
        <ele>19</ele>
        <time>2025-06-17T11:12:58Z</time>
      </trkpt>
      <trkpt lat="43.32393" lon="3.53117">
        <ele>19</ele>
        <time>2025-06-17T11:12:59Z</time>
      </trkpt>
      <trkpt lat="43.32388" lon="3.53117">
        <ele>19</ele>
        <time>2025-06-17T11:13:00Z</time>
      </trkpt>
      <trkpt lat="43.32383" lon="3.53118">
        <ele>19</ele>
        <time>2025-06-17T11:13:01Z</time>
      </trkpt>
      <trkpt lat="43.32379" lon="3.53118">
        <ele>19</ele>
        <time>2025-06-17T11:13:02Z</time>
      </trkpt>
      <trkpt lat="43.32374" lon="3.53119">
        <ele>19</ele>
        <time>2025-06-17T11:13:03Z</time>
      </trkpt>
      <trkpt lat="43.32369" lon="3.53119">
        <ele>19</ele>
        <time>2025-06-17T11:13:04Z</time>
      </trkpt>
      <trkpt lat="43.32364" lon="3.53119">
        <ele>19</ele>
        <time>2025-06-17T11:13:05Z</time>
      </trkpt>
      <trkpt lat="43.32359" lon="3.53119">
        <ele>19</ele>
        <time>2025-06-17T11:13:06Z</time>
      </trkpt>
      <trkpt lat="43.32354" lon="3.5312">
        <ele>19</ele>
        <time>2025-06-17T11:13:07Z</time>
      </trkpt>
      <trkpt lat="43.32349" lon="3.5312">
        <ele>19</ele>
        <time>2025-06-17T11:13:08Z</time>
      </trkpt>
      <trkpt lat="43.32344" lon="3.5312">
        <ele>18.8</ele>
        <time>2025-06-17T11:13:09Z</time>
      </trkpt>
      <trkpt lat="43.3234" lon="3.5312">
        <ele>18.8</ele>
        <time>2025-06-17T11:13:10Z</time>
      </trkpt>
      <trkpt lat="43.32335" lon="3.5312">
        <ele>18.8</ele>
        <time>2025-06-17T11:13:11Z</time>
      </trkpt>
      <trkpt lat="43.3233" lon="3.53121">
        <ele>18.8</ele>
        <time>2025-06-17T11:13:12Z</time>
      </trkpt>
      <trkpt lat="43.32325" lon="3.53121">
        <ele>18.6</ele>
        <time>2025-06-17T11:13:13Z</time>
      </trkpt>
      <trkpt lat="43.32321" lon="3.53121">
        <ele>18.6</ele>
        <time>2025-06-17T11:13:14Z</time>
      </trkpt>
      <trkpt lat="43.32316" lon="3.53121">
        <ele>18.6</ele>
        <time>2025-06-17T11:13:15Z</time>
      </trkpt>
      <trkpt lat="43.32312" lon="3.53122">
        <ele>18.4</ele>
        <time>2025-06-17T11:13:16Z</time>
      </trkpt>
      <trkpt lat="43.32307" lon="3.53122">
        <ele>18.4</ele>
        <time>2025-06-17T11:13:17Z</time>
      </trkpt>
      <trkpt lat="43.32303" lon="3.53122">
        <ele>18.4</ele>
        <time>2025-06-17T11:13:18Z</time>
      </trkpt>
      <trkpt lat="43.32298" lon="3.53122">
        <ele>18.4</ele>
        <time>2025-06-17T11:13:19Z</time>
      </trkpt>
      <trkpt lat="43.32294" lon="3.53122">
        <ele>18.4</ele>
        <time>2025-06-17T11:13:20Z</time>
      </trkpt>
      <trkpt lat="43.32289" lon="3.53122">
        <ele>18.4</ele>
        <time>2025-06-17T11:13:21Z</time>
      </trkpt>
      <trkpt lat="43.32285" lon="3.53123">
        <ele>18.4</ele>
        <time>2025-06-17T11:13:22Z</time>
      </trkpt>
      <trkpt lat="43.3228" lon="3.53123">
        <ele>18.4</ele>
        <time>2025-06-17T11:13:23Z</time>
      </trkpt>
      <trkpt lat="43.32276" lon="3.53123">
        <ele>18.4</ele>
        <time>2025-06-17T11:13:24Z</time>
      </trkpt>
      <trkpt lat="43.32271" lon="3.53123">
        <ele>18.4</ele>
        <time>2025-06-17T11:13:25Z</time>
      </trkpt>
      <trkpt lat="43.32267" lon="3.53123">
        <ele>18.4</ele>
        <time>2025-06-17T11:13:26Z</time>
      </trkpt>
      <trkpt lat="43.32262" lon="3.53123">
        <ele>18.6</ele>
        <time>2025-06-17T11:13:27Z</time>
      </trkpt>
      <trkpt lat="43.32258" lon="3.53123">
        <ele>18.6</ele>
        <time>2025-06-17T11:13:28Z</time>
      </trkpt>
      <trkpt lat="43.32253" lon="3.53123">
        <ele>18.8</ele>
        <time>2025-06-17T11:13:29Z</time>
      </trkpt>
      <trkpt lat="43.32249" lon="3.53124">
        <ele>18.8</ele>
        <time>2025-06-17T11:13:30Z</time>
      </trkpt>
      <trkpt lat="43.32245" lon="3.53124">
        <ele>19</ele>
        <time>2025-06-17T11:13:31Z</time>
      </trkpt>
      <trkpt lat="43.3224" lon="3.53124">
        <ele>19</ele>
        <time>2025-06-17T11:13:32Z</time>
      </trkpt>
      <trkpt lat="43.32236" lon="3.53124">
        <ele>19</ele>
        <time>2025-06-17T11:13:33Z</time>
      </trkpt>
      <trkpt lat="43.32231" lon="3.53124">
        <ele>19.2</ele>
        <time>2025-06-17T11:13:34Z</time>
      </trkpt>
      <trkpt lat="43.32227" lon="3.53124">
        <ele>19.2</ele>
        <time>2025-06-17T11:13:35Z</time>
      </trkpt>
      <trkpt lat="43.32222" lon="3.53124">
        <ele>19.2</ele>
        <time>2025-06-17T11:13:36Z</time>
      </trkpt>
      <trkpt lat="43.32218" lon="3.53125">
        <ele>19.2</ele>
        <time>2025-06-17T11:13:37Z</time>
      </trkpt>
      <trkpt lat="43.32214" lon="3.53125">
        <ele>19.2</ele>
        <time>2025-06-17T11:13:38Z</time>
      </trkpt>
      <trkpt lat="43.32209" lon="3.53125">
        <ele>19.2</ele>
        <time>2025-06-17T11:13:39Z</time>
      </trkpt>
      <trkpt lat="43.32204" lon="3.53125">
        <ele>19.4</ele>
        <time>2025-06-17T11:13:40Z</time>
      </trkpt>
      <trkpt lat="43.322" lon="3.53125">
        <ele>19.4</ele>
        <time>2025-06-17T11:13:41Z</time>
      </trkpt>
      <trkpt lat="43.32195" lon="3.53125">
        <ele>19.4</ele>
        <time>2025-06-17T11:13:42Z</time>
      </trkpt>
      <trkpt lat="43.3219" lon="3.53125">
        <ele>19.4</ele>
        <time>2025-06-17T11:13:43Z</time>
      </trkpt>
      <trkpt lat="43.32185" lon="3.53125">
        <ele>19.6</ele>
        <time>2025-06-17T11:13:44Z</time>
      </trkpt>
      <trkpt lat="43.32181" lon="3.53125">
        <ele>19.6</ele>
        <time>2025-06-17T11:13:45Z</time>
      </trkpt>
      <trkpt lat="43.32176" lon="3.53126">
        <ele>19.6</ele>
        <time>2025-06-17T11:13:46Z</time>
      </trkpt>
      <trkpt lat="43.32172" lon="3.53127">
        <ele>19.8</ele>
        <time>2025-06-17T11:13:47Z</time>
      </trkpt>
      <trkpt lat="43.32168" lon="3.53129">
        <ele>19.8</ele>
        <time>2025-06-17T11:13:48Z</time>
      </trkpt>
      <trkpt lat="43.32165" lon="3.53133">
        <ele>19.8</ele>
        <time>2025-06-17T11:13:49Z</time>
      </trkpt>
      <trkpt lat="43.32163" lon="3.53138">
        <ele>19.8</ele>
        <time>2025-06-17T11:13:50Z</time>
      </trkpt>
      <trkpt lat="43.32162" lon="3.53144">
        <ele>19.8</ele>
        <time>2025-06-17T11:13:51Z</time>
      </trkpt>
      <trkpt lat="43.32161" lon="3.5315">
        <ele>19.6</ele>
        <time>2025-06-17T11:13:52Z</time>
      </trkpt>
      <trkpt lat="43.3216" lon="3.53156">
        <ele>19.6</ele>
        <time>2025-06-17T11:13:53Z</time>
      </trkpt>
      <trkpt lat="43.32159" lon="3.53163">
        <ele>19.6</ele>
        <time>2025-06-17T11:13:54Z</time>
      </trkpt>
      <trkpt lat="43.32157" lon="3.53168">
        <ele>19.4</ele>
        <time>2025-06-17T11:13:55Z</time>
      </trkpt>
      <trkpt lat="43.32153" lon="3.53171">
        <ele>19.2</ele>
        <time>2025-06-17T11:13:56Z</time>
      </trkpt>
      <trkpt lat="43.32149" lon="3.53172">
        <ele>19.2</ele>
        <time>2025-06-17T11:13:57Z</time>
      </trkpt>
      <trkpt lat="43.32145" lon="3.53172">
        <ele>19.2</ele>
        <time>2025-06-17T11:13:58Z</time>
      </trkpt>
      <trkpt lat="43.32141" lon="3.5317">
        <ele>19.2</ele>
        <time>2025-06-17T11:13:59Z</time>
      </trkpt>
      <trkpt lat="43.32137" lon="3.53168">
        <ele>19.2</ele>
        <time>2025-06-17T11:14:00Z</time>
      </trkpt>
      <trkpt lat="43.32134" lon="3.53165">
        <ele>19.2</ele>
        <time>2025-06-17T11:14:01Z</time>
      </trkpt>
      <trkpt lat="43.32133" lon="3.53161">
        <ele>19.2</ele>
        <time>2025-06-17T11:14:02Z</time>
      </trkpt>
      <trkpt lat="43.32133" lon="3.53155">
        <ele>19.4</ele>
        <time>2025-06-17T11:14:03Z</time>
      </trkpt>
      <trkpt lat="43.32134" lon="3.5315">
        <ele>19.6</ele>
        <time>2025-06-17T11:14:04Z</time>
      </trkpt>
      <trkpt lat="43.32135" lon="3.53146">
        <ele>19.8</ele>
        <time>2025-06-17T11:14:05Z</time>
      </trkpt>
      <trkpt lat="43.32137" lon="3.53142">
        <ele>20</ele>
        <time>2025-06-17T11:14:06Z</time>
      </trkpt>
      <trkpt lat="43.32138" lon="3.53139">
        <ele>20.2</ele>
        <time>2025-06-17T11:14:07Z</time>
      </trkpt>
      <trkpt lat="43.3214" lon="3.53137">
        <ele>20.4</ele>
        <time>2025-06-17T11:14:08Z</time>
      </trkpt>
      <trkpt lat="43.32142" lon="3.53137">
        <ele>20.6</ele>
        <time>2025-06-17T11:14:09Z</time>
      </trkpt>
      <trkpt lat="43.32144" lon="3.53138">
        <ele>20.8</ele>
        <time>2025-06-17T11:14:10Z</time>
      </trkpt>
      <trkpt lat="43.32146" lon="3.5314">
        <ele>21</ele>
        <time>2025-06-17T11:14:11Z</time>
      </trkpt>
      <trkpt lat="43.32146" lon="3.53143">
        <ele>21.2</ele>
        <time>2025-06-17T11:14:12Z</time>
      </trkpt>
      <trkpt lat="43.32145" lon="3.53147">
        <ele>21.4</ele>
        <time>2025-06-17T11:14:13Z</time>
      </trkpt>
      <trkpt lat="43.32144" lon="3.53151">
        <ele>21.6</ele>
        <time>2025-06-17T11:14:14Z</time>
      </trkpt>
      <trkpt lat="43.32143" lon="3.53154">
        <ele>21.8</ele>
        <time>2025-06-17T11:14:15Z</time>
      </trkpt>
      <trkpt lat="43.32142" lon="3.53158">
        <ele>22</ele>
        <time>2025-06-17T11:14:16Z</time>
      </trkpt>
      <trkpt lat="43.32141" lon="3.53162">
        <ele>22.2</ele>
        <time>2025-06-17T11:14:17Z</time>
      </trkpt>
      <trkpt lat="43.32141" lon="3.53166">
        <ele>22.4</ele>
        <time>2025-06-17T11:14:18Z</time>
      </trkpt>
      <trkpt lat="43.3214" lon="3.5317">
        <ele>22.6</ele>
        <time>2025-06-17T11:14:19Z</time>
      </trkpt>
      <trkpt lat="43.32139" lon="3.53174">
        <ele>22.8</ele>
        <time>2025-06-17T11:14:20Z</time>
      </trkpt>
      <trkpt lat="43.32138" lon="3.53178">
        <ele>22.8</ele>
        <time>2025-06-17T11:14:21Z</time>
      </trkpt>
      <trkpt lat="43.32138" lon="3.53182">
        <ele>22.8</ele>
        <time>2025-06-17T11:14:22Z</time>
      </trkpt>
      <trkpt lat="43.32136" lon="3.53187">
        <ele>23</ele>
        <time>2025-06-17T11:14:23Z</time>
      </trkpt>
      <trkpt lat="43.32136" lon="3.53191">
        <ele>23</ele>
        <time>2025-06-17T11:14:24Z</time>
      </trkpt>
      <trkpt lat="43.32135" lon="3.53196">
        <ele>23</ele>
        <time>2025-06-17T11:14:25Z</time>
      </trkpt>
      <trkpt lat="43.32134" lon="3.53202">
        <ele>22.8</ele>
        <time>2025-06-17T11:14:26Z</time>
      </trkpt>
      <trkpt lat="43.32133" lon="3.53207">
        <ele>22.6</ele>
        <time>2025-06-17T11:14:27Z</time>
      </trkpt>
      <trkpt lat="43.32131" lon="3.53213">
        <ele>22.4</ele>
        <time>2025-06-17T11:14:28Z</time>
      </trkpt>
      <trkpt lat="43.3213" lon="3.5322">
        <ele>22.2</ele>
        <time>2025-06-17T11:14:29Z</time>
      </trkpt>
      <trkpt lat="43.32129" lon="3.53226">
        <ele>21.8</ele>
        <time>2025-06-17T11:14:30Z</time>
      </trkpt>
      <trkpt lat="43.32127" lon="3.53233">
        <ele>21.6</ele>
        <time>2025-06-17T11:14:31Z</time>
      </trkpt>
      <trkpt lat="43.32125" lon="3.53241">
        <ele>21.2</ele>
        <time>2025-06-17T11:14:32Z</time>
      </trkpt>
      <trkpt lat="43.32123" lon="3.5325">
        <ele>20.8</ele>
        <time>2025-06-17T11:14:33Z</time>
      </trkpt>
      <trkpt lat="43.32121" lon="3.53259">
        <ele>20.4</ele>
        <time>2025-06-17T11:14:34Z</time>
      </trkpt>
      <trkpt lat="43.3212" lon="3.53269">
        <ele>20</ele>
        <time>2025-06-17T11:14:35Z</time>
      </trkpt>
      <trkpt lat="43.32119" lon="3.53278">
        <ele>19.8</ele>
        <time>2025-06-17T11:14:36Z</time>
      </trkpt>
      <trkpt lat="43.32119" lon="3.53287">
        <ele>19.4</ele>
        <time>2025-06-17T11:14:37Z</time>
      </trkpt>
      <trkpt lat="43.32117" lon="3.53296">
        <ele>19.4</ele>
        <time>2025-06-17T11:14:38Z</time>
      </trkpt>
      <trkpt lat="43.32116" lon="3.53305">
        <ele>19.2</ele>
        <time>2025-06-17T11:14:39Z</time>
      </trkpt>
      <trkpt lat="43.32115" lon="3.53313">
        <ele>19.2</ele>
        <time>2025-06-17T11:14:40Z</time>
      </trkpt>
      <trkpt lat="43.32114" lon="3.53321">
        <ele>19.2</ele>
        <time>2025-06-17T11:14:41Z</time>
      </trkpt>
      <trkpt lat="43.32113" lon="3.53329">
        <ele>19.2</ele>
        <time>2025-06-17T11:14:42Z</time>
      </trkpt>
      <trkpt lat="43.32112" lon="3.53337">
        <ele>19.2</ele>
        <time>2025-06-17T11:14:43Z</time>
      </trkpt>
      <trkpt lat="43.32112" lon="3.53346">
        <ele>19.2</ele>
        <time>2025-06-17T11:14:44Z</time>
      </trkpt>
      <trkpt lat="43.32111" lon="3.53354">
        <ele>19.2</ele>
        <time>2025-06-17T11:14:45Z</time>
      </trkpt>
      <trkpt lat="43.32111" lon="3.53362">
        <ele>19.2</ele>
        <time>2025-06-17T11:14:46Z</time>
      </trkpt>
      <trkpt lat="43.3211" lon="3.53371">
        <ele>19.2</ele>
        <time>2025-06-17T11:14:47Z</time>
      </trkpt>
      <trkpt lat="43.32109" lon="3.53379">
        <ele>19.2</ele>
        <time>2025-06-17T11:14:48Z</time>
      </trkpt>
      <trkpt lat="43.32108" lon="3.53387">
        <ele>19.2</ele>
        <time>2025-06-17T11:14:49Z</time>
      </trkpt>
      <trkpt lat="43.32106" lon="3.53395">
        <ele>19</ele>
        <time>2025-06-17T11:14:50Z</time>
      </trkpt>
      <trkpt lat="43.32105" lon="3.53403">
        <ele>19</ele>
        <time>2025-06-17T11:14:51Z</time>
      </trkpt>
      <trkpt lat="43.32104" lon="3.53411">
        <ele>18.8</ele>
        <time>2025-06-17T11:14:52Z</time>
      </trkpt>
      <trkpt lat="43.32102" lon="3.53419">
        <ele>19</ele>
        <time>2025-06-17T11:14:53Z</time>
      </trkpt>
      <trkpt lat="43.32101" lon="3.53427">
        <ele>19.2</ele>
        <time>2025-06-17T11:14:54Z</time>
      </trkpt>
      <trkpt lat="43.32099" lon="3.53434">
        <ele>19.4</ele>
        <time>2025-06-17T11:14:55Z</time>
      </trkpt>
      <trkpt lat="43.32097" lon="3.53442">
        <ele>19.4</ele>
        <time>2025-06-17T11:14:56Z</time>
      </trkpt>
      <trkpt lat="43.32095" lon="3.53448">
        <ele>19.2</ele>
        <time>2025-06-17T11:14:57Z</time>
      </trkpt>
      <trkpt lat="43.32093" lon="3.53454">
        <ele>19.2</ele>
        <time>2025-06-17T11:14:58Z</time>
      </trkpt>
      <trkpt lat="43.3209" lon="3.53458">
        <ele>19</ele>
        <time>2025-06-17T11:14:59Z</time>
      </trkpt>
      <trkpt lat="43.32085" lon="3.5346">
        <ele>19</ele>
        <time>2025-06-17T11:15:00Z</time>
      </trkpt>
      <trkpt lat="43.32081" lon="3.5346">
        <ele>19</ele>
        <time>2025-06-17T11:15:01Z</time>
      </trkpt>
      <trkpt lat="43.32076" lon="3.53459">
        <ele>19</ele>
        <time>2025-06-17T11:15:02Z</time>
      </trkpt>
      <trkpt lat="43.32071" lon="3.53457">
        <ele>19</ele>
        <time>2025-06-17T11:15:03Z</time>
      </trkpt>
      <trkpt lat="43.32067" lon="3.53455">
        <ele>19</ele>
        <time>2025-06-17T11:15:04Z</time>
      </trkpt>
      <trkpt lat="43.32062" lon="3.53452">
        <ele>19</ele>
        <time>2025-06-17T11:15:05Z</time>
      </trkpt>
      <trkpt lat="43.32057" lon="3.53449">
        <ele>19</ele>
        <time>2025-06-17T11:15:06Z</time>
      </trkpt>
      <trkpt lat="43.32052" lon="3.53447">
        <ele>18.8</ele>
        <time>2025-06-17T11:15:07Z</time>
      </trkpt>
      <trkpt lat="43.32047" lon="3.53444">
        <ele>18.8</ele>
        <time>2025-06-17T11:15:08Z</time>
      </trkpt>
      <trkpt lat="43.32043" lon="3.53441">
        <ele>18.8</ele>
        <time>2025-06-17T11:15:09Z</time>
      </trkpt>
      <trkpt lat="43.32039" lon="3.53439">
        <ele>18.8</ele>
        <time>2025-06-17T11:15:10Z</time>
      </trkpt>
      <trkpt lat="43.32036" lon="3.53437">
        <ele>18.8</ele>
        <time>2025-06-17T11:15:11Z</time>
      </trkpt>
      <trkpt lat="43.32034" lon="3.53437">
        <ele>18.8</ele>
        <time>2025-06-17T11:15:12Z</time>
      </trkpt>
      <trkpt lat="43.32032" lon="3.53439">
        <ele>18.8</ele>
        <time>2025-06-17T11:15:13Z</time>
      </trkpt>
      <trkpt lat="43.32032" lon="3.53442">
        <ele>18.8</ele>
        <time>2025-06-17T11:15:14Z</time>
      </trkpt>
      <trkpt lat="43.32032" lon="3.53446">
        <ele>19</ele>
        <time>2025-06-17T11:15:15Z</time>
      </trkpt>
      <trkpt lat="43.32032" lon="3.53452">
        <ele>19</ele>
        <time>2025-06-17T11:15:16Z</time>
      </trkpt>
      <trkpt lat="43.32033" lon="3.53457">
        <ele>19</ele>
        <time>2025-06-17T11:15:17Z</time>
      </trkpt>
      <trkpt lat="43.32034" lon="3.53463">
        <ele>19</ele>
        <time>2025-06-17T11:15:18Z</time>
      </trkpt>
      <trkpt lat="43.32035" lon="3.53469">
        <ele>18.8</ele>
        <time>2025-06-17T11:15:19Z</time>
      </trkpt>
      <trkpt lat="43.32036" lon="3.53476">
        <ele>18.8</ele>
        <time>2025-06-17T11:15:20Z</time>
      </trkpt>
      <trkpt lat="43.32037" lon="3.53483">
        <ele>18.8</ele>
        <time>2025-06-17T11:15:21Z</time>
      </trkpt>
      <trkpt lat="43.32037" lon="3.53489">
        <ele>18.8</ele>
        <time>2025-06-17T11:15:22Z</time>
      </trkpt>
      <trkpt lat="43.32038" lon="3.53496">
        <ele>18.8</ele>
        <time>2025-06-17T11:15:23Z</time>
      </trkpt>
      <trkpt lat="43.32038" lon="3.53503">
        <ele>18.8</ele>
        <time>2025-06-17T11:15:24Z</time>
      </trkpt>
      <trkpt lat="43.32039" lon="3.5351">
        <ele>18.8</ele>
        <time>2025-06-17T11:15:25Z</time>
      </trkpt>
      <trkpt lat="43.3204" lon="3.53517">
        <ele>18.8</ele>
        <time>2025-06-17T11:15:26Z</time>
      </trkpt>
      <trkpt lat="43.32042" lon="3.53523">
        <ele>18.8</ele>
        <time>2025-06-17T11:15:27Z</time>
      </trkpt>
      <trkpt lat="43.32044" lon="3.53529">
        <ele>18.8</ele>
        <time>2025-06-17T11:15:28Z</time>
      </trkpt>
      <trkpt lat="43.32046" lon="3.53535">
        <ele>18.8</ele>
        <time>2025-06-17T11:15:29Z</time>
      </trkpt>
      <trkpt lat="43.32048" lon="3.53541">
        <ele>18.8</ele>
        <time>2025-06-17T11:15:30Z</time>
      </trkpt>
      <trkpt lat="43.32049" lon="3.53547">
        <ele>18.8</ele>
        <time>2025-06-17T11:15:31Z</time>
      </trkpt>
      <trkpt lat="43.3205" lon="3.53552">
        <ele>18.8</ele>
        <time>2025-06-17T11:15:32Z</time>
      </trkpt>
      <trkpt lat="43.32051" lon="3.53558">
        <ele>18.6</ele>
        <time>2025-06-17T11:15:33Z</time>
      </trkpt>
      <trkpt lat="43.32053" lon="3.53563">
        <ele>18.8</ele>
        <time>2025-06-17T11:15:34Z</time>
      </trkpt>
      <trkpt lat="43.32055" lon="3.53568">
        <ele>18.8</ele>
        <time>2025-06-17T11:15:35Z</time>
      </trkpt>
      <trkpt lat="43.32058" lon="3.53573">
        <ele>18.8</ele>
        <time>2025-06-17T11:15:36Z</time>
      </trkpt>
      <trkpt lat="43.32059" lon="3.53577">
        <ele>18.8</ele>
        <time>2025-06-17T11:15:37Z</time>
      </trkpt>
      <trkpt lat="43.32058" lon="3.53581">
        <ele>18.8</ele>
        <time>2025-06-17T11:15:38Z</time>
      </trkpt>
      <trkpt lat="43.32056" lon="3.53584">
        <ele>19</ele>
        <time>2025-06-17T11:15:39Z</time>
      </trkpt>
      <trkpt lat="43.32056" lon="3.53589">
        <ele>19</ele>
        <time>2025-06-17T11:15:40Z</time>
      </trkpt>
      <trkpt lat="43.32055" lon="3.53594">
        <ele>19</ele>
        <time>2025-06-17T11:15:41Z</time>
      </trkpt>
      <trkpt lat="43.32056" lon="3.53599">
        <ele>19.2</ele>
        <time>2025-06-17T11:15:42Z</time>
      </trkpt>
      <trkpt lat="43.32057" lon="3.53603">
        <ele>19.2</ele>
        <time>2025-06-17T11:15:43Z</time>
      </trkpt>
      <trkpt lat="43.32059" lon="3.53606">
        <ele>19.2</ele>
        <time>2025-06-17T11:15:44Z</time>
      </trkpt>
      <trkpt lat="43.32061" lon="3.53609">
        <ele>19.4</ele>
        <time>2025-06-17T11:15:45Z</time>
      </trkpt>
      <trkpt lat="43.32063" lon="3.53613">
        <ele>19.4</ele>
        <time>2025-06-17T11:15:46Z</time>
      </trkpt>
      <trkpt lat="43.32064" lon="3.53616">
        <ele>19.4</ele>
        <time>2025-06-17T11:15:47Z</time>
      </trkpt>
      <trkpt lat="43.32065" lon="3.53621">
        <ele>19.4</ele>
        <time>2025-06-17T11:15:48Z</time>
      </trkpt>
      <trkpt lat="43.32068" lon="3.53625">
        <ele>19.2</ele>
        <time>2025-06-17T11:15:49Z</time>
      </trkpt>
      <trkpt lat="43.32071" lon="3.53629">
        <ele>19.4</ele>
        <time>2025-06-17T11:15:50Z</time>
      </trkpt>
      <trkpt lat="43.32074" lon="3.53633">
        <ele>19.2</ele>
        <time>2025-06-17T11:15:51Z</time>
      </trkpt>
      <trkpt lat="43.32077" lon="3.53637">
        <ele>19.2</ele>
        <time>2025-06-17T11:15:52Z</time>
      </trkpt>
      <trkpt lat="43.3208" lon="3.53642">
        <ele>19.2</ele>
        <time>2025-06-17T11:15:53Z</time>
      </trkpt>
      <trkpt lat="43.32083" lon="3.53646">
        <ele>19</ele>
        <time>2025-06-17T11:15:54Z</time>
      </trkpt>
      <trkpt lat="43.32086" lon="3.53651">
        <ele>19</ele>
        <time>2025-06-17T11:15:55Z</time>
      </trkpt>
      <trkpt lat="43.32089" lon="3.53656">
        <ele>19</ele>
        <time>2025-06-17T11:15:56Z</time>
      </trkpt>
      <trkpt lat="43.32093" lon="3.53662">
        <ele>19</ele>
        <time>2025-06-17T11:15:57Z</time>
      </trkpt>
      <trkpt lat="43.32096" lon="3.53667">
        <ele>18.8</ele>
        <time>2025-06-17T11:15:58Z</time>
      </trkpt>
      <trkpt lat="43.32099" lon="3.53673">
        <ele>18.8</ele>
        <time>2025-06-17T11:15:59Z</time>
      </trkpt>
      <trkpt lat="43.32102" lon="3.53678">
        <ele>18.8</ele>
        <time>2025-06-17T11:16:00Z</time>
      </trkpt>
      <trkpt lat="43.32104" lon="3.53684">
        <ele>18.8</ele>
        <time>2025-06-17T11:16:01Z</time>
      </trkpt>
      <trkpt lat="43.32107" lon="3.5369">
        <ele>18.8</ele>
        <time>2025-06-17T11:16:02Z</time>
      </trkpt>
      <trkpt lat="43.32109" lon="3.53696">
        <ele>19</ele>
        <time>2025-06-17T11:16:03Z</time>
      </trkpt>
      <trkpt lat="43.32112" lon="3.53702">
        <ele>19</ele>
        <time>2025-06-17T11:16:04Z</time>
      </trkpt>
      <trkpt lat="43.32113" lon="3.53708">
        <ele>19</ele>
        <time>2025-06-17T11:16:05Z</time>
      </trkpt>
      <trkpt lat="43.32115" lon="3.53714">
        <ele>19</ele>
        <time>2025-06-17T11:16:06Z</time>
      </trkpt>
      <trkpt lat="43.32116" lon="3.53721">
        <ele>19.2</ele>
        <time>2025-06-17T11:16:07Z</time>
      </trkpt>
      <trkpt lat="43.32118" lon="3.53727">
        <ele>19.2</ele>
        <time>2025-06-17T11:16:08Z</time>
      </trkpt>
      <trkpt lat="43.32119" lon="3.53733">
        <ele>19.2</ele>
        <time>2025-06-17T11:16:09Z</time>
      </trkpt>
      <trkpt lat="43.32121" lon="3.53739">
        <ele>19.4</ele>
        <time>2025-06-17T11:16:10Z</time>
      </trkpt>
      <trkpt lat="43.32122" lon="3.53745">
        <ele>19.6</ele>
        <time>2025-06-17T11:16:11Z</time>
      </trkpt>
      <trkpt lat="43.32122" lon="3.53751">
        <ele>19.6</ele>
        <time>2025-06-17T11:16:12Z</time>
      </trkpt>
      <trkpt lat="43.32123" lon="3.53757">
        <ele>19.8</ele>
        <time>2025-06-17T11:16:13Z</time>
      </trkpt>
      <trkpt lat="43.32124" lon="3.53763">
        <ele>19.8</ele>
        <time>2025-06-17T11:16:14Z</time>
      </trkpt>
      <trkpt lat="43.32124" lon="3.53769">
        <ele>20</ele>
        <time>2025-06-17T11:16:15Z</time>
      </trkpt>
      <trkpt lat="43.32124" lon="3.53774">
        <ele>20.2</ele>
        <time>2025-06-17T11:16:16Z</time>
      </trkpt>
      <trkpt lat="43.32125" lon="3.5378">
        <ele>20.4</ele>
        <time>2025-06-17T11:16:17Z</time>
      </trkpt>
      <trkpt lat="43.32125" lon="3.53785">
        <ele>20.6</ele>
        <time>2025-06-17T11:16:18Z</time>
      </trkpt>
      <trkpt lat="43.32124" lon="3.53791">
        <ele>20.8</ele>
        <time>2025-06-17T11:16:19Z</time>
      </trkpt>
      <trkpt lat="43.32124" lon="3.53796">
        <ele>21</ele>
        <time>2025-06-17T11:16:20Z</time>
      </trkpt>
      <trkpt lat="43.32124" lon="3.53802">
        <ele>21.2</ele>
        <time>2025-06-17T11:16:21Z</time>
      </trkpt>
      <trkpt lat="43.32124" lon="3.53807">
        <ele>21.4</ele>
        <time>2025-06-17T11:16:22Z</time>
      </trkpt>
      <trkpt lat="43.32124" lon="3.53813">
        <ele>21.6</ele>
        <time>2025-06-17T11:16:23Z</time>
      </trkpt>
      <trkpt lat="43.32123" lon="3.53818">
        <ele>22</ele>
        <time>2025-06-17T11:16:24Z</time>
      </trkpt>
      <trkpt lat="43.32122" lon="3.53824">
        <ele>22.2</ele>
        <time>2025-06-17T11:16:25Z</time>
      </trkpt>
      <trkpt lat="43.32122" lon="3.53829">
        <ele>22.4</ele>
        <time>2025-06-17T11:16:26Z</time>
      </trkpt>
      <trkpt lat="43.3212" lon="3.53833">
        <ele>22.6</ele>
        <time>2025-06-17T11:16:27Z</time>
      </trkpt>
      <trkpt lat="43.32119" lon="3.53838">
        <ele>22.8</ele>
        <time>2025-06-17T11:16:28Z</time>
      </trkpt>
      <trkpt lat="43.32118" lon="3.53842">
        <ele>23.2</ele>
        <time>2025-06-17T11:16:29Z</time>
      </trkpt>
      <trkpt lat="43.32117" lon="3.53846">
        <ele>23.4</ele>
        <time>2025-06-17T11:16:30Z</time>
      </trkpt>
      <trkpt lat="43.32116" lon="3.53849">
        <ele>23.6</ele>
        <time>2025-06-17T11:16:31Z</time>
      </trkpt>
      <trkpt lat="43.32114" lon="3.53853">
        <ele>23.8</ele>
        <time>2025-06-17T11:16:32Z</time>
      </trkpt>
      <trkpt lat="43.32112" lon="3.53856">
        <ele>23.8</ele>
        <time>2025-06-17T11:16:33Z</time>
      </trkpt>
      <trkpt lat="43.32111" lon="3.53859">
        <ele>24</ele>
        <time>2025-06-17T11:16:34Z</time>
      </trkpt>
      <trkpt lat="43.32109" lon="3.53862">
        <ele>24.2</ele>
        <time>2025-06-17T11:16:35Z</time>
      </trkpt>
      <trkpt lat="43.32108" lon="3.53865">
        <ele>24.4</ele>
        <time>2025-06-17T11:16:36Z</time>
      </trkpt>
      <trkpt lat="43.32106" lon="3.53868">
        <ele>24.4</ele>
        <time>2025-06-17T11:16:37Z</time>
      </trkpt>
      <trkpt lat="43.32104" lon="3.53871">
        <ele>24.6</ele>
        <time>2025-06-17T11:16:38Z</time>
      </trkpt>
      <trkpt lat="43.32103" lon="3.53874">
        <ele>24.8</ele>
        <time>2025-06-17T11:16:39Z</time>
      </trkpt>
      <trkpt lat="43.32101" lon="3.53878">
        <ele>24.8</ele>
        <time>2025-06-17T11:16:40Z</time>
      </trkpt>
      <trkpt lat="43.32099" lon="3.5388">
        <ele>25</ele>
        <time>2025-06-17T11:16:41Z</time>
      </trkpt>
      <trkpt lat="43.32097" lon="3.53883">
        <ele>25.2</ele>
        <time>2025-06-17T11:16:42Z</time>
      </trkpt>
      <trkpt lat="43.32095" lon="3.53886">
        <ele>25.2</ele>
        <time>2025-06-17T11:16:43Z</time>
      </trkpt>
      <trkpt lat="43.32093" lon="3.53888">
        <ele>25.4</ele>
        <time>2025-06-17T11:16:44Z</time>
      </trkpt>
      <trkpt lat="43.32091" lon="3.53891">
        <ele>25.4</ele>
        <time>2025-06-17T11:16:45Z</time>
      </trkpt>
      <trkpt lat="43.3209" lon="3.53893">
        <ele>25.6</ele>
        <time>2025-06-17T11:16:46Z</time>
      </trkpt>
      <trkpt lat="43.32088" lon="3.53896">
        <ele>25.8</ele>
        <time>2025-06-17T11:16:47Z</time>
      </trkpt>
      <trkpt lat="43.32086" lon="3.53898">
        <ele>25.8</ele>
        <time>2025-06-17T11:16:48Z</time>
      </trkpt>
      <trkpt lat="43.32085" lon="3.53901">
        <ele>25.8</ele>
        <time>2025-06-17T11:16:49Z</time>
      </trkpt>
      <trkpt lat="43.32083" lon="3.53904">
        <ele>26</ele>
        <time>2025-06-17T11:16:50Z</time>
      </trkpt>
      <trkpt lat="43.32081" lon="3.53907">
        <ele>26</ele>
        <time>2025-06-17T11:16:51Z</time>
      </trkpt>
      <trkpt lat="43.32079" lon="3.53909">
        <ele>26</ele>
        <time>2025-06-17T11:16:52Z</time>
      </trkpt>
      <trkpt lat="43.32077" lon="3.53912">
        <ele>26.2</ele>
        <time>2025-06-17T11:16:53Z</time>
      </trkpt>
      <trkpt lat="43.32075" lon="3.53915">
        <ele>26.2</ele>
        <time>2025-06-17T11:16:54Z</time>
      </trkpt>
      <trkpt lat="43.32073" lon="3.53918">
        <ele>26.2</ele>
        <time>2025-06-17T11:16:55Z</time>
      </trkpt>
      <trkpt lat="43.3207" lon="3.53921">
        <ele>26.4</ele>
        <time>2025-06-17T11:16:56Z</time>
      </trkpt>
      <trkpt lat="43.32068" lon="3.53923">
        <ele>26.4</ele>
        <time>2025-06-17T11:16:57Z</time>
      </trkpt>
      <trkpt lat="43.32066" lon="3.53926">
        <ele>26.4</ele>
        <time>2025-06-17T11:16:58Z</time>
      </trkpt>
      <trkpt lat="43.32064" lon="3.53929">
        <ele>26.6</ele>
        <time>2025-06-17T11:16:59Z</time>
      </trkpt>
      <trkpt lat="43.32062" lon="3.53932">
        <ele>26.6</ele>
        <time>2025-06-17T11:17:00Z</time>
      </trkpt>
      <trkpt lat="43.3206" lon="3.53935">
        <ele>26.8</ele>
        <time>2025-06-17T11:17:01Z</time>
      </trkpt>
      <trkpt lat="43.32059" lon="3.53938">
        <ele>26.8</ele>
        <time>2025-06-17T11:17:02Z</time>
      </trkpt>
      <trkpt lat="43.32056" lon="3.53941">
        <ele>26.8</ele>
        <time>2025-06-17T11:17:03Z</time>
      </trkpt>
      <trkpt lat="43.32054" lon="3.53944">
        <ele>26.8</ele>
        <time>2025-06-17T11:17:04Z</time>
      </trkpt>
      <trkpt lat="43.32052" lon="3.53947">
        <ele>27</ele>
        <time>2025-06-17T11:17:05Z</time>
      </trkpt>
      <trkpt lat="43.3205" lon="3.5395">
        <ele>27</ele>
        <time>2025-06-17T11:17:06Z</time>
      </trkpt>
      <trkpt lat="43.32047" lon="3.53953">
        <ele>27</ele>
        <time>2025-06-17T11:17:07Z</time>
      </trkpt>
      <trkpt lat="43.32045" lon="3.53956">
        <ele>27</ele>
        <time>2025-06-17T11:17:08Z</time>
      </trkpt>
      <trkpt lat="43.32043" lon="3.53959">
        <ele>27</ele>
        <time>2025-06-17T11:17:09Z</time>
      </trkpt>
      <trkpt lat="43.3204" lon="3.53962">
        <ele>27.2</ele>
        <time>2025-06-17T11:17:10Z</time>
      </trkpt>
      <trkpt lat="43.32038" lon="3.53965">
        <ele>27.2</ele>
        <time>2025-06-17T11:17:11Z</time>
      </trkpt>
      <trkpt lat="43.32036" lon="3.53968">
        <ele>27</ele>
        <time>2025-06-17T11:17:12Z</time>
      </trkpt>
      <trkpt lat="43.32033" lon="3.53971">
        <ele>27</ele>
        <time>2025-06-17T11:17:13Z</time>
      </trkpt>
      <trkpt lat="43.32031" lon="3.53974">
        <ele>27</ele>
        <time>2025-06-17T11:17:14Z</time>
      </trkpt>
      <trkpt lat="43.32029" lon="3.53978">
        <ele>27.2</ele>
        <time>2025-06-17T11:17:15Z</time>
      </trkpt>
      <trkpt lat="43.32026" lon="3.53982">
        <ele>27.2</ele>
        <time>2025-06-17T11:17:16Z</time>
      </trkpt>
      <trkpt lat="43.32024" lon="3.53985">
        <ele>27.2</ele>
        <time>2025-06-17T11:17:17Z</time>
      </trkpt>
      <trkpt lat="43.32022" lon="3.53989">
        <ele>27.2</ele>
        <time>2025-06-17T11:17:18Z</time>
      </trkpt>
      <trkpt lat="43.32019" lon="3.53993">
        <ele>27.2</ele>
        <time>2025-06-17T11:17:19Z</time>
      </trkpt>
      <trkpt lat="43.32017" lon="3.53998">
        <ele>27.2</ele>
        <time>2025-06-17T11:17:20Z</time>
      </trkpt>
      <trkpt lat="43.32014" lon="3.54002">
        <ele>27</ele>
        <time>2025-06-17T11:17:21Z</time>
      </trkpt>
      <trkpt lat="43.32012" lon="3.54006">
        <ele>27</ele>
        <time>2025-06-17T11:17:22Z</time>
      </trkpt>
      <trkpt lat="43.32009" lon="3.54011">
        <ele>27</ele>
        <time>2025-06-17T11:17:23Z</time>
      </trkpt>
      <trkpt lat="43.32007" lon="3.54015">
        <ele>27</ele>
        <time>2025-06-17T11:17:24Z</time>
      </trkpt>
      <trkpt lat="43.32005" lon="3.5402">
        <ele>26.8</ele>
        <time>2025-06-17T11:17:25Z</time>
      </trkpt>
      <trkpt lat="43.32002" lon="3.54025">
        <ele>26.8</ele>
        <time>2025-06-17T11:17:26Z</time>
      </trkpt>
      <trkpt lat="43.32" lon="3.5403">
        <ele>26.8</ele>
        <time>2025-06-17T11:17:27Z</time>
      </trkpt>
      <trkpt lat="43.31998" lon="3.54035">
        <ele>26.6</ele>
        <time>2025-06-17T11:17:28Z</time>
      </trkpt>
      <trkpt lat="43.31996" lon="3.5404">
        <ele>26.6</ele>
        <time>2025-06-17T11:17:29Z</time>
      </trkpt>
      <trkpt lat="43.31994" lon="3.54045">
        <ele>26.4</ele>
        <time>2025-06-17T11:17:30Z</time>
      </trkpt>
      <trkpt lat="43.31992" lon="3.5405">
        <ele>26.4</ele>
        <time>2025-06-17T11:17:31Z</time>
      </trkpt>
      <trkpt lat="43.3199" lon="3.54056">
        <ele>26.4</ele>
        <time>2025-06-17T11:17:32Z</time>
      </trkpt>
      <trkpt lat="43.31989" lon="3.54063">
        <ele>26.2</ele>
        <time>2025-06-17T11:17:33Z</time>
      </trkpt>
      <trkpt lat="43.31986" lon="3.5407">
        <ele>26</ele>
        <time>2025-06-17T11:17:34Z</time>
      </trkpt>
      <trkpt lat="43.31984" lon="3.54077">
        <ele>25.8</ele>
        <time>2025-06-17T11:17:35Z</time>
      </trkpt>
      <trkpt lat="43.31983" lon="3.54085">
        <ele>25.6</ele>
        <time>2025-06-17T11:17:36Z</time>
      </trkpt>
      <trkpt lat="43.31981" lon="3.54092">
        <ele>25.4</ele>
        <time>2025-06-17T11:17:37Z</time>
      </trkpt>
      <trkpt lat="43.3198" lon="3.541">
        <ele>25.2</ele>
        <time>2025-06-17T11:17:38Z</time>
      </trkpt>
      <trkpt lat="43.31979" lon="3.54108">
        <ele>24.8</ele>
        <time>2025-06-17T11:17:39Z</time>
      </trkpt>
      <trkpt lat="43.31977" lon="3.54118">
        <ele>24.4</ele>
        <time>2025-06-17T11:17:40Z</time>
      </trkpt>
      <trkpt lat="43.31975" lon="3.54127">
        <ele>24</ele>
        <time>2025-06-17T11:17:41Z</time>
      </trkpt>
      <trkpt lat="43.31974" lon="3.54137">
        <ele>23.6</ele>
        <time>2025-06-17T11:17:42Z</time>
      </trkpt>
      <trkpt lat="43.31972" lon="3.54147">
        <ele>23</ele>
        <time>2025-06-17T11:17:43Z</time>
      </trkpt>
      <trkpt lat="43.3197" lon="3.54158">
        <ele>22.6</ele>
        <time>2025-06-17T11:17:44Z</time>
      </trkpt>
      <trkpt lat="43.31969" lon="3.54169">
        <ele>22</ele>
        <time>2025-06-17T11:17:45Z</time>
      </trkpt>
      <trkpt lat="43.31967" lon="3.5418">
        <ele>21.6</ele>
        <time>2025-06-17T11:17:46Z</time>
      </trkpt>
      <trkpt lat="43.31965" lon="3.54191">
        <ele>21.2</ele>
        <time>2025-06-17T11:17:47Z</time>
      </trkpt>
      <trkpt lat="43.31963" lon="3.54203">
        <ele>20.8</ele>
        <time>2025-06-17T11:17:48Z</time>
      </trkpt>
      <trkpt lat="43.31961" lon="3.54214">
        <ele>20.4</ele>
        <time>2025-06-17T11:17:49Z</time>
      </trkpt>
      <trkpt lat="43.31958" lon="3.54224">
        <ele>20.2</ele>
        <time>2025-06-17T11:17:50Z</time>
      </trkpt>
      <trkpt lat="43.31956" lon="3.54232">
        <ele>19.8</ele>
        <time>2025-06-17T11:17:51Z</time>
      </trkpt>
      <trkpt lat="43.31955" lon="3.54238">
        <ele>19.6</ele>
        <time>2025-06-17T11:17:52Z</time>
      </trkpt>
      <trkpt lat="43.31953" lon="3.54243">
        <ele>19.4</ele>
        <time>2025-06-17T11:17:53Z</time>
      </trkpt>
      <trkpt lat="43.31951" lon="3.54248">
        <ele>19.2</ele>
        <time>2025-06-17T11:17:54Z</time>
      </trkpt>
      <trkpt lat="43.31951" lon="3.54254">
        <ele>19</ele>
        <time>2025-06-17T11:17:55Z</time>
      </trkpt>
      <trkpt lat="43.3195" lon="3.5426">
        <ele>19</ele>
        <time>2025-06-17T11:17:56Z</time>
      </trkpt>
      <trkpt lat="43.31948" lon="3.54267">
        <ele>19</ele>
        <time>2025-06-17T11:17:57Z</time>
      </trkpt>
      <trkpt lat="43.31946" lon="3.54273">
        <ele>19</ele>
        <time>2025-06-17T11:17:58Z</time>
      </trkpt>
      <trkpt lat="43.31944" lon="3.54279">
        <ele>18.8</ele>
        <time>2025-06-17T11:17:59Z</time>
      </trkpt>
      <trkpt lat="43.31942" lon="3.54286">
        <ele>18.8</ele>
        <time>2025-06-17T11:18:00Z</time>
      </trkpt>
      <trkpt lat="43.31941" lon="3.54292">
        <ele>18.8</ele>
        <time>2025-06-17T11:18:01Z</time>
      </trkpt>
      <trkpt lat="43.31939" lon="3.54299">
        <ele>18.6</ele>
        <time>2025-06-17T11:18:02Z</time>
      </trkpt>
      <trkpt lat="43.31938" lon="3.54306">
        <ele>18.8</ele>
        <time>2025-06-17T11:18:03Z</time>
      </trkpt>
      <trkpt lat="43.31937" lon="3.54313">
        <ele>18.6</ele>
        <time>2025-06-17T11:18:04Z</time>
      </trkpt>
      <trkpt lat="43.31936" lon="3.54321">
        <ele>18.6</ele>
        <time>2025-06-17T11:18:05Z</time>
      </trkpt>
      <trkpt lat="43.31935" lon="3.54328">
        <ele>18.6</ele>
        <time>2025-06-17T11:18:06Z</time>
      </trkpt>
      <trkpt lat="43.31934" lon="3.54336">
        <ele>18.6</ele>
        <time>2025-06-17T11:18:07Z</time>
      </trkpt>
      <trkpt lat="43.31934" lon="3.54343">
        <ele>18.6</ele>
        <time>2025-06-17T11:18:08Z</time>
      </trkpt>
      <trkpt lat="43.31934" lon="3.54351">
        <ele>18.6</ele>
        <time>2025-06-17T11:18:09Z</time>
      </trkpt>
      <trkpt lat="43.31934" lon="3.54359">
        <ele>18.6</ele>
        <time>2025-06-17T11:18:10Z</time>
      </trkpt>
      <trkpt lat="43.31934" lon="3.54367">
        <ele>18.6</ele>
        <time>2025-06-17T11:18:11Z</time>
      </trkpt>
      <trkpt lat="43.31934" lon="3.54375">
        <ele>18.6</ele>
        <time>2025-06-17T11:18:12Z</time>
      </trkpt>
      <trkpt lat="43.31934" lon="3.54383">
        <ele>18.4</ele>
        <time>2025-06-17T11:18:13Z</time>
      </trkpt>
      <trkpt lat="43.31934" lon="3.54392">
        <ele>18.4</ele>
        <time>2025-06-17T11:18:14Z</time>
      </trkpt>
      <trkpt lat="43.31934" lon="3.544">
        <ele>18.4</ele>
        <time>2025-06-17T11:18:15Z</time>
      </trkpt>
      <trkpt lat="43.31934" lon="3.54407">
        <ele>18.2</ele>
        <time>2025-06-17T11:18:16Z</time>
      </trkpt>
      <trkpt lat="43.31935" lon="3.54415">
        <ele>18.2</ele>
        <time>2025-06-17T11:18:17Z</time>
      </trkpt>
      <trkpt lat="43.31935" lon="3.54423">
        <ele>18.2</ele>
        <time>2025-06-17T11:18:18Z</time>
      </trkpt>
      <trkpt lat="43.31936" lon="3.54431">
        <ele>18.2</ele>
        <time>2025-06-17T11:18:19Z</time>
      </trkpt>
      <trkpt lat="43.31936" lon="3.54439">
        <ele>18.2</ele>
        <time>2025-06-17T11:18:20Z</time>
      </trkpt>
      <trkpt lat="43.31936" lon="3.54447">
        <ele>18.2</ele>
        <time>2025-06-17T11:18:21Z</time>
      </trkpt>
      <trkpt lat="43.31936" lon="3.54454">
        <ele>18.2</ele>
        <time>2025-06-17T11:18:22Z</time>
      </trkpt>
      <trkpt lat="43.31936" lon="3.54463">
        <ele>18.2</ele>
        <time>2025-06-17T11:18:23Z</time>
      </trkpt>
      <trkpt lat="43.31937" lon="3.54471">
        <ele>18.4</ele>
        <time>2025-06-17T11:18:24Z</time>
      </trkpt>
      <trkpt lat="43.31937" lon="3.54479">
        <ele>18.4</ele>
        <time>2025-06-17T11:18:25Z</time>
      </trkpt>
      <trkpt lat="43.31937" lon="3.54488">
        <ele>18.4</ele>
        <time>2025-06-17T11:18:26Z</time>
      </trkpt>
      <trkpt lat="43.31936" lon="3.54496">
        <ele>18.4</ele>
        <time>2025-06-17T11:18:27Z</time>
      </trkpt>
      <trkpt lat="43.31937" lon="3.54503">
        <ele>18.4</ele>
        <time>2025-06-17T11:18:28Z</time>
      </trkpt>
      <trkpt lat="43.31939" lon="3.54511">
        <ele>18.4</ele>
        <time>2025-06-17T11:18:29Z</time>
      </trkpt>
      <trkpt lat="43.3194" lon="3.54518">
        <ele>18.4</ele>
        <time>2025-06-17T11:18:30Z</time>
      </trkpt>
      <trkpt lat="43.31942" lon="3.54525">
        <ele>18.2</ele>
        <time>2025-06-17T11:18:31Z</time>
      </trkpt>
      <trkpt lat="43.31944" lon="3.54531">
        <ele>18.2</ele>
        <time>2025-06-17T11:18:32Z</time>
      </trkpt>
      <trkpt lat="43.31946" lon="3.54538">
        <ele>18.2</ele>
        <time>2025-06-17T11:18:33Z</time>
      </trkpt>
      <trkpt lat="43.31947" lon="3.54544">
        <ele>18.2</ele>
        <time>2025-06-17T11:18:34Z</time>
      </trkpt>
      <trkpt lat="43.31947" lon="3.5455">
        <ele>18.2</ele>
        <time>2025-06-17T11:18:35Z</time>
      </trkpt>
      <trkpt lat="43.31947" lon="3.54556">
        <ele>18.4</ele>
        <time>2025-06-17T11:18:36Z</time>
      </trkpt>
      <trkpt lat="43.31945" lon="3.5456">
        <ele>18.4</ele>
        <time>2025-06-17T11:18:37Z</time>
      </trkpt>
      <trkpt lat="43.31943" lon="3.54565">
        <ele>18.4</ele>
        <time>2025-06-17T11:18:38Z</time>
      </trkpt>
      <trkpt lat="43.3194" lon="3.54568">
        <ele>18.6</ele>
        <time>2025-06-17T11:18:39Z</time>
      </trkpt>
      <trkpt lat="43.31937" lon="3.5457">
        <ele>18.6</ele>
        <time>2025-06-17T11:18:40Z</time>
      </trkpt>
      <trkpt lat="43.31934" lon="3.54571">
        <ele>18.6</ele>
        <time>2025-06-17T11:18:41Z</time>
      </trkpt>
      <trkpt lat="43.31931" lon="3.54571">
        <ele>18.8</ele>
        <time>2025-06-17T11:18:42Z</time>
      </trkpt>
      <trkpt lat="43.31928" lon="3.5457">
        <ele>18.8</ele>
        <time>2025-06-17T11:18:43Z</time>
      </trkpt>
      <trkpt lat="43.31925" lon="3.54569">
        <ele>18.8</ele>
        <time>2025-06-17T11:18:44Z</time>
      </trkpt>
      <trkpt lat="43.31922" lon="3.54568">
        <ele>18.8</ele>
        <time>2025-06-17T11:18:45Z</time>
      </trkpt>
      <trkpt lat="43.31918" lon="3.54567">
        <ele>18.8</ele>
        <time>2025-06-17T11:18:46Z</time>
      </trkpt>
      <trkpt lat="43.31915" lon="3.54565">
        <ele>18.8</ele>
        <time>2025-06-17T11:18:47Z</time>
      </trkpt>
      <trkpt lat="43.31913" lon="3.54563">
        <ele>18.8</ele>
        <time>2025-06-17T11:18:48Z</time>
      </trkpt>
      <trkpt lat="43.31911" lon="3.54561">
        <ele>19</ele>
        <time>2025-06-17T11:18:49Z</time>
      </trkpt>
      <trkpt lat="43.3191" lon="3.5456">
        <ele>19</ele>
        <time>2025-06-17T11:18:50Z</time>
      </trkpt>
      <trkpt lat="43.31908" lon="3.54563">
        <ele>19</ele>
        <time>2025-06-17T11:18:54Z</time>
      </trkpt>
      <trkpt lat="43.31907" lon="3.54564">
        <ele>19.2</ele>
        <time>2025-06-17T11:18:55Z</time>
      </trkpt>
      <trkpt lat="43.31904" lon="3.54566">
        <ele>19.2</ele>
        <time>2025-06-17T11:18:56Z</time>
      </trkpt>
      <trkpt lat="43.31901" lon="3.54567">
        <ele>19</ele>
        <time>2025-06-17T11:18:57Z</time>
      </trkpt>
      <trkpt lat="43.31899" lon="3.54569">
        <ele>19</ele>
        <time>2025-06-17T11:18:58Z</time>
      </trkpt>
      <trkpt lat="43.31897" lon="3.54573">
        <ele>19</ele>
        <time>2025-06-17T11:18:59Z</time>
      </trkpt>
      <trkpt lat="43.31896" lon="3.54577">
        <ele>19</ele>
        <time>2025-06-17T11:19:00Z</time>
      </trkpt>
      <trkpt lat="43.31895" lon="3.54583">
        <ele>18.8</ele>
        <time>2025-06-17T11:19:01Z</time>
      </trkpt>
      <trkpt lat="43.31895" lon="3.5459">
        <ele>18.8</ele>
        <time>2025-06-17T11:19:02Z</time>
      </trkpt>
      <trkpt lat="43.31894" lon="3.54596">
        <ele>18.8</ele>
        <time>2025-06-17T11:19:03Z</time>
      </trkpt>
      <trkpt lat="43.31892" lon="3.54603">
        <ele>18.8</ele>
        <time>2025-06-17T11:19:04Z</time>
      </trkpt>
      <trkpt lat="43.31891" lon="3.54609">
        <ele>18.8</ele>
        <time>2025-06-17T11:19:05Z</time>
      </trkpt>
      <trkpt lat="43.31889" lon="3.54616">
        <ele>18.8</ele>
        <time>2025-06-17T11:19:06Z</time>
      </trkpt>
      <trkpt lat="43.31886" lon="3.54622">
        <ele>18.6</ele>
        <time>2025-06-17T11:19:07Z</time>
      </trkpt>
      <trkpt lat="43.31882" lon="3.54626">
        <ele>18.8</ele>
        <time>2025-06-17T11:19:08Z</time>
      </trkpt>
      <trkpt lat="43.31879" lon="3.5463">
        <ele>18.8</ele>
        <time>2025-06-17T11:19:09Z</time>
      </trkpt>
      <trkpt lat="43.31875" lon="3.54634">
        <ele>18.8</ele>
        <time>2025-06-17T11:19:10Z</time>
      </trkpt>
      <trkpt lat="43.31872" lon="3.54637">
        <ele>18.8</ele>
        <time>2025-06-17T11:19:11Z</time>
      </trkpt>
      <trkpt lat="43.3187" lon="3.5464">
        <ele>18.8</ele>
        <time>2025-06-17T11:19:12Z</time>
      </trkpt>
      <trkpt lat="43.31869" lon="3.54643">
        <ele>18.8</ele>
        <time>2025-06-17T11:19:13Z</time>
      </trkpt>
      <trkpt lat="43.31867" lon="3.54645">
        <ele>18.8</ele>
        <time>2025-06-17T11:19:14Z</time>
      </trkpt>
      <trkpt lat="43.31866" lon="3.54648">
        <ele>18.6</ele>
        <time>2025-06-17T11:19:15Z</time>
      </trkpt>
      <trkpt lat="43.31864" lon="3.5465">
        <ele>18.6</ele>
        <time>2025-06-17T11:19:16Z</time>
      </trkpt>
      <trkpt lat="43.31862" lon="3.54653">
        <ele>18.6</ele>
        <time>2025-06-17T11:19:17Z</time>
      </trkpt>
      <trkpt lat="43.31859" lon="3.54656">
        <ele>18.6</ele>
        <time>2025-06-17T11:19:18Z</time>
      </trkpt>
      <trkpt lat="43.31856" lon="3.54658">
        <ele>18.6</ele>
        <time>2025-06-17T11:19:19Z</time>
      </trkpt>
      <trkpt lat="43.31853" lon="3.54661">
        <ele>18.6</ele>
        <time>2025-06-17T11:19:20Z</time>
      </trkpt>
      <trkpt lat="43.31849" lon="3.54663">
        <ele>18.6</ele>
        <time>2025-06-17T11:19:21Z</time>
      </trkpt>
      <trkpt lat="43.31846" lon="3.54666">
        <ele>18.6</ele>
        <time>2025-06-17T11:19:22Z</time>
      </trkpt>
      <trkpt lat="43.31843" lon="3.5467">
        <ele>18.6</ele>
        <time>2025-06-17T11:19:23Z</time>
      </trkpt>
      <trkpt lat="43.3184" lon="3.54673">
        <ele>18.6</ele>
        <time>2025-06-17T11:19:24Z</time>
      </trkpt>
      <trkpt lat="43.31838" lon="3.54676">
        <ele>18.6</ele>
        <time>2025-06-17T11:19:25Z</time>
      </trkpt>
      <trkpt lat="43.31835" lon="3.5468">
        <ele>18.6</ele>
        <time>2025-06-17T11:19:26Z</time>
      </trkpt>
      <trkpt lat="43.31832" lon="3.54683">
        <ele>18.6</ele>
        <time>2025-06-17T11:19:27Z</time>
      </trkpt>
      <trkpt lat="43.31829" lon="3.54685">
        <ele>18.6</ele>
        <time>2025-06-17T11:19:28Z</time>
      </trkpt>
      <trkpt lat="43.31825" lon="3.54687">
        <ele>18.6</ele>
        <time>2025-06-17T11:19:29Z</time>
      </trkpt>
      <trkpt lat="43.31822" lon="3.54688">
        <ele>18.6</ele>
        <time>2025-06-17T11:19:30Z</time>
      </trkpt>
      <trkpt lat="43.31818" lon="3.54689">
        <ele>18.6</ele>
        <time>2025-06-17T11:19:31Z</time>
      </trkpt>
      <trkpt lat="43.31814" lon="3.5469">
        <ele>18.8</ele>
        <time>2025-06-17T11:19:32Z</time>
      </trkpt>
      <trkpt lat="43.3181" lon="3.54692">
        <ele>18.8</ele>
        <time>2025-06-17T11:19:33Z</time>
      </trkpt>
      <trkpt lat="43.31808" lon="3.54695">
        <ele>18.8</ele>
        <time>2025-06-17T11:19:34Z</time>
      </trkpt>
      <trkpt lat="43.31806" lon="3.54699">
        <ele>18.8</ele>
        <time>2025-06-17T11:19:35Z</time>
      </trkpt>
      <trkpt lat="43.31804" lon="3.54703">
        <ele>18.6</ele>
        <time>2025-06-17T11:19:36Z</time>
      </trkpt>
      <trkpt lat="43.31801" lon="3.54706">
        <ele>18.6</ele>
        <time>2025-06-17T11:19:37Z</time>
      </trkpt>
      <trkpt lat="43.31798" lon="3.54708">
        <ele>18.6</ele>
        <time>2025-06-17T11:19:38Z</time>
      </trkpt>
      <trkpt lat="43.31794" lon="3.54711">
        <ele>18.4</ele>
        <time>2025-06-17T11:19:39Z</time>
      </trkpt>
      <trkpt lat="43.31791" lon="3.54714">
        <ele>18.4</ele>
        <time>2025-06-17T11:19:40Z</time>
      </trkpt>
      <trkpt lat="43.31788" lon="3.54716">
        <ele>18.4</ele>
        <time>2025-06-17T11:19:41Z</time>
      </trkpt>
      <trkpt lat="43.31784" lon="3.54717">
        <ele>18.4</ele>
        <time>2025-06-17T11:19:42Z</time>
      </trkpt>
      <trkpt lat="43.31781" lon="3.54717">
        <ele>18.6</ele>
        <time>2025-06-17T11:19:43Z</time>
      </trkpt>
      <trkpt lat="43.31778" lon="3.54719">
        <ele>18.6</ele>
        <time>2025-06-17T11:19:44Z</time>
      </trkpt>
      <trkpt lat="43.31776" lon="3.54722">
        <ele>18.6</ele>
        <time>2025-06-17T11:19:45Z</time>
      </trkpt>
      <trkpt lat="43.31776" lon="3.54725">
        <ele>18.6</ele>
        <time>2025-06-17T11:19:46Z</time>
      </trkpt>
      <trkpt lat="43.31778" lon="3.54729">
        <ele>18.6</ele>
        <time>2025-06-17T11:19:47Z</time>
      </trkpt>
      <trkpt lat="43.31779" lon="3.54733">
        <ele>18.6</ele>
        <time>2025-06-17T11:19:48Z</time>
      </trkpt>
      <trkpt lat="43.3178" lon="3.54736">
        <ele>18.6</ele>
        <time>2025-06-17T11:19:49Z</time>
      </trkpt>
      <trkpt lat="43.31781" lon="3.54739">
        <ele>18.6</ele>
        <time>2025-06-17T11:19:50Z</time>
      </trkpt>
      <trkpt lat="43.31781" lon="3.54743">
        <ele>18.6</ele>
        <time>2025-06-17T11:19:51Z</time>
      </trkpt>
      <trkpt lat="43.31779" lon="3.54746">
        <ele>18.6</ele>
        <time>2025-06-17T11:19:52Z</time>
      </trkpt>
      <trkpt lat="43.31777" lon="3.54748">
        <ele>18.6</ele>
        <time>2025-06-17T11:19:53Z</time>
      </trkpt>
      <trkpt lat="43.31774" lon="3.5475">
        <ele>18.6</ele>
        <time>2025-06-17T11:19:54Z</time>
      </trkpt>
      <trkpt lat="43.31772" lon="3.54753">
        <ele>18.6</ele>
        <time>2025-06-17T11:19:55Z</time>
      </trkpt>
      <trkpt lat="43.3177" lon="3.54755">
        <ele>18.6</ele>
        <time>2025-06-17T11:19:56Z</time>
      </trkpt>
      <trkpt lat="43.31768" lon="3.54759">
        <ele>18.6</ele>
        <time>2025-06-17T11:19:57Z</time>
      </trkpt>
      <trkpt lat="43.31766" lon="3.54762">
        <ele>18.4</ele>
        <time>2025-06-17T11:19:58Z</time>
      </trkpt>
      <trkpt lat="43.31763" lon="3.54766">
        <ele>18.4</ele>
        <time>2025-06-17T11:19:59Z</time>
      </trkpt>
      <trkpt lat="43.31761" lon="3.5477">
        <ele>18.4</ele>
        <time>2025-06-17T11:20:00Z</time>
      </trkpt>
      <trkpt lat="43.31758" lon="3.54773">
        <ele>18.4</ele>
        <time>2025-06-17T11:20:01Z</time>
      </trkpt>
      <trkpt lat="43.31756" lon="3.54777">
        <ele>18.4</ele>
        <time>2025-06-17T11:20:02Z</time>
      </trkpt>
      <trkpt lat="43.31753" lon="3.5478">
        <ele>18.4</ele>
        <time>2025-06-17T11:20:03Z</time>
      </trkpt>
      <trkpt lat="43.31751" lon="3.54784">
        <ele>18.4</ele>
        <time>2025-06-17T11:20:04Z</time>
      </trkpt>
      <trkpt lat="43.31748" lon="3.54787">
        <ele>18.4</ele>
        <time>2025-06-17T11:20:05Z</time>
      </trkpt>
      <trkpt lat="43.31746" lon="3.54789">
        <ele>18.4</ele>
        <time>2025-06-17T11:20:06Z</time>
      </trkpt>
      <trkpt lat="43.31744" lon="3.5479">
        <ele>18.4</ele>
        <time>2025-06-17T11:20:07Z</time>
      </trkpt>
      <trkpt lat="43.31743" lon="3.54789">
        <ele>18.4</ele>
        <time>2025-06-17T11:20:08Z</time>
      </trkpt>
      <trkpt lat="43.31742" lon="3.54788">
        <ele>18.4</ele>
        <time>2025-06-17T11:20:09Z</time>
      </trkpt>
      <trkpt lat="43.31742" lon="3.54788">
        <ele>18.4</ele>
        <time>2025-06-17T11:20:10Z</time>
      </trkpt>
      <trkpt lat="43.31742" lon="3.54787">
        <ele>18.4</ele>
        <time>2025-06-17T11:20:11Z</time>
      </trkpt>
      <trkpt lat="43.31742" lon="3.54787">
        <ele>18.4</ele>
        <time>2025-06-17T11:20:12Z</time>
      </trkpt>
      <trkpt lat="43.31742" lon="3.54787">
        <ele>18.4</ele>
        <time>2025-06-17T11:20:13Z</time>
      </trkpt>
      <trkpt lat="43.31742" lon="3.54787">
        <ele>18.4</ele>
        <time>2025-06-17T11:20:14Z</time>
      </trkpt>
      <trkpt lat="43.31742" lon="3.54787">
        <ele>18.6</ele>
        <time>2025-06-17T11:20:15Z</time>
      </trkpt>
      <trkpt lat="43.31742" lon="3.54787">
        <ele>18.6</ele>
        <time>2025-06-17T11:20:16Z</time>
      </trkpt>
      <trkpt lat="43.31742" lon="3.54787">
        <ele>18.6</ele>
        <time>2025-06-17T11:20:17Z</time>
      </trkpt>
      <trkpt lat="43.31742" lon="3.54787">
        <ele>18.6</ele>
        <time>2025-06-17T11:20:18Z</time>
      </trkpt>
      <trkpt lat="43.3174" lon="3.54793">
        <ele>18.6</ele>
        <time>2025-06-17T11:23:55Z</time>
      </trkpt>
      <trkpt lat="43.31741" lon="3.54793">
        <ele>18.6</ele>
        <time>2025-06-17T11:23:56Z</time>
      </trkpt>
      <trkpt lat="43.31741" lon="3.54793">
        <ele>18.6</ele>
        <time>2025-06-17T11:23:57Z</time>
      </trkpt>
      <trkpt lat="43.31741" lon="3.54794">
        <ele>18.6</ele>
        <time>2025-06-17T11:23:58Z</time>
      </trkpt>
      <trkpt lat="43.31741" lon="3.54794">
        <ele>18.6</ele>
        <time>2025-06-17T11:23:59Z</time>
      </trkpt>
      <trkpt lat="43.31741" lon="3.54794">
        <ele>18.4</ele>
        <time>2025-06-17T11:24:00Z</time>
      </trkpt>
      <trkpt lat="43.31748" lon="3.54779">
        <ele>18.2</ele>
        <time>2025-06-17T11:27:41Z</time>
      </trkpt>
      <trkpt lat="43.31751" lon="3.54777">
        <ele>18.2</ele>
        <time>2025-06-17T11:27:42Z</time>
      </trkpt>
      <trkpt lat="43.31753" lon="3.54775">
        <ele>18.2</ele>
        <time>2025-06-17T11:27:43Z</time>
      </trkpt>
      <trkpt lat="43.31755" lon="3.54772">
        <ele>18.2</ele>
        <time>2025-06-17T11:27:44Z</time>
      </trkpt>
      <trkpt lat="43.31757" lon="3.5477">
        <ele>18.2</ele>
        <time>2025-06-17T11:27:45Z</time>
      </trkpt>
      <trkpt lat="43.3176" lon="3.54767">
        <ele>18.2</ele>
        <time>2025-06-17T11:27:46Z</time>
      </trkpt>
      <trkpt lat="43.31763" lon="3.54764">
        <ele>18.2</ele>
        <time>2025-06-17T11:27:47Z</time>
      </trkpt>
      <trkpt lat="43.31765" lon="3.54761">
        <ele>18.2</ele>
        <time>2025-06-17T11:27:48Z</time>
      </trkpt>
      <trkpt lat="43.31768" lon="3.54758">
        <ele>18.4</ele>
        <time>2025-06-17T11:27:49Z</time>
      </trkpt>
      <trkpt lat="43.31771" lon="3.54755">
        <ele>18.4</ele>
        <time>2025-06-17T11:27:50Z</time>
      </trkpt>
      <trkpt lat="43.31773" lon="3.54752">
        <ele>18.4</ele>
        <time>2025-06-17T11:27:51Z</time>
      </trkpt>
      <trkpt lat="43.31775" lon="3.54749">
        <ele>18.4</ele>
        <time>2025-06-17T11:27:52Z</time>
      </trkpt>
      <trkpt lat="43.31778" lon="3.54745">
        <ele>18.4</ele>
        <time>2025-06-17T11:27:53Z</time>
      </trkpt>
      <trkpt lat="43.3178" lon="3.54742">
        <ele>18.4</ele>
        <time>2025-06-17T11:27:54Z</time>
      </trkpt>
      <trkpt lat="43.31782" lon="3.54738">
        <ele>18.4</ele>
        <time>2025-06-17T11:27:55Z</time>
      </trkpt>
      <trkpt lat="43.31784" lon="3.54734">
        <ele>18.4</ele>
        <time>2025-06-17T11:27:56Z</time>
      </trkpt>
      <trkpt lat="43.31784" lon="3.5473">
        <ele>18.4</ele>
        <time>2025-06-17T11:27:57Z</time>
      </trkpt>
      <trkpt lat="43.31785" lon="3.54727">
        <ele>18.4</ele>
        <time>2025-06-17T11:27:58Z</time>
      </trkpt>
      <trkpt lat="43.31785" lon="3.54723">
        <ele>18.4</ele>
        <time>2025-06-17T11:27:59Z</time>
      </trkpt>
      <trkpt lat="43.31787" lon="3.54721">
        <ele>18.4</ele>
        <time>2025-06-17T11:28:00Z</time>
      </trkpt>
      <trkpt lat="43.31788" lon="3.54718">
        <ele>18.4</ele>
        <time>2025-06-17T11:28:01Z</time>
      </trkpt>
      <trkpt lat="43.3179" lon="3.54716">
        <ele>18.4</ele>
        <time>2025-06-17T11:28:02Z</time>
      </trkpt>
      <trkpt lat="43.31793" lon="3.54714">
        <ele>18.6</ele>
        <time>2025-06-17T11:28:03Z</time>
      </trkpt>
      <trkpt lat="43.31795" lon="3.54712">
        <ele>18.6</ele>
        <time>2025-06-17T11:28:04Z</time>
      </trkpt>
      <trkpt lat="43.31798" lon="3.5471">
        <ele>18.6</ele>
        <time>2025-06-17T11:28:05Z</time>
      </trkpt>
      <trkpt lat="43.318" lon="3.54707">
        <ele>18.6</ele>
        <time>2025-06-17T11:28:06Z</time>
      </trkpt>
      <trkpt lat="43.31803" lon="3.54705">
        <ele>18.6</ele>
        <time>2025-06-17T11:28:07Z</time>
      </trkpt>
      <trkpt lat="43.31805" lon="3.54702">
        <ele>18.6</ele>
        <time>2025-06-17T11:28:08Z</time>
      </trkpt>
      <trkpt lat="43.31808" lon="3.54698">
        <ele>18.6</ele>
        <time>2025-06-17T11:28:09Z</time>
      </trkpt>
      <trkpt lat="43.31811" lon="3.54696">
        <ele>18.6</ele>
        <time>2025-06-17T11:28:10Z</time>
      </trkpt>
      <trkpt lat="43.31816" lon="3.54695">
        <ele>18.6</ele>
        <time>2025-06-17T11:28:11Z</time>
      </trkpt>
      <trkpt lat="43.31819" lon="3.54694">
        <ele>18.6</ele>
        <time>2025-06-17T11:28:12Z</time>
      </trkpt>
      <trkpt lat="43.31823" lon="3.54693">
        <ele>18.6</ele>
        <time>2025-06-17T11:28:13Z</time>
      </trkpt>
      <trkpt lat="43.31827" lon="3.5469">
        <ele>18.6</ele>
        <time>2025-06-17T11:28:14Z</time>
      </trkpt>
      <trkpt lat="43.3183" lon="3.54686">
        <ele>18.6</ele>
        <time>2025-06-17T11:28:15Z</time>
      </trkpt>
      <trkpt lat="43.31834" lon="3.54683">
        <ele>18.6</ele>
        <time>2025-06-17T11:28:16Z</time>
      </trkpt>
      <trkpt lat="43.31836" lon="3.54679">
        <ele>18.6</ele>
        <time>2025-06-17T11:28:17Z</time>
      </trkpt>
      <trkpt lat="43.31839" lon="3.54675">
        <ele>18.6</ele>
        <time>2025-06-17T11:28:18Z</time>
      </trkpt>
      <trkpt lat="43.31841" lon="3.54672">
        <ele>18.6</ele>
        <time>2025-06-17T11:28:19Z</time>
      </trkpt>
      <trkpt lat="43.31843" lon="3.5467">
        <ele>18.6</ele>
        <time>2025-06-17T11:28:20Z</time>
      </trkpt>
      <trkpt lat="43.31845" lon="3.54668">
        <ele>18.6</ele>
        <time>2025-06-17T11:28:21Z</time>
      </trkpt>
      <trkpt lat="43.31847" lon="3.54667">
        <ele>18.6</ele>
        <time>2025-06-17T11:28:22Z</time>
      </trkpt>
      <trkpt lat="43.31849" lon="3.54666">
        <ele>18.6</ele>
        <time>2025-06-17T11:28:23Z</time>
      </trkpt>
      <trkpt lat="43.31852" lon="3.54664">
        <ele>18.6</ele>
        <time>2025-06-17T11:28:24Z</time>
      </trkpt>
      <trkpt lat="43.31854" lon="3.54661">
        <ele>18.6</ele>
        <time>2025-06-17T11:28:25Z</time>
      </trkpt>
      <trkpt lat="43.31857" lon="3.54657">
        <ele>18.6</ele>
        <time>2025-06-17T11:28:26Z</time>
      </trkpt>
      <trkpt lat="43.3186" lon="3.54654">
        <ele>18.6</ele>
        <time>2025-06-17T11:28:27Z</time>
      </trkpt>
      <trkpt lat="43.31862" lon="3.54651">
        <ele>18.6</ele>
        <time>2025-06-17T11:28:28Z</time>
      </trkpt>
      <trkpt lat="43.31865" lon="3.54648">
        <ele>18.6</ele>
        <time>2025-06-17T11:28:29Z</time>
      </trkpt>
      <trkpt lat="43.31867" lon="3.54645">
        <ele>18.6</ele>
        <time>2025-06-17T11:28:30Z</time>
      </trkpt>
      <trkpt lat="43.3187" lon="3.54642">
        <ele>18.6</ele>
        <time>2025-06-17T11:28:31Z</time>
      </trkpt>
      <trkpt lat="43.31873" lon="3.54639">
        <ele>18.6</ele>
        <time>2025-06-17T11:28:32Z</time>
      </trkpt>
      <trkpt lat="43.31875" lon="3.54636">
        <ele>18.6</ele>
        <time>2025-06-17T11:28:33Z</time>
      </trkpt>
      <trkpt lat="43.31877" lon="3.54633">
        <ele>18.6</ele>
        <time>2025-06-17T11:28:34Z</time>
      </trkpt>
      <trkpt lat="43.31879" lon="3.5463">
        <ele>18.8</ele>
        <time>2025-06-17T11:28:35Z</time>
      </trkpt>
      <trkpt lat="43.31882" lon="3.54627">
        <ele>18.8</ele>
        <time>2025-06-17T11:28:36Z</time>
      </trkpt>
      <trkpt lat="43.31884" lon="3.54623">
        <ele>18.8</ele>
        <time>2025-06-17T11:28:37Z</time>
      </trkpt>
      <trkpt lat="43.31886" lon="3.54619">
        <ele>18.8</ele>
        <time>2025-06-17T11:28:38Z</time>
      </trkpt>
      <trkpt lat="43.31887" lon="3.54614">
        <ele>18.8</ele>
        <time>2025-06-17T11:28:39Z</time>
      </trkpt>
      <trkpt lat="43.31888" lon="3.54609">
        <ele>18.8</ele>
        <time>2025-06-17T11:28:40Z</time>
      </trkpt>
      <trkpt lat="43.31889" lon="3.54603">
        <ele>18.8</ele>
        <time>2025-06-17T11:28:41Z</time>
      </trkpt>
      <trkpt lat="43.31891" lon="3.54598">
        <ele>18.8</ele>
        <time>2025-06-17T11:28:42Z</time>
      </trkpt>
      <trkpt lat="43.31892" lon="3.54591">
        <ele>18.8</ele>
        <time>2025-06-17T11:28:43Z</time>
      </trkpt>
      <trkpt lat="43.31892" lon="3.54585">
        <ele>18.8</ele>
        <time>2025-06-17T11:28:44Z</time>
      </trkpt>
      <trkpt lat="43.31893" lon="3.54579">
        <ele>18.8</ele>
        <time>2025-06-17T11:28:45Z</time>
      </trkpt>
      <trkpt lat="43.31892" lon="3.54573">
        <ele>18.8</ele>
        <time>2025-06-17T11:28:46Z</time>
      </trkpt>
      <trkpt lat="43.31891" lon="3.54566">
        <ele>18.8</ele>
        <time>2025-06-17T11:28:47Z</time>
      </trkpt>
      <trkpt lat="43.31889" lon="3.5456">
        <ele>18.8</ele>
        <time>2025-06-17T11:28:48Z</time>
      </trkpt>
      <trkpt lat="43.31888" lon="3.54554">
        <ele>18.8</ele>
        <time>2025-06-17T11:28:49Z</time>
      </trkpt>
      <trkpt lat="43.31887" lon="3.54548">
        <ele>18.8</ele>
        <time>2025-06-17T11:28:50Z</time>
      </trkpt>
      <trkpt lat="43.31885" lon="3.54542">
        <ele>18.8</ele>
        <time>2025-06-17T11:28:51Z</time>
      </trkpt>
      <trkpt lat="43.31883" lon="3.54535">
        <ele>18.8</ele>
        <time>2025-06-17T11:28:52Z</time>
      </trkpt>
      <trkpt lat="43.31881" lon="3.54529">
        <ele>18.8</ele>
        <time>2025-06-17T11:28:53Z</time>
      </trkpt>
      <trkpt lat="43.31879" lon="3.54523">
        <ele>18.8</ele>
        <time>2025-06-17T11:28:54Z</time>
      </trkpt>
      <trkpt lat="43.31877" lon="3.54516">
        <ele>18.8</ele>
        <time>2025-06-17T11:28:55Z</time>
      </trkpt>
      <trkpt lat="43.31876" lon="3.5451">
        <ele>18.8</ele>
        <time>2025-06-17T11:28:56Z</time>
      </trkpt>
      <trkpt lat="43.31874" lon="3.54503">
        <ele>19</ele>
        <time>2025-06-17T11:28:57Z</time>
      </trkpt>
      <trkpt lat="43.31872" lon="3.54497">
        <ele>19</ele>
        <time>2025-06-17T11:28:58Z</time>
      </trkpt>
      <trkpt lat="43.31871" lon="3.54489">
        <ele>19</ele>
        <time>2025-06-17T11:28:59Z</time>
      </trkpt>
      <trkpt lat="43.31869" lon="3.54482">
        <ele>19</ele>
        <time>2025-06-17T11:29:00Z</time>
      </trkpt>
      <trkpt lat="43.31867" lon="3.54475">
        <ele>19</ele>
        <time>2025-06-17T11:29:01Z</time>
      </trkpt>
      <trkpt lat="43.31865" lon="3.54468">
        <ele>19</ele>
        <time>2025-06-17T11:29:02Z</time>
      </trkpt>
      <trkpt lat="43.31863" lon="3.54461">
        <ele>19</ele>
        <time>2025-06-17T11:29:03Z</time>
      </trkpt>
      <trkpt lat="43.31861" lon="3.54454">
        <ele>19</ele>
        <time>2025-06-17T11:29:04Z</time>
      </trkpt>
      <trkpt lat="43.31859" lon="3.54447">
        <ele>19</ele>
        <time>2025-06-17T11:29:05Z</time>
      </trkpt>
      <trkpt lat="43.31858" lon="3.5444">
        <ele>19</ele>
        <time>2025-06-17T11:29:06Z</time>
      </trkpt>
      <trkpt lat="43.31856" lon="3.54433">
        <ele>18.8</ele>
        <time>2025-06-17T11:29:07Z</time>
      </trkpt>
      <trkpt lat="43.31853" lon="3.54427">
        <ele>18.8</ele>
        <time>2025-06-17T11:29:08Z</time>
      </trkpt>
      <trkpt lat="43.31852" lon="3.5442">
        <ele>19</ele>
        <time>2025-06-17T11:29:09Z</time>
      </trkpt>
      <trkpt lat="43.3185" lon="3.54413">
        <ele>19</ele>
        <time>2025-06-17T11:29:10Z</time>
      </trkpt>
      <trkpt lat="43.31848" lon="3.54407">
        <ele>18.8</ele>
        <time>2025-06-17T11:29:11Z</time>
      </trkpt>
      <trkpt lat="43.31846" lon="3.544">
        <ele>18.8</ele>
        <time>2025-06-17T11:29:12Z</time>
      </trkpt>
      <trkpt lat="43.31844" lon="3.54393">
        <ele>18.8</ele>
        <time>2025-06-17T11:29:13Z</time>
      </trkpt>
      <trkpt lat="43.31842" lon="3.54386">
        <ele>18.8</ele>
        <time>2025-06-17T11:29:14Z</time>
      </trkpt>
      <trkpt lat="43.3184" lon="3.54379">
        <ele>19</ele>
        <time>2025-06-17T11:29:15Z</time>
      </trkpt>
      <trkpt lat="43.31838" lon="3.54372">
        <ele>19</ele>
        <time>2025-06-17T11:29:16Z</time>
      </trkpt>
      <trkpt lat="43.31835" lon="3.54366">
        <ele>19</ele>
        <time>2025-06-17T11:29:17Z</time>
      </trkpt>
      <trkpt lat="43.31833" lon="3.54359">
        <ele>19</ele>
        <time>2025-06-17T11:29:18Z</time>
      </trkpt>
      <trkpt lat="43.31831" lon="3.54352">
        <ele>19.2</ele>
        <time>2025-06-17T11:29:19Z</time>
      </trkpt>
      <trkpt lat="43.31829" lon="3.54345">
        <ele>19.2</ele>
        <time>2025-06-17T11:29:20Z</time>
      </trkpt>
      <trkpt lat="43.31827" lon="3.54338">
        <ele>19.2</ele>
        <time>2025-06-17T11:29:21Z</time>
      </trkpt>
      <trkpt lat="43.31825" lon="3.54331">
        <ele>19.2</ele>
        <time>2025-06-17T11:29:22Z</time>
      </trkpt>
      <trkpt lat="43.31823" lon="3.54324">
        <ele>19.2</ele>
        <time>2025-06-17T11:29:23Z</time>
      </trkpt>
      <trkpt lat="43.31821" lon="3.54317">
        <ele>19.2</ele>
        <time>2025-06-17T11:29:24Z</time>
      </trkpt>
      <trkpt lat="43.31819" lon="3.54309">
        <ele>19.2</ele>
        <time>2025-06-17T11:29:25Z</time>
      </trkpt>
      <trkpt lat="43.31816" lon="3.54302">
        <ele>19.2</ele>
        <time>2025-06-17T11:29:26Z</time>
      </trkpt>
      <trkpt lat="43.31814" lon="3.54294">
        <ele>19.2</ele>
        <time>2025-06-17T11:29:27Z</time>
      </trkpt>
      <trkpt lat="43.31812" lon="3.54287">
        <ele>19.2</ele>
        <time>2025-06-17T11:29:28Z</time>
      </trkpt>
      <trkpt lat="43.3181" lon="3.54279">
        <ele>19</ele>
        <time>2025-06-17T11:29:29Z</time>
      </trkpt>
      <trkpt lat="43.31808" lon="3.54272">
        <ele>19</ele>
        <time>2025-06-17T11:29:30Z</time>
      </trkpt>
      <trkpt lat="43.31805" lon="3.54264">
        <ele>19</ele>
        <time>2025-06-17T11:29:31Z</time>
      </trkpt>
      <trkpt lat="43.31803" lon="3.54256">
        <ele>19</ele>
        <time>2025-06-17T11:29:32Z</time>
      </trkpt>
      <trkpt lat="43.31801" lon="3.54248">
        <ele>19</ele>
        <time>2025-06-17T11:29:33Z</time>
      </trkpt>
      <trkpt lat="43.31798" lon="3.54241">
        <ele>19</ele>
        <time>2025-06-17T11:29:34Z</time>
      </trkpt>
      <trkpt lat="43.31796" lon="3.54233">
        <ele>19</ele>
        <time>2025-06-17T11:29:35Z</time>
      </trkpt>
      <trkpt lat="43.31794" lon="3.54225">
        <ele>19</ele>
        <time>2025-06-17T11:29:36Z</time>
      </trkpt>
      <trkpt lat="43.31791" lon="3.54218">
        <ele>19.2</ele>
        <time>2025-06-17T11:29:37Z</time>
      </trkpt>
      <trkpt lat="43.31789" lon="3.5421">
        <ele>19.2</ele>
        <time>2025-06-17T11:29:38Z</time>
      </trkpt>
      <trkpt lat="43.31787" lon="3.54203">
        <ele>19.6</ele>
        <time>2025-06-17T11:29:39Z</time>
      </trkpt>
      <trkpt lat="43.31784" lon="3.54195">
        <ele>19.8</ele>
        <time>2025-06-17T11:29:40Z</time>
      </trkpt>
      <trkpt lat="43.31782" lon="3.54188">
        <ele>20</ele>
        <time>2025-06-17T11:29:41Z</time>
      </trkpt>
      <trkpt lat="43.3178" lon="3.5418">
        <ele>19.8</ele>
        <time>2025-06-17T11:29:42Z</time>
      </trkpt>
      <trkpt lat="43.31778" lon="3.54173">
        <ele>19.8</ele>
        <time>2025-06-17T11:29:43Z</time>
      </trkpt>
      <trkpt lat="43.31775" lon="3.54166">
        <ele>20</ele>
        <time>2025-06-17T11:29:44Z</time>
      </trkpt>
      <trkpt lat="43.31773" lon="3.54158">
        <ele>20</ele>
        <time>2025-06-17T11:29:45Z</time>
      </trkpt>
      <trkpt lat="43.31771" lon="3.54151">
        <ele>20</ele>
        <time>2025-06-17T11:29:46Z</time>
      </trkpt>
      <trkpt lat="43.31768" lon="3.54144">
        <ele>20</ele>
        <time>2025-06-17T11:29:47Z</time>
      </trkpt>
      <trkpt lat="43.31766" lon="3.54137">
        <ele>20</ele>
        <time>2025-06-17T11:29:48Z</time>
      </trkpt>
      <trkpt lat="43.31763" lon="3.5413">
        <ele>20.2</ele>
        <time>2025-06-17T11:29:49Z</time>
      </trkpt>
      <trkpt lat="43.31761" lon="3.54123">
        <ele>20.2</ele>
        <time>2025-06-17T11:29:50Z</time>
      </trkpt>
      <trkpt lat="43.31759" lon="3.54116">
        <ele>20.2</ele>
        <time>2025-06-17T11:29:51Z</time>
      </trkpt>
      <trkpt lat="43.31757" lon="3.54108">
        <ele>20</ele>
        <time>2025-06-17T11:29:52Z</time>
      </trkpt>
      <trkpt lat="43.31755" lon="3.541">
        <ele>20</ele>
        <time>2025-06-17T11:29:53Z</time>
      </trkpt>
      <trkpt lat="43.31753" lon="3.54093">
        <ele>20</ele>
        <time>2025-06-17T11:29:54Z</time>
      </trkpt>
      <trkpt lat="43.3175" lon="3.54085">
        <ele>20.2</ele>
        <time>2025-06-17T11:29:55Z</time>
      </trkpt>
      <trkpt lat="43.31748" lon="3.54078">
        <ele>20.2</ele>
        <time>2025-06-17T11:29:56Z</time>
      </trkpt>
      <trkpt lat="43.31746" lon="3.54071">
        <ele>20</ele>
        <time>2025-06-17T11:29:57Z</time>
      </trkpt>
      <trkpt lat="43.31744" lon="3.54063">
        <ele>19.8</ele>
        <time>2025-06-17T11:29:58Z</time>
      </trkpt>
      <trkpt lat="43.31742" lon="3.54056">
        <ele>19.8</ele>
        <time>2025-06-17T11:29:59Z</time>
      </trkpt>
      <trkpt lat="43.31739" lon="3.54049">
        <ele>19.8</ele>
        <time>2025-06-17T11:30:00Z</time>
      </trkpt>
      <trkpt lat="43.31737" lon="3.54041">
        <ele>19.8</ele>
        <time>2025-06-17T11:30:01Z</time>
      </trkpt>
      <trkpt lat="43.31735" lon="3.54034">
        <ele>19.8</ele>
        <time>2025-06-17T11:30:02Z</time>
      </trkpt>
      <trkpt lat="43.31732" lon="3.54027">
        <ele>19.8</ele>
        <time>2025-06-17T11:30:03Z</time>
      </trkpt>
      <trkpt lat="43.3173" lon="3.5402">
        <ele>19.8</ele>
        <time>2025-06-17T11:30:04Z</time>
      </trkpt>
      <trkpt lat="43.31728" lon="3.54012">
        <ele>19.8</ele>
        <time>2025-06-17T11:30:05Z</time>
      </trkpt>
      <trkpt lat="43.31725" lon="3.54005">
        <ele>19.8</ele>
        <time>2025-06-17T11:30:06Z</time>
      </trkpt>
      <trkpt lat="43.31723" lon="3.53997">
        <ele>19.8</ele>
        <time>2025-06-17T11:30:07Z</time>
      </trkpt>
      <trkpt lat="43.31721" lon="3.5399">
        <ele>19.8</ele>
        <time>2025-06-17T11:30:08Z</time>
      </trkpt>
      <trkpt lat="43.31718" lon="3.53983">
        <ele>19.8</ele>
        <time>2025-06-17T11:30:09Z</time>
      </trkpt>
      <trkpt lat="43.31716" lon="3.53975">
        <ele>19.8</ele>
        <time>2025-06-17T11:30:10Z</time>
      </trkpt>
      <trkpt lat="43.31713" lon="3.53968">
        <ele>19.8</ele>
        <time>2025-06-17T11:30:11Z</time>
      </trkpt>
      <trkpt lat="43.31711" lon="3.53961">
        <ele>19.8</ele>
        <time>2025-06-17T11:30:12Z</time>
      </trkpt>
      <trkpt lat="43.31709" lon="3.53953">
        <ele>19.8</ele>
        <time>2025-06-17T11:30:13Z</time>
      </trkpt>
      <trkpt lat="43.31707" lon="3.53946">
        <ele>19.8</ele>
        <time>2025-06-17T11:30:14Z</time>
      </trkpt>
      <trkpt lat="43.31705" lon="3.53939">
        <ele>19.8</ele>
        <time>2025-06-17T11:30:15Z</time>
      </trkpt>
      <trkpt lat="43.31702" lon="3.53931">
        <ele>19.6</ele>
        <time>2025-06-17T11:30:16Z</time>
      </trkpt>
      <trkpt lat="43.317" lon="3.53923">
        <ele>19.8</ele>
        <time>2025-06-17T11:30:17Z</time>
      </trkpt>
      <trkpt lat="43.31698" lon="3.53916">
        <ele>19.8</ele>
        <time>2025-06-17T11:30:18Z</time>
      </trkpt>
      <trkpt lat="43.31696" lon="3.53909">
        <ele>19.8</ele>
        <time>2025-06-17T11:30:19Z</time>
      </trkpt>
      <trkpt lat="43.31693" lon="3.53901">
        <ele>19.8</ele>
        <time>2025-06-17T11:30:20Z</time>
      </trkpt>
      <trkpt lat="43.31691" lon="3.53894">
        <ele>19.8</ele>
        <time>2025-06-17T11:30:21Z</time>
      </trkpt>
      <trkpt lat="43.31689" lon="3.53887">
        <ele>19.8</ele>
        <time>2025-06-17T11:30:22Z</time>
      </trkpt>
      <trkpt lat="43.31687" lon="3.53879">
        <ele>19.6</ele>
        <time>2025-06-17T11:30:23Z</time>
      </trkpt>
      <trkpt lat="43.31685" lon="3.53872">
        <ele>19.6</ele>
        <time>2025-06-17T11:30:24Z</time>
      </trkpt>
      <trkpt lat="43.31682" lon="3.53864">
        <ele>19.6</ele>
        <time>2025-06-17T11:30:25Z</time>
      </trkpt>
      <trkpt lat="43.3168" lon="3.53857">
        <ele>19.6</ele>
        <time>2025-06-17T11:30:26Z</time>
      </trkpt>
      <trkpt lat="43.31677" lon="3.53849">
        <ele>19.6</ele>
        <time>2025-06-17T11:30:27Z</time>
      </trkpt>
      <trkpt lat="43.31675" lon="3.53842">
        <ele>19.4</ele>
        <time>2025-06-17T11:30:28Z</time>
      </trkpt>
      <trkpt lat="43.31672" lon="3.53834">
        <ele>19.4</ele>
        <time>2025-06-17T11:30:29Z</time>
      </trkpt>
      <trkpt lat="43.3167" lon="3.53826">
        <ele>19.4</ele>
        <time>2025-06-17T11:30:30Z</time>
      </trkpt>
      <trkpt lat="43.31668" lon="3.53819">
        <ele>19.4</ele>
        <time>2025-06-17T11:30:31Z</time>
      </trkpt>
      <trkpt lat="43.31665" lon="3.53812">
        <ele>19.4</ele>
        <time>2025-06-17T11:30:32Z</time>
      </trkpt>
      <trkpt lat="43.31663" lon="3.53804">
        <ele>19.4</ele>
        <time>2025-06-17T11:30:33Z</time>
      </trkpt>
      <trkpt lat="43.3166" lon="3.53797">
        <ele>19.4</ele>
        <time>2025-06-17T11:30:34Z</time>
      </trkpt>
      <trkpt lat="43.31658" lon="3.53789">
        <ele>19.2</ele>
        <time>2025-06-17T11:30:35Z</time>
      </trkpt>
      <trkpt lat="43.31656" lon="3.53782">
        <ele>19.2</ele>
        <time>2025-06-17T11:30:36Z</time>
      </trkpt>
      <trkpt lat="43.31653" lon="3.53775">
        <ele>19.2</ele>
        <time>2025-06-17T11:30:37Z</time>
      </trkpt>
      <trkpt lat="43.31651" lon="3.53768">
        <ele>19.4</ele>
        <time>2025-06-17T11:30:38Z</time>
      </trkpt>
      <trkpt lat="43.31649" lon="3.5376">
        <ele>19.4</ele>
        <time>2025-06-17T11:30:39Z</time>
      </trkpt>
      <trkpt lat="43.31647" lon="3.53753">
        <ele>19.6</ele>
        <time>2025-06-17T11:30:40Z</time>
      </trkpt>
      <trkpt lat="43.31645" lon="3.53745">
        <ele>19.6</ele>
        <time>2025-06-17T11:30:41Z</time>
      </trkpt>
      <trkpt lat="43.31643" lon="3.53738">
        <ele>19.4</ele>
        <time>2025-06-17T11:30:42Z</time>
      </trkpt>
      <trkpt lat="43.3164" lon="3.5373">
        <ele>19.4</ele>
        <time>2025-06-17T11:30:43Z</time>
      </trkpt>
      <trkpt lat="43.31638" lon="3.53723">
        <ele>19.4</ele>
        <time>2025-06-17T11:30:44Z</time>
      </trkpt>
      <trkpt lat="43.31636" lon="3.53716">
        <ele>19.4</ele>
        <time>2025-06-17T11:30:45Z</time>
      </trkpt>
      <trkpt lat="43.31634" lon="3.53708">
        <ele>19.6</ele>
        <time>2025-06-17T11:30:46Z</time>
      </trkpt>
      <trkpt lat="43.31631" lon="3.53701">
        <ele>19.6</ele>
        <time>2025-06-17T11:30:47Z</time>
      </trkpt>
      <trkpt lat="43.31629" lon="3.53693">
        <ele>19.6</ele>
        <time>2025-06-17T11:30:48Z</time>
      </trkpt>
      <trkpt lat="43.31626" lon="3.53686">
        <ele>19.6</ele>
        <time>2025-06-17T11:30:49Z</time>
      </trkpt>
      <trkpt lat="43.31624" lon="3.53679">
        <ele>19.6</ele>
        <time>2025-06-17T11:30:50Z</time>
      </trkpt>
      <trkpt lat="43.31622" lon="3.53671">
        <ele>19.4</ele>
        <time>2025-06-17T11:30:51Z</time>
      </trkpt>
      <trkpt lat="43.3162" lon="3.53663">
        <ele>19.4</ele>
        <time>2025-06-17T11:30:52Z</time>
      </trkpt>
      <trkpt lat="43.31618" lon="3.53656">
        <ele>19.4</ele>
        <time>2025-06-17T11:30:53Z</time>
      </trkpt>
      <trkpt lat="43.31615" lon="3.53649">
        <ele>19.4</ele>
        <time>2025-06-17T11:30:54Z</time>
      </trkpt>
      <trkpt lat="43.31613" lon="3.53641">
        <ele>19.4</ele>
        <time>2025-06-17T11:30:55Z</time>
      </trkpt>
      <trkpt lat="43.3161" lon="3.53634">
        <ele>19.4</ele>
        <time>2025-06-17T11:30:56Z</time>
      </trkpt>
      <trkpt lat="43.31607" lon="3.53626">
        <ele>19.4</ele>
        <time>2025-06-17T11:30:57Z</time>
      </trkpt>
      <trkpt lat="43.31605" lon="3.53619">
        <ele>19.4</ele>
        <time>2025-06-17T11:30:58Z</time>
      </trkpt>
      <trkpt lat="43.31602" lon="3.53612">
        <ele>19.4</ele>
        <time>2025-06-17T11:30:59Z</time>
      </trkpt>
      <trkpt lat="43.31599" lon="3.53605">
        <ele>19.6</ele>
        <time>2025-06-17T11:31:00Z</time>
      </trkpt>
      <trkpt lat="43.31597" lon="3.53598">
        <ele>19.6</ele>
        <time>2025-06-17T11:31:01Z</time>
      </trkpt>
      <trkpt lat="43.31595" lon="3.53591">
        <ele>19.6</ele>
        <time>2025-06-17T11:31:02Z</time>
      </trkpt>
      <trkpt lat="43.31593" lon="3.53584">
        <ele>19.6</ele>
        <time>2025-06-17T11:31:03Z</time>
      </trkpt>
      <trkpt lat="43.3159" lon="3.53577">
        <ele>19.6</ele>
        <time>2025-06-17T11:31:04Z</time>
      </trkpt>
      <trkpt lat="43.31588" lon="3.53571">
        <ele>19.6</ele>
        <time>2025-06-17T11:31:05Z</time>
      </trkpt>
      <trkpt lat="43.31586" lon="3.53564">
        <ele>19.4</ele>
        <time>2025-06-17T11:31:06Z</time>
      </trkpt>
      <trkpt lat="43.31584" lon="3.53557">
        <ele>19.4</ele>
        <time>2025-06-17T11:31:07Z</time>
      </trkpt>
      <trkpt lat="43.31581" lon="3.53552">
        <ele>19.4</ele>
        <time>2025-06-17T11:31:08Z</time>
      </trkpt>
      <trkpt lat="43.31578" lon="3.53546">
        <ele>19.4</ele>
        <time>2025-06-17T11:31:09Z</time>
      </trkpt>
      <trkpt lat="43.31575" lon="3.53542">
        <ele>19.4</ele>
        <time>2025-06-17T11:31:10Z</time>
      </trkpt>
      <trkpt lat="43.31572" lon="3.53539">
        <ele>19.4</ele>
        <time>2025-06-17T11:31:11Z</time>
      </trkpt>
      <trkpt lat="43.31568" lon="3.53537">
        <ele>19.4</ele>
        <time>2025-06-17T11:31:12Z</time>
      </trkpt>
      <trkpt lat="43.31565" lon="3.53537">
        <ele>19.4</ele>
        <time>2025-06-17T11:31:13Z</time>
      </trkpt>
      <trkpt lat="43.31562" lon="3.53538">
        <ele>19.4</ele>
        <time>2025-06-17T11:31:14Z</time>
      </trkpt>
      <trkpt lat="43.31558" lon="3.53537">
        <ele>19.4</ele>
        <time>2025-06-17T11:31:15Z</time>
      </trkpt>
      <trkpt lat="43.31556" lon="3.53534">
        <ele>19.4</ele>
        <time>2025-06-17T11:31:16Z</time>
      </trkpt>
      <trkpt lat="43.31554" lon="3.53529">
        <ele>19.4</ele>
        <time>2025-06-17T11:31:17Z</time>
      </trkpt>
      <trkpt lat="43.31553" lon="3.53524">
        <ele>19.4</ele>
        <time>2025-06-17T11:31:18Z</time>
      </trkpt>
      <trkpt lat="43.31553" lon="3.53518">
        <ele>19.6</ele>
        <time>2025-06-17T11:31:19Z</time>
      </trkpt>
      <trkpt lat="43.31554" lon="3.53513">
        <ele>19.6</ele>
        <time>2025-06-17T11:31:20Z</time>
      </trkpt>
      <trkpt lat="43.31554" lon="3.53507">
        <ele>19.6</ele>
        <time>2025-06-17T11:31:21Z</time>
      </trkpt>
      <trkpt lat="43.31555" lon="3.535">
        <ele>19.6</ele>
        <time>2025-06-17T11:31:22Z</time>
      </trkpt>
      <trkpt lat="43.31556" lon="3.53494">
        <ele>19.6</ele>
        <time>2025-06-17T11:31:23Z</time>
      </trkpt>
      <trkpt lat="43.31558" lon="3.53488">
        <ele>19.6</ele>
        <time>2025-06-17T11:31:24Z</time>
      </trkpt>
      <trkpt lat="43.31558" lon="3.53482">
        <ele>19.6</ele>
        <time>2025-06-17T11:31:25Z</time>
      </trkpt>
      <trkpt lat="43.31557" lon="3.53475">
        <ele>19.6</ele>
        <time>2025-06-17T11:31:26Z</time>
      </trkpt>
      <trkpt lat="43.31556" lon="3.53469">
        <ele>19.6</ele>
        <time>2025-06-17T11:31:27Z</time>
      </trkpt>
      <trkpt lat="43.31555" lon="3.53462">
        <ele>19.6</ele>
        <time>2025-06-17T11:31:28Z</time>
      </trkpt>
      <trkpt lat="43.31553" lon="3.53455">
        <ele>19.6</ele>
        <time>2025-06-17T11:31:29Z</time>
      </trkpt>
      <trkpt lat="43.31551" lon="3.53448">
        <ele>19.6</ele>
        <time>2025-06-17T11:31:30Z</time>
      </trkpt>
      <trkpt lat="43.31549" lon="3.53442">
        <ele>19.6</ele>
        <time>2025-06-17T11:31:31Z</time>
      </trkpt>
      <trkpt lat="43.31547" lon="3.53435">
        <ele>19.6</ele>
        <time>2025-06-17T11:31:32Z</time>
      </trkpt>
      <trkpt lat="43.31546" lon="3.53429">
        <ele>19.6</ele>
        <time>2025-06-17T11:31:33Z</time>
      </trkpt>
      <trkpt lat="43.31544" lon="3.53422">
        <ele>19.6</ele>
        <time>2025-06-17T11:31:34Z</time>
      </trkpt>
      <trkpt lat="43.31542" lon="3.53416">
        <ele>19.6</ele>
        <time>2025-06-17T11:31:35Z</time>
      </trkpt>
      <trkpt lat="43.3154" lon="3.5341">
        <ele>19.6</ele>
        <time>2025-06-17T11:31:36Z</time>
      </trkpt>
      <trkpt lat="43.31538" lon="3.53404">
        <ele>19.6</ele>
        <time>2025-06-17T11:31:37Z</time>
      </trkpt>
      <trkpt lat="43.31536" lon="3.53397">
        <ele>19.6</ele>
        <time>2025-06-17T11:31:38Z</time>
      </trkpt>
      <trkpt lat="43.31534" lon="3.5339">
        <ele>19.8</ele>
        <time>2025-06-17T11:31:39Z</time>
      </trkpt>
      <trkpt lat="43.31532" lon="3.53383">
        <ele>19.8</ele>
        <time>2025-06-17T11:31:40Z</time>
      </trkpt>
      <trkpt lat="43.3153" lon="3.53376">
        <ele>19.8</ele>
        <time>2025-06-17T11:31:41Z</time>
      </trkpt>
      <trkpt lat="43.31528" lon="3.53369">
        <ele>19.8</ele>
        <time>2025-06-17T11:31:42Z</time>
      </trkpt>
      <trkpt lat="43.31526" lon="3.53362">
        <ele>19.8</ele>
        <time>2025-06-17T11:31:43Z</time>
      </trkpt>
      <trkpt lat="43.31524" lon="3.53355">
        <ele>19.8</ele>
        <time>2025-06-17T11:31:44Z</time>
      </trkpt>
      <trkpt lat="43.31522" lon="3.53348">
        <ele>19.8</ele>
        <time>2025-06-17T11:31:45Z</time>
      </trkpt>
      <trkpt lat="43.3152" lon="3.53341">
        <ele>19.8</ele>
        <time>2025-06-17T11:31:46Z</time>
      </trkpt>
      <trkpt lat="43.31518" lon="3.53334">
        <ele>19.8</ele>
        <time>2025-06-17T11:31:47Z</time>
      </trkpt>
      <trkpt lat="43.31516" lon="3.53327">
        <ele>19.8</ele>
        <time>2025-06-17T11:31:48Z</time>
      </trkpt>
      <trkpt lat="43.31513" lon="3.53319">
        <ele>19.8</ele>
        <time>2025-06-17T11:31:49Z</time>
      </trkpt>
      <trkpt lat="43.31511" lon="3.53312">
        <ele>19.8</ele>
        <time>2025-06-17T11:31:50Z</time>
      </trkpt>
      <trkpt lat="43.31509" lon="3.53305">
        <ele>19.8</ele>
        <time>2025-06-17T11:31:51Z</time>
      </trkpt>
      <trkpt lat="43.31506" lon="3.53298">
        <ele>19.8</ele>
        <time>2025-06-17T11:31:52Z</time>
      </trkpt>
      <trkpt lat="43.31504" lon="3.53291">
        <ele>20</ele>
        <time>2025-06-17T11:31:53Z</time>
      </trkpt>
      <trkpt lat="43.31502" lon="3.53284">
        <ele>19.8</ele>
        <time>2025-06-17T11:31:54Z</time>
      </trkpt>
      <trkpt lat="43.31499" lon="3.53277">
        <ele>19.8</ele>
        <time>2025-06-17T11:31:55Z</time>
      </trkpt>
      <trkpt lat="43.31498" lon="3.5327">
        <ele>19.8</ele>
        <time>2025-06-17T11:31:56Z</time>
      </trkpt>
      <trkpt lat="43.31495" lon="3.53263">
        <ele>19.8</ele>
        <time>2025-06-17T11:31:57Z</time>
      </trkpt>
      <trkpt lat="43.31493" lon="3.53256">
        <ele>19.8</ele>
        <time>2025-06-17T11:31:58Z</time>
      </trkpt>
      <trkpt lat="43.31491" lon="3.53249">
        <ele>19.8</ele>
        <time>2025-06-17T11:31:59Z</time>
      </trkpt>
      <trkpt lat="43.31489" lon="3.53242">
        <ele>19.8</ele>
        <time>2025-06-17T11:32:00Z</time>
      </trkpt>
      <trkpt lat="43.31486" lon="3.53235">
        <ele>19.8</ele>
        <time>2025-06-17T11:32:01Z</time>
      </trkpt>
      <trkpt lat="43.31484" lon="3.53227">
        <ele>19.8</ele>
        <time>2025-06-17T11:32:02Z</time>
      </trkpt>
      <trkpt lat="43.31482" lon="3.5322">
        <ele>19.8</ele>
        <time>2025-06-17T11:32:03Z</time>
      </trkpt>
      <trkpt lat="43.3148" lon="3.53213">
        <ele>19.8</ele>
        <time>2025-06-17T11:32:04Z</time>
      </trkpt>
      <trkpt lat="43.31478" lon="3.53206">
        <ele>20</ele>
        <time>2025-06-17T11:32:05Z</time>
      </trkpt>
      <trkpt lat="43.31476" lon="3.532">
        <ele>20</ele>
        <time>2025-06-17T11:32:06Z</time>
      </trkpt>
      <trkpt lat="43.31474" lon="3.53193">
        <ele>20</ele>
        <time>2025-06-17T11:32:07Z</time>
      </trkpt>
      <trkpt lat="43.31472" lon="3.53186">
        <ele>20</ele>
        <time>2025-06-17T11:32:08Z</time>
      </trkpt>
      <trkpt lat="43.3147" lon="3.5318">
        <ele>20.2</ele>
        <time>2025-06-17T11:32:09Z</time>
      </trkpt>
      <trkpt lat="43.31468" lon="3.53174">
        <ele>20.2</ele>
        <time>2025-06-17T11:32:10Z</time>
      </trkpt>
      <trkpt lat="43.31466" lon="3.53168">
        <ele>20.2</ele>
        <time>2025-06-17T11:32:11Z</time>
      </trkpt>
      <trkpt lat="43.31464" lon="3.53162">
        <ele>20.2</ele>
        <time>2025-06-17T11:32:12Z</time>
      </trkpt>
      <trkpt lat="43.31462" lon="3.53156">
        <ele>20.2</ele>
        <time>2025-06-17T11:32:13Z</time>
      </trkpt>
      <trkpt lat="43.3146" lon="3.5315">
        <ele>20.2</ele>
        <time>2025-06-17T11:32:14Z</time>
      </trkpt>
      <trkpt lat="43.31458" lon="3.53144">
        <ele>20.2</ele>
        <time>2025-06-17T11:32:15Z</time>
      </trkpt>
      <trkpt lat="43.31457" lon="3.53138">
        <ele>20.2</ele>
        <time>2025-06-17T11:32:16Z</time>
      </trkpt>
      <trkpt lat="43.31455" lon="3.53132">
        <ele>20.4</ele>
        <time>2025-06-17T11:32:17Z</time>
      </trkpt>
      <trkpt lat="43.31453" lon="3.53125">
        <ele>20.6</ele>
        <time>2025-06-17T11:32:18Z</time>
      </trkpt>
      <trkpt lat="43.31451" lon="3.53119">
        <ele>20.6</ele>
        <time>2025-06-17T11:32:19Z</time>
      </trkpt>
      <trkpt lat="43.31449" lon="3.53113">
        <ele>20.6</ele>
        <time>2025-06-17T11:32:20Z</time>
      </trkpt>
      <trkpt lat="43.31447" lon="3.53106">
        <ele>20.6</ele>
        <time>2025-06-17T11:32:21Z</time>
      </trkpt>
      <trkpt lat="43.31445" lon="3.53099">
        <ele>20.8</ele>
        <time>2025-06-17T11:32:22Z</time>
      </trkpt>
      <trkpt lat="43.31443" lon="3.53093">
        <ele>20.8</ele>
        <time>2025-06-17T11:32:23Z</time>
      </trkpt>
      <trkpt lat="43.31441" lon="3.53086">
        <ele>21</ele>
        <time>2025-06-17T11:32:24Z</time>
      </trkpt>
      <trkpt lat="43.31439" lon="3.53079">
        <ele>21.2</ele>
        <time>2025-06-17T11:32:25Z</time>
      </trkpt>
      <trkpt lat="43.31437" lon="3.53072">
        <ele>21.2</ele>
        <time>2025-06-17T11:32:26Z</time>
      </trkpt>
      <trkpt lat="43.31435" lon="3.53065">
        <ele>21.2</ele>
        <time>2025-06-17T11:32:27Z</time>
      </trkpt>
      <trkpt lat="43.31433" lon="3.53058">
        <ele>21.2</ele>
        <time>2025-06-17T11:32:28Z</time>
      </trkpt>
      <trkpt lat="43.31431" lon="3.53051">
        <ele>21.2</ele>
        <time>2025-06-17T11:32:29Z</time>
      </trkpt>
      <trkpt lat="43.31429" lon="3.53044">
        <ele>21.2</ele>
        <time>2025-06-17T11:32:30Z</time>
      </trkpt>
      <trkpt lat="43.31426" lon="3.53037">
        <ele>21.4</ele>
        <time>2025-06-17T11:32:31Z</time>
      </trkpt>
      <trkpt lat="43.31424" lon="3.5303">
        <ele>21.4</ele>
        <time>2025-06-17T11:32:32Z</time>
      </trkpt>
      <trkpt lat="43.31422" lon="3.53022">
        <ele>21.6</ele>
        <time>2025-06-17T11:32:33Z</time>
      </trkpt>
      <trkpt lat="43.3142" lon="3.53015">
        <ele>21.6</ele>
        <time>2025-06-17T11:32:34Z</time>
      </trkpt>
      <trkpt lat="43.31418" lon="3.53008">
        <ele>21.6</ele>
        <time>2025-06-17T11:32:35Z</time>
      </trkpt>
      <trkpt lat="43.31415" lon="3.53001">
        <ele>21.6</ele>
        <time>2025-06-17T11:32:36Z</time>
      </trkpt>
      <trkpt lat="43.31413" lon="3.52994">
        <ele>21.6</ele>
        <time>2025-06-17T11:32:37Z</time>
      </trkpt>
      <trkpt lat="43.31411" lon="3.52987">
        <ele>21.4</ele>
        <time>2025-06-17T11:32:38Z</time>
      </trkpt>
      <trkpt lat="43.31408" lon="3.5298">
        <ele>21.4</ele>
        <time>2025-06-17T11:32:39Z</time>
      </trkpt>
      <trkpt lat="43.31406" lon="3.52972">
        <ele>21.2</ele>
        <time>2025-06-17T11:32:40Z</time>
      </trkpt>
      <trkpt lat="43.31404" lon="3.52965">
        <ele>21.2</ele>
        <time>2025-06-17T11:32:41Z</time>
      </trkpt>
      <trkpt lat="43.31403" lon="3.52958">
        <ele>21</ele>
        <time>2025-06-17T11:32:42Z</time>
      </trkpt>
      <trkpt lat="43.314" lon="3.52951">
        <ele>21.2</ele>
        <time>2025-06-17T11:32:43Z</time>
      </trkpt>
      <trkpt lat="43.31398" lon="3.52945">
        <ele>21.2</ele>
        <time>2025-06-17T11:32:44Z</time>
      </trkpt>
      <trkpt lat="43.31396" lon="3.52938">
        <ele>21.2</ele>
        <time>2025-06-17T11:32:45Z</time>
      </trkpt>
      <trkpt lat="43.31394" lon="3.52931">
        <ele>21.2</ele>
        <time>2025-06-17T11:32:46Z</time>
      </trkpt>
      <trkpt lat="43.31392" lon="3.52924">
        <ele>21</ele>
        <time>2025-06-17T11:32:47Z</time>
      </trkpt>
      <trkpt lat="43.31389" lon="3.52917">
        <ele>21.2</ele>
        <time>2025-06-17T11:32:48Z</time>
      </trkpt>
      <trkpt lat="43.31387" lon="3.5291">
        <ele>21</ele>
        <time>2025-06-17T11:32:49Z</time>
      </trkpt>
      <trkpt lat="43.31385" lon="3.52903">
        <ele>21</ele>
        <time>2025-06-17T11:32:50Z</time>
      </trkpt>
      <trkpt lat="43.31383" lon="3.52896">
        <ele>21</ele>
        <time>2025-06-17T11:32:51Z</time>
      </trkpt>
      <trkpt lat="43.31381" lon="3.52888">
        <ele>21</ele>
        <time>2025-06-17T11:32:52Z</time>
      </trkpt>
      <trkpt lat="43.31378" lon="3.52881">
        <ele>21</ele>
        <time>2025-06-17T11:32:53Z</time>
      </trkpt>
      <trkpt lat="43.31376" lon="3.52874">
        <ele>21</ele>
        <time>2025-06-17T11:32:54Z</time>
      </trkpt>
      <trkpt lat="43.31374" lon="3.52867">
        <ele>21.2</ele>
        <time>2025-06-17T11:32:55Z</time>
      </trkpt>
      <trkpt lat="43.31372" lon="3.5286">
        <ele>21</ele>
        <time>2025-06-17T11:32:56Z</time>
      </trkpt>
      <trkpt lat="43.3137" lon="3.52852">
        <ele>20.8</ele>
        <time>2025-06-17T11:32:57Z</time>
      </trkpt>
      <trkpt lat="43.31367" lon="3.52845">
        <ele>21</ele>
        <time>2025-06-17T11:32:58Z</time>
      </trkpt>
      <trkpt lat="43.31365" lon="3.52838">
        <ele>21</ele>
        <time>2025-06-17T11:32:59Z</time>
      </trkpt>
      <trkpt lat="43.31363" lon="3.52831">
        <ele>21</ele>
        <time>2025-06-17T11:33:00Z</time>
      </trkpt>
      <trkpt lat="43.31361" lon="3.52824">
        <ele>21.2</ele>
        <time>2025-06-17T11:33:01Z</time>
      </trkpt>
      <trkpt lat="43.31359" lon="3.52816">
        <ele>21.2</ele>
        <time>2025-06-17T11:33:02Z</time>
      </trkpt>
      <trkpt lat="43.31356" lon="3.52809">
        <ele>21.2</ele>
        <time>2025-06-17T11:33:03Z</time>
      </trkpt>
      <trkpt lat="43.31354" lon="3.52802">
        <ele>21.2</ele>
        <time>2025-06-17T11:33:04Z</time>
      </trkpt>
      <trkpt lat="43.31352" lon="3.52795">
        <ele>21.2</ele>
        <time>2025-06-17T11:33:05Z</time>
      </trkpt>
      <trkpt lat="43.3135" lon="3.52788">
        <ele>21.2</ele>
        <time>2025-06-17T11:33:06Z</time>
      </trkpt>
      <trkpt lat="43.31347" lon="3.5278">
        <ele>21.4</ele>
        <time>2025-06-17T11:33:07Z</time>
      </trkpt>
      <trkpt lat="43.31345" lon="3.52773">
        <ele>21.2</ele>
        <time>2025-06-17T11:33:08Z</time>
      </trkpt>
      <trkpt lat="43.31343" lon="3.52766">
        <ele>21.2</ele>
        <time>2025-06-17T11:33:09Z</time>
      </trkpt>
      <trkpt lat="43.31341" lon="3.52758">
        <ele>21.2</ele>
        <time>2025-06-17T11:33:10Z</time>
      </trkpt>
      <trkpt lat="43.31338" lon="3.52751">
        <ele>21.2</ele>
        <time>2025-06-17T11:33:11Z</time>
      </trkpt>
      <trkpt lat="43.31336" lon="3.52743">
        <ele>21.2</ele>
        <time>2025-06-17T11:33:12Z</time>
      </trkpt>
      <trkpt lat="43.31334" lon="3.52736">
        <ele>21.2</ele>
        <time>2025-06-17T11:33:13Z</time>
      </trkpt>
      <trkpt lat="43.31332" lon="3.52729">
        <ele>21</ele>
        <time>2025-06-17T11:33:14Z</time>
      </trkpt>
      <trkpt lat="43.3133" lon="3.52721">
        <ele>21</ele>
        <time>2025-06-17T11:33:15Z</time>
      </trkpt>
      <trkpt lat="43.31327" lon="3.52714">
        <ele>20.8</ele>
        <time>2025-06-17T11:33:16Z</time>
      </trkpt>
      <trkpt lat="43.31325" lon="3.52706">
        <ele>21</ele>
        <time>2025-06-17T11:33:17Z</time>
      </trkpt>
      <trkpt lat="43.31323" lon="3.52699">
        <ele>20.8</ele>
        <time>2025-06-17T11:33:18Z</time>
      </trkpt>
      <trkpt lat="43.3132" lon="3.52691">
        <ele>20.8</ele>
        <time>2025-06-17T11:33:19Z</time>
      </trkpt>
      <trkpt lat="43.31318" lon="3.52684">
        <ele>20.8</ele>
        <time>2025-06-17T11:33:20Z</time>
      </trkpt>
      <trkpt lat="43.31315" lon="3.52676">
        <ele>20.8</ele>
        <time>2025-06-17T11:33:21Z</time>
      </trkpt>
      <trkpt lat="43.31313" lon="3.52669">
        <ele>20.6</ele>
        <time>2025-06-17T11:33:22Z</time>
      </trkpt>
      <trkpt lat="43.31311" lon="3.52661">
        <ele>20.6</ele>
        <time>2025-06-17T11:33:23Z</time>
      </trkpt>
      <trkpt lat="43.31309" lon="3.52653">
        <ele>20.6</ele>
        <time>2025-06-17T11:33:24Z</time>
      </trkpt>
      <trkpt lat="43.31306" lon="3.52645">
        <ele>20.6</ele>
        <time>2025-06-17T11:33:25Z</time>
      </trkpt>
      <trkpt lat="43.31304" lon="3.52638">
        <ele>20.6</ele>
        <time>2025-06-17T11:33:26Z</time>
      </trkpt>
      <trkpt lat="43.31301" lon="3.5263">
        <ele>20.6</ele>
        <time>2025-06-17T11:33:27Z</time>
      </trkpt>
      <trkpt lat="43.31299" lon="3.52622">
        <ele>20.6</ele>
        <time>2025-06-17T11:33:28Z</time>
      </trkpt>
      <trkpt lat="43.31296" lon="3.52614">
        <ele>20.6</ele>
        <time>2025-06-17T11:33:29Z</time>
      </trkpt>
      <trkpt lat="43.31294" lon="3.52607">
        <ele>20.6</ele>
        <time>2025-06-17T11:33:30Z</time>
      </trkpt>
      <trkpt lat="43.31291" lon="3.52599">
        <ele>20.8</ele>
        <time>2025-06-17T11:33:31Z</time>
      </trkpt>
      <trkpt lat="43.31288" lon="3.52591">
        <ele>20.8</ele>
        <time>2025-06-17T11:33:32Z</time>
      </trkpt>
      <trkpt lat="43.31286" lon="3.52583">
        <ele>20.8</ele>
        <time>2025-06-17T11:33:33Z</time>
      </trkpt>
      <trkpt lat="43.31284" lon="3.52575">
        <ele>20.8</ele>
        <time>2025-06-17T11:33:34Z</time>
      </trkpt>
      <trkpt lat="43.31281" lon="3.52567">
        <ele>20.8</ele>
        <time>2025-06-17T11:33:35Z</time>
      </trkpt>
      <trkpt lat="43.31279" lon="3.52559">
        <ele>20.8</ele>
        <time>2025-06-17T11:33:36Z</time>
      </trkpt>
      <trkpt lat="43.31276" lon="3.52551">
        <ele>20.8</ele>
        <time>2025-06-17T11:33:37Z</time>
      </trkpt>
      <trkpt lat="43.31273" lon="3.52543">
        <ele>20.8</ele>
        <time>2025-06-17T11:33:38Z</time>
      </trkpt>
      <trkpt lat="43.31271" lon="3.52536">
        <ele>20.8</ele>
        <time>2025-06-17T11:33:39Z</time>
      </trkpt>
      <trkpt lat="43.31268" lon="3.52528">
        <ele>20.8</ele>
        <time>2025-06-17T11:33:40Z</time>
      </trkpt>
      <trkpt lat="43.31266" lon="3.5252">
        <ele>20.8</ele>
        <time>2025-06-17T11:33:41Z</time>
      </trkpt>
      <trkpt lat="43.31264" lon="3.52512">
        <ele>20.8</ele>
        <time>2025-06-17T11:33:42Z</time>
      </trkpt>
      <trkpt lat="43.31262" lon="3.52504">
        <ele>20.8</ele>
        <time>2025-06-17T11:33:43Z</time>
      </trkpt>
      <trkpt lat="43.31259" lon="3.52496">
        <ele>20.8</ele>
        <time>2025-06-17T11:33:44Z</time>
      </trkpt>
      <trkpt lat="43.31256" lon="3.52489">
        <ele>20.8</ele>
        <time>2025-06-17T11:33:45Z</time>
      </trkpt>
      <trkpt lat="43.31254" lon="3.52481">
        <ele>20.8</ele>
        <time>2025-06-17T11:33:46Z</time>
      </trkpt>
      <trkpt lat="43.31251" lon="3.52473">
        <ele>20.8</ele>
        <time>2025-06-17T11:33:47Z</time>
      </trkpt>
      <trkpt lat="43.31249" lon="3.52465">
        <ele>20.8</ele>
        <time>2025-06-17T11:33:48Z</time>
      </trkpt>
      <trkpt lat="43.31247" lon="3.52458">
        <ele>20.8</ele>
        <time>2025-06-17T11:33:49Z</time>
      </trkpt>
      <trkpt lat="43.31244" lon="3.5245">
        <ele>20.8</ele>
        <time>2025-06-17T11:33:50Z</time>
      </trkpt>
      <trkpt lat="43.31242" lon="3.52443">
        <ele>20.8</ele>
        <time>2025-06-17T11:33:51Z</time>
      </trkpt>
      <trkpt lat="43.3124" lon="3.52435">
        <ele>20.8</ele>
        <time>2025-06-17T11:33:52Z</time>
      </trkpt>
      <trkpt lat="43.31237" lon="3.52427">
        <ele>20.8</ele>
        <time>2025-06-17T11:33:53Z</time>
      </trkpt>
      <trkpt lat="43.31235" lon="3.5242">
        <ele>20.8</ele>
        <time>2025-06-17T11:33:54Z</time>
      </trkpt>
      <trkpt lat="43.31233" lon="3.52412">
        <ele>20.8</ele>
        <time>2025-06-17T11:33:55Z</time>
      </trkpt>
      <trkpt lat="43.3123" lon="3.52404">
        <ele>20.8</ele>
        <time>2025-06-17T11:33:56Z</time>
      </trkpt>
      <trkpt lat="43.31228" lon="3.52397">
        <ele>20.8</ele>
        <time>2025-06-17T11:33:57Z</time>
      </trkpt>
      <trkpt lat="43.31225" lon="3.52389">
        <ele>20.8</ele>
        <time>2025-06-17T11:33:58Z</time>
      </trkpt>
      <trkpt lat="43.31223" lon="3.52381">
        <ele>20.6</ele>
        <time>2025-06-17T11:33:59Z</time>
      </trkpt>
      <trkpt lat="43.31221" lon="3.52374">
        <ele>20.6</ele>
        <time>2025-06-17T11:34:00Z</time>
      </trkpt>
      <trkpt lat="43.31219" lon="3.52367">
        <ele>20.6</ele>
        <time>2025-06-17T11:34:01Z</time>
      </trkpt>
      <trkpt lat="43.31217" lon="3.5236">
        <ele>20.6</ele>
        <time>2025-06-17T11:34:02Z</time>
      </trkpt>
      <trkpt lat="43.31215" lon="3.52352">
        <ele>20.4</ele>
        <time>2025-06-17T11:34:03Z</time>
      </trkpt>
      <trkpt lat="43.31212" lon="3.52346">
        <ele>20.4</ele>
        <time>2025-06-17T11:34:04Z</time>
      </trkpt>
      <trkpt lat="43.3121" lon="3.52339">
        <ele>20.4</ele>
        <time>2025-06-17T11:34:05Z</time>
      </trkpt>
      <trkpt lat="43.31208" lon="3.52332">
        <ele>20.4</ele>
        <time>2025-06-17T11:34:06Z</time>
      </trkpt>
      <trkpt lat="43.31206" lon="3.52326">
        <ele>20.4</ele>
        <time>2025-06-17T11:34:07Z</time>
      </trkpt>
      <trkpt lat="43.31204" lon="3.52319">
        <ele>20.4</ele>
        <time>2025-06-17T11:34:08Z</time>
      </trkpt>
      <trkpt lat="43.31202" lon="3.52313">
        <ele>20.4</ele>
        <time>2025-06-17T11:34:09Z</time>
      </trkpt>
      <trkpt lat="43.312" lon="3.52306">
        <ele>20.4</ele>
        <time>2025-06-17T11:34:10Z</time>
      </trkpt>
      <trkpt lat="43.31198" lon="3.52299">
        <ele>20.4</ele>
        <time>2025-06-17T11:34:11Z</time>
      </trkpt>
      <trkpt lat="43.31196" lon="3.52292">
        <ele>20.6</ele>
        <time>2025-06-17T11:34:12Z</time>
      </trkpt>
      <trkpt lat="43.31194" lon="3.52285">
        <ele>20.6</ele>
        <time>2025-06-17T11:34:13Z</time>
      </trkpt>
      <trkpt lat="43.31191" lon="3.52278">
        <ele>20.4</ele>
        <time>2025-06-17T11:34:14Z</time>
      </trkpt>
      <trkpt lat="43.31189" lon="3.52271">
        <ele>20.4</ele>
        <time>2025-06-17T11:34:15Z</time>
      </trkpt>
      <trkpt lat="43.31187" lon="3.52264">
        <ele>20.4</ele>
        <time>2025-06-17T11:34:16Z</time>
      </trkpt>
      <trkpt lat="43.31184" lon="3.52256">
        <ele>20.4</ele>
        <time>2025-06-17T11:34:17Z</time>
      </trkpt>
      <trkpt lat="43.31182" lon="3.52249">
        <ele>20.4</ele>
        <time>2025-06-17T11:34:18Z</time>
      </trkpt>
      <trkpt lat="43.31179" lon="3.52242">
        <ele>20.4</ele>
        <time>2025-06-17T11:34:19Z</time>
      </trkpt>
      <trkpt lat="43.31177" lon="3.52234">
        <ele>20.4</ele>
        <time>2025-06-17T11:34:20Z</time>
      </trkpt>
      <trkpt lat="43.31175" lon="3.52227">
        <ele>20.4</ele>
        <time>2025-06-17T11:34:21Z</time>
      </trkpt>
      <trkpt lat="43.31172" lon="3.52219">
        <ele>20.4</ele>
        <time>2025-06-17T11:34:22Z</time>
      </trkpt>
      <trkpt lat="43.3117" lon="3.52211">
        <ele>20.6</ele>
        <time>2025-06-17T11:34:23Z</time>
      </trkpt>
      <trkpt lat="43.31167" lon="3.52204">
        <ele>20.6</ele>
        <time>2025-06-17T11:34:24Z</time>
      </trkpt>
      <trkpt lat="43.31165" lon="3.52197">
        <ele>20.6</ele>
        <time>2025-06-17T11:34:25Z</time>
      </trkpt>
      <trkpt lat="43.31163" lon="3.52189">
        <ele>20.6</ele>
        <time>2025-06-17T11:34:26Z</time>
      </trkpt>
      <trkpt lat="43.31161" lon="3.52182">
        <ele>20.6</ele>
        <time>2025-06-17T11:34:27Z</time>
      </trkpt>
      <trkpt lat="43.31159" lon="3.52174">
        <ele>20.6</ele>
        <time>2025-06-17T11:34:28Z</time>
      </trkpt>
      <trkpt lat="43.31156" lon="3.52167">
        <ele>20.4</ele>
        <time>2025-06-17T11:34:29Z</time>
      </trkpt>
      <trkpt lat="43.31154" lon="3.5216">
        <ele>20.4</ele>
        <time>2025-06-17T11:34:30Z</time>
      </trkpt>
      <trkpt lat="43.31152" lon="3.52153">
        <ele>20.6</ele>
        <time>2025-06-17T11:34:31Z</time>
      </trkpt>
      <trkpt lat="43.31149" lon="3.52144">
        <ele>20.6</ele>
        <time>2025-06-17T11:34:32Z</time>
      </trkpt>
      <trkpt lat="43.31147" lon="3.52137">
        <ele>20.6</ele>
        <time>2025-06-17T11:34:33Z</time>
      </trkpt>
      <trkpt lat="43.31144" lon="3.52129">
        <ele>20.6</ele>
        <time>2025-06-17T11:34:34Z</time>
      </trkpt>
      <trkpt lat="43.31142" lon="3.52122">
        <ele>20.4</ele>
        <time>2025-06-17T11:34:35Z</time>
      </trkpt>
      <trkpt lat="43.3114" lon="3.52114">
        <ele>20.4</ele>
        <time>2025-06-17T11:34:36Z</time>
      </trkpt>
      <trkpt lat="43.31137" lon="3.52107">
        <ele>20.4</ele>
        <time>2025-06-17T11:34:37Z</time>
      </trkpt>
      <trkpt lat="43.31135" lon="3.52099">
        <ele>20.6</ele>
        <time>2025-06-17T11:34:38Z</time>
      </trkpt>
      <trkpt lat="43.31133" lon="3.52091">
        <ele>20.6</ele>
        <time>2025-06-17T11:34:39Z</time>
      </trkpt>
      <trkpt lat="43.31131" lon="3.52083">
        <ele>20.6</ele>
        <time>2025-06-17T11:34:40Z</time>
      </trkpt>
      <trkpt lat="43.31129" lon="3.52076">
        <ele>20.6</ele>
        <time>2025-06-17T11:34:41Z</time>
      </trkpt>
      <trkpt lat="43.31126" lon="3.52068">
        <ele>20.6</ele>
        <time>2025-06-17T11:34:42Z</time>
      </trkpt>
      <trkpt lat="43.31124" lon="3.52061">
        <ele>20.8</ele>
        <time>2025-06-17T11:34:43Z</time>
      </trkpt>
      <trkpt lat="43.31122" lon="3.52054">
        <ele>20.8</ele>
        <time>2025-06-17T11:34:44Z</time>
      </trkpt>
      <trkpt lat="43.3112" lon="3.52047">
        <ele>21</ele>
        <time>2025-06-17T11:34:45Z</time>
      </trkpt>
      <trkpt lat="43.31118" lon="3.5204">
        <ele>20.8</ele>
        <time>2025-06-17T11:34:46Z</time>
      </trkpt>
      <trkpt lat="43.31116" lon="3.52034">
        <ele>20.8</ele>
        <time>2025-06-17T11:34:47Z</time>
      </trkpt>
      <trkpt lat="43.31114" lon="3.52027">
        <ele>20.8</ele>
        <time>2025-06-17T11:34:48Z</time>
      </trkpt>
      <trkpt lat="43.31111" lon="3.5202">
        <ele>20.8</ele>
        <time>2025-06-17T11:34:49Z</time>
      </trkpt>
      <trkpt lat="43.31109" lon="3.52013">
        <ele>20.8</ele>
        <time>2025-06-17T11:34:50Z</time>
      </trkpt>
      <trkpt lat="43.31107" lon="3.52006">
        <ele>21</ele>
        <time>2025-06-17T11:34:51Z</time>
      </trkpt>
      <trkpt lat="43.31105" lon="3.51999">
        <ele>20.8</ele>
        <time>2025-06-17T11:34:52Z</time>
      </trkpt>
      <trkpt lat="43.31103" lon="3.51992">
        <ele>20.6</ele>
        <time>2025-06-17T11:34:53Z</time>
      </trkpt>
      <trkpt lat="43.31101" lon="3.51985">
        <ele>20.4</ele>
        <time>2025-06-17T11:34:54Z</time>
      </trkpt>
      <trkpt lat="43.31098" lon="3.51979">
        <ele>20.4</ele>
        <time>2025-06-17T11:34:55Z</time>
      </trkpt>
      <trkpt lat="43.31095" lon="3.5197">
        <ele>20.4</ele>
        <time>2025-06-17T11:34:56Z</time>
      </trkpt>
      <trkpt lat="43.31093" lon="3.51963">
        <ele>20.2</ele>
        <time>2025-06-17T11:34:57Z</time>
      </trkpt>
      <trkpt lat="43.3109" lon="3.51955">
        <ele>20.2</ele>
        <time>2025-06-17T11:34:58Z</time>
      </trkpt>
      <trkpt lat="43.31088" lon="3.51947">
        <ele>20.2</ele>
        <time>2025-06-17T11:34:59Z</time>
      </trkpt>
      <trkpt lat="43.31085" lon="3.51939">
        <ele>20.2</ele>
        <time>2025-06-17T11:35:00Z</time>
      </trkpt>
      <trkpt lat="43.31082" lon="3.5193">
        <ele>20.2</ele>
        <time>2025-06-17T11:35:01Z</time>
      </trkpt>
      <trkpt lat="43.3108" lon="3.51922">
        <ele>20.2</ele>
        <time>2025-06-17T11:35:02Z</time>
      </trkpt>
      <trkpt lat="43.31077" lon="3.51914">
        <ele>20.2</ele>
        <time>2025-06-17T11:35:03Z</time>
      </trkpt>
      <trkpt lat="43.31074" lon="3.51906">
        <ele>20.2</ele>
        <time>2025-06-17T11:35:04Z</time>
      </trkpt>
      <trkpt lat="43.31072" lon="3.51897">
        <ele>20.2</ele>
        <time>2025-06-17T11:35:05Z</time>
      </trkpt>
      <trkpt lat="43.31069" lon="3.51889">
        <ele>20.2</ele>
        <time>2025-06-17T11:35:06Z</time>
      </trkpt>
      <trkpt lat="43.31066" lon="3.51881">
        <ele>20.2</ele>
        <time>2025-06-17T11:35:07Z</time>
      </trkpt>
      <trkpt lat="43.31063" lon="3.51873">
        <ele>20.4</ele>
        <time>2025-06-17T11:35:08Z</time>
      </trkpt>
      <trkpt lat="43.3106" lon="3.51865">
        <ele>20.4</ele>
        <time>2025-06-17T11:35:09Z</time>
      </trkpt>
      <trkpt lat="43.31057" lon="3.51857">
        <ele>20.4</ele>
        <time>2025-06-17T11:35:10Z</time>
      </trkpt>
      <trkpt lat="43.31054" lon="3.51849">
        <ele>20.4</ele>
        <time>2025-06-17T11:35:11Z</time>
      </trkpt>
      <trkpt lat="43.31051" lon="3.51841">
        <ele>20.4</ele>
        <time>2025-06-17T11:35:12Z</time>
      </trkpt>
      <trkpt lat="43.31049" lon="3.51834">
        <ele>20.4</ele>
        <time>2025-06-17T11:35:13Z</time>
      </trkpt>
      <trkpt lat="43.31046" lon="3.51826">
        <ele>20.4</ele>
        <time>2025-06-17T11:35:14Z</time>
      </trkpt>
      <trkpt lat="43.31043" lon="3.51818">
        <ele>20.4</ele>
        <time>2025-06-17T11:35:15Z</time>
      </trkpt>
      <trkpt lat="43.31041" lon="3.5181">
        <ele>20.4</ele>
        <time>2025-06-17T11:35:16Z</time>
      </trkpt>
      <trkpt lat="43.31038" lon="3.51802">
        <ele>20.4</ele>
        <time>2025-06-17T11:35:17Z</time>
      </trkpt>
      <trkpt lat="43.31035" lon="3.51794">
        <ele>20.4</ele>
        <time>2025-06-17T11:35:18Z</time>
      </trkpt>
      <trkpt lat="43.31033" lon="3.51786">
        <ele>20.4</ele>
        <time>2025-06-17T11:35:19Z</time>
      </trkpt>
      <trkpt lat="43.3103" lon="3.51778">
        <ele>20.6</ele>
        <time>2025-06-17T11:35:20Z</time>
      </trkpt>
      <trkpt lat="43.31027" lon="3.5177">
        <ele>20.6</ele>
        <time>2025-06-17T11:35:21Z</time>
      </trkpt>
      <trkpt lat="43.31025" lon="3.51762">
        <ele>20.8</ele>
        <time>2025-06-17T11:35:22Z</time>
      </trkpt>
      <trkpt lat="43.31022" lon="3.51755">
        <ele>20.8</ele>
        <time>2025-06-17T11:35:23Z</time>
      </trkpt>
      <trkpt lat="43.3102" lon="3.51746">
        <ele>20.8</ele>
        <time>2025-06-17T11:35:24Z</time>
      </trkpt>
      <trkpt lat="43.31018" lon="3.51739">
        <ele>20.6</ele>
        <time>2025-06-17T11:35:25Z</time>
      </trkpt>
      <trkpt lat="43.31015" lon="3.51731">
        <ele>20.6</ele>
        <time>2025-06-17T11:35:26Z</time>
      </trkpt>
      <trkpt lat="43.31013" lon="3.51723">
        <ele>20.6</ele>
        <time>2025-06-17T11:35:27Z</time>
      </trkpt>
      <trkpt lat="43.31011" lon="3.51715">
        <ele>20.8</ele>
        <time>2025-06-17T11:35:28Z</time>
      </trkpt>
      <trkpt lat="43.31008" lon="3.51707">
        <ele>20.8</ele>
        <time>2025-06-17T11:35:29Z</time>
      </trkpt>
      <trkpt lat="43.31006" lon="3.517">
        <ele>20.8</ele>
        <time>2025-06-17T11:35:30Z</time>
      </trkpt>
      <trkpt lat="43.31003" lon="3.51692">
        <ele>20.8</ele>
        <time>2025-06-17T11:35:31Z</time>
      </trkpt>
      <trkpt lat="43.31001" lon="3.51684">
        <ele>20.8</ele>
        <time>2025-06-17T11:35:32Z</time>
      </trkpt>
      <trkpt lat="43.30998" lon="3.51676">
        <ele>20.8</ele>
        <time>2025-06-17T11:35:33Z</time>
      </trkpt>
      <trkpt lat="43.30996" lon="3.51668">
        <ele>20.6</ele>
        <time>2025-06-17T11:35:34Z</time>
      </trkpt>
      <trkpt lat="43.30993" lon="3.51661">
        <ele>20.6</ele>
        <time>2025-06-17T11:35:35Z</time>
      </trkpt>
      <trkpt lat="43.30991" lon="3.51653">
        <ele>20.6</ele>
        <time>2025-06-17T11:35:36Z</time>
      </trkpt>
      <trkpt lat="43.30989" lon="3.51646">
        <ele>20.6</ele>
        <time>2025-06-17T11:35:37Z</time>
      </trkpt>
      <trkpt lat="43.30986" lon="3.51638">
        <ele>20.6</ele>
        <time>2025-06-17T11:35:38Z</time>
      </trkpt>
      <trkpt lat="43.30984" lon="3.5163">
        <ele>20.6</ele>
        <time>2025-06-17T11:35:39Z</time>
      </trkpt>
      <trkpt lat="43.30982" lon="3.51623">
        <ele>20.4</ele>
        <time>2025-06-17T11:35:40Z</time>
      </trkpt>
      <trkpt lat="43.30979" lon="3.51615">
        <ele>20.4</ele>
        <time>2025-06-17T11:35:41Z</time>
      </trkpt>
      <trkpt lat="43.30977" lon="3.51608">
        <ele>20.4</ele>
        <time>2025-06-17T11:35:42Z</time>
      </trkpt>
      <trkpt lat="43.30975" lon="3.516">
        <ele>20.4</ele>
        <time>2025-06-17T11:35:43Z</time>
      </trkpt>
      <trkpt lat="43.30972" lon="3.51593">
        <ele>20.6</ele>
        <time>2025-06-17T11:35:44Z</time>
      </trkpt>
      <trkpt lat="43.3097" lon="3.51585">
        <ele>20.6</ele>
        <time>2025-06-17T11:35:45Z</time>
      </trkpt>
      <trkpt lat="43.30968" lon="3.51578">
        <ele>20.6</ele>
        <time>2025-06-17T11:35:46Z</time>
      </trkpt>
      <trkpt lat="43.30966" lon="3.51571">
        <ele>20.6</ele>
        <time>2025-06-17T11:35:47Z</time>
      </trkpt>
      <trkpt lat="43.30963" lon="3.51563">
        <ele>20.6</ele>
        <time>2025-06-17T11:35:48Z</time>
      </trkpt>
      <trkpt lat="43.30961" lon="3.51556">
        <ele>20.6</ele>
        <time>2025-06-17T11:35:49Z</time>
      </trkpt>
      <trkpt lat="43.30959" lon="3.51548">
        <ele>20.6</ele>
        <time>2025-06-17T11:35:50Z</time>
      </trkpt>
      <trkpt lat="43.30956" lon="3.51541">
        <ele>20.6</ele>
        <time>2025-06-17T11:35:51Z</time>
      </trkpt>
      <trkpt lat="43.30954" lon="3.51534">
        <ele>20.6</ele>
        <time>2025-06-17T11:35:52Z</time>
      </trkpt>
      <trkpt lat="43.30952" lon="3.51527">
        <ele>20.6</ele>
        <time>2025-06-17T11:35:53Z</time>
      </trkpt>
      <trkpt lat="43.3095" lon="3.51519">
        <ele>20.8</ele>
        <time>2025-06-17T11:35:54Z</time>
      </trkpt>
      <trkpt lat="43.30948" lon="3.51512">
        <ele>20.8</ele>
        <time>2025-06-17T11:35:55Z</time>
      </trkpt>
      <trkpt lat="43.30945" lon="3.51505">
        <ele>20.8</ele>
        <time>2025-06-17T11:35:56Z</time>
      </trkpt>
      <trkpt lat="43.30943" lon="3.51498">
        <ele>20.8</ele>
        <time>2025-06-17T11:35:57Z</time>
      </trkpt>
      <trkpt lat="43.3094" lon="3.51491">
        <ele>20.8</ele>
        <time>2025-06-17T11:35:58Z</time>
      </trkpt>
      <trkpt lat="43.30938" lon="3.51483">
        <ele>20.8</ele>
        <time>2025-06-17T11:35:59Z</time>
      </trkpt>
      <trkpt lat="43.30936" lon="3.51476">
        <ele>20.8</ele>
        <time>2025-06-17T11:36:00Z</time>
      </trkpt>
      <trkpt lat="43.30934" lon="3.51469">
        <ele>20.8</ele>
        <time>2025-06-17T11:36:01Z</time>
      </trkpt>
      <trkpt lat="43.30931" lon="3.51462">
        <ele>20.8</ele>
        <time>2025-06-17T11:36:02Z</time>
      </trkpt>
      <trkpt lat="43.30929" lon="3.51454">
        <ele>20.8</ele>
        <time>2025-06-17T11:36:03Z</time>
      </trkpt>
      <trkpt lat="43.30926" lon="3.51447">
        <ele>20.8</ele>
        <time>2025-06-17T11:36:04Z</time>
      </trkpt>
      <trkpt lat="43.30924" lon="3.5144">
        <ele>20.8</ele>
        <time>2025-06-17T11:36:05Z</time>
      </trkpt>
      <trkpt lat="43.30922" lon="3.51433">
        <ele>21</ele>
        <time>2025-06-17T11:36:06Z</time>
      </trkpt>
      <trkpt lat="43.30919" lon="3.51425">
        <ele>21</ele>
        <time>2025-06-17T11:36:07Z</time>
      </trkpt>
      <trkpt lat="43.30917" lon="3.51418">
        <ele>21</ele>
        <time>2025-06-17T11:36:08Z</time>
      </trkpt>
      <trkpt lat="43.30915" lon="3.51411">
        <ele>21</ele>
        <time>2025-06-17T11:36:09Z</time>
      </trkpt>
      <trkpt lat="43.30913" lon="3.51405">
        <ele>21</ele>
        <time>2025-06-17T11:36:10Z</time>
      </trkpt>
      <trkpt lat="43.30911" lon="3.51398">
        <ele>21.2</ele>
        <time>2025-06-17T11:36:11Z</time>
      </trkpt>
      <trkpt lat="43.30908" lon="3.51392">
        <ele>21.2</ele>
        <time>2025-06-17T11:36:12Z</time>
      </trkpt>
      <trkpt lat="43.30906" lon="3.51385">
        <ele>21</ele>
        <time>2025-06-17T11:36:13Z</time>
      </trkpt>
      <trkpt lat="43.30904" lon="3.51379">
        <ele>21</ele>
        <time>2025-06-17T11:36:14Z</time>
      </trkpt>
      <trkpt lat="43.30902" lon="3.51372">
        <ele>21.2</ele>
        <time>2025-06-17T11:36:15Z</time>
      </trkpt>
      <trkpt lat="43.309" lon="3.51366">
        <ele>21.2</ele>
        <time>2025-06-17T11:36:16Z</time>
      </trkpt>
      <trkpt lat="43.30898" lon="3.51359">
        <ele>21.2</ele>
        <time>2025-06-17T11:36:17Z</time>
      </trkpt>
      <trkpt lat="43.30896" lon="3.51354">
        <ele>21.2</ele>
        <time>2025-06-17T11:36:18Z</time>
      </trkpt>
      <trkpt lat="43.30894" lon="3.51348">
        <ele>21.2</ele>
        <time>2025-06-17T11:36:19Z</time>
      </trkpt>
      <trkpt lat="43.30893" lon="3.51342">
        <ele>21.2</ele>
        <time>2025-06-17T11:36:20Z</time>
      </trkpt>
      <trkpt lat="43.3089" lon="3.51337">
        <ele>21.2</ele>
        <time>2025-06-17T11:36:21Z</time>
      </trkpt>
      <trkpt lat="43.30888" lon="3.51333">
        <ele>21</ele>
        <time>2025-06-17T11:36:22Z</time>
      </trkpt>
      <trkpt lat="43.30884" lon="3.51329">
        <ele>21</ele>
        <time>2025-06-17T11:36:23Z</time>
      </trkpt>
      <trkpt lat="43.3088" lon="3.51325">
        <ele>20.8</ele>
        <time>2025-06-17T11:36:24Z</time>
      </trkpt>
      <trkpt lat="43.30877" lon="3.51321">
        <ele>20.8</ele>
        <time>2025-06-17T11:36:25Z</time>
      </trkpt>
      <trkpt lat="43.30874" lon="3.51316">
        <ele>20.8</ele>
        <time>2025-06-17T11:36:26Z</time>
      </trkpt>
      <trkpt lat="43.30873" lon="3.5131">
        <ele>20.6</ele>
        <time>2025-06-17T11:36:27Z</time>
      </trkpt>
      <trkpt lat="43.30871" lon="3.51303">
        <ele>20.6</ele>
        <time>2025-06-17T11:36:28Z</time>
      </trkpt>
      <trkpt lat="43.30868" lon="3.51296">
        <ele>20.6</ele>
        <time>2025-06-17T11:36:29Z</time>
      </trkpt>
      <trkpt lat="43.30866" lon="3.51289">
        <ele>20.6</ele>
        <time>2025-06-17T11:36:30Z</time>
      </trkpt>
      <trkpt lat="43.30864" lon="3.51282">
        <ele>20.6</ele>
        <time>2025-06-17T11:36:31Z</time>
      </trkpt>
      <trkpt lat="43.30862" lon="3.51275">
        <ele>20.6</ele>
        <time>2025-06-17T11:36:32Z</time>
      </trkpt>
      <trkpt lat="43.3086" lon="3.51268">
        <ele>20.6</ele>
        <time>2025-06-17T11:36:33Z</time>
      </trkpt>
      <trkpt lat="43.30858" lon="3.51261">
        <ele>20.6</ele>
        <time>2025-06-17T11:36:34Z</time>
      </trkpt>
      <trkpt lat="43.30856" lon="3.51254">
        <ele>20.6</ele>
        <time>2025-06-17T11:36:35Z</time>
      </trkpt>
      <trkpt lat="43.30854" lon="3.51247">
        <ele>20.6</ele>
        <time>2025-06-17T11:36:36Z</time>
      </trkpt>
      <trkpt lat="43.30852" lon="3.5124">
        <ele>20.8</ele>
        <time>2025-06-17T11:36:37Z</time>
      </trkpt>
      <trkpt lat="43.3085" lon="3.51233">
        <ele>20.8</ele>
        <time>2025-06-17T11:36:38Z</time>
      </trkpt>
      <trkpt lat="43.30847" lon="3.51226">
        <ele>21</ele>
        <time>2025-06-17T11:36:39Z</time>
      </trkpt>
      <trkpt lat="43.30845" lon="3.5122">
        <ele>21.2</ele>
        <time>2025-06-17T11:36:40Z</time>
      </trkpt>
      <trkpt lat="43.30843" lon="3.51213">
        <ele>21.4</ele>
        <time>2025-06-17T11:36:41Z</time>
      </trkpt>
      <trkpt lat="43.30841" lon="3.51207">
        <ele>21.6</ele>
        <time>2025-06-17T11:36:42Z</time>
      </trkpt>
      <trkpt lat="43.30839" lon="3.512">
        <ele>21.6</ele>
        <time>2025-06-17T11:36:43Z</time>
      </trkpt>
      <trkpt lat="43.30837" lon="3.51194">
        <ele>21.8</ele>
        <time>2025-06-17T11:36:44Z</time>
      </trkpt>
      <trkpt lat="43.30835" lon="3.51187">
        <ele>21.8</ele>
        <time>2025-06-17T11:36:45Z</time>
      </trkpt>
      <trkpt lat="43.30834" lon="3.51181">
        <ele>21.8</ele>
        <time>2025-06-17T11:36:46Z</time>
      </trkpt>
      <trkpt lat="43.30832" lon="3.51175">
        <ele>21.8</ele>
        <time>2025-06-17T11:36:47Z</time>
      </trkpt>
      <trkpt lat="43.3083" lon="3.51169">
        <ele>21.8</ele>
        <time>2025-06-17T11:36:48Z</time>
      </trkpt>
      <trkpt lat="43.30829" lon="3.51163">
        <ele>21.8</ele>
        <time>2025-06-17T11:36:49Z</time>
      </trkpt>
      <trkpt lat="43.30827" lon="3.51157">
        <ele>21.8</ele>
        <time>2025-06-17T11:36:50Z</time>
      </trkpt>
      <trkpt lat="43.30825" lon="3.51152">
        <ele>21.8</ele>
        <time>2025-06-17T11:36:51Z</time>
      </trkpt>
      <trkpt lat="43.30823" lon="3.51146">
        <ele>21.8</ele>
        <time>2025-06-17T11:36:52Z</time>
      </trkpt>
      <trkpt lat="43.30822" lon="3.5114">
        <ele>21.8</ele>
        <time>2025-06-17T11:36:53Z</time>
      </trkpt>
      <trkpt lat="43.3082" lon="3.51135">
        <ele>22</ele>
        <time>2025-06-17T11:36:54Z</time>
      </trkpt>
      <trkpt lat="43.30818" lon="3.5113">
        <ele>22</ele>
        <time>2025-06-17T11:36:55Z</time>
      </trkpt>
      <trkpt lat="43.30817" lon="3.51125">
        <ele>22</ele>
        <time>2025-06-17T11:36:56Z</time>
      </trkpt>
      <trkpt lat="43.30815" lon="3.5112">
        <ele>22.2</ele>
        <time>2025-06-17T11:36:57Z</time>
      </trkpt>
      <trkpt lat="43.30813" lon="3.51114">
        <ele>22.2</ele>
        <time>2025-06-17T11:36:58Z</time>
      </trkpt>
      <trkpt lat="43.30811" lon="3.51108">
        <ele>22.2</ele>
        <time>2025-06-17T11:36:59Z</time>
      </trkpt>
      <trkpt lat="43.30809" lon="3.51102">
        <ele>22.2</ele>
        <time>2025-06-17T11:37:00Z</time>
      </trkpt>
      <trkpt lat="43.30807" lon="3.51096">
        <ele>22.2</ele>
        <time>2025-06-17T11:37:01Z</time>
      </trkpt>
      <trkpt lat="43.30806" lon="3.51089">
        <ele>22.2</ele>
        <time>2025-06-17T11:37:02Z</time>
      </trkpt>
      <trkpt lat="43.30804" lon="3.51083">
        <ele>22.2</ele>
        <time>2025-06-17T11:37:03Z</time>
      </trkpt>
      <trkpt lat="43.30802" lon="3.51076">
        <ele>22.2</ele>
        <time>2025-06-17T11:37:04Z</time>
      </trkpt>
      <trkpt lat="43.308" lon="3.51069">
        <ele>22.4</ele>
        <time>2025-06-17T11:37:05Z</time>
      </trkpt>
      <trkpt lat="43.30798" lon="3.51062">
        <ele>22.4</ele>
        <time>2025-06-17T11:37:06Z</time>
      </trkpt>
      <trkpt lat="43.30796" lon="3.51054">
        <ele>22.6</ele>
        <time>2025-06-17T11:37:07Z</time>
      </trkpt>
      <trkpt lat="43.30794" lon="3.51048">
        <ele>22.6</ele>
        <time>2025-06-17T11:37:08Z</time>
      </trkpt>
      <trkpt lat="43.30792" lon="3.51041">
        <ele>22.6</ele>
        <time>2025-06-17T11:37:09Z</time>
      </trkpt>
      <trkpt lat="43.3079" lon="3.51034">
        <ele>22.6</ele>
        <time>2025-06-17T11:37:10Z</time>
      </trkpt>
      <trkpt lat="43.30788" lon="3.51027">
        <ele>22.6</ele>
        <time>2025-06-17T11:37:11Z</time>
      </trkpt>
      <trkpt lat="43.30785" lon="3.51021">
        <ele>22.8</ele>
        <time>2025-06-17T11:37:12Z</time>
      </trkpt>
      <trkpt lat="43.30783" lon="3.51014">
        <ele>22.6</ele>
        <time>2025-06-17T11:37:13Z</time>
      </trkpt>
      <trkpt lat="43.30781" lon="3.51007">
        <ele>22.8</ele>
        <time>2025-06-17T11:37:14Z</time>
      </trkpt>
      <trkpt lat="43.30779" lon="3.51">
        <ele>22.8</ele>
        <time>2025-06-17T11:37:15Z</time>
      </trkpt>
      <trkpt lat="43.30777" lon="3.50994">
        <ele>22.8</ele>
        <time>2025-06-17T11:37:16Z</time>
      </trkpt>
      <trkpt lat="43.30775" lon="3.50987">
        <ele>22.6</ele>
        <time>2025-06-17T11:37:17Z</time>
      </trkpt>
      <trkpt lat="43.30773" lon="3.5098">
        <ele>22.6</ele>
        <time>2025-06-17T11:37:18Z</time>
      </trkpt>
      <trkpt lat="43.3077" lon="3.50974">
        <ele>22.6</ele>
        <time>2025-06-17T11:37:19Z</time>
      </trkpt>
      <trkpt lat="43.30768" lon="3.50968">
        <ele>22.6</ele>
        <time>2025-06-17T11:37:20Z</time>
      </trkpt>
      <trkpt lat="43.30765" lon="3.50962">
        <ele>22.6</ele>
        <time>2025-06-17T11:37:21Z</time>
      </trkpt>
      <trkpt lat="43.30763" lon="3.50956">
        <ele>22.6</ele>
        <time>2025-06-17T11:37:22Z</time>
      </trkpt>
      <trkpt lat="43.3076" lon="3.5095">
        <ele>22.4</ele>
        <time>2025-06-17T11:37:23Z</time>
      </trkpt>
      <trkpt lat="43.30757" lon="3.50945">
        <ele>22.4</ele>
        <time>2025-06-17T11:37:24Z</time>
      </trkpt>
      <trkpt lat="43.30754" lon="3.50939">
        <ele>22.4</ele>
        <time>2025-06-17T11:37:25Z</time>
      </trkpt>
      <trkpt lat="43.30752" lon="3.50933">
        <ele>22.4</ele>
        <time>2025-06-17T11:37:26Z</time>
      </trkpt>
      <trkpt lat="43.30749" lon="3.50927">
        <ele>22.6</ele>
        <time>2025-06-17T11:37:27Z</time>
      </trkpt>
      <trkpt lat="43.30747" lon="3.50922">
        <ele>22.8</ele>
        <time>2025-06-17T11:37:28Z</time>
      </trkpt>
      <trkpt lat="43.30744" lon="3.50917">
        <ele>22.8</ele>
        <time>2025-06-17T11:37:29Z</time>
      </trkpt>
      <trkpt lat="43.30741" lon="3.50912">
        <ele>23</ele>
        <time>2025-06-17T11:37:30Z</time>
      </trkpt>
      <trkpt lat="43.30738" lon="3.50907">
        <ele>23</ele>
        <time>2025-06-17T11:37:31Z</time>
      </trkpt>
      <trkpt lat="43.30736" lon="3.50902">
        <ele>23</ele>
        <time>2025-06-17T11:37:32Z</time>
      </trkpt>
      <trkpt lat="43.30733" lon="3.50897">
        <ele>23</ele>
        <time>2025-06-17T11:37:33Z</time>
      </trkpt>
      <trkpt lat="43.30731" lon="3.50893">
        <ele>23.2</ele>
        <time>2025-06-17T11:37:34Z</time>
      </trkpt>
      <trkpt lat="43.30728" lon="3.5089">
        <ele>23.2</ele>
        <time>2025-06-17T11:37:35Z</time>
      </trkpt>
      <trkpt lat="43.30725" lon="3.50885">
        <ele>23.4</ele>
        <time>2025-06-17T11:37:36Z</time>
      </trkpt>
      <trkpt lat="43.30722" lon="3.50882">
        <ele>23.6</ele>
        <time>2025-06-17T11:37:37Z</time>
      </trkpt>
      <trkpt lat="43.30719" lon="3.50878">
        <ele>23.8</ele>
        <time>2025-06-17T11:37:38Z</time>
      </trkpt>
      <trkpt lat="43.30716" lon="3.50874">
        <ele>23.8</ele>
        <time>2025-06-17T11:37:39Z</time>
      </trkpt>
      <trkpt lat="43.30713" lon="3.50871">
        <ele>24</ele>
        <time>2025-06-17T11:37:40Z</time>
      </trkpt>
      <trkpt lat="43.3071" lon="3.50867">
        <ele>24.2</ele>
        <time>2025-06-17T11:37:41Z</time>
      </trkpt>
      <trkpt lat="43.30707" lon="3.50864">
        <ele>24.2</ele>
        <time>2025-06-17T11:37:42Z</time>
      </trkpt>
      <trkpt lat="43.30703" lon="3.50861">
        <ele>24.4</ele>
        <time>2025-06-17T11:37:43Z</time>
      </trkpt>
      <trkpt lat="43.307" lon="3.50858">
        <ele>24.6</ele>
        <time>2025-06-17T11:37:44Z</time>
      </trkpt>
      <trkpt lat="43.30697" lon="3.50856">
        <ele>24.8</ele>
        <time>2025-06-17T11:37:45Z</time>
      </trkpt>
      <trkpt lat="43.30693" lon="3.50853">
        <ele>25.2</ele>
        <time>2025-06-17T11:37:46Z</time>
      </trkpt>
      <trkpt lat="43.3069" lon="3.5085">
        <ele>25.2</ele>
        <time>2025-06-17T11:37:47Z</time>
      </trkpt>
      <trkpt lat="43.30686" lon="3.50848">
        <ele>25.4</ele>
        <time>2025-06-17T11:37:48Z</time>
      </trkpt>
      <trkpt lat="43.30683" lon="3.50846">
        <ele>25.6</ele>
        <time>2025-06-17T11:37:49Z</time>
      </trkpt>
      <trkpt lat="43.3068" lon="3.50844">
        <ele>25.6</ele>
        <time>2025-06-17T11:37:50Z</time>
      </trkpt>
      <trkpt lat="43.30676" lon="3.50842">
        <ele>25.8</ele>
        <time>2025-06-17T11:37:51Z</time>
      </trkpt>
      <trkpt lat="43.30673" lon="3.5084">
        <ele>25.8</ele>
        <time>2025-06-17T11:37:52Z</time>
      </trkpt>
      <trkpt lat="43.30669" lon="3.50838">
        <ele>26</ele>
        <time>2025-06-17T11:37:53Z</time>
      </trkpt>
      <trkpt lat="43.30666" lon="3.50836">
        <ele>26</ele>
        <time>2025-06-17T11:37:54Z</time>
      </trkpt>
      <trkpt lat="43.30662" lon="3.50835">
        <ele>26</ele>
        <time>2025-06-17T11:37:55Z</time>
      </trkpt>
      <trkpt lat="43.30658" lon="3.50833">
        <ele>26.2</ele>
        <time>2025-06-17T11:37:56Z</time>
      </trkpt>
      <trkpt lat="43.30654" lon="3.50832">
        <ele>26.2</ele>
        <time>2025-06-17T11:37:57Z</time>
      </trkpt>
      <trkpt lat="43.30651" lon="3.5083">
        <ele>26.4</ele>
        <time>2025-06-17T11:37:58Z</time>
      </trkpt>
      <trkpt lat="43.30647" lon="3.50829">
        <ele>26.4</ele>
        <time>2025-06-17T11:37:59Z</time>
      </trkpt>
      <trkpt lat="43.30643" lon="3.50828">
        <ele>26.6</ele>
        <time>2025-06-17T11:38:00Z</time>
      </trkpt>
      <trkpt lat="43.30639" lon="3.50827">
        <ele>26.6</ele>
        <time>2025-06-17T11:38:01Z</time>
      </trkpt>
      <trkpt lat="43.30636" lon="3.50826">
        <ele>26.8</ele>
        <time>2025-06-17T11:38:02Z</time>
      </trkpt>
      <trkpt lat="43.30632" lon="3.50825">
        <ele>26.8</ele>
        <time>2025-06-17T11:38:03Z</time>
      </trkpt>
      <trkpt lat="43.30628" lon="3.50824">
        <ele>26.8</ele>
        <time>2025-06-17T11:38:04Z</time>
      </trkpt>
      <trkpt lat="43.30624" lon="3.50823">
        <ele>27</ele>
        <time>2025-06-17T11:38:05Z</time>
      </trkpt>
      <trkpt lat="43.3062" lon="3.50823">
        <ele>27</ele>
        <time>2025-06-17T11:38:06Z</time>
      </trkpt>
      <trkpt lat="43.30616" lon="3.50822">
        <ele>27.2</ele>
        <time>2025-06-17T11:38:07Z</time>
      </trkpt>
      <trkpt lat="43.30613" lon="3.50822">
        <ele>27.2</ele>
        <time>2025-06-17T11:38:08Z</time>
      </trkpt>
      <trkpt lat="43.30609" lon="3.50821">
        <ele>27.2</ele>
        <time>2025-06-17T11:38:09Z</time>
      </trkpt>
      <trkpt lat="43.30605" lon="3.50821">
        <ele>27.2</ele>
        <time>2025-06-17T11:38:10Z</time>
      </trkpt>
      <trkpt lat="43.30601" lon="3.50821">
        <ele>27.4</ele>
        <time>2025-06-17T11:38:11Z</time>
      </trkpt>
      <trkpt lat="43.30597" lon="3.5082">
        <ele>27.4</ele>
        <time>2025-06-17T11:38:12Z</time>
      </trkpt>
      <trkpt lat="43.30592" lon="3.5082">
        <ele>27.4</ele>
        <time>2025-06-17T11:38:13Z</time>
      </trkpt>
      <trkpt lat="43.30589" lon="3.5082">
        <ele>27.4</ele>
        <time>2025-06-17T11:38:14Z</time>
      </trkpt>
      <trkpt lat="43.30584" lon="3.50819">
        <ele>27.4</ele>
        <time>2025-06-17T11:38:15Z</time>
      </trkpt>
      <trkpt lat="43.3058" lon="3.50819">
        <ele>27.4</ele>
        <time>2025-06-17T11:38:16Z</time>
      </trkpt>
      <trkpt lat="43.30576" lon="3.50819">
        <ele>27.4</ele>
        <time>2025-06-17T11:38:17Z</time>
      </trkpt>
      <trkpt lat="43.30572" lon="3.50819">
        <ele>27.4</ele>
        <time>2025-06-17T11:38:18Z</time>
      </trkpt>
      <trkpt lat="43.30568" lon="3.50819">
        <ele>27.4</ele>
        <time>2025-06-17T11:38:19Z</time>
      </trkpt>
      <trkpt lat="43.30563" lon="3.50819">
        <ele>27.4</ele>
        <time>2025-06-17T11:38:20Z</time>
      </trkpt>
      <trkpt lat="43.30559" lon="3.50818">
        <ele>27.4</ele>
        <time>2025-06-17T11:38:21Z</time>
      </trkpt>
      <trkpt lat="43.30555" lon="3.50818">
        <ele>27.4</ele>
        <time>2025-06-17T11:38:22Z</time>
      </trkpt>
      <trkpt lat="43.3055" lon="3.50818">
        <ele>27.4</ele>
        <time>2025-06-17T11:38:23Z</time>
      </trkpt>
      <trkpt lat="43.30546" lon="3.50818">
        <ele>27.4</ele>
        <time>2025-06-17T11:38:24Z</time>
      </trkpt>
      <trkpt lat="43.30541" lon="3.50818">
        <ele>27.4</ele>
        <time>2025-06-17T11:38:25Z</time>
      </trkpt>
      <trkpt lat="43.30537" lon="3.50818">
        <ele>27.4</ele>
        <time>2025-06-17T11:38:26Z</time>
      </trkpt>
      <trkpt lat="43.30532" lon="3.50818">
        <ele>27.4</ele>
        <time>2025-06-17T11:38:27Z</time>
      </trkpt>
      <trkpt lat="43.30528" lon="3.50817">
        <ele>27.4</ele>
        <time>2025-06-17T11:38:28Z</time>
      </trkpt>
      <trkpt lat="43.30523" lon="3.50817">
        <ele>27.4</ele>
        <time>2025-06-17T11:38:29Z</time>
      </trkpt>
      <trkpt lat="43.30519" lon="3.50816">
        <ele>27.4</ele>
        <time>2025-06-17T11:38:30Z</time>
      </trkpt>
      <trkpt lat="43.30515" lon="3.50816">
        <ele>27.4</ele>
        <time>2025-06-17T11:38:31Z</time>
      </trkpt>
      <trkpt lat="43.3051" lon="3.50816">
        <ele>27.4</ele>
        <time>2025-06-17T11:38:32Z</time>
      </trkpt>
      <trkpt lat="43.30506" lon="3.50816">
        <ele>27.4</ele>
        <time>2025-06-17T11:38:33Z</time>
      </trkpt>
      <trkpt lat="43.30502" lon="3.50815">
        <ele>27.4</ele>
        <time>2025-06-17T11:38:34Z</time>
      </trkpt>
      <trkpt lat="43.30498" lon="3.50815">
        <ele>27.4</ele>
        <time>2025-06-17T11:38:35Z</time>
      </trkpt>
      <trkpt lat="43.30494" lon="3.50815">
        <ele>27.4</ele>
        <time>2025-06-17T11:38:36Z</time>
      </trkpt>
      <trkpt lat="43.3049" lon="3.50814">
        <ele>27.4</ele>
        <time>2025-06-17T11:38:37Z</time>
      </trkpt>
      <trkpt lat="43.30485" lon="3.50814">
        <ele>27.4</ele>
        <time>2025-06-17T11:38:38Z</time>
      </trkpt>
      <trkpt lat="43.30481" lon="3.50814">
        <ele>27.4</ele>
        <time>2025-06-17T11:38:39Z</time>
      </trkpt>
      <trkpt lat="43.30477" lon="3.50814">
        <ele>27.6</ele>
        <time>2025-06-17T11:38:40Z</time>
      </trkpt>
      <trkpt lat="43.30473" lon="3.50814">
        <ele>27.6</ele>
        <time>2025-06-17T11:38:41Z</time>
      </trkpt>
      <trkpt lat="43.30469" lon="3.50814">
        <ele>27.6</ele>
        <time>2025-06-17T11:38:42Z</time>
      </trkpt>
      <trkpt lat="43.30466" lon="3.50811">
        <ele>27.6</ele>
        <time>2025-06-17T11:38:43Z</time>
      </trkpt>
      <trkpt lat="43.30463" lon="3.50807">
        <ele>27.8</ele>
        <time>2025-06-17T11:38:44Z</time>
      </trkpt>
      <trkpt lat="43.30463" lon="3.50803">
        <ele>27.8</ele>
        <time>2025-06-17T11:38:45Z</time>
      </trkpt>
      <trkpt lat="43.30462" lon="3.50798">
        <ele>28</ele>
        <time>2025-06-17T11:38:46Z</time>
      </trkpt>
      <trkpt lat="43.30462" lon="3.50794">
        <ele>28</ele>
        <time>2025-06-17T11:38:47Z</time>
      </trkpt>
      <trkpt lat="43.30462" lon="3.5079">
        <ele>28.2</ele>
        <time>2025-06-17T11:38:48Z</time>
      </trkpt>
      <trkpt lat="43.30462" lon="3.50785">
        <ele>28.2</ele>
        <time>2025-06-17T11:38:49Z</time>
      </trkpt>
      <trkpt lat="43.30461" lon="3.5078">
        <ele>28.2</ele>
        <time>2025-06-17T11:38:50Z</time>
      </trkpt>
      <trkpt lat="43.30461" lon="3.50775">
        <ele>28.4</ele>
        <time>2025-06-17T11:38:51Z</time>
      </trkpt>
      <trkpt lat="43.30461" lon="3.5077">
        <ele>28.4</ele>
        <time>2025-06-17T11:38:52Z</time>
      </trkpt>
      <trkpt lat="43.30461" lon="3.50765">
        <ele>28.4</ele>
        <time>2025-06-17T11:38:53Z</time>
      </trkpt>
      <trkpt lat="43.30464" lon="3.50759">
        <ele>28.6</ele>
        <time>2025-06-17T11:38:54Z</time>
      </trkpt>
      <trkpt lat="43.30466" lon="3.50754">
        <ele>28.6</ele>
        <time>2025-06-17T11:38:55Z</time>
      </trkpt>
      <trkpt lat="43.30469" lon="3.50752">
        <ele>28.8</ele>
        <time>2025-06-17T11:38:56Z</time>
      </trkpt>
      <trkpt lat="43.30472" lon="3.50751">
        <ele>28.8</ele>
        <time>2025-06-17T11:38:57Z</time>
      </trkpt>
      <trkpt lat="43.30476" lon="3.50751">
        <ele>29</ele>
        <time>2025-06-17T11:38:58Z</time>
      </trkpt>
      <trkpt lat="43.30479" lon="3.50752">
        <ele>29</ele>
        <time>2025-06-17T11:38:59Z</time>
      </trkpt>
      <trkpt lat="43.30483" lon="3.50752">
        <ele>29.2</ele>
        <time>2025-06-17T11:39:00Z</time>
      </trkpt>
      <trkpt lat="43.30487" lon="3.50753">
        <ele>29.4</ele>
        <time>2025-06-17T11:39:01Z</time>
      </trkpt>
      <trkpt lat="43.30491" lon="3.50753">
        <ele>29.4</ele>
        <time>2025-06-17T11:39:02Z</time>
      </trkpt>
      <trkpt lat="43.30494" lon="3.50753">
        <ele>29.6</ele>
        <time>2025-06-17T11:39:03Z</time>
      </trkpt>
      <trkpt lat="43.30497" lon="3.50753">
        <ele>29.6</ele>
        <time>2025-06-17T11:39:04Z</time>
      </trkpt>
      <trkpt lat="43.305" lon="3.50753">
        <ele>29.8</ele>
        <time>2025-06-17T11:39:05Z</time>
      </trkpt>
      <trkpt lat="43.30504" lon="3.50753">
        <ele>29.8</ele>
        <time>2025-06-17T11:39:06Z</time>
      </trkpt>
      <trkpt lat="43.30507" lon="3.50753">
        <ele>29.8</ele>
        <time>2025-06-17T11:39:07Z</time>
      </trkpt>
      <trkpt lat="43.3051" lon="3.50753">
        <ele>29.8</ele>
        <time>2025-06-17T11:39:08Z</time>
      </trkpt>
      <trkpt lat="43.30514" lon="3.50753">
        <ele>30</ele>
        <time>2025-06-17T11:39:09Z</time>
      </trkpt>
      <trkpt lat="43.30517" lon="3.50754">
        <ele>30</ele>
        <time>2025-06-17T11:39:10Z</time>
      </trkpt>
      <trkpt lat="43.30521" lon="3.50754">
        <ele>30</ele>
        <time>2025-06-17T11:39:11Z</time>
      </trkpt>
      <trkpt lat="43.30525" lon="3.50754">
        <ele>30</ele>
        <time>2025-06-17T11:39:12Z</time>
      </trkpt>
      <trkpt lat="43.30528" lon="3.50754">
        <ele>30</ele>
        <time>2025-06-17T11:39:13Z</time>
      </trkpt>
      <trkpt lat="43.30531" lon="3.50754">
        <ele>30</ele>
        <time>2025-06-17T11:39:14Z</time>
      </trkpt>
      <trkpt lat="43.30532" lon="3.50752">
        <ele>30</ele>
        <time>2025-06-17T11:39:15Z</time>
      </trkpt>
      <trkpt lat="43.30532" lon="3.50749">
        <ele>30</ele>
        <time>2025-06-17T11:39:16Z</time>
      </trkpt>
      <trkpt lat="43.3053" lon="3.50748">
        <ele>30</ele>
        <time>2025-06-17T11:39:17Z</time>
      </trkpt>
      <trkpt lat="43.30529" lon="3.50749">
        <ele>30.2</ele>
        <time>2025-06-17T11:39:18Z</time>
      </trkpt>
      <trkpt lat="43.30527" lon="3.50751">
        <ele>30</ele>
        <time>2025-06-17T11:39:19Z</time>
      </trkpt>
      <trkpt lat="43.30525" lon="3.50753">
        <ele>30</ele>
        <time>2025-06-17T11:39:20Z</time>
      </trkpt>
      <trkpt lat="43.30523" lon="3.50754">
        <ele>30</ele>
        <time>2025-06-17T11:39:21Z</time>
      </trkpt>
      <trkpt lat="43.3052" lon="3.50754">
        <ele>30</ele>
        <time>2025-06-17T11:39:22Z</time>
      </trkpt>
      <trkpt lat="43.30517" lon="3.50753">
        <ele>30</ele>
        <time>2025-06-17T11:39:23Z</time>
      </trkpt>
      <trkpt lat="43.30513" lon="3.50753">
        <ele>29.8</ele>
        <time>2025-06-17T11:39:24Z</time>
      </trkpt>
      <trkpt lat="43.3051" lon="3.50753">
        <ele>29.8</ele>
        <time>2025-06-17T11:39:25Z</time>
      </trkpt>
      <trkpt lat="43.30507" lon="3.50753">
        <ele>29.8</ele>
        <time>2025-06-17T11:39:26Z</time>
      </trkpt>
      <trkpt lat="43.30503" lon="3.50753">
        <ele>29.8</ele>
        <time>2025-06-17T11:39:27Z</time>
      </trkpt>
      <trkpt lat="43.30499" lon="3.50752">
        <ele>29.8</ele>
        <time>2025-06-17T11:39:28Z</time>
      </trkpt>
      <trkpt lat="43.30496" lon="3.50752">
        <ele>29.8</ele>
        <time>2025-06-17T11:39:29Z</time>
      </trkpt>
      <trkpt lat="43.30492" lon="3.50751">
        <ele>29.8</ele>
        <time>2025-06-17T11:39:30Z</time>
      </trkpt>
      <trkpt lat="43.30488" lon="3.50751">
        <ele>29.8</ele>
        <time>2025-06-17T11:39:31Z</time>
      </trkpt>
      <trkpt lat="43.30484" lon="3.50751">
        <ele>29.8</ele>
        <time>2025-06-17T11:39:32Z</time>
      </trkpt>
      <trkpt lat="43.3048" lon="3.5075">
        <ele>29.6</ele>
        <time>2025-06-17T11:39:33Z</time>
      </trkpt>
      <trkpt lat="43.30476" lon="3.50749">
        <ele>29.6</ele>
        <time>2025-06-17T11:39:34Z</time>
      </trkpt>
      <trkpt lat="43.30473" lon="3.50749">
        <ele>29.4</ele>
        <time>2025-06-17T11:39:35Z</time>
      </trkpt>
      <trkpt lat="43.3047" lon="3.5075">
        <ele>29.4</ele>
        <time>2025-06-17T11:39:36Z</time>
      </trkpt>
      <trkpt lat="43.30468" lon="3.50752">
        <ele>29.2</ele>
        <time>2025-06-17T11:39:37Z</time>
      </trkpt>
      <trkpt lat="43.30467" lon="3.50755">
        <ele>29.2</ele>
        <time>2025-06-17T11:39:38Z</time>
      </trkpt>
      <trkpt lat="43.30466" lon="3.50758">
        <ele>29</ele>
        <time>2025-06-17T11:39:39Z</time>
      </trkpt>
      <trkpt lat="43.30465" lon="3.50761">
        <ele>29</ele>
        <time>2025-06-17T11:39:40Z</time>
      </trkpt>
      <trkpt lat="43.30465" lon="3.50764">
        <ele>28.8</ele>
        <time>2025-06-17T11:39:41Z</time>
      </trkpt>
      <trkpt lat="43.30464" lon="3.50769">
        <ele>28.8</ele>
        <time>2025-06-17T11:39:42Z</time>
      </trkpt>
      <trkpt lat="43.30463" lon="3.50774">
        <ele>28.6</ele>
        <time>2025-06-17T11:39:43Z</time>
      </trkpt>
      <trkpt lat="43.30461" lon="3.50779">
        <ele>28.6</ele>
        <time>2025-06-17T11:39:44Z</time>
      </trkpt>
      <trkpt lat="43.30459" lon="3.50785">
        <ele>28.4</ele>
        <time>2025-06-17T11:39:45Z</time>
      </trkpt>
      <trkpt lat="43.30459" lon="3.50791">
        <ele>28.4</ele>
        <time>2025-06-17T11:39:46Z</time>
      </trkpt>
      <trkpt lat="43.30461" lon="3.50798">
        <ele>28.2</ele>
        <time>2025-06-17T11:39:47Z</time>
      </trkpt>
      <trkpt lat="43.30464" lon="3.50804">
        <ele>28.2</ele>
        <time>2025-06-17T11:39:48Z</time>
      </trkpt>
      <trkpt lat="43.30467" lon="3.50809">
        <ele>28.2</ele>
        <time>2025-06-17T11:39:49Z</time>
      </trkpt>
      <trkpt lat="43.30471" lon="3.50811">
        <ele>28.2</ele>
        <time>2025-06-17T11:39:50Z</time>
      </trkpt>
      <trkpt lat="43.30476" lon="3.50812">
        <ele>28.2</ele>
        <time>2025-06-17T11:39:51Z</time>
      </trkpt>
      <trkpt lat="43.30481" lon="3.50813">
        <ele>28.2</ele>
        <time>2025-06-17T11:39:52Z</time>
      </trkpt>
      <trkpt lat="43.30485" lon="3.50814">
        <ele>28.2</ele>
        <time>2025-06-17T11:39:53Z</time>
      </trkpt>
      <trkpt lat="43.3049" lon="3.50815">
        <ele>28.2</ele>
        <time>2025-06-17T11:39:54Z</time>
      </trkpt>
      <trkpt lat="43.30495" lon="3.50815">
        <ele>28.2</ele>
        <time>2025-06-17T11:39:55Z</time>
      </trkpt>
      <trkpt lat="43.30501" lon="3.50815">
        <ele>28.2</ele>
        <time>2025-06-17T11:39:56Z</time>
      </trkpt>
      <trkpt lat="43.30506" lon="3.50815">
        <ele>28</ele>
        <time>2025-06-17T11:39:57Z</time>
      </trkpt>
      <trkpt lat="43.30512" lon="3.50816">
        <ele>28</ele>
        <time>2025-06-17T11:39:58Z</time>
      </trkpt>
      <trkpt lat="43.30518" lon="3.50816">
        <ele>28</ele>
        <time>2025-06-17T11:39:59Z</time>
      </trkpt>
      <trkpt lat="43.30524" lon="3.50817">
        <ele>28</ele>
        <time>2025-06-17T11:40:00Z</time>
      </trkpt>
      <trkpt lat="43.3053" lon="3.50817">
        <ele>28</ele>
        <time>2025-06-17T11:40:01Z</time>
      </trkpt>
      <trkpt lat="43.30536" lon="3.50818">
        <ele>28</ele>
        <time>2025-06-17T11:40:02Z</time>
      </trkpt>
      <trkpt lat="43.30542" lon="3.50818">
        <ele>28</ele>
        <time>2025-06-17T11:40:03Z</time>
      </trkpt>
      <trkpt lat="43.30548" lon="3.50818">
        <ele>28</ele>
        <time>2025-06-17T11:40:04Z</time>
      </trkpt>
      <trkpt lat="43.30554" lon="3.50819">
        <ele>28</ele>
        <time>2025-06-17T11:40:05Z</time>
      </trkpt>
      <trkpt lat="43.3056" lon="3.50819">
        <ele>28</ele>
        <time>2025-06-17T11:40:06Z</time>
      </trkpt>
      <trkpt lat="43.30566" lon="3.50819">
        <ele>28</ele>
        <time>2025-06-17T11:40:07Z</time>
      </trkpt>
      <trkpt lat="43.30573" lon="3.50819">
        <ele>28</ele>
        <time>2025-06-17T11:40:08Z</time>
      </trkpt>
      <trkpt lat="43.30579" lon="3.50819">
        <ele>28</ele>
        <time>2025-06-17T11:40:09Z</time>
      </trkpt>
      <trkpt lat="43.30585" lon="3.50819">
        <ele>28</ele>
        <time>2025-06-17T11:40:10Z</time>
      </trkpt>
      <trkpt lat="43.30591" lon="3.5082">
        <ele>28.2</ele>
        <time>2025-06-17T11:40:11Z</time>
      </trkpt>
      <trkpt lat="43.30596" lon="3.50821">
        <ele>28.2</ele>
        <time>2025-06-17T11:40:12Z</time>
      </trkpt>
      <trkpt lat="43.30603" lon="3.50821">
        <ele>28</ele>
        <time>2025-06-17T11:40:13Z</time>
      </trkpt>
      <trkpt lat="43.30608" lon="3.50822">
        <ele>28</ele>
        <time>2025-06-17T11:40:14Z</time>
      </trkpt>
      <trkpt lat="43.30615" lon="3.50822">
        <ele>28</ele>
        <time>2025-06-17T11:40:15Z</time>
      </trkpt>
      <trkpt lat="43.3062" lon="3.50822">
        <ele>28</ele>
        <time>2025-06-17T11:40:16Z</time>
      </trkpt>
      <trkpt lat="43.30626" lon="3.50824">
        <ele>28</ele>
        <time>2025-06-17T11:40:17Z</time>
      </trkpt>
      <trkpt lat="43.30632" lon="3.50825">
        <ele>28</ele>
        <time>2025-06-17T11:40:18Z</time>
      </trkpt>
      <trkpt lat="43.30638" lon="3.50826">
        <ele>27.8</ele>
        <time>2025-06-17T11:40:19Z</time>
      </trkpt>
      <trkpt lat="43.30644" lon="3.50828">
        <ele>27.8</ele>
        <time>2025-06-17T11:40:20Z</time>
      </trkpt>
      <trkpt lat="43.3065" lon="3.50829">
        <ele>27.6</ele>
        <time>2025-06-17T11:40:21Z</time>
      </trkpt>
      <trkpt lat="43.30656" lon="3.50831">
        <ele>27.6</ele>
        <time>2025-06-17T11:40:22Z</time>
      </trkpt>
      <trkpt lat="43.30662" lon="3.50834">
        <ele>27.4</ele>
        <time>2025-06-17T11:40:23Z</time>
      </trkpt>
      <trkpt lat="43.30668" lon="3.50837">
        <ele>27.2</ele>
        <time>2025-06-17T11:40:24Z</time>
      </trkpt>
      <trkpt lat="43.30674" lon="3.5084">
        <ele>27</ele>
        <time>2025-06-17T11:40:25Z</time>
      </trkpt>
      <trkpt lat="43.30681" lon="3.50844">
        <ele>26.8</ele>
        <time>2025-06-17T11:40:26Z</time>
      </trkpt>
      <trkpt lat="43.30687" lon="3.50849">
        <ele>26.6</ele>
        <time>2025-06-17T11:40:27Z</time>
      </trkpt>
      <trkpt lat="43.30694" lon="3.50853">
        <ele>26.4</ele>
        <time>2025-06-17T11:40:28Z</time>
      </trkpt>
      <trkpt lat="43.307" lon="3.50858">
        <ele>26</ele>
        <time>2025-06-17T11:40:29Z</time>
      </trkpt>
      <trkpt lat="43.30706" lon="3.50864">
        <ele>25.8</ele>
        <time>2025-06-17T11:40:30Z</time>
      </trkpt>
      <trkpt lat="43.30712" lon="3.50871">
        <ele>25.6</ele>
        <time>2025-06-17T11:40:31Z</time>
      </trkpt>
      <trkpt lat="43.30718" lon="3.50878">
        <ele>25.4</ele>
        <time>2025-06-17T11:40:32Z</time>
      </trkpt>
      <trkpt lat="43.30724" lon="3.50885">
        <ele>25.2</ele>
        <time>2025-06-17T11:40:33Z</time>
      </trkpt>
      <trkpt lat="43.3073" lon="3.50892">
        <ele>25</ele>
        <time>2025-06-17T11:40:34Z</time>
      </trkpt>
      <trkpt lat="43.30735" lon="3.50901">
        <ele>24.8</ele>
        <time>2025-06-17T11:40:35Z</time>
      </trkpt>
      <trkpt lat="43.3074" lon="3.5091">
        <ele>24.6</ele>
        <time>2025-06-17T11:40:36Z</time>
      </trkpt>
      <trkpt lat="43.30746" lon="3.50919">
        <ele>24.2</ele>
        <time>2025-06-17T11:40:37Z</time>
      </trkpt>
      <trkpt lat="43.30751" lon="3.50929">
        <ele>23.8</ele>
        <time>2025-06-17T11:40:38Z</time>
      </trkpt>
      <trkpt lat="43.30755" lon="3.50938">
        <ele>23.4</ele>
        <time>2025-06-17T11:40:39Z</time>
      </trkpt>
      <trkpt lat="43.30759" lon="3.50948">
        <ele>23</ele>
        <time>2025-06-17T11:40:40Z</time>
      </trkpt>
      <trkpt lat="43.30763" lon="3.50957">
        <ele>23</ele>
        <time>2025-06-17T11:40:41Z</time>
      </trkpt>
      <trkpt lat="43.30768" lon="3.50967">
        <ele>23</ele>
        <time>2025-06-17T11:40:42Z</time>
      </trkpt>
      <trkpt lat="43.30771" lon="3.50976">
        <ele>23</ele>
        <time>2025-06-17T11:40:43Z</time>
      </trkpt>
      <trkpt lat="43.30775" lon="3.50987">
        <ele>23</ele>
        <time>2025-06-17T11:40:44Z</time>
      </trkpt>
      <trkpt lat="43.30778" lon="3.50996">
        <ele>23</ele>
        <time>2025-06-17T11:40:45Z</time>
      </trkpt>
      <trkpt lat="43.30781" lon="3.51006">
        <ele>23</ele>
        <time>2025-06-17T11:40:46Z</time>
      </trkpt>
      <trkpt lat="43.30784" lon="3.51016">
        <ele>23</ele>
        <time>2025-06-17T11:40:47Z</time>
      </trkpt>
      <trkpt lat="43.30787" lon="3.51025">
        <ele>23</ele>
        <time>2025-06-17T11:40:48Z</time>
      </trkpt>
      <trkpt lat="43.3079" lon="3.51034">
        <ele>23</ele>
        <time>2025-06-17T11:40:49Z</time>
      </trkpt>
      <trkpt lat="43.30792" lon="3.51043">
        <ele>23</ele>
        <time>2025-06-17T11:40:50Z</time>
      </trkpt>
      <trkpt lat="43.30795" lon="3.51052">
        <ele>23</ele>
        <time>2025-06-17T11:40:51Z</time>
      </trkpt>
      <trkpt lat="43.30798" lon="3.5106">
        <ele>23</ele>
        <time>2025-06-17T11:40:52Z</time>
      </trkpt>
      <trkpt lat="43.308" lon="3.51068">
        <ele>23</ele>
        <time>2025-06-17T11:40:53Z</time>
      </trkpt>
      <trkpt lat="43.30803" lon="3.51077">
        <ele>23</ele>
        <time>2025-06-17T11:40:54Z</time>
      </trkpt>
      <trkpt lat="43.30805" lon="3.51085">
        <ele>22.8</ele>
        <time>2025-06-17T11:40:55Z</time>
      </trkpt>
      <trkpt lat="43.30807" lon="3.51093">
        <ele>22.8</ele>
        <time>2025-06-17T11:40:56Z</time>
      </trkpt>
      <trkpt lat="43.3081" lon="3.51101">
        <ele>22.6</ele>
        <time>2025-06-17T11:40:57Z</time>
      </trkpt>
      <trkpt lat="43.30812" lon="3.51109">
        <ele>22.6</ele>
        <time>2025-06-17T11:40:58Z</time>
      </trkpt>
      <trkpt lat="43.30814" lon="3.51117">
        <ele>22.6</ele>
        <time>2025-06-17T11:40:59Z</time>
      </trkpt>
      <trkpt lat="43.30816" lon="3.51125">
        <ele>22.6</ele>
        <time>2025-06-17T11:41:00Z</time>
      </trkpt>
      <trkpt lat="43.30819" lon="3.51134">
        <ele>22.6</ele>
        <time>2025-06-17T11:41:01Z</time>
      </trkpt>
      <trkpt lat="43.30821" lon="3.51142">
        <ele>22.6</ele>
        <time>2025-06-17T11:41:02Z</time>
      </trkpt>
      <trkpt lat="43.30824" lon="3.51151">
        <ele>22.4</ele>
        <time>2025-06-17T11:41:03Z</time>
      </trkpt>
      <trkpt lat="43.30826" lon="3.5116">
        <ele>22.4</ele>
        <time>2025-06-17T11:41:04Z</time>
      </trkpt>
      <trkpt lat="43.30829" lon="3.51169">
        <ele>22.2</ele>
        <time>2025-06-17T11:41:05Z</time>
      </trkpt>
      <trkpt lat="43.30832" lon="3.51178">
        <ele>22</ele>
        <time>2025-06-17T11:41:06Z</time>
      </trkpt>
      <trkpt lat="43.30835" lon="3.51188">
        <ele>22</ele>
        <time>2025-06-17T11:41:07Z</time>
      </trkpt>
      <trkpt lat="43.30838" lon="3.51197">
        <ele>21.8</ele>
        <time>2025-06-17T11:41:08Z</time>
      </trkpt>
      <trkpt lat="43.3084" lon="3.51206">
        <ele>21.8</ele>
        <time>2025-06-17T11:41:09Z</time>
      </trkpt>
      <trkpt lat="43.30844" lon="3.51216">
        <ele>21.8</ele>
        <time>2025-06-17T11:41:10Z</time>
      </trkpt>
      <trkpt lat="43.30847" lon="3.51225">
        <ele>21.6</ele>
        <time>2025-06-17T11:41:11Z</time>
      </trkpt>
      <trkpt lat="43.3085" lon="3.51234">
        <ele>21.6</ele>
        <time>2025-06-17T11:41:12Z</time>
      </trkpt>
      <trkpt lat="43.30853" lon="3.51243">
        <ele>21.6</ele>
        <time>2025-06-17T11:41:13Z</time>
      </trkpt>
      <trkpt lat="43.30855" lon="3.51252">
        <ele>21.6</ele>
        <time>2025-06-17T11:41:14Z</time>
      </trkpt>
      <trkpt lat="43.30858" lon="3.51261">
        <ele>21.4</ele>
        <time>2025-06-17T11:41:15Z</time>
      </trkpt>
      <trkpt lat="43.30861" lon="3.51269">
        <ele>21.2</ele>
        <time>2025-06-17T11:41:16Z</time>
      </trkpt>
      <trkpt lat="43.30863" lon="3.51278">
        <ele>21.2</ele>
        <time>2025-06-17T11:41:17Z</time>
      </trkpt>
      <trkpt lat="43.30866" lon="3.51286">
        <ele>21</ele>
        <time>2025-06-17T11:41:18Z</time>
      </trkpt>
      <trkpt lat="43.30868" lon="3.51294">
        <ele>21</ele>
        <time>2025-06-17T11:41:19Z</time>
      </trkpt>
      <trkpt lat="43.30871" lon="3.51302">
        <ele>20.8</ele>
        <time>2025-06-17T11:41:20Z</time>
      </trkpt>
      <trkpt lat="43.30873" lon="3.5131">
        <ele>20.8</ele>
        <time>2025-06-17T11:41:21Z</time>
      </trkpt>
      <trkpt lat="43.30876" lon="3.51317">
        <ele>20.8</ele>
        <time>2025-06-17T11:41:22Z</time>
      </trkpt>
      <trkpt lat="43.30877" lon="3.51324">
        <ele>21</ele>
        <time>2025-06-17T11:41:23Z</time>
      </trkpt>
      <trkpt lat="43.30878" lon="3.51332">
        <ele>21</ele>
        <time>2025-06-17T11:41:24Z</time>
      </trkpt>
      <trkpt lat="43.30876" lon="3.51339">
        <ele>21</ele>
        <time>2025-06-17T11:41:25Z</time>
      </trkpt>
      <trkpt lat="43.30873" lon="3.51345">
        <ele>20.8</ele>
        <time>2025-06-17T11:41:26Z</time>
      </trkpt>
      <trkpt lat="43.30869" lon="3.51351">
        <ele>20.8</ele>
        <time>2025-06-17T11:41:27Z</time>
      </trkpt>
      <trkpt lat="43.30864" lon="3.51357">
        <ele>20.6</ele>
        <time>2025-06-17T11:41:28Z</time>
      </trkpt>
      <trkpt lat="43.3086" lon="3.51362">
        <ele>20.6</ele>
        <time>2025-06-17T11:41:29Z</time>
      </trkpt>
      <trkpt lat="43.30856" lon="3.51367">
        <ele>20.8</ele>
        <time>2025-06-17T11:41:30Z</time>
      </trkpt>
      <trkpt lat="43.30851" lon="3.51372">
        <ele>20.8</ele>
        <time>2025-06-17T11:41:31Z</time>
      </trkpt>
      <trkpt lat="43.30848" lon="3.51378">
        <ele>20.8</ele>
        <time>2025-06-17T11:41:32Z</time>
      </trkpt>
      <trkpt lat="43.30843" lon="3.51383">
        <ele>21</ele>
        <time>2025-06-17T11:41:33Z</time>
      </trkpt>
      <trkpt lat="43.30839" lon="3.51388">
        <ele>21</ele>
        <time>2025-06-17T11:41:34Z</time>
      </trkpt>
      <trkpt lat="43.30834" lon="3.51393">
        <ele>21</ele>
        <time>2025-06-17T11:41:35Z</time>
      </trkpt>
      <trkpt lat="43.3083" lon="3.51399">
        <ele>21</ele>
        <time>2025-06-17T11:41:36Z</time>
      </trkpt>
      <trkpt lat="43.30825" lon="3.51404">
        <ele>21</ele>
        <time>2025-06-17T11:41:37Z</time>
      </trkpt>
      <trkpt lat="43.30821" lon="3.5141">
        <ele>21</ele>
        <time>2025-06-17T11:41:38Z</time>
      </trkpt>
      <trkpt lat="43.30816" lon="3.51415">
        <ele>21</ele>
        <time>2025-06-17T11:41:39Z</time>
      </trkpt>
      <trkpt lat="43.30812" lon="3.51421">
        <ele>21</ele>
        <time>2025-06-17T11:41:40Z</time>
      </trkpt>
      <trkpt lat="43.30808" lon="3.51427">
        <ele>20.8</ele>
        <time>2025-06-17T11:41:41Z</time>
      </trkpt>
      <trkpt lat="43.30803" lon="3.51432">
        <ele>20.8</ele>
        <time>2025-06-17T11:41:42Z</time>
      </trkpt>
      <trkpt lat="43.30799" lon="3.51438">
        <ele>20.8</ele>
        <time>2025-06-17T11:41:43Z</time>
      </trkpt>
      <trkpt lat="43.30794" lon="3.51443">
        <ele>20.8</ele>
        <time>2025-06-17T11:41:44Z</time>
      </trkpt>
      <trkpt lat="43.3079" lon="3.51448">
        <ele>20.8</ele>
        <time>2025-06-17T11:41:45Z</time>
      </trkpt>
      <trkpt lat="43.30786" lon="3.51453">
        <ele>21</ele>
        <time>2025-06-17T11:41:46Z</time>
      </trkpt>
      <trkpt lat="43.30782" lon="3.51459">
        <ele>21</ele>
        <time>2025-06-17T11:41:47Z</time>
      </trkpt>
      <trkpt lat="43.30778" lon="3.51464">
        <ele>21</ele>
        <time>2025-06-17T11:41:48Z</time>
      </trkpt>
      <trkpt lat="43.30774" lon="3.51469">
        <ele>21.2</ele>
        <time>2025-06-17T11:41:49Z</time>
      </trkpt>
      <trkpt lat="43.30771" lon="3.51476">
        <ele>21.2</ele>
        <time>2025-06-17T11:41:50Z</time>
      </trkpt>
      <trkpt lat="43.30767" lon="3.51482">
        <ele>21.2</ele>
        <time>2025-06-17T11:41:51Z</time>
      </trkpt>
      <trkpt lat="43.30764" lon="3.51489">
        <ele>21.2</ele>
        <time>2025-06-17T11:41:52Z</time>
      </trkpt>
      <trkpt lat="43.30762" lon="3.51497">
        <ele>21.2</ele>
        <time>2025-06-17T11:41:53Z</time>
      </trkpt>
      <trkpt lat="43.3076" lon="3.51505">
        <ele>21</ele>
        <time>2025-06-17T11:41:54Z</time>
      </trkpt>
      <trkpt lat="43.30758" lon="3.51513">
        <ele>20.8</ele>
        <time>2025-06-17T11:41:55Z</time>
      </trkpt>
      <trkpt lat="43.30756" lon="3.51522">
        <ele>20.8</ele>
        <time>2025-06-17T11:41:56Z</time>
      </trkpt>
      <trkpt lat="43.30753" lon="3.5153">
        <ele>20.8</ele>
        <time>2025-06-17T11:41:57Z</time>
      </trkpt>
      <trkpt lat="43.30751" lon="3.51539">
        <ele>20.6</ele>
        <time>2025-06-17T11:41:58Z</time>
      </trkpt>
      <trkpt lat="43.30748" lon="3.51547">
        <ele>20.4</ele>
        <time>2025-06-17T11:41:59Z</time>
      </trkpt>
      <trkpt lat="43.30745" lon="3.51555">
        <ele>20.4</ele>
        <time>2025-06-17T11:42:00Z</time>
      </trkpt>
      <trkpt lat="43.30743" lon="3.51562">
        <ele>20.2</ele>
        <time>2025-06-17T11:42:01Z</time>
      </trkpt>
      <trkpt lat="43.3074" lon="3.51572">
        <ele>20.2</ele>
        <time>2025-06-17T11:42:02Z</time>
      </trkpt>
      <trkpt lat="43.30738" lon="3.5158">
        <ele>20</ele>
        <time>2025-06-17T11:42:03Z</time>
      </trkpt>
      <trkpt lat="43.30735" lon="3.51588">
        <ele>20</ele>
        <time>2025-06-17T11:42:04Z</time>
      </trkpt>
      <trkpt lat="43.30733" lon="3.51596">
        <ele>20</ele>
        <time>2025-06-17T11:42:05Z</time>
      </trkpt>
      <trkpt lat="43.3073" lon="3.51604">
        <ele>20.2</ele>
        <time>2025-06-17T11:42:06Z</time>
      </trkpt>
      <trkpt lat="43.30728" lon="3.51611">
        <ele>20.2</ele>
        <time>2025-06-17T11:42:07Z</time>
      </trkpt>
      <trkpt lat="43.30725" lon="3.51618">
        <ele>20.2</ele>
        <time>2025-06-17T11:42:08Z</time>
      </trkpt>
      <trkpt lat="43.30721" lon="3.51625">
        <ele>20.2</ele>
        <time>2025-06-17T11:42:09Z</time>
      </trkpt>
      <trkpt lat="43.30718" lon="3.51631">
        <ele>20.2</ele>
        <time>2025-06-17T11:42:10Z</time>
      </trkpt>
      <trkpt lat="43.30714" lon="3.51636">
        <ele>20.2</ele>
        <time>2025-06-17T11:42:11Z</time>
      </trkpt>
      <trkpt lat="43.30709" lon="3.51641">
        <ele>20.4</ele>
        <time>2025-06-17T11:42:12Z</time>
      </trkpt>
      <trkpt lat="43.30704" lon="3.51645">
        <ele>20.4</ele>
        <time>2025-06-17T11:42:13Z</time>
      </trkpt>
      <trkpt lat="43.30699" lon="3.51649">
        <ele>20.4</ele>
        <time>2025-06-17T11:42:14Z</time>
      </trkpt>
      <trkpt lat="43.30693" lon="3.51652">
        <ele>20.4</ele>
        <time>2025-06-17T11:42:15Z</time>
      </trkpt>
      <trkpt lat="43.30688" lon="3.51654">
        <ele>20.4</ele>
        <time>2025-06-17T11:42:16Z</time>
      </trkpt>
      <trkpt lat="43.30683" lon="3.51656">
        <ele>20.6</ele>
        <time>2025-06-17T11:42:17Z</time>
      </trkpt>
      <trkpt lat="43.30677" lon="3.51657">
        <ele>20.6</ele>
        <time>2025-06-17T11:42:18Z</time>
      </trkpt>
      <trkpt lat="43.30671" lon="3.51657">
        <ele>20.8</ele>
        <time>2025-06-17T11:42:19Z</time>
      </trkpt>
      <trkpt lat="43.30666" lon="3.51657">
        <ele>20.8</ele>
        <time>2025-06-17T11:42:20Z</time>
      </trkpt>
      <trkpt lat="43.3066" lon="3.51656">
        <ele>20.8</ele>
        <time>2025-06-17T11:42:21Z</time>
      </trkpt>
      <trkpt lat="43.30654" lon="3.51656">
        <ele>20.8</ele>
        <time>2025-06-17T11:42:22Z</time>
      </trkpt>
      <trkpt lat="43.30648" lon="3.51656">
        <ele>20.8</ele>
        <time>2025-06-17T11:42:23Z</time>
      </trkpt>
      <trkpt lat="43.30643" lon="3.51656">
        <ele>20.8</ele>
        <time>2025-06-17T11:42:24Z</time>
      </trkpt>
      <trkpt lat="43.30636" lon="3.51655">
        <ele>20.6</ele>
        <time>2025-06-17T11:42:25Z</time>
      </trkpt>
      <trkpt lat="43.30631" lon="3.51655">
        <ele>20.6</ele>
        <time>2025-06-17T11:42:26Z</time>
      </trkpt>
      <trkpt lat="43.30625" lon="3.51654">
        <ele>20.8</ele>
        <time>2025-06-17T11:42:27Z</time>
      </trkpt>
      <trkpt lat="43.30619" lon="3.51654">
        <ele>20.6</ele>
        <time>2025-06-17T11:42:28Z</time>
      </trkpt>
      <trkpt lat="43.30614" lon="3.51654">
        <ele>20.6</ele>
        <time>2025-06-17T11:42:29Z</time>
      </trkpt>
      <trkpt lat="43.30608" lon="3.51654">
        <ele>20.6</ele>
        <time>2025-06-17T11:42:30Z</time>
      </trkpt>
      <trkpt lat="43.30602" lon="3.51653">
        <ele>20.6</ele>
        <time>2025-06-17T11:42:31Z</time>
      </trkpt>
      <trkpt lat="43.30597" lon="3.51653">
        <ele>20.6</ele>
        <time>2025-06-17T11:42:32Z</time>
      </trkpt>
      <trkpt lat="43.30591" lon="3.51653">
        <ele>20.4</ele>
        <time>2025-06-17T11:42:33Z</time>
      </trkpt>
      <trkpt lat="43.30585" lon="3.51652">
        <ele>20.4</ele>
        <time>2025-06-17T11:42:34Z</time>
      </trkpt>
      <trkpt lat="43.30579" lon="3.51652">
        <ele>20.4</ele>
        <time>2025-06-17T11:42:35Z</time>
      </trkpt>
      <trkpt lat="43.30573" lon="3.51652">
        <ele>20.4</ele>
        <time>2025-06-17T11:42:36Z</time>
      </trkpt>
      <trkpt lat="43.30568" lon="3.51651">
        <ele>20.4</ele>
        <time>2025-06-17T11:42:37Z</time>
      </trkpt>
      <trkpt lat="43.30561" lon="3.5165">
        <ele>20.6</ele>
        <time>2025-06-17T11:42:38Z</time>
      </trkpt>
      <trkpt lat="43.30556" lon="3.51648">
        <ele>20.6</ele>
        <time>2025-06-17T11:42:39Z</time>
      </trkpt>
      <trkpt lat="43.30551" lon="3.51644">
        <ele>20.6</ele>
        <time>2025-06-17T11:42:40Z</time>
      </trkpt>
      <trkpt lat="43.30547" lon="3.51639">
        <ele>20.6</ele>
        <time>2025-06-17T11:42:41Z</time>
      </trkpt>
      <trkpt lat="43.30543" lon="3.51633">
        <ele>20.6</ele>
        <time>2025-06-17T11:42:42Z</time>
      </trkpt>
      <trkpt lat="43.30539" lon="3.51626">
        <ele>20.6</ele>
        <time>2025-06-17T11:42:43Z</time>
      </trkpt>
      <trkpt lat="43.30536" lon="3.51619">
        <ele>20.6</ele>
        <time>2025-06-17T11:42:44Z</time>
      </trkpt>
      <trkpt lat="43.30533" lon="3.51613">
        <ele>20.6</ele>
        <time>2025-06-17T11:42:45Z</time>
      </trkpt>
      <trkpt lat="43.30529" lon="3.51607">
        <ele>20.8</ele>
        <time>2025-06-17T11:42:46Z</time>
      </trkpt>
      <trkpt lat="43.30525" lon="3.51601">
        <ele>20.8</ele>
        <time>2025-06-17T11:42:47Z</time>
      </trkpt>
      <trkpt lat="43.3052" lon="3.51597">
        <ele>20.8</ele>
        <time>2025-06-17T11:42:48Z</time>
      </trkpt>
      <trkpt lat="43.30515" lon="3.51594">
        <ele>20.6</ele>
        <time>2025-06-17T11:42:49Z</time>
      </trkpt>
      <trkpt lat="43.30509" lon="3.51592">
        <ele>20.6</ele>
        <time>2025-06-17T11:42:50Z</time>
      </trkpt>
      <trkpt lat="43.30503" lon="3.51591">
        <ele>20.8</ele>
        <time>2025-06-17T11:42:51Z</time>
      </trkpt>
      <trkpt lat="43.30497" lon="3.51589">
        <ele>20.8</ele>
        <time>2025-06-17T11:42:52Z</time>
      </trkpt>
      <trkpt lat="43.30491" lon="3.51587">
        <ele>20.8</ele>
        <time>2025-06-17T11:42:53Z</time>
      </trkpt>
      <trkpt lat="43.30485" lon="3.51585">
        <ele>20.8</ele>
        <time>2025-06-17T11:42:54Z</time>
      </trkpt>
      <trkpt lat="43.30479" lon="3.51584">
        <ele>20.8</ele>
        <time>2025-06-17T11:42:55Z</time>
      </trkpt>
      <trkpt lat="43.30473" lon="3.51582">
        <ele>20.8</ele>
        <time>2025-06-17T11:42:56Z</time>
      </trkpt>
      <trkpt lat="43.30468" lon="3.51581">
        <ele>20.6</ele>
        <time>2025-06-17T11:42:57Z</time>
      </trkpt>
      <trkpt lat="43.30462" lon="3.51579">
        <ele>20.6</ele>
        <time>2025-06-17T11:42:58Z</time>
      </trkpt>
      <trkpt lat="43.30455" lon="3.51578">
        <ele>20.6</ele>
        <time>2025-06-17T11:42:59Z</time>
      </trkpt>
      <trkpt lat="43.30449" lon="3.51576">
        <ele>20.6</ele>
        <time>2025-06-17T11:43:00Z</time>
      </trkpt>
      <trkpt lat="43.30443" lon="3.51575">
        <ele>20.6</ele>
        <time>2025-06-17T11:43:01Z</time>
      </trkpt>
      <trkpt lat="43.30437" lon="3.51573">
        <ele>20.6</ele>
        <time>2025-06-17T11:43:02Z</time>
      </trkpt>
      <trkpt lat="43.30431" lon="3.51571">
        <ele>20.6</ele>
        <time>2025-06-17T11:43:03Z</time>
      </trkpt>
      <trkpt lat="43.30425" lon="3.51569">
        <ele>20.6</ele>
        <time>2025-06-17T11:43:04Z</time>
      </trkpt>
      <trkpt lat="43.30419" lon="3.51568">
        <ele>20.6</ele>
        <time>2025-06-17T11:43:05Z</time>
      </trkpt>
      <trkpt lat="43.30413" lon="3.51566">
        <ele>20.6</ele>
        <time>2025-06-17T11:43:06Z</time>
      </trkpt>
      <trkpt lat="43.30407" lon="3.51565">
        <ele>20.6</ele>
        <time>2025-06-17T11:43:07Z</time>
      </trkpt>
      <trkpt lat="43.30401" lon="3.51563">
        <ele>20.6</ele>
        <time>2025-06-17T11:43:08Z</time>
      </trkpt>
      <trkpt lat="43.30395" lon="3.51562">
        <ele>20.8</ele>
        <time>2025-06-17T11:43:09Z</time>
      </trkpt>
      <trkpt lat="43.3039" lon="3.5156">
        <ele>20.8</ele>
        <time>2025-06-17T11:43:10Z</time>
      </trkpt>
      <trkpt lat="43.30384" lon="3.51559">
        <ele>20.8</ele>
        <time>2025-06-17T11:43:11Z</time>
      </trkpt>
      <trkpt lat="43.30378" lon="3.51557">
        <ele>20.6</ele>
        <time>2025-06-17T11:43:12Z</time>
      </trkpt>
      <trkpt lat="43.30372" lon="3.51556">
        <ele>20.6</ele>
        <time>2025-06-17T11:43:13Z</time>
      </trkpt>
      <trkpt lat="43.30366" lon="3.51554">
        <ele>20.6</ele>
        <time>2025-06-17T11:43:14Z</time>
      </trkpt>
      <trkpt lat="43.3036" lon="3.51553">
        <ele>20.8</ele>
        <time>2025-06-17T11:43:15Z</time>
      </trkpt>
      <trkpt lat="43.30354" lon="3.51551">
        <ele>20.6</ele>
        <time>2025-06-17T11:43:16Z</time>
      </trkpt>
      <trkpt lat="43.30348" lon="3.51549">
        <ele>20.8</ele>
        <time>2025-06-17T11:43:17Z</time>
      </trkpt>
      <trkpt lat="43.30343" lon="3.51547">
        <ele>20.8</ele>
        <time>2025-06-17T11:43:18Z</time>
      </trkpt>
      <trkpt lat="43.30337" lon="3.51546">
        <ele>20.6</ele>
        <time>2025-06-17T11:43:19Z</time>
      </trkpt>
      <trkpt lat="43.30331" lon="3.51544">
        <ele>20.6</ele>
        <time>2025-06-17T11:43:20Z</time>
      </trkpt>
      <trkpt lat="43.30326" lon="3.51543">
        <ele>20.4</ele>
        <time>2025-06-17T11:43:21Z</time>
      </trkpt>
      <trkpt lat="43.3032" lon="3.51541">
        <ele>20.4</ele>
        <time>2025-06-17T11:43:22Z</time>
      </trkpt>
      <trkpt lat="43.30314" lon="3.5154">
        <ele>20.4</ele>
        <time>2025-06-17T11:43:23Z</time>
      </trkpt>
      <trkpt lat="43.30309" lon="3.51539">
        <ele>20.4</ele>
        <time>2025-06-17T11:43:24Z</time>
      </trkpt>
      <trkpt lat="43.30303" lon="3.51538">
        <ele>20.4</ele>
        <time>2025-06-17T11:43:25Z</time>
      </trkpt>
      <trkpt lat="43.30297" lon="3.51536">
        <ele>20.4</ele>
        <time>2025-06-17T11:43:26Z</time>
      </trkpt>
      <trkpt lat="43.30292" lon="3.51535">
        <ele>20.4</ele>
        <time>2025-06-17T11:43:27Z</time>
      </trkpt>
      <trkpt lat="43.30286" lon="3.51533">
        <ele>20.4</ele>
        <time>2025-06-17T11:43:28Z</time>
      </trkpt>
      <trkpt lat="43.30281" lon="3.51531">
        <ele>20.4</ele>
        <time>2025-06-17T11:43:29Z</time>
      </trkpt>
      <trkpt lat="43.30276" lon="3.5153">
        <ele>20.4</ele>
        <time>2025-06-17T11:43:30Z</time>
      </trkpt>
      <trkpt lat="43.3027" lon="3.51529">
        <ele>20.4</ele>
        <time>2025-06-17T11:43:31Z</time>
      </trkpt>
      <trkpt lat="43.30264" lon="3.51528">
        <ele>20.4</ele>
        <time>2025-06-17T11:43:32Z</time>
      </trkpt>
      <trkpt lat="43.30259" lon="3.51527">
        <ele>20.4</ele>
        <time>2025-06-17T11:43:33Z</time>
      </trkpt>
      <trkpt lat="43.30254" lon="3.51525">
        <ele>20.4</ele>
        <time>2025-06-17T11:43:34Z</time>
      </trkpt>
      <trkpt lat="43.30248" lon="3.51524">
        <ele>20.4</ele>
        <time>2025-06-17T11:43:35Z</time>
      </trkpt>
      <trkpt lat="43.30243" lon="3.51522">
        <ele>20.6</ele>
        <time>2025-06-17T11:43:36Z</time>
      </trkpt>
      <trkpt lat="43.30238" lon="3.51521">
        <ele>20.6</ele>
        <time>2025-06-17T11:43:37Z</time>
      </trkpt>
      <trkpt lat="43.30233" lon="3.5152">
        <ele>20.6</ele>
        <time>2025-06-17T11:43:38Z</time>
      </trkpt>
      <trkpt lat="43.30227" lon="3.51519">
        <ele>20.6</ele>
        <time>2025-06-17T11:43:39Z</time>
      </trkpt>
      <trkpt lat="43.30222" lon="3.51517">
        <ele>20.6</ele>
        <time>2025-06-17T11:43:40Z</time>
      </trkpt>
      <trkpt lat="43.30217" lon="3.51516">
        <ele>20.6</ele>
        <time>2025-06-17T11:43:41Z</time>
      </trkpt>
      <trkpt lat="43.30212" lon="3.51514">
        <ele>20.6</ele>
        <time>2025-06-17T11:43:42Z</time>
      </trkpt>
      <trkpt lat="43.30206" lon="3.51512">
        <ele>20.6</ele>
        <time>2025-06-17T11:43:43Z</time>
      </trkpt>
      <trkpt lat="43.30201" lon="3.51511">
        <ele>20.6</ele>
        <time>2025-06-17T11:43:44Z</time>
      </trkpt>
      <trkpt lat="43.30196" lon="3.5151">
        <ele>20.6</ele>
        <time>2025-06-17T11:43:45Z</time>
      </trkpt>
      <trkpt lat="43.3019" lon="3.51508">
        <ele>20.6</ele>
        <time>2025-06-17T11:43:46Z</time>
      </trkpt>
      <trkpt lat="43.30185" lon="3.51506">
        <ele>20.6</ele>
        <time>2025-06-17T11:43:47Z</time>
      </trkpt>
      <trkpt lat="43.3018" lon="3.51505">
        <ele>20.6</ele>
        <time>2025-06-17T11:43:48Z</time>
      </trkpt>
      <trkpt lat="43.30174" lon="3.51504">
        <ele>20.6</ele>
        <time>2025-06-17T11:43:49Z</time>
      </trkpt>
      <trkpt lat="43.30169" lon="3.51502">
        <ele>20.6</ele>
        <time>2025-06-17T11:43:50Z</time>
      </trkpt>
      <trkpt lat="43.30164" lon="3.51501">
        <ele>20.6</ele>
        <time>2025-06-17T11:43:51Z</time>
      </trkpt>
      <trkpt lat="43.30158" lon="3.515">
        <ele>20.6</ele>
        <time>2025-06-17T11:43:52Z</time>
      </trkpt>
      <trkpt lat="43.30153" lon="3.51499">
        <ele>20.6</ele>
        <time>2025-06-17T11:43:53Z</time>
      </trkpt>
      <trkpt lat="43.30148" lon="3.51497">
        <ele>20.6</ele>
        <time>2025-06-17T11:43:54Z</time>
      </trkpt>
      <trkpt lat="43.30143" lon="3.51496">
        <ele>20.6</ele>
        <time>2025-06-17T11:43:55Z</time>
      </trkpt>
      <trkpt lat="43.30138" lon="3.51494">
        <ele>20.6</ele>
        <time>2025-06-17T11:43:56Z</time>
      </trkpt>
      <trkpt lat="43.30133" lon="3.51493">
        <ele>20.6</ele>
        <time>2025-06-17T11:43:57Z</time>
      </trkpt>
      <trkpt lat="43.30128" lon="3.51492">
        <ele>20.6</ele>
        <time>2025-06-17T11:43:58Z</time>
      </trkpt>
      <trkpt lat="43.30123" lon="3.5149">
        <ele>20.6</ele>
        <time>2025-06-17T11:43:59Z</time>
      </trkpt>
      <trkpt lat="43.30118" lon="3.51488">
        <ele>20.6</ele>
        <time>2025-06-17T11:44:00Z</time>
      </trkpt>
      <trkpt lat="43.30112" lon="3.51487">
        <ele>20.8</ele>
        <time>2025-06-17T11:44:01Z</time>
      </trkpt>
      <trkpt lat="43.30107" lon="3.51486">
        <ele>20.8</ele>
        <time>2025-06-17T11:44:02Z</time>
      </trkpt>
      <trkpt lat="43.30102" lon="3.51485">
        <ele>20.6</ele>
        <time>2025-06-17T11:44:03Z</time>
      </trkpt>
      <trkpt lat="43.30097" lon="3.51483">
        <ele>20.6</ele>
        <time>2025-06-17T11:44:04Z</time>
      </trkpt>
      <trkpt lat="43.30091" lon="3.51482">
        <ele>20.6</ele>
        <time>2025-06-17T11:44:05Z</time>
      </trkpt>
      <trkpt lat="43.30087" lon="3.5148">
        <ele>20.8</ele>
        <time>2025-06-17T11:44:06Z</time>
      </trkpt>
      <trkpt lat="43.30081" lon="3.51479">
        <ele>20.8</ele>
        <time>2025-06-17T11:44:07Z</time>
      </trkpt>
      <trkpt lat="43.30076" lon="3.51477">
        <ele>20.8</ele>
        <time>2025-06-17T11:44:08Z</time>
      </trkpt>
      <trkpt lat="43.30071" lon="3.51476">
        <ele>20.8</ele>
        <time>2025-06-17T11:44:09Z</time>
      </trkpt>
      <trkpt lat="43.30066" lon="3.51474">
        <ele>20.8</ele>
        <time>2025-06-17T11:44:10Z</time>
      </trkpt>
      <trkpt lat="43.30061" lon="3.51473">
        <ele>21</ele>
        <time>2025-06-17T11:44:11Z</time>
      </trkpt>
      <trkpt lat="43.30057" lon="3.51471">
        <ele>21</ele>
        <time>2025-06-17T11:44:12Z</time>
      </trkpt>
      <trkpt lat="43.30052" lon="3.5147">
        <ele>21</ele>
        <time>2025-06-17T11:44:13Z</time>
      </trkpt>
      <trkpt lat="43.30047" lon="3.51468">
        <ele>21</ele>
        <time>2025-06-17T11:44:14Z</time>
      </trkpt>
      <trkpt lat="43.30042" lon="3.51467">
        <ele>21</ele>
        <time>2025-06-17T11:44:15Z</time>
      </trkpt>
      <trkpt lat="43.30037" lon="3.51466">
        <ele>21.2</ele>
        <time>2025-06-17T11:44:16Z</time>
      </trkpt>
      <trkpt lat="43.30032" lon="3.51466">
        <ele>21.2</ele>
        <time>2025-06-17T11:44:17Z</time>
      </trkpt>
      <trkpt lat="43.30027" lon="3.51467">
        <ele>21.2</ele>
        <time>2025-06-17T11:44:18Z</time>
      </trkpt>
      <trkpt lat="43.30023" lon="3.5147">
        <ele>21.2</ele>
        <time>2025-06-17T11:44:19Z</time>
      </trkpt>
      <trkpt lat="43.30018" lon="3.51474">
        <ele>21.2</ele>
        <time>2025-06-17T11:44:20Z</time>
      </trkpt>
      <trkpt lat="43.30014" lon="3.51478">
        <ele>21.2</ele>
        <time>2025-06-17T11:44:21Z</time>
      </trkpt>
      <trkpt lat="43.3001" lon="3.51482">
        <ele>21.2</ele>
        <time>2025-06-17T11:44:22Z</time>
      </trkpt>
      <trkpt lat="43.30007" lon="3.51487">
        <ele>21</ele>
        <time>2025-06-17T11:44:23Z</time>
      </trkpt>
      <trkpt lat="43.30004" lon="3.51491">
        <ele>21</ele>
        <time>2025-06-17T11:44:24Z</time>
      </trkpt>
      <trkpt lat="43.3" lon="3.51497">
        <ele>21</ele>
        <time>2025-06-17T11:44:25Z</time>
      </trkpt>
      <trkpt lat="43.29998" lon="3.51503">
        <ele>21</ele>
        <time>2025-06-17T11:44:26Z</time>
      </trkpt>
      <trkpt lat="43.29995" lon="3.51509">
        <ele>21</ele>
        <time>2025-06-17T11:44:27Z</time>
      </trkpt>
      <trkpt lat="43.29992" lon="3.51515">
        <ele>21</ele>
        <time>2025-06-17T11:44:28Z</time>
      </trkpt>
      <trkpt lat="43.2999" lon="3.51522">
        <ele>21</ele>
        <time>2025-06-17T11:44:29Z</time>
      </trkpt>
      <trkpt lat="43.29988" lon="3.51528">
        <ele>20.8</ele>
        <time>2025-06-17T11:44:30Z</time>
      </trkpt>
      <trkpt lat="43.29985" lon="3.51535">
        <ele>20.8</ele>
        <time>2025-06-17T11:44:31Z</time>
      </trkpt>
      <trkpt lat="43.29983" lon="3.51542">
        <ele>20.6</ele>
        <time>2025-06-17T11:44:32Z</time>
      </trkpt>
      <trkpt lat="43.29981" lon="3.51549">
        <ele>20.6</ele>
        <time>2025-06-17T11:44:33Z</time>
      </trkpt>
      <trkpt lat="43.2998" lon="3.51556">
        <ele>20.4</ele>
        <time>2025-06-17T11:44:34Z</time>
      </trkpt>
      <trkpt lat="43.29978" lon="3.51563">
        <ele>20.4</ele>
        <time>2025-06-17T11:44:35Z</time>
      </trkpt>
      <trkpt lat="43.29977" lon="3.51569">
        <ele>20.2</ele>
        <time>2025-06-17T11:44:36Z</time>
      </trkpt>
      <trkpt lat="43.29975" lon="3.51575">
        <ele>20.2</ele>
        <time>2025-06-17T11:44:37Z</time>
      </trkpt>
      <trkpt lat="43.29974" lon="3.51581">
        <ele>20</ele>
        <time>2025-06-17T11:44:38Z</time>
      </trkpt>
      <trkpt lat="43.29972" lon="3.51586">
        <ele>19.8</ele>
        <time>2025-06-17T11:44:39Z</time>
      </trkpt>
      <trkpt lat="43.2997" lon="3.51591">
        <ele>20</ele>
        <time>2025-06-17T11:44:40Z</time>
      </trkpt>
      <trkpt lat="43.29968" lon="3.51596">
        <ele>20</ele>
        <time>2025-06-17T11:44:41Z</time>
      </trkpt>
      <trkpt lat="43.29966" lon="3.51602">
        <ele>20</ele>
        <time>2025-06-17T11:44:42Z</time>
      </trkpt>
      <trkpt lat="43.29964" lon="3.51607">
        <ele>20</ele>
        <time>2025-06-17T11:44:43Z</time>
      </trkpt>
      <trkpt lat="43.29962" lon="3.51613">
        <ele>20</ele>
        <time>2025-06-17T11:44:44Z</time>
      </trkpt>
      <trkpt lat="43.29959" lon="3.51619">
        <ele>20.2</ele>
        <time>2025-06-17T11:44:45Z</time>
      </trkpt>
      <trkpt lat="43.29957" lon="3.51624">
        <ele>20.2</ele>
        <time>2025-06-17T11:44:46Z</time>
      </trkpt>
      <trkpt lat="43.29953" lon="3.51629">
        <ele>20.2</ele>
        <time>2025-06-17T11:44:47Z</time>
      </trkpt>
      <trkpt lat="43.2995" lon="3.51635">
        <ele>20.2</ele>
        <time>2025-06-17T11:44:48Z</time>
      </trkpt>
      <trkpt lat="43.29947" lon="3.5164">
        <ele>20.2</ele>
        <time>2025-06-17T11:44:49Z</time>
      </trkpt>
      <trkpt lat="43.29944" lon="3.51644">
        <ele>20.2</ele>
        <time>2025-06-17T11:44:50Z</time>
      </trkpt>
      <trkpt lat="43.2994" lon="3.51649">
        <ele>20.2</ele>
        <time>2025-06-17T11:44:51Z</time>
      </trkpt>
      <trkpt lat="43.29936" lon="3.51654">
        <ele>20.2</ele>
        <time>2025-06-17T11:44:52Z</time>
      </trkpt>
      <trkpt lat="43.29933" lon="3.51659">
        <ele>20.2</ele>
        <time>2025-06-17T11:44:53Z</time>
      </trkpt>
      <trkpt lat="43.29929" lon="3.51664">
        <ele>20.2</ele>
        <time>2025-06-17T11:44:54Z</time>
      </trkpt>
      <trkpt lat="43.29925" lon="3.51669">
        <ele>20.2</ele>
        <time>2025-06-17T11:44:55Z</time>
      </trkpt>
      <trkpt lat="43.29922" lon="3.51674">
        <ele>20.2</ele>
        <time>2025-06-17T11:44:56Z</time>
      </trkpt>
      <trkpt lat="43.29918" lon="3.51679">
        <ele>20.2</ele>
        <time>2025-06-17T11:44:57Z</time>
      </trkpt>
      <trkpt lat="43.29915" lon="3.51684">
        <ele>20.2</ele>
        <time>2025-06-17T11:44:58Z</time>
      </trkpt>
      <trkpt lat="43.2991" lon="3.51689">
        <ele>20.2</ele>
        <time>2025-06-17T11:44:59Z</time>
      </trkpt>
      <trkpt lat="43.29907" lon="3.51693">
        <ele>20.2</ele>
        <time>2025-06-17T11:45:00Z</time>
      </trkpt>
      <trkpt lat="43.29903" lon="3.51698">
        <ele>20.2</ele>
        <time>2025-06-17T11:45:01Z</time>
      </trkpt>
      <trkpt lat="43.29899" lon="3.51702">
        <ele>20.2</ele>
        <time>2025-06-17T11:45:02Z</time>
      </trkpt>
      <trkpt lat="43.29896" lon="3.51707">
        <ele>20.2</ele>
        <time>2025-06-17T11:45:03Z</time>
      </trkpt>
      <trkpt lat="43.29892" lon="3.51712">
        <ele>20.4</ele>
        <time>2025-06-17T11:45:04Z</time>
      </trkpt>
      <trkpt lat="43.29888" lon="3.51717">
        <ele>20.2</ele>
        <time>2025-06-17T11:45:05Z</time>
      </trkpt>
      <trkpt lat="43.29884" lon="3.51721">
        <ele>20.2</ele>
        <time>2025-06-17T11:45:06Z</time>
      </trkpt>
      <trkpt lat="43.29881" lon="3.51726">
        <ele>20.2</ele>
        <time>2025-06-17T11:45:07Z</time>
      </trkpt>
      <trkpt lat="43.29877" lon="3.51731">
        <ele>20.4</ele>
        <time>2025-06-17T11:45:08Z</time>
      </trkpt>
      <trkpt lat="43.29873" lon="3.51735">
        <ele>20.2</ele>
        <time>2025-06-17T11:45:09Z</time>
      </trkpt>
      <trkpt lat="43.2987" lon="3.5174">
        <ele>20.2</ele>
        <time>2025-06-17T11:45:10Z</time>
      </trkpt>
      <trkpt lat="43.29866" lon="3.51744">
        <ele>20.2</ele>
        <time>2025-06-17T11:45:11Z</time>
      </trkpt>
      <trkpt lat="43.29862" lon="3.51749">
        <ele>20.2</ele>
        <time>2025-06-17T11:45:12Z</time>
      </trkpt>
      <trkpt lat="43.29858" lon="3.51754">
        <ele>20</ele>
        <time>2025-06-17T11:45:13Z</time>
      </trkpt>
      <trkpt lat="43.29854" lon="3.51759">
        <ele>20</ele>
        <time>2025-06-17T11:45:14Z</time>
      </trkpt>
      <trkpt lat="43.29851" lon="3.51763">
        <ele>20</ele>
        <time>2025-06-17T11:45:15Z</time>
      </trkpt>
      <trkpt lat="43.29847" lon="3.51768">
        <ele>20.2</ele>
        <time>2025-06-17T11:45:16Z</time>
      </trkpt>
      <trkpt lat="43.29843" lon="3.51773">
        <ele>20.2</ele>
        <time>2025-06-17T11:45:17Z</time>
      </trkpt>
      <trkpt lat="43.29839" lon="3.51777">
        <ele>20.2</ele>
        <time>2025-06-17T11:45:18Z</time>
      </trkpt>
      <trkpt lat="43.29836" lon="3.51782">
        <ele>20.2</ele>
        <time>2025-06-17T11:45:19Z</time>
      </trkpt>
      <trkpt lat="43.29832" lon="3.51787">
        <ele>20.2</ele>
        <time>2025-06-17T11:45:20Z</time>
      </trkpt>
      <trkpt lat="43.29828" lon="3.51792">
        <ele>20.2</ele>
        <time>2025-06-17T11:45:21Z</time>
      </trkpt>
      <trkpt lat="43.29825" lon="3.51797">
        <ele>20.2</ele>
        <time>2025-06-17T11:45:22Z</time>
      </trkpt>
      <trkpt lat="43.29821" lon="3.51802">
        <ele>20.2</ele>
        <time>2025-06-17T11:45:23Z</time>
      </trkpt>
      <trkpt lat="43.29818" lon="3.51807">
        <ele>20.2</ele>
        <time>2025-06-17T11:45:24Z</time>
      </trkpt>
      <trkpt lat="43.29814" lon="3.51812">
        <ele>20.2</ele>
        <time>2025-06-17T11:45:25Z</time>
      </trkpt>
      <trkpt lat="43.29811" lon="3.51818">
        <ele>20.2</ele>
        <time>2025-06-17T11:45:26Z</time>
      </trkpt>
      <trkpt lat="43.29808" lon="3.51823">
        <ele>20.2</ele>
        <time>2025-06-17T11:45:27Z</time>
      </trkpt>
      <trkpt lat="43.29806" lon="3.51828">
        <ele>20.2</ele>
        <time>2025-06-17T11:45:28Z</time>
      </trkpt>
      <trkpt lat="43.29803" lon="3.51832">
        <ele>20.2</ele>
        <time>2025-06-17T11:45:29Z</time>
      </trkpt>
      <trkpt lat="43.29801" lon="3.51836">
        <ele>20.2</ele>
        <time>2025-06-17T11:45:30Z</time>
      </trkpt>
      <trkpt lat="43.29798" lon="3.5184">
        <ele>20.2</ele>
        <time>2025-06-17T11:45:31Z</time>
      </trkpt>
      <trkpt lat="43.29796" lon="3.51844">
        <ele>20.2</ele>
        <time>2025-06-17T11:45:32Z</time>
      </trkpt>
      <trkpt lat="43.29794" lon="3.51848">
        <ele>20</ele>
        <time>2025-06-17T11:45:33Z</time>
      </trkpt>
      <trkpt lat="43.29792" lon="3.51852">
        <ele>20</ele>
        <time>2025-06-17T11:45:34Z</time>
      </trkpt>
      <trkpt lat="43.2979" lon="3.51856">
        <ele>20</ele>
        <time>2025-06-17T11:45:35Z</time>
      </trkpt>
      <trkpt lat="43.29788" lon="3.51861">
        <ele>20</ele>
        <time>2025-06-17T11:45:36Z</time>
      </trkpt>
      <trkpt lat="43.29785" lon="3.51865">
        <ele>20</ele>
        <time>2025-06-17T11:45:37Z</time>
      </trkpt>
      <trkpt lat="43.29783" lon="3.51869">
        <ele>20.2</ele>
        <time>2025-06-17T11:45:38Z</time>
      </trkpt>
      <trkpt lat="43.29782" lon="3.51873">
        <ele>20.2</ele>
        <time>2025-06-17T11:45:39Z</time>
      </trkpt>
      <trkpt lat="43.29779" lon="3.51876">
        <ele>20.2</ele>
        <time>2025-06-17T11:45:40Z</time>
      </trkpt>
      <trkpt lat="43.29777" lon="3.51877">
        <ele>20.2</ele>
        <time>2025-06-17T11:45:41Z</time>
      </trkpt>
      <trkpt lat="43.29774" lon="3.51877">
        <ele>20.4</ele>
        <time>2025-06-17T11:45:42Z</time>
      </trkpt>
      <trkpt lat="43.29772" lon="3.51878">
        <ele>20.4</ele>
        <time>2025-06-17T11:45:43Z</time>
      </trkpt>
      <trkpt lat="43.29771" lon="3.51879">
        <ele>20.6</ele>
        <time>2025-06-17T11:45:44Z</time>
      </trkpt>
      <trkpt lat="43.29769" lon="3.5188">
        <ele>20.6</ele>
        <time>2025-06-17T11:45:45Z</time>
      </trkpt>
      <trkpt lat="43.29767" lon="3.5188">
        <ele>20.6</ele>
        <time>2025-06-17T11:45:46Z</time>
      </trkpt>
      <trkpt lat="43.29764" lon="3.51879">
        <ele>20.6</ele>
        <time>2025-06-17T11:45:47Z</time>
      </trkpt>
      <trkpt lat="43.29762" lon="3.51877">
        <ele>20.6</ele>
        <time>2025-06-17T11:45:48Z</time>
      </trkpt>
      <trkpt lat="43.2976" lon="3.51875">
        <ele>20.6</ele>
        <time>2025-06-17T11:45:49Z</time>
      </trkpt>
      <trkpt lat="43.29758" lon="3.51874">
        <ele>20.6</ele>
        <time>2025-06-17T11:45:50Z</time>
      </trkpt>
      <trkpt lat="43.29755" lon="3.51873">
        <ele>20.6</ele>
        <time>2025-06-17T11:45:51Z</time>
      </trkpt>
      <trkpt lat="43.29753" lon="3.51872">
        <ele>20.6</ele>
        <time>2025-06-17T11:45:52Z</time>
      </trkpt>
      <trkpt lat="43.2975" lon="3.51872">
        <ele>20.6</ele>
        <time>2025-06-17T11:45:53Z</time>
      </trkpt>
      <trkpt lat="43.29748" lon="3.51874">
        <ele>20.4</ele>
        <time>2025-06-17T11:45:54Z</time>
      </trkpt>
      <trkpt lat="43.29747" lon="3.51876">
        <ele>20.4</ele>
        <time>2025-06-17T11:45:55Z</time>
      </trkpt>
      <trkpt lat="43.29746" lon="3.5188">
        <ele>20.4</ele>
        <time>2025-06-17T11:45:56Z</time>
      </trkpt>
      <trkpt lat="43.29745" lon="3.51884">
        <ele>20.4</ele>
        <time>2025-06-17T11:45:57Z</time>
      </trkpt>
      <trkpt lat="43.29745" lon="3.51888">
        <ele>20.4</ele>
        <time>2025-06-17T11:45:58Z</time>
      </trkpt>
      <trkpt lat="43.29745" lon="3.51892">
        <ele>20.4</ele>
        <time>2025-06-17T11:45:59Z</time>
      </trkpt>
      <trkpt lat="43.29745" lon="3.51897">
        <ele>20.4</ele>
        <time>2025-06-17T11:46:00Z</time>
      </trkpt>
      <trkpt lat="43.29744" lon="3.51902">
        <ele>20.4</ele>
        <time>2025-06-17T11:46:01Z</time>
      </trkpt>
      <trkpt lat="43.29743" lon="3.51908">
        <ele>20.4</ele>
        <time>2025-06-17T11:46:02Z</time>
      </trkpt>
      <trkpt lat="43.29741" lon="3.51914">
        <ele>20.4</ele>
        <time>2025-06-17T11:46:03Z</time>
      </trkpt>
      <trkpt lat="43.29739" lon="3.5192">
        <ele>20.4</ele>
        <time>2025-06-17T11:46:04Z</time>
      </trkpt>
      <trkpt lat="43.29738" lon="3.51925">
        <ele>20.4</ele>
        <time>2025-06-17T11:46:05Z</time>
      </trkpt>
      <trkpt lat="43.29735" lon="3.5193">
        <ele>20.4</ele>
        <time>2025-06-17T11:46:06Z</time>
      </trkpt>
      <trkpt lat="43.29733" lon="3.51935">
        <ele>20.4</ele>
        <time>2025-06-17T11:46:07Z</time>
      </trkpt>
      <trkpt lat="43.29731" lon="3.5194">
        <ele>20.6</ele>
        <time>2025-06-17T11:46:08Z</time>
      </trkpt>
      <trkpt lat="43.29728" lon="3.51946">
        <ele>20.6</ele>
        <time>2025-06-17T11:46:09Z</time>
      </trkpt>
      <trkpt lat="43.29725" lon="3.51951">
        <ele>20.6</ele>
        <time>2025-06-17T11:46:10Z</time>
      </trkpt>
      <trkpt lat="43.29723" lon="3.51956">
        <ele>20.6</ele>
        <time>2025-06-17T11:46:11Z</time>
      </trkpt>
      <trkpt lat="43.2972" lon="3.51962">
        <ele>20.4</ele>
        <time>2025-06-17T11:46:12Z</time>
      </trkpt>
      <trkpt lat="43.29717" lon="3.51968">
        <ele>20.4</ele>
        <time>2025-06-17T11:46:13Z</time>
      </trkpt>
      <trkpt lat="43.29714" lon="3.51973">
        <ele>20.4</ele>
        <time>2025-06-17T11:46:14Z</time>
      </trkpt>
      <trkpt lat="43.29712" lon="3.51979">
        <ele>20.4</ele>
        <time>2025-06-17T11:46:15Z</time>
      </trkpt>
      <trkpt lat="43.29709" lon="3.51984">
        <ele>20.4</ele>
        <time>2025-06-17T11:46:16Z</time>
      </trkpt>
      <trkpt lat="43.29707" lon="3.5199">
        <ele>20.4</ele>
        <time>2025-06-17T11:46:17Z</time>
      </trkpt>
      <trkpt lat="43.29704" lon="3.51995">
        <ele>20.4</ele>
        <time>2025-06-17T11:46:18Z</time>
      </trkpt>
      <trkpt lat="43.29702" lon="3.52001">
        <ele>20.4</ele>
        <time>2025-06-17T11:46:19Z</time>
      </trkpt>
      <trkpt lat="43.297" lon="3.52006">
        <ele>20.4</ele>
        <time>2025-06-17T11:46:20Z</time>
      </trkpt>
      <trkpt lat="43.29697" lon="3.5201">
        <ele>20.2</ele>
        <time>2025-06-17T11:46:21Z</time>
      </trkpt>
      <trkpt lat="43.29695" lon="3.52015">
        <ele>20.2</ele>
        <time>2025-06-17T11:46:22Z</time>
      </trkpt>
      <trkpt lat="43.29693" lon="3.5202">
        <ele>20.2</ele>
        <time>2025-06-17T11:46:23Z</time>
      </trkpt>
      <trkpt lat="43.29691" lon="3.52025">
        <ele>20.2</ele>
        <time>2025-06-17T11:46:24Z</time>
      </trkpt>
      <trkpt lat="43.29689" lon="3.52029">
        <ele>20.2</ele>
        <time>2025-06-17T11:46:25Z</time>
      </trkpt>
      <trkpt lat="43.29687" lon="3.52033">
        <ele>20.2</ele>
        <time>2025-06-17T11:46:26Z</time>
      </trkpt>
      <trkpt lat="43.29685" lon="3.52037">
        <ele>20.2</ele>
        <time>2025-06-17T11:46:27Z</time>
      </trkpt>
      <trkpt lat="43.29684" lon="3.52041">
        <ele>20.2</ele>
        <time>2025-06-17T11:46:28Z</time>
      </trkpt>
      <trkpt lat="43.29682" lon="3.52044">
        <ele>20.2</ele>
        <time>2025-06-17T11:46:29Z</time>
      </trkpt>
      <trkpt lat="43.29681" lon="3.52048">
        <ele>20.2</ele>
        <time>2025-06-17T11:46:30Z</time>
      </trkpt>
      <trkpt lat="43.2968" lon="3.52051">
        <ele>20.2</ele>
        <time>2025-06-17T11:46:31Z</time>
      </trkpt>
      <trkpt lat="43.29679" lon="3.52055">
        <ele>20.2</ele>
        <time>2025-06-17T11:46:32Z</time>
      </trkpt>
      <trkpt lat="43.29678" lon="3.52059">
        <ele>20.2</ele>
        <time>2025-06-17T11:46:33Z</time>
      </trkpt>
      <trkpt lat="43.29677" lon="3.52063">
        <ele>20.2</ele>
        <time>2025-06-17T11:46:34Z</time>
      </trkpt>
      <trkpt lat="43.29676" lon="3.52067">
        <ele>20.2</ele>
        <time>2025-06-17T11:46:35Z</time>
      </trkpt>
      <trkpt lat="43.29674" lon="3.52071">
        <ele>20.2</ele>
        <time>2025-06-17T11:46:36Z</time>
      </trkpt>
      <trkpt lat="43.29673" lon="3.52075">
        <ele>20.2</ele>
        <time>2025-06-17T11:46:37Z</time>
      </trkpt>
      <trkpt lat="43.29672" lon="3.52079">
        <ele>20.2</ele>
        <time>2025-06-17T11:46:38Z</time>
      </trkpt>
      <trkpt lat="43.29672" lon="3.52082">
        <ele>20.2</ele>
        <time>2025-06-17T11:46:39Z</time>
      </trkpt>
      <trkpt lat="43.29671" lon="3.52084">
        <ele>20.2</ele>
        <time>2025-06-17T11:46:40Z</time>
      </trkpt>
      <trkpt lat="43.2967" lon="3.52081">
        <ele>20.4</ele>
        <time>2025-06-17T11:47:27Z</time>
      </trkpt>
      <trkpt lat="43.2967" lon="3.52079">
        <ele>20.4</ele>
        <time>2025-06-17T11:47:28Z</time>
      </trkpt>
      <trkpt lat="43.29671" lon="3.52076">
        <ele>20.4</ele>
        <time>2025-06-17T11:47:29Z</time>
      </trkpt>
      <trkpt lat="43.29672" lon="3.52072">
        <ele>20.2</ele>
        <time>2025-06-17T11:47:30Z</time>
      </trkpt>
      <trkpt lat="43.29673" lon="3.52068">
        <ele>20.2</ele>
        <time>2025-06-17T11:47:31Z</time>
      </trkpt>
      <trkpt lat="43.29674" lon="3.52063">
        <ele>20.2</ele>
        <time>2025-06-17T11:47:32Z</time>
      </trkpt>
      <trkpt lat="43.29675" lon="3.52058">
        <ele>20.2</ele>
        <time>2025-06-17T11:47:33Z</time>
      </trkpt>
      <trkpt lat="43.29677" lon="3.52053">
        <ele>20.2</ele>
        <time>2025-06-17T11:47:34Z</time>
      </trkpt>
      <trkpt lat="43.29679" lon="3.52049">
        <ele>20.2</ele>
        <time>2025-06-17T11:47:35Z</time>
      </trkpt>
      <trkpt lat="43.29681" lon="3.52044">
        <ele>20.2</ele>
        <time>2025-06-17T11:47:36Z</time>
      </trkpt>
      <trkpt lat="43.29683" lon="3.52039">
        <ele>20.2</ele>
        <time>2025-06-17T11:47:37Z</time>
      </trkpt>
      <trkpt lat="43.29685" lon="3.52034">
        <ele>20.2</ele>
        <time>2025-06-17T11:47:38Z</time>
      </trkpt>
      <trkpt lat="43.29688" lon="3.52029">
        <ele>20.2</ele>
        <time>2025-06-17T11:47:39Z</time>
      </trkpt>
      <trkpt lat="43.2969" lon="3.52024">
        <ele>20.2</ele>
        <time>2025-06-17T11:47:40Z</time>
      </trkpt>
      <trkpt lat="43.29693" lon="3.52019">
        <ele>20.2</ele>
        <time>2025-06-17T11:47:41Z</time>
      </trkpt>
      <trkpt lat="43.29695" lon="3.52014">
        <ele>20.2</ele>
        <time>2025-06-17T11:47:42Z</time>
      </trkpt>
      <trkpt lat="43.29697" lon="3.52009">
        <ele>20.2</ele>
        <time>2025-06-17T11:47:43Z</time>
      </trkpt>
      <trkpt lat="43.29699" lon="3.52004">
        <ele>20.2</ele>
        <time>2025-06-17T11:47:44Z</time>
      </trkpt>
      <trkpt lat="43.29702" lon="3.51999">
        <ele>20.4</ele>
        <time>2025-06-17T11:47:45Z</time>
      </trkpt>
      <trkpt lat="43.29704" lon="3.51994">
        <ele>20.4</ele>
        <time>2025-06-17T11:47:46Z</time>
      </trkpt>
      <trkpt lat="43.29706" lon="3.51989">
        <ele>20.4</ele>
        <time>2025-06-17T11:47:47Z</time>
      </trkpt>
      <trkpt lat="43.29709" lon="3.51984">
        <ele>20.4</ele>
        <time>2025-06-17T11:47:48Z</time>
      </trkpt>
      <trkpt lat="43.29712" lon="3.5198">
        <ele>20.4</ele>
        <time>2025-06-17T11:47:49Z</time>
      </trkpt>
      <trkpt lat="43.29714" lon="3.51975">
        <ele>20.4</ele>
        <time>2025-06-17T11:47:50Z</time>
      </trkpt>
      <trkpt lat="43.29717" lon="3.51969">
        <ele>20.6</ele>
        <time>2025-06-17T11:47:51Z</time>
      </trkpt>
      <trkpt lat="43.2972" lon="3.51964">
        <ele>20.6</ele>
        <time>2025-06-17T11:47:52Z</time>
      </trkpt>
      <trkpt lat="43.29722" lon="3.51959">
        <ele>20.6</ele>
        <time>2025-06-17T11:47:53Z</time>
      </trkpt>
      <trkpt lat="43.29725" lon="3.51954">
        <ele>20.6</ele>
        <time>2025-06-17T11:47:54Z</time>
      </trkpt>
      <trkpt lat="43.29728" lon="3.51948">
        <ele>20.6</ele>
        <time>2025-06-17T11:47:55Z</time>
      </trkpt>
      <trkpt lat="43.2973" lon="3.51943">
        <ele>20.6</ele>
        <time>2025-06-17T11:47:56Z</time>
      </trkpt>
      <trkpt lat="43.29733" lon="3.51937">
        <ele>20.6</ele>
        <time>2025-06-17T11:47:57Z</time>
      </trkpt>
      <trkpt lat="43.29736" lon="3.51932">
        <ele>20.6</ele>
        <time>2025-06-17T11:47:58Z</time>
      </trkpt>
      <trkpt lat="43.29738" lon="3.51926">
        <ele>20.6</ele>
        <time>2025-06-17T11:47:59Z</time>
      </trkpt>
      <trkpt lat="43.2974" lon="3.51921">
        <ele>20.6</ele>
        <time>2025-06-17T11:48:00Z</time>
      </trkpt>
      <trkpt lat="43.29742" lon="3.51914">
        <ele>20.6</ele>
        <time>2025-06-17T11:48:01Z</time>
      </trkpt>
      <trkpt lat="43.29743" lon="3.51907">
        <ele>20.6</ele>
        <time>2025-06-17T11:48:02Z</time>
      </trkpt>
      <trkpt lat="43.29744" lon="3.51901">
        <ele>20.4</ele>
        <time>2025-06-17T11:48:03Z</time>
      </trkpt>
      <trkpt lat="43.29745" lon="3.51893">
        <ele>20.4</ele>
        <time>2025-06-17T11:48:04Z</time>
      </trkpt>
      <trkpt lat="43.29745" lon="3.51887">
        <ele>20.4</ele>
        <time>2025-06-17T11:48:05Z</time>
      </trkpt>
      <trkpt lat="43.29746" lon="3.5188">
        <ele>20.4</ele>
        <time>2025-06-17T11:48:06Z</time>
      </trkpt>
      <trkpt lat="43.29746" lon="3.51873">
        <ele>20.4</ele>
        <time>2025-06-17T11:48:07Z</time>
      </trkpt>
      <trkpt lat="43.29746" lon="3.51867">
        <ele>20.4</ele>
        <time>2025-06-17T11:48:08Z</time>
      </trkpt>
      <trkpt lat="43.29747" lon="3.5186">
        <ele>20.4</ele>
        <time>2025-06-17T11:48:09Z</time>
      </trkpt>
      <trkpt lat="43.29747" lon="3.51854">
        <ele>20.4</ele>
        <time>2025-06-17T11:48:10Z</time>
      </trkpt>
      <trkpt lat="43.29746" lon="3.51849">
        <ele>20.4</ele>
        <time>2025-06-17T11:48:11Z</time>
      </trkpt>
      <trkpt lat="43.29745" lon="3.51844">
        <ele>20.4</ele>
        <time>2025-06-17T11:48:12Z</time>
      </trkpt>
      <trkpt lat="43.29743" lon="3.51839">
        <ele>20.4</ele>
        <time>2025-06-17T11:48:13Z</time>
      </trkpt>
      <trkpt lat="43.2974" lon="3.51834">
        <ele>20.4</ele>
        <time>2025-06-17T11:48:14Z</time>
      </trkpt>
      <trkpt lat="43.29737" lon="3.5183">
        <ele>20.4</ele>
        <time>2025-06-17T11:48:15Z</time>
      </trkpt>
      <trkpt lat="43.29733" lon="3.51827">
        <ele>20.4</ele>
        <time>2025-06-17T11:48:16Z</time>
      </trkpt>
      <trkpt lat="43.29729" lon="3.51823">
        <ele>20.4</ele>
        <time>2025-06-17T11:48:17Z</time>
      </trkpt>
      <trkpt lat="43.29725" lon="3.51819">
        <ele>20.4</ele>
        <time>2025-06-17T11:48:18Z</time>
      </trkpt>
      <trkpt lat="43.29721" lon="3.51815">
        <ele>20.4</ele>
        <time>2025-06-17T11:48:19Z</time>
      </trkpt>
      <trkpt lat="43.29717" lon="3.51811">
        <ele>20.4</ele>
        <time>2025-06-17T11:48:20Z</time>
      </trkpt>
      <trkpt lat="43.29713" lon="3.51807">
        <ele>20.4</ele>
        <time>2025-06-17T11:48:21Z</time>
      </trkpt>
      <trkpt lat="43.29708" lon="3.51803">
        <ele>20.4</ele>
        <time>2025-06-17T11:48:22Z</time>
      </trkpt>
      <trkpt lat="43.29704" lon="3.51799">
        <ele>20.6</ele>
        <time>2025-06-17T11:48:23Z</time>
      </trkpt>
      <trkpt lat="43.29699" lon="3.51795">
        <ele>20.6</ele>
        <time>2025-06-17T11:48:24Z</time>
      </trkpt>
      <trkpt lat="43.29695" lon="3.51792">
        <ele>20.6</ele>
        <time>2025-06-17T11:48:25Z</time>
      </trkpt>
      <trkpt lat="43.2969" lon="3.51789">
        <ele>20.6</ele>
        <time>2025-06-17T11:48:26Z</time>
      </trkpt>
      <trkpt lat="43.29686" lon="3.51787">
        <ele>20.6</ele>
        <time>2025-06-17T11:48:27Z</time>
      </trkpt>
      <trkpt lat="43.29681" lon="3.51784">
        <ele>20.6</ele>
        <time>2025-06-17T11:48:28Z</time>
      </trkpt>
      <trkpt lat="43.29676" lon="3.51783">
        <ele>20.6</ele>
        <time>2025-06-17T11:48:29Z</time>
      </trkpt>
      <trkpt lat="43.29671" lon="3.51781">
        <ele>20.6</ele>
        <time>2025-06-17T11:48:30Z</time>
      </trkpt>
      <trkpt lat="43.29666" lon="3.51781">
        <ele>20.6</ele>
        <time>2025-06-17T11:48:31Z</time>
      </trkpt>
      <trkpt lat="43.29661" lon="3.5178">
        <ele>20.6</ele>
        <time>2025-06-17T11:48:32Z</time>
      </trkpt>
      <trkpt lat="43.29655" lon="3.5178">
        <ele>20.8</ele>
        <time>2025-06-17T11:48:33Z</time>
      </trkpt>
      <trkpt lat="43.2965" lon="3.5178">
        <ele>20.8</ele>
        <time>2025-06-17T11:48:34Z</time>
      </trkpt>
      <trkpt lat="43.29645" lon="3.5178">
        <ele>21</ele>
        <time>2025-06-17T11:48:35Z</time>
      </trkpt>
      <trkpt lat="43.2964" lon="3.5178">
        <ele>21</ele>
        <time>2025-06-17T11:48:36Z</time>
      </trkpt>
      <trkpt lat="43.29635" lon="3.5178">
        <ele>21.2</ele>
        <time>2025-06-17T11:48:37Z</time>
      </trkpt>
      <trkpt lat="43.29629" lon="3.5178">
        <ele>21.2</ele>
        <time>2025-06-17T11:48:38Z</time>
      </trkpt>
      <trkpt lat="43.29623" lon="3.51781">
        <ele>21.4</ele>
        <time>2025-06-17T11:48:39Z</time>
      </trkpt>
      <trkpt lat="43.29618" lon="3.51782">
        <ele>21.4</ele>
        <time>2025-06-17T11:48:40Z</time>
      </trkpt>
      <trkpt lat="43.29614" lon="3.51785">
        <ele>21.4</ele>
        <time>2025-06-17T11:48:41Z</time>
      </trkpt>
      <trkpt lat="43.29609" lon="3.51786">
        <ele>21.4</ele>
        <time>2025-06-17T11:48:42Z</time>
      </trkpt>
      <trkpt lat="43.29604" lon="3.51787">
        <ele>21.4</ele>
        <time>2025-06-17T11:48:43Z</time>
      </trkpt>
      <trkpt lat="43.296" lon="3.51787">
        <ele>21.6</ele>
        <time>2025-06-17T11:48:44Z</time>
      </trkpt>
      <trkpt lat="43.29596" lon="3.51785">
        <ele>21.6</ele>
        <time>2025-06-17T11:48:45Z</time>
      </trkpt>
      <trkpt lat="43.29592" lon="3.51783">
        <ele>21.6</ele>
        <time>2025-06-17T11:48:46Z</time>
      </trkpt>
      <trkpt lat="43.29589" lon="3.51779">
        <ele>21.6</ele>
        <time>2025-06-17T11:48:47Z</time>
      </trkpt>
      <trkpt lat="43.29586" lon="3.51775">
        <ele>21.6</ele>
        <time>2025-06-17T11:48:48Z</time>
      </trkpt>
      <trkpt lat="43.29583" lon="3.51772">
        <ele>21.6</ele>
        <time>2025-06-17T11:48:49Z</time>
      </trkpt>
      <trkpt lat="43.29579" lon="3.51769">
        <ele>21.6</ele>
        <time>2025-06-17T11:48:50Z</time>
      </trkpt>
      <trkpt lat="43.29575" lon="3.51767">
        <ele>21.6</ele>
        <time>2025-06-17T11:48:51Z</time>
      </trkpt>
      <trkpt lat="43.29571" lon="3.51765">
        <ele>21.6</ele>
        <time>2025-06-17T11:48:52Z</time>
      </trkpt>
      <trkpt lat="43.29567" lon="3.51764">
        <ele>21.6</ele>
        <time>2025-06-17T11:48:53Z</time>
      </trkpt>
      <trkpt lat="43.29563" lon="3.51763">
        <ele>21.6</ele>
        <time>2025-06-17T11:48:54Z</time>
      </trkpt>
      <trkpt lat="43.29557" lon="3.51761">
        <ele>21.6</ele>
        <time>2025-06-17T11:48:55Z</time>
      </trkpt>
      <trkpt lat="43.29552" lon="3.51759">
        <ele>21.6</ele>
        <time>2025-06-17T11:48:56Z</time>
      </trkpt>
      <trkpt lat="43.29547" lon="3.51757">
        <ele>21.6</ele>
        <time>2025-06-17T11:48:57Z</time>
      </trkpt>
      <trkpt lat="43.29543" lon="3.51755">
        <ele>21.6</ele>
        <time>2025-06-17T11:48:58Z</time>
      </trkpt>
      <trkpt lat="43.29538" lon="3.51753">
        <ele>21.8</ele>
        <time>2025-06-17T11:48:59Z</time>
      </trkpt>
      <trkpt lat="43.29533" lon="3.51751">
        <ele>21.8</ele>
        <time>2025-06-17T11:49:00Z</time>
      </trkpt>
      <trkpt lat="43.29529" lon="3.51748">
        <ele>21.8</ele>
        <time>2025-06-17T11:49:01Z</time>
      </trkpt>
      <trkpt lat="43.29524" lon="3.51745">
        <ele>22</ele>
        <time>2025-06-17T11:49:02Z</time>
      </trkpt>
      <trkpt lat="43.2952" lon="3.51741">
        <ele>22</ele>
        <time>2025-06-17T11:49:03Z</time>
      </trkpt>
      <trkpt lat="43.29515" lon="3.51738">
        <ele>22</ele>
        <time>2025-06-17T11:49:04Z</time>
      </trkpt>
      <trkpt lat="43.29511" lon="3.51735">
        <ele>22</ele>
        <time>2025-06-17T11:49:05Z</time>
      </trkpt>
      <trkpt lat="43.29506" lon="3.51732">
        <ele>22</ele>
        <time>2025-06-17T11:49:06Z</time>
      </trkpt>
      <trkpt lat="43.29502" lon="3.5173">
        <ele>22</ele>
        <time>2025-06-17T11:49:07Z</time>
      </trkpt>
      <trkpt lat="43.29497" lon="3.5173">
        <ele>22</ele>
        <time>2025-06-17T11:49:08Z</time>
      </trkpt>
      <trkpt lat="43.29492" lon="3.5173">
        <ele>22</ele>
        <time>2025-06-17T11:49:09Z</time>
      </trkpt>
      <trkpt lat="43.29487" lon="3.51729">
        <ele>22.2</ele>
        <time>2025-06-17T11:49:10Z</time>
      </trkpt>
      <trkpt lat="43.29482" lon="3.51729">
        <ele>22.2</ele>
        <time>2025-06-17T11:49:11Z</time>
      </trkpt>
      <trkpt lat="43.29477" lon="3.51727">
        <ele>22</ele>
        <time>2025-06-17T11:49:12Z</time>
      </trkpt>
      <trkpt lat="43.29472" lon="3.51725">
        <ele>22</ele>
        <time>2025-06-17T11:49:13Z</time>
      </trkpt>
      <trkpt lat="43.29467" lon="3.51722">
        <ele>22.2</ele>
        <time>2025-06-17T11:49:14Z</time>
      </trkpt>
      <trkpt lat="43.29462" lon="3.5172">
        <ele>22</ele>
        <time>2025-06-17T11:49:15Z</time>
      </trkpt>
      <trkpt lat="43.29456" lon="3.51717">
        <ele>22.2</ele>
        <time>2025-06-17T11:49:16Z</time>
      </trkpt>
      <trkpt lat="43.29451" lon="3.51713">
        <ele>22.2</ele>
        <time>2025-06-17T11:49:17Z</time>
      </trkpt>
      <trkpt lat="43.29447" lon="3.5171">
        <ele>22.2</ele>
        <time>2025-06-17T11:49:18Z</time>
      </trkpt>
      <trkpt lat="43.29442" lon="3.51707">
        <ele>22.2</ele>
        <time>2025-06-17T11:49:19Z</time>
      </trkpt>
      <trkpt lat="43.29437" lon="3.51705">
        <ele>22.2</ele>
        <time>2025-06-17T11:49:20Z</time>
      </trkpt>
      <trkpt lat="43.29432" lon="3.51703">
        <ele>22.4</ele>
        <time>2025-06-17T11:49:21Z</time>
      </trkpt>
      <trkpt lat="43.29427" lon="3.51702">
        <ele>22.6</ele>
        <time>2025-06-17T11:49:22Z</time>
      </trkpt>
      <trkpt lat="43.29422" lon="3.517">
        <ele>22.8</ele>
        <time>2025-06-17T11:49:23Z</time>
      </trkpt>
      <trkpt lat="43.29417" lon="3.51698">
        <ele>22.8</ele>
        <time>2025-06-17T11:49:24Z</time>
      </trkpt>
      <trkpt lat="43.29412" lon="3.51696">
        <ele>22.8</ele>
        <time>2025-06-17T11:49:25Z</time>
      </trkpt>
      <trkpt lat="43.29407" lon="3.51695">
        <ele>22.6</ele>
        <time>2025-06-17T11:49:26Z</time>
      </trkpt>
      <trkpt lat="43.29401" lon="3.51694">
        <ele>22.6</ele>
        <time>2025-06-17T11:49:27Z</time>
      </trkpt>
      <trkpt lat="43.29395" lon="3.51692">
        <ele>22.6</ele>
        <time>2025-06-17T11:49:28Z</time>
      </trkpt>
      <trkpt lat="43.29389" lon="3.51691">
        <ele>22.6</ele>
        <time>2025-06-17T11:49:29Z</time>
      </trkpt>
      <trkpt lat="43.29384" lon="3.51689">
        <ele>22.6</ele>
        <time>2025-06-17T11:49:30Z</time>
      </trkpt>
      <trkpt lat="43.29379" lon="3.51688">
        <ele>22.6</ele>
        <time>2025-06-17T11:49:31Z</time>
      </trkpt>
      <trkpt lat="43.29374" lon="3.51687">
        <ele>22.6</ele>
        <time>2025-06-17T11:49:32Z</time>
      </trkpt>
      <trkpt lat="43.29369" lon="3.51685">
        <ele>22.6</ele>
        <time>2025-06-17T11:49:33Z</time>
      </trkpt>
      <trkpt lat="43.29365" lon="3.51684">
        <ele>22.6</ele>
        <time>2025-06-17T11:49:34Z</time>
      </trkpt>
      <trkpt lat="43.2936" lon="3.51682">
        <ele>22.6</ele>
        <time>2025-06-17T11:49:35Z</time>
      </trkpt>
      <trkpt lat="43.29356" lon="3.51681">
        <ele>22.6</ele>
        <time>2025-06-17T11:49:36Z</time>
      </trkpt>
      <trkpt lat="43.29351" lon="3.51679">
        <ele>22.6</ele>
        <time>2025-06-17T11:49:37Z</time>
      </trkpt>
      <trkpt lat="43.29347" lon="3.51677">
        <ele>22.8</ele>
        <time>2025-06-17T11:49:38Z</time>
      </trkpt>
      <trkpt lat="43.29344" lon="3.51675">
        <ele>22.8</ele>
        <time>2025-06-17T11:49:39Z</time>
      </trkpt>
      <trkpt lat="43.2934" lon="3.51673">
        <ele>22.8</ele>
        <time>2025-06-17T11:49:40Z</time>
      </trkpt>
      <trkpt lat="43.29335" lon="3.5167">
        <ele>22.8</ele>
        <time>2025-06-17T11:49:41Z</time>
      </trkpt>
      <trkpt lat="43.29331" lon="3.51668">
        <ele>22.8</ele>
        <time>2025-06-17T11:49:42Z</time>
      </trkpt>
      <trkpt lat="43.29326" lon="3.51666">
        <ele>22.8</ele>
        <time>2025-06-17T11:49:43Z</time>
      </trkpt>
      <trkpt lat="43.29322" lon="3.51664">
        <ele>23</ele>
        <time>2025-06-17T11:49:44Z</time>
      </trkpt>
      <trkpt lat="43.29318" lon="3.51662">
        <ele>23</ele>
        <time>2025-06-17T11:49:45Z</time>
      </trkpt>
      <trkpt lat="43.29313" lon="3.5166">
        <ele>23</ele>
        <time>2025-06-17T11:49:46Z</time>
      </trkpt>
      <trkpt lat="43.29309" lon="3.51658">
        <ele>23</ele>
        <time>2025-06-17T11:49:47Z</time>
      </trkpt>
      <trkpt lat="43.29305" lon="3.51656">
        <ele>23.2</ele>
        <time>2025-06-17T11:49:48Z</time>
      </trkpt>
      <trkpt lat="43.293" lon="3.51653">
        <ele>23.2</ele>
        <time>2025-06-17T11:49:49Z</time>
      </trkpt>
      <trkpt lat="43.29296" lon="3.51651">
        <ele>23.2</ele>
        <time>2025-06-17T11:49:50Z</time>
      </trkpt>
      <trkpt lat="43.29291" lon="3.51648">
        <ele>23.2</ele>
        <time>2025-06-17T11:49:51Z</time>
      </trkpt>
      <trkpt lat="43.29286" lon="3.51645">
        <ele>23.2</ele>
        <time>2025-06-17T11:49:52Z</time>
      </trkpt>
      <trkpt lat="43.29281" lon="3.51642">
        <ele>23.4</ele>
        <time>2025-06-17T11:49:53Z</time>
      </trkpt>
      <trkpt lat="43.29277" lon="3.51639">
        <ele>23.4</ele>
        <time>2025-06-17T11:49:54Z</time>
      </trkpt>
      <trkpt lat="43.29272" lon="3.51636">
        <ele>23.4</ele>
        <time>2025-06-17T11:49:55Z</time>
      </trkpt>
      <trkpt lat="43.29268" lon="3.51633">
        <ele>23.4</ele>
        <time>2025-06-17T11:49:56Z</time>
      </trkpt>
      <trkpt lat="43.29263" lon="3.5163">
        <ele>23.6</ele>
        <time>2025-06-17T11:49:57Z</time>
      </trkpt>
      <trkpt lat="43.29259" lon="3.51627">
        <ele>23.6</ele>
        <time>2025-06-17T11:49:58Z</time>
      </trkpt>
      <trkpt lat="43.29253" lon="3.51624">
        <ele>23.6</ele>
        <time>2025-06-17T11:49:59Z</time>
      </trkpt>
      <trkpt lat="43.29248" lon="3.51621">
        <ele>23.6</ele>
        <time>2025-06-17T11:50:00Z</time>
      </trkpt>
      <trkpt lat="43.29244" lon="3.51618">
        <ele>23.8</ele>
        <time>2025-06-17T11:50:01Z</time>
      </trkpt>
      <trkpt lat="43.2924" lon="3.51615">
        <ele>23.8</ele>
        <time>2025-06-17T11:50:02Z</time>
      </trkpt>
      <trkpt lat="43.29235" lon="3.51611">
        <ele>23.8</ele>
        <time>2025-06-17T11:50:03Z</time>
      </trkpt>
      <trkpt lat="43.29231" lon="3.51608">
        <ele>24</ele>
        <time>2025-06-17T11:50:04Z</time>
      </trkpt>
      <trkpt lat="43.29227" lon="3.51605">
        <ele>24</ele>
        <time>2025-06-17T11:50:05Z</time>
      </trkpt>
      <trkpt lat="43.29223" lon="3.51602">
        <ele>24</ele>
        <time>2025-06-17T11:50:06Z</time>
      </trkpt>
      <trkpt lat="43.29218" lon="3.51599">
        <ele>24</ele>
        <time>2025-06-17T11:50:07Z</time>
      </trkpt>
      <trkpt lat="43.29214" lon="3.51596">
        <ele>24</ele>
        <time>2025-06-17T11:50:08Z</time>
      </trkpt>
      <trkpt lat="43.29209" lon="3.51593">
        <ele>24</ele>
        <time>2025-06-17T11:50:09Z</time>
      </trkpt>
      <trkpt lat="43.29205" lon="3.51589">
        <ele>24</ele>
        <time>2025-06-17T11:50:10Z</time>
      </trkpt>
      <trkpt lat="43.292" lon="3.51586">
        <ele>24</ele>
        <time>2025-06-17T11:50:11Z</time>
      </trkpt>
      <trkpt lat="43.29195" lon="3.51583">
        <ele>24</ele>
        <time>2025-06-17T11:50:12Z</time>
      </trkpt>
      <trkpt lat="43.29191" lon="3.5158">
        <ele>24</ele>
        <time>2025-06-17T11:50:13Z</time>
      </trkpt>
      <trkpt lat="43.29187" lon="3.51577">
        <ele>24</ele>
        <time>2025-06-17T11:50:14Z</time>
      </trkpt>
      <trkpt lat="43.29184" lon="3.51575">
        <ele>24</ele>
        <time>2025-06-17T11:50:15Z</time>
      </trkpt>
      <trkpt lat="43.2918" lon="3.51573">
        <ele>24.2</ele>
        <time>2025-06-17T11:50:16Z</time>
      </trkpt>
      <trkpt lat="43.29177" lon="3.5157">
        <ele>24.2</ele>
        <time>2025-06-17T11:50:17Z</time>
      </trkpt>
      <trkpt lat="43.29173" lon="3.51568">
        <ele>24.2</ele>
        <time>2025-06-17T11:50:18Z</time>
      </trkpt>
      <trkpt lat="43.2917" lon="3.51565">
        <ele>24.2</ele>
        <time>2025-06-17T11:50:19Z</time>
      </trkpt>
      <trkpt lat="43.29167" lon="3.51562">
        <ele>24.4</ele>
        <time>2025-06-17T11:50:20Z</time>
      </trkpt>
      <trkpt lat="43.29164" lon="3.51559">
        <ele>24.4</ele>
        <time>2025-06-17T11:50:21Z</time>
      </trkpt>
      <trkpt lat="43.29161" lon="3.51555">
        <ele>24.4</ele>
        <time>2025-06-17T11:50:22Z</time>
      </trkpt>
      <trkpt lat="43.29158" lon="3.51551">
        <ele>24.4</ele>
        <time>2025-06-17T11:50:23Z</time>
      </trkpt>
      <trkpt lat="43.29155" lon="3.51547">
        <ele>24.6</ele>
        <time>2025-06-17T11:50:24Z</time>
      </trkpt>
      <trkpt lat="43.29152" lon="3.51543">
        <ele>24.6</ele>
        <time>2025-06-17T11:50:25Z</time>
      </trkpt>
      <trkpt lat="43.29148" lon="3.51539">
        <ele>24.6</ele>
        <time>2025-06-17T11:50:26Z</time>
      </trkpt>
      <trkpt lat="43.29145" lon="3.51537">
        <ele>24.6</ele>
        <time>2025-06-17T11:50:27Z</time>
      </trkpt>
      <trkpt lat="43.29142" lon="3.51535">
        <ele>24.6</ele>
        <time>2025-06-17T11:50:28Z</time>
      </trkpt>
      <trkpt lat="43.29137" lon="3.51533">
        <ele>24.6</ele>
        <time>2025-06-17T11:50:29Z</time>
      </trkpt>
      <trkpt lat="43.29132" lon="3.51532">
        <ele>24.6</ele>
        <time>2025-06-17T11:50:30Z</time>
      </trkpt>
      <trkpt lat="43.29127" lon="3.51531">
        <ele>24.6</ele>
        <time>2025-06-17T11:50:31Z</time>
      </trkpt>
      <trkpt lat="43.29122" lon="3.51532">
        <ele>24.6</ele>
        <time>2025-06-17T11:50:32Z</time>
      </trkpt>
      <trkpt lat="43.29118" lon="3.51533">
        <ele>24.8</ele>
        <time>2025-06-17T11:50:33Z</time>
      </trkpt>
      <trkpt lat="43.29114" lon="3.51535">
        <ele>24.8</ele>
        <time>2025-06-17T11:50:34Z</time>
      </trkpt>
      <trkpt lat="43.2911" lon="3.51536">
        <ele>24.8</ele>
        <time>2025-06-17T11:50:35Z</time>
      </trkpt>
      <trkpt lat="43.29106" lon="3.51537">
        <ele>25</ele>
        <time>2025-06-17T11:50:36Z</time>
      </trkpt>
      <trkpt lat="43.29103" lon="3.51537">
        <ele>25</ele>
        <time>2025-06-17T11:50:37Z</time>
      </trkpt>
      <trkpt lat="43.29099" lon="3.51537">
        <ele>25.2</ele>
        <time>2025-06-17T11:50:38Z</time>
      </trkpt>
      <trkpt lat="43.29096" lon="3.51537">
        <ele>25.2</ele>
        <time>2025-06-17T11:50:39Z</time>
      </trkpt>
      <trkpt lat="43.29092" lon="3.51537">
        <ele>25.2</ele>
        <time>2025-06-17T11:50:40Z</time>
      </trkpt>
      <trkpt lat="43.29088" lon="3.51535">
        <ele>25.2</ele>
        <time>2025-06-17T11:50:41Z</time>
      </trkpt>
      <trkpt lat="43.29084" lon="3.51533">
        <ele>25.2</ele>
        <time>2025-06-17T11:50:42Z</time>
      </trkpt>
      <trkpt lat="43.2908" lon="3.5153">
        <ele>25.2</ele>
        <time>2025-06-17T11:50:43Z</time>
      </trkpt>
      <trkpt lat="43.29076" lon="3.51526">
        <ele>25.2</ele>
        <time>2025-06-17T11:50:44Z</time>
      </trkpt>
      <trkpt lat="43.29073" lon="3.51521">
        <ele>25.2</ele>
        <time>2025-06-17T11:50:45Z</time>
      </trkpt>
      <trkpt lat="43.29071" lon="3.51514">
        <ele>25.2</ele>
        <time>2025-06-17T11:50:46Z</time>
      </trkpt>
      <trkpt lat="43.29069" lon="3.51509">
        <ele>25.2</ele>
        <time>2025-06-17T11:50:47Z</time>
      </trkpt>
      <trkpt lat="43.29066" lon="3.51506">
        <ele>25.2</ele>
        <time>2025-06-17T11:50:48Z</time>
      </trkpt>
      <trkpt lat="43.29063" lon="3.51504">
        <ele>25.2</ele>
        <time>2025-06-17T11:50:49Z</time>
      </trkpt>
      <trkpt lat="43.29059" lon="3.51503">
        <ele>25.2</ele>
        <time>2025-06-17T11:50:50Z</time>
      </trkpt>
      <trkpt lat="43.29056" lon="3.51503">
        <ele>25.4</ele>
        <time>2025-06-17T11:50:51Z</time>
      </trkpt>
      <trkpt lat="43.29053" lon="3.51504">
        <ele>25.4</ele>
        <time>2025-06-17T11:50:52Z</time>
      </trkpt>
      <trkpt lat="43.29051" lon="3.51504">
        <ele>25.6</ele>
        <time>2025-06-17T11:50:53Z</time>
      </trkpt>
      <trkpt lat="43.29045" lon="3.51496">
        <ele>26</ele>
        <time>2025-06-17T11:51:00Z</time>
      </trkpt>
      <trkpt lat="43.29045" lon="3.51492">
        <ele>26</ele>
        <time>2025-06-17T11:51:01Z</time>
      </trkpt>
      <trkpt lat="43.29045" lon="3.51489">
        <ele>26</ele>
        <time>2025-06-17T11:51:02Z</time>
      </trkpt>
      <trkpt lat="43.29045" lon="3.51486">
        <ele>26</ele>
        <time>2025-06-17T11:51:03Z</time>
      </trkpt>
      <trkpt lat="43.29046" lon="3.51483">
        <ele>26</ele>
        <time>2025-06-17T11:51:04Z</time>
      </trkpt>
      <trkpt lat="43.29048" lon="3.51479">
        <ele>26</ele>
        <time>2025-06-17T11:51:05Z</time>
      </trkpt>
      <trkpt lat="43.2905" lon="3.51475">
        <ele>26</ele>
        <time>2025-06-17T11:51:06Z</time>
      </trkpt>
      <trkpt lat="43.29051" lon="3.5147">
        <ele>26</ele>
        <time>2025-06-17T11:51:07Z</time>
      </trkpt>
      <trkpt lat="43.29051" lon="3.51464">
        <ele>26</ele>
        <time>2025-06-17T11:51:08Z</time>
      </trkpt>
      <trkpt lat="43.2905" lon="3.51458">
        <ele>26.2</ele>
        <time>2025-06-17T11:51:09Z</time>
      </trkpt>
      <trkpt lat="43.2905" lon="3.51452">
        <ele>26.2</ele>
        <time>2025-06-17T11:51:10Z</time>
      </trkpt>
      <trkpt lat="43.29049" lon="3.51446">
        <ele>26.2</ele>
        <time>2025-06-17T11:51:11Z</time>
      </trkpt>
      <trkpt lat="43.29048" lon="3.5144">
        <ele>26.2</ele>
        <time>2025-06-17T11:51:12Z</time>
      </trkpt>
      <trkpt lat="43.29046" lon="3.51434">
        <ele>26.2</ele>
        <time>2025-06-17T11:51:13Z</time>
      </trkpt>
      <trkpt lat="43.29045" lon="3.51428">
        <ele>26.2</ele>
        <time>2025-06-17T11:51:14Z</time>
      </trkpt>
      <trkpt lat="43.29043" lon="3.51421">
        <ele>26.2</ele>
        <time>2025-06-17T11:51:15Z</time>
      </trkpt>
      <trkpt lat="43.29042" lon="3.51415">
        <ele>26.2</ele>
        <time>2025-06-17T11:51:16Z</time>
      </trkpt>
      <trkpt lat="43.29041" lon="3.51409">
        <ele>26.2</ele>
        <time>2025-06-17T11:51:17Z</time>
      </trkpt>
      <trkpt lat="43.29039" lon="3.51404">
        <ele>26.2</ele>
        <time>2025-06-17T11:51:18Z</time>
      </trkpt>
      <trkpt lat="43.29038" lon="3.51398">
        <ele>26.4</ele>
        <time>2025-06-17T11:51:19Z</time>
      </trkpt>
      <trkpt lat="43.29036" lon="3.51392">
        <ele>26.4</ele>
        <time>2025-06-17T11:51:20Z</time>
      </trkpt>
      <trkpt lat="43.29035" lon="3.51387">
        <ele>26.4</ele>
        <time>2025-06-17T11:51:21Z</time>
      </trkpt>
      <trkpt lat="43.29034" lon="3.51381">
        <ele>26.6</ele>
        <time>2025-06-17T11:51:22Z</time>
      </trkpt>
      <trkpt lat="43.29032" lon="3.51375">
        <ele>26.6</ele>
        <time>2025-06-17T11:51:23Z</time>
      </trkpt>
      <trkpt lat="43.29031" lon="3.51369">
        <ele>26.6</ele>
        <time>2025-06-17T11:51:24Z</time>
      </trkpt>
      <trkpt lat="43.2903" lon="3.51364">
        <ele>26.6</ele>
        <time>2025-06-17T11:51:25Z</time>
      </trkpt>
      <trkpt lat="43.29029" lon="3.51358">
        <ele>26.6</ele>
        <time>2025-06-17T11:51:26Z</time>
      </trkpt>
      <trkpt lat="43.29027" lon="3.51353">
        <ele>26.6</ele>
        <time>2025-06-17T11:51:27Z</time>
      </trkpt>
      <trkpt lat="43.29026" lon="3.51348">
        <ele>26.6</ele>
        <time>2025-06-17T11:51:28Z</time>
      </trkpt>
      <trkpt lat="43.29024" lon="3.51343">
        <ele>26.8</ele>
        <time>2025-06-17T11:51:29Z</time>
      </trkpt>
      <trkpt lat="43.29022" lon="3.51337">
        <ele>26.8</ele>
        <time>2025-06-17T11:51:30Z</time>
      </trkpt>
      <trkpt lat="43.29021" lon="3.51332">
        <ele>26.8</ele>
        <time>2025-06-17T11:51:31Z</time>
      </trkpt>
      <trkpt lat="43.2902" lon="3.51326">
        <ele>27</ele>
        <time>2025-06-17T11:51:32Z</time>
      </trkpt>
      <trkpt lat="43.29019" lon="3.5132">
        <ele>27</ele>
        <time>2025-06-17T11:51:33Z</time>
      </trkpt>
      <trkpt lat="43.29018" lon="3.51315">
        <ele>27</ele>
        <time>2025-06-17T11:51:34Z</time>
      </trkpt>
      <trkpt lat="43.29016" lon="3.51309">
        <ele>27</ele>
        <time>2025-06-17T11:51:35Z</time>
      </trkpt>
      <trkpt lat="43.29015" lon="3.51304">
        <ele>27</ele>
        <time>2025-06-17T11:51:36Z</time>
      </trkpt>
      <trkpt lat="43.29013" lon="3.51299">
        <ele>27.2</ele>
        <time>2025-06-17T11:51:37Z</time>
      </trkpt>
      <trkpt lat="43.29011" lon="3.51294">
        <ele>27.2</ele>
        <time>2025-06-17T11:51:38Z</time>
      </trkpt>
      <trkpt lat="43.29009" lon="3.51288">
        <ele>27.4</ele>
        <time>2025-06-17T11:51:39Z</time>
      </trkpt>
      <trkpt lat="43.29007" lon="3.51282">
        <ele>27.4</ele>
        <time>2025-06-17T11:51:40Z</time>
      </trkpt>
      <trkpt lat="43.29005" lon="3.51276">
        <ele>27.4</ele>
        <time>2025-06-17T11:51:41Z</time>
      </trkpt>
      <trkpt lat="43.29003" lon="3.5127">
        <ele>27.6</ele>
        <time>2025-06-17T11:51:42Z</time>
      </trkpt>
      <trkpt lat="43.29001" lon="3.51263">
        <ele>27.6</ele>
        <time>2025-06-17T11:51:43Z</time>
      </trkpt>
      <trkpt lat="43.29" lon="3.51257">
        <ele>27.6</ele>
        <time>2025-06-17T11:51:44Z</time>
      </trkpt>
      <trkpt lat="43.28998" lon="3.51251">
        <ele>27.6</ele>
        <time>2025-06-17T11:51:45Z</time>
      </trkpt>
      <trkpt lat="43.28996" lon="3.51244">
        <ele>27.6</ele>
        <time>2025-06-17T11:51:46Z</time>
      </trkpt>
      <trkpt lat="43.28994" lon="3.51238">
        <ele>27.6</ele>
        <time>2025-06-17T11:51:47Z</time>
      </trkpt>
      <trkpt lat="43.28992" lon="3.51232">
        <ele>27.8</ele>
        <time>2025-06-17T11:51:48Z</time>
      </trkpt>
      <trkpt lat="43.2899" lon="3.51225">
        <ele>27.8</ele>
        <time>2025-06-17T11:51:49Z</time>
      </trkpt>
      <trkpt lat="43.28988" lon="3.51219">
        <ele>28</ele>
        <time>2025-06-17T11:51:50Z</time>
      </trkpt>
      <trkpt lat="43.28986" lon="3.51213">
        <ele>28</ele>
        <time>2025-06-17T11:51:51Z</time>
      </trkpt>
      <trkpt lat="43.28984" lon="3.51207">
        <ele>28</ele>
        <time>2025-06-17T11:51:52Z</time>
      </trkpt>
      <trkpt lat="43.28982" lon="3.51201">
        <ele>28.2</ele>
        <time>2025-06-17T11:51:53Z</time>
      </trkpt>
      <trkpt lat="43.2898" lon="3.51195">
        <ele>28.2</ele>
        <time>2025-06-17T11:51:54Z</time>
      </trkpt>
      <trkpt lat="43.28977" lon="3.51189">
        <ele>28.2</ele>
        <time>2025-06-17T11:51:55Z</time>
      </trkpt>
      <trkpt lat="43.28975" lon="3.51183">
        <ele>28.2</ele>
        <time>2025-06-17T11:51:56Z</time>
      </trkpt>
      <trkpt lat="43.28973" lon="3.51177">
        <ele>28.2</ele>
        <time>2025-06-17T11:51:57Z</time>
      </trkpt>
      <trkpt lat="43.28971" lon="3.51171">
        <ele>28.2</ele>
        <time>2025-06-17T11:51:58Z</time>
      </trkpt>
      <trkpt lat="43.28968" lon="3.51165">
        <ele>28.4</ele>
        <time>2025-06-17T11:51:59Z</time>
      </trkpt>
      <trkpt lat="43.28965" lon="3.51159">
        <ele>28.4</ele>
        <time>2025-06-17T11:52:00Z</time>
      </trkpt>
      <trkpt lat="43.28963" lon="3.51153">
        <ele>28.4</ele>
        <time>2025-06-17T11:52:01Z</time>
      </trkpt>
      <trkpt lat="43.28961" lon="3.51147">
        <ele>28.4</ele>
        <time>2025-06-17T11:52:02Z</time>
      </trkpt>
      <trkpt lat="43.28958" lon="3.51141">
        <ele>28.4</ele>
        <time>2025-06-17T11:52:03Z</time>
      </trkpt>
      <trkpt lat="43.28956" lon="3.51136">
        <ele>28.6</ele>
        <time>2025-06-17T11:52:04Z</time>
      </trkpt>
      <trkpt lat="43.28954" lon="3.51131">
        <ele>28.6</ele>
        <time>2025-06-17T11:52:05Z</time>
      </trkpt>
      <trkpt lat="43.28952" lon="3.51126">
        <ele>28.6</ele>
        <time>2025-06-17T11:52:06Z</time>
      </trkpt>
      <trkpt lat="43.2895" lon="3.51121">
        <ele>28.8</ele>
        <time>2025-06-17T11:52:07Z</time>
      </trkpt>
      <trkpt lat="43.28948" lon="3.51116">
        <ele>28.8</ele>
        <time>2025-06-17T11:52:08Z</time>
      </trkpt>
      <trkpt lat="43.28946" lon="3.51111">
        <ele>28.8</ele>
        <time>2025-06-17T11:52:09Z</time>
      </trkpt>
      <trkpt lat="43.28944" lon="3.51106">
        <ele>28.8</ele>
        <time>2025-06-17T11:52:10Z</time>
      </trkpt>
      <trkpt lat="43.28942" lon="3.51101">
        <ele>29</ele>
        <time>2025-06-17T11:52:11Z</time>
      </trkpt>
      <trkpt lat="43.28939" lon="3.51096">
        <ele>29</ele>
        <time>2025-06-17T11:52:12Z</time>
      </trkpt>
      <trkpt lat="43.28937" lon="3.51091">
        <ele>29</ele>
        <time>2025-06-17T11:52:13Z</time>
      </trkpt>
      <trkpt lat="43.28935" lon="3.51086">
        <ele>29.2</ele>
        <time>2025-06-17T11:52:14Z</time>
      </trkpt>
      <trkpt lat="43.28932" lon="3.51081">
        <ele>29.2</ele>
        <time>2025-06-17T11:52:15Z</time>
      </trkpt>
      <trkpt lat="43.2893" lon="3.51076">
        <ele>29.2</ele>
        <time>2025-06-17T11:52:16Z</time>
      </trkpt>
      <trkpt lat="43.28927" lon="3.51071">
        <ele>29.2</ele>
        <time>2025-06-17T11:52:17Z</time>
      </trkpt>
      <trkpt lat="43.28924" lon="3.51066">
        <ele>29.2</ele>
        <time>2025-06-17T11:52:18Z</time>
      </trkpt>
      <trkpt lat="43.28921" lon="3.51062">
        <ele>29</ele>
        <time>2025-06-17T11:52:19Z</time>
      </trkpt>
      <trkpt lat="43.28917" lon="3.51059">
        <ele>29</ele>
        <time>2025-06-17T11:52:20Z</time>
      </trkpt>
      <trkpt lat="43.28912" lon="3.51057">
        <ele>29</ele>
        <time>2025-06-17T11:52:21Z</time>
      </trkpt>
      <trkpt lat="43.28909" lon="3.51056">
        <ele>29</ele>
        <time>2025-06-17T11:52:22Z</time>
      </trkpt>
      <trkpt lat="43.28904" lon="3.51057">
        <ele>29</ele>
        <time>2025-06-17T11:52:23Z</time>
      </trkpt>
      <trkpt lat="43.289" lon="3.5106">
        <ele>28.8</ele>
        <time>2025-06-17T11:52:24Z</time>
      </trkpt>
      <trkpt lat="43.28896" lon="3.51064">
        <ele>28.6</ele>
        <time>2025-06-17T11:52:25Z</time>
      </trkpt>
      <trkpt lat="43.28894" lon="3.51068">
        <ele>28.6</ele>
        <time>2025-06-17T11:52:26Z</time>
      </trkpt>
      <trkpt lat="43.28892" lon="3.51072">
        <ele>28.6</ele>
        <time>2025-06-17T11:52:27Z</time>
      </trkpt>
      <trkpt lat="43.2889" lon="3.51075">
        <ele>28.6</ele>
        <time>2025-06-17T11:52:28Z</time>
      </trkpt>
      <trkpt lat="43.28889" lon="3.51077">
        <ele>28.6</ele>
        <time>2025-06-17T11:52:29Z</time>
      </trkpt>
      <trkpt lat="43.28887" lon="3.51079">
        <ele>28.4</ele>
        <time>2025-06-17T11:52:30Z</time>
      </trkpt>
      <trkpt lat="43.28886" lon="3.51081">
        <ele>28.4</ele>
        <time>2025-06-17T11:52:31Z</time>
      </trkpt>
      <trkpt lat="43.28884" lon="3.51082">
        <ele>28.4</ele>
        <time>2025-06-17T11:52:32Z</time>
      </trkpt>
      <trkpt lat="43.28882" lon="3.51082">
        <ele>28.4</ele>
        <time>2025-06-17T11:52:33Z</time>
      </trkpt>
      <trkpt lat="43.2888" lon="3.51081">
        <ele>28.4</ele>
        <time>2025-06-17T11:52:34Z</time>
      </trkpt>
      <trkpt lat="43.28878" lon="3.51079">
        <ele>28.4</ele>
        <time>2025-06-17T11:52:35Z</time>
      </trkpt>
      <trkpt lat="43.28876" lon="3.51077">
        <ele>28.4</ele>
        <time>2025-06-17T11:52:36Z</time>
      </trkpt>
      <trkpt lat="43.28874" lon="3.51074">
        <ele>28.4</ele>
        <time>2025-06-17T11:52:37Z</time>
      </trkpt>
      <trkpt lat="43.28871" lon="3.51072">
        <ele>28.4</ele>
        <time>2025-06-17T11:52:38Z</time>
      </trkpt>
      <trkpt lat="43.28869" lon="3.51072">
        <ele>28.4</ele>
        <time>2025-06-17T11:52:39Z</time>
      </trkpt>
      <trkpt lat="43.28866" lon="3.51074">
        <ele>28.4</ele>
        <time>2025-06-17T11:52:40Z</time>
      </trkpt>
      <trkpt lat="43.28864" lon="3.51078">
        <ele>28.2</ele>
        <time>2025-06-17T11:52:41Z</time>
      </trkpt>
      <trkpt lat="43.28861" lon="3.51082">
        <ele>28.2</ele>
        <time>2025-06-17T11:52:42Z</time>
      </trkpt>
      <trkpt lat="43.28857" lon="3.51086">
        <ele>28</ele>
        <time>2025-06-17T11:52:43Z</time>
      </trkpt>
      <trkpt lat="43.28853" lon="3.51091">
        <ele>28</ele>
        <time>2025-06-17T11:52:44Z</time>
      </trkpt>
      <trkpt lat="43.28849" lon="3.51095">
        <ele>27.8</ele>
        <time>2025-06-17T11:52:45Z</time>
      </trkpt>
      <trkpt lat="43.28844" lon="3.51099">
        <ele>27.8</ele>
        <time>2025-06-17T11:52:46Z</time>
      </trkpt>
      <trkpt lat="43.28839" lon="3.51102">
        <ele>27.6</ele>
        <time>2025-06-17T11:52:47Z</time>
      </trkpt>
      <trkpt lat="43.28833" lon="3.51106">
        <ele>27.4</ele>
        <time>2025-06-17T11:52:48Z</time>
      </trkpt>
      <trkpt lat="43.28828" lon="3.51109">
        <ele>27.4</ele>
        <time>2025-06-17T11:52:49Z</time>
      </trkpt>
      <trkpt lat="43.28822" lon="3.51111">
        <ele>27.4</ele>
        <time>2025-06-17T11:52:50Z</time>
      </trkpt>
      <trkpt lat="43.28815" lon="3.51112">
        <ele>27.2</ele>
        <time>2025-06-17T11:52:51Z</time>
      </trkpt>
      <trkpt lat="43.28809" lon="3.51114">
        <ele>27.2</ele>
        <time>2025-06-17T11:52:52Z</time>
      </trkpt>
      <trkpt lat="43.28802" lon="3.51116">
        <ele>27</ele>
        <time>2025-06-17T11:52:53Z</time>
      </trkpt>
      <trkpt lat="43.28796" lon="3.51118">
        <ele>27</ele>
        <time>2025-06-17T11:52:54Z</time>
      </trkpt>
      <trkpt lat="43.28789" lon="3.5112">
        <ele>26.8</ele>
        <time>2025-06-17T11:52:55Z</time>
      </trkpt>
      <trkpt lat="43.28783" lon="3.51122">
        <ele>26.8</ele>
        <time>2025-06-17T11:52:56Z</time>
      </trkpt>
      <trkpt lat="43.28776" lon="3.51124">
        <ele>26.6</ele>
        <time>2025-06-17T11:52:57Z</time>
      </trkpt>
      <trkpt lat="43.28769" lon="3.51126">
        <ele>26.6</ele>
        <time>2025-06-17T11:52:58Z</time>
      </trkpt>
      <trkpt lat="43.28763" lon="3.51128">
        <ele>26.6</ele>
        <time>2025-06-17T11:52:59Z</time>
      </trkpt>
      <trkpt lat="43.28756" lon="3.51131">
        <ele>26.6</ele>
        <time>2025-06-17T11:53:00Z</time>
      </trkpt>
      <trkpt lat="43.2875" lon="3.51133">
        <ele>26.6</ele>
        <time>2025-06-17T11:53:01Z</time>
      </trkpt>
      <trkpt lat="43.28743" lon="3.51137">
        <ele>26.4</ele>
        <time>2025-06-17T11:53:02Z</time>
      </trkpt>
      <trkpt lat="43.28737" lon="3.51141">
        <ele>26.2</ele>
        <time>2025-06-17T11:53:03Z</time>
      </trkpt>
      <trkpt lat="43.28731" lon="3.51146">
        <ele>26.2</ele>
        <time>2025-06-17T11:53:04Z</time>
      </trkpt>
      <trkpt lat="43.28725" lon="3.51151">
        <ele>26</ele>
        <time>2025-06-17T11:53:05Z</time>
      </trkpt>
      <trkpt lat="43.28719" lon="3.51155">
        <ele>26</ele>
        <time>2025-06-17T11:53:06Z</time>
      </trkpt>
      <trkpt lat="43.28713" lon="3.5116">
        <ele>26</ele>
        <time>2025-06-17T11:53:07Z</time>
      </trkpt>
      <trkpt lat="43.28708" lon="3.51166">
        <ele>25.8</ele>
        <time>2025-06-17T11:53:08Z</time>
      </trkpt>
      <trkpt lat="43.28703" lon="3.51172">
        <ele>25.6</ele>
        <time>2025-06-17T11:53:09Z</time>
      </trkpt>
      <trkpt lat="43.28699" lon="3.51179">
        <ele>25.6</ele>
        <time>2025-06-17T11:53:10Z</time>
      </trkpt>
      <trkpt lat="43.28695" lon="3.51185">
        <ele>25.4</ele>
        <time>2025-06-17T11:53:11Z</time>
      </trkpt>
      <trkpt lat="43.28691" lon="3.51191">
        <ele>25.4</ele>
        <time>2025-06-17T11:53:12Z</time>
      </trkpt>
      <trkpt lat="43.28688" lon="3.51195">
        <ele>25.4</ele>
        <time>2025-06-17T11:53:13Z</time>
      </trkpt>
      <trkpt lat="43.28685" lon="3.51198">
        <ele>25.4</ele>
        <time>2025-06-17T11:53:14Z</time>
      </trkpt>
      <trkpt lat="43.28682" lon="3.51199">
        <ele>25.4</ele>
        <time>2025-06-17T11:53:15Z</time>
      </trkpt>
      <trkpt lat="43.2868" lon="3.51198">
        <ele>25.4</ele>
        <time>2025-06-17T11:53:16Z</time>
      </trkpt>
      <trkpt lat="43.28679" lon="3.51197">
        <ele>25.4</ele>
        <time>2025-06-17T11:53:17Z</time>
      </trkpt>
      <trkpt lat="43.28678" lon="3.51196">
        <ele>25.4</ele>
        <time>2025-06-17T11:53:18Z</time>
      </trkpt>
      <trkpt lat="43.28676" lon="3.51196">
        <ele>25.4</ele>
        <time>2025-06-17T11:53:19Z</time>
      </trkpt>
      <trkpt lat="43.28675" lon="3.51196">
        <ele>25.4</ele>
        <time>2025-06-17T11:53:20Z</time>
      </trkpt>
      <trkpt lat="43.28674" lon="3.51198">
        <ele>25.4</ele>
        <time>2025-06-17T11:53:21Z</time>
      </trkpt>
      <trkpt lat="43.28674" lon="3.51201">
        <ele>25.4</ele>
        <time>2025-06-17T11:53:22Z</time>
      </trkpt>
      <trkpt lat="43.28673" lon="3.51204">
        <ele>25.4</ele>
        <time>2025-06-17T11:53:23Z</time>
      </trkpt>
      <trkpt lat="43.28672" lon="3.51207">
        <ele>25.2</ele>
        <time>2025-06-17T11:53:24Z</time>
      </trkpt>
      <trkpt lat="43.2867" lon="3.51211">
        <ele>25.2</ele>
        <time>2025-06-17T11:53:25Z</time>
      </trkpt>
      <trkpt lat="43.28668" lon="3.51215">
        <ele>25.2</ele>
        <time>2025-06-17T11:53:26Z</time>
      </trkpt>
      <trkpt lat="43.28666" lon="3.5122">
        <ele>25</ele>
        <time>2025-06-17T11:53:27Z</time>
      </trkpt>
      <trkpt lat="43.28663" lon="3.51225">
        <ele>24.8</ele>
        <time>2025-06-17T11:53:28Z</time>
      </trkpt>
      <trkpt lat="43.2866" lon="3.51231">
        <ele>24.6</ele>
        <time>2025-06-17T11:53:29Z</time>
      </trkpt>
      <trkpt lat="43.28657" lon="3.51236">
        <ele>24.6</ele>
        <time>2025-06-17T11:53:30Z</time>
      </trkpt>
      <trkpt lat="43.28653" lon="3.51242">
        <ele>24.4</ele>
        <time>2025-06-17T11:53:31Z</time>
      </trkpt>
      <trkpt lat="43.2865" lon="3.51248">
        <ele>24.4</ele>
        <time>2025-06-17T11:53:32Z</time>
      </trkpt>
      <trkpt lat="43.28647" lon="3.51254">
        <ele>24.2</ele>
        <time>2025-06-17T11:53:33Z</time>
      </trkpt>
      <trkpt lat="43.28643" lon="3.51259">
        <ele>24.2</ele>
        <time>2025-06-17T11:53:34Z</time>
      </trkpt>
      <trkpt lat="43.2864" lon="3.51265">
        <ele>24</ele>
        <time>2025-06-17T11:53:35Z</time>
      </trkpt>
      <trkpt lat="43.28636" lon="3.5127">
        <ele>23.8</ele>
        <time>2025-06-17T11:53:36Z</time>
      </trkpt>
      <trkpt lat="43.28633" lon="3.51275">
        <ele>23.8</ele>
        <time>2025-06-17T11:53:37Z</time>
      </trkpt>
      <trkpt lat="43.2863" lon="3.5128">
        <ele>23.6</ele>
        <time>2025-06-17T11:53:38Z</time>
      </trkpt>
      <trkpt lat="43.28626" lon="3.51285">
        <ele>23.6</ele>
        <time>2025-06-17T11:53:39Z</time>
      </trkpt>
      <trkpt lat="43.28622" lon="3.5129">
        <ele>23.6</ele>
        <time>2025-06-17T11:53:40Z</time>
      </trkpt>
      <trkpt lat="43.28618" lon="3.51294">
        <ele>23.2</ele>
        <time>2025-06-17T11:53:41Z</time>
      </trkpt>
      <trkpt lat="43.28613" lon="3.51298">
        <ele>23</ele>
        <time>2025-06-17T11:53:42Z</time>
      </trkpt>
      <trkpt lat="43.28608" lon="3.51301">
        <ele>23</ele>
        <time>2025-06-17T11:53:43Z</time>
      </trkpt>
      <trkpt lat="43.28604" lon="3.51304">
        <ele>22.8</ele>
        <time>2025-06-17T11:53:44Z</time>
      </trkpt>
      <trkpt lat="43.28599" lon="3.51307">
        <ele>22.6</ele>
        <time>2025-06-17T11:53:45Z</time>
      </trkpt>
      <trkpt lat="43.28594" lon="3.51309">
        <ele>22.4</ele>
        <time>2025-06-17T11:53:46Z</time>
      </trkpt>
      <trkpt lat="43.28589" lon="3.51311">
        <ele>22.2</ele>
        <time>2025-06-17T11:53:47Z</time>
      </trkpt>
      <trkpt lat="43.28583" lon="3.51313">
        <ele>22.2</ele>
        <time>2025-06-17T11:53:48Z</time>
      </trkpt>
      <trkpt lat="43.28578" lon="3.51312">
        <ele>22</ele>
        <time>2025-06-17T11:53:49Z</time>
      </trkpt>
      <trkpt lat="43.28574" lon="3.5131">
        <ele>22</ele>
        <time>2025-06-17T11:53:50Z</time>
      </trkpt>
      <trkpt lat="43.28571" lon="3.51305">
        <ele>21.8</ele>
        <time>2025-06-17T11:53:51Z</time>
      </trkpt>
      <trkpt lat="43.2857" lon="3.513">
        <ele>21.6</ele>
        <time>2025-06-17T11:53:52Z</time>
      </trkpt>
      <trkpt lat="43.2857" lon="3.51295">
        <ele>21.6</ele>
        <time>2025-06-17T11:53:53Z</time>
      </trkpt>
      <trkpt lat="43.28571" lon="3.5129">
        <ele>21.4</ele>
        <time>2025-06-17T11:53:54Z</time>
      </trkpt>
      <trkpt lat="43.28573" lon="3.51285">
        <ele>21.2</ele>
        <time>2025-06-17T11:53:55Z</time>
      </trkpt>
      <trkpt lat="43.28576" lon="3.51281">
        <ele>21.2</ele>
        <time>2025-06-17T11:53:56Z</time>
      </trkpt>
      <trkpt lat="43.28578" lon="3.51277">
        <ele>21.2</ele>
        <time>2025-06-17T11:53:57Z</time>
      </trkpt>
      <trkpt lat="43.2858" lon="3.51274">
        <ele>21.2</ele>
        <time>2025-06-17T11:53:58Z</time>
      </trkpt>
      <trkpt lat="43.28583" lon="3.51273">
        <ele>21.2</ele>
        <time>2025-06-17T11:53:59Z</time>
      </trkpt>
      <trkpt lat="43.28585" lon="3.51272">
        <ele>21.2</ele>
        <time>2025-06-17T11:54:00Z</time>
      </trkpt>
      <trkpt lat="43.28586" lon="3.51271">
        <ele>21.2</ele>
        <time>2025-06-17T11:54:01Z</time>
      </trkpt>
      <trkpt lat="43.28587" lon="3.51269">
        <ele>21</ele>
        <time>2025-06-17T11:54:02Z</time>
      </trkpt>
      <trkpt lat="43.28587" lon="3.51267">
        <ele>21</ele>
        <time>2025-06-17T11:54:03Z</time>
      </trkpt>
      <trkpt lat="43.28588" lon="3.51265">
        <ele>21</ele>
        <time>2025-06-17T11:54:04Z</time>
      </trkpt>
      <trkpt lat="43.28589" lon="3.51262">
        <ele>21</ele>
        <time>2025-06-17T11:54:05Z</time>
      </trkpt>
      <trkpt lat="43.2859" lon="3.51258">
        <ele>21</ele>
        <time>2025-06-17T11:54:06Z</time>
      </trkpt>
      <trkpt lat="43.28591" lon="3.51253">
        <ele>21</ele>
        <time>2025-06-17T11:54:07Z</time>
      </trkpt>
      <trkpt lat="43.28593" lon="3.51248">
        <ele>21</ele>
        <time>2025-06-17T11:54:08Z</time>
      </trkpt>
      <trkpt lat="43.28596" lon="3.51241">
        <ele>21</ele>
        <time>2025-06-17T11:54:09Z</time>
      </trkpt>
      <trkpt lat="43.28598" lon="3.51235">
        <ele>21</ele>
        <time>2025-06-17T11:54:10Z</time>
      </trkpt>
      <trkpt lat="43.28601" lon="3.51228">
        <ele>20.8</ele>
        <time>2025-06-17T11:54:11Z</time>
      </trkpt>
      <trkpt lat="43.28604" lon="3.51222">
        <ele>20.8</ele>
        <time>2025-06-17T11:54:12Z</time>
      </trkpt>
      <trkpt lat="43.28607" lon="3.51215">
        <ele>20.8</ele>
        <time>2025-06-17T11:54:13Z</time>
      </trkpt>
      <trkpt lat="43.2861" lon="3.51208">
        <ele>20.8</ele>
        <time>2025-06-17T11:54:14Z</time>
      </trkpt>
      <trkpt lat="43.28612" lon="3.51201">
        <ele>20.8</ele>
        <time>2025-06-17T11:54:15Z</time>
      </trkpt>
      <trkpt lat="43.28615" lon="3.51195">
        <ele>20.8</ele>
        <time>2025-06-17T11:54:16Z</time>
      </trkpt>
      <trkpt lat="43.28617" lon="3.51188">
        <ele>20.8</ele>
        <time>2025-06-17T11:54:17Z</time>
      </trkpt>
      <trkpt lat="43.28619" lon="3.51182">
        <ele>20.6</ele>
        <time>2025-06-17T11:54:18Z</time>
      </trkpt>
      <trkpt lat="43.28621" lon="3.51176">
        <ele>20.6</ele>
        <time>2025-06-17T11:54:19Z</time>
      </trkpt>
      <trkpt lat="43.28623" lon="3.51169">
        <ele>20.6</ele>
        <time>2025-06-17T11:54:20Z</time>
      </trkpt>
      <trkpt lat="43.28625" lon="3.51163">
        <ele>20.6</ele>
        <time>2025-06-17T11:54:21Z</time>
      </trkpt>
      <trkpt lat="43.28627" lon="3.51157">
        <ele>20.6</ele>
        <time>2025-06-17T11:54:22Z</time>
      </trkpt>
      <trkpt lat="43.28629" lon="3.5115">
        <ele>20.6</ele>
        <time>2025-06-17T11:54:23Z</time>
      </trkpt>
      <trkpt lat="43.28632" lon="3.51144">
        <ele>20.6</ele>
        <time>2025-06-17T11:54:24Z</time>
      </trkpt>
      <trkpt lat="43.28634" lon="3.51136">
        <ele>20.6</ele>
        <time>2025-06-17T11:54:25Z</time>
      </trkpt>
      <trkpt lat="43.28636" lon="3.5113">
        <ele>20.6</ele>
        <time>2025-06-17T11:54:26Z</time>
      </trkpt>
      <trkpt lat="43.28638" lon="3.51125">
        <ele>20.6</ele>
        <time>2025-06-17T11:54:27Z</time>
      </trkpt>
      <trkpt lat="43.28638" lon="3.5112">
        <ele>20.6</ele>
        <time>2025-06-17T11:54:28Z</time>
      </trkpt>
      <trkpt lat="43.28639" lon="3.51115">
        <ele>20.6</ele>
        <time>2025-06-17T11:54:29Z</time>
      </trkpt>
      <trkpt lat="43.28639" lon="3.5111">
        <ele>20.6</ele>
        <time>2025-06-17T11:54:30Z</time>
      </trkpt>
      <trkpt lat="43.28639" lon="3.51105">
        <ele>20.6</ele>
        <time>2025-06-17T11:54:31Z</time>
      </trkpt>
      <trkpt lat="43.2864" lon="3.511">
        <ele>20.6</ele>
        <time>2025-06-17T11:54:32Z</time>
      </trkpt>
      <trkpt lat="43.2864" lon="3.51095">
        <ele>20.6</ele>
        <time>2025-06-17T11:54:33Z</time>
      </trkpt>
      <trkpt lat="43.28641" lon="3.51089">
        <ele>20.6</ele>
        <time>2025-06-17T11:54:34Z</time>
      </trkpt>
      <trkpt lat="43.28641" lon="3.51083">
        <ele>20.6</ele>
        <time>2025-06-17T11:54:35Z</time>
      </trkpt>
      <trkpt lat="43.28642" lon="3.51077">
        <ele>20.6</ele>
        <time>2025-06-17T11:54:36Z</time>
      </trkpt>
      <trkpt lat="43.28644" lon="3.51071">
        <ele>20.8</ele>
        <time>2025-06-17T11:54:37Z</time>
      </trkpt>
      <trkpt lat="43.28645" lon="3.51065">
        <ele>20.8</ele>
        <time>2025-06-17T11:54:38Z</time>
      </trkpt>
      <trkpt lat="43.28646" lon="3.51059">
        <ele>20.8</ele>
        <time>2025-06-17T11:54:39Z</time>
      </trkpt>
      <trkpt lat="43.28647" lon="3.51053">
        <ele>20.8</ele>
        <time>2025-06-17T11:54:40Z</time>
      </trkpt>
      <trkpt lat="43.28648" lon="3.51047">
        <ele>20.8</ele>
        <time>2025-06-17T11:54:41Z</time>
      </trkpt>
      <trkpt lat="43.2865" lon="3.5104">
        <ele>21</ele>
        <time>2025-06-17T11:54:42Z</time>
      </trkpt>
      <trkpt lat="43.28652" lon="3.51034">
        <ele>21</ele>
        <time>2025-06-17T11:54:43Z</time>
      </trkpt>
      <trkpt lat="43.28655" lon="3.51028">
        <ele>21</ele>
        <time>2025-06-17T11:54:44Z</time>
      </trkpt>
      <trkpt lat="43.28658" lon="3.51022">
        <ele>21.2</ele>
        <time>2025-06-17T11:54:45Z</time>
      </trkpt>
      <trkpt lat="43.2866" lon="3.51016">
        <ele>21.2</ele>
        <time>2025-06-17T11:54:46Z</time>
      </trkpt>
      <trkpt lat="43.28662" lon="3.51009">
        <ele>21.2</ele>
        <time>2025-06-17T11:54:47Z</time>
      </trkpt>
      <trkpt lat="43.28664" lon="3.51003">
        <ele>21.4</ele>
        <time>2025-06-17T11:54:48Z</time>
      </trkpt>
      <trkpt lat="43.28666" lon="3.50997">
        <ele>21.4</ele>
        <time>2025-06-17T11:54:49Z</time>
      </trkpt>
      <trkpt lat="43.28668" lon="3.50991">
        <ele>21.4</ele>
        <time>2025-06-17T11:54:50Z</time>
      </trkpt>
      <trkpt lat="43.28671" lon="3.50985">
        <ele>21.4</ele>
        <time>2025-06-17T11:54:51Z</time>
      </trkpt>
      <trkpt lat="43.28672" lon="3.50978">
        <ele>21.4</ele>
        <time>2025-06-17T11:54:52Z</time>
      </trkpt>
      <trkpt lat="43.28674" lon="3.50972">
        <ele>21.6</ele>
        <time>2025-06-17T11:54:53Z</time>
      </trkpt>
      <trkpt lat="43.28675" lon="3.50966">
        <ele>21.6</ele>
        <time>2025-06-17T11:54:54Z</time>
      </trkpt>
      <trkpt lat="43.28675" lon="3.5096">
        <ele>21.8</ele>
        <time>2025-06-17T11:54:55Z</time>
      </trkpt>
      <trkpt lat="43.28675" lon="3.50953">
        <ele>22</ele>
        <time>2025-06-17T11:54:56Z</time>
      </trkpt>
      <trkpt lat="43.28675" lon="3.50946">
        <ele>22</ele>
        <time>2025-06-17T11:54:57Z</time>
      </trkpt>
      <trkpt lat="43.28675" lon="3.50939">
        <ele>22.2</ele>
        <time>2025-06-17T11:54:58Z</time>
      </trkpt>
      <trkpt lat="43.28674" lon="3.50933">
        <ele>22.2</ele>
        <time>2025-06-17T11:54:59Z</time>
      </trkpt>
      <trkpt lat="43.28673" lon="3.50926">
        <ele>22.4</ele>
        <time>2025-06-17T11:55:00Z</time>
      </trkpt>
      <trkpt lat="43.28672" lon="3.5092">
        <ele>22.6</ele>
        <time>2025-06-17T11:55:01Z</time>
      </trkpt>
      <trkpt lat="43.28672" lon="3.50914">
        <ele>22.6</ele>
        <time>2025-06-17T11:55:02Z</time>
      </trkpt>
      <trkpt lat="43.28671" lon="3.50907">
        <ele>22.6</ele>
        <time>2025-06-17T11:55:03Z</time>
      </trkpt>
      <trkpt lat="43.2867" lon="3.50901">
        <ele>22.6</ele>
        <time>2025-06-17T11:55:04Z</time>
      </trkpt>
      <trkpt lat="43.28669" lon="3.50895">
        <ele>22.6</ele>
        <time>2025-06-17T11:55:05Z</time>
      </trkpt>
      <trkpt lat="43.28667" lon="3.50888">
        <ele>22.8</ele>
        <time>2025-06-17T11:55:06Z</time>
      </trkpt>
      <trkpt lat="43.28665" lon="3.50882">
        <ele>22.8</ele>
        <time>2025-06-17T11:55:07Z</time>
      </trkpt>
      <trkpt lat="43.28664" lon="3.50875">
        <ele>22.8</ele>
        <time>2025-06-17T11:55:08Z</time>
      </trkpt>
      <trkpt lat="43.28662" lon="3.50869">
        <ele>23</ele>
        <time>2025-06-17T11:55:09Z</time>
      </trkpt>
      <trkpt lat="43.28661" lon="3.50864">
        <ele>23.2</ele>
        <time>2025-06-17T11:55:10Z</time>
      </trkpt>
      <trkpt lat="43.2866" lon="3.50857">
        <ele>23.2</ele>
        <time>2025-06-17T11:55:11Z</time>
      </trkpt>
      <trkpt lat="43.28661" lon="3.50849">
        <ele>23.4</ele>
        <time>2025-06-17T11:55:12Z</time>
      </trkpt>
      <trkpt lat="43.28661" lon="3.50838">
        <ele>23.4</ele>
        <time>2025-06-17T11:55:13Z</time>
      </trkpt>
      <trkpt lat="43.28662" lon="3.50829">
        <ele>23.6</ele>
        <time>2025-06-17T11:55:14Z</time>
      </trkpt>
      <trkpt lat="43.28663" lon="3.50821">
        <ele>23.8</ele>
        <time>2025-06-17T11:55:15Z</time>
      </trkpt>
      <trkpt lat="43.28664" lon="3.50814">
        <ele>24</ele>
        <time>2025-06-17T11:55:16Z</time>
      </trkpt>
      <trkpt lat="43.28664" lon="3.50805">
        <ele>24</ele>
        <time>2025-06-17T11:55:17Z</time>
      </trkpt>
      <trkpt lat="43.28665" lon="3.50797">
        <ele>24.2</ele>
        <time>2025-06-17T11:55:18Z</time>
      </trkpt>
      <trkpt lat="43.28665" lon="3.50791">
        <ele>24.4</ele>
        <time>2025-06-17T11:55:19Z</time>
      </trkpt>
      <trkpt lat="43.28666" lon="3.50784">
        <ele>24.4</ele>
        <time>2025-06-17T11:55:20Z</time>
      </trkpt>
      <trkpt lat="43.28667" lon="3.50778">
        <ele>24.6</ele>
        <time>2025-06-17T11:55:21Z</time>
      </trkpt>
      <trkpt lat="43.28667" lon="3.50773">
        <ele>24.8</ele>
        <time>2025-06-17T11:55:22Z</time>
      </trkpt>
      <trkpt lat="43.28666" lon="3.50767">
        <ele>24.8</ele>
        <time>2025-06-17T11:55:23Z</time>
      </trkpt>
      <trkpt lat="43.28665" lon="3.50762">
        <ele>25</ele>
        <time>2025-06-17T11:55:24Z</time>
      </trkpt>
      <trkpt lat="43.28664" lon="3.50757">
        <ele>25.2</ele>
        <time>2025-06-17T11:55:25Z</time>
      </trkpt>
      <trkpt lat="43.28663" lon="3.50752">
        <ele>25.2</ele>
        <time>2025-06-17T11:55:26Z</time>
      </trkpt>
      <trkpt lat="43.28662" lon="3.50747">
        <ele>25.4</ele>
        <time>2025-06-17T11:55:27Z</time>
      </trkpt>
      <trkpt lat="43.28662" lon="3.50742">
        <ele>25.6</ele>
        <time>2025-06-17T11:55:28Z</time>
      </trkpt>
      <trkpt lat="43.28662" lon="3.50737">
        <ele>25.6</ele>
        <time>2025-06-17T11:55:29Z</time>
      </trkpt>
      <trkpt lat="43.28661" lon="3.50732">
        <ele>25.8</ele>
        <time>2025-06-17T11:55:30Z</time>
      </trkpt>
      <trkpt lat="43.2866" lon="3.50727">
        <ele>26</ele>
        <time>2025-06-17T11:55:31Z</time>
      </trkpt>
      <trkpt lat="43.28659" lon="3.50722">
        <ele>26.2</ele>
        <time>2025-06-17T11:55:32Z</time>
      </trkpt>
      <trkpt lat="43.28657" lon="3.50717">
        <ele>26.2</ele>
        <time>2025-06-17T11:55:33Z</time>
      </trkpt>
      <trkpt lat="43.28656" lon="3.50711">
        <ele>26.4</ele>
        <time>2025-06-17T11:55:34Z</time>
      </trkpt>
      <trkpt lat="43.28654" lon="3.50706">
        <ele>26.4</ele>
        <time>2025-06-17T11:55:35Z</time>
      </trkpt>
      <trkpt lat="43.28652" lon="3.50701">
        <ele>26.6</ele>
        <time>2025-06-17T11:55:36Z</time>
      </trkpt>
      <trkpt lat="43.2865" lon="3.50696">
        <ele>26.8</ele>
        <time>2025-06-17T11:55:37Z</time>
      </trkpt>
      <trkpt lat="43.28648" lon="3.50691">
        <ele>27</ele>
        <time>2025-06-17T11:55:38Z</time>
      </trkpt>
      <trkpt lat="43.28646" lon="3.50687">
        <ele>27</ele>
        <time>2025-06-17T11:55:39Z</time>
      </trkpt>
      <trkpt lat="43.28644" lon="3.50682">
        <ele>27.2</ele>
        <time>2025-06-17T11:55:40Z</time>
      </trkpt>
      <trkpt lat="43.28642" lon="3.50676">
        <ele>27.4</ele>
        <time>2025-06-17T11:55:41Z</time>
      </trkpt>
      <trkpt lat="43.28639" lon="3.50672">
        <ele>27.6</ele>
        <time>2025-06-17T11:55:42Z</time>
      </trkpt>
      <trkpt lat="43.28637" lon="3.50666">
        <ele>27.6</ele>
        <time>2025-06-17T11:55:43Z</time>
      </trkpt>
      <trkpt lat="43.28634" lon="3.50662">
        <ele>27.8</ele>
        <time>2025-06-17T11:55:44Z</time>
      </trkpt>
      <trkpt lat="43.28632" lon="3.50658">
        <ele>27.8</ele>
        <time>2025-06-17T11:55:45Z</time>
      </trkpt>
      <trkpt lat="43.28629" lon="3.50653">
        <ele>28</ele>
        <time>2025-06-17T11:55:46Z</time>
      </trkpt>
      <trkpt lat="43.28626" lon="3.50649">
        <ele>28</ele>
        <time>2025-06-17T11:55:47Z</time>
      </trkpt>
      <trkpt lat="43.28624" lon="3.50644">
        <ele>28.2</ele>
        <time>2025-06-17T11:55:48Z</time>
      </trkpt>
      <trkpt lat="43.28621" lon="3.5064">
        <ele>28.2</ele>
        <time>2025-06-17T11:55:49Z</time>
      </trkpt>
      <trkpt lat="43.28617" lon="3.50636">
        <ele>28.2</ele>
        <time>2025-06-17T11:55:50Z</time>
      </trkpt>
      <trkpt lat="43.28615" lon="3.50633">
        <ele>28.4</ele>
        <time>2025-06-17T11:55:51Z</time>
      </trkpt>
      <trkpt lat="43.28611" lon="3.50629">
        <ele>28.4</ele>
        <time>2025-06-17T11:55:52Z</time>
      </trkpt>
      <trkpt lat="43.28607" lon="3.50625">
        <ele>28.6</ele>
        <time>2025-06-17T11:55:53Z</time>
      </trkpt>
      <trkpt lat="43.28603" lon="3.50622">
        <ele>28.6</ele>
        <time>2025-06-17T11:55:54Z</time>
      </trkpt>
      <trkpt lat="43.286" lon="3.50618">
        <ele>28.8</ele>
        <time>2025-06-17T11:55:55Z</time>
      </trkpt>
      <trkpt lat="43.28596" lon="3.50615">
        <ele>28.8</ele>
        <time>2025-06-17T11:55:56Z</time>
      </trkpt>
      <trkpt lat="43.28593" lon="3.50612">
        <ele>28.8</ele>
        <time>2025-06-17T11:55:57Z</time>
      </trkpt>
      <trkpt lat="43.28589" lon="3.50608">
        <ele>28.8</ele>
        <time>2025-06-17T11:55:58Z</time>
      </trkpt>
      <trkpt lat="43.28585" lon="3.50605">
        <ele>28.8</ele>
        <time>2025-06-17T11:55:59Z</time>
      </trkpt>
      <trkpt lat="43.28581" lon="3.50601">
        <ele>28.8</ele>
        <time>2025-06-17T11:56:00Z</time>
      </trkpt>
      <trkpt lat="43.28577" lon="3.50598">
        <ele>28.8</ele>
        <time>2025-06-17T11:56:01Z</time>
      </trkpt>
      <trkpt lat="43.28573" lon="3.50595">
        <ele>28.8</ele>
        <time>2025-06-17T11:56:02Z</time>
      </trkpt>
      <trkpt lat="43.28568" lon="3.50592">
        <ele>28.6</ele>
        <time>2025-06-17T11:56:03Z</time>
      </trkpt>
      <trkpt lat="43.28564" lon="3.50588">
        <ele>28.6</ele>
        <time>2025-06-17T11:56:04Z</time>
      </trkpt>
      <trkpt lat="43.28559" lon="3.50584">
        <ele>28.4</ele>
        <time>2025-06-17T11:56:05Z</time>
      </trkpt>
      <trkpt lat="43.28555" lon="3.50579">
        <ele>28.2</ele>
        <time>2025-06-17T11:56:06Z</time>
      </trkpt>
      <trkpt lat="43.2855" lon="3.50574">
        <ele>28</ele>
        <time>2025-06-17T11:56:07Z</time>
      </trkpt>
      <trkpt lat="43.28545" lon="3.50569">
        <ele>27.8</ele>
        <time>2025-06-17T11:56:08Z</time>
      </trkpt>
      <trkpt lat="43.2854" lon="3.50563">
        <ele>27.6</ele>
        <time>2025-06-17T11:56:09Z</time>
      </trkpt>
      <trkpt lat="43.28534" lon="3.50557">
        <ele>27.2</ele>
        <time>2025-06-17T11:56:10Z</time>
      </trkpt>
      <trkpt lat="43.28527" lon="3.50551">
        <ele>26.8</ele>
        <time>2025-06-17T11:56:11Z</time>
      </trkpt>
      <trkpt lat="43.28521" lon="3.50544">
        <ele>26.2</ele>
        <time>2025-06-17T11:56:12Z</time>
      </trkpt>
      <trkpt lat="43.28514" lon="3.50536">
        <ele>25.6</ele>
        <time>2025-06-17T11:56:13Z</time>
      </trkpt>
      <trkpt lat="43.28507" lon="3.50527">
        <ele>25.2</ele>
        <time>2025-06-17T11:56:14Z</time>
      </trkpt>
      <trkpt lat="43.28499" lon="3.50519">
        <ele>24.6</ele>
        <time>2025-06-17T11:56:15Z</time>
      </trkpt>
      <trkpt lat="43.28492" lon="3.50509">
        <ele>24.2</ele>
        <time>2025-06-17T11:56:16Z</time>
      </trkpt>
      <trkpt lat="43.28485" lon="3.505">
        <ele>23.8</ele>
        <time>2025-06-17T11:56:17Z</time>
      </trkpt>
      <trkpt lat="43.28479" lon="3.5049">
        <ele>23.2</ele>
        <time>2025-06-17T11:56:18Z</time>
      </trkpt>
      <trkpt lat="43.28473" lon="3.50481">
        <ele>23</ele>
        <time>2025-06-17T11:56:19Z</time>
      </trkpt>
      <trkpt lat="43.28468" lon="3.50472">
        <ele>22.8</ele>
        <time>2025-06-17T11:56:20Z</time>
      </trkpt>
      <trkpt lat="43.28463" lon="3.50463">
        <ele>22.4</ele>
        <time>2025-06-17T11:56:21Z</time>
      </trkpt>
      <trkpt lat="43.28459" lon="3.50454">
        <ele>22.2</ele>
        <time>2025-06-17T11:56:22Z</time>
      </trkpt>
      <trkpt lat="43.28456" lon="3.50446">
        <ele>22.2</ele>
        <time>2025-06-17T11:56:23Z</time>
      </trkpt>
      <trkpt lat="43.28453" lon="3.50437">
        <ele>22.2</ele>
        <time>2025-06-17T11:56:24Z</time>
      </trkpt>
      <trkpt lat="43.28451" lon="3.50428">
        <ele>22.2</ele>
        <time>2025-06-17T11:56:25Z</time>
      </trkpt>
      <trkpt lat="43.28448" lon="3.50418">
        <ele>22</ele>
        <time>2025-06-17T11:56:26Z</time>
      </trkpt>
      <trkpt lat="43.28444" lon="3.50411">
        <ele>22</ele>
        <time>2025-06-17T11:56:27Z</time>
      </trkpt>
      <trkpt lat="43.28438" lon="3.50404">
        <ele>21.6</ele>
        <time>2025-06-17T11:56:28Z</time>
      </trkpt>
      <trkpt lat="43.28434" lon="3.50395">
        <ele>21.4</ele>
        <time>2025-06-17T11:56:29Z</time>
      </trkpt>
      <trkpt lat="43.28431" lon="3.50386">
        <ele>21.2</ele>
        <time>2025-06-17T11:56:30Z</time>
      </trkpt>
      <trkpt lat="43.28428" lon="3.50377">
        <ele>21</ele>
        <time>2025-06-17T11:56:31Z</time>
      </trkpt>
      <trkpt lat="43.28426" lon="3.50368">
        <ele>21</ele>
        <time>2025-06-17T11:56:32Z</time>
      </trkpt>
      <trkpt lat="43.28424" lon="3.5036">
        <ele>20.8</ele>
        <time>2025-06-17T11:56:33Z</time>
      </trkpt>
      <trkpt lat="43.28422" lon="3.50352">
        <ele>20.8</ele>
        <time>2025-06-17T11:56:34Z</time>
      </trkpt>
      <trkpt lat="43.2842" lon="3.50342">
        <ele>20.8</ele>
        <time>2025-06-17T11:56:35Z</time>
      </trkpt>
      <trkpt lat="43.28418" lon="3.50334">
        <ele>20.6</ele>
        <time>2025-06-17T11:56:36Z</time>
      </trkpt>
      <trkpt lat="43.28415" lon="3.50326">
        <ele>20.6</ele>
        <time>2025-06-17T11:56:37Z</time>
      </trkpt>
      <trkpt lat="43.28413" lon="3.50317">
        <ele>20.6</ele>
        <time>2025-06-17T11:56:38Z</time>
      </trkpt>
      <trkpt lat="43.28411" lon="3.50309">
        <ele>20.4</ele>
        <time>2025-06-17T11:56:39Z</time>
      </trkpt>
      <trkpt lat="43.28409" lon="3.503">
        <ele>20.4</ele>
        <time>2025-06-17T11:56:40Z</time>
      </trkpt>
      <trkpt lat="43.28406" lon="3.50292">
        <ele>20.4</ele>
        <time>2025-06-17T11:56:41Z</time>
      </trkpt>
      <trkpt lat="43.28404" lon="3.50284">
        <ele>20.4</ele>
        <time>2025-06-17T11:56:42Z</time>
      </trkpt>
      <trkpt lat="43.28402" lon="3.50276">
        <ele>20.4</ele>
        <time>2025-06-17T11:56:43Z</time>
      </trkpt>
      <trkpt lat="43.284" lon="3.50267">
        <ele>20.4</ele>
        <time>2025-06-17T11:56:44Z</time>
      </trkpt>
      <trkpt lat="43.28398" lon="3.50259">
        <ele>20.2</ele>
        <time>2025-06-17T11:56:45Z</time>
      </trkpt>
      <trkpt lat="43.28395" lon="3.50251">
        <ele>20.2</ele>
        <time>2025-06-17T11:56:46Z</time>
      </trkpt>
      <trkpt lat="43.28393" lon="3.50242">
        <ele>20.2</ele>
        <time>2025-06-17T11:56:47Z</time>
      </trkpt>
      <trkpt lat="43.28391" lon="3.50233">
        <ele>20.2</ele>
        <time>2025-06-17T11:56:48Z</time>
      </trkpt>
      <trkpt lat="43.28389" lon="3.50224">
        <ele>20.4</ele>
        <time>2025-06-17T11:56:49Z</time>
      </trkpt>
      <trkpt lat="43.28388" lon="3.50215">
        <ele>20.4</ele>
        <time>2025-06-17T11:56:50Z</time>
      </trkpt>
      <trkpt lat="43.28385" lon="3.50206">
        <ele>20.4</ele>
        <time>2025-06-17T11:56:51Z</time>
      </trkpt>
      <trkpt lat="43.28383" lon="3.50197">
        <ele>20.4</ele>
        <time>2025-06-17T11:56:52Z</time>
      </trkpt>
      <trkpt lat="43.28382" lon="3.50188">
        <ele>20.6</ele>
        <time>2025-06-17T11:56:53Z</time>
      </trkpt>
      <trkpt lat="43.2838" lon="3.50178">
        <ele>20.6</ele>
        <time>2025-06-17T11:56:54Z</time>
      </trkpt>
      <trkpt lat="43.28379" lon="3.50168">
        <ele>20.6</ele>
        <time>2025-06-17T11:56:55Z</time>
      </trkpt>
      <trkpt lat="43.28377" lon="3.50158">
        <ele>20.6</ele>
        <time>2025-06-17T11:56:56Z</time>
      </trkpt>
      <trkpt lat="43.28375" lon="3.50149">
        <ele>20.6</ele>
        <time>2025-06-17T11:56:57Z</time>
      </trkpt>
      <trkpt lat="43.28373" lon="3.5014">
        <ele>20.6</ele>
        <time>2025-06-17T11:56:58Z</time>
      </trkpt>
      <trkpt lat="43.28371" lon="3.5013">
        <ele>20.6</ele>
        <time>2025-06-17T11:56:59Z</time>
      </trkpt>
      <trkpt lat="43.28369" lon="3.5012">
        <ele>20.6</ele>
        <time>2025-06-17T11:57:00Z</time>
      </trkpt>
      <trkpt lat="43.28366" lon="3.50111">
        <ele>20.6</ele>
        <time>2025-06-17T11:57:01Z</time>
      </trkpt>
      <trkpt lat="43.28363" lon="3.50101">
        <ele>20.6</ele>
        <time>2025-06-17T11:57:02Z</time>
      </trkpt>
      <trkpt lat="43.2836" lon="3.50092">
        <ele>20.6</ele>
        <time>2025-06-17T11:57:03Z</time>
      </trkpt>
      <trkpt lat="43.28357" lon="3.50083">
        <ele>20.6</ele>
        <time>2025-06-17T11:57:04Z</time>
      </trkpt>
      <trkpt lat="43.28353" lon="3.50074">
        <ele>20.6</ele>
        <time>2025-06-17T11:57:05Z</time>
      </trkpt>
      <trkpt lat="43.28349" lon="3.50065">
        <ele>20.6</ele>
        <time>2025-06-17T11:57:06Z</time>
      </trkpt>
      <trkpt lat="43.28345" lon="3.50056">
        <ele>20.6</ele>
        <time>2025-06-17T11:57:07Z</time>
      </trkpt>
      <trkpt lat="43.2834" lon="3.50047">
        <ele>20.6</ele>
        <time>2025-06-17T11:57:08Z</time>
      </trkpt>
      <trkpt lat="43.28335" lon="3.50038">
        <ele>20.6</ele>
        <time>2025-06-17T11:57:09Z</time>
      </trkpt>
      <trkpt lat="43.28329" lon="3.5003">
        <ele>20.6</ele>
        <time>2025-06-17T11:57:10Z</time>
      </trkpt>
      <trkpt lat="43.28325" lon="3.50022">
        <ele>20.6</ele>
        <time>2025-06-17T11:57:11Z</time>
      </trkpt>
      <trkpt lat="43.28319" lon="3.50015">
        <ele>20.6</ele>
        <time>2025-06-17T11:57:12Z</time>
      </trkpt>
      <trkpt lat="43.28314" lon="3.50008">
        <ele>20.6</ele>
        <time>2025-06-17T11:57:13Z</time>
      </trkpt>
      <trkpt lat="43.28308" lon="3.50001">
        <ele>20.6</ele>
        <time>2025-06-17T11:57:14Z</time>
      </trkpt>
      <trkpt lat="43.28303" lon="3.49994">
        <ele>20.4</ele>
        <time>2025-06-17T11:57:15Z</time>
      </trkpt>
      <trkpt lat="43.28298" lon="3.49987">
        <ele>20.4</ele>
        <time>2025-06-17T11:57:16Z</time>
      </trkpt>
      <trkpt lat="43.28293" lon="3.4998">
        <ele>20.4</ele>
        <time>2025-06-17T11:57:17Z</time>
      </trkpt>
      <trkpt lat="43.28289" lon="3.49972">
        <ele>20.4</ele>
        <time>2025-06-17T11:57:18Z</time>
      </trkpt>
      <trkpt lat="43.28285" lon="3.49965">
        <ele>20.4</ele>
        <time>2025-06-17T11:57:19Z</time>
      </trkpt>
      <trkpt lat="43.28283" lon="3.49956">
        <ele>20.4</ele>
        <time>2025-06-17T11:57:20Z</time>
      </trkpt>
      <trkpt lat="43.28282" lon="3.49948">
        <ele>20.4</ele>
        <time>2025-06-17T11:57:21Z</time>
      </trkpt>
      <trkpt lat="43.28281" lon="3.49939">
        <ele>20.4</ele>
        <time>2025-06-17T11:57:22Z</time>
      </trkpt>
      <trkpt lat="43.2828" lon="3.49931">
        <ele>20.4</ele>
        <time>2025-06-17T11:57:23Z</time>
      </trkpt>
      <trkpt lat="43.28279" lon="3.49923">
        <ele>20.4</ele>
        <time>2025-06-17T11:57:24Z</time>
      </trkpt>
      <trkpt lat="43.28278" lon="3.49915">
        <ele>20.2</ele>
        <time>2025-06-17T11:57:25Z</time>
      </trkpt>
      <trkpt lat="43.2828" lon="3.49907">
        <ele>20.2</ele>
        <time>2025-06-17T11:57:26Z</time>
      </trkpt>
      <trkpt lat="43.28282" lon="3.49901">
        <ele>20.4</ele>
        <time>2025-06-17T11:57:27Z</time>
      </trkpt>
      <trkpt lat="43.28286" lon="3.49895">
        <ele>20.4</ele>
        <time>2025-06-17T11:57:28Z</time>
      </trkpt>
      <trkpt lat="43.28291" lon="3.4989">
        <ele>20.4</ele>
        <time>2025-06-17T11:57:29Z</time>
      </trkpt>
      <trkpt lat="43.28295" lon="3.49886">
        <ele>20.4</ele>
        <time>2025-06-17T11:57:30Z</time>
      </trkpt>
      <trkpt lat="43.283" lon="3.49881">
        <ele>20.4</ele>
        <time>2025-06-17T11:57:31Z</time>
      </trkpt>
      <trkpt lat="43.28304" lon="3.49875">
        <ele>20.4</ele>
        <time>2025-06-17T11:57:32Z</time>
      </trkpt>
      <trkpt lat="43.28309" lon="3.49869">
        <ele>20.4</ele>
        <time>2025-06-17T11:57:33Z</time>
      </trkpt>
      <trkpt lat="43.28313" lon="3.49862">
        <ele>20.4</ele>
        <time>2025-06-17T11:57:34Z</time>
      </trkpt>
      <trkpt lat="43.28317" lon="3.49855">
        <ele>20.4</ele>
        <time>2025-06-17T11:57:35Z</time>
      </trkpt>
      <trkpt lat="43.2832" lon="3.49847">
        <ele>20.2</ele>
        <time>2025-06-17T11:57:36Z</time>
      </trkpt>
      <trkpt lat="43.28322" lon="3.49839">
        <ele>20.2</ele>
        <time>2025-06-17T11:57:37Z</time>
      </trkpt>
      <trkpt lat="43.28324" lon="3.49831">
        <ele>20.2</ele>
        <time>2025-06-17T11:57:38Z</time>
      </trkpt>
      <trkpt lat="43.28325" lon="3.49823">
        <ele>20.2</ele>
        <time>2025-06-17T11:57:39Z</time>
      </trkpt>
      <trkpt lat="43.28325" lon="3.49814">
        <ele>20.4</ele>
        <time>2025-06-17T11:57:40Z</time>
      </trkpt>
      <trkpt lat="43.28324" lon="3.49806">
        <ele>20.4</ele>
        <time>2025-06-17T11:57:41Z</time>
      </trkpt>
      <trkpt lat="43.28322" lon="3.49798">
        <ele>20.4</ele>
        <time>2025-06-17T11:57:42Z</time>
      </trkpt>
      <trkpt lat="43.28319" lon="3.4979">
        <ele>20.4</ele>
        <time>2025-06-17T11:57:43Z</time>
      </trkpt>
      <trkpt lat="43.28315" lon="3.49783">
        <ele>20.4</ele>
        <time>2025-06-17T11:57:44Z</time>
      </trkpt>
      <trkpt lat="43.28311" lon="3.49776">
        <ele>20.4</ele>
        <time>2025-06-17T11:57:45Z</time>
      </trkpt>
      <trkpt lat="43.28306" lon="3.49772">
        <ele>20.4</ele>
        <time>2025-06-17T11:57:46Z</time>
      </trkpt>
      <trkpt lat="43.283" lon="3.49768">
        <ele>20.4</ele>
        <time>2025-06-17T11:57:47Z</time>
      </trkpt>
      <trkpt lat="43.28295" lon="3.49764">
        <ele>20.4</ele>
        <time>2025-06-17T11:57:48Z</time>
      </trkpt>
      <trkpt lat="43.28289" lon="3.49761">
        <ele>20.6</ele>
        <time>2025-06-17T11:57:49Z</time>
      </trkpt>
      <trkpt lat="43.28284" lon="3.49757">
        <ele>20.8</ele>
        <time>2025-06-17T11:57:50Z</time>
      </trkpt>
      <trkpt lat="43.2828" lon="3.49751">
        <ele>20.8</ele>
        <time>2025-06-17T11:57:51Z</time>
      </trkpt>
      <trkpt lat="43.28277" lon="3.49743">
        <ele>20.8</ele>
        <time>2025-06-17T11:57:52Z</time>
      </trkpt>
      <trkpt lat="43.28276" lon="3.49735">
        <ele>20.8</ele>
        <time>2025-06-17T11:57:53Z</time>
      </trkpt>
      <trkpt lat="43.28274" lon="3.49726">
        <ele>20.6</ele>
        <time>2025-06-17T11:57:54Z</time>
      </trkpt>
      <trkpt lat="43.28271" lon="3.49718">
        <ele>20.6</ele>
        <time>2025-06-17T11:57:55Z</time>
      </trkpt>
      <trkpt lat="43.28268" lon="3.4971">
        <ele>20.4</ele>
        <time>2025-06-17T11:57:56Z</time>
      </trkpt>
      <trkpt lat="43.28265" lon="3.49701">
        <ele>20.4</ele>
        <time>2025-06-17T11:57:57Z</time>
      </trkpt>
      <trkpt lat="43.28263" lon="3.49692">
        <ele>20.6</ele>
        <time>2025-06-17T11:57:58Z</time>
      </trkpt>
      <trkpt lat="43.28261" lon="3.49683">
        <ele>20.6</ele>
        <time>2025-06-17T11:57:59Z</time>
      </trkpt>
      <trkpt lat="43.28259" lon="3.49674">
        <ele>20.8</ele>
        <time>2025-06-17T11:58:00Z</time>
      </trkpt>
      <trkpt lat="43.28257" lon="3.49666">
        <ele>20.8</ele>
        <time>2025-06-17T11:58:01Z</time>
      </trkpt>
      <trkpt lat="43.28255" lon="3.49657">
        <ele>20.8</ele>
        <time>2025-06-17T11:58:02Z</time>
      </trkpt>
      <trkpt lat="43.28253" lon="3.49649">
        <ele>20.8</ele>
        <time>2025-06-17T11:58:03Z</time>
      </trkpt>
      <trkpt lat="43.2825" lon="3.49641">
        <ele>20.8</ele>
        <time>2025-06-17T11:58:04Z</time>
      </trkpt>
      <trkpt lat="43.28248" lon="3.49633">
        <ele>20.8</ele>
        <time>2025-06-17T11:58:05Z</time>
      </trkpt>
      <trkpt lat="43.28245" lon="3.49624">
        <ele>20.8</ele>
        <time>2025-06-17T11:58:06Z</time>
      </trkpt>
      <trkpt lat="43.28242" lon="3.49616">
        <ele>20.8</ele>
        <time>2025-06-17T11:58:07Z</time>
      </trkpt>
      <trkpt lat="43.28239" lon="3.49608">
        <ele>20.8</ele>
        <time>2025-06-17T11:58:08Z</time>
      </trkpt>
      <trkpt lat="43.28235" lon="3.49601">
        <ele>21</ele>
        <time>2025-06-17T11:58:09Z</time>
      </trkpt>
      <trkpt lat="43.28232" lon="3.49593">
        <ele>21</ele>
        <time>2025-06-17T11:58:10Z</time>
      </trkpt>
      <trkpt lat="43.28228" lon="3.49585">
        <ele>21</ele>
        <time>2025-06-17T11:58:11Z</time>
      </trkpt>
      <trkpt lat="43.28225" lon="3.49578">
        <ele>21</ele>
        <time>2025-06-17T11:58:12Z</time>
      </trkpt>
      <trkpt lat="43.28221" lon="3.4957">
        <ele>21</ele>
        <time>2025-06-17T11:58:13Z</time>
      </trkpt>
      <trkpt lat="43.28217" lon="3.49563">
        <ele>21</ele>
        <time>2025-06-17T11:58:14Z</time>
      </trkpt>
      <trkpt lat="43.28214" lon="3.49555">
        <ele>20.8</ele>
        <time>2025-06-17T11:58:15Z</time>
      </trkpt>
      <trkpt lat="43.2821" lon="3.49547">
        <ele>20.8</ele>
        <time>2025-06-17T11:58:16Z</time>
      </trkpt>
      <trkpt lat="43.28207" lon="3.4954">
        <ele>20.8</ele>
        <time>2025-06-17T11:58:17Z</time>
      </trkpt>
      <trkpt lat="43.28203" lon="3.49532">
        <ele>20.8</ele>
        <time>2025-06-17T11:58:18Z</time>
      </trkpt>
      <trkpt lat="43.282" lon="3.49525">
        <ele>20.8</ele>
        <time>2025-06-17T11:58:19Z</time>
      </trkpt>
      <trkpt lat="43.28196" lon="3.49517">
        <ele>20.8</ele>
        <time>2025-06-17T11:58:20Z</time>
      </trkpt>
      <trkpt lat="43.28192" lon="3.4951">
        <ele>20.6</ele>
        <time>2025-06-17T11:58:21Z</time>
      </trkpt>
      <trkpt lat="43.28189" lon="3.49503">
        <ele>20.6</ele>
        <time>2025-06-17T11:58:22Z</time>
      </trkpt>
      <trkpt lat="43.28185" lon="3.49496">
        <ele>20.6</ele>
        <time>2025-06-17T11:58:23Z</time>
      </trkpt>
      <trkpt lat="43.28182" lon="3.49489">
        <ele>20.6</ele>
        <time>2025-06-17T11:58:24Z</time>
      </trkpt>
      <trkpt lat="43.28179" lon="3.49482">
        <ele>20.6</ele>
        <time>2025-06-17T11:58:25Z</time>
      </trkpt>
      <trkpt lat="43.28175" lon="3.49476">
        <ele>20.4</ele>
        <time>2025-06-17T11:58:26Z</time>
      </trkpt>
      <trkpt lat="43.28172" lon="3.49469">
        <ele>20.4</ele>
        <time>2025-06-17T11:58:27Z</time>
      </trkpt>
      <trkpt lat="43.28168" lon="3.49462">
        <ele>20.6</ele>
        <time>2025-06-17T11:58:28Z</time>
      </trkpt>
      <trkpt lat="43.28165" lon="3.49456">
        <ele>20.4</ele>
        <time>2025-06-17T11:58:29Z</time>
      </trkpt>
      <trkpt lat="43.28162" lon="3.49449">
        <ele>20.4</ele>
        <time>2025-06-17T11:58:30Z</time>
      </trkpt>
      <trkpt lat="43.28158" lon="3.49443">
        <ele>20.4</ele>
        <time>2025-06-17T11:58:31Z</time>
      </trkpt>
      <trkpt lat="43.28155" lon="3.49436">
        <ele>20.4</ele>
        <time>2025-06-17T11:58:32Z</time>
      </trkpt>
      <trkpt lat="43.28151" lon="3.49429">
        <ele>20.4</ele>
        <time>2025-06-17T11:58:33Z</time>
      </trkpt>
      <trkpt lat="43.28148" lon="3.49423">
        <ele>20.4</ele>
        <time>2025-06-17T11:58:34Z</time>
      </trkpt>
      <trkpt lat="43.28145" lon="3.49416">
        <ele>20.4</ele>
        <time>2025-06-17T11:58:35Z</time>
      </trkpt>
      <trkpt lat="43.28141" lon="3.4941">
        <ele>20.6</ele>
        <time>2025-06-17T11:58:36Z</time>
      </trkpt>
      <trkpt lat="43.28137" lon="3.49403">
        <ele>20.6</ele>
        <time>2025-06-17T11:58:37Z</time>
      </trkpt>
      <trkpt lat="43.28134" lon="3.49397">
        <ele>20.6</ele>
        <time>2025-06-17T11:58:38Z</time>
      </trkpt>
      <trkpt lat="43.2813" lon="3.4939">
        <ele>20.4</ele>
        <time>2025-06-17T11:58:39Z</time>
      </trkpt>
      <trkpt lat="43.28126" lon="3.49384">
        <ele>20.4</ele>
        <time>2025-06-17T11:58:40Z</time>
      </trkpt>
      <trkpt lat="43.28122" lon="3.49377">
        <ele>20.4</ele>
        <time>2025-06-17T11:58:41Z</time>
      </trkpt>
      <trkpt lat="43.28118" lon="3.49371">
        <ele>20.4</ele>
        <time>2025-06-17T11:58:42Z</time>
      </trkpt>
      <trkpt lat="43.28113" lon="3.49364">
        <ele>20.4</ele>
        <time>2025-06-17T11:58:43Z</time>
      </trkpt>
      <trkpt lat="43.28109" lon="3.49358">
        <ele>20.4</ele>
        <time>2025-06-17T11:58:44Z</time>
      </trkpt>
      <trkpt lat="43.28104" lon="3.49352">
        <ele>20.4</ele>
        <time>2025-06-17T11:58:45Z</time>
      </trkpt>
      <trkpt lat="43.281" lon="3.49347">
        <ele>20.4</ele>
        <time>2025-06-17T11:58:46Z</time>
      </trkpt>
      <trkpt lat="43.28095" lon="3.49341">
        <ele>20.4</ele>
        <time>2025-06-17T11:58:47Z</time>
      </trkpt>
      <trkpt lat="43.2809" lon="3.49336">
        <ele>20.4</ele>
        <time>2025-06-17T11:58:48Z</time>
      </trkpt>
      <trkpt lat="43.28085" lon="3.4933">
        <ele>20.4</ele>
        <time>2025-06-17T11:58:49Z</time>
      </trkpt>
      <trkpt lat="43.28079" lon="3.49326">
        <ele>20.2</ele>
        <time>2025-06-17T11:58:50Z</time>
      </trkpt>
      <trkpt lat="43.28074" lon="3.49321">
        <ele>20.2</ele>
        <time>2025-06-17T11:58:51Z</time>
      </trkpt>
      <trkpt lat="43.28068" lon="3.49317">
        <ele>20.2</ele>
        <time>2025-06-17T11:58:52Z</time>
      </trkpt>
      <trkpt lat="43.28062" lon="3.49313">
        <ele>20</ele>
        <time>2025-06-17T11:58:53Z</time>
      </trkpt>
      <trkpt lat="43.28056" lon="3.49309">
        <ele>20</ele>
        <time>2025-06-17T11:58:54Z</time>
      </trkpt>
      <trkpt lat="43.28051" lon="3.49306">
        <ele>20</ele>
        <time>2025-06-17T11:58:55Z</time>
      </trkpt>
      <trkpt lat="43.28046" lon="3.49303">
        <ele>19.8</ele>
        <time>2025-06-17T11:58:56Z</time>
      </trkpt>
      <trkpt lat="43.28041" lon="3.493">
        <ele>19.8</ele>
        <time>2025-06-17T11:58:57Z</time>
      </trkpt>
      <trkpt lat="43.28036" lon="3.49298">
        <ele>19.8</ele>
        <time>2025-06-17T11:58:58Z</time>
      </trkpt>
      <trkpt lat="43.28031" lon="3.49296">
        <ele>19.8</ele>
        <time>2025-06-17T11:58:59Z</time>
      </trkpt>
      <trkpt lat="43.28026" lon="3.49294">
        <ele>19.8</ele>
        <time>2025-06-17T11:59:00Z</time>
      </trkpt>
      <trkpt lat="43.28021" lon="3.49294">
        <ele>19.8</ele>
        <time>2025-06-17T11:59:01Z</time>
      </trkpt>
      <trkpt lat="43.28017" lon="3.49293">
        <ele>19.8</ele>
        <time>2025-06-17T11:59:02Z</time>
      </trkpt>
      <trkpt lat="43.28013" lon="3.49292">
        <ele>19.8</ele>
        <time>2025-06-17T11:59:03Z</time>
      </trkpt>
      <trkpt lat="43.2801" lon="3.49289">
        <ele>19.8</ele>
        <time>2025-06-17T11:59:04Z</time>
      </trkpt>
      <trkpt lat="43.28007" lon="3.49285">
        <ele>19.8</ele>
        <time>2025-06-17T11:59:05Z</time>
      </trkpt>
      <trkpt lat="43.28004" lon="3.4928">
        <ele>19.8</ele>
        <time>2025-06-17T11:59:06Z</time>
      </trkpt>
      <trkpt lat="43.28002" lon="3.49276">
        <ele>20</ele>
        <time>2025-06-17T11:59:07Z</time>
      </trkpt>
      <trkpt lat="43.28001" lon="3.49271">
        <ele>20</ele>
        <time>2025-06-17T11:59:08Z</time>
      </trkpt>
      <trkpt lat="43.28001" lon="3.49265">
        <ele>20</ele>
        <time>2025-06-17T11:59:09Z</time>
      </trkpt>
      <trkpt lat="43.28002" lon="3.49259">
        <ele>20</ele>
        <time>2025-06-17T11:59:10Z</time>
      </trkpt>
      <trkpt lat="43.28002" lon="3.49254">
        <ele>20</ele>
        <time>2025-06-17T11:59:11Z</time>
      </trkpt>
      <trkpt lat="43.28003" lon="3.49248">
        <ele>20</ele>
        <time>2025-06-17T11:59:12Z</time>
      </trkpt>
      <trkpt lat="43.28003" lon="3.49241">
        <ele>20</ele>
        <time>2025-06-17T11:59:13Z</time>
      </trkpt>
      <trkpt lat="43.28003" lon="3.49235">
        <ele>20</ele>
        <time>2025-06-17T11:59:14Z</time>
      </trkpt>
      <trkpt lat="43.28002" lon="3.49229">
        <ele>20</ele>
        <time>2025-06-17T11:59:15Z</time>
      </trkpt>
      <trkpt lat="43.28001" lon="3.49223">
        <ele>20</ele>
        <time>2025-06-17T11:59:16Z</time>
      </trkpt>
      <trkpt lat="43.27999" lon="3.49216">
        <ele>20</ele>
        <time>2025-06-17T11:59:17Z</time>
      </trkpt>
      <trkpt lat="43.27997" lon="3.49209">
        <ele>20</ele>
        <time>2025-06-17T11:59:18Z</time>
      </trkpt>
      <trkpt lat="43.27995" lon="3.49202">
        <ele>20</ele>
        <time>2025-06-17T11:59:19Z</time>
      </trkpt>
      <trkpt lat="43.27993" lon="3.49195">
        <ele>20</ele>
        <time>2025-06-17T11:59:20Z</time>
      </trkpt>
      <trkpt lat="43.2799" lon="3.49187">
        <ele>20</ele>
        <time>2025-06-17T11:59:21Z</time>
      </trkpt>
      <trkpt lat="43.27987" lon="3.49181">
        <ele>20</ele>
        <time>2025-06-17T11:59:22Z</time>
      </trkpt>
      <trkpt lat="43.27984" lon="3.49174">
        <ele>20</ele>
        <time>2025-06-17T11:59:23Z</time>
      </trkpt>
      <trkpt lat="43.27981" lon="3.49168">
        <ele>20</ele>
        <time>2025-06-17T11:59:24Z</time>
      </trkpt>
      <trkpt lat="43.27978" lon="3.49161">
        <ele>20</ele>
        <time>2025-06-17T11:59:25Z</time>
      </trkpt>
      <trkpt lat="43.27975" lon="3.49156">
        <ele>20</ele>
        <time>2025-06-17T11:59:26Z</time>
      </trkpt>
      <trkpt lat="43.27971" lon="3.4915">
        <ele>20</ele>
        <time>2025-06-17T11:59:27Z</time>
      </trkpt>
      <trkpt lat="43.27968" lon="3.49145">
        <ele>20</ele>
        <time>2025-06-17T11:59:28Z</time>
      </trkpt>
      <trkpt lat="43.27965" lon="3.4914">
        <ele>20</ele>
        <time>2025-06-17T11:59:29Z</time>
      </trkpt>
      <trkpt lat="43.27962" lon="3.49135">
        <ele>20</ele>
        <time>2025-06-17T11:59:30Z</time>
      </trkpt>
      <trkpt lat="43.27959" lon="3.4913">
        <ele>20.2</ele>
        <time>2025-06-17T11:59:31Z</time>
      </trkpt>
      <trkpt lat="43.27956" lon="3.49126">
        <ele>20.2</ele>
        <time>2025-06-17T11:59:32Z</time>
      </trkpt>
      <trkpt lat="43.27953" lon="3.49122">
        <ele>20.2</ele>
        <time>2025-06-17T11:59:33Z</time>
      </trkpt>
      <trkpt lat="43.27949" lon="3.49118">
        <ele>20.2</ele>
        <time>2025-06-17T11:59:34Z</time>
      </trkpt>
      <trkpt lat="43.27946" lon="3.49114">
        <ele>20.2</ele>
        <time>2025-06-17T11:59:35Z</time>
      </trkpt>
      <trkpt lat="43.27943" lon="3.4911">
        <ele>20.2</ele>
        <time>2025-06-17T11:59:36Z</time>
      </trkpt>
      <trkpt lat="43.2794" lon="3.49106">
        <ele>20.2</ele>
        <time>2025-06-17T11:59:37Z</time>
      </trkpt>
      <trkpt lat="43.27937" lon="3.49102">
        <ele>20.2</ele>
        <time>2025-06-17T11:59:38Z</time>
      </trkpt>
      <trkpt lat="43.27935" lon="3.49099">
        <ele>20.4</ele>
        <time>2025-06-17T11:59:39Z</time>
      </trkpt>
      <trkpt lat="43.27933" lon="3.49097">
        <ele>20.4</ele>
        <time>2025-06-17T11:59:40Z</time>
      </trkpt>
      <trkpt lat="43.27932" lon="3.49095">
        <ele>20.4</ele>
        <time>2025-06-17T11:59:41Z</time>
      </trkpt>
      <trkpt lat="43.27931" lon="3.49092">
        <ele>20.4</ele>
        <time>2025-06-17T11:59:42Z</time>
      </trkpt>
      <trkpt lat="43.2793" lon="3.49089">
        <ele>20.4</ele>
        <time>2025-06-17T11:59:43Z</time>
      </trkpt>
      <trkpt lat="43.27928" lon="3.49087">
        <ele>20.4</ele>
        <time>2025-06-17T11:59:44Z</time>
      </trkpt>
      <trkpt lat="43.27927" lon="3.49085">
        <ele>20.4</ele>
        <time>2025-06-17T11:59:45Z</time>
      </trkpt>
      <trkpt lat="43.27925" lon="3.49083">
        <ele>20.4</ele>
        <time>2025-06-17T11:59:46Z</time>
      </trkpt>
      <trkpt lat="43.27924" lon="3.49081">
        <ele>20.4</ele>
        <time>2025-06-17T11:59:47Z</time>
      </trkpt>
      <trkpt lat="43.27923" lon="3.49079">
        <ele>20.4</ele>
        <time>2025-06-17T11:59:48Z</time>
      </trkpt>
      <trkpt lat="43.27922" lon="3.49077">
        <ele>20.4</ele>
        <time>2025-06-17T11:59:49Z</time>
      </trkpt>
      <trkpt lat="43.2792" lon="3.49075">
        <ele>20.4</ele>
        <time>2025-06-17T11:59:50Z</time>
      </trkpt>
      <trkpt lat="43.27919" lon="3.49072">
        <ele>20.4</ele>
        <time>2025-06-17T11:59:51Z</time>
      </trkpt>
      <trkpt lat="43.27917" lon="3.49069">
        <ele>20.4</ele>
        <time>2025-06-17T11:59:52Z</time>
      </trkpt>
      <trkpt lat="43.27915" lon="3.49066">
        <ele>20.4</ele>
        <time>2025-06-17T11:59:53Z</time>
      </trkpt>
      <trkpt lat="43.27912" lon="3.49063">
        <ele>20.4</ele>
        <time>2025-06-17T11:59:54Z</time>
      </trkpt>
      <trkpt lat="43.2791" lon="3.4906">
        <ele>20.4</ele>
        <time>2025-06-17T11:59:55Z</time>
      </trkpt>
      <trkpt lat="43.27907" lon="3.49058">
        <ele>20.4</ele>
        <time>2025-06-17T11:59:56Z</time>
      </trkpt>
      <trkpt lat="43.27904" lon="3.49056">
        <ele>20.4</ele>
        <time>2025-06-17T11:59:57Z</time>
      </trkpt>
      <trkpt lat="43.27902" lon="3.49054">
        <ele>20.4</ele>
        <time>2025-06-17T11:59:58Z</time>
      </trkpt>
      <trkpt lat="43.27899" lon="3.49053">
        <ele>20.4</ele>
        <time>2025-06-17T11:59:59Z</time>
      </trkpt>
      <trkpt lat="43.27896" lon="3.49052">
        <ele>20.4</ele>
        <time>2025-06-17T12:00:00Z</time>
      </trkpt>
      <trkpt lat="43.27892" lon="3.4905">
        <ele>20.4</ele>
        <time>2025-06-17T12:00:01Z</time>
      </trkpt>
      <trkpt lat="43.27889" lon="3.49049">
        <ele>20.4</ele>
        <time>2025-06-17T12:00:02Z</time>
      </trkpt>
      <trkpt lat="43.27885" lon="3.49049">
        <ele>20.2</ele>
        <time>2025-06-17T12:00:03Z</time>
      </trkpt>
      <trkpt lat="43.27881" lon="3.4905">
        <ele>20.2</ele>
        <time>2025-06-17T12:00:04Z</time>
      </trkpt>
      <trkpt lat="43.27878" lon="3.49051">
        <ele>20.2</ele>
        <time>2025-06-17T12:00:05Z</time>
      </trkpt>
      <trkpt lat="43.27875" lon="3.49051">
        <ele>20.2</ele>
        <time>2025-06-17T12:00:06Z</time>
      </trkpt>
      <trkpt lat="43.27872" lon="3.49051">
        <ele>20.2</ele>
        <time>2025-06-17T12:00:07Z</time>
      </trkpt>
      <trkpt lat="43.2787" lon="3.4905">
        <ele>20.2</ele>
        <time>2025-06-17T12:00:08Z</time>
      </trkpt>
      <trkpt lat="43.27868" lon="3.49048">
        <ele>20.2</ele>
        <time>2025-06-17T12:00:09Z</time>
      </trkpt>
      <trkpt lat="43.27867" lon="3.49046">
        <ele>20.2</ele>
        <time>2025-06-17T12:00:10Z</time>
      </trkpt>
      <trkpt lat="43.27865" lon="3.49042">
        <ele>20.2</ele>
        <time>2025-06-17T12:00:11Z</time>
      </trkpt>
      <trkpt lat="43.27864" lon="3.49038">
        <ele>20.2</ele>
        <time>2025-06-17T12:00:12Z</time>
      </trkpt>
      <trkpt lat="43.27865" lon="3.49033">
        <ele>20.2</ele>
        <time>2025-06-17T12:00:13Z</time>
      </trkpt>
      <trkpt lat="43.27866" lon="3.49028">
        <ele>20.2</ele>
        <time>2025-06-17T12:00:14Z</time>
      </trkpt>
      <trkpt lat="43.27867" lon="3.49023">
        <ele>20.2</ele>
        <time>2025-06-17T12:00:15Z</time>
      </trkpt>
      <trkpt lat="43.27867" lon="3.49017">
        <ele>20.2</ele>
        <time>2025-06-17T12:00:16Z</time>
      </trkpt>
      <trkpt lat="43.27867" lon="3.49011">
        <ele>20.2</ele>
        <time>2025-06-17T12:00:17Z</time>
      </trkpt>
      <trkpt lat="43.27865" lon="3.49006">
        <ele>20.2</ele>
        <time>2025-06-17T12:00:18Z</time>
      </trkpt>
      <trkpt lat="43.27863" lon="3.49001">
        <ele>20.2</ele>
        <time>2025-06-17T12:00:19Z</time>
      </trkpt>
      <trkpt lat="43.27861" lon="3.48997">
        <ele>20.2</ele>
        <time>2025-06-17T12:00:20Z</time>
      </trkpt>
      <trkpt lat="43.27858" lon="3.48992">
        <ele>20.2</ele>
        <time>2025-06-17T12:00:21Z</time>
      </trkpt>
      <trkpt lat="43.27855" lon="3.48987">
        <ele>20</ele>
        <time>2025-06-17T12:00:22Z</time>
      </trkpt>
      <trkpt lat="43.27852" lon="3.48982">
        <ele>20</ele>
        <time>2025-06-17T12:00:23Z</time>
      </trkpt>
      <trkpt lat="43.27849" lon="3.48976">
        <ele>20.2</ele>
        <time>2025-06-17T12:00:24Z</time>
      </trkpt>
      <trkpt lat="43.27845" lon="3.48971">
        <ele>20</ele>
        <time>2025-06-17T12:00:25Z</time>
      </trkpt>
      <trkpt lat="43.27842" lon="3.48965">
        <ele>20</ele>
        <time>2025-06-17T12:00:26Z</time>
      </trkpt>
      <trkpt lat="43.27839" lon="3.4896">
        <ele>20</ele>
        <time>2025-06-17T12:00:27Z</time>
      </trkpt>
      <trkpt lat="43.27836" lon="3.48954">
        <ele>20</ele>
        <time>2025-06-17T12:00:28Z</time>
      </trkpt>
      <trkpt lat="43.27833" lon="3.48947">
        <ele>20</ele>
        <time>2025-06-17T12:00:29Z</time>
      </trkpt>
      <trkpt lat="43.27829" lon="3.48941">
        <ele>20</ele>
        <time>2025-06-17T12:00:30Z</time>
      </trkpt>
      <trkpt lat="43.27826" lon="3.48935">
        <ele>20</ele>
        <time>2025-06-17T12:00:31Z</time>
      </trkpt>
      <trkpt lat="43.27823" lon="3.48928">
        <ele>20</ele>
        <time>2025-06-17T12:00:32Z</time>
      </trkpt>
      <trkpt lat="43.2782" lon="3.48921">
        <ele>19.8</ele>
        <time>2025-06-17T12:00:33Z</time>
      </trkpt>
      <trkpt lat="43.27817" lon="3.48915">
        <ele>19.8</ele>
        <time>2025-06-17T12:00:34Z</time>
      </trkpt>
      <trkpt lat="43.27814" lon="3.48909">
        <ele>19.8</ele>
        <time>2025-06-17T12:00:35Z</time>
      </trkpt>
      <trkpt lat="43.27812" lon="3.48902">
        <ele>19.8</ele>
        <time>2025-06-17T12:00:36Z</time>
      </trkpt>
      <trkpt lat="43.27809" lon="3.48896">
        <ele>20</ele>
        <time>2025-06-17T12:00:37Z</time>
      </trkpt>
      <trkpt lat="43.27807" lon="3.48889">
        <ele>19.8</ele>
        <time>2025-06-17T12:00:38Z</time>
      </trkpt>
      <trkpt lat="43.27805" lon="3.48882">
        <ele>19.8</ele>
        <time>2025-06-17T12:00:39Z</time>
      </trkpt>
      <trkpt lat="43.27804" lon="3.48876">
        <ele>19.8</ele>
        <time>2025-06-17T12:00:40Z</time>
      </trkpt>
      <trkpt lat="43.27803" lon="3.48869">
        <ele>19.8</ele>
        <time>2025-06-17T12:00:41Z</time>
      </trkpt>
      <trkpt lat="43.27801" lon="3.48862">
        <ele>19.8</ele>
        <time>2025-06-17T12:00:42Z</time>
      </trkpt>
      <trkpt lat="43.27799" lon="3.48856">
        <ele>19.8</ele>
        <time>2025-06-17T12:00:43Z</time>
      </trkpt>
      <trkpt lat="43.27798" lon="3.48849">
        <ele>19.8</ele>
        <time>2025-06-17T12:00:44Z</time>
      </trkpt>
      <trkpt lat="43.27797" lon="3.48843">
        <ele>19.8</ele>
        <time>2025-06-17T12:00:45Z</time>
      </trkpt>
      <trkpt lat="43.27795" lon="3.48838">
        <ele>19.8</ele>
        <time>2025-06-17T12:00:46Z</time>
      </trkpt>
      <trkpt lat="43.27792" lon="3.48835">
        <ele>19.8</ele>
        <time>2025-06-17T12:00:47Z</time>
      </trkpt>
      <trkpt lat="43.27788" lon="3.48833">
        <ele>19.8</ele>
        <time>2025-06-17T12:00:48Z</time>
      </trkpt>
      <trkpt lat="43.27784" lon="3.48831">
        <ele>19.8</ele>
        <time>2025-06-17T12:00:49Z</time>
      </trkpt>
      <trkpt lat="43.2778" lon="3.48831">
        <ele>19.8</ele>
        <time>2025-06-17T12:00:50Z</time>
      </trkpt>
      <trkpt lat="43.27776" lon="3.48831">
        <ele>19.8</ele>
        <time>2025-06-17T12:00:51Z</time>
      </trkpt>
      <trkpt lat="43.27772" lon="3.48831">
        <ele>20</ele>
        <time>2025-06-17T12:00:52Z</time>
      </trkpt>
      <trkpt lat="43.27769" lon="3.4883">
        <ele>20</ele>
        <time>2025-06-17T12:00:53Z</time>
      </trkpt>
      <trkpt lat="43.27766" lon="3.48828">
        <ele>20</ele>
        <time>2025-06-17T12:00:54Z</time>
      </trkpt>
      <trkpt lat="43.27765" lon="3.48825">
        <ele>20</ele>
        <time>2025-06-17T12:00:55Z</time>
      </trkpt>
      <trkpt lat="43.27765" lon="3.48821">
        <ele>20</ele>
        <time>2025-06-17T12:00:56Z</time>
      </trkpt>
      <trkpt lat="43.27766" lon="3.48817">
        <ele>20</ele>
        <time>2025-06-17T12:00:57Z</time>
      </trkpt>
      <trkpt lat="43.27769" lon="3.48815">
        <ele>20</ele>
        <time>2025-06-17T12:00:58Z</time>
      </trkpt>
      <trkpt lat="43.27772" lon="3.48814">
        <ele>20</ele>
        <time>2025-06-17T12:00:59Z</time>
      </trkpt>
      <trkpt lat="43.27775" lon="3.48813">
        <ele>20</ele>
        <time>2025-06-17T12:01:00Z</time>
      </trkpt>
      <trkpt lat="43.27778" lon="3.48811">
        <ele>20</ele>
        <time>2025-06-17T12:01:01Z</time>
      </trkpt>
      <trkpt lat="43.2778" lon="3.48807">
        <ele>20</ele>
        <time>2025-06-17T12:01:02Z</time>
      </trkpt>
      <trkpt lat="43.27783" lon="3.48802">
        <ele>20</ele>
        <time>2025-06-17T12:01:03Z</time>
      </trkpt>
      <trkpt lat="43.27786" lon="3.48796">
        <ele>20</ele>
        <time>2025-06-17T12:01:04Z</time>
      </trkpt>
      <trkpt lat="43.27787" lon="3.4879">
        <ele>20</ele>
        <time>2025-06-17T12:01:05Z</time>
      </trkpt>
      <trkpt lat="43.27788" lon="3.48783">
        <ele>20</ele>
        <time>2025-06-17T12:01:06Z</time>
      </trkpt>
      <trkpt lat="43.27788" lon="3.48776">
        <ele>20</ele>
        <time>2025-06-17T12:01:07Z</time>
      </trkpt>
      <trkpt lat="43.27788" lon="3.48769">
        <ele>20</ele>
        <time>2025-06-17T12:01:08Z</time>
      </trkpt>
      <trkpt lat="43.27788" lon="3.48762">
        <ele>20</ele>
        <time>2025-06-17T12:01:09Z</time>
      </trkpt>
      <trkpt lat="43.27788" lon="3.48755">
        <ele>20</ele>
        <time>2025-06-17T12:01:10Z</time>
      </trkpt>
      <trkpt lat="43.27788" lon="3.48748">
        <ele>20</ele>
        <time>2025-06-17T12:01:11Z</time>
      </trkpt>
      <trkpt lat="43.27788" lon="3.48742">
        <ele>20.2</ele>
        <time>2025-06-17T12:01:12Z</time>
      </trkpt>
      <trkpt lat="43.27788" lon="3.48734">
        <ele>20.2</ele>
        <time>2025-06-17T12:01:13Z</time>
      </trkpt>
      <trkpt lat="43.27788" lon="3.48727">
        <ele>20.2</ele>
        <time>2025-06-17T12:01:14Z</time>
      </trkpt>
      <trkpt lat="43.27788" lon="3.4872">
        <ele>20.2</ele>
        <time>2025-06-17T12:01:15Z</time>
      </trkpt>
      <trkpt lat="43.27788" lon="3.48712">
        <ele>20.2</ele>
        <time>2025-06-17T12:01:16Z</time>
      </trkpt>
      <trkpt lat="43.27789" lon="3.48704">
        <ele>20.2</ele>
        <time>2025-06-17T12:01:17Z</time>
      </trkpt>
      <trkpt lat="43.27789" lon="3.48696">
        <ele>20.2</ele>
        <time>2025-06-17T12:01:18Z</time>
      </trkpt>
      <trkpt lat="43.27789" lon="3.48689">
        <ele>20.2</ele>
        <time>2025-06-17T12:01:19Z</time>
      </trkpt>
      <trkpt lat="43.2779" lon="3.48681">
        <ele>20.2</ele>
        <time>2025-06-17T12:01:20Z</time>
      </trkpt>
      <trkpt lat="43.2779" lon="3.48674">
        <ele>20.2</ele>
        <time>2025-06-17T12:01:21Z</time>
      </trkpt>
      <trkpt lat="43.27791" lon="3.48668">
        <ele>20.2</ele>
        <time>2025-06-17T12:01:22Z</time>
      </trkpt>
      <trkpt lat="43.27792" lon="3.48662">
        <ele>20.2</ele>
        <time>2025-06-17T12:01:23Z</time>
      </trkpt>
      <trkpt lat="43.27792" lon="3.48655">
        <ele>20.2</ele>
        <time>2025-06-17T12:01:24Z</time>
      </trkpt>
      <trkpt lat="43.27792" lon="3.48648">
        <ele>20.4</ele>
        <time>2025-06-17T12:01:25Z</time>
      </trkpt>
      <trkpt lat="43.27794" lon="3.48642">
        <ele>20.4</ele>
        <time>2025-06-17T12:01:26Z</time>
      </trkpt>
      <trkpt lat="43.27794" lon="3.48635">
        <ele>20.4</ele>
        <time>2025-06-17T12:01:27Z</time>
      </trkpt>
      <trkpt lat="43.27795" lon="3.48627">
        <ele>20.4</ele>
        <time>2025-06-17T12:01:28Z</time>
      </trkpt>
      <trkpt lat="43.27795" lon="3.4862">
        <ele>20.4</ele>
        <time>2025-06-17T12:01:29Z</time>
      </trkpt>
      <trkpt lat="43.27796" lon="3.48613">
        <ele>20.4</ele>
        <time>2025-06-17T12:01:30Z</time>
      </trkpt>
      <trkpt lat="43.27797" lon="3.48606">
        <ele>20.4</ele>
        <time>2025-06-17T12:01:31Z</time>
      </trkpt>
      <trkpt lat="43.27797" lon="3.48598">
        <ele>20.6</ele>
        <time>2025-06-17T12:01:32Z</time>
      </trkpt>
      <trkpt lat="43.27797" lon="3.4859">
        <ele>20.6</ele>
        <time>2025-06-17T12:01:33Z</time>
      </trkpt>
      <trkpt lat="43.27797" lon="3.48582">
        <ele>20.6</ele>
        <time>2025-06-17T12:01:34Z</time>
      </trkpt>
      <trkpt lat="43.27799" lon="3.48574">
        <ele>20.6</ele>
        <time>2025-06-17T12:01:35Z</time>
      </trkpt>
      <trkpt lat="43.278" lon="3.48567">
        <ele>20.6</ele>
        <time>2025-06-17T12:01:36Z</time>
      </trkpt>
      <trkpt lat="43.278" lon="3.4856">
        <ele>20.6</ele>
        <time>2025-06-17T12:01:37Z</time>
      </trkpt>
      <trkpt lat="43.278" lon="3.48554">
        <ele>20.6</ele>
        <time>2025-06-17T12:01:38Z</time>
      </trkpt>
      <trkpt lat="43.27799" lon="3.48547">
        <ele>20.6</ele>
        <time>2025-06-17T12:01:39Z</time>
      </trkpt>
      <trkpt lat="43.27797" lon="3.48543">
        <ele>20.6</ele>
        <time>2025-06-17T12:01:40Z</time>
      </trkpt>
      <trkpt lat="43.27794" lon="3.48539">
        <ele>20.8</ele>
        <time>2025-06-17T12:01:41Z</time>
      </trkpt>
      <trkpt lat="43.27792" lon="3.48535">
        <ele>20.8</ele>
        <time>2025-06-17T12:01:42Z</time>
      </trkpt>
      <trkpt lat="43.2779" lon="3.48533">
        <ele>20.8</ele>
        <time>2025-06-17T12:01:43Z</time>
      </trkpt>
      <trkpt lat="43.27789" lon="3.48524">
        <ele>20.8</ele>
        <time>2025-06-17T12:01:49Z</time>
      </trkpt>
      <trkpt lat="43.27789" lon="3.48521">
        <ele>20.6</ele>
        <time>2025-06-17T12:01:50Z</time>
      </trkpt>
      <trkpt lat="43.27789" lon="3.48516">
        <ele>20.6</ele>
        <time>2025-06-17T12:01:51Z</time>
      </trkpt>
      <trkpt lat="43.2779" lon="3.48513">
        <ele>20.6</ele>
        <time>2025-06-17T12:01:52Z</time>
      </trkpt>
      <trkpt lat="43.27791" lon="3.48511">
        <ele>20.6</ele>
        <time>2025-06-17T12:01:53Z</time>
      </trkpt>
      <trkpt lat="43.27793" lon="3.48509">
        <ele>20.6</ele>
        <time>2025-06-17T12:01:54Z</time>
      </trkpt>
      <trkpt lat="43.27796" lon="3.48506">
        <ele>20.6</ele>
        <time>2025-06-17T12:01:55Z</time>
      </trkpt>
      <trkpt lat="43.27799" lon="3.48503">
        <ele>20.8</ele>
        <time>2025-06-17T12:01:56Z</time>
      </trkpt>
      <trkpt lat="43.27803" lon="3.485">
        <ele>20.8</ele>
        <time>2025-06-17T12:01:57Z</time>
      </trkpt>
      <trkpt lat="43.27806" lon="3.48496">
        <ele>20.8</ele>
        <time>2025-06-17T12:01:58Z</time>
      </trkpt>
      <trkpt lat="43.27809" lon="3.48491">
        <ele>20.8</ele>
        <time>2025-06-17T12:01:59Z</time>
      </trkpt>
      <trkpt lat="43.27812" lon="3.48486">
        <ele>20.8</ele>
        <time>2025-06-17T12:02:00Z</time>
      </trkpt>
      <trkpt lat="43.27813" lon="3.48479">
        <ele>20.8</ele>
        <time>2025-06-17T12:02:01Z</time>
      </trkpt>
      <trkpt lat="43.27813" lon="3.48472">
        <ele>20.8</ele>
        <time>2025-06-17T12:02:02Z</time>
      </trkpt>
      <trkpt lat="43.27814" lon="3.48465">
        <ele>20.8</ele>
        <time>2025-06-17T12:02:03Z</time>
      </trkpt>
      <trkpt lat="43.27815" lon="3.48459">
        <ele>20.8</ele>
        <time>2025-06-17T12:02:04Z</time>
      </trkpt>
      <trkpt lat="43.27815" lon="3.48452">
        <ele>20.8</ele>
        <time>2025-06-17T12:02:05Z</time>
      </trkpt>
      <trkpt lat="43.27816" lon="3.48445">
        <ele>21</ele>
        <time>2025-06-17T12:02:06Z</time>
      </trkpt>
      <trkpt lat="43.27817" lon="3.48439">
        <ele>21</ele>
        <time>2025-06-17T12:02:07Z</time>
      </trkpt>
      <trkpt lat="43.27818" lon="3.48432">
        <ele>21</ele>
        <time>2025-06-17T12:02:08Z</time>
      </trkpt>
      <trkpt lat="43.2782" lon="3.48426">
        <ele>21.2</ele>
        <time>2025-06-17T12:02:09Z</time>
      </trkpt>
      <trkpt lat="43.27821" lon="3.4842">
        <ele>21.2</ele>
        <time>2025-06-17T12:02:10Z</time>
      </trkpt>
      <trkpt lat="43.27823" lon="3.48413">
        <ele>21.2</ele>
        <time>2025-06-17T12:02:11Z</time>
      </trkpt>
      <trkpt lat="43.27825" lon="3.48406">
        <ele>21.2</ele>
        <time>2025-06-17T12:02:12Z</time>
      </trkpt>
      <trkpt lat="43.27826" lon="3.48399">
        <ele>21.4</ele>
        <time>2025-06-17T12:02:13Z</time>
      </trkpt>
      <trkpt lat="43.27828" lon="3.48392">
        <ele>21.4</ele>
        <time>2025-06-17T12:02:14Z</time>
      </trkpt>
      <trkpt lat="43.27829" lon="3.48386">
        <ele>21.4</ele>
        <time>2025-06-17T12:02:15Z</time>
      </trkpt>
      <trkpt lat="43.27831" lon="3.48379">
        <ele>21.6</ele>
        <time>2025-06-17T12:02:16Z</time>
      </trkpt>
      <trkpt lat="43.27833" lon="3.48373">
        <ele>21.6</ele>
        <time>2025-06-17T12:02:17Z</time>
      </trkpt>
      <trkpt lat="43.27835" lon="3.48367">
        <ele>21.6</ele>
        <time>2025-06-17T12:02:18Z</time>
      </trkpt>
      <trkpt lat="43.27837" lon="3.48361">
        <ele>21.6</ele>
        <time>2025-06-17T12:02:19Z</time>
      </trkpt>
      <trkpt lat="43.2784" lon="3.48355">
        <ele>21.8</ele>
        <time>2025-06-17T12:02:20Z</time>
      </trkpt>
      <trkpt lat="43.27842" lon="3.4835">
        <ele>21.8</ele>
        <time>2025-06-17T12:02:21Z</time>
      </trkpt>
      <trkpt lat="43.27844" lon="3.48345">
        <ele>21.8</ele>
        <time>2025-06-17T12:02:22Z</time>
      </trkpt>
      <trkpt lat="43.27846" lon="3.4834">
        <ele>21.8</ele>
        <time>2025-06-17T12:02:23Z</time>
      </trkpt>
      <trkpt lat="43.27848" lon="3.48334">
        <ele>21.8</ele>
        <time>2025-06-17T12:02:24Z</time>
      </trkpt>
      <trkpt lat="43.27849" lon="3.48329">
        <ele>22</ele>
        <time>2025-06-17T12:02:25Z</time>
      </trkpt>
      <trkpt lat="43.27852" lon="3.48324">
        <ele>22</ele>
        <time>2025-06-17T12:02:26Z</time>
      </trkpt>
      <trkpt lat="43.27854" lon="3.48318">
        <ele>22</ele>
        <time>2025-06-17T12:02:27Z</time>
      </trkpt>
      <trkpt lat="43.27857" lon="3.48312">
        <ele>22</ele>
        <time>2025-06-17T12:02:28Z</time>
      </trkpt>
      <trkpt lat="43.2786" lon="3.48306">
        <ele>22</ele>
        <time>2025-06-17T12:02:29Z</time>
      </trkpt>
      <trkpt lat="43.27862" lon="3.483">
        <ele>22.2</ele>
        <time>2025-06-17T12:02:30Z</time>
      </trkpt>
      <trkpt lat="43.27864" lon="3.48293">
        <ele>22.2</ele>
        <time>2025-06-17T12:02:31Z</time>
      </trkpt>
      <trkpt lat="43.27865" lon="3.48286">
        <ele>22.2</ele>
        <time>2025-06-17T12:02:32Z</time>
      </trkpt>
      <trkpt lat="43.27867" lon="3.48278">
        <ele>22.4</ele>
        <time>2025-06-17T12:02:33Z</time>
      </trkpt>
      <trkpt lat="43.27868" lon="3.48271">
        <ele>22.4</ele>
        <time>2025-06-17T12:02:34Z</time>
      </trkpt>
      <trkpt lat="43.27868" lon="3.48263">
        <ele>22.4</ele>
        <time>2025-06-17T12:02:35Z</time>
      </trkpt>
      <trkpt lat="43.27867" lon="3.48256">
        <ele>22.4</ele>
        <time>2025-06-17T12:02:36Z</time>
      </trkpt>
      <trkpt lat="43.27867" lon="3.48248">
        <ele>22.4</ele>
        <time>2025-06-17T12:02:37Z</time>
      </trkpt>
      <trkpt lat="43.27865" lon="3.48241">
        <ele>22.4</ele>
        <time>2025-06-17T12:02:38Z</time>
      </trkpt>
      <trkpt lat="43.27864" lon="3.48235">
        <ele>22.4</ele>
        <time>2025-06-17T12:02:39Z</time>
      </trkpt>
      <trkpt lat="43.27862" lon="3.48229">
        <ele>22.6</ele>
        <time>2025-06-17T12:02:40Z</time>
      </trkpt>
      <trkpt lat="43.2786" lon="3.48223">
        <ele>22.6</ele>
        <time>2025-06-17T12:02:41Z</time>
      </trkpt>
      <trkpt lat="43.27858" lon="3.48217">
        <ele>22.6</ele>
        <time>2025-06-17T12:02:42Z</time>
      </trkpt>
      <trkpt lat="43.27854" lon="3.48212">
        <ele>22.6</ele>
        <time>2025-06-17T12:02:43Z</time>
      </trkpt>
      <trkpt lat="43.2785" lon="3.48208">
        <ele>22.6</ele>
        <time>2025-06-17T12:02:44Z</time>
      </trkpt>
      <trkpt lat="43.27846" lon="3.48204">
        <ele>22.8</ele>
        <time>2025-06-17T12:02:45Z</time>
      </trkpt>
      <trkpt lat="43.27842" lon="3.482">
        <ele>22.8</ele>
        <time>2025-06-17T12:02:46Z</time>
      </trkpt>
      <trkpt lat="43.27837" lon="3.48197">
        <ele>22.8</ele>
        <time>2025-06-17T12:02:47Z</time>
      </trkpt>
      <trkpt lat="43.27833" lon="3.48195">
        <ele>22.8</ele>
        <time>2025-06-17T12:02:48Z</time>
      </trkpt>
      <trkpt lat="43.27828" lon="3.48192">
        <ele>22.8</ele>
        <time>2025-06-17T12:02:49Z</time>
      </trkpt>
      <trkpt lat="43.27824" lon="3.48188">
        <ele>22.8</ele>
        <time>2025-06-17T12:02:50Z</time>
      </trkpt>
      <trkpt lat="43.2782" lon="3.48184">
        <ele>22.8</ele>
        <time>2025-06-17T12:02:51Z</time>
      </trkpt>
      <trkpt lat="43.27816" lon="3.48179">
        <ele>22.8</ele>
        <time>2025-06-17T12:02:52Z</time>
      </trkpt>
      <trkpt lat="43.27813" lon="3.48174">
        <ele>22.8</ele>
        <time>2025-06-17T12:02:53Z</time>
      </trkpt>
      <trkpt lat="43.27811" lon="3.48169">
        <ele>22.8</ele>
        <time>2025-06-17T12:02:54Z</time>
      </trkpt>
      <trkpt lat="43.27809" lon="3.48165">
        <ele>22.8</ele>
        <time>2025-06-17T12:02:55Z</time>
      </trkpt>
      <trkpt lat="43.27808" lon="3.48161">
        <ele>22.6</ele>
        <time>2025-06-17T12:02:56Z</time>
      </trkpt>
      <trkpt lat="43.27808" lon="3.48156">
        <ele>22.6</ele>
        <time>2025-06-17T12:02:57Z</time>
      </trkpt>
      <trkpt lat="43.27809" lon="3.4815">
        <ele>22.6</ele>
        <time>2025-06-17T12:02:58Z</time>
      </trkpt>
      <trkpt lat="43.27809" lon="3.48146">
        <ele>22.6</ele>
        <time>2025-06-17T12:02:59Z</time>
      </trkpt>
      <trkpt lat="43.27808" lon="3.48142">
        <ele>22.6</ele>
        <time>2025-06-17T12:03:00Z</time>
      </trkpt>
      <trkpt lat="43.27808" lon="3.4814">
        <ele>22.6</ele>
        <time>2025-06-17T12:03:01Z</time>
      </trkpt>
      <trkpt lat="43.27811" lon="3.48131">
        <ele>22.8</ele>
        <time>2025-06-17T12:03:07Z</time>
      </trkpt>
      <trkpt lat="43.27813" lon="3.48128">
        <ele>22.8</ele>
        <time>2025-06-17T12:03:08Z</time>
      </trkpt>
      <trkpt lat="43.27815" lon="3.48125">
        <ele>22.8</ele>
        <time>2025-06-17T12:03:09Z</time>
      </trkpt>
      <trkpt lat="43.27818" lon="3.48122">
        <ele>22.8</ele>
        <time>2025-06-17T12:03:10Z</time>
      </trkpt>
      <trkpt lat="43.27821" lon="3.48119">
        <ele>22.8</ele>
        <time>2025-06-17T12:03:11Z</time>
      </trkpt>
      <trkpt lat="43.27824" lon="3.48117">
        <ele>22.8</ele>
        <time>2025-06-17T12:03:12Z</time>
      </trkpt>
      <trkpt lat="43.27827" lon="3.48115">
        <ele>23</ele>
        <time>2025-06-17T12:03:13Z</time>
      </trkpt>
      <trkpt lat="43.2783" lon="3.48114">
        <ele>23</ele>
        <time>2025-06-17T12:03:14Z</time>
      </trkpt>
      <trkpt lat="43.27833" lon="3.48114">
        <ele>23</ele>
        <time>2025-06-17T12:03:15Z</time>
      </trkpt>
      <trkpt lat="43.27834" lon="3.48114">
        <ele>23</ele>
        <time>2025-06-17T12:03:16Z</time>
      </trkpt>
      <trkpt lat="43.27836" lon="3.48113">
        <ele>23</ele>
        <time>2025-06-17T12:03:17Z</time>
      </trkpt>
      <trkpt lat="43.27837" lon="3.48113">
        <ele>23</ele>
        <time>2025-06-17T12:03:18Z</time>
      </trkpt>
      <trkpt lat="43.27837" lon="3.48112">
        <ele>23</ele>
        <time>2025-06-17T12:03:19Z</time>
      </trkpt>
      <trkpt lat="43.27837" lon="3.48112">
        <ele>23</ele>
        <time>2025-06-17T12:03:20Z</time>
      </trkpt>
      <trkpt lat="43.27837" lon="3.48112">
        <ele>23</ele>
        <time>2025-06-17T12:03:21Z</time>
      </trkpt>
      <trkpt lat="43.27837" lon="3.48112">
        <ele>23</ele>
        <time>2025-06-17T12:03:22Z</time>
      </trkpt>
      <trkpt lat="43.27835" lon="3.48109">
        <ele>23</ele>
        <time>2025-06-17T12:03:42Z</time>
      </trkpt>
      <trkpt lat="43.27834" lon="3.48108">
        <ele>22.8</ele>
        <time>2025-06-17T12:03:43Z</time>
      </trkpt>
      <trkpt lat="43.27833" lon="3.48105">
        <ele>22.8</ele>
        <time>2025-06-17T12:03:44Z</time>
      </trkpt>
      <trkpt lat="43.27834" lon="3.48103">
        <ele>22.8</ele>
        <time>2025-06-17T12:03:45Z</time>
      </trkpt>
      <trkpt lat="43.27835" lon="3.481">
        <ele>22.6</ele>
        <time>2025-06-17T12:03:46Z</time>
      </trkpt>
      <trkpt lat="43.27836" lon="3.48097">
        <ele>22.6</ele>
        <time>2025-06-17T12:03:47Z</time>
      </trkpt>
      <trkpt lat="43.27835" lon="3.48094">
        <ele>22.6</ele>
        <time>2025-06-17T12:03:48Z</time>
      </trkpt>
      <trkpt lat="43.27834" lon="3.48092">
        <ele>22.6</ele>
        <time>2025-06-17T12:03:49Z</time>
      </trkpt>
      <trkpt lat="43.27831" lon="3.48089">
        <ele>22.4</ele>
        <time>2025-06-17T12:03:50Z</time>
      </trkpt>
      <trkpt lat="43.27829" lon="3.48086">
        <ele>22.4</ele>
        <time>2025-06-17T12:03:51Z</time>
      </trkpt>
      <trkpt lat="43.27827" lon="3.48082">
        <ele>22.4</ele>
        <time>2025-06-17T12:03:52Z</time>
      </trkpt>
      <trkpt lat="43.27824" lon="3.48078">
        <ele>22.4</ele>
        <time>2025-06-17T12:03:53Z</time>
      </trkpt>
      <trkpt lat="43.27821" lon="3.48074">
        <ele>22.2</ele>
        <time>2025-06-17T12:03:54Z</time>
      </trkpt>
      <trkpt lat="43.27818" lon="3.4807">
        <ele>22.2</ele>
        <time>2025-06-17T12:03:55Z</time>
      </trkpt>
      <trkpt lat="43.27815" lon="3.48067">
        <ele>22.2</ele>
        <time>2025-06-17T12:03:56Z</time>
      </trkpt>
      <trkpt lat="43.27811" lon="3.48064">
        <ele>22.2</ele>
        <time>2025-06-17T12:03:57Z</time>
      </trkpt>
      <trkpt lat="43.27807" lon="3.48062">
        <ele>22</ele>
        <time>2025-06-17T12:03:58Z</time>
      </trkpt>
      <trkpt lat="43.27803" lon="3.4806">
        <ele>22</ele>
        <time>2025-06-17T12:03:59Z</time>
      </trkpt>
      <trkpt lat="43.27799" lon="3.48058">
        <ele>22</ele>
        <time>2025-06-17T12:04:00Z</time>
      </trkpt>
      <trkpt lat="43.27796" lon="3.48057">
        <ele>22</ele>
        <time>2025-06-17T12:04:01Z</time>
      </trkpt>
      <trkpt lat="43.27793" lon="3.48056">
        <ele>22</ele>
        <time>2025-06-17T12:04:02Z</time>
      </trkpt>
      <trkpt lat="43.2779" lon="3.48055">
        <ele>22</ele>
        <time>2025-06-17T12:04:03Z</time>
      </trkpt>
      <trkpt lat="43.27787" lon="3.48054">
        <ele>22</ele>
        <time>2025-06-17T12:04:04Z</time>
      </trkpt>
      <trkpt lat="43.27785" lon="3.48053">
        <ele>22</ele>
        <time>2025-06-17T12:04:05Z</time>
      </trkpt>
      <trkpt lat="43.27782" lon="3.48052">
        <ele>22</ele>
        <time>2025-06-17T12:04:06Z</time>
      </trkpt>
      <trkpt lat="43.2778" lon="3.48052">
        <ele>22</ele>
        <time>2025-06-17T12:04:07Z</time>
      </trkpt>
      <trkpt lat="43.27778" lon="3.48051">
        <ele>22</ele>
        <time>2025-06-17T12:04:08Z</time>
      </trkpt>
      <trkpt lat="43.27776" lon="3.4805">
        <ele>22</ele>
        <time>2025-06-17T12:04:09Z</time>
      </trkpt>
      <trkpt lat="43.27774" lon="3.48049">
        <ele>22</ele>
        <time>2025-06-17T12:04:10Z</time>
      </trkpt>
      <trkpt lat="43.27774" lon="3.48049">
        <ele>22</ele>
        <time>2025-06-17T12:04:11Z</time>
      </trkpt>
      <trkpt lat="43.27775" lon="3.48048">
        <ele>22</ele>
        <time>2025-06-17T12:04:12Z</time>
      </trkpt>
      <trkpt lat="43.27776" lon="3.48044">
        <ele>22</ele>
        <time>2025-06-17T12:04:13Z</time>
      </trkpt>
      <trkpt lat="43.27776" lon="3.48044">
        <ele>22</ele>
        <time>2025-06-17T12:04:14Z</time>
      </trkpt>
      <trkpt lat="43.27776" lon="3.48044">
        <ele>22</ele>
        <time>2025-06-17T12:04:15Z</time>
      </trkpt>
    </trkseg>
  </trk>
</gpx>